<?xml version="1.0" encoding="UTF-8" standalone="no" ?>
<gpx xmlns="http://www.topografix.com/GPX/1/1" xmlns:xsi="http://www.w3.org/2001/XMLSchema-instance" xsi:schemaLocation="http://www.topografix.com/GPX/1/1 http://www.topografix.com/GPX/1/1/gpx.xsd" version="1.1" creator="VisuGPX - https://www.visugpx.com">
  <metadata>
    <name>lundi 2015 06 15</name>
    <desc><![CDATA[rando du lundi]]></desc>
  </metadata>
  <trk>
    <name><![CDATA[2 Rue Saint-Denis]]></name>
    <desc><![CDATA[]]></desc>
    <trkseg>
      <trkpt lat="48.85796" lon="2.3473">
        <ele>96.7</ele>
        <time>2015-06-15T18:20:57.207Z</time>
      </trkpt>
      <trkpt lat="48.85803" lon="2.34731">
        <ele>97.1</ele>
        <time>2015-06-15T18:21:00.293Z</time>
      </trkpt>
      <trkpt lat="48.85806" lon="2.34732">
        <ele>97.4</ele>
        <time>2015-06-15T18:21:01.278Z</time>
      </trkpt>
      <trkpt lat="48.85813" lon="2.34734">
        <ele>98.2</ele>
        <time>2015-06-15T18:21:03.372Z</time>
      </trkpt>
      <trkpt lat="48.85817" lon="2.34735">
        <ele>98.4</ele>
        <time>2015-06-15T18:21:04.269Z</time>
      </trkpt>
      <trkpt lat="48.85826" lon="2.34735">
        <ele>98.7</ele>
        <time>2015-06-15T18:21:06.295Z</time>
      </trkpt>
      <trkpt lat="48.8583" lon="2.34735">
        <ele>98.9</ele>
        <time>2015-06-15T18:21:07.304Z</time>
      </trkpt>
      <trkpt lat="48.85838" lon="2.34736">
        <ele>99.4</ele>
        <time>2015-06-15T18:21:09.454Z</time>
      </trkpt>
      <trkpt lat="48.85842" lon="2.34737">
        <ele>99.6</ele>
        <time>2015-06-15T18:21:10.278Z</time>
      </trkpt>
      <trkpt lat="48.85851" lon="2.3474">
        <ele>99.8</ele>
        <time>2015-06-15T18:21:12.334Z</time>
      </trkpt>
      <trkpt lat="48.85854" lon="2.34741">
        <ele>100</ele>
        <time>2015-06-15T18:21:13.450Z</time>
      </trkpt>
      <trkpt lat="48.85862" lon="2.3474">
        <ele>100.2</ele>
        <time>2015-06-15T18:21:15.279Z</time>
      </trkpt>
      <trkpt lat="48.85866" lon="2.34739">
        <ele>100.4</ele>
        <time>2015-06-15T18:21:16.282Z</time>
      </trkpt>
      <trkpt lat="48.85874" lon="2.34735">
        <ele>100.5</ele>
        <time>2015-06-15T18:21:18.508Z</time>
      </trkpt>
      <trkpt lat="48.85877" lon="2.34731">
        <ele>100.6</ele>
        <time>2015-06-15T18:21:19.292Z</time>
      </trkpt>
      <trkpt lat="48.85881" lon="2.34727">
        <ele>100</ele>
        <time>2015-06-15T18:21:20.326Z</time>
      </trkpt>
      <trkpt lat="48.85885" lon="2.34722">
        <ele>99.4</ele>
        <time>2015-06-15T18:21:21.343Z</time>
      </trkpt>
      <trkpt lat="48.8589" lon="2.34711">
        <ele>99</ele>
        <time>2015-06-15T18:21:23.435Z</time>
      </trkpt>
      <trkpt lat="48.85892" lon="2.34706">
        <ele>99.2</ele>
        <time>2015-06-15T18:21:24.303Z</time>
      </trkpt>
      <trkpt lat="48.85895" lon="2.34695">
        <ele>99.7</ele>
        <time>2015-06-15T18:21:26.383Z</time>
      </trkpt>
      <trkpt lat="48.85896" lon="2.34691">
        <ele>100</ele>
        <time>2015-06-15T18:21:27.412Z</time>
      </trkpt>
      <trkpt lat="48.85899" lon="2.34682">
        <ele>100.1</ele>
        <time>2015-06-15T18:21:29.956Z</time>
      </trkpt>
      <trkpt lat="48.85901" lon="2.34677">
        <ele>100.2</ele>
        <time>2015-06-15T18:21:30.318Z</time>
      </trkpt>
      <trkpt lat="48.85904" lon="2.34668">
        <ele>100.2</ele>
        <time>2015-06-15T18:21:32.478Z</time>
      </trkpt>
      <trkpt lat="48.85905" lon="2.34663">
        <ele>100.3</ele>
        <time>2015-06-15T18:21:33.305Z</time>
      </trkpt>
      <trkpt lat="48.85908" lon="2.34653">
        <ele>100.4</ele>
        <time>2015-06-15T18:21:35.331Z</time>
      </trkpt>
      <trkpt lat="48.8591" lon="2.34648">
        <ele>100.3</ele>
        <time>2015-06-15T18:21:36.347Z</time>
      </trkpt>
      <trkpt lat="48.85914" lon="2.34639">
        <ele>100.3</ele>
        <time>2015-06-15T18:21:38.376Z</time>
      </trkpt>
      <trkpt lat="48.85915" lon="2.34634">
        <ele>100.3</ele>
        <time>2015-06-15T18:21:39.312Z</time>
      </trkpt>
      <trkpt lat="48.85919" lon="2.34627">
        <ele>100.5</ele>
        <time>2015-06-15T18:21:41.305Z</time>
      </trkpt>
      <trkpt lat="48.85921" lon="2.34623">
        <ele>100.6</ele>
        <time>2015-06-15T18:21:42.321Z</time>
      </trkpt>
      <trkpt lat="48.85923" lon="2.34612">
        <ele>100.3</ele>
        <time>2015-06-15T18:21:45.099Z</time>
      </trkpt>
      <trkpt lat="48.85924" lon="2.34606">
        <ele>100</ele>
        <time>2015-06-15T18:21:45.280Z</time>
      </trkpt>
      <trkpt lat="48.85928" lon="2.34595">
        <ele>99.7</ele>
        <time>2015-06-15T18:21:47.326Z</time>
      </trkpt>
      <trkpt lat="48.8593" lon="2.3459">
        <ele>99.7</ele>
        <time>2015-06-15T18:21:48.358Z</time>
      </trkpt>
      <trkpt lat="48.85934" lon="2.34578">
        <ele>99.6</ele>
        <time>2015-06-15T18:21:50.320Z</time>
      </trkpt>
      <trkpt lat="48.85936" lon="2.34573">
        <ele>99.4</ele>
        <time>2015-06-15T18:21:51.365Z</time>
      </trkpt>
      <trkpt lat="48.85939" lon="2.3456">
        <ele>98.9</ele>
        <time>2015-06-15T18:21:53.286Z</time>
      </trkpt>
      <trkpt lat="48.8594" lon="2.34554">
        <ele>98.6</ele>
        <time>2015-06-15T18:21:54.321Z</time>
      </trkpt>
      <trkpt lat="48.85941" lon="2.34547">
        <ele>98.2</ele>
        <time>2015-06-15T18:21:55.238Z</time>
      </trkpt>
      <trkpt lat="48.85943" lon="2.3454">
        <ele>98</ele>
        <time>2015-06-15T18:21:56.328Z</time>
      </trkpt>
      <trkpt lat="48.85946" lon="2.34528">
        <ele>97.9</ele>
        <time>2015-06-15T18:21:58.347Z</time>
      </trkpt>
      <trkpt lat="48.85948" lon="2.34521">
        <ele>98</ele>
        <time>2015-06-15T18:21:59.370Z</time>
      </trkpt>
      <trkpt lat="48.85953" lon="2.3451">
        <ele>98</ele>
        <time>2015-06-15T18:22:01.326Z</time>
      </trkpt>
      <trkpt lat="48.85955" lon="2.34504">
        <ele>98.1</ele>
        <time>2015-06-15T18:22:02.378Z</time>
      </trkpt>
      <trkpt lat="48.8596" lon="2.34493">
        <ele>98</ele>
        <time>2015-06-15T18:22:04.319Z</time>
      </trkpt>
      <trkpt lat="48.85963" lon="2.34488">
        <ele>97.9</ele>
        <time>2015-06-15T18:22:05.370Z</time>
      </trkpt>
      <trkpt lat="48.85966" lon="2.34479">
        <ele>97.8</ele>
        <time>2015-06-15T18:22:07.389Z</time>
      </trkpt>
      <trkpt lat="48.85968" lon="2.34475">
        <ele>97.9</ele>
        <time>2015-06-15T18:22:08.395Z</time>
      </trkpt>
      <trkpt lat="48.85971" lon="2.34466">
        <ele>97.8</ele>
        <time>2015-06-15T18:22:10.351Z</time>
      </trkpt>
      <trkpt lat="48.85972" lon="2.34461">
        <ele>97.8</ele>
        <time>2015-06-15T18:22:11.358Z</time>
      </trkpt>
      <trkpt lat="48.85976" lon="2.3445">
        <ele>97.9</ele>
        <time>2015-06-15T18:22:13.336Z</time>
      </trkpt>
      <trkpt lat="48.85978" lon="2.34444">
        <ele>97.8</ele>
        <time>2015-06-15T18:22:14.356Z</time>
      </trkpt>
      <trkpt lat="48.85981" lon="2.34433">
        <ele>98</ele>
        <time>2015-06-15T18:22:16.270Z</time>
      </trkpt>
      <trkpt lat="48.85983" lon="2.34427">
        <ele>98.1</ele>
        <time>2015-06-15T18:22:17.314Z</time>
      </trkpt>
      <trkpt lat="48.85986" lon="2.34417">
        <ele>98.4</ele>
        <time>2015-06-15T18:22:19.324Z</time>
      </trkpt>
      <trkpt lat="48.85987" lon="2.34412">
        <ele>98.5</ele>
        <time>2015-06-15T18:22:20.356Z</time>
      </trkpt>
      <trkpt lat="48.8599" lon="2.344">
        <ele>98.7</ele>
        <time>2015-06-15T18:22:22.932Z</time>
      </trkpt>
      <trkpt lat="48.85992" lon="2.34393">
        <ele>98.9</ele>
        <time>2015-06-15T18:22:23.318Z</time>
      </trkpt>
      <trkpt lat="48.85996" lon="2.34381">
        <ele>99.2</ele>
        <time>2015-06-15T18:22:25.329Z</time>
      </trkpt>
      <trkpt lat="48.85997" lon="2.34375">
        <ele>99.2</ele>
        <time>2015-06-15T18:22:26.404Z</time>
      </trkpt>
      <trkpt lat="48.86001" lon="2.34363">
        <ele>98.9</ele>
        <time>2015-06-15T18:22:28.357Z</time>
      </trkpt>
      <trkpt lat="48.86003" lon="2.34357">
        <ele>98.8</ele>
        <time>2015-06-15T18:22:29.379Z</time>
      </trkpt>
      <trkpt lat="48.86005" lon="2.34351">
        <ele>98.8</ele>
        <time>2015-06-15T18:22:30.392Z</time>
      </trkpt>
      <trkpt lat="48.86008" lon="2.34344">
        <ele>98.8</ele>
        <time>2015-06-15T18:22:31.316Z</time>
      </trkpt>
      <trkpt lat="48.86011" lon="2.34338">
        <ele>98.8</ele>
        <time>2015-06-15T18:22:32.395Z</time>
      </trkpt>
      <trkpt lat="48.86013" lon="2.34332">
        <ele>98.3</ele>
        <time>2015-06-15T18:22:33.330Z</time>
      </trkpt>
      <trkpt lat="48.86017" lon="2.34319">
        <ele>98.2</ele>
        <time>2015-06-15T18:22:35.320Z</time>
      </trkpt>
      <trkpt lat="48.86019" lon="2.34313">
        <ele>98.2</ele>
        <time>2015-06-15T18:22:36.368Z</time>
      </trkpt>
      <trkpt lat="48.86021" lon="2.34307">
        <ele>97.9</ele>
        <time>2015-06-15T18:22:37.267Z</time>
      </trkpt>
      <trkpt lat="48.86023" lon="2.343">
        <ele>98.1</ele>
        <time>2015-06-15T18:22:38.416Z</time>
      </trkpt>
      <trkpt lat="48.86025" lon="2.34293">
        <ele>98.1</ele>
        <time>2015-06-15T18:22:39.325Z</time>
      </trkpt>
      <trkpt lat="48.86028" lon="2.34287">
        <ele>98</ele>
        <time>2015-06-15T18:22:40.337Z</time>
      </trkpt>
      <trkpt lat="48.86031" lon="2.34281">
        <ele>98.2</ele>
        <time>2015-06-15T18:22:41.307Z</time>
      </trkpt>
      <trkpt lat="48.86034" lon="2.34275">
        <ele>98.1</ele>
        <time>2015-06-15T18:22:42.287Z</time>
      </trkpt>
      <trkpt lat="48.86036" lon="2.34267">
        <ele>98.2</ele>
        <time>2015-06-15T18:22:43.319Z</time>
      </trkpt>
      <trkpt lat="48.86037" lon="2.34261">
        <ele>98.3</ele>
        <time>2015-06-15T18:22:44.330Z</time>
      </trkpt>
      <trkpt lat="48.8604" lon="2.34254">
        <ele>98.4</ele>
        <time>2015-06-15T18:22:45.334Z</time>
      </trkpt>
      <trkpt lat="48.86042" lon="2.34248">
        <ele>98.4</ele>
        <time>2015-06-15T18:22:46.332Z</time>
      </trkpt>
      <trkpt lat="48.86044" lon="2.34241">
        <ele>98.3</ele>
        <time>2015-06-15T18:22:47.370Z</time>
      </trkpt>
      <trkpt lat="48.86046" lon="2.34235">
        <ele>98.3</ele>
        <time>2015-06-15T18:22:48.384Z</time>
      </trkpt>
      <trkpt lat="48.86047" lon="2.34227">
        <ele>98.2</ele>
        <time>2015-06-15T18:22:49.273Z</time>
      </trkpt>
      <trkpt lat="48.8605" lon="2.34221">
        <ele>98.2</ele>
        <time>2015-06-15T18:22:50.352Z</time>
      </trkpt>
      <trkpt lat="48.86052" lon="2.34215">
        <ele>98</ele>
        <time>2015-06-15T18:22:51.363Z</time>
      </trkpt>
      <trkpt lat="48.86055" lon="2.34209">
        <ele>96.9</ele>
        <time>2015-06-15T18:22:52.296Z</time>
      </trkpt>
      <trkpt lat="48.86058" lon="2.34202">
        <ele>96.3</ele>
        <time>2015-06-15T18:22:53.295Z</time>
      </trkpt>
      <trkpt lat="48.8606" lon="2.34195">
        <ele>96.2</ele>
        <time>2015-06-15T18:22:54.299Z</time>
      </trkpt>
      <trkpt lat="48.86062" lon="2.34188">
        <ele>96.2</ele>
        <time>2015-06-15T18:22:55.321Z</time>
      </trkpt>
      <trkpt lat="48.86064" lon="2.34181">
        <ele>96.2</ele>
        <time>2015-06-15T18:22:56.338Z</time>
      </trkpt>
      <trkpt lat="48.86066" lon="2.34174">
        <ele>96.2</ele>
        <time>2015-06-15T18:22:57.359Z</time>
      </trkpt>
      <trkpt lat="48.86068" lon="2.34166">
        <ele>96.1</ele>
        <time>2015-06-15T18:22:58.362Z</time>
      </trkpt>
      <trkpt lat="48.86069" lon="2.34159">
        <ele>96</ele>
        <time>2015-06-15T18:22:59.380Z</time>
      </trkpt>
      <trkpt lat="48.86071" lon="2.34151">
        <ele>96</ele>
        <time>2015-06-15T18:23:00.279Z</time>
      </trkpt>
      <trkpt lat="48.86073" lon="2.34144">
        <ele>96.1</ele>
        <time>2015-06-15T18:23:01.390Z</time>
      </trkpt>
      <trkpt lat="48.86074" lon="2.34138">
        <ele>96.2</ele>
        <time>2015-06-15T18:23:02.402Z</time>
      </trkpt>
      <trkpt lat="48.86076" lon="2.34127">
        <ele>96.2</ele>
        <time>2015-06-15T18:23:04.297Z</time>
      </trkpt>
      <trkpt lat="48.86078" lon="2.34122">
        <ele>96.2</ele>
        <time>2015-06-15T18:23:05.351Z</time>
      </trkpt>
      <trkpt lat="48.86081" lon="2.34112">
        <ele>96.5</ele>
        <time>2015-06-15T18:23:07.296Z</time>
      </trkpt>
      <trkpt lat="48.86083" lon="2.34108">
        <ele>96.5</ele>
        <time>2015-06-15T18:23:08.412Z</time>
      </trkpt>
      <trkpt lat="48.86086" lon="2.34096">
        <ele>96</ele>
        <time>2015-06-15T18:23:11.316Z</time>
      </trkpt>
      <trkpt lat="48.86086" lon="2.34094">
        <ele>96</ele>
        <time>2015-06-15T18:23:12.343Z</time>
      </trkpt>
      <trkpt lat="48.86087" lon="2.34091">
        <ele>95.9</ele>
        <time>2015-06-15T18:23:14.386Z</time>
      </trkpt>
      <trkpt lat="48.86088" lon="2.34091">
        <ele>96.1</ele>
        <time>2015-06-15T18:23:15.278Z</time>
      </trkpt>
      <trkpt lat="48.86088" lon="2.34091">
        <ele>96.3</ele>
        <time>2015-06-15T18:23:23.321Z</time>
      </trkpt>
      <trkpt lat="48.86089" lon="2.34091">
        <ele>96.6</ele>
        <time>2015-06-15T18:23:24.326Z</time>
      </trkpt>
      <trkpt lat="48.86093" lon="2.34083">
        <ele>96.8</ele>
        <time>2015-06-15T18:23:27.335Z</time>
      </trkpt>
      <trkpt lat="48.86095" lon="2.3408">
        <ele>96.8</ele>
        <time>2015-06-15T18:23:28.343Z</time>
      </trkpt>
      <trkpt lat="48.86099" lon="2.34073">
        <ele>97</ele>
        <time>2015-06-15T18:23:30.352Z</time>
      </trkpt>
      <trkpt lat="48.86101" lon="2.34069">
        <ele>97</ele>
        <time>2015-06-15T18:23:31.377Z</time>
      </trkpt>
      <trkpt lat="48.86107" lon="2.3406">
        <ele>97</ele>
        <time>2015-06-15T18:23:33.295Z</time>
      </trkpt>
      <trkpt lat="48.86109" lon="2.34055">
        <ele>97</ele>
        <time>2015-06-15T18:23:34.337Z</time>
      </trkpt>
      <trkpt lat="48.86114" lon="2.34043">
        <ele>96.9</ele>
        <time>2015-06-15T18:23:36.360Z</time>
      </trkpt>
      <trkpt lat="48.86116" lon="2.34037">
        <ele>96.9</ele>
        <time>2015-06-15T18:23:37.340Z</time>
      </trkpt>
      <trkpt lat="48.86118" lon="2.34029">
        <ele>96.7</ele>
        <time>2015-06-15T18:23:38.353Z</time>
      </trkpt>
      <trkpt lat="48.8612" lon="2.34022">
        <ele>96.6</ele>
        <time>2015-06-15T18:23:39.328Z</time>
      </trkpt>
      <trkpt lat="48.86122" lon="2.34015">
        <ele>96.6</ele>
        <time>2015-06-15T18:23:40.336Z</time>
      </trkpt>
      <trkpt lat="48.86125" lon="2.34008">
        <ele>96.7</ele>
        <time>2015-06-15T18:23:41.343Z</time>
      </trkpt>
      <trkpt lat="48.86126" lon="2.34">
        <ele>96.7</ele>
        <time>2015-06-15T18:23:42.353Z</time>
      </trkpt>
      <trkpt lat="48.86129" lon="2.33993">
        <ele>96.5</ele>
        <time>2015-06-15T18:23:43.397Z</time>
      </trkpt>
      <trkpt lat="48.86131" lon="2.33986">
        <ele>96.6</ele>
        <time>2015-06-15T18:23:44.338Z</time>
      </trkpt>
      <trkpt lat="48.86133" lon="2.33979">
        <ele>96.6</ele>
        <time>2015-06-15T18:23:45.330Z</time>
      </trkpt>
      <trkpt lat="48.86135" lon="2.33971">
        <ele>96.8</ele>
        <time>2015-06-15T18:23:46.338Z</time>
      </trkpt>
      <trkpt lat="48.86136" lon="2.33963">
        <ele>96.7</ele>
        <time>2015-06-15T18:23:47.350Z</time>
      </trkpt>
      <trkpt lat="48.86138" lon="2.33955">
        <ele>96.8</ele>
        <time>2015-06-15T18:23:48.367Z</time>
      </trkpt>
      <trkpt lat="48.86139" lon="2.33948">
        <ele>96.8</ele>
        <time>2015-06-15T18:23:49.316Z</time>
      </trkpt>
      <trkpt lat="48.8614" lon="2.3394">
        <ele>96.7</ele>
        <time>2015-06-15T18:23:50.347Z</time>
      </trkpt>
      <trkpt lat="48.86142" lon="2.33933">
        <ele>96.8</ele>
        <time>2015-06-15T18:23:51.356Z</time>
      </trkpt>
      <trkpt lat="48.86144" lon="2.33926">
        <ele>97</ele>
        <time>2015-06-15T18:23:52.432Z</time>
      </trkpt>
      <trkpt lat="48.86146" lon="2.3392">
        <ele>96.8</ele>
        <time>2015-06-15T18:23:53.381Z</time>
      </trkpt>
      <trkpt lat="48.86151" lon="2.33913">
        <ele>96.8</ele>
        <time>2015-06-15T18:23:55.320Z</time>
      </trkpt>
      <trkpt lat="48.86155" lon="2.33914">
        <ele>96.8</ele>
        <time>2015-06-15T18:23:56.343Z</time>
      </trkpt>
      <trkpt lat="48.86161" lon="2.33921">
        <ele>97.1</ele>
        <time>2015-06-15T18:23:58.370Z</time>
      </trkpt>
      <trkpt lat="48.86163" lon="2.33924">
        <ele>97.4</ele>
        <time>2015-06-15T18:23:59.384Z</time>
      </trkpt>
      <trkpt lat="48.8617" lon="2.3393">
        <ele>97.6</ele>
        <time>2015-06-15T18:24:01.309Z</time>
      </trkpt>
      <trkpt lat="48.86174" lon="2.33932">
        <ele>97.9</ele>
        <time>2015-06-15T18:24:02.350Z</time>
      </trkpt>
      <trkpt lat="48.86179" lon="2.33936">
        <ele>97.9</ele>
        <time>2015-06-15T18:24:03.350Z</time>
      </trkpt>
      <trkpt lat="48.86183" lon="2.33939">
        <ele>97.9</ele>
        <time>2015-06-15T18:24:04.365Z</time>
      </trkpt>
      <trkpt lat="48.86191" lon="2.33945">
        <ele>98.1</ele>
        <time>2015-06-15T18:24:06.303Z</time>
      </trkpt>
      <trkpt lat="48.86195" lon="2.33939">
        <ele>95.3</ele>
        <time>2015-06-15T18:24:07.312Z</time>
      </trkpt>
      <trkpt lat="48.86203" lon="2.33933">
        <ele>93.9</ele>
        <time>2015-06-15T18:24:09.429Z</time>
      </trkpt>
      <trkpt lat="48.86206" lon="2.33929">
        <ele>94.1</ele>
        <time>2015-06-15T18:24:10.311Z</time>
      </trkpt>
      <trkpt lat="48.8621" lon="2.33925">
        <ele>94.2</ele>
        <time>2015-06-15T18:24:11.307Z</time>
      </trkpt>
      <trkpt lat="48.86214" lon="2.33922">
        <ele>94.3</ele>
        <time>2015-06-15T18:24:12.339Z</time>
      </trkpt>
      <trkpt lat="48.86221" lon="2.33919">
        <ele>95.1</ele>
        <time>2015-06-15T18:24:14.366Z</time>
      </trkpt>
      <trkpt lat="48.86226" lon="2.33922">
        <ele>95.9</ele>
        <time>2015-06-15T18:24:15.275Z</time>
      </trkpt>
      <trkpt lat="48.86234" lon="2.33926">
        <ele>96.9</ele>
        <time>2015-06-15T18:24:17.317Z</time>
      </trkpt>
      <trkpt lat="48.86238" lon="2.33928">
        <ele>97.1</ele>
        <time>2015-06-15T18:24:18.341Z</time>
      </trkpt>
      <trkpt lat="48.86246" lon="2.33931">
        <ele>97.2</ele>
        <time>2015-06-15T18:24:20.369Z</time>
      </trkpt>
      <trkpt lat="48.86249" lon="2.33933">
        <ele>97.2</ele>
        <time>2015-06-15T18:24:21.328Z</time>
      </trkpt>
      <trkpt lat="48.86257" lon="2.33935">
        <ele>97.6</ele>
        <time>2015-06-15T18:24:23.307Z</time>
      </trkpt>
      <trkpt lat="48.8626" lon="2.33937">
        <ele>97.8</ele>
        <time>2015-06-15T18:24:24.341Z</time>
      </trkpt>
      <trkpt lat="48.86266" lon="2.3394">
        <ele>97.9</ele>
        <time>2015-06-15T18:24:26.364Z</time>
      </trkpt>
      <trkpt lat="48.8627" lon="2.33941">
        <ele>98.1</ele>
        <time>2015-06-15T18:24:27.275Z</time>
      </trkpt>
      <trkpt lat="48.86277" lon="2.33938">
        <ele>98</ele>
        <time>2015-06-15T18:24:29.318Z</time>
      </trkpt>
      <trkpt lat="48.86281" lon="2.33935">
        <ele>97.9</ele>
        <time>2015-06-15T18:24:30.323Z</time>
      </trkpt>
      <trkpt lat="48.86285" lon="2.33933">
        <ele>97.9</ele>
        <time>2015-06-15T18:24:31.361Z</time>
      </trkpt>
      <trkpt lat="48.86289" lon="2.33929">
        <ele>97.9</ele>
        <time>2015-06-15T18:24:32.373Z</time>
      </trkpt>
      <trkpt lat="48.86295" lon="2.33922">
        <ele>97.6</ele>
        <time>2015-06-15T18:24:34.274Z</time>
      </trkpt>
      <trkpt lat="48.86298" lon="2.33918">
        <ele>97.5</ele>
        <time>2015-06-15T18:24:35.336Z</time>
      </trkpt>
      <trkpt lat="48.86301" lon="2.33909">
        <ele>97.2</ele>
        <time>2015-06-15T18:24:37.385Z</time>
      </trkpt>
      <trkpt lat="48.86303" lon="2.33906">
        <ele>97.3</ele>
        <time>2015-06-15T18:24:38.297Z</time>
      </trkpt>
      <trkpt lat="48.86305" lon="2.33897">
        <ele>97.1</ele>
        <time>2015-06-15T18:24:40.359Z</time>
      </trkpt>
      <trkpt lat="48.86306" lon="2.33892">
        <ele>97.1</ele>
        <time>2015-06-15T18:24:41.267Z</time>
      </trkpt>
      <trkpt lat="48.86308" lon="2.33881">
        <ele>96.9</ele>
        <time>2015-06-15T18:24:43.308Z</time>
      </trkpt>
      <trkpt lat="48.86309" lon="2.33876">
        <ele>96.9</ele>
        <time>2015-06-15T18:24:44.350Z</time>
      </trkpt>
      <trkpt lat="48.86306" lon="2.33866">
        <ele>97</ele>
        <time>2015-06-15T18:24:47.429Z</time>
      </trkpt>
      <trkpt lat="48.86304" lon="2.33863">
        <ele>97.1</ele>
        <time>2015-06-15T18:24:48.326Z</time>
      </trkpt>
      <trkpt lat="48.86304" lon="2.33861">
        <ele>97.1</ele>
        <time>2015-06-15T18:24:49.303Z</time>
      </trkpt>
      <trkpt lat="48.86306" lon="2.33861">
        <ele>96.7</ele>
        <time>2015-06-15T18:24:50.328Z</time>
      </trkpt>
      <trkpt lat="48.86307" lon="2.33859">
        <ele>96.4</ele>
        <time>2015-06-15T18:24:51.337Z</time>
      </trkpt>
      <trkpt lat="48.8631" lon="2.33846">
        <ele>95.9</ele>
        <time>2015-06-15T18:24:54.314Z</time>
      </trkpt>
      <trkpt lat="48.86313" lon="2.33842">
        <ele>95.7</ele>
        <time>2015-06-15T18:24:55.284Z</time>
      </trkpt>
      <trkpt lat="48.86316" lon="2.33836">
        <ele>95.5</ele>
        <time>2015-06-15T18:24:56.333Z</time>
      </trkpt>
      <trkpt lat="48.86319" lon="2.33829">
        <ele>95.3</ele>
        <time>2015-06-15T18:24:57.349Z</time>
      </trkpt>
      <trkpt lat="48.86323" lon="2.33818">
        <ele>95.1</ele>
        <time>2015-06-15T18:24:59.282Z</time>
      </trkpt>
      <trkpt lat="48.86325" lon="2.33813">
        <ele>95.3</ele>
        <time>2015-06-15T18:25:00.360Z</time>
      </trkpt>
      <trkpt lat="48.86333" lon="2.3381">
        <ele>96.2</ele>
        <time>2015-06-15T18:25:05.318Z</time>
      </trkpt>
      <trkpt lat="48.86336" lon="2.33812">
        <ele>96.4</ele>
        <time>2015-06-15T18:25:06.328Z</time>
      </trkpt>
      <trkpt lat="48.86343" lon="2.33817">
        <ele>96.4</ele>
        <time>2015-06-15T18:25:10.285Z</time>
      </trkpt>
      <trkpt lat="48.86345" lon="2.33819">
        <ele>96.4</ele>
        <time>2015-06-15T18:25:11.320Z</time>
      </trkpt>
      <trkpt lat="48.86352" lon="2.33826">
        <ele>96.4</ele>
        <time>2015-06-15T18:25:14.353Z</time>
      </trkpt>
      <trkpt lat="48.86356" lon="2.33828">
        <ele>96.5</ele>
        <time>2015-06-15T18:25:15.278Z</time>
      </trkpt>
      <trkpt lat="48.86361" lon="2.33831">
        <ele>96.6</ele>
        <time>2015-06-15T18:25:16.331Z</time>
      </trkpt>
      <trkpt lat="48.86365" lon="2.33834">
        <ele>96.8</ele>
        <time>2015-06-15T18:25:17.286Z</time>
      </trkpt>
      <trkpt lat="48.86373" lon="2.33836">
        <ele>97.3</ele>
        <time>2015-06-15T18:25:19.355Z</time>
      </trkpt>
      <trkpt lat="48.86377" lon="2.33837">
        <ele>97.5</ele>
        <time>2015-06-15T18:25:20.312Z</time>
      </trkpt>
      <trkpt lat="48.86384" lon="2.3384">
        <ele>97.6</ele>
        <time>2015-06-15T18:25:22.379Z</time>
      </trkpt>
      <trkpt lat="48.86388" lon="2.33842">
        <ele>97.7</ele>
        <time>2015-06-15T18:25:23.278Z</time>
      </trkpt>
      <trkpt lat="48.86394" lon="2.33849">
        <ele>97.9</ele>
        <time>2015-06-15T18:25:25.305Z</time>
      </trkpt>
      <trkpt lat="48.86398" lon="2.33851">
        <ele>98.1</ele>
        <time>2015-06-15T18:25:26.333Z</time>
      </trkpt>
      <trkpt lat="48.86407" lon="2.33856">
        <ele>98.3</ele>
        <time>2015-06-15T18:25:28.360Z</time>
      </trkpt>
      <trkpt lat="48.86411" lon="2.33859">
        <ele>98.5</ele>
        <time>2015-06-15T18:25:29.288Z</time>
      </trkpt>
      <trkpt lat="48.86419" lon="2.33864">
        <ele>98.8</ele>
        <time>2015-06-15T18:25:31.296Z</time>
      </trkpt>
      <trkpt lat="48.86423" lon="2.33867">
        <ele>98.9</ele>
        <time>2015-06-15T18:25:32.294Z</time>
      </trkpt>
      <trkpt lat="48.86427" lon="2.3387">
        <ele>99</ele>
        <time>2015-06-15T18:25:33.311Z</time>
      </trkpt>
      <trkpt lat="48.86432" lon="2.33874">
        <ele>99.1</ele>
        <time>2015-06-15T18:25:34.342Z</time>
      </trkpt>
      <trkpt lat="48.86437" lon="2.33877">
        <ele>99.1</ele>
        <time>2015-06-15T18:25:35.265Z</time>
      </trkpt>
      <trkpt lat="48.86442" lon="2.33881">
        <ele>99.1</ele>
        <time>2015-06-15T18:25:36.262Z</time>
      </trkpt>
      <trkpt lat="48.86446" lon="2.33884">
        <ele>99.1</ele>
        <time>2015-06-15T18:25:37.280Z</time>
      </trkpt>
      <trkpt lat="48.8645" lon="2.33888">
        <ele>99.2</ele>
        <time>2015-06-15T18:25:38.315Z</time>
      </trkpt>
      <trkpt lat="48.86457" lon="2.33895">
        <ele>99</ele>
        <time>2015-06-15T18:25:40.332Z</time>
      </trkpt>
      <trkpt lat="48.86462" lon="2.33898">
        <ele>98.9</ele>
        <time>2015-06-15T18:25:41.337Z</time>
      </trkpt>
      <trkpt lat="48.86467" lon="2.33899">
        <ele>98.8</ele>
        <time>2015-06-15T18:25:42.340Z</time>
      </trkpt>
      <trkpt lat="48.86471" lon="2.33901">
        <ele>98.6</ele>
        <time>2015-06-15T18:25:43.363Z</time>
      </trkpt>
      <trkpt lat="48.86476" lon="2.33903">
        <ele>98.5</ele>
        <time>2015-06-15T18:25:44.311Z</time>
      </trkpt>
      <trkpt lat="48.8648" lon="2.33906">
        <ele>98.4</ele>
        <time>2015-06-15T18:25:45.314Z</time>
      </trkpt>
      <trkpt lat="48.86487" lon="2.33909">
        <ele>98.2</ele>
        <time>2015-06-15T18:25:47.329Z</time>
      </trkpt>
      <trkpt lat="48.86491" lon="2.33912">
        <ele>98.1</ele>
        <time>2015-06-15T18:25:48.339Z</time>
      </trkpt>
      <trkpt lat="48.86498" lon="2.33919">
        <ele>97.8</ele>
        <time>2015-06-15T18:25:50.330Z</time>
      </trkpt>
      <trkpt lat="48.86502" lon="2.33922">
        <ele>97.9</ele>
        <time>2015-06-15T18:25:51.318Z</time>
      </trkpt>
      <trkpt lat="48.86509" lon="2.33925">
        <ele>98</ele>
        <time>2015-06-15T18:25:52.285Z</time>
      </trkpt>
      <trkpt lat="48.86516" lon="2.33928">
        <ele>98.1</ele>
        <time>2015-06-15T18:25:53.302Z</time>
      </trkpt>
      <trkpt lat="48.86522" lon="2.3393">
        <ele>98.3</ele>
        <time>2015-06-15T18:25:54.311Z</time>
      </trkpt>
      <trkpt lat="48.86529" lon="2.33931">
        <ele>98.4</ele>
        <time>2015-06-15T18:25:55.316Z</time>
      </trkpt>
      <trkpt lat="48.86534" lon="2.33932">
        <ele>98.5</ele>
        <time>2015-06-15T18:25:56.328Z</time>
      </trkpt>
      <trkpt lat="48.8654" lon="2.33932">
        <ele>98.6</ele>
        <time>2015-06-15T18:25:57.322Z</time>
      </trkpt>
      <trkpt lat="48.86544" lon="2.33931">
        <ele>98.8</ele>
        <time>2015-06-15T18:25:58.346Z</time>
      </trkpt>
      <trkpt lat="48.86559" lon="2.33925">
        <ele>96.8</ele>
        <time>2015-06-15T18:26:01.312Z</time>
      </trkpt>
      <trkpt lat="48.86566" lon="2.33919">
        <ele>95.8</ele>
        <time>2015-06-15T18:26:03.256Z</time>
      </trkpt>
      <trkpt lat="48.86569" lon="2.33916">
        <ele>95.2</ele>
        <time>2015-06-15T18:26:04.297Z</time>
      </trkpt>
      <trkpt lat="48.86573" lon="2.33907">
        <ele>94.4</ele>
        <time>2015-06-15T18:26:06.250Z</time>
      </trkpt>
      <trkpt lat="48.86574" lon="2.33902">
        <ele>94.2</ele>
        <time>2015-06-15T18:26:07.246Z</time>
      </trkpt>
      <trkpt lat="48.86573" lon="2.3389">
        <ele>93.5</ele>
        <time>2015-06-15T18:26:09.321Z</time>
      </trkpt>
      <trkpt lat="48.86573" lon="2.33883">
        <ele>93.2</ele>
        <time>2015-06-15T18:26:10.225Z</time>
      </trkpt>
      <trkpt lat="48.86576" lon="2.33871">
        <ele>92.6</ele>
        <time>2015-06-15T18:26:13.307Z</time>
      </trkpt>
      <trkpt lat="48.86576" lon="2.33868">
        <ele>92.4</ele>
        <time>2015-06-15T18:26:14.324Z</time>
      </trkpt>
      <trkpt lat="48.86577" lon="2.33855">
        <ele>91.3</ele>
        <time>2015-06-15T18:26:20.331Z</time>
      </trkpt>
      <trkpt lat="48.86579" lon="2.33853">
        <ele>91.2</ele>
        <time>2015-06-15T18:26:21.348Z</time>
      </trkpt>
      <trkpt lat="48.86584" lon="2.33844">
        <ele>90.9</ele>
        <time>2015-06-15T18:26:25.364Z</time>
      </trkpt>
      <trkpt lat="48.86586" lon="2.33842">
        <ele>90.8</ele>
        <time>2015-06-15T18:26:26.416Z</time>
      </trkpt>
      <trkpt lat="48.86592" lon="2.33833">
        <ele>90.5</ele>
        <time>2015-06-15T18:26:30.309Z</time>
      </trkpt>
      <trkpt lat="48.86592" lon="2.3383">
        <ele>90.4</ele>
        <time>2015-06-15T18:26:31.329Z</time>
      </trkpt>
      <trkpt lat="48.86595" lon="2.3382">
        <ele>90.4</ele>
        <time>2015-06-15T18:26:35.313Z</time>
      </trkpt>
      <trkpt lat="48.86597" lon="2.33818">
        <ele>90.4</ele>
        <time>2015-06-15T18:26:36.340Z</time>
      </trkpt>
      <trkpt lat="48.86603" lon="2.33812">
        <ele>90.3</ele>
        <time>2015-06-15T18:26:39.305Z</time>
      </trkpt>
      <trkpt lat="48.86605" lon="2.3381">
        <ele>90.2</ele>
        <time>2015-06-15T18:26:40.164Z</time>
      </trkpt>
      <trkpt lat="48.86608" lon="2.338">
        <ele>89.7</ele>
        <time>2015-06-15T18:26:43.087Z</time>
      </trkpt>
      <trkpt lat="48.86609" lon="2.33797">
        <ele>89.8</ele>
        <time>2015-06-15T18:26:44.107Z</time>
      </trkpt>
      <trkpt lat="48.86615" lon="2.33789">
        <ele>91.8</ele>
        <time>2015-06-15T18:26:48.103Z</time>
      </trkpt>
      <trkpt lat="48.86617" lon="2.33789">
        <ele>92.5</ele>
        <time>2015-06-15T18:26:49.147Z</time>
      </trkpt>
      <trkpt lat="48.86619" lon="2.33789">
        <ele>93</ele>
        <time>2015-06-15T18:26:50.161Z</time>
      </trkpt>
      <trkpt lat="48.8662" lon="2.33788">
        <ele>93.5</ele>
        <time>2015-06-15T18:26:51.169Z</time>
      </trkpt>
      <trkpt lat="48.86619" lon="2.33787">
        <ele>93.7</ele>
        <time>2015-06-15T18:26:52.105Z</time>
      </trkpt>
      <trkpt lat="48.86619" lon="2.33782">
        <ele>94.7</ele>
        <time>2015-06-15T18:27:00.206Z</time>
      </trkpt>
      <trkpt lat="48.86619" lon="2.33781">
        <ele>94.9</ele>
        <time>2015-06-15T18:27:01.129Z</time>
      </trkpt>
      <trkpt lat="48.8662" lon="2.3378">
        <ele>95.1</ele>
        <time>2015-06-15T18:27:02.135Z</time>
      </trkpt>
      <trkpt lat="48.8662" lon="2.3378">
        <ele>95.8</ele>
        <time>2015-06-15T18:27:05.183Z</time>
      </trkpt>
      <trkpt lat="48.8662" lon="2.3378">
        <ele>95.9</ele>
        <time>2015-06-15T18:27:06.101Z</time>
      </trkpt>
      <trkpt lat="48.8662" lon="2.3378">
        <ele>96</ele>
        <time>2015-06-15T18:27:07.096Z</time>
      </trkpt>
      <trkpt lat="48.86618" lon="2.33769">
        <ele>97.4</ele>
        <time>2015-06-15T18:27:17.088Z</time>
      </trkpt>
      <trkpt lat="48.86623" lon="2.33765">
        <ele>96.8</ele>
        <time>2015-06-15T18:27:24.055Z</time>
      </trkpt>
      <trkpt lat="48.86626" lon="2.33759">
        <ele>97.4</ele>
        <time>2015-06-15T18:27:26.161Z</time>
      </trkpt>
      <trkpt lat="48.86628" lon="2.33753">
        <ele>98</ele>
        <time>2015-06-15T18:27:27.110Z</time>
      </trkpt>
      <trkpt lat="48.86635" lon="2.3375">
        <ele>98.3</ele>
        <time>2015-06-15T18:27:29.813Z</time>
      </trkpt>
      <trkpt lat="48.86638" lon="2.33751">
        <ele>98.3</ele>
        <time>2015-06-15T18:27:30.729Z</time>
      </trkpt>
      <trkpt lat="48.86647" lon="2.33752">
        <ele>98.2</ele>
        <time>2015-06-15T18:27:33.819Z</time>
      </trkpt>
      <trkpt lat="48.86652" lon="2.33746">
        <ele>96.8</ele>
        <time>2015-06-15T18:27:34.763Z</time>
      </trkpt>
      <trkpt lat="48.86656" lon="2.33742">
        <ele>96</ele>
        <time>2015-06-15T18:27:35.776Z</time>
      </trkpt>
      <trkpt lat="48.86659" lon="2.33737">
        <ele>95.7</ele>
        <time>2015-06-15T18:27:36.817Z</time>
      </trkpt>
      <trkpt lat="48.86663" lon="2.3373">
        <ele>95.7</ele>
        <time>2015-06-15T18:27:38.801Z</time>
      </trkpt>
      <trkpt lat="48.86665" lon="2.33725">
        <ele>95.4</ele>
        <time>2015-06-15T18:27:39.809Z</time>
      </trkpt>
      <trkpt lat="48.86669" lon="2.33713">
        <ele>94.7</ele>
        <time>2015-06-15T18:27:41.769Z</time>
      </trkpt>
      <trkpt lat="48.8667" lon="2.33706">
        <ele>94.5</ele>
        <time>2015-06-15T18:27:42.801Z</time>
      </trkpt>
      <trkpt lat="48.8667" lon="2.33698">
        <ele>94.2</ele>
        <time>2015-06-15T18:27:43.815Z</time>
      </trkpt>
      <trkpt lat="48.86671" lon="2.3369">
        <ele>93.6</ele>
        <time>2015-06-15T18:27:44.819Z</time>
      </trkpt>
      <trkpt lat="48.86673" lon="2.33683">
        <ele>93.1</ele>
        <time>2015-06-15T18:27:45.817Z</time>
      </trkpt>
      <trkpt lat="48.86675" lon="2.33676">
        <ele>91.6</ele>
        <time>2015-06-15T18:27:46.829Z</time>
      </trkpt>
      <trkpt lat="48.86677" lon="2.3367">
        <ele>91</ele>
        <time>2015-06-15T18:27:47.766Z</time>
      </trkpt>
      <trkpt lat="48.86679" lon="2.33664">
        <ele>91.1</ele>
        <time>2015-06-15T18:27:48.763Z</time>
      </trkpt>
      <trkpt lat="48.86684" lon="2.33653">
        <ele>90.9</ele>
        <time>2015-06-15T18:27:50.810Z</time>
      </trkpt>
      <trkpt lat="48.86687" lon="2.33647">
        <ele>90.8</ele>
        <time>2015-06-15T18:27:51.848Z</time>
      </trkpt>
      <trkpt lat="48.86691" lon="2.33636">
        <ele>90.8</ele>
        <time>2015-06-15T18:27:53.802Z</time>
      </trkpt>
      <trkpt lat="48.86693" lon="2.33631">
        <ele>90.8</ele>
        <time>2015-06-15T18:27:54.893Z</time>
      </trkpt>
      <trkpt lat="48.86696" lon="2.3362">
        <ele>90.6</ele>
        <time>2015-06-15T18:27:56.770Z</time>
      </trkpt>
      <trkpt lat="48.86698" lon="2.33614">
        <ele>90.4</ele>
        <time>2015-06-15T18:27:57.860Z</time>
      </trkpt>
      <trkpt lat="48.86701" lon="2.33608">
        <ele>90.4</ele>
        <time>2015-06-15T18:27:58.773Z</time>
      </trkpt>
      <trkpt lat="48.86704" lon="2.33602">
        <ele>90.3</ele>
        <time>2015-06-15T18:27:59.828Z</time>
      </trkpt>
      <trkpt lat="48.86706" lon="2.33596">
        <ele>90.3</ele>
        <time>2015-06-15T18:28:00.836Z</time>
      </trkpt>
      <trkpt lat="48.86709" lon="2.33588">
        <ele>90.2</ele>
        <time>2015-06-15T18:28:01.847Z</time>
      </trkpt>
      <trkpt lat="48.86711" lon="2.33581">
        <ele>90.2</ele>
        <time>2015-06-15T18:28:02.861Z</time>
      </trkpt>
      <trkpt lat="48.86714" lon="2.33573">
        <ele>90.2</ele>
        <time>2015-06-15T18:28:03.732Z</time>
      </trkpt>
      <trkpt lat="48.86716" lon="2.33566">
        <ele>90.1</ele>
        <time>2015-06-15T18:28:04.798Z</time>
      </trkpt>
      <trkpt lat="48.8672" lon="2.33559">
        <ele>90.1</ele>
        <time>2015-06-15T18:28:05.825Z</time>
      </trkpt>
      <trkpt lat="48.8672" lon="2.33551">
        <ele>90</ele>
        <time>2015-06-15T18:28:06.773Z</time>
      </trkpt>
      <trkpt lat="48.86722" lon="2.33543">
        <ele>89.9</ele>
        <time>2015-06-15T18:28:07.769Z</time>
      </trkpt>
      <trkpt lat="48.86723" lon="2.33531">
        <ele>90.1</ele>
        <time>2015-06-15T18:28:08.839Z</time>
      </trkpt>
      <trkpt lat="48.86723" lon="2.33523">
        <ele>90</ele>
        <time>2015-06-15T18:28:09.832Z</time>
      </trkpt>
      <trkpt lat="48.86723" lon="2.33515">
        <ele>89.9</ele>
        <time>2015-06-15T18:28:10.839Z</time>
      </trkpt>
      <trkpt lat="48.86722" lon="2.33507">
        <ele>89.9</ele>
        <time>2015-06-15T18:28:11.835Z</time>
      </trkpt>
      <trkpt lat="48.86722" lon="2.33499">
        <ele>89.9</ele>
        <time>2015-06-15T18:28:12.782Z</time>
      </trkpt>
      <trkpt lat="48.86722" lon="2.33492">
        <ele>89.7</ele>
        <time>2015-06-15T18:28:13.782Z</time>
      </trkpt>
      <trkpt lat="48.86728" lon="2.33483">
        <ele>91</ele>
        <time>2015-06-15T18:28:18.807Z</time>
      </trkpt>
      <trkpt lat="48.86736" lon="2.33487">
        <ele>92</ele>
        <time>2015-06-15T18:28:19.830Z</time>
      </trkpt>
      <trkpt lat="48.86742" lon="2.33491">
        <ele>92.7</ele>
        <time>2015-06-15T18:28:20.843Z</time>
      </trkpt>
      <trkpt lat="48.86747" lon="2.33494">
        <ele>93.4</ele>
        <time>2015-06-15T18:28:21.853Z</time>
      </trkpt>
      <trkpt lat="48.8675" lon="2.33502">
        <ele>94.2</ele>
        <time>2015-06-15T18:28:23.938Z</time>
      </trkpt>
      <trkpt lat="48.86751" lon="2.33507">
        <ele>94</ele>
        <time>2015-06-15T18:28:24.846Z</time>
      </trkpt>
      <trkpt lat="48.86752" lon="2.3352">
        <ele>94.2</ele>
        <time>2015-06-15T18:28:27.860Z</time>
      </trkpt>
      <trkpt lat="48.86754" lon="2.33522">
        <ele>94.2</ele>
        <time>2015-06-15T18:28:28.815Z</time>
      </trkpt>
      <trkpt lat="48.86759" lon="2.33528">
        <ele>94.5</ele>
        <time>2015-06-15T18:28:30.813Z</time>
      </trkpt>
      <trkpt lat="48.86762" lon="2.33531">
        <ele>94.6</ele>
        <time>2015-06-15T18:28:31.841Z</time>
      </trkpt>
      <trkpt lat="48.86769" lon="2.33536">
        <ele>95</ele>
        <time>2015-06-15T18:28:33.811Z</time>
      </trkpt>
      <trkpt lat="48.86772" lon="2.33539">
        <ele>95.3</ele>
        <time>2015-06-15T18:28:34.815Z</time>
      </trkpt>
      <trkpt lat="48.86779" lon="2.33544">
        <ele>95.9</ele>
        <time>2015-06-15T18:28:36.806Z</time>
      </trkpt>
      <trkpt lat="48.86782" lon="2.33547">
        <ele>95.9</ele>
        <time>2015-06-15T18:28:37.806Z</time>
      </trkpt>
      <trkpt lat="48.86788" lon="2.33545">
        <ele>95.5</ele>
        <time>2015-06-15T18:28:38.791Z</time>
      </trkpt>
      <trkpt lat="48.86793" lon="2.33542">
        <ele>95.2</ele>
        <time>2015-06-15T18:28:39.811Z</time>
      </trkpt>
      <trkpt lat="48.868" lon="2.33536">
        <ele>95</ele>
        <time>2015-06-15T18:28:40.777Z</time>
      </trkpt>
      <trkpt lat="48.86805" lon="2.33532">
        <ele>95.2</ele>
        <time>2015-06-15T18:28:41.781Z</time>
      </trkpt>
      <trkpt lat="48.86813" lon="2.33527">
        <ele>96.6</ele>
        <time>2015-06-15T18:28:43.831Z</time>
      </trkpt>
      <trkpt lat="48.86818" lon="2.33531">
        <ele>96.9</ele>
        <time>2015-06-15T18:28:44.864Z</time>
      </trkpt>
      <trkpt lat="48.86823" lon="2.33535">
        <ele>97.1</ele>
        <time>2015-06-15T18:28:45.789Z</time>
      </trkpt>
      <trkpt lat="48.86827" lon="2.33537">
        <ele>97.3</ele>
        <time>2015-06-15T18:28:46.792Z</time>
      </trkpt>
      <trkpt lat="48.86835" lon="2.33542">
        <ele>97.5</ele>
        <time>2015-06-15T18:28:48.754Z</time>
      </trkpt>
      <trkpt lat="48.86838" lon="2.33545">
        <ele>97.6</ele>
        <time>2015-06-15T18:28:49.844Z</time>
      </trkpt>
      <trkpt lat="48.86844" lon="2.3355">
        <ele>97.8</ele>
        <time>2015-06-15T18:28:51.806Z</time>
      </trkpt>
      <trkpt lat="48.86847" lon="2.33553">
        <ele>98</ele>
        <time>2015-06-15T18:28:52.829Z</time>
      </trkpt>
      <trkpt lat="48.86854" lon="2.33558">
        <ele>98.5</ele>
        <time>2015-06-15T18:28:54.788Z</time>
      </trkpt>
      <trkpt lat="48.86859" lon="2.33557">
        <ele>97.9</ele>
        <time>2015-06-15T18:28:55.834Z</time>
      </trkpt>
      <trkpt lat="48.86867" lon="2.3356">
        <ele>97.9</ele>
        <time>2015-06-15T18:28:57.806Z</time>
      </trkpt>
      <trkpt lat="48.8687" lon="2.33563">
        <ele>98</ele>
        <time>2015-06-15T18:28:58.787Z</time>
      </trkpt>
      <trkpt lat="48.86877" lon="2.33565">
        <ele>98.5</ele>
        <time>2015-06-15T18:29:00.839Z</time>
      </trkpt>
      <trkpt lat="48.86879" lon="2.33566">
        <ele>98.7</ele>
        <time>2015-06-15T18:29:01.835Z</time>
      </trkpt>
      <trkpt lat="48.86886" lon="2.33571">
        <ele>99.4</ele>
        <time>2015-06-15T18:29:04.824Z</time>
      </trkpt>
      <trkpt lat="48.86889" lon="2.33572">
        <ele>99.7</ele>
        <time>2015-06-15T18:29:05.823Z</time>
      </trkpt>
      <trkpt lat="48.86895" lon="2.33576">
        <ele>100.1</ele>
        <time>2015-06-15T18:29:07.778Z</time>
      </trkpt>
      <trkpt lat="48.86899" lon="2.33577">
        <ele>100.2</ele>
        <time>2015-06-15T18:29:08.807Z</time>
      </trkpt>
      <trkpt lat="48.86907" lon="2.33577">
        <ele>100.6</ele>
        <time>2015-06-15T18:29:10.888Z</time>
      </trkpt>
      <trkpt lat="48.86912" lon="2.33578">
        <ele>100.7</ele>
        <time>2015-06-15T18:29:11.780Z</time>
      </trkpt>
      <trkpt lat="48.86917" lon="2.33578">
        <ele>100.9</ele>
        <time>2015-06-15T18:29:12.777Z</time>
      </trkpt>
      <trkpt lat="48.86922" lon="2.33577">
        <ele>101.2</ele>
        <time>2015-06-15T18:29:13.909Z</time>
      </trkpt>
      <trkpt lat="48.8693" lon="2.33577">
        <ele>101.6</ele>
        <time>2015-06-15T18:29:15.792Z</time>
      </trkpt>
      <trkpt lat="48.86934" lon="2.33579">
        <ele>101.5</ele>
        <time>2015-06-15T18:29:16.829Z</time>
      </trkpt>
      <trkpt lat="48.86939" lon="2.33576">
        <ele>100.3</ele>
        <time>2015-06-15T18:29:17.748Z</time>
      </trkpt>
      <trkpt lat="48.86944" lon="2.33574">
        <ele>99.3</ele>
        <time>2015-06-15T18:29:18.776Z</time>
      </trkpt>
      <trkpt lat="48.86952" lon="2.33575">
        <ele>98.8</ele>
        <time>2015-06-15T18:29:20.832Z</time>
      </trkpt>
      <trkpt lat="48.86955" lon="2.33576">
        <ele>99</ele>
        <time>2015-06-15T18:29:21.815Z</time>
      </trkpt>
      <trkpt lat="48.86963" lon="2.33582">
        <ele>99.8</ele>
        <time>2015-06-15T18:29:24.905Z</time>
      </trkpt>
      <trkpt lat="48.86964" lon="2.33584">
        <ele>99.8</ele>
        <time>2015-06-15T18:29:25.830Z</time>
      </trkpt>
      <trkpt lat="48.8697" lon="2.33593">
        <ele>101.9</ele>
        <time>2015-06-15T18:29:30.905Z</time>
      </trkpt>
      <trkpt lat="48.86972" lon="2.33593">
        <ele>102.2</ele>
        <time>2015-06-15T18:29:31.807Z</time>
      </trkpt>
      <trkpt lat="48.86978" lon="2.33594">
        <ele>102.6</ele>
        <time>2015-06-15T18:29:33.783Z</time>
      </trkpt>
      <trkpt lat="48.86982" lon="2.33595">
        <ele>102.9</ele>
        <time>2015-06-15T18:29:34.784Z</time>
      </trkpt>
      <trkpt lat="48.8699" lon="2.33594">
        <ele>103.5</ele>
        <time>2015-06-15T18:29:36.787Z</time>
      </trkpt>
      <trkpt lat="48.86993" lon="2.33594">
        <ele>103.8</ele>
        <time>2015-06-15T18:29:37.805Z</time>
      </trkpt>
      <trkpt lat="48.87001" lon="2.33597">
        <ele>104.1</ele>
        <time>2015-06-15T18:29:40.759Z</time>
      </trkpt>
      <trkpt lat="48.87005" lon="2.33599">
        <ele>104.3</ele>
        <time>2015-06-15T18:29:41.787Z</time>
      </trkpt>
      <trkpt lat="48.87013" lon="2.33602">
        <ele>104.6</ele>
        <time>2015-06-15T18:29:44.857Z</time>
      </trkpt>
      <trkpt lat="48.87016" lon="2.33604">
        <ele>104.6</ele>
        <time>2015-06-15T18:29:45.763Z</time>
      </trkpt>
      <trkpt lat="48.87022" lon="2.33609">
        <ele>104.9</ele>
        <time>2015-06-15T18:29:47.790Z</time>
      </trkpt>
      <trkpt lat="48.87025" lon="2.3361">
        <ele>105</ele>
        <time>2015-06-15T18:29:48.810Z</time>
      </trkpt>
      <trkpt lat="48.87032" lon="2.33615">
        <ele>105.5</ele>
        <time>2015-06-15T18:29:51.766Z</time>
      </trkpt>
      <trkpt lat="48.87036" lon="2.33614">
        <ele>105.7</ele>
        <time>2015-06-15T18:29:52.786Z</time>
      </trkpt>
      <trkpt lat="48.87043" lon="2.33615">
        <ele>106</ele>
        <time>2015-06-15T18:29:54.834Z</time>
      </trkpt>
      <trkpt lat="48.87046" lon="2.33617">
        <ele>106.1</ele>
        <time>2015-06-15T18:29:55.768Z</time>
      </trkpt>
      <trkpt lat="48.87054" lon="2.3362">
        <ele>106.5</ele>
        <time>2015-06-15T18:29:58.805Z</time>
      </trkpt>
      <trkpt lat="48.87058" lon="2.33621">
        <ele>106.5</ele>
        <time>2015-06-15T18:29:59.813Z</time>
      </trkpt>
      <trkpt lat="48.87066" lon="2.33622">
        <ele>106.6</ele>
        <time>2015-06-15T18:30:02.919Z</time>
      </trkpt>
      <trkpt lat="48.87067" lon="2.33606">
        <ele>105</ele>
        <time>2015-06-15T18:30:03.809Z</time>
      </trkpt>
      <trkpt lat="48.87072" lon="2.33599">
        <ele>103.5</ele>
        <time>2015-06-15T18:30:05.772Z</time>
      </trkpt>
      <trkpt lat="48.87076" lon="2.33596">
        <ele>103</ele>
        <time>2015-06-15T18:30:06.772Z</time>
      </trkpt>
      <trkpt lat="48.8708" lon="2.33594">
        <ele>102.7</ele>
        <time>2015-06-15T18:30:07.935Z</time>
      </trkpt>
      <trkpt lat="48.87086" lon="2.33595">
        <ele>102.5</ele>
        <time>2015-06-15T18:30:08.810Z</time>
      </trkpt>
      <trkpt lat="48.87091" lon="2.33596">
        <ele>102.6</ele>
        <time>2015-06-15T18:30:09.822Z</time>
      </trkpt>
      <trkpt lat="48.87095" lon="2.33597">
        <ele>102.7</ele>
        <time>2015-06-15T18:30:10.770Z</time>
      </trkpt>
      <trkpt lat="48.87101" lon="2.33599">
        <ele>103.4</ele>
        <time>2015-06-15T18:30:11.819Z</time>
      </trkpt>
      <trkpt lat="48.87105" lon="2.33601">
        <ele>103.7</ele>
        <time>2015-06-15T18:30:12.827Z</time>
      </trkpt>
      <trkpt lat="48.87111" lon="2.33604">
        <ele>104.2</ele>
        <time>2015-06-15T18:30:14.840Z</time>
      </trkpt>
      <trkpt lat="48.87114" lon="2.33605">
        <ele>104.5</ele>
        <time>2015-06-15T18:30:15.857Z</time>
      </trkpt>
      <trkpt lat="48.87122" lon="2.33604">
        <ele>105.2</ele>
        <time>2015-06-15T18:30:18.035Z</time>
      </trkpt>
      <trkpt lat="48.87126" lon="2.33603">
        <ele>105.5</ele>
        <time>2015-06-15T18:30:18.815Z</time>
      </trkpt>
      <trkpt lat="48.87133" lon="2.336">
        <ele>106</ele>
        <time>2015-06-15T18:30:20.860Z</time>
      </trkpt>
      <trkpt lat="48.87138" lon="2.336">
        <ele>106.4</ele>
        <time>2015-06-15T18:30:21.781Z</time>
      </trkpt>
      <trkpt lat="48.87143" lon="2.33603">
        <ele>106.5</ele>
        <time>2015-06-15T18:30:23.200Z</time>
      </trkpt>
      <trkpt lat="48.87149" lon="2.33606">
        <ele>106.7</ele>
        <time>2015-06-15T18:30:23.787Z</time>
      </trkpt>
      <trkpt lat="48.87155" lon="2.33609">
        <ele>106.9</ele>
        <time>2015-06-15T18:30:24.810Z</time>
      </trkpt>
      <trkpt lat="48.87161" lon="2.33611">
        <ele>107</ele>
        <time>2015-06-15T18:30:25.811Z</time>
      </trkpt>
      <trkpt lat="48.87168" lon="2.33612">
        <ele>107.2</ele>
        <time>2015-06-15T18:30:26.824Z</time>
      </trkpt>
      <trkpt lat="48.87176" lon="2.33613">
        <ele>107.3</ele>
        <time>2015-06-15T18:30:27.825Z</time>
      </trkpt>
      <trkpt lat="48.87184" lon="2.33616">
        <ele>107.1</ele>
        <time>2015-06-15T18:30:29.802Z</time>
      </trkpt>
      <trkpt lat="48.87187" lon="2.33617">
        <ele>107.1</ele>
        <time>2015-06-15T18:30:30.831Z</time>
      </trkpt>
      <trkpt lat="48.87192" lon="2.33621">
        <ele>107.2</ele>
        <time>2015-06-15T18:30:32.815Z</time>
      </trkpt>
      <trkpt lat="48.87195" lon="2.33623">
        <ele>107.1</ele>
        <time>2015-06-15T18:30:33.839Z</time>
      </trkpt>
      <trkpt lat="48.87201" lon="2.33626">
        <ele>107</ele>
        <time>2015-06-15T18:30:37.829Z</time>
      </trkpt>
      <trkpt lat="48.87201" lon="2.33625">
        <ele>107.1</ele>
        <time>2015-06-15T18:30:38.919Z</time>
      </trkpt>
      <trkpt lat="48.87203" lon="2.33624">
        <ele>107.2</ele>
        <time>2015-06-15T18:30:39.794Z</time>
      </trkpt>
      <trkpt lat="48.87209" lon="2.3362">
        <ele>107.2</ele>
        <time>2015-06-15T18:30:41.861Z</time>
      </trkpt>
      <trkpt lat="48.87211" lon="2.33617">
        <ele>107.2</ele>
        <time>2015-06-15T18:30:42.827Z</time>
      </trkpt>
      <trkpt lat="48.87216" lon="2.3361">
        <ele>107.6</ele>
        <time>2015-06-15T18:30:44.811Z</time>
      </trkpt>
      <trkpt lat="48.87218" lon="2.33607">
        <ele>107.7</ele>
        <time>2015-06-15T18:30:45.842Z</time>
      </trkpt>
      <trkpt lat="48.87221" lon="2.33603">
        <ele>107.7</ele>
        <time>2015-06-15T18:30:46.859Z</time>
      </trkpt>
      <trkpt lat="48.87225" lon="2.33597">
        <ele>106.9</ele>
        <time>2015-06-15T18:30:47.741Z</time>
      </trkpt>
      <trkpt lat="48.87229" lon="2.33593">
        <ele>106.5</ele>
        <time>2015-06-15T18:30:48.814Z</time>
      </trkpt>
      <trkpt lat="48.87232" lon="2.33589">
        <ele>106.3</ele>
        <time>2015-06-15T18:30:49.831Z</time>
      </trkpt>
      <trkpt lat="48.87236" lon="2.33584">
        <ele>105.9</ele>
        <time>2015-06-15T18:30:50.859Z</time>
      </trkpt>
      <trkpt lat="48.8724" lon="2.33578">
        <ele>105.4</ele>
        <time>2015-06-15T18:30:51.761Z</time>
      </trkpt>
      <trkpt lat="48.87245" lon="2.33571">
        <ele>104.7</ele>
        <time>2015-06-15T18:30:52.785Z</time>
      </trkpt>
      <trkpt lat="48.87248" lon="2.33564">
        <ele>104.5</ele>
        <time>2015-06-15T18:30:53.790Z</time>
      </trkpt>
      <trkpt lat="48.8725" lon="2.33557">
        <ele>104.2</ele>
        <time>2015-06-15T18:30:54.793Z</time>
      </trkpt>
      <trkpt lat="48.87258" lon="2.33553">
        <ele>103.5</ele>
        <time>2015-06-15T18:30:55.806Z</time>
      </trkpt>
      <trkpt lat="48.87263" lon="2.33548">
        <ele>103.3</ele>
        <time>2015-06-15T18:30:56.848Z</time>
      </trkpt>
      <trkpt lat="48.87267" lon="2.33545">
        <ele>103.5</ele>
        <time>2015-06-15T18:30:57.912Z</time>
      </trkpt>
      <trkpt lat="48.87274" lon="2.33544">
        <ele>104.5</ele>
        <time>2015-06-15T18:30:59.826Z</time>
      </trkpt>
      <trkpt lat="48.87277" lon="2.33544">
        <ele>105</ele>
        <time>2015-06-15T18:31:00.784Z</time>
      </trkpt>
      <trkpt lat="48.87283" lon="2.33548">
        <ele>106</ele>
        <time>2015-06-15T18:31:02.874Z</time>
      </trkpt>
      <trkpt lat="48.87288" lon="2.3355">
        <ele>106.8</ele>
        <time>2015-06-15T18:31:03.766Z</time>
      </trkpt>
      <trkpt lat="48.87293" lon="2.33553">
        <ele>107.3</ele>
        <time>2015-06-15T18:31:04.854Z</time>
      </trkpt>
      <trkpt lat="48.87298" lon="2.33555">
        <ele>107.7</ele>
        <time>2015-06-15T18:31:05.822Z</time>
      </trkpt>
      <trkpt lat="48.87303" lon="2.33557">
        <ele>108.1</ele>
        <time>2015-06-15T18:31:06.766Z</time>
      </trkpt>
      <trkpt lat="48.87307" lon="2.33556">
        <ele>108.3</ele>
        <time>2015-06-15T18:31:07.789Z</time>
      </trkpt>
      <trkpt lat="48.87314" lon="2.3356">
        <ele>108.5</ele>
        <time>2015-06-15T18:31:09.750Z</time>
      </trkpt>
      <trkpt lat="48.87318" lon="2.3356">
        <ele>108.7</ele>
        <time>2015-06-15T18:31:10.754Z</time>
      </trkpt>
      <trkpt lat="48.87325" lon="2.33561">
        <ele>109</ele>
        <time>2015-06-15T18:31:12.780Z</time>
      </trkpt>
      <trkpt lat="48.87327" lon="2.3356">
        <ele>109.1</ele>
        <time>2015-06-15T18:31:13.873Z</time>
      </trkpt>
      <trkpt lat="48.87333" lon="2.33559">
        <ele>110</ele>
        <time>2015-06-15T18:31:16.803Z</time>
      </trkpt>
      <trkpt lat="48.87337" lon="2.33555">
        <ele>109.6</ele>
        <time>2015-06-15T18:31:17.813Z</time>
      </trkpt>
      <trkpt lat="48.87343" lon="2.33547">
        <ele>109</ele>
        <time>2015-06-15T18:31:20.778Z</time>
      </trkpt>
      <trkpt lat="48.87347" lon="2.3355">
        <ele>108.3</ele>
        <time>2015-06-15T18:31:21.768Z</time>
      </trkpt>
      <trkpt lat="48.87352" lon="2.33547">
        <ele>108.1</ele>
        <time>2015-06-15T18:31:24.835Z</time>
      </trkpt>
      <trkpt lat="48.87357" lon="2.33547">
        <ele>108.4</ele>
        <time>2015-06-15T18:31:25.845Z</time>
      </trkpt>
      <trkpt lat="48.87364" lon="2.33544">
        <ele>109</ele>
        <time>2015-06-15T18:31:26.882Z</time>
      </trkpt>
      <trkpt lat="48.8737" lon="2.33543">
        <ele>109.2</ele>
        <time>2015-06-15T18:31:27.806Z</time>
      </trkpt>
      <trkpt lat="48.87376" lon="2.33543">
        <ele>109.4</ele>
        <time>2015-06-15T18:31:28.833Z</time>
      </trkpt>
      <trkpt lat="48.8738" lon="2.33543">
        <ele>109.6</ele>
        <time>2015-06-15T18:31:29.859Z</time>
      </trkpt>
      <trkpt lat="48.87389" lon="2.33545">
        <ele>109.7</ele>
        <time>2015-06-15T18:31:31.832Z</time>
      </trkpt>
      <trkpt lat="48.87393" lon="2.33547">
        <ele>109.8</ele>
        <time>2015-06-15T18:31:32.915Z</time>
      </trkpt>
      <trkpt lat="48.87398" lon="2.33548">
        <ele>109.8</ele>
        <time>2015-06-15T18:31:33.760Z</time>
      </trkpt>
      <trkpt lat="48.87404" lon="2.33546">
        <ele>108.2</ele>
        <time>2015-06-15T18:31:34.768Z</time>
      </trkpt>
      <trkpt lat="48.87412" lon="2.33546">
        <ele>107.5</ele>
        <time>2015-06-15T18:31:36.799Z</time>
      </trkpt>
      <trkpt lat="48.87415" lon="2.33547">
        <ele>107.5</ele>
        <time>2015-06-15T18:31:37.816Z</time>
      </trkpt>
      <trkpt lat="48.87423" lon="2.3355">
        <ele>107.6</ele>
        <time>2015-06-15T18:31:39.776Z</time>
      </trkpt>
      <trkpt lat="48.87427" lon="2.33552">
        <ele>107.7</ele>
        <time>2015-06-15T18:31:40.786Z</time>
      </trkpt>
      <trkpt lat="48.87433" lon="2.33546">
        <ele>108.2</ele>
        <time>2015-06-15T18:31:42.729Z</time>
      </trkpt>
      <trkpt lat="48.87434" lon="2.33539">
        <ele>109.2</ele>
        <time>2015-06-15T18:31:43.763Z</time>
      </trkpt>
      <trkpt lat="48.8744" lon="2.33528">
        <ele>111.6</ele>
        <time>2015-06-15T18:31:45.872Z</time>
      </trkpt>
      <trkpt lat="48.87441" lon="2.3353">
        <ele>112.3</ele>
        <time>2015-06-15T18:31:46.822Z</time>
      </trkpt>
      <trkpt lat="48.87448" lon="2.33534">
        <ele>113.4</ele>
        <time>2015-06-15T18:31:48.797Z</time>
      </trkpt>
      <trkpt lat="48.87452" lon="2.33536">
        <ele>113.8</ele>
        <time>2015-06-15T18:31:49.832Z</time>
      </trkpt>
      <trkpt lat="48.8746" lon="2.3354">
        <ele>114.5</ele>
        <time>2015-06-15T18:31:51.790Z</time>
      </trkpt>
      <trkpt lat="48.87465" lon="2.3354">
        <ele>114.8</ele>
        <time>2015-06-15T18:31:52.911Z</time>
      </trkpt>
      <trkpt lat="48.87469" lon="2.33538">
        <ele>115.5</ele>
        <time>2015-06-15T18:31:53.788Z</time>
      </trkpt>
      <trkpt lat="48.87475" lon="2.33538">
        <ele>115.6</ele>
        <time>2015-06-15T18:31:54.802Z</time>
      </trkpt>
      <trkpt lat="48.87482" lon="2.33533">
        <ele>114.2</ele>
        <time>2015-06-15T18:31:55.840Z</time>
      </trkpt>
      <trkpt lat="48.87489" lon="2.33531">
        <ele>113.5</ele>
        <time>2015-06-15T18:31:56.818Z</time>
      </trkpt>
      <trkpt lat="48.87495" lon="2.33529">
        <ele>113.9</ele>
        <time>2015-06-15T18:31:57.818Z</time>
      </trkpt>
      <trkpt lat="48.87501" lon="2.33529">
        <ele>114.2</ele>
        <time>2015-06-15T18:31:58.834Z</time>
      </trkpt>
      <trkpt lat="48.87505" lon="2.33532">
        <ele>114.3</ele>
        <time>2015-06-15T18:31:59.847Z</time>
      </trkpt>
      <trkpt lat="48.8751" lon="2.33535">
        <ele>114.5</ele>
        <time>2015-06-15T18:32:00.855Z</time>
      </trkpt>
      <trkpt lat="48.87518" lon="2.33538">
        <ele>114.9</ele>
        <time>2015-06-15T18:32:02.894Z</time>
      </trkpt>
      <trkpt lat="48.87523" lon="2.33539">
        <ele>115.2</ele>
        <time>2015-06-15T18:32:03.883Z</time>
      </trkpt>
      <trkpt lat="48.87528" lon="2.3354">
        <ele>115.5</ele>
        <time>2015-06-15T18:32:04.755Z</time>
      </trkpt>
      <trkpt lat="48.87533" lon="2.33542">
        <ele>115.7</ele>
        <time>2015-06-15T18:32:05.750Z</time>
      </trkpt>
      <trkpt lat="48.87539" lon="2.33544">
        <ele>116</ele>
        <time>2015-06-15T18:32:06.898Z</time>
      </trkpt>
      <trkpt lat="48.87544" lon="2.33546">
        <ele>116.1</ele>
        <time>2015-06-15T18:32:07.746Z</time>
      </trkpt>
      <trkpt lat="48.87549" lon="2.33549">
        <ele>116.2</ele>
        <time>2015-06-15T18:32:08.776Z</time>
      </trkpt>
      <trkpt lat="48.87553" lon="2.33552">
        <ele>116.3</ele>
        <time>2015-06-15T18:32:09.832Z</time>
      </trkpt>
      <trkpt lat="48.87557" lon="2.33556">
        <ele>116.4</ele>
        <time>2015-06-15T18:32:10.754Z</time>
      </trkpt>
      <trkpt lat="48.87562" lon="2.33559">
        <ele>116.5</ele>
        <time>2015-06-15T18:32:11.750Z</time>
      </trkpt>
      <trkpt lat="48.87566" lon="2.33563">
        <ele>116.6</ele>
        <time>2015-06-15T18:32:12.778Z</time>
      </trkpt>
      <trkpt lat="48.8757" lon="2.33567">
        <ele>116.7</ele>
        <time>2015-06-15T18:32:13.793Z</time>
      </trkpt>
      <trkpt lat="48.87576" lon="2.33574">
        <ele>117.1</ele>
        <time>2015-06-15T18:32:16.781Z</time>
      </trkpt>
      <trkpt lat="48.87577" lon="2.33578">
        <ele>117.1</ele>
        <time>2015-06-15T18:32:17.810Z</time>
      </trkpt>
      <trkpt lat="48.87582" lon="2.33584">
        <ele>117</ele>
        <time>2015-06-15T18:32:19.760Z</time>
      </trkpt>
      <trkpt lat="48.87586" lon="2.33584">
        <ele>116.2</ele>
        <time>2015-06-15T18:32:20.818Z</time>
      </trkpt>
      <trkpt lat="48.8759" lon="2.33574">
        <ele>114.6</ele>
        <time>2015-06-15T18:32:21.766Z</time>
      </trkpt>
      <trkpt lat="48.87594" lon="2.33563">
        <ele>112.8</ele>
        <time>2015-06-15T18:32:22.764Z</time>
      </trkpt>
      <trkpt lat="48.87597" lon="2.33555">
        <ele>111.4</ele>
        <time>2015-06-15T18:32:23.852Z</time>
      </trkpt>
      <trkpt lat="48.87602" lon="2.33549">
        <ele>109.9</ele>
        <time>2015-06-15T18:32:24.787Z</time>
      </trkpt>
      <trkpt lat="48.8761" lon="2.33546">
        <ele>109.2</ele>
        <time>2015-06-15T18:32:27.815Z</time>
      </trkpt>
      <trkpt lat="48.87613" lon="2.33548">
        <ele>109.4</ele>
        <time>2015-06-15T18:32:28.838Z</time>
      </trkpt>
      <trkpt lat="48.87621" lon="2.33551">
        <ele>109.9</ele>
        <time>2015-06-15T18:32:30.870Z</time>
      </trkpt>
      <trkpt lat="48.87625" lon="2.33552">
        <ele>110</ele>
        <time>2015-06-15T18:32:31.782Z</time>
      </trkpt>
      <trkpt lat="48.87632" lon="2.33557">
        <ele>110.3</ele>
        <time>2015-06-15T18:32:33.771Z</time>
      </trkpt>
      <trkpt lat="48.87635" lon="2.33558">
        <ele>110.5</ele>
        <time>2015-06-15T18:32:34.780Z</time>
      </trkpt>
      <trkpt lat="48.87644" lon="2.3356">
        <ele>110.8</ele>
        <time>2015-06-15T18:32:37.825Z</time>
      </trkpt>
      <trkpt lat="48.87647" lon="2.3356">
        <ele>111</ele>
        <time>2015-06-15T18:32:38.800Z</time>
      </trkpt>
      <trkpt lat="48.87654" lon="2.33566">
        <ele>111.2</ele>
        <time>2015-06-15T18:32:40.765Z</time>
      </trkpt>
      <trkpt lat="48.87658" lon="2.33568">
        <ele>111.2</ele>
        <time>2015-06-15T18:32:41.783Z</time>
      </trkpt>
      <trkpt lat="48.87662" lon="2.33569">
        <ele>111.1</ele>
        <time>2015-06-15T18:32:42.811Z</time>
      </trkpt>
      <trkpt lat="48.87665" lon="2.3356">
        <ele>109.8</ele>
        <time>2015-06-15T18:32:43.832Z</time>
      </trkpt>
      <trkpt lat="48.87667" lon="2.33554">
        <ele>109.4</ele>
        <time>2015-06-15T18:32:44.843Z</time>
      </trkpt>
      <trkpt lat="48.87668" lon="2.33546">
        <ele>108.9</ele>
        <time>2015-06-15T18:32:45.754Z</time>
      </trkpt>
      <trkpt lat="48.87669" lon="2.33538">
        <ele>108.6</ele>
        <time>2015-06-15T18:32:46.770Z</time>
      </trkpt>
      <trkpt lat="48.8767" lon="2.3353">
        <ele>108.4</ele>
        <time>2015-06-15T18:32:47.785Z</time>
      </trkpt>
      <trkpt lat="48.87672" lon="2.33522">
        <ele>108.2</ele>
        <time>2015-06-15T18:32:48.802Z</time>
      </trkpt>
      <trkpt lat="48.87673" lon="2.33512">
        <ele>108</ele>
        <time>2015-06-15T18:32:49.816Z</time>
      </trkpt>
      <trkpt lat="48.87674" lon="2.33505">
        <ele>108</ele>
        <time>2015-06-15T18:32:50.835Z</time>
      </trkpt>
      <trkpt lat="48.87675" lon="2.33495">
        <ele>107.6</ele>
        <time>2015-06-15T18:32:51.758Z</time>
      </trkpt>
      <trkpt lat="48.87675" lon="2.33487">
        <ele>107.2</ele>
        <time>2015-06-15T18:32:52.765Z</time>
      </trkpt>
      <trkpt lat="48.87675" lon="2.33479">
        <ele>106.9</ele>
        <time>2015-06-15T18:32:53.775Z</time>
      </trkpt>
      <trkpt lat="48.87675" lon="2.33472">
        <ele>106.4</ele>
        <time>2015-06-15T18:32:54.780Z</time>
      </trkpt>
      <trkpt lat="48.87676" lon="2.33465">
        <ele>106</ele>
        <time>2015-06-15T18:32:55.908Z</time>
      </trkpt>
      <trkpt lat="48.87675" lon="2.33456">
        <ele>105.6</ele>
        <time>2015-06-15T18:32:56.779Z</time>
      </trkpt>
      <trkpt lat="48.87674" lon="2.33448">
        <ele>105.3</ele>
        <time>2015-06-15T18:32:57.787Z</time>
      </trkpt>
      <trkpt lat="48.87674" lon="2.3344">
        <ele>105</ele>
        <time>2015-06-15T18:32:58.780Z</time>
      </trkpt>
      <trkpt lat="48.87673" lon="2.33432">
        <ele>104.8</ele>
        <time>2015-06-15T18:32:59.792Z</time>
      </trkpt>
      <trkpt lat="48.87673" lon="2.33424">
        <ele>104.5</ele>
        <time>2015-06-15T18:33:00.810Z</time>
      </trkpt>
      <trkpt lat="48.87671" lon="2.33416">
        <ele>104.3</ele>
        <time>2015-06-15T18:33:01.818Z</time>
      </trkpt>
      <trkpt lat="48.8767" lon="2.33409">
        <ele>104.2</ele>
        <time>2015-06-15T18:33:02.840Z</time>
      </trkpt>
      <trkpt lat="48.87671" lon="2.33401">
        <ele>104.2</ele>
        <time>2015-06-15T18:33:03.768Z</time>
      </trkpt>
      <trkpt lat="48.87671" lon="2.33393">
        <ele>104.1</ele>
        <time>2015-06-15T18:33:04.774Z</time>
      </trkpt>
      <trkpt lat="48.8767" lon="2.33384">
        <ele>104</ele>
        <time>2015-06-15T18:33:05.785Z</time>
      </trkpt>
      <trkpt lat="48.87669" lon="2.33376">
        <ele>103.9</ele>
        <time>2015-06-15T18:33:06.813Z</time>
      </trkpt>
      <trkpt lat="48.87668" lon="2.33367">
        <ele>103.9</ele>
        <time>2015-06-15T18:33:07.830Z</time>
      </trkpt>
      <trkpt lat="48.87666" lon="2.33359">
        <ele>104</ele>
        <time>2015-06-15T18:33:08.839Z</time>
      </trkpt>
      <trkpt lat="48.87664" lon="2.33351">
        <ele>104.2</ele>
        <time>2015-06-15T18:33:09.755Z</time>
      </trkpt>
      <trkpt lat="48.87661" lon="2.33344">
        <ele>104.2</ele>
        <time>2015-06-15T18:33:10.760Z</time>
      </trkpt>
      <trkpt lat="48.8766" lon="2.33336">
        <ele>104.3</ele>
        <time>2015-06-15T18:33:11.770Z</time>
      </trkpt>
      <trkpt lat="48.8766" lon="2.33328">
        <ele>104.2</ele>
        <time>2015-06-15T18:33:12.792Z</time>
      </trkpt>
      <trkpt lat="48.87659" lon="2.3332">
        <ele>104.1</ele>
        <time>2015-06-15T18:33:13.804Z</time>
      </trkpt>
      <trkpt lat="48.8766" lon="2.33313">
        <ele>104</ele>
        <time>2015-06-15T18:33:14.835Z</time>
      </trkpt>
      <trkpt lat="48.8766" lon="2.33306">
        <ele>103.8</ele>
        <time>2015-06-15T18:33:15.740Z</time>
      </trkpt>
      <trkpt lat="48.87659" lon="2.33298">
        <ele>103.2</ele>
        <time>2015-06-15T18:33:16.750Z</time>
      </trkpt>
      <trkpt lat="48.87658" lon="2.33291">
        <ele>102.9</ele>
        <time>2015-06-15T18:33:17.754Z</time>
      </trkpt>
      <trkpt lat="48.87657" lon="2.33283">
        <ele>102.6</ele>
        <time>2015-06-15T18:33:18.760Z</time>
      </trkpt>
      <trkpt lat="48.87656" lon="2.33276">
        <ele>102.4</ele>
        <time>2015-06-15T18:33:19.770Z</time>
      </trkpt>
      <trkpt lat="48.87653" lon="2.33263">
        <ele>101.8</ele>
        <time>2015-06-15T18:33:21.793Z</time>
      </trkpt>
      <trkpt lat="48.87653" lon="2.33258">
        <ele>101.9</ele>
        <time>2015-06-15T18:33:22.754Z</time>
      </trkpt>
      <trkpt lat="48.87657" lon="2.33247">
        <ele>99.9</ele>
        <time>2015-06-15T18:33:25.836Z</time>
      </trkpt>
      <trkpt lat="48.87662" lon="2.33242">
        <ele>99.1</ele>
        <time>2015-06-15T18:33:26.854Z</time>
      </trkpt>
      <trkpt lat="48.87668" lon="2.33237">
        <ele>98.3</ele>
        <time>2015-06-15T18:33:28.788Z</time>
      </trkpt>
      <trkpt lat="48.87671" lon="2.33235">
        <ele>97.7</ele>
        <time>2015-06-15T18:33:29.841Z</time>
      </trkpt>
      <trkpt lat="48.87678" lon="2.33228">
        <ele>96.6</ele>
        <time>2015-06-15T18:33:31.766Z</time>
      </trkpt>
      <trkpt lat="48.8768" lon="2.33225">
        <ele>96.1</ele>
        <time>2015-06-15T18:33:32.877Z</time>
      </trkpt>
      <trkpt lat="48.87688" lon="2.33218">
        <ele>95.6</ele>
        <time>2015-06-15T18:33:35.723Z</time>
      </trkpt>
      <trkpt lat="48.87691" lon="2.33216">
        <ele>95.5</ele>
        <time>2015-06-15T18:33:36.758Z</time>
      </trkpt>
      <trkpt lat="48.87699" lon="2.33214">
        <ele>95.5</ele>
        <time>2015-06-15T18:33:38.817Z</time>
      </trkpt>
      <trkpt lat="48.87703" lon="2.33214">
        <ele>95.4</ele>
        <time>2015-06-15T18:33:39.783Z</time>
      </trkpt>
      <trkpt lat="48.87712" lon="2.33214">
        <ele>95.6</ele>
        <time>2015-06-15T18:33:41.755Z</time>
      </trkpt>
      <trkpt lat="48.87716" lon="2.33214">
        <ele>95.7</ele>
        <time>2015-06-15T18:33:42.779Z</time>
      </trkpt>
      <trkpt lat="48.87724" lon="2.33213">
        <ele>96</ele>
        <time>2015-06-15T18:33:44.826Z</time>
      </trkpt>
      <trkpt lat="48.87728" lon="2.33212">
        <ele>96.1</ele>
        <time>2015-06-15T18:33:45.773Z</time>
      </trkpt>
      <trkpt lat="48.87734" lon="2.3321">
        <ele>96.4</ele>
        <time>2015-06-15T18:33:47.796Z</time>
      </trkpt>
      <trkpt lat="48.87738" lon="2.3321">
        <ele>96.5</ele>
        <time>2015-06-15T18:33:48.738Z</time>
      </trkpt>
      <trkpt lat="48.87745" lon="2.33211">
        <ele>96.7</ele>
        <time>2015-06-15T18:33:50.755Z</time>
      </trkpt>
      <trkpt lat="48.87748" lon="2.33212">
        <ele>96.8</ele>
        <time>2015-06-15T18:33:51.770Z</time>
      </trkpt>
      <trkpt lat="48.87754" lon="2.33213">
        <ele>97</ele>
        <time>2015-06-15T18:33:53.716Z</time>
      </trkpt>
      <trkpt lat="48.87758" lon="2.33213">
        <ele>96.9</ele>
        <time>2015-06-15T18:33:54.733Z</time>
      </trkpt>
      <trkpt lat="48.87767" lon="2.3321">
        <ele>96.9</ele>
        <time>2015-06-15T18:33:57.986Z</time>
      </trkpt>
      <trkpt lat="48.87769" lon="2.33209">
        <ele>97.1</ele>
        <time>2015-06-15T18:33:58.776Z</time>
      </trkpt>
      <trkpt lat="48.87774" lon="2.332">
        <ele>97.4</ele>
        <time>2015-06-15T18:34:03.222Z</time>
      </trkpt>
      <trkpt lat="48.87774" lon="2.33197">
        <ele>97.3</ele>
        <time>2015-06-15T18:34:03.853Z</time>
      </trkpt>
      <trkpt lat="48.87775" lon="2.33186">
        <ele>96.9</ele>
        <time>2015-06-15T18:34:06.781Z</time>
      </trkpt>
      <trkpt lat="48.87775" lon="2.33179">
        <ele>96.8</ele>
        <time>2015-06-15T18:34:07.794Z</time>
      </trkpt>
      <trkpt lat="48.87774" lon="2.33167">
        <ele>97.5</ele>
        <time>2015-06-15T18:34:09.769Z</time>
      </trkpt>
      <trkpt lat="48.87774" lon="2.33162">
        <ele>97.5</ele>
        <time>2015-06-15T18:34:10.785Z</time>
      </trkpt>
      <trkpt lat="48.87778" lon="2.33151">
        <ele>97.5</ele>
        <time>2015-06-15T18:34:13.458Z</time>
      </trkpt>
      <trkpt lat="48.8778" lon="2.33146">
        <ele>97.5</ele>
        <time>2015-06-15T18:34:13.822Z</time>
      </trkpt>
      <trkpt lat="48.87783" lon="2.33135">
        <ele>97.3</ele>
        <time>2015-06-15T18:34:15.733Z</time>
      </trkpt>
      <trkpt lat="48.87784" lon="2.33129">
        <ele>97.3</ele>
        <time>2015-06-15T18:34:16.771Z</time>
      </trkpt>
      <trkpt lat="48.87783" lon="2.33118">
        <ele>97.6</ele>
        <time>2015-06-15T18:34:18.753Z</time>
      </trkpt>
      <trkpt lat="48.87779" lon="2.33113">
        <ele>97.8</ele>
        <time>2015-06-15T18:34:19.765Z</time>
      </trkpt>
      <trkpt lat="48.87774" lon="2.33105">
        <ele>96.6</ele>
        <time>2015-06-15T18:34:21.809Z</time>
      </trkpt>
      <trkpt lat="48.87774" lon="2.33102">
        <ele>96.5</ele>
        <time>2015-06-15T18:34:22.819Z</time>
      </trkpt>
      <trkpt lat="48.87771" lon="2.33091">
        <ele>96.7</ele>
        <time>2015-06-15T18:34:25.899Z</time>
      </trkpt>
      <trkpt lat="48.8777" lon="2.33088">
        <ele>96.8</ele>
        <time>2015-06-15T18:34:26.883Z</time>
      </trkpt>
      <trkpt lat="48.87764" lon="2.33078">
        <ele>97.6</ele>
        <time>2015-06-15T18:34:29.837Z</time>
      </trkpt>
      <trkpt lat="48.87762" lon="2.33075">
        <ele>97.9</ele>
        <time>2015-06-15T18:34:30.839Z</time>
      </trkpt>
      <trkpt lat="48.87759" lon="2.33064">
        <ele>98</ele>
        <time>2015-06-15T18:34:33.757Z</time>
      </trkpt>
      <trkpt lat="48.8776" lon="2.3306">
        <ele>98</ele>
        <time>2015-06-15T18:34:34.774Z</time>
      </trkpt>
      <trkpt lat="48.87765" lon="2.33051">
        <ele>98.4</ele>
        <time>2015-06-15T18:34:36.815Z</time>
      </trkpt>
      <trkpt lat="48.87768" lon="2.33048">
        <ele>98.4</ele>
        <time>2015-06-15T18:34:37.827Z</time>
      </trkpt>
      <trkpt lat="48.87775" lon="2.33045">
        <ele>98.3</ele>
        <time>2015-06-15T18:34:39.847Z</time>
      </trkpt>
      <trkpt lat="48.87778" lon="2.33044">
        <ele>98.2</ele>
        <time>2015-06-15T18:34:40.776Z</time>
      </trkpt>
      <trkpt lat="48.87785" lon="2.33041">
        <ele>98.4</ele>
        <time>2015-06-15T18:34:42.813Z</time>
      </trkpt>
      <trkpt lat="48.87789" lon="2.33038">
        <ele>98.6</ele>
        <time>2015-06-15T18:34:43.828Z</time>
      </trkpt>
      <trkpt lat="48.87795" lon="2.33035">
        <ele>98.8</ele>
        <time>2015-06-15T18:34:45.839Z</time>
      </trkpt>
      <trkpt lat="48.87798" lon="2.33034">
        <ele>98.9</ele>
        <time>2015-06-15T18:34:46.852Z</time>
      </trkpt>
      <trkpt lat="48.87806" lon="2.33031">
        <ele>98.7</ele>
        <time>2015-06-15T18:34:48.834Z</time>
      </trkpt>
      <trkpt lat="48.8781" lon="2.33029">
        <ele>98.5</ele>
        <time>2015-06-15T18:34:49.769Z</time>
      </trkpt>
      <trkpt lat="48.87817" lon="2.33025">
        <ele>98.6</ele>
        <time>2015-06-15T18:34:51.734Z</time>
      </trkpt>
      <trkpt lat="48.8782" lon="2.33024">
        <ele>98.8</ele>
        <time>2015-06-15T18:34:52.763Z</time>
      </trkpt>
      <trkpt lat="48.87827" lon="2.33022">
        <ele>99</ele>
        <time>2015-06-15T18:34:54.750Z</time>
      </trkpt>
      <trkpt lat="48.87831" lon="2.33021">
        <ele>99.1</ele>
        <time>2015-06-15T18:34:55.759Z</time>
      </trkpt>
      <trkpt lat="48.87839" lon="2.33019">
        <ele>99.4</ele>
        <time>2015-06-15T18:34:57.838Z</time>
      </trkpt>
      <trkpt lat="48.87843" lon="2.33018">
        <ele>99.6</ele>
        <time>2015-06-15T18:34:58.816Z</time>
      </trkpt>
      <trkpt lat="48.87848" lon="2.33007">
        <ele>100.6</ele>
        <time>2015-06-15T18:35:00.754Z</time>
      </trkpt>
      <trkpt lat="48.87852" lon="2.32997">
        <ele>99.7</ele>
        <time>2015-06-15T18:35:01.770Z</time>
      </trkpt>
      <trkpt lat="48.87857" lon="2.3299">
        <ele>101.1</ele>
        <time>2015-06-15T18:35:03.773Z</time>
      </trkpt>
      <trkpt lat="48.87859" lon="2.32988">
        <ele>101.6</ele>
        <time>2015-06-15T18:35:04.783Z</time>
      </trkpt>
      <trkpt lat="48.87867" lon="2.32987">
        <ele>101.9</ele>
        <time>2015-06-15T18:35:06.801Z</time>
      </trkpt>
      <trkpt lat="48.87872" lon="2.32987">
        <ele>102</ele>
        <time>2015-06-15T18:35:07.829Z</time>
      </trkpt>
      <trkpt lat="48.87876" lon="2.32986">
        <ele>102.1</ele>
        <time>2015-06-15T18:35:08.816Z</time>
      </trkpt>
      <trkpt lat="48.87881" lon="2.32984">
        <ele>102</ele>
        <time>2015-06-15T18:35:09.800Z</time>
      </trkpt>
      <trkpt lat="48.87885" lon="2.3298">
        <ele>101.6</ele>
        <time>2015-06-15T18:35:10.810Z</time>
      </trkpt>
      <trkpt lat="48.8789" lon="2.32975">
        <ele>101</ele>
        <time>2015-06-15T18:35:11.846Z</time>
      </trkpt>
      <trkpt lat="48.87896" lon="2.32966">
        <ele>100.7</ele>
        <time>2015-06-15T18:35:13.788Z</time>
      </trkpt>
      <trkpt lat="48.87899" lon="2.32964">
        <ele>100.9</ele>
        <time>2015-06-15T18:35:14.881Z</time>
      </trkpt>
      <trkpt lat="48.87903" lon="2.32961">
        <ele>101.1</ele>
        <time>2015-06-15T18:35:15.771Z</time>
      </trkpt>
      <trkpt lat="48.87908" lon="2.32959">
        <ele>101</ele>
        <time>2015-06-15T18:35:16.777Z</time>
      </trkpt>
      <trkpt lat="48.87913" lon="2.32955">
        <ele>100.9</ele>
        <time>2015-06-15T18:35:18.126Z</time>
      </trkpt>
      <trkpt lat="48.87918" lon="2.32951">
        <ele>100.8</ele>
        <time>2015-06-15T18:35:18.825Z</time>
      </trkpt>
      <trkpt lat="48.87923" lon="2.32948">
        <ele>100.8</ele>
        <time>2015-06-15T18:35:19.775Z</time>
      </trkpt>
      <trkpt lat="48.87926" lon="2.32944">
        <ele>101.1</ele>
        <time>2015-06-15T18:35:20.808Z</time>
      </trkpt>
      <trkpt lat="48.87934" lon="2.32942">
        <ele>101.3</ele>
        <time>2015-06-15T18:35:23.266Z</time>
      </trkpt>
      <trkpt lat="48.87938" lon="2.3294">
        <ele>101.4</ele>
        <time>2015-06-15T18:35:23.846Z</time>
      </trkpt>
      <trkpt lat="48.87946" lon="2.32935">
        <ele>101.7</ele>
        <time>2015-06-15T18:35:25.829Z</time>
      </trkpt>
      <trkpt lat="48.8795" lon="2.32933">
        <ele>102</ele>
        <time>2015-06-15T18:35:26.855Z</time>
      </trkpt>
      <trkpt lat="48.87955" lon="2.32931">
        <ele>101.9</ele>
        <time>2015-06-15T18:35:28.401Z</time>
      </trkpt>
      <trkpt lat="48.8796" lon="2.32928">
        <ele>101.5</ele>
        <time>2015-06-15T18:35:28.774Z</time>
      </trkpt>
      <trkpt lat="48.87967" lon="2.32927">
        <ele>101.8</ele>
        <time>2015-06-15T18:35:30.806Z</time>
      </trkpt>
      <trkpt lat="48.8797" lon="2.32927">
        <ele>101.9</ele>
        <time>2015-06-15T18:35:31.823Z</time>
      </trkpt>
      <trkpt lat="48.87978" lon="2.32926">
        <ele>102.1</ele>
        <time>2015-06-15T18:35:33.738Z</time>
      </trkpt>
      <trkpt lat="48.87982" lon="2.32926">
        <ele>102.1</ele>
        <time>2015-06-15T18:35:34.758Z</time>
      </trkpt>
      <trkpt lat="48.87988" lon="2.32922">
        <ele>102.5</ele>
        <time>2015-06-15T18:35:36.800Z</time>
      </trkpt>
      <trkpt lat="48.8799" lon="2.32919">
        <ele>103</ele>
        <time>2015-06-15T18:35:37.829Z</time>
      </trkpt>
      <trkpt lat="48.87996" lon="2.32914">
        <ele>103.7</ele>
        <time>2015-06-15T18:35:38.700Z</time>
      </trkpt>
      <trkpt lat="48.87999" lon="2.32913">
        <ele>103.8</ele>
        <time>2015-06-15T18:35:40.760Z</time>
      </trkpt>
      <trkpt lat="48.88007" lon="2.32912">
        <ele>104</ele>
        <time>2015-06-15T18:35:42.806Z</time>
      </trkpt>
      <trkpt lat="48.8801" lon="2.32911">
        <ele>104.1</ele>
        <time>2015-06-15T18:35:43.834Z</time>
      </trkpt>
      <trkpt lat="48.88018" lon="2.32909">
        <ele>104.2</ele>
        <time>2015-06-15T18:35:45.760Z</time>
      </trkpt>
      <trkpt lat="48.88022" lon="2.32907">
        <ele>104.2</ele>
        <time>2015-06-15T18:35:46.762Z</time>
      </trkpt>
      <trkpt lat="48.8803" lon="2.32903">
        <ele>104.3</ele>
        <time>2015-06-15T18:35:48.929Z</time>
      </trkpt>
      <trkpt lat="48.88034" lon="2.329">
        <ele>104.4</ele>
        <time>2015-06-15T18:35:49.846Z</time>
      </trkpt>
      <trkpt lat="48.8804" lon="2.32896">
        <ele>103.4</ele>
        <time>2015-06-15T18:35:50.857Z</time>
      </trkpt>
      <trkpt lat="48.88044" lon="2.32893">
        <ele>103.1</ele>
        <time>2015-06-15T18:35:51.770Z</time>
      </trkpt>
      <trkpt lat="48.88051" lon="2.3289">
        <ele>103.1</ele>
        <time>2015-06-15T18:35:54.111Z</time>
      </trkpt>
      <trkpt lat="48.88054" lon="2.32889">
        <ele>103.2</ele>
        <time>2015-06-15T18:35:54.775Z</time>
      </trkpt>
      <trkpt lat="48.88061" lon="2.32892">
        <ele>103.6</ele>
        <time>2015-06-15T18:35:56.810Z</time>
      </trkpt>
      <trkpt lat="48.88065" lon="2.32893">
        <ele>103.8</ele>
        <time>2015-06-15T18:35:57.740Z</time>
      </trkpt>
      <trkpt lat="48.88071" lon="2.32895">
        <ele>104.5</ele>
        <time>2015-06-15T18:35:59.858Z</time>
      </trkpt>
      <trkpt lat="48.88074" lon="2.32894">
        <ele>105</ele>
        <time>2015-06-15T18:36:00.781Z</time>
      </trkpt>
      <trkpt lat="48.8808" lon="2.3289">
        <ele>105.9</ele>
        <time>2015-06-15T18:36:03.848Z</time>
      </trkpt>
      <trkpt lat="48.88083" lon="2.32888">
        <ele>106.1</ele>
        <time>2015-06-15T18:36:04.851Z</time>
      </trkpt>
      <trkpt lat="48.88089" lon="2.32882">
        <ele>106.5</ele>
        <time>2015-06-15T18:36:06.777Z</time>
      </trkpt>
      <trkpt lat="48.88092" lon="2.32881">
        <ele>106.7</ele>
        <time>2015-06-15T18:36:07.806Z</time>
      </trkpt>
      <trkpt lat="48.88099" lon="2.32877">
        <ele>107</ele>
        <time>2015-06-15T18:36:09.843Z</time>
      </trkpt>
      <trkpt lat="48.88102" lon="2.32876">
        <ele>107</ele>
        <time>2015-06-15T18:36:10.768Z</time>
      </trkpt>
      <trkpt lat="48.8811" lon="2.32873">
        <ele>107.2</ele>
        <time>2015-06-15T18:36:12.930Z</time>
      </trkpt>
      <trkpt lat="48.88114" lon="2.32868">
        <ele>106.1</ele>
        <time>2015-06-15T18:36:13.790Z</time>
      </trkpt>
      <trkpt lat="48.88118" lon="2.32864">
        <ele>105.4</ele>
        <time>2015-06-15T18:36:14.808Z</time>
      </trkpt>
      <trkpt lat="48.88122" lon="2.32862">
        <ele>105.4</ele>
        <time>2015-06-15T18:36:15.814Z</time>
      </trkpt>
      <trkpt lat="48.8813" lon="2.3286">
        <ele>105.6</ele>
        <time>2015-06-15T18:36:18.015Z</time>
      </trkpt>
      <trkpt lat="48.88133" lon="2.3286">
        <ele>105.8</ele>
        <time>2015-06-15T18:36:18.790Z</time>
      </trkpt>
      <trkpt lat="48.8814" lon="2.32859">
        <ele>106</ele>
        <time>2015-06-15T18:36:20.826Z</time>
      </trkpt>
      <trkpt lat="48.88144" lon="2.32859">
        <ele>106.1</ele>
        <time>2015-06-15T18:36:21.913Z</time>
      </trkpt>
      <trkpt lat="48.8815" lon="2.32857">
        <ele>106.3</ele>
        <time>2015-06-15T18:36:23.920Z</time>
      </trkpt>
      <trkpt lat="48.88154" lon="2.32856">
        <ele>106.3</ele>
        <time>2015-06-15T18:36:24.784Z</time>
      </trkpt>
      <trkpt lat="48.88161" lon="2.32854">
        <ele>106.6</ele>
        <time>2015-06-15T18:36:26.839Z</time>
      </trkpt>
      <trkpt lat="48.88164" lon="2.32854">
        <ele>106.6</ele>
        <time>2015-06-15T18:36:27.860Z</time>
      </trkpt>
      <trkpt lat="48.8817" lon="2.32853">
        <ele>106.8</ele>
        <time>2015-06-15T18:36:29.790Z</time>
      </trkpt>
      <trkpt lat="48.88174" lon="2.32852">
        <ele>106.9</ele>
        <time>2015-06-15T18:36:30.816Z</time>
      </trkpt>
      <trkpt lat="48.8818" lon="2.32848">
        <ele>107.1</ele>
        <time>2015-06-15T18:36:33.290Z</time>
      </trkpt>
      <trkpt lat="48.88183" lon="2.32846">
        <ele>107.2</ele>
        <time>2015-06-15T18:36:33.791Z</time>
      </trkpt>
      <trkpt lat="48.88189" lon="2.3284">
        <ele>107.8</ele>
        <time>2015-06-15T18:36:35.809Z</time>
      </trkpt>
      <trkpt lat="48.88192" lon="2.32838">
        <ele>107.8</ele>
        <time>2015-06-15T18:36:36.811Z</time>
      </trkpt>
      <trkpt lat="48.88198" lon="2.32834">
        <ele>108.1</ele>
        <time>2015-06-15T18:36:38.825Z</time>
      </trkpt>
      <trkpt lat="48.88202" lon="2.32832">
        <ele>108.3</ele>
        <time>2015-06-15T18:36:39.830Z</time>
      </trkpt>
      <trkpt lat="48.88205" lon="2.3283">
        <ele>108.6</ele>
        <time>2015-06-15T18:36:40.805Z</time>
      </trkpt>
      <trkpt lat="48.8821" lon="2.32826">
        <ele>107.6</ele>
        <time>2015-06-15T18:36:41.808Z</time>
      </trkpt>
      <trkpt lat="48.88217" lon="2.32822">
        <ele>107.6</ele>
        <time>2015-06-15T18:36:43.748Z</time>
      </trkpt>
      <trkpt lat="48.8822" lon="2.32821">
        <ele>108</ele>
        <time>2015-06-15T18:36:44.882Z</time>
      </trkpt>
      <trkpt lat="48.88227" lon="2.32814">
        <ele>109.2</ele>
        <time>2015-06-15T18:36:48.431Z</time>
      </trkpt>
      <trkpt lat="48.8823" lon="2.32812">
        <ele>109.6</ele>
        <time>2015-06-15T18:36:48.768Z</time>
      </trkpt>
      <trkpt lat="48.88235" lon="2.32809">
        <ele>109.9</ele>
        <time>2015-06-15T18:36:50.817Z</time>
      </trkpt>
      <trkpt lat="48.88238" lon="2.32806">
        <ele>110.2</ele>
        <time>2015-06-15T18:36:51.827Z</time>
      </trkpt>
      <trkpt lat="48.88245" lon="2.32804">
        <ele>110.4</ele>
        <time>2015-06-15T18:36:54.399Z</time>
      </trkpt>
      <trkpt lat="48.88248" lon="2.32803">
        <ele>110.6</ele>
        <time>2015-06-15T18:36:54.725Z</time>
      </trkpt>
      <trkpt lat="48.88255" lon="2.32798">
        <ele>111.2</ele>
        <time>2015-06-15T18:36:57.846Z</time>
      </trkpt>
      <trkpt lat="48.88258" lon="2.32797">
        <ele>111.3</ele>
        <time>2015-06-15T18:36:58.784Z</time>
      </trkpt>
      <trkpt lat="48.88266" lon="2.32792">
        <ele>111.4</ele>
        <time>2015-06-15T18:37:01.780Z</time>
      </trkpt>
      <trkpt lat="48.88269" lon="2.32791">
        <ele>111.5</ele>
        <time>2015-06-15T18:37:02.799Z</time>
      </trkpt>
      <trkpt lat="48.88275" lon="2.32788">
        <ele>112.4</ele>
        <time>2015-06-15T18:37:04.764Z</time>
      </trkpt>
      <trkpt lat="48.88278" lon="2.32788">
        <ele>112.7</ele>
        <time>2015-06-15T18:37:05.774Z</time>
      </trkpt>
      <trkpt lat="48.88286" lon="2.32784">
        <ele>112.2</ele>
        <time>2015-06-15T18:37:08.819Z</time>
      </trkpt>
      <trkpt lat="48.88288" lon="2.32783">
        <ele>112.1</ele>
        <time>2015-06-15T18:37:09.898Z</time>
      </trkpt>
      <trkpt lat="48.88294" lon="2.32777">
        <ele>111.6</ele>
        <time>2015-06-15T18:37:12.978Z</time>
      </trkpt>
      <trkpt lat="48.88296" lon="2.32774">
        <ele>111.9</ele>
        <time>2015-06-15T18:37:13.780Z</time>
      </trkpt>
      <trkpt lat="48.88302" lon="2.32768">
        <ele>112.9</ele>
        <time>2015-06-15T18:37:16.764Z</time>
      </trkpt>
      <trkpt lat="48.88304" lon="2.32766">
        <ele>112.8</ele>
        <time>2015-06-15T18:37:17.784Z</time>
      </trkpt>
      <trkpt lat="48.88311" lon="2.32759">
        <ele>112.7</ele>
        <time>2015-06-15T18:37:23.168Z</time>
      </trkpt>
      <trkpt lat="48.88312" lon="2.32758">
        <ele>112.7</ele>
        <time>2015-06-15T18:37:23.858Z</time>
      </trkpt>
      <trkpt lat="48.88321" lon="2.32755">
        <ele>112.9</ele>
        <time>2015-06-15T18:37:28.853Z</time>
      </trkpt>
      <trkpt lat="48.88322" lon="2.32754">
        <ele>113</ele>
        <time>2015-06-15T18:37:29.843Z</time>
      </trkpt>
      <trkpt lat="48.88324" lon="2.32753">
        <ele>113.3</ele>
        <time>2015-06-15T18:37:31.806Z</time>
      </trkpt>
      <trkpt lat="48.88323" lon="2.32753">
        <ele>113.6</ele>
        <time>2015-06-15T18:37:32.968Z</time>
      </trkpt>
      <trkpt lat="48.88324" lon="2.32753">
        <ele>113.8</ele>
        <time>2015-06-15T18:37:35.896Z</time>
      </trkpt>
      <trkpt lat="48.88325" lon="2.32755">
        <ele>113.9</ele>
        <time>2015-06-15T18:37:36.750Z</time>
      </trkpt>
      <trkpt lat="48.88325" lon="2.32755">
        <ele>114</ele>
        <time>2015-06-15T18:37:38.402Z</time>
      </trkpt>
      <trkpt lat="48.88326" lon="2.32755">
        <ele>114</ele>
        <time>2015-06-15T18:37:38.819Z</time>
      </trkpt>
      <trkpt lat="48.88326" lon="2.32755">
        <ele>114</ele>
        <time>2015-06-15T18:38:06.766Z</time>
      </trkpt>
      <trkpt lat="48.8833" lon="2.3276">
        <ele>115.6</ele>
        <time>2015-06-15T18:38:07.797Z</time>
      </trkpt>
      <trkpt lat="48.88339" lon="2.32763">
        <ele>116.4</ele>
        <time>2015-06-15T18:38:13.167Z</time>
      </trkpt>
      <trkpt lat="48.88341" lon="2.32764">
        <ele>116.2</ele>
        <time>2015-06-15T18:38:13.828Z</time>
      </trkpt>
      <trkpt lat="48.88349" lon="2.32765">
        <ele>115.9</ele>
        <time>2015-06-15T18:38:18.235Z</time>
      </trkpt>
      <trkpt lat="48.88351" lon="2.32765">
        <ele>116.1</ele>
        <time>2015-06-15T18:38:18.819Z</time>
      </trkpt>
      <trkpt lat="48.88352" lon="2.32765">
        <ele>116.1</ele>
        <time>2015-06-15T18:38:20.060Z</time>
      </trkpt>
      <trkpt lat="48.88353" lon="2.32764">
        <ele>116.2</ele>
        <time>2015-06-15T18:38:20.886Z</time>
      </trkpt>
      <trkpt lat="48.88354" lon="2.32764">
        <ele>116.5</ele>
        <time>2015-06-15T18:38:21.781Z</time>
      </trkpt>
      <trkpt lat="48.88361" lon="2.32757">
        <ele>119.8</ele>
        <time>2015-06-15T18:38:49.822Z</time>
      </trkpt>
      <trkpt lat="48.88363" lon="2.32754">
        <ele>119.9</ele>
        <time>2015-06-15T18:38:50.861Z</time>
      </trkpt>
      <trkpt lat="48.88368" lon="2.32746">
        <ele>120.4</ele>
        <time>2015-06-15T18:38:53.827Z</time>
      </trkpt>
      <trkpt lat="48.8837" lon="2.32743">
        <ele>120.6</ele>
        <time>2015-06-15T18:38:54.864Z</time>
      </trkpt>
      <trkpt lat="48.88376" lon="2.32736">
        <ele>120.9</ele>
        <time>2015-06-15T18:38:57.822Z</time>
      </trkpt>
      <trkpt lat="48.88378" lon="2.32733">
        <ele>120.9</ele>
        <time>2015-06-15T18:38:58.749Z</time>
      </trkpt>
      <trkpt lat="48.88386" lon="2.32729">
        <ele>122.5</ele>
        <time>2015-06-15T18:39:03.101Z</time>
      </trkpt>
      <trkpt lat="48.88388" lon="2.32727">
        <ele>122.9</ele>
        <time>2015-06-15T18:39:03.828Z</time>
      </trkpt>
      <trkpt lat="48.88395" lon="2.32725">
        <ele>123.7</ele>
        <time>2015-06-15T18:39:06.817Z</time>
      </trkpt>
      <trkpt lat="48.88397" lon="2.32724">
        <ele>124</ele>
        <time>2015-06-15T18:39:07.832Z</time>
      </trkpt>
      <trkpt lat="48.88406" lon="2.32722">
        <ele>124.4</ele>
        <time>2015-06-15T18:39:13.245Z</time>
      </trkpt>
      <trkpt lat="48.88407" lon="2.32721">
        <ele>124.7</ele>
        <time>2015-06-15T18:39:13.828Z</time>
      </trkpt>
      <trkpt lat="48.88415" lon="2.32714">
        <ele>124.8</ele>
        <time>2015-06-15T18:39:16.749Z</time>
      </trkpt>
      <trkpt lat="48.88417" lon="2.32712">
        <ele>124.9</ele>
        <time>2015-06-15T18:39:17.774Z</time>
      </trkpt>
      <trkpt lat="48.88426" lon="2.32708">
        <ele>125</ele>
        <time>2015-06-15T18:39:20.827Z</time>
      </trkpt>
      <trkpt lat="48.88429" lon="2.32706">
        <ele>125.1</ele>
        <time>2015-06-15T18:39:21.764Z</time>
      </trkpt>
      <trkpt lat="48.88435" lon="2.32701">
        <ele>125</ele>
        <time>2015-06-15T18:39:23.792Z</time>
      </trkpt>
      <trkpt lat="48.88438" lon="2.327">
        <ele>125.1</ele>
        <time>2015-06-15T18:39:24.806Z</time>
      </trkpt>
      <trkpt lat="48.88445" lon="2.32697">
        <ele>125.1</ele>
        <time>2015-06-15T18:39:26.876Z</time>
      </trkpt>
      <trkpt lat="48.88447" lon="2.32695">
        <ele>125.3</ele>
        <time>2015-06-15T18:39:27.780Z</time>
      </trkpt>
      <trkpt lat="48.88453" lon="2.32693">
        <ele>125.5</ele>
        <time>2015-06-15T18:39:29.794Z</time>
      </trkpt>
      <trkpt lat="48.88457" lon="2.32692">
        <ele>125.4</ele>
        <time>2015-06-15T18:39:30.793Z</time>
      </trkpt>
      <trkpt lat="48.88464" lon="2.32689">
        <ele>125.4</ele>
        <time>2015-06-15T18:39:33.724Z</time>
      </trkpt>
      <trkpt lat="48.88469" lon="2.32688">
        <ele>125.3</ele>
        <time>2015-06-15T18:39:33.832Z</time>
      </trkpt>
      <trkpt lat="48.88474" lon="2.32687">
        <ele>125.4</ele>
        <time>2015-06-15T18:39:34.895Z</time>
      </trkpt>
      <trkpt lat="48.88478" lon="2.32686">
        <ele>125.5</ele>
        <time>2015-06-15T18:39:35.773Z</time>
      </trkpt>
      <trkpt lat="48.88486" lon="2.32682">
        <ele>125.6</ele>
        <time>2015-06-15T18:39:38.770Z</time>
      </trkpt>
      <trkpt lat="48.8849" lon="2.3268">
        <ele>125.7</ele>
        <time>2015-06-15T18:39:38.844Z</time>
      </trkpt>
      <trkpt lat="48.88498" lon="2.32677">
        <ele>126</ele>
        <time>2015-06-15T18:39:40.766Z</time>
      </trkpt>
      <trkpt lat="48.88501" lon="2.32677">
        <ele>126</ele>
        <time>2015-06-15T18:39:41.737Z</time>
      </trkpt>
      <trkpt lat="48.88506" lon="2.32672">
        <ele>125.9</ele>
        <time>2015-06-15T18:39:43.804Z</time>
      </trkpt>
      <trkpt lat="48.88509" lon="2.3267">
        <ele>125.9</ele>
        <time>2015-06-15T18:39:44.822Z</time>
      </trkpt>
      <trkpt lat="48.88514" lon="2.32667">
        <ele>126</ele>
        <time>2015-06-15T18:39:45.873Z</time>
      </trkpt>
      <trkpt lat="48.88519" lon="2.32666">
        <ele>126</ele>
        <time>2015-06-15T18:39:46.779Z</time>
      </trkpt>
      <trkpt lat="48.88523" lon="2.32663">
        <ele>126.1</ele>
        <time>2015-06-15T18:39:47.771Z</time>
      </trkpt>
      <trkpt lat="48.88528" lon="2.32661">
        <ele>126.1</ele>
        <time>2015-06-15T18:39:48.851Z</time>
      </trkpt>
      <trkpt lat="48.88536" lon="2.32657">
        <ele>125.8</ele>
        <time>2015-06-15T18:39:50.782Z</time>
      </trkpt>
      <trkpt lat="48.8854" lon="2.32655">
        <ele>125.8</ele>
        <time>2015-06-15T18:39:51.794Z</time>
      </trkpt>
      <trkpt lat="48.88548" lon="2.32651">
        <ele>125.6</ele>
        <time>2015-06-15T18:39:53.969Z</time>
      </trkpt>
      <trkpt lat="48.88551" lon="2.32649">
        <ele>125.6</ele>
        <time>2015-06-15T18:39:54.809Z</time>
      </trkpt>
      <trkpt lat="48.8856" lon="2.32646">
        <ele>125.2</ele>
        <time>2015-06-15T18:39:57.839Z</time>
      </trkpt>
      <trkpt lat="48.88563" lon="2.32646">
        <ele>125.2</ele>
        <time>2015-06-15T18:39:58.859Z</time>
      </trkpt>
      <trkpt lat="48.88568" lon="2.32643">
        <ele>125</ele>
        <time>2015-06-15T18:40:01.817Z</time>
      </trkpt>
      <trkpt lat="48.88569" lon="2.32643">
        <ele>125.1</ele>
        <time>2015-06-15T18:40:02.886Z</time>
      </trkpt>
      <trkpt lat="48.8857" lon="2.32642">
        <ele>125.2</ele>
        <time>2015-06-15T18:40:03.736Z</time>
      </trkpt>
      <trkpt lat="48.88571" lon="2.32643">
        <ele>125.3</ele>
        <time>2015-06-15T18:40:04.773Z</time>
      </trkpt>
      <trkpt lat="48.88579" lon="2.32641">
        <ele>126</ele>
        <time>2015-06-15T18:40:10.898Z</time>
      </trkpt>
      <trkpt lat="48.88581" lon="2.32639">
        <ele>126</ele>
        <time>2015-06-15T18:40:11.789Z</time>
      </trkpt>
      <trkpt lat="48.88587" lon="2.32634">
        <ele>126.4</ele>
        <time>2015-06-15T18:40:13.905Z</time>
      </trkpt>
      <trkpt lat="48.8859" lon="2.32633">
        <ele>126.5</ele>
        <time>2015-06-15T18:40:14.918Z</time>
      </trkpt>
      <trkpt lat="48.88597" lon="2.32629">
        <ele>126.9</ele>
        <time>2015-06-15T18:40:16.790Z</time>
      </trkpt>
      <trkpt lat="48.88601" lon="2.32626">
        <ele>127.4</ele>
        <time>2015-06-15T18:40:17.807Z</time>
      </trkpt>
      <trkpt lat="48.88609" lon="2.32622">
        <ele>128.1</ele>
        <time>2015-06-15T18:40:19.853Z</time>
      </trkpt>
      <trkpt lat="48.88614" lon="2.32621">
        <ele>128.4</ele>
        <time>2015-06-15T18:40:20.869Z</time>
      </trkpt>
      <trkpt lat="48.88619" lon="2.3262">
        <ele>128.6</ele>
        <time>2015-06-15T18:40:21.781Z</time>
      </trkpt>
      <trkpt lat="48.88624" lon="2.32619">
        <ele>129.1</ele>
        <time>2015-06-15T18:40:22.835Z</time>
      </trkpt>
      <trkpt lat="48.8863" lon="2.32615">
        <ele>130.6</ele>
        <time>2015-06-15T18:40:23.779Z</time>
      </trkpt>
      <trkpt lat="48.88633" lon="2.3261">
        <ele>130.9</ele>
        <time>2015-06-15T18:40:24.787Z</time>
      </trkpt>
      <trkpt lat="48.88637" lon="2.32607">
        <ele>131.1</ele>
        <time>2015-06-15T18:40:25.797Z</time>
      </trkpt>
      <trkpt lat="48.88642" lon="2.32604">
        <ele>131.2</ele>
        <time>2015-06-15T18:40:26.828Z</time>
      </trkpt>
      <trkpt lat="48.88646" lon="2.32601">
        <ele>131.4</ele>
        <time>2015-06-15T18:40:27.840Z</time>
      </trkpt>
      <trkpt lat="48.88651" lon="2.32599">
        <ele>131.4</ele>
        <time>2015-06-15T18:40:28.849Z</time>
      </trkpt>
      <trkpt lat="48.88655" lon="2.32598">
        <ele>131.4</ele>
        <time>2015-06-15T18:40:29.776Z</time>
      </trkpt>
      <trkpt lat="48.8866" lon="2.32596">
        <ele>131.4</ele>
        <time>2015-06-15T18:40:30.792Z</time>
      </trkpt>
      <trkpt lat="48.88664" lon="2.32593">
        <ele>131.4</ele>
        <time>2015-06-15T18:40:31.787Z</time>
      </trkpt>
      <trkpt lat="48.88669" lon="2.32592">
        <ele>131.4</ele>
        <time>2015-06-15T18:40:32.823Z</time>
      </trkpt>
      <trkpt lat="48.88674" lon="2.32591">
        <ele>131.3</ele>
        <time>2015-06-15T18:40:33.834Z</time>
      </trkpt>
      <trkpt lat="48.8868" lon="2.32591">
        <ele>131.3</ele>
        <time>2015-06-15T18:40:34.742Z</time>
      </trkpt>
      <trkpt lat="48.88685" lon="2.32591">
        <ele>131.2</ele>
        <time>2015-06-15T18:40:35.757Z</time>
      </trkpt>
      <trkpt lat="48.88689" lon="2.32589">
        <ele>131.1</ele>
        <time>2015-06-15T18:40:36.797Z</time>
      </trkpt>
      <trkpt lat="48.88694" lon="2.32586">
        <ele>131</ele>
        <time>2015-06-15T18:40:37.813Z</time>
      </trkpt>
      <trkpt lat="48.88698" lon="2.32584">
        <ele>130.9</ele>
        <time>2015-06-15T18:40:38.819Z</time>
      </trkpt>
      <trkpt lat="48.88702" lon="2.3258">
        <ele>130.8</ele>
        <time>2015-06-15T18:40:39.838Z</time>
      </trkpt>
      <trkpt lat="48.88709" lon="2.32578">
        <ele>128.7</ele>
        <time>2015-06-15T18:40:40.843Z</time>
      </trkpt>
      <trkpt lat="48.88714" lon="2.32577">
        <ele>127.3</ele>
        <time>2015-06-15T18:40:41.770Z</time>
      </trkpt>
      <trkpt lat="48.88719" lon="2.32575">
        <ele>126.7</ele>
        <time>2015-06-15T18:40:42.770Z</time>
      </trkpt>
      <trkpt lat="48.88724" lon="2.32573">
        <ele>126.9</ele>
        <time>2015-06-15T18:40:43.788Z</time>
      </trkpt>
      <trkpt lat="48.88729" lon="2.32571">
        <ele>126.8</ele>
        <time>2015-06-15T18:40:44.861Z</time>
      </trkpt>
      <trkpt lat="48.88734" lon="2.32568">
        <ele>126.9</ele>
        <time>2015-06-15T18:40:45.824Z</time>
      </trkpt>
      <trkpt lat="48.88738" lon="2.32565">
        <ele>126.9</ele>
        <time>2015-06-15T18:40:46.833Z</time>
      </trkpt>
      <trkpt lat="48.88746" lon="2.3256">
        <ele>126.9</ele>
        <time>2015-06-15T18:40:48.769Z</time>
      </trkpt>
      <trkpt lat="48.8875" lon="2.32559">
        <ele>127.2</ele>
        <time>2015-06-15T18:40:49.800Z</time>
      </trkpt>
      <trkpt lat="48.88759" lon="2.3256">
        <ele>127.8</ele>
        <time>2015-06-15T18:40:52.784Z</time>
      </trkpt>
      <trkpt lat="48.88762" lon="2.32561">
        <ele>127.9</ele>
        <time>2015-06-15T18:40:53.794Z</time>
      </trkpt>
      <trkpt lat="48.88769" lon="2.32563">
        <ele>128.2</ele>
        <time>2015-06-15T18:40:55.844Z</time>
      </trkpt>
      <trkpt lat="48.88772" lon="2.32564">
        <ele>128.3</ele>
        <time>2015-06-15T18:40:56.874Z</time>
      </trkpt>
      <trkpt lat="48.88781" lon="2.32568">
        <ele>128.4</ele>
        <time>2015-06-15T18:40:58.801Z</time>
      </trkpt>
      <trkpt lat="48.88785" lon="2.32569">
        <ele>128.5</ele>
        <time>2015-06-15T18:40:59.872Z</time>
      </trkpt>
      <trkpt lat="48.8879" lon="2.32569">
        <ele>128.6</ele>
        <time>2015-06-15T18:41:00.784Z</time>
      </trkpt>
      <trkpt lat="48.88794" lon="2.3257">
        <ele>128.6</ele>
        <time>2015-06-15T18:41:01.796Z</time>
      </trkpt>
      <trkpt lat="48.88799" lon="2.32571">
        <ele>128.9</ele>
        <time>2015-06-15T18:41:02.873Z</time>
      </trkpt>
      <trkpt lat="48.88803" lon="2.32573">
        <ele>129</ele>
        <time>2015-06-15T18:41:03.860Z</time>
      </trkpt>
      <trkpt lat="48.88809" lon="2.32576">
        <ele>129.2</ele>
        <time>2015-06-15T18:41:04.769Z</time>
      </trkpt>
      <trkpt lat="48.88815" lon="2.32578">
        <ele>129.4</ele>
        <time>2015-06-15T18:41:05.759Z</time>
      </trkpt>
      <trkpt lat="48.88824" lon="2.32581">
        <ele>129.5</ele>
        <time>2015-06-15T18:41:07.820Z</time>
      </trkpt>
      <trkpt lat="48.88828" lon="2.32583">
        <ele>129.7</ele>
        <time>2015-06-15T18:41:08.860Z</time>
      </trkpt>
      <trkpt lat="48.88835" lon="2.32585">
        <ele>130</ele>
        <time>2015-06-15T18:41:10.774Z</time>
      </trkpt>
      <trkpt lat="48.88839" lon="2.32584">
        <ele>130.1</ele>
        <time>2015-06-15T18:41:11.838Z</time>
      </trkpt>
      <trkpt lat="48.88848" lon="2.32586">
        <ele>130.2</ele>
        <time>2015-06-15T18:41:13.853Z</time>
      </trkpt>
      <trkpt lat="48.88852" lon="2.32587">
        <ele>130.3</ele>
        <time>2015-06-15T18:41:14.878Z</time>
      </trkpt>
      <trkpt lat="48.88856" lon="2.32589">
        <ele>130.3</ele>
        <time>2015-06-15T18:41:15.780Z</time>
      </trkpt>
      <trkpt lat="48.88861" lon="2.32591">
        <ele>130.4</ele>
        <time>2015-06-15T18:41:16.785Z</time>
      </trkpt>
      <trkpt lat="48.88866" lon="2.32594">
        <ele>130.5</ele>
        <time>2015-06-15T18:41:17.799Z</time>
      </trkpt>
      <trkpt lat="48.88871" lon="2.32597">
        <ele>130.7</ele>
        <time>2015-06-15T18:41:18.808Z</time>
      </trkpt>
      <trkpt lat="48.88877" lon="2.32599">
        <ele>130.7</ele>
        <time>2015-06-15T18:41:19.829Z</time>
      </trkpt>
      <trkpt lat="48.88882" lon="2.326">
        <ele>130.7</ele>
        <time>2015-06-15T18:41:20.836Z</time>
      </trkpt>
      <trkpt lat="48.88886" lon="2.32601">
        <ele>130.8</ele>
        <time>2015-06-15T18:41:21.863Z</time>
      </trkpt>
      <trkpt lat="48.88891" lon="2.32603">
        <ele>130.7</ele>
        <time>2015-06-15T18:41:22.863Z</time>
      </trkpt>
      <trkpt lat="48.88896" lon="2.32605">
        <ele>130.6</ele>
        <time>2015-06-15T18:41:23.834Z</time>
      </trkpt>
      <trkpt lat="48.88901" lon="2.32606">
        <ele>130.6</ele>
        <time>2015-06-15T18:41:24.843Z</time>
      </trkpt>
      <trkpt lat="48.88906" lon="2.32609">
        <ele>130.6</ele>
        <time>2015-06-15T18:41:25.859Z</time>
      </trkpt>
      <trkpt lat="48.88912" lon="2.32612">
        <ele>130.6</ele>
        <time>2015-06-15T18:41:26.873Z</time>
      </trkpt>
      <trkpt lat="48.88919" lon="2.32614">
        <ele>130.5</ele>
        <time>2015-06-15T18:41:27.783Z</time>
      </trkpt>
      <trkpt lat="48.88924" lon="2.32615">
        <ele>130.5</ele>
        <time>2015-06-15T18:41:28.778Z</time>
      </trkpt>
      <trkpt lat="48.88929" lon="2.32615">
        <ele>130.5</ele>
        <time>2015-06-15T18:41:29.792Z</time>
      </trkpt>
      <trkpt lat="48.88935" lon="2.32617">
        <ele>130.7</ele>
        <time>2015-06-15T18:41:30.803Z</time>
      </trkpt>
      <trkpt lat="48.88941" lon="2.3262">
        <ele>130.7</ele>
        <time>2015-06-15T18:41:31.814Z</time>
      </trkpt>
      <trkpt lat="48.88948" lon="2.32623">
        <ele>130.7</ele>
        <time>2015-06-15T18:41:32.866Z</time>
      </trkpt>
      <trkpt lat="48.88954" lon="2.32623">
        <ele>130.8</ele>
        <time>2015-06-15T18:41:33.776Z</time>
      </trkpt>
      <trkpt lat="48.88959" lon="2.32624">
        <ele>130.7</ele>
        <time>2015-06-15T18:41:34.782Z</time>
      </trkpt>
      <trkpt lat="48.88964" lon="2.32625">
        <ele>130.6</ele>
        <time>2015-06-15T18:41:35.788Z</time>
      </trkpt>
      <trkpt lat="48.88969" lon="2.32627">
        <ele>130.3</ele>
        <time>2015-06-15T18:41:36.795Z</time>
      </trkpt>
      <trkpt lat="48.88974" lon="2.32629">
        <ele>130</ele>
        <time>2015-06-15T18:41:37.811Z</time>
      </trkpt>
      <trkpt lat="48.88979" lon="2.32631">
        <ele>130</ele>
        <time>2015-06-15T18:41:38.827Z</time>
      </trkpt>
      <trkpt lat="48.88985" lon="2.32635">
        <ele>130.1</ele>
        <time>2015-06-15T18:41:39.846Z</time>
      </trkpt>
      <trkpt lat="48.8899" lon="2.32639">
        <ele>130.1</ele>
        <time>2015-06-15T18:41:40.751Z</time>
      </trkpt>
      <trkpt lat="48.88998" lon="2.32643">
        <ele>130.8</ele>
        <time>2015-06-15T18:41:42.786Z</time>
      </trkpt>
      <trkpt lat="48.89002" lon="2.32645">
        <ele>131.1</ele>
        <time>2015-06-15T18:41:43.852Z</time>
      </trkpt>
      <trkpt lat="48.89009" lon="2.3265">
        <ele>131</ele>
        <time>2015-06-15T18:41:45.791Z</time>
      </trkpt>
      <trkpt lat="48.89014" lon="2.32652">
        <ele>131.1</ele>
        <time>2015-06-15T18:41:46.811Z</time>
      </trkpt>
      <trkpt lat="48.89019" lon="2.32653">
        <ele>131.3</ele>
        <time>2015-06-15T18:41:47.890Z</time>
      </trkpt>
      <trkpt lat="48.89025" lon="2.32653">
        <ele>131.3</ele>
        <time>2015-06-15T18:41:48.782Z</time>
      </trkpt>
      <trkpt lat="48.8903" lon="2.32654">
        <ele>131.3</ele>
        <time>2015-06-15T18:41:50.026Z</time>
      </trkpt>
      <trkpt lat="48.89036" lon="2.32654">
        <ele>131.4</ele>
        <time>2015-06-15T18:41:50.837Z</time>
      </trkpt>
      <trkpt lat="48.89043" lon="2.32653">
        <ele>131.1</ele>
        <time>2015-06-15T18:41:51.845Z</time>
      </trkpt>
      <trkpt lat="48.89049" lon="2.32654">
        <ele>131.1</ele>
        <time>2015-06-15T18:41:52.805Z</time>
      </trkpt>
      <trkpt lat="48.89055" lon="2.32656">
        <ele>131</ele>
        <time>2015-06-15T18:41:53.804Z</time>
      </trkpt>
      <trkpt lat="48.89059" lon="2.32658">
        <ele>130.9</ele>
        <time>2015-06-15T18:41:54.812Z</time>
      </trkpt>
      <trkpt lat="48.89064" lon="2.32658">
        <ele>130.6</ele>
        <time>2015-06-15T18:41:55.894Z</time>
      </trkpt>
      <trkpt lat="48.89069" lon="2.3266">
        <ele>130.6</ele>
        <time>2015-06-15T18:41:56.912Z</time>
      </trkpt>
      <trkpt lat="48.89074" lon="2.32663">
        <ele>130.6</ele>
        <time>2015-06-15T18:41:57.809Z</time>
      </trkpt>
      <trkpt lat="48.89078" lon="2.32666">
        <ele>130.4</ele>
        <time>2015-06-15T18:41:58.796Z</time>
      </trkpt>
      <trkpt lat="48.89083" lon="2.32668">
        <ele>130.3</ele>
        <time>2015-06-15T18:41:59.843Z</time>
      </trkpt>
      <trkpt lat="48.89088" lon="2.32669">
        <ele>130.2</ele>
        <time>2015-06-15T18:42:00.834Z</time>
      </trkpt>
      <trkpt lat="48.89096" lon="2.3267">
        <ele>130</ele>
        <time>2015-06-15T18:42:02.871Z</time>
      </trkpt>
      <trkpt lat="48.89101" lon="2.3267">
        <ele>130</ele>
        <time>2015-06-15T18:42:03.793Z</time>
      </trkpt>
      <trkpt lat="48.89107" lon="2.32675">
        <ele>129.4</ele>
        <time>2015-06-15T18:42:04.780Z</time>
      </trkpt>
      <trkpt lat="48.89112" lon="2.3268">
        <ele>128.9</ele>
        <time>2015-06-15T18:42:05.803Z</time>
      </trkpt>
      <trkpt lat="48.8912" lon="2.32686">
        <ele>128.7</ele>
        <time>2015-06-15T18:42:07.766Z</time>
      </trkpt>
      <trkpt lat="48.89123" lon="2.32688">
        <ele>128.7</ele>
        <time>2015-06-15T18:42:08.805Z</time>
      </trkpt>
      <trkpt lat="48.89132" lon="2.32691">
        <ele>128.6</ele>
        <time>2015-06-15T18:42:10.821Z</time>
      </trkpt>
      <trkpt lat="48.89137" lon="2.32691">
        <ele>128.6</ele>
        <time>2015-06-15T18:42:11.837Z</time>
      </trkpt>
      <trkpt lat="48.89142" lon="2.32692">
        <ele>128.6</ele>
        <time>2015-06-15T18:42:12.850Z</time>
      </trkpt>
      <trkpt lat="48.89146" lon="2.32692">
        <ele>128.4</ele>
        <time>2015-06-15T18:42:13.820Z</time>
      </trkpt>
      <trkpt lat="48.89151" lon="2.32692">
        <ele>128</ele>
        <time>2015-06-15T18:42:14.875Z</time>
      </trkpt>
      <trkpt lat="48.89156" lon="2.32693">
        <ele>127.9</ele>
        <time>2015-06-15T18:42:15.773Z</time>
      </trkpt>
      <trkpt lat="48.89164" lon="2.32696">
        <ele>128</ele>
        <time>2015-06-15T18:42:17.826Z</time>
      </trkpt>
      <trkpt lat="48.89169" lon="2.32697">
        <ele>127.9</ele>
        <time>2015-06-15T18:42:18.836Z</time>
      </trkpt>
      <trkpt lat="48.89173" lon="2.32699">
        <ele>127.9</ele>
        <time>2015-06-15T18:42:19.785Z</time>
      </trkpt>
      <trkpt lat="48.89178" lon="2.32701">
        <ele>127.6</ele>
        <time>2015-06-15T18:42:20.818Z</time>
      </trkpt>
      <trkpt lat="48.89183" lon="2.32703">
        <ele>127.5</ele>
        <time>2015-06-15T18:42:21.819Z</time>
      </trkpt>
      <trkpt lat="48.89187" lon="2.32706">
        <ele>127.5</ele>
        <time>2015-06-15T18:42:22.826Z</time>
      </trkpt>
      <trkpt lat="48.89192" lon="2.32707">
        <ele>127.6</ele>
        <time>2015-06-15T18:42:23.856Z</time>
      </trkpt>
      <trkpt lat="48.89197" lon="2.32709">
        <ele>127.6</ele>
        <time>2015-06-15T18:42:24.869Z</time>
      </trkpt>
      <trkpt lat="48.89202" lon="2.32711">
        <ele>127.5</ele>
        <time>2015-06-15T18:42:25.817Z</time>
      </trkpt>
      <trkpt lat="48.89207" lon="2.32713">
        <ele>127.6</ele>
        <time>2015-06-15T18:42:26.878Z</time>
      </trkpt>
      <trkpt lat="48.89212" lon="2.32715">
        <ele>127.4</ele>
        <time>2015-06-15T18:42:27.802Z</time>
      </trkpt>
      <trkpt lat="48.89218" lon="2.32717">
        <ele>127.4</ele>
        <time>2015-06-15T18:42:28.798Z</time>
      </trkpt>
      <trkpt lat="48.89224" lon="2.32719">
        <ele>127.6</ele>
        <time>2015-06-15T18:42:29.811Z</time>
      </trkpt>
      <trkpt lat="48.8923" lon="2.32721">
        <ele>127.8</ele>
        <time>2015-06-15T18:42:30.807Z</time>
      </trkpt>
      <trkpt lat="48.89235" lon="2.32722">
        <ele>127.9</ele>
        <time>2015-06-15T18:42:31.814Z</time>
      </trkpt>
      <trkpt lat="48.8924" lon="2.32723">
        <ele>127.8</ele>
        <time>2015-06-15T18:42:32.892Z</time>
      </trkpt>
      <trkpt lat="48.89244" lon="2.32724">
        <ele>128</ele>
        <time>2015-06-15T18:42:33.765Z</time>
      </trkpt>
      <trkpt lat="48.8925" lon="2.32724">
        <ele>128.3</ele>
        <time>2015-06-15T18:42:34.768Z</time>
      </trkpt>
      <trkpt lat="48.89255" lon="2.32725">
        <ele>128.7</ele>
        <time>2015-06-15T18:42:35.779Z</time>
      </trkpt>
      <trkpt lat="48.89261" lon="2.32724">
        <ele>129</ele>
        <time>2015-06-15T18:42:36.807Z</time>
      </trkpt>
      <trkpt lat="48.89265" lon="2.32725">
        <ele>129.5</ele>
        <time>2015-06-15T18:42:37.825Z</time>
      </trkpt>
      <trkpt lat="48.8927" lon="2.32726">
        <ele>129.8</ele>
        <time>2015-06-15T18:42:38.829Z</time>
      </trkpt>
      <trkpt lat="48.89275" lon="2.32727">
        <ele>130.1</ele>
        <time>2015-06-15T18:42:39.842Z</time>
      </trkpt>
      <trkpt lat="48.89279" lon="2.32727">
        <ele>130.3</ele>
        <time>2015-06-15T18:42:40.848Z</time>
      </trkpt>
      <trkpt lat="48.89286" lon="2.32727">
        <ele>130.5</ele>
        <time>2015-06-15T18:42:42.776Z</time>
      </trkpt>
      <trkpt lat="48.89289" lon="2.32728">
        <ele>130.7</ele>
        <time>2015-06-15T18:42:43.839Z</time>
      </trkpt>
      <trkpt lat="48.89297" lon="2.3273">
        <ele>128.4</ele>
        <time>2015-06-15T18:42:45.778Z</time>
      </trkpt>
      <trkpt lat="48.89301" lon="2.32733">
        <ele>126.3</ele>
        <time>2015-06-15T18:42:46.925Z</time>
      </trkpt>
      <trkpt lat="48.89308" lon="2.3274">
        <ele>125.7</ele>
        <time>2015-06-15T18:42:49.861Z</time>
      </trkpt>
      <trkpt lat="48.8931" lon="2.32741">
        <ele>125.5</ele>
        <time>2015-06-15T18:42:50.828Z</time>
      </trkpt>
      <trkpt lat="48.89318" lon="2.32745">
        <ele>125.5</ele>
        <time>2015-06-15T18:42:53.788Z</time>
      </trkpt>
      <trkpt lat="48.89322" lon="2.32745">
        <ele>124.5</ele>
        <time>2015-06-15T18:42:54.798Z</time>
      </trkpt>
      <trkpt lat="48.89329" lon="2.32746">
        <ele>123.6</ele>
        <time>2015-06-15T18:42:56.817Z</time>
      </trkpt>
      <trkpt lat="48.89332" lon="2.32748">
        <ele>123.7</ele>
        <time>2015-06-15T18:42:57.834Z</time>
      </trkpt>
      <trkpt lat="48.8934" lon="2.32752">
        <ele>124.3</ele>
        <time>2015-06-15T18:43:00.782Z</time>
      </trkpt>
      <trkpt lat="48.89342" lon="2.32754">
        <ele>124.5</ele>
        <time>2015-06-15T18:43:01.803Z</time>
      </trkpt>
      <trkpt lat="48.8935" lon="2.32757">
        <ele>124.9</ele>
        <time>2015-06-15T18:43:04.843Z</time>
      </trkpt>
      <trkpt lat="48.89352" lon="2.32758">
        <ele>125</ele>
        <time>2015-06-15T18:43:05.855Z</time>
      </trkpt>
      <trkpt lat="48.8936" lon="2.32761">
        <ele>126.4</ele>
        <time>2015-06-15T18:43:11.773Z</time>
      </trkpt>
      <trkpt lat="48.89362" lon="2.3276">
        <ele>126.6</ele>
        <time>2015-06-15T18:43:12.793Z</time>
      </trkpt>
      <trkpt lat="48.8937" lon="2.32762">
        <ele>127</ele>
        <time>2015-06-15T18:43:15.741Z</time>
      </trkpt>
      <trkpt lat="48.89372" lon="2.32765">
        <ele>127.1</ele>
        <time>2015-06-15T18:43:16.741Z</time>
      </trkpt>
      <trkpt lat="48.89378" lon="2.32771">
        <ele>127.4</ele>
        <time>2015-06-15T18:43:18.830Z</time>
      </trkpt>
      <trkpt lat="48.89381" lon="2.32774">
        <ele>127.6</ele>
        <time>2015-06-15T18:43:19.839Z</time>
      </trkpt>
      <trkpt lat="48.89387" lon="2.32777">
        <ele>127.9</ele>
        <time>2015-06-15T18:43:21.777Z</time>
      </trkpt>
      <trkpt lat="48.8939" lon="2.32779">
        <ele>128</ele>
        <time>2015-06-15T18:43:22.773Z</time>
      </trkpt>
      <trkpt lat="48.89397" lon="2.32784">
        <ele>128.2</ele>
        <time>2015-06-15T18:43:24.748Z</time>
      </trkpt>
      <trkpt lat="48.89399" lon="2.32786">
        <ele>128.2</ele>
        <time>2015-06-15T18:43:25.775Z</time>
      </trkpt>
      <trkpt lat="48.89406" lon="2.32791">
        <ele>128.1</ele>
        <time>2015-06-15T18:43:27.737Z</time>
      </trkpt>
      <trkpt lat="48.89411" lon="2.32792">
        <ele>127.9</ele>
        <time>2015-06-15T18:43:28.802Z</time>
      </trkpt>
      <trkpt lat="48.89419" lon="2.32793">
        <ele>127.8</ele>
        <time>2015-06-15T18:43:31.783Z</time>
      </trkpt>
      <trkpt lat="48.89423" lon="2.32793">
        <ele>127.5</ele>
        <time>2015-06-15T18:43:32.826Z</time>
      </trkpt>
      <trkpt lat="48.89429" lon="2.32793">
        <ele>125.5</ele>
        <time>2015-06-15T18:43:33.730Z</time>
      </trkpt>
      <trkpt lat="48.89436" lon="2.32796">
        <ele>125.7</ele>
        <time>2015-06-15T18:43:34.800Z</time>
      </trkpt>
      <trkpt lat="48.89443" lon="2.32801">
        <ele>125.8</ele>
        <time>2015-06-15T18:43:35.871Z</time>
      </trkpt>
      <trkpt lat="48.8945" lon="2.32803">
        <ele>126</ele>
        <time>2015-06-15T18:43:36.886Z</time>
      </trkpt>
      <trkpt lat="48.89458" lon="2.32804">
        <ele>126.4</ele>
        <time>2015-06-15T18:43:37.326Z</time>
      </trkpt>
      <trkpt lat="48.89465" lon="2.32805">
        <ele>126.6</ele>
        <time>2015-06-15T18:43:38.822Z</time>
      </trkpt>
      <trkpt lat="48.89473" lon="2.32807">
        <ele>126.6</ele>
        <time>2015-06-15T18:43:39.836Z</time>
      </trkpt>
      <trkpt lat="48.89482" lon="2.32808">
        <ele>126.7</ele>
        <time>2015-06-15T18:43:40.766Z</time>
      </trkpt>
      <trkpt lat="48.8949" lon="2.32809">
        <ele>126.8</ele>
        <time>2015-06-15T18:43:42.357Z</time>
      </trkpt>
      <trkpt lat="48.89501" lon="2.32812">
        <ele>126.8</ele>
        <time>2015-06-15T18:43:42.765Z</time>
      </trkpt>
      <trkpt lat="48.89518" lon="2.32819">
        <ele>126</ele>
        <time>2015-06-15T18:43:43.798Z</time>
      </trkpt>
      <trkpt lat="48.89535" lon="2.32824">
        <ele>125</ele>
        <time>2015-06-15T18:43:44.784Z</time>
      </trkpt>
      <trkpt lat="48.89548" lon="2.32828">
        <ele>124.4</ele>
        <time>2015-06-15T18:43:45.850Z</time>
      </trkpt>
      <trkpt lat="48.89558" lon="2.32832">
        <ele>123.5</ele>
        <time>2015-06-15T18:43:46.776Z</time>
      </trkpt>
      <trkpt lat="48.89568" lon="2.32835">
        <ele>123.8</ele>
        <time>2015-06-15T18:43:47.772Z</time>
      </trkpt>
      <trkpt lat="48.89574" lon="2.32837">
        <ele>123.5</ele>
        <time>2015-06-15T18:43:48.814Z</time>
      </trkpt>
      <trkpt lat="48.89579" lon="2.32839">
        <ele>122.9</ele>
        <time>2015-06-15T18:43:49.833Z</time>
      </trkpt>
      <trkpt lat="48.89585" lon="2.32839">
        <ele>122.7</ele>
        <time>2015-06-15T18:43:50.885Z</time>
      </trkpt>
      <trkpt lat="48.8959" lon="2.32839">
        <ele>122.9</ele>
        <time>2015-06-15T18:43:51.804Z</time>
      </trkpt>
      <trkpt lat="48.89595" lon="2.3284">
        <ele>123.6</ele>
        <time>2015-06-15T18:43:52.804Z</time>
      </trkpt>
      <trkpt lat="48.896" lon="2.32841">
        <ele>124.2</ele>
        <time>2015-06-15T18:43:53.931Z</time>
      </trkpt>
      <trkpt lat="48.89608" lon="2.32844">
        <ele>125.1</ele>
        <time>2015-06-15T18:43:55.850Z</time>
      </trkpt>
      <trkpt lat="48.89611" lon="2.32845">
        <ele>126</ele>
        <time>2015-06-15T18:43:56.885Z</time>
      </trkpt>
      <trkpt lat="48.89617" lon="2.32849">
        <ele>126.1</ele>
        <time>2015-06-15T18:43:58.825Z</time>
      </trkpt>
      <trkpt lat="48.8962" lon="2.3285">
        <ele>126.1</ele>
        <time>2015-06-15T18:43:59.757Z</time>
      </trkpt>
      <trkpt lat="48.89627" lon="2.3285">
        <ele>126</ele>
        <time>2015-06-15T18:44:01.797Z</time>
      </trkpt>
      <trkpt lat="48.89632" lon="2.32851">
        <ele>126</ele>
        <time>2015-06-15T18:44:02.891Z</time>
      </trkpt>
      <trkpt lat="48.8964" lon="2.32853">
        <ele>125.7</ele>
        <time>2015-06-15T18:44:04.794Z</time>
      </trkpt>
      <trkpt lat="48.89644" lon="2.32854">
        <ele>125.9</ele>
        <time>2015-06-15T18:44:05.720Z</time>
      </trkpt>
      <trkpt lat="48.89649" lon="2.32856">
        <ele>126.2</ele>
        <time>2015-06-15T18:44:06.742Z</time>
      </trkpt>
      <trkpt lat="48.89654" lon="2.32858">
        <ele>126.4</ele>
        <time>2015-06-15T18:44:07.773Z</time>
      </trkpt>
      <trkpt lat="48.8966" lon="2.3286">
        <ele>126.5</ele>
        <time>2015-06-15T18:44:08.826Z</time>
      </trkpt>
      <trkpt lat="48.89666" lon="2.32863">
        <ele>126.5</ele>
        <time>2015-06-15T18:44:09.727Z</time>
      </trkpt>
      <trkpt lat="48.89671" lon="2.32864">
        <ele>126.2</ele>
        <time>2015-06-15T18:44:10.742Z</time>
      </trkpt>
      <trkpt lat="48.89676" lon="2.32865">
        <ele>126</ele>
        <time>2015-06-15T18:44:11.753Z</time>
      </trkpt>
      <trkpt lat="48.89684" lon="2.32869">
        <ele>125.1</ele>
        <time>2015-06-15T18:44:13.792Z</time>
      </trkpt>
      <trkpt lat="48.89688" lon="2.3287">
        <ele>124.8</ele>
        <time>2015-06-15T18:44:14.820Z</time>
      </trkpt>
      <trkpt lat="48.89693" lon="2.32872">
        <ele>125</ele>
        <time>2015-06-15T18:44:15.757Z</time>
      </trkpt>
      <trkpt lat="48.89697" lon="2.32874">
        <ele>125.2</ele>
        <time>2015-06-15T18:44:16.763Z</time>
      </trkpt>
      <trkpt lat="48.89702" lon="2.32877">
        <ele>124.4</ele>
        <time>2015-06-15T18:44:17.777Z</time>
      </trkpt>
      <trkpt lat="48.89707" lon="2.32877">
        <ele>123.4</ele>
        <time>2015-06-15T18:44:18.780Z</time>
      </trkpt>
      <trkpt lat="48.89712" lon="2.32878">
        <ele>122.9</ele>
        <time>2015-06-15T18:44:19.796Z</time>
      </trkpt>
      <trkpt lat="48.89722" lon="2.32881">
        <ele>121.6</ele>
        <time>2015-06-15T18:44:20.803Z</time>
      </trkpt>
      <trkpt lat="48.89731" lon="2.32885">
        <ele>120.8</ele>
        <time>2015-06-15T18:44:21.800Z</time>
      </trkpt>
      <trkpt lat="48.8974" lon="2.32889">
        <ele>118.9</ele>
        <time>2015-06-15T18:44:22.808Z</time>
      </trkpt>
      <trkpt lat="48.89746" lon="2.32893">
        <ele>117.5</ele>
        <time>2015-06-15T18:44:23.813Z</time>
      </trkpt>
      <trkpt lat="48.89751" lon="2.32897">
        <ele>116.7</ele>
        <time>2015-06-15T18:44:24.824Z</time>
      </trkpt>
      <trkpt lat="48.89755" lon="2.32904">
        <ele>115.6</ele>
        <time>2015-06-15T18:44:25.781Z</time>
      </trkpt>
      <trkpt lat="48.8976" lon="2.32908">
        <ele>114.9</ele>
        <time>2015-06-15T18:44:26.876Z</time>
      </trkpt>
      <trkpt lat="48.89764" lon="2.3291">
        <ele>114.9</ele>
        <time>2015-06-15T18:44:27.809Z</time>
      </trkpt>
      <trkpt lat="48.89769" lon="2.32911">
        <ele>115.2</ele>
        <time>2015-06-15T18:44:28.815Z</time>
      </trkpt>
      <trkpt lat="48.89777" lon="2.32913">
        <ele>115.6</ele>
        <time>2015-06-15T18:44:30.832Z</time>
      </trkpt>
      <trkpt lat="48.8978" lon="2.32914">
        <ele>115.4</ele>
        <time>2015-06-15T18:44:31.910Z</time>
      </trkpt>
      <trkpt lat="48.89788" lon="2.32916">
        <ele>115.4</ele>
        <time>2015-06-15T18:44:33.868Z</time>
      </trkpt>
      <trkpt lat="48.89792" lon="2.32917">
        <ele>115.1</ele>
        <time>2015-06-15T18:44:34.810Z</time>
      </trkpt>
      <trkpt lat="48.89796" lon="2.32918">
        <ele>115</ele>
        <time>2015-06-15T18:44:35.784Z</time>
      </trkpt>
      <trkpt lat="48.89801" lon="2.32919">
        <ele>115.2</ele>
        <time>2015-06-15T18:44:36.809Z</time>
      </trkpt>
      <trkpt lat="48.89806" lon="2.32921">
        <ele>115.5</ele>
        <time>2015-06-15T18:44:37.819Z</time>
      </trkpt>
      <trkpt lat="48.89811" lon="2.32921">
        <ele>115.7</ele>
        <time>2015-06-15T18:44:38.830Z</time>
      </trkpt>
      <trkpt lat="48.89816" lon="2.32923">
        <ele>116.1</ele>
        <time>2015-06-15T18:44:39.839Z</time>
      </trkpt>
      <trkpt lat="48.89821" lon="2.32924">
        <ele>116.5</ele>
        <time>2015-06-15T18:44:40.845Z</time>
      </trkpt>
      <trkpt lat="48.89827" lon="2.32926">
        <ele>116.9</ele>
        <time>2015-06-15T18:44:41.784Z</time>
      </trkpt>
      <trkpt lat="48.89832" lon="2.32926">
        <ele>117.1</ele>
        <time>2015-06-15T18:44:42.790Z</time>
      </trkpt>
      <trkpt lat="48.89837" lon="2.32927">
        <ele>117.4</ele>
        <time>2015-06-15T18:44:43.816Z</time>
      </trkpt>
      <trkpt lat="48.89842" lon="2.32929">
        <ele>117.8</ele>
        <time>2015-06-15T18:44:44.841Z</time>
      </trkpt>
      <trkpt lat="48.89848" lon="2.32931">
        <ele>118</ele>
        <time>2015-06-15T18:44:45.826Z</time>
      </trkpt>
      <trkpt lat="48.89852" lon="2.32933">
        <ele>117.9</ele>
        <time>2015-06-15T18:44:46.920Z</time>
      </trkpt>
      <trkpt lat="48.89857" lon="2.32937">
        <ele>118.1</ele>
        <time>2015-06-15T18:44:47.789Z</time>
      </trkpt>
      <trkpt lat="48.89861" lon="2.32941">
        <ele>117.9</ele>
        <time>2015-06-15T18:44:48.793Z</time>
      </trkpt>
      <trkpt lat="48.89867" lon="2.32946">
        <ele>117.7</ele>
        <time>2015-06-15T18:44:50.812Z</time>
      </trkpt>
      <trkpt lat="48.89872" lon="2.32948">
        <ele>117.3</ele>
        <time>2015-06-15T18:44:51.866Z</time>
      </trkpt>
      <trkpt lat="48.89877" lon="2.3295">
        <ele>116.6</ele>
        <time>2015-06-15T18:44:52.790Z</time>
      </trkpt>
      <trkpt lat="48.89882" lon="2.32953">
        <ele>116.5</ele>
        <time>2015-06-15T18:44:53.789Z</time>
      </trkpt>
      <trkpt lat="48.89888" lon="2.32957">
        <ele>116.6</ele>
        <time>2015-06-15T18:44:54.797Z</time>
      </trkpt>
      <trkpt lat="48.89894" lon="2.32961">
        <ele>116.7</ele>
        <time>2015-06-15T18:44:55.805Z</time>
      </trkpt>
      <trkpt lat="48.89899" lon="2.32965">
        <ele>117</ele>
        <time>2015-06-15T18:44:56.842Z</time>
      </trkpt>
      <trkpt lat="48.89904" lon="2.32969">
        <ele>116.9</ele>
        <time>2015-06-15T18:44:57.857Z</time>
      </trkpt>
      <trkpt lat="48.89909" lon="2.32972">
        <ele>117.1</ele>
        <time>2015-06-15T18:44:58.784Z</time>
      </trkpt>
      <trkpt lat="48.89914" lon="2.32974">
        <ele>117.6</ele>
        <time>2015-06-15T18:44:59.785Z</time>
      </trkpt>
      <trkpt lat="48.8992" lon="2.32976">
        <ele>117.8</ele>
        <time>2015-06-15T18:45:00.786Z</time>
      </trkpt>
      <trkpt lat="48.89926" lon="2.32978">
        <ele>117.5</ele>
        <time>2015-06-15T18:45:01.797Z</time>
      </trkpt>
      <trkpt lat="48.89933" lon="2.32979">
        <ele>116.9</ele>
        <time>2015-06-15T18:45:02.901Z</time>
      </trkpt>
      <trkpt lat="48.89939" lon="2.3298">
        <ele>116.2</ele>
        <time>2015-06-15T18:45:03.819Z</time>
      </trkpt>
      <trkpt lat="48.89945" lon="2.32981">
        <ele>115.4</ele>
        <time>2015-06-15T18:45:04.828Z</time>
      </trkpt>
      <trkpt lat="48.89951" lon="2.32983">
        <ele>115</ele>
        <time>2015-06-15T18:45:05.841Z</time>
      </trkpt>
      <trkpt lat="48.89957" lon="2.32985">
        <ele>114.5</ele>
        <time>2015-06-15T18:45:06.862Z</time>
      </trkpt>
      <trkpt lat="48.89963" lon="2.32987">
        <ele>114.3</ele>
        <time>2015-06-15T18:45:07.744Z</time>
      </trkpt>
      <trkpt lat="48.89969" lon="2.32989">
        <ele>114.1</ele>
        <time>2015-06-15T18:45:08.826Z</time>
      </trkpt>
      <trkpt lat="48.89974" lon="2.32992">
        <ele>113.5</ele>
        <time>2015-06-15T18:45:09.829Z</time>
      </trkpt>
      <trkpt lat="48.8998" lon="2.32994">
        <ele>112.9</ele>
        <time>2015-06-15T18:45:10.795Z</time>
      </trkpt>
      <trkpt lat="48.89987" lon="2.32995">
        <ele>112.6</ele>
        <time>2015-06-15T18:45:11.857Z</time>
      </trkpt>
      <trkpt lat="48.89993" lon="2.32998">
        <ele>112</ele>
        <time>2015-06-15T18:45:12.801Z</time>
      </trkpt>
      <trkpt lat="48.89999" lon="2.33">
        <ele>111.4</ele>
        <time>2015-06-15T18:45:13.796Z</time>
      </trkpt>
      <trkpt lat="48.90006" lon="2.33003">
        <ele>109.7</ele>
        <time>2015-06-15T18:45:14.802Z</time>
      </trkpt>
      <trkpt lat="48.90013" lon="2.33006">
        <ele>108</ele>
        <time>2015-06-15T18:45:15.825Z</time>
      </trkpt>
      <trkpt lat="48.90018" lon="2.33009">
        <ele>108</ele>
        <time>2015-06-15T18:45:16.841Z</time>
      </trkpt>
      <trkpt lat="48.90024" lon="2.3301">
        <ele>107.5</ele>
        <time>2015-06-15T18:45:17.860Z</time>
      </trkpt>
      <trkpt lat="48.90031" lon="2.33011">
        <ele>106.9</ele>
        <time>2015-06-15T18:45:18.780Z</time>
      </trkpt>
      <trkpt lat="48.90037" lon="2.33013">
        <ele>107.4</ele>
        <time>2015-06-15T18:45:19.770Z</time>
      </trkpt>
      <trkpt lat="48.90042" lon="2.33015">
        <ele>107.2</ele>
        <time>2015-06-15T18:45:20.822Z</time>
      </trkpt>
      <trkpt lat="48.90046" lon="2.33018">
        <ele>107.3</ele>
        <time>2015-06-15T18:45:21.816Z</time>
      </trkpt>
      <trkpt lat="48.90052" lon="2.33021">
        <ele>107.3</ele>
        <time>2015-06-15T18:45:22.842Z</time>
      </trkpt>
      <trkpt lat="48.90056" lon="2.33027">
        <ele>107.2</ele>
        <time>2015-06-15T18:45:23.855Z</time>
      </trkpt>
      <trkpt lat="48.90067" lon="2.33037">
        <ele>106.9</ele>
        <time>2015-06-15T18:45:25.782Z</time>
      </trkpt>
      <trkpt lat="48.90074" lon="2.33038">
        <ele>106.6</ele>
        <time>2015-06-15T18:45:26.835Z</time>
      </trkpt>
      <trkpt lat="48.9008" lon="2.33035">
        <ele>106.7</ele>
        <time>2015-06-15T18:45:27.843Z</time>
      </trkpt>
      <trkpt lat="48.90087" lon="2.33031">
        <ele>106.6</ele>
        <time>2015-06-15T18:45:28.860Z</time>
      </trkpt>
      <trkpt lat="48.90093" lon="2.33028">
        <ele>106.4</ele>
        <time>2015-06-15T18:45:29.759Z</time>
      </trkpt>
      <trkpt lat="48.90099" lon="2.33024">
        <ele>106.3</ele>
        <time>2015-06-15T18:45:30.797Z</time>
      </trkpt>
      <trkpt lat="48.90102" lon="2.33022">
        <ele>106.1</ele>
        <time>2015-06-15T18:45:31.835Z</time>
      </trkpt>
      <trkpt lat="48.90109" lon="2.33021">
        <ele>105.7</ele>
        <time>2015-06-15T18:45:34.777Z</time>
      </trkpt>
      <trkpt lat="48.90112" lon="2.33023">
        <ele>105.9</ele>
        <time>2015-06-15T18:45:35.777Z</time>
      </trkpt>
      <trkpt lat="48.90116" lon="2.33023">
        <ele>106.3</ele>
        <time>2015-06-15T18:45:36.821Z</time>
      </trkpt>
      <trkpt lat="48.90123" lon="2.33024">
        <ele>105.5</ele>
        <time>2015-06-15T18:45:37.828Z</time>
      </trkpt>
      <trkpt lat="48.9013" lon="2.33026">
        <ele>104.4</ele>
        <time>2015-06-15T18:45:38.851Z</time>
      </trkpt>
      <trkpt lat="48.90137" lon="2.33028">
        <ele>103</ele>
        <time>2015-06-15T18:45:39.772Z</time>
      </trkpt>
      <trkpt lat="48.90142" lon="2.3303">
        <ele>102.4</ele>
        <time>2015-06-15T18:45:40.803Z</time>
      </trkpt>
      <trkpt lat="48.90147" lon="2.33033">
        <ele>102.3</ele>
        <time>2015-06-15T18:45:41.791Z</time>
      </trkpt>
      <trkpt lat="48.90151" lon="2.33035">
        <ele>102.1</ele>
        <time>2015-06-15T18:45:42.809Z</time>
      </trkpt>
      <trkpt lat="48.90155" lon="2.33037">
        <ele>102.3</ele>
        <time>2015-06-15T18:45:43.818Z</time>
      </trkpt>
      <trkpt lat="48.9016" lon="2.33039">
        <ele>102.3</ele>
        <time>2015-06-15T18:45:44.837Z</time>
      </trkpt>
      <trkpt lat="48.90164" lon="2.33041">
        <ele>102.1</ele>
        <time>2015-06-15T18:45:45.855Z</time>
      </trkpt>
      <trkpt lat="48.90169" lon="2.33042">
        <ele>102.1</ele>
        <time>2015-06-15T18:45:46.877Z</time>
      </trkpt>
      <trkpt lat="48.90174" lon="2.33043">
        <ele>102</ele>
        <time>2015-06-15T18:45:47.829Z</time>
      </trkpt>
      <trkpt lat="48.90179" lon="2.33045">
        <ele>101.9</ele>
        <time>2015-06-15T18:45:48.778Z</time>
      </trkpt>
      <trkpt lat="48.90184" lon="2.33046">
        <ele>102.1</ele>
        <time>2015-06-15T18:45:49.778Z</time>
      </trkpt>
      <trkpt lat="48.90188" lon="2.33049">
        <ele>102.1</ele>
        <time>2015-06-15T18:45:50.832Z</time>
      </trkpt>
      <trkpt lat="48.90193" lon="2.3305">
        <ele>102.2</ele>
        <time>2015-06-15T18:45:51.833Z</time>
      </trkpt>
      <trkpt lat="48.90198" lon="2.33051">
        <ele>102.6</ele>
        <time>2015-06-15T18:45:52.783Z</time>
      </trkpt>
      <trkpt lat="48.90203" lon="2.33053">
        <ele>102.9</ele>
        <time>2015-06-15T18:45:53.783Z</time>
      </trkpt>
      <trkpt lat="48.90208" lon="2.33054">
        <ele>102.9</ele>
        <time>2015-06-15T18:45:54.816Z</time>
      </trkpt>
      <trkpt lat="48.90214" lon="2.33056">
        <ele>103.1</ele>
        <time>2015-06-15T18:45:55.857Z</time>
      </trkpt>
      <trkpt lat="48.90219" lon="2.33057">
        <ele>103.4</ele>
        <time>2015-06-15T18:45:56.871Z</time>
      </trkpt>
      <trkpt lat="48.90225" lon="2.33057">
        <ele>103.9</ele>
        <time>2015-06-15T18:45:57.812Z</time>
      </trkpt>
      <trkpt lat="48.9023" lon="2.33058">
        <ele>104.4</ele>
        <time>2015-06-15T18:45:58.802Z</time>
      </trkpt>
      <trkpt lat="48.90236" lon="2.3306">
        <ele>104.6</ele>
        <time>2015-06-15T18:45:59.931Z</time>
      </trkpt>
      <trkpt lat="48.90241" lon="2.33061">
        <ele>105</ele>
        <time>2015-06-15T18:46:00.835Z</time>
      </trkpt>
      <trkpt lat="48.90246" lon="2.33063">
        <ele>105.6</ele>
        <time>2015-06-15T18:46:01.838Z</time>
      </trkpt>
      <trkpt lat="48.90253" lon="2.33064">
        <ele>106.2</ele>
        <time>2015-06-15T18:46:02.903Z</time>
      </trkpt>
      <trkpt lat="48.9026" lon="2.33067">
        <ele>107.2</ele>
        <time>2015-06-15T18:46:03.799Z</time>
      </trkpt>
      <trkpt lat="48.90267" lon="2.3307">
        <ele>107.8</ele>
        <time>2015-06-15T18:46:04.772Z</time>
      </trkpt>
      <trkpt lat="48.90273" lon="2.33073">
        <ele>108.4</ele>
        <time>2015-06-15T18:46:05.821Z</time>
      </trkpt>
      <trkpt lat="48.90279" lon="2.33076">
        <ele>108.6</ele>
        <time>2015-06-15T18:46:06.784Z</time>
      </trkpt>
      <trkpt lat="48.90284" lon="2.33078">
        <ele>108.9</ele>
        <time>2015-06-15T18:46:07.770Z</time>
      </trkpt>
      <trkpt lat="48.9029" lon="2.3308">
        <ele>108.8</ele>
        <time>2015-06-15T18:46:08.836Z</time>
      </trkpt>
      <trkpt lat="48.90296" lon="2.33083">
        <ele>109.1</ele>
        <time>2015-06-15T18:46:09.844Z</time>
      </trkpt>
      <trkpt lat="48.90302" lon="2.33085">
        <ele>109.4</ele>
        <time>2015-06-15T18:46:10.772Z</time>
      </trkpt>
      <trkpt lat="48.90308" lon="2.33087">
        <ele>109.2</ele>
        <time>2015-06-15T18:46:11.808Z</time>
      </trkpt>
      <trkpt lat="48.90314" lon="2.33089">
        <ele>109.2</ele>
        <time>2015-06-15T18:46:12.837Z</time>
      </trkpt>
      <trkpt lat="48.90319" lon="2.33092">
        <ele>109.4</ele>
        <time>2015-06-15T18:46:13.929Z</time>
      </trkpt>
      <trkpt lat="48.90325" lon="2.33095">
        <ele>109.9</ele>
        <time>2015-06-15T18:46:14.944Z</time>
      </trkpt>
      <trkpt lat="48.90332" lon="2.33097">
        <ele>110.3</ele>
        <time>2015-06-15T18:46:15.825Z</time>
      </trkpt>
      <trkpt lat="48.90339" lon="2.33098">
        <ele>110.9</ele>
        <time>2015-06-15T18:46:16.834Z</time>
      </trkpt>
      <trkpt lat="48.90344" lon="2.33101">
        <ele>111.1</ele>
        <time>2015-06-15T18:46:17.850Z</time>
      </trkpt>
      <trkpt lat="48.9035" lon="2.33103">
        <ele>111.2</ele>
        <time>2015-06-15T18:46:18.883Z</time>
      </trkpt>
      <trkpt lat="48.90357" lon="2.33106">
        <ele>111.2</ele>
        <time>2015-06-15T18:46:19.790Z</time>
      </trkpt>
      <trkpt lat="48.90364" lon="2.33108">
        <ele>111.2</ele>
        <time>2015-06-15T18:46:20.829Z</time>
      </trkpt>
      <trkpt lat="48.9037" lon="2.3311">
        <ele>111.2</ele>
        <time>2015-06-15T18:46:21.831Z</time>
      </trkpt>
      <trkpt lat="48.90376" lon="2.33112">
        <ele>111.3</ele>
        <time>2015-06-15T18:46:22.859Z</time>
      </trkpt>
      <trkpt lat="48.90382" lon="2.33114">
        <ele>111.5</ele>
        <time>2015-06-15T18:46:23.785Z</time>
      </trkpt>
      <trkpt lat="48.90388" lon="2.33117">
        <ele>111.4</ele>
        <time>2015-06-15T18:46:24.788Z</time>
      </trkpt>
      <trkpt lat="48.90395" lon="2.3312">
        <ele>111.2</ele>
        <time>2015-06-15T18:46:25.795Z</time>
      </trkpt>
      <trkpt lat="48.90402" lon="2.33123">
        <ele>111.1</ele>
        <time>2015-06-15T18:46:26.838Z</time>
      </trkpt>
      <trkpt lat="48.90408" lon="2.33125">
        <ele>111.1</ele>
        <time>2015-06-15T18:46:27.828Z</time>
      </trkpt>
      <trkpt lat="48.90415" lon="2.33127">
        <ele>111.1</ele>
        <time>2015-06-15T18:46:28.833Z</time>
      </trkpt>
      <trkpt lat="48.90421" lon="2.33129">
        <ele>111.4</ele>
        <time>2015-06-15T18:46:29.859Z</time>
      </trkpt>
      <trkpt lat="48.90427" lon="2.33132">
        <ele>111.6</ele>
        <time>2015-06-15T18:46:30.778Z</time>
      </trkpt>
      <trkpt lat="48.90433" lon="2.33134">
        <ele>111</ele>
        <time>2015-06-15T18:46:31.786Z</time>
      </trkpt>
      <trkpt lat="48.90439" lon="2.33136">
        <ele>110.8</ele>
        <time>2015-06-15T18:46:32.896Z</time>
      </trkpt>
      <trkpt lat="48.90446" lon="2.33138">
        <ele>110.4</ele>
        <time>2015-06-15T18:46:33.791Z</time>
      </trkpt>
      <trkpt lat="48.90451" lon="2.3314">
        <ele>110.1</ele>
        <time>2015-06-15T18:46:34.811Z</time>
      </trkpt>
      <trkpt lat="48.90457" lon="2.33142">
        <ele>110.2</ele>
        <time>2015-06-15T18:46:35.812Z</time>
      </trkpt>
      <trkpt lat="48.90462" lon="2.33143">
        <ele>110.4</ele>
        <time>2015-06-15T18:46:36.824Z</time>
      </trkpt>
      <trkpt lat="48.90467" lon="2.33144">
        <ele>110.7</ele>
        <time>2015-06-15T18:46:37.835Z</time>
      </trkpt>
      <trkpt lat="48.90472" lon="2.33146">
        <ele>110.7</ele>
        <time>2015-06-15T18:46:38.892Z</time>
      </trkpt>
      <trkpt lat="48.90477" lon="2.33147">
        <ele>110.5</ele>
        <time>2015-06-15T18:46:39.814Z</time>
      </trkpt>
      <trkpt lat="48.90482" lon="2.33147">
        <ele>110.5</ele>
        <time>2015-06-15T18:46:40.814Z</time>
      </trkpt>
      <trkpt lat="48.90488" lon="2.33148">
        <ele>110.5</ele>
        <time>2015-06-15T18:46:41.835Z</time>
      </trkpt>
      <trkpt lat="48.90493" lon="2.33149">
        <ele>110.4</ele>
        <time>2015-06-15T18:46:42.786Z</time>
      </trkpt>
      <trkpt lat="48.90498" lon="2.33151">
        <ele>110.4</ele>
        <time>2015-06-15T18:46:43.806Z</time>
      </trkpt>
      <trkpt lat="48.90502" lon="2.33153">
        <ele>110.7</ele>
        <time>2015-06-15T18:46:44.840Z</time>
      </trkpt>
      <trkpt lat="48.90507" lon="2.33155">
        <ele>110.9</ele>
        <time>2015-06-15T18:46:45.850Z</time>
      </trkpt>
      <trkpt lat="48.90512" lon="2.33157">
        <ele>111.1</ele>
        <time>2015-06-15T18:46:46.778Z</time>
      </trkpt>
      <trkpt lat="48.90518" lon="2.33159">
        <ele>111.3</ele>
        <time>2015-06-15T18:46:47.899Z</time>
      </trkpt>
      <trkpt lat="48.90525" lon="2.33161">
        <ele>111.3</ele>
        <time>2015-06-15T18:46:48.777Z</time>
      </trkpt>
      <trkpt lat="48.90532" lon="2.33163">
        <ele>111.3</ele>
        <time>2015-06-15T18:46:49.790Z</time>
      </trkpt>
      <trkpt lat="48.90539" lon="2.33165">
        <ele>111.7</ele>
        <time>2015-06-15T18:46:50.824Z</time>
      </trkpt>
      <trkpt lat="48.90546" lon="2.33168">
        <ele>111.7</ele>
        <time>2015-06-15T18:46:51.818Z</time>
      </trkpt>
      <trkpt lat="48.90553" lon="2.3317">
        <ele>111.9</ele>
        <time>2015-06-15T18:46:52.822Z</time>
      </trkpt>
      <trkpt lat="48.9056" lon="2.33173">
        <ele>112.1</ele>
        <time>2015-06-15T18:46:53.831Z</time>
      </trkpt>
      <trkpt lat="48.90568" lon="2.33176">
        <ele>111.9</ele>
        <time>2015-06-15T18:46:54.743Z</time>
      </trkpt>
      <trkpt lat="48.90575" lon="2.33179">
        <ele>111.9</ele>
        <time>2015-06-15T18:46:55.783Z</time>
      </trkpt>
      <trkpt lat="48.90581" lon="2.33182">
        <ele>111.6</ele>
        <time>2015-06-15T18:46:56.817Z</time>
      </trkpt>
      <trkpt lat="48.90588" lon="2.33184">
        <ele>111.1</ele>
        <time>2015-06-15T18:46:57.806Z</time>
      </trkpt>
      <trkpt lat="48.90594" lon="2.33187">
        <ele>110.4</ele>
        <time>2015-06-15T18:46:58.827Z</time>
      </trkpt>
      <trkpt lat="48.906" lon="2.3319">
        <ele>109.9</ele>
        <time>2015-06-15T18:46:59.825Z</time>
      </trkpt>
      <trkpt lat="48.90606" lon="2.33191">
        <ele>109.1</ele>
        <time>2015-06-15T18:47:00.849Z</time>
      </trkpt>
      <trkpt lat="48.90612" lon="2.33193">
        <ele>108.4</ele>
        <time>2015-06-15T18:47:01.850Z</time>
      </trkpt>
      <trkpt lat="48.90618" lon="2.33195">
        <ele>108.1</ele>
        <time>2015-06-15T18:47:02.896Z</time>
      </trkpt>
      <trkpt lat="48.90624" lon="2.33198">
        <ele>108.3</ele>
        <time>2015-06-15T18:47:03.767Z</time>
      </trkpt>
      <trkpt lat="48.90629" lon="2.33199">
        <ele>108.3</ele>
        <time>2015-06-15T18:47:04.812Z</time>
      </trkpt>
      <trkpt lat="48.90634" lon="2.33201">
        <ele>108</ele>
        <time>2015-06-15T18:47:05.821Z</time>
      </trkpt>
      <trkpt lat="48.90641" lon="2.33201">
        <ele>106.5</ele>
        <time>2015-06-15T18:47:06.831Z</time>
      </trkpt>
      <trkpt lat="48.90646" lon="2.33203">
        <ele>106.9</ele>
        <time>2015-06-15T18:47:07.852Z</time>
      </trkpt>
      <trkpt lat="48.90653" lon="2.33206">
        <ele>107</ele>
        <time>2015-06-15T18:47:08.883Z</time>
      </trkpt>
      <trkpt lat="48.90659" lon="2.33209">
        <ele>107</ele>
        <time>2015-06-15T18:47:09.785Z</time>
      </trkpt>
      <trkpt lat="48.90664" lon="2.33211">
        <ele>106.9</ele>
        <time>2015-06-15T18:47:10.777Z</time>
      </trkpt>
      <trkpt lat="48.9067" lon="2.33212">
        <ele>106.8</ele>
        <time>2015-06-15T18:47:11.789Z</time>
      </trkpt>
      <trkpt lat="48.90677" lon="2.33212">
        <ele>106.7</ele>
        <time>2015-06-15T18:47:12.822Z</time>
      </trkpt>
      <trkpt lat="48.90684" lon="2.33212">
        <ele>106.4</ele>
        <time>2015-06-15T18:47:13.825Z</time>
      </trkpt>
      <trkpt lat="48.9069" lon="2.33213">
        <ele>106.1</ele>
        <time>2015-06-15T18:47:14.848Z</time>
      </trkpt>
      <trkpt lat="48.90696" lon="2.33215">
        <ele>105.9</ele>
        <time>2015-06-15T18:47:15.753Z</time>
      </trkpt>
      <trkpt lat="48.90702" lon="2.33216">
        <ele>106</ele>
        <time>2015-06-15T18:47:16.783Z</time>
      </trkpt>
      <trkpt lat="48.90708" lon="2.33218">
        <ele>106.3</ele>
        <time>2015-06-15T18:47:17.768Z</time>
      </trkpt>
      <trkpt lat="48.90716" lon="2.33221">
        <ele>106.5</ele>
        <time>2015-06-15T18:47:18.814Z</time>
      </trkpt>
      <trkpt lat="48.90722" lon="2.33224">
        <ele>106.5</ele>
        <time>2015-06-15T18:47:19.833Z</time>
      </trkpt>
      <trkpt lat="48.90731" lon="2.33226">
        <ele>107</ele>
        <time>2015-06-15T18:47:20.844Z</time>
      </trkpt>
      <trkpt lat="48.90739" lon="2.33228">
        <ele>107</ele>
        <time>2015-06-15T18:47:21.867Z</time>
      </trkpt>
      <trkpt lat="48.90746" lon="2.3323">
        <ele>106.8</ele>
        <time>2015-06-15T18:47:22.850Z</time>
      </trkpt>
      <trkpt lat="48.90753" lon="2.33233">
        <ele>106.7</ele>
        <time>2015-06-15T18:47:23.745Z</time>
      </trkpt>
      <trkpt lat="48.90761" lon="2.33236">
        <ele>106.5</ele>
        <time>2015-06-15T18:47:24.814Z</time>
      </trkpt>
      <trkpt lat="48.9077" lon="2.33239">
        <ele>106</ele>
        <time>2015-06-15T18:47:25.817Z</time>
      </trkpt>
      <trkpt lat="48.90776" lon="2.33241">
        <ele>105.4</ele>
        <time>2015-06-15T18:47:26.836Z</time>
      </trkpt>
      <trkpt lat="48.90788" lon="2.33242">
        <ele>103.7</ele>
        <time>2015-06-15T18:47:27.850Z</time>
      </trkpt>
      <trkpt lat="48.90794" lon="2.33244">
        <ele>103.9</ele>
        <time>2015-06-15T18:47:28.864Z</time>
      </trkpt>
      <trkpt lat="48.908" lon="2.33246">
        <ele>103.7</ele>
        <time>2015-06-15T18:47:29.779Z</time>
      </trkpt>
      <trkpt lat="48.90808" lon="2.3325">
        <ele>102.7</ele>
        <time>2015-06-15T18:47:31.786Z</time>
      </trkpt>
      <trkpt lat="48.90811" lon="2.33252">
        <ele>103</ele>
        <time>2015-06-15T18:47:32.883Z</time>
      </trkpt>
      <trkpt lat="48.90818" lon="2.33254">
        <ele>103.2</ele>
        <time>2015-06-15T18:47:34.851Z</time>
      </trkpt>
      <trkpt lat="48.90824" lon="2.33254">
        <ele>103.5</ele>
        <time>2015-06-15T18:47:35.762Z</time>
      </trkpt>
      <trkpt lat="48.9083" lon="2.33256">
        <ele>103.5</ele>
        <time>2015-06-15T18:47:36.764Z</time>
      </trkpt>
      <trkpt lat="48.90835" lon="2.33257">
        <ele>103.8</ele>
        <time>2015-06-15T18:47:37.789Z</time>
      </trkpt>
      <trkpt lat="48.90839" lon="2.33259">
        <ele>103.9</ele>
        <time>2015-06-15T18:47:38.824Z</time>
      </trkpt>
      <trkpt lat="48.90844" lon="2.33262">
        <ele>104.1</ele>
        <time>2015-06-15T18:47:39.751Z</time>
      </trkpt>
      <trkpt lat="48.9085" lon="2.33264">
        <ele>104.1</ele>
        <time>2015-06-15T18:47:40.763Z</time>
      </trkpt>
      <trkpt lat="48.90856" lon="2.33265">
        <ele>104.1</ele>
        <time>2015-06-15T18:47:41.770Z</time>
      </trkpt>
      <trkpt lat="48.9086" lon="2.33266">
        <ele>104.2</ele>
        <time>2015-06-15T18:47:42.781Z</time>
      </trkpt>
      <trkpt lat="48.90866" lon="2.33268">
        <ele>103.9</ele>
        <time>2015-06-15T18:47:43.796Z</time>
      </trkpt>
      <trkpt lat="48.90872" lon="2.33271">
        <ele>104</ele>
        <time>2015-06-15T18:47:44.819Z</time>
      </trkpt>
      <trkpt lat="48.90878" lon="2.33273">
        <ele>103.7</ele>
        <time>2015-06-15T18:47:45.824Z</time>
      </trkpt>
      <trkpt lat="48.90883" lon="2.33274">
        <ele>103.6</ele>
        <time>2015-06-15T18:47:46.830Z</time>
      </trkpt>
      <trkpt lat="48.90887" lon="2.33275">
        <ele>103.8</ele>
        <time>2015-06-15T18:47:47.841Z</time>
      </trkpt>
      <trkpt lat="48.90892" lon="2.33277">
        <ele>104.1</ele>
        <time>2015-06-15T18:47:48.857Z</time>
      </trkpt>
      <trkpt lat="48.90897" lon="2.3328">
        <ele>104.4</ele>
        <time>2015-06-15T18:47:49.773Z</time>
      </trkpt>
      <trkpt lat="48.90903" lon="2.33282">
        <ele>104.7</ele>
        <time>2015-06-15T18:47:50.884Z</time>
      </trkpt>
      <trkpt lat="48.90908" lon="2.33283">
        <ele>104.6</ele>
        <time>2015-06-15T18:47:51.782Z</time>
      </trkpt>
      <trkpt lat="48.90913" lon="2.33285">
        <ele>104.7</ele>
        <time>2015-06-15T18:47:52.785Z</time>
      </trkpt>
      <trkpt lat="48.90918" lon="2.33285">
        <ele>105</ele>
        <time>2015-06-15T18:47:53.795Z</time>
      </trkpt>
      <trkpt lat="48.90923" lon="2.33287">
        <ele>105.1</ele>
        <time>2015-06-15T18:47:54.812Z</time>
      </trkpt>
      <trkpt lat="48.90928" lon="2.33289">
        <ele>105.4</ele>
        <time>2015-06-15T18:47:55.820Z</time>
      </trkpt>
      <trkpt lat="48.90934" lon="2.3329">
        <ele>105.3</ele>
        <time>2015-06-15T18:47:56.896Z</time>
      </trkpt>
      <trkpt lat="48.9094" lon="2.33292">
        <ele>105.5</ele>
        <time>2015-06-15T18:47:57.826Z</time>
      </trkpt>
      <trkpt lat="48.90945" lon="2.33294">
        <ele>105.7</ele>
        <time>2015-06-15T18:47:58.792Z</time>
      </trkpt>
      <trkpt lat="48.90952" lon="2.33297">
        <ele>105.3</ele>
        <time>2015-06-15T18:47:59.791Z</time>
      </trkpt>
      <trkpt lat="48.90958" lon="2.33299">
        <ele>105.4</ele>
        <time>2015-06-15T18:48:00.818Z</time>
      </trkpt>
      <trkpt lat="48.90963" lon="2.33302">
        <ele>105.6</ele>
        <time>2015-06-15T18:48:01.838Z</time>
      </trkpt>
      <trkpt lat="48.90968" lon="2.33304">
        <ele>105.7</ele>
        <time>2015-06-15T18:48:02.880Z</time>
      </trkpt>
      <trkpt lat="48.90973" lon="2.33305">
        <ele>105.8</ele>
        <time>2015-06-15T18:48:03.776Z</time>
      </trkpt>
      <trkpt lat="48.90979" lon="2.33307">
        <ele>106</ele>
        <time>2015-06-15T18:48:04.797Z</time>
      </trkpt>
      <trkpt lat="48.90984" lon="2.33309">
        <ele>106.4</ele>
        <time>2015-06-15T18:48:05.794Z</time>
      </trkpt>
      <trkpt lat="48.9099" lon="2.3331">
        <ele>106.7</ele>
        <time>2015-06-15T18:48:06.807Z</time>
      </trkpt>
      <trkpt lat="48.90995" lon="2.33312">
        <ele>106.7</ele>
        <time>2015-06-15T18:48:07.823Z</time>
      </trkpt>
      <trkpt lat="48.91" lon="2.33314">
        <ele>106.4</ele>
        <time>2015-06-15T18:48:08.846Z</time>
      </trkpt>
      <trkpt lat="48.91006" lon="2.33316">
        <ele>106.4</ele>
        <time>2015-06-15T18:48:09.868Z</time>
      </trkpt>
      <trkpt lat="48.91012" lon="2.33319">
        <ele>106.2</ele>
        <time>2015-06-15T18:48:10.779Z</time>
      </trkpt>
      <trkpt lat="48.91019" lon="2.33322">
        <ele>106.2</ele>
        <time>2015-06-15T18:48:11.798Z</time>
      </trkpt>
      <trkpt lat="48.91024" lon="2.33325">
        <ele>106.4</ele>
        <time>2015-06-15T18:48:12.811Z</time>
      </trkpt>
      <trkpt lat="48.91029" lon="2.33326">
        <ele>106.7</ele>
        <time>2015-06-15T18:48:13.866Z</time>
      </trkpt>
      <trkpt lat="48.91034" lon="2.33327">
        <ele>106.7</ele>
        <time>2015-06-15T18:48:14.905Z</time>
      </trkpt>
      <trkpt lat="48.91039" lon="2.33329">
        <ele>106.7</ele>
        <time>2015-06-15T18:48:15.803Z</time>
      </trkpt>
      <trkpt lat="48.91045" lon="2.33332">
        <ele>106.4</ele>
        <time>2015-06-15T18:48:16.974Z</time>
      </trkpt>
      <trkpt lat="48.91051" lon="2.33333">
        <ele>106.1</ele>
        <time>2015-06-15T18:48:17.800Z</time>
      </trkpt>
      <trkpt lat="48.91056" lon="2.33336">
        <ele>106</ele>
        <time>2015-06-15T18:48:18.830Z</time>
      </trkpt>
      <trkpt lat="48.91061" lon="2.33338">
        <ele>105.8</ele>
        <time>2015-06-15T18:48:19.869Z</time>
      </trkpt>
      <trkpt lat="48.91067" lon="2.33342">
        <ele>105.3</ele>
        <time>2015-06-15T18:48:20.810Z</time>
      </trkpt>
      <trkpt lat="48.91071" lon="2.33344">
        <ele>105</ele>
        <time>2015-06-15T18:48:21.834Z</time>
      </trkpt>
      <trkpt lat="48.91077" lon="2.33347">
        <ele>104.8</ele>
        <time>2015-06-15T18:48:22.850Z</time>
      </trkpt>
      <trkpt lat="48.91082" lon="2.33349">
        <ele>104.6</ele>
        <time>2015-06-15T18:48:23.795Z</time>
      </trkpt>
      <trkpt lat="48.91086" lon="2.33351">
        <ele>104.3</ele>
        <time>2015-06-15T18:48:24.800Z</time>
      </trkpt>
      <trkpt lat="48.9109" lon="2.33353">
        <ele>104.3</ele>
        <time>2015-06-15T18:48:25.816Z</time>
      </trkpt>
      <trkpt lat="48.91094" lon="2.33354">
        <ele>104.2</ele>
        <time>2015-06-15T18:48:26.849Z</time>
      </trkpt>
      <trkpt lat="48.911" lon="2.33354">
        <ele>104.1</ele>
        <time>2015-06-15T18:48:27.864Z</time>
      </trkpt>
      <trkpt lat="48.91107" lon="2.33355">
        <ele>104.1</ele>
        <time>2015-06-15T18:48:29.805Z</time>
      </trkpt>
      <trkpt lat="48.9111" lon="2.33356">
        <ele>104.5</ele>
        <time>2015-06-15T18:48:30.811Z</time>
      </trkpt>
      <trkpt lat="48.91117" lon="2.33359">
        <ele>104.4</ele>
        <time>2015-06-15T18:48:32.906Z</time>
      </trkpt>
      <trkpt lat="48.9112" lon="2.3336">
        <ele>104.4</ele>
        <time>2015-06-15T18:48:33.781Z</time>
      </trkpt>
      <trkpt lat="48.91128" lon="2.33361">
        <ele>104.9</ele>
        <time>2015-06-15T18:48:36.209Z</time>
      </trkpt>
      <trkpt lat="48.91133" lon="2.33362">
        <ele>105.2</ele>
        <time>2015-06-15T18:48:36.810Z</time>
      </trkpt>
      <trkpt lat="48.91139" lon="2.33365">
        <ele>105.4</ele>
        <time>2015-06-15T18:48:38.874Z</time>
      </trkpt>
      <trkpt lat="48.91142" lon="2.33365">
        <ele>105.5</ele>
        <time>2015-06-15T18:48:39.741Z</time>
      </trkpt>
      <trkpt lat="48.91148" lon="2.33368">
        <ele>105.7</ele>
        <time>2015-06-15T18:48:41.808Z</time>
      </trkpt>
      <trkpt lat="48.91151" lon="2.33371">
        <ele>105.7</ele>
        <time>2015-06-15T18:48:42.743Z</time>
      </trkpt>
      <trkpt lat="48.91153" lon="2.33374">
        <ele>105.2</ele>
        <time>2015-06-15T18:49:53.798Z</time>
      </trkpt>
      <trkpt lat="48.91165" lon="2.3339">
        <ele>101.6</ele>
        <time>2015-06-15T18:49:54.803Z</time>
      </trkpt>
      <trkpt lat="48.91173" lon="2.33391">
        <ele>99.1</ele>
        <time>2015-06-15T18:50:16.797Z</time>
      </trkpt>
      <trkpt lat="48.91174" lon="2.33392">
        <ele>99.2</ele>
        <time>2015-06-15T18:50:17.820Z</time>
      </trkpt>
      <trkpt lat="48.91182" lon="2.33394">
        <ele>97.9</ele>
        <time>2015-06-15T18:50:21.822Z</time>
      </trkpt>
      <trkpt lat="48.91184" lon="2.33396">
        <ele>97.6</ele>
        <time>2015-06-15T18:50:22.807Z</time>
      </trkpt>
      <trkpt lat="48.91191" lon="2.334">
        <ele>96.2</ele>
        <time>2015-06-15T18:50:24.794Z</time>
      </trkpt>
      <trkpt lat="48.91195" lon="2.33403">
        <ele>95.4</ele>
        <time>2015-06-15T18:50:25.786Z</time>
      </trkpt>
      <trkpt lat="48.91203" lon="2.33407">
        <ele>94.7</ele>
        <time>2015-06-15T18:50:27.762Z</time>
      </trkpt>
      <trkpt lat="48.91208" lon="2.3341">
        <ele>94.5</ele>
        <time>2015-06-15T18:50:28.825Z</time>
      </trkpt>
      <trkpt lat="48.91215" lon="2.33415">
        <ele>95</ele>
        <time>2015-06-15T18:50:30.838Z</time>
      </trkpt>
      <trkpt lat="48.91219" lon="2.33418">
        <ele>94.8</ele>
        <time>2015-06-15T18:50:31.908Z</time>
      </trkpt>
      <trkpt lat="48.91226" lon="2.33424">
        <ele>94.5</ele>
        <time>2015-06-15T18:50:33.795Z</time>
      </trkpt>
      <trkpt lat="48.91229" lon="2.33426">
        <ele>94.3</ele>
        <time>2015-06-15T18:50:34.862Z</time>
      </trkpt>
      <trkpt lat="48.91236" lon="2.33431">
        <ele>93.6</ele>
        <time>2015-06-15T18:50:36.811Z</time>
      </trkpt>
      <trkpt lat="48.91239" lon="2.33435">
        <ele>93.3</ele>
        <time>2015-06-15T18:50:37.760Z</time>
      </trkpt>
      <trkpt lat="48.91244" lon="2.33443">
        <ele>92.9</ele>
        <time>2015-06-15T18:50:39.939Z</time>
      </trkpt>
      <trkpt lat="48.91247" lon="2.33446">
        <ele>92.7</ele>
        <time>2015-06-15T18:50:40.797Z</time>
      </trkpt>
      <trkpt lat="48.91254" lon="2.33452">
        <ele>93.3</ele>
        <time>2015-06-15T18:50:42.883Z</time>
      </trkpt>
      <trkpt lat="48.91257" lon="2.33455">
        <ele>93.6</ele>
        <time>2015-06-15T18:50:43.815Z</time>
      </trkpt>
      <trkpt lat="48.91265" lon="2.3346">
        <ele>93.9</ele>
        <time>2015-06-15T18:50:49.290Z</time>
      </trkpt>
      <trkpt lat="48.91266" lon="2.3346">
        <ele>93.5</ele>
        <time>2015-06-15T18:50:49.863Z</time>
      </trkpt>
      <trkpt lat="48.91273" lon="2.33459">
        <ele>93.6</ele>
        <time>2015-06-15T18:50:55.831Z</time>
      </trkpt>
      <trkpt lat="48.91275" lon="2.3346">
        <ele>93.3</ele>
        <time>2015-06-15T18:50:56.872Z</time>
      </trkpt>
      <trkpt lat="48.91282" lon="2.33459">
        <ele>93.3</ele>
        <time>2015-06-15T18:51:00.832Z</time>
      </trkpt>
      <trkpt lat="48.91284" lon="2.33456">
        <ele>92.8</ele>
        <time>2015-06-15T18:51:01.771Z</time>
      </trkpt>
      <trkpt lat="48.9129" lon="2.33447">
        <ele>92.4</ele>
        <time>2015-06-15T18:51:04.796Z</time>
      </trkpt>
      <trkpt lat="48.91291" lon="2.33443">
        <ele>92.3</ele>
        <time>2015-06-15T18:51:05.823Z</time>
      </trkpt>
      <trkpt lat="48.91295" lon="2.33436">
        <ele>92.6</ele>
        <time>2015-06-15T18:51:07.937Z</time>
      </trkpt>
      <trkpt lat="48.91297" lon="2.33432">
        <ele>93</ele>
        <time>2015-06-15T18:51:08.866Z</time>
      </trkpt>
      <trkpt lat="48.91299" lon="2.33423">
        <ele>94.1</ele>
        <time>2015-06-15T18:51:10.844Z</time>
      </trkpt>
      <trkpt lat="48.91301" lon="2.33418">
        <ele>94.1</ele>
        <time>2015-06-15T18:51:11.823Z</time>
      </trkpt>
      <trkpt lat="48.91307" lon="2.33411">
        <ele>93.9</ele>
        <time>2015-06-15T18:51:13.904Z</time>
      </trkpt>
      <trkpt lat="48.91311" lon="2.33408">
        <ele>93.7</ele>
        <time>2015-06-15T18:51:14.918Z</time>
      </trkpt>
      <trkpt lat="48.91319" lon="2.33402">
        <ele>93.3</ele>
        <time>2015-06-15T18:51:16.906Z</time>
      </trkpt>
      <trkpt lat="48.91322" lon="2.33398">
        <ele>93.3</ele>
        <time>2015-06-15T18:51:17.900Z</time>
      </trkpt>
      <trkpt lat="48.91329" lon="2.33392">
        <ele>93.5</ele>
        <time>2015-06-15T18:51:19.804Z</time>
      </trkpt>
      <trkpt lat="48.91332" lon="2.33389">
        <ele>93.8</ele>
        <time>2015-06-15T18:51:20.930Z</time>
      </trkpt>
      <trkpt lat="48.91338" lon="2.33382">
        <ele>94.3</ele>
        <time>2015-06-15T18:51:22.992Z</time>
      </trkpt>
      <trkpt lat="48.91341" lon="2.33378">
        <ele>94.6</ele>
        <time>2015-06-15T18:51:23.755Z</time>
      </trkpt>
      <trkpt lat="48.91347" lon="2.33371">
        <ele>94.9</ele>
        <time>2015-06-15T18:51:25.882Z</time>
      </trkpt>
      <trkpt lat="48.91349" lon="2.33367">
        <ele>95.1</ele>
        <time>2015-06-15T18:51:26.868Z</time>
      </trkpt>
      <trkpt lat="48.91355" lon="2.33358">
        <ele>96.2</ele>
        <time>2015-06-15T18:51:28.803Z</time>
      </trkpt>
      <trkpt lat="48.91359" lon="2.33351">
        <ele>96</ele>
        <time>2015-06-15T18:51:29.796Z</time>
      </trkpt>
      <trkpt lat="48.91363" lon="2.33346">
        <ele>95.9</ele>
        <time>2015-06-15T18:51:30.820Z</time>
      </trkpt>
      <trkpt lat="48.91366" lon="2.33339">
        <ele>95.7</ele>
        <time>2015-06-15T18:51:31.837Z</time>
      </trkpt>
      <trkpt lat="48.9137" lon="2.33334">
        <ele>95.5</ele>
        <time>2015-06-15T18:51:33.060Z</time>
      </trkpt>
      <trkpt lat="48.91373" lon="2.33328">
        <ele>95.6</ele>
        <time>2015-06-15T18:51:33.792Z</time>
      </trkpt>
      <trkpt lat="48.91376" lon="2.33322">
        <ele>95.7</ele>
        <time>2015-06-15T18:51:34.815Z</time>
      </trkpt>
      <trkpt lat="48.91379" lon="2.33315">
        <ele>95.7</ele>
        <time>2015-06-15T18:51:35.817Z</time>
      </trkpt>
      <trkpt lat="48.91385" lon="2.33308">
        <ele>96</ele>
        <time>2015-06-15T18:51:38.087Z</time>
      </trkpt>
      <trkpt lat="48.91388" lon="2.33304">
        <ele>96.2</ele>
        <time>2015-06-15T18:51:38.862Z</time>
      </trkpt>
      <trkpt lat="48.91391" lon="2.33298">
        <ele>96.4</ele>
        <time>2015-06-15T18:51:39.790Z</time>
      </trkpt>
      <trkpt lat="48.91394" lon="2.33294">
        <ele>96.3</ele>
        <time>2015-06-15T18:51:40.877Z</time>
      </trkpt>
      <trkpt lat="48.91398" lon="2.33289">
        <ele>95.8</ele>
        <time>2015-06-15T18:51:41.789Z</time>
      </trkpt>
      <trkpt lat="48.91401" lon="2.33284">
        <ele>95.7</ele>
        <time>2015-06-15T18:51:42.840Z</time>
      </trkpt>
      <trkpt lat="48.91405" lon="2.33279">
        <ele>95.5</ele>
        <time>2015-06-15T18:51:43.801Z</time>
      </trkpt>
      <trkpt lat="48.91408" lon="2.33275">
        <ele>95.1</ele>
        <time>2015-06-15T18:51:44.874Z</time>
      </trkpt>
      <trkpt lat="48.91415" lon="2.33266">
        <ele>94.9</ele>
        <time>2015-06-15T18:51:46.813Z</time>
      </trkpt>
      <trkpt lat="48.91418" lon="2.33261">
        <ele>95.1</ele>
        <time>2015-06-15T18:51:47.759Z</time>
      </trkpt>
      <trkpt lat="48.91421" lon="2.33256">
        <ele>95.2</ele>
        <time>2015-06-15T18:51:48.796Z</time>
      </trkpt>
      <trkpt lat="48.91425" lon="2.33251">
        <ele>94.9</ele>
        <time>2015-06-15T18:51:49.826Z</time>
      </trkpt>
      <trkpt lat="48.91433" lon="2.33244">
        <ele>93.4</ele>
        <time>2015-06-15T18:51:51.798Z</time>
      </trkpt>
      <trkpt lat="48.91436" lon="2.3324">
        <ele>92.8</ele>
        <time>2015-06-15T18:51:52.791Z</time>
      </trkpt>
      <trkpt lat="48.91442" lon="2.33231">
        <ele>92.4</ele>
        <time>2015-06-15T18:51:54.823Z</time>
      </trkpt>
      <trkpt lat="48.91445" lon="2.33227">
        <ele>92.2</ele>
        <time>2015-06-15T18:51:55.826Z</time>
      </trkpt>
      <trkpt lat="48.91451" lon="2.33219">
        <ele>91.7</ele>
        <time>2015-06-15T18:51:57.857Z</time>
      </trkpt>
      <trkpt lat="48.91455" lon="2.33215">
        <ele>91.9</ele>
        <time>2015-06-15T18:51:58.879Z</time>
      </trkpt>
      <trkpt lat="48.91459" lon="2.33212">
        <ele>92.1</ele>
        <time>2015-06-15T18:51:59.793Z</time>
      </trkpt>
      <trkpt lat="48.91462" lon="2.33208">
        <ele>92.2</ele>
        <time>2015-06-15T18:52:00.812Z</time>
      </trkpt>
      <trkpt lat="48.91469" lon="2.33202">
        <ele>91.6</ele>
        <time>2015-06-15T18:52:02.863Z</time>
      </trkpt>
      <trkpt lat="48.91473" lon="2.33199">
        <ele>91.7</ele>
        <time>2015-06-15T18:52:03.810Z</time>
      </trkpt>
      <trkpt lat="48.91477" lon="2.33195">
        <ele>91.6</ele>
        <time>2015-06-15T18:52:04.796Z</time>
      </trkpt>
      <trkpt lat="48.91481" lon="2.33192">
        <ele>91.8</ele>
        <time>2015-06-15T18:52:05.799Z</time>
      </trkpt>
      <trkpt lat="48.91485" lon="2.33189">
        <ele>91.7</ele>
        <time>2015-06-15T18:52:06.808Z</time>
      </trkpt>
      <trkpt lat="48.91489" lon="2.33186">
        <ele>91.7</ele>
        <time>2015-06-15T18:52:07.817Z</time>
      </trkpt>
      <trkpt lat="48.91494" lon="2.33181">
        <ele>91</ele>
        <time>2015-06-15T18:52:08.851Z</time>
      </trkpt>
      <trkpt lat="48.91499" lon="2.33176">
        <ele>90.7</ele>
        <time>2015-06-15T18:52:09.855Z</time>
      </trkpt>
      <trkpt lat="48.91504" lon="2.33172">
        <ele>90.8</ele>
        <time>2015-06-15T18:52:10.802Z</time>
      </trkpt>
      <trkpt lat="48.91509" lon="2.33167">
        <ele>90.7</ele>
        <time>2015-06-15T18:52:11.826Z</time>
      </trkpt>
      <trkpt lat="48.91513" lon="2.33162">
        <ele>90.6</ele>
        <time>2015-06-15T18:52:12.822Z</time>
      </trkpt>
      <trkpt lat="48.91518" lon="2.33157">
        <ele>90.8</ele>
        <time>2015-06-15T18:52:13.856Z</time>
      </trkpt>
      <trkpt lat="48.91523" lon="2.33153">
        <ele>90.8</ele>
        <time>2015-06-15T18:52:14.869Z</time>
      </trkpt>
      <trkpt lat="48.91527" lon="2.33148">
        <ele>90.5</ele>
        <time>2015-06-15T18:52:15.877Z</time>
      </trkpt>
      <trkpt lat="48.91532" lon="2.33144">
        <ele>90.3</ele>
        <time>2015-06-15T18:52:16.811Z</time>
      </trkpt>
      <trkpt lat="48.91535" lon="2.33139">
        <ele>90.5</ele>
        <time>2015-06-15T18:52:17.814Z</time>
      </trkpt>
      <trkpt lat="48.91542" lon="2.3313">
        <ele>90.6</ele>
        <time>2015-06-15T18:52:19.792Z</time>
      </trkpt>
      <trkpt lat="48.91545" lon="2.33125">
        <ele>90.4</ele>
        <time>2015-06-15T18:52:20.829Z</time>
      </trkpt>
      <trkpt lat="48.91552" lon="2.33117">
        <ele>90.8</ele>
        <time>2015-06-15T18:52:22.915Z</time>
      </trkpt>
      <trkpt lat="48.91555" lon="2.33113">
        <ele>90.9</ele>
        <time>2015-06-15T18:52:23.786Z</time>
      </trkpt>
      <trkpt lat="48.9156" lon="2.33109">
        <ele>91</ele>
        <time>2015-06-15T18:52:24.803Z</time>
      </trkpt>
      <trkpt lat="48.91564" lon="2.33105">
        <ele>90.9</ele>
        <time>2015-06-15T18:52:25.824Z</time>
      </trkpt>
      <trkpt lat="48.91569" lon="2.33102">
        <ele>90.8</ele>
        <time>2015-06-15T18:52:26.901Z</time>
      </trkpt>
      <trkpt lat="48.91574" lon="2.33097">
        <ele>90.7</ele>
        <time>2015-06-15T18:52:27.792Z</time>
      </trkpt>
      <trkpt lat="48.91579" lon="2.33093">
        <ele>90.4</ele>
        <time>2015-06-15T18:52:28.826Z</time>
      </trkpt>
      <trkpt lat="48.91583" lon="2.33089">
        <ele>89.9</ele>
        <time>2015-06-15T18:52:29.897Z</time>
      </trkpt>
      <trkpt lat="48.91588" lon="2.33087">
        <ele>89.8</ele>
        <time>2015-06-15T18:52:30.794Z</time>
      </trkpt>
      <trkpt lat="48.91593" lon="2.33083">
        <ele>89.7</ele>
        <time>2015-06-15T18:52:31.799Z</time>
      </trkpt>
      <trkpt lat="48.91598" lon="2.3308">
        <ele>89.3</ele>
        <time>2015-06-15T18:52:32.862Z</time>
      </trkpt>
      <trkpt lat="48.91603" lon="2.33075">
        <ele>89</ele>
        <time>2015-06-15T18:52:33.858Z</time>
      </trkpt>
      <trkpt lat="48.91607" lon="2.33071">
        <ele>89</ele>
        <time>2015-06-15T18:52:34.804Z</time>
      </trkpt>
      <trkpt lat="48.91612" lon="2.33066">
        <ele>88.8</ele>
        <time>2015-06-15T18:52:35.809Z</time>
      </trkpt>
      <trkpt lat="48.91617" lon="2.33061">
        <ele>88.6</ele>
        <time>2015-06-15T18:52:36.856Z</time>
      </trkpt>
      <trkpt lat="48.91621" lon="2.33056">
        <ele>88.6</ele>
        <time>2015-06-15T18:52:37.810Z</time>
      </trkpt>
      <trkpt lat="48.91626" lon="2.33051">
        <ele>88.9</ele>
        <time>2015-06-15T18:52:38.823Z</time>
      </trkpt>
      <trkpt lat="48.91631" lon="2.33046">
        <ele>88.8</ele>
        <time>2015-06-15T18:52:39.823Z</time>
      </trkpt>
      <trkpt lat="48.91635" lon="2.33044">
        <ele>88.7</ele>
        <time>2015-06-15T18:52:40.857Z</time>
      </trkpt>
      <trkpt lat="48.9164" lon="2.3304">
        <ele>88.7</ele>
        <time>2015-06-15T18:52:41.779Z</time>
      </trkpt>
      <trkpt lat="48.91645" lon="2.33036">
        <ele>89</ele>
        <time>2015-06-15T18:52:42.815Z</time>
      </trkpt>
      <trkpt lat="48.9165" lon="2.33034">
        <ele>89.3</ele>
        <time>2015-06-15T18:52:43.826Z</time>
      </trkpt>
      <trkpt lat="48.91655" lon="2.33031">
        <ele>89.2</ele>
        <time>2015-06-15T18:52:44.864Z</time>
      </trkpt>
      <trkpt lat="48.9166" lon="2.33028">
        <ele>89</ele>
        <time>2015-06-15T18:52:45.770Z</time>
      </trkpt>
      <trkpt lat="48.91664" lon="2.33024">
        <ele>88.8</ele>
        <time>2015-06-15T18:52:46.798Z</time>
      </trkpt>
      <trkpt lat="48.91669" lon="2.33021">
        <ele>88.5</ele>
        <time>2015-06-15T18:52:47.811Z</time>
      </trkpt>
      <trkpt lat="48.91674" lon="2.33018">
        <ele>88.4</ele>
        <time>2015-06-15T18:52:48.855Z</time>
      </trkpt>
      <trkpt lat="48.91679" lon="2.33015">
        <ele>88.2</ele>
        <time>2015-06-15T18:52:49.794Z</time>
      </trkpt>
      <trkpt lat="48.91684" lon="2.33011">
        <ele>88.3</ele>
        <time>2015-06-15T18:52:50.800Z</time>
      </trkpt>
      <trkpt lat="48.9169" lon="2.33009">
        <ele>88.5</ele>
        <time>2015-06-15T18:52:51.804Z</time>
      </trkpt>
      <trkpt lat="48.91695" lon="2.33005">
        <ele>88.4</ele>
        <time>2015-06-15T18:52:52.812Z</time>
      </trkpt>
      <trkpt lat="48.917" lon="2.33002">
        <ele>88.3</ele>
        <time>2015-06-15T18:52:53.825Z</time>
      </trkpt>
      <trkpt lat="48.91705" lon="2.33">
        <ele>88.1</ele>
        <time>2015-06-15T18:52:54.850Z</time>
      </trkpt>
      <trkpt lat="48.91711" lon="2.32997">
        <ele>88</ele>
        <time>2015-06-15T18:52:55.798Z</time>
      </trkpt>
      <trkpt lat="48.91717" lon="2.32995">
        <ele>87.8</ele>
        <time>2015-06-15T18:52:56.834Z</time>
      </trkpt>
      <trkpt lat="48.91722" lon="2.32992">
        <ele>87.6</ele>
        <time>2015-06-15T18:52:57.815Z</time>
      </trkpt>
      <trkpt lat="48.91728" lon="2.3299">
        <ele>87.1</ele>
        <time>2015-06-15T18:52:58.870Z</time>
      </trkpt>
      <trkpt lat="48.91733" lon="2.32988">
        <ele>87.3</ele>
        <time>2015-06-15T18:52:59.767Z</time>
      </trkpt>
      <trkpt lat="48.91739" lon="2.32985">
        <ele>87.3</ele>
        <time>2015-06-15T18:53:00.798Z</time>
      </trkpt>
      <trkpt lat="48.91745" lon="2.32983">
        <ele>87.1</ele>
        <time>2015-06-15T18:53:01.809Z</time>
      </trkpt>
      <trkpt lat="48.9175" lon="2.3298">
        <ele>86.9</ele>
        <time>2015-06-15T18:53:02.820Z</time>
      </trkpt>
      <trkpt lat="48.91756" lon="2.32978">
        <ele>87</ele>
        <time>2015-06-15T18:53:03.826Z</time>
      </trkpt>
      <trkpt lat="48.91761" lon="2.32976">
        <ele>87.1</ele>
        <time>2015-06-15T18:53:04.784Z</time>
      </trkpt>
      <trkpt lat="48.91766" lon="2.32974">
        <ele>87</ele>
        <time>2015-06-15T18:53:05.777Z</time>
      </trkpt>
      <trkpt lat="48.91771" lon="2.32972">
        <ele>86.8</ele>
        <time>2015-06-15T18:53:06.808Z</time>
      </trkpt>
      <trkpt lat="48.91775" lon="2.32971">
        <ele>86.5</ele>
        <time>2015-06-15T18:53:07.832Z</time>
      </trkpt>
      <trkpt lat="48.9178" lon="2.32969">
        <ele>86.3</ele>
        <time>2015-06-15T18:53:08.839Z</time>
      </trkpt>
      <trkpt lat="48.91784" lon="2.32968">
        <ele>86.2</ele>
        <time>2015-06-15T18:53:09.767Z</time>
      </trkpt>
      <trkpt lat="48.91789" lon="2.32967">
        <ele>86.1</ele>
        <time>2015-06-15T18:53:10.777Z</time>
      </trkpt>
      <trkpt lat="48.91793" lon="2.32966">
        <ele>86.3</ele>
        <time>2015-06-15T18:53:11.787Z</time>
      </trkpt>
      <trkpt lat="48.91798" lon="2.32965">
        <ele>86.4</ele>
        <time>2015-06-15T18:53:12.795Z</time>
      </trkpt>
      <trkpt lat="48.91803" lon="2.32965">
        <ele>86.6</ele>
        <time>2015-06-15T18:53:13.817Z</time>
      </trkpt>
      <trkpt lat="48.91812" lon="2.32962">
        <ele>86.8</ele>
        <time>2015-06-15T18:53:15.843Z</time>
      </trkpt>
      <trkpt lat="48.91815" lon="2.32959">
        <ele>86.8</ele>
        <time>2015-06-15T18:53:16.902Z</time>
      </trkpt>
      <trkpt lat="48.91821" lon="2.32952">
        <ele>86.3</ele>
        <time>2015-06-15T18:53:18.834Z</time>
      </trkpt>
      <trkpt lat="48.91824" lon="2.32948">
        <ele>86.3</ele>
        <time>2015-06-15T18:53:19.858Z</time>
      </trkpt>
      <trkpt lat="48.9183" lon="2.3294">
        <ele>86.5</ele>
        <time>2015-06-15T18:53:21.829Z</time>
      </trkpt>
      <trkpt lat="48.91832" lon="2.32936">
        <ele>86.5</ele>
        <time>2015-06-15T18:53:22.897Z</time>
      </trkpt>
      <trkpt lat="48.91838" lon="2.32928">
        <ele>86.3</ele>
        <time>2015-06-15T18:53:24.845Z</time>
      </trkpt>
      <trkpt lat="48.9184" lon="2.32923">
        <ele>86.1</ele>
        <time>2015-06-15T18:53:25.901Z</time>
      </trkpt>
      <trkpt lat="48.91846" lon="2.32915">
        <ele>85.8</ele>
        <time>2015-06-15T18:53:27.792Z</time>
      </trkpt>
      <trkpt lat="48.91849" lon="2.3291">
        <ele>86</ele>
        <time>2015-06-15T18:53:28.814Z</time>
      </trkpt>
      <trkpt lat="48.91855" lon="2.32901">
        <ele>86.4</ele>
        <time>2015-06-15T18:53:30.797Z</time>
      </trkpt>
      <trkpt lat="48.91858" lon="2.32896">
        <ele>86.5</ele>
        <time>2015-06-15T18:53:31.840Z</time>
      </trkpt>
      <trkpt lat="48.91864" lon="2.32888">
        <ele>87</ele>
        <time>2015-06-15T18:53:33.785Z</time>
      </trkpt>
      <trkpt lat="48.91867" lon="2.32884">
        <ele>87.1</ele>
        <time>2015-06-15T18:53:34.834Z</time>
      </trkpt>
      <trkpt lat="48.91872" lon="2.32876">
        <ele>87.2</ele>
        <time>2015-06-15T18:53:36.804Z</time>
      </trkpt>
      <trkpt lat="48.91875" lon="2.32871">
        <ele>87.2</ele>
        <time>2015-06-15T18:53:37.810Z</time>
      </trkpt>
      <trkpt lat="48.91881" lon="2.32861">
        <ele>86.9</ele>
        <time>2015-06-15T18:53:39.919Z</time>
      </trkpt>
      <trkpt lat="48.91884" lon="2.32857">
        <ele>86.8</ele>
        <time>2015-06-15T18:53:40.780Z</time>
      </trkpt>
      <trkpt lat="48.9189" lon="2.32847">
        <ele>87</ele>
        <time>2015-06-15T18:53:42.757Z</time>
      </trkpt>
      <trkpt lat="48.91893" lon="2.32842">
        <ele>87.1</ele>
        <time>2015-06-15T18:53:43.820Z</time>
      </trkpt>
      <trkpt lat="48.91896" lon="2.32837">
        <ele>87.4</ele>
        <time>2015-06-15T18:53:45.028Z</time>
      </trkpt>
      <trkpt lat="48.91899" lon="2.32832">
        <ele>87.5</ele>
        <time>2015-06-15T18:53:46.145Z</time>
      </trkpt>
      <trkpt lat="48.91903" lon="2.32826">
        <ele>87.7</ele>
        <time>2015-06-15T18:53:46.825Z</time>
      </trkpt>
      <trkpt lat="48.91906" lon="2.32821">
        <ele>87.8</ele>
        <time>2015-06-15T18:53:47.855Z</time>
      </trkpt>
      <trkpt lat="48.91912" lon="2.32811">
        <ele>88.4</ele>
        <time>2015-06-15T18:53:49.799Z</time>
      </trkpt>
      <trkpt lat="48.91915" lon="2.32806">
        <ele>88.5</ele>
        <time>2015-06-15T18:53:50.921Z</time>
      </trkpt>
      <trkpt lat="48.91918" lon="2.32802">
        <ele>88.7</ele>
        <time>2015-06-15T18:53:51.792Z</time>
      </trkpt>
      <trkpt lat="48.91922" lon="2.32797">
        <ele>89</ele>
        <time>2015-06-15T18:53:52.810Z</time>
      </trkpt>
      <trkpt lat="48.91926" lon="2.32792">
        <ele>89.4</ele>
        <time>2015-06-15T18:53:53.834Z</time>
      </trkpt>
      <trkpt lat="48.9193" lon="2.32788">
        <ele>89.5</ele>
        <time>2015-06-15T18:53:54.848Z</time>
      </trkpt>
      <trkpt lat="48.91933" lon="2.32783">
        <ele>89.8</ele>
        <time>2015-06-15T18:53:55.792Z</time>
      </trkpt>
      <trkpt lat="48.91936" lon="2.32777">
        <ele>90.1</ele>
        <time>2015-06-15T18:53:56.855Z</time>
      </trkpt>
      <trkpt lat="48.91942" lon="2.32769">
        <ele>90.5</ele>
        <time>2015-06-15T18:53:58.782Z</time>
      </trkpt>
      <trkpt lat="48.91945" lon="2.32765">
        <ele>90.7</ele>
        <time>2015-06-15T18:53:59.787Z</time>
      </trkpt>
      <trkpt lat="48.91951" lon="2.32756">
        <ele>91.7</ele>
        <time>2015-06-15T18:54:01.834Z</time>
      </trkpt>
      <trkpt lat="48.91956" lon="2.32751">
        <ele>91.8</ele>
        <time>2015-06-15T18:54:02.874Z</time>
      </trkpt>
      <trkpt lat="48.9196" lon="2.32747">
        <ele>91.7</ele>
        <time>2015-06-15T18:54:03.783Z</time>
      </trkpt>
      <trkpt lat="48.91964" lon="2.32743">
        <ele>92</ele>
        <time>2015-06-15T18:54:04.986Z</time>
      </trkpt>
      <trkpt lat="48.9197" lon="2.32734">
        <ele>92.5</ele>
        <time>2015-06-15T18:54:06.801Z</time>
      </trkpt>
      <trkpt lat="48.91974" lon="2.32728">
        <ele>92.6</ele>
        <time>2015-06-15T18:54:07.825Z</time>
      </trkpt>
      <trkpt lat="48.91977" lon="2.32721">
        <ele>92.8</ele>
        <time>2015-06-15T18:54:08.860Z</time>
      </trkpt>
      <trkpt lat="48.91981" lon="2.32715">
        <ele>92.8</ele>
        <time>2015-06-15T18:54:09.808Z</time>
      </trkpt>
      <trkpt lat="48.91984" lon="2.32708">
        <ele>92.8</ele>
        <time>2015-06-15T18:54:11.471Z</time>
      </trkpt>
      <trkpt lat="48.91987" lon="2.32703">
        <ele>93</ele>
        <time>2015-06-15T18:54:11.790Z</time>
      </trkpt>
      <trkpt lat="48.91989" lon="2.32694">
        <ele>92.6</ele>
        <time>2015-06-15T18:54:12.809Z</time>
      </trkpt>
      <trkpt lat="48.91991" lon="2.32685">
        <ele>92.4</ele>
        <time>2015-06-15T18:54:13.818Z</time>
      </trkpt>
      <trkpt lat="48.91993" lon="2.32677">
        <ele>92.1</ele>
        <time>2015-06-15T18:54:14.854Z</time>
      </trkpt>
      <trkpt lat="48.91995" lon="2.32668">
        <ele>92.2</ele>
        <time>2015-06-15T18:54:15.847Z</time>
      </trkpt>
      <trkpt lat="48.91998" lon="2.32661">
        <ele>92.5</ele>
        <time>2015-06-15T18:54:16.758Z</time>
      </trkpt>
      <trkpt lat="48.92003" lon="2.32655">
        <ele>92.6</ele>
        <time>2015-06-15T18:54:17.833Z</time>
      </trkpt>
      <trkpt lat="48.92008" lon="2.32649">
        <ele>92.3</ele>
        <time>2015-06-15T18:54:18.860Z</time>
      </trkpt>
      <trkpt lat="48.92015" lon="2.32644">
        <ele>91.3</ele>
        <time>2015-06-15T18:54:19.829Z</time>
      </trkpt>
      <trkpt lat="48.9202" lon="2.32637">
        <ele>90.7</ele>
        <time>2015-06-15T18:54:20.856Z</time>
      </trkpt>
      <trkpt lat="48.92024" lon="2.32631">
        <ele>90.5</ele>
        <time>2015-06-15T18:54:21.866Z</time>
      </trkpt>
      <trkpt lat="48.92028" lon="2.32624">
        <ele>90.6</ele>
        <time>2015-06-15T18:54:22.787Z</time>
      </trkpt>
      <trkpt lat="48.92032" lon="2.32618">
        <ele>90.8</ele>
        <time>2015-06-15T18:54:23.779Z</time>
      </trkpt>
      <trkpt lat="48.92036" lon="2.32613">
        <ele>90.8</ele>
        <time>2015-06-15T18:54:24.822Z</time>
      </trkpt>
      <trkpt lat="48.9204" lon="2.32608">
        <ele>90.6</ele>
        <time>2015-06-15T18:54:25.872Z</time>
      </trkpt>
      <trkpt lat="48.92044" lon="2.32604">
        <ele>90.5</ele>
        <time>2015-06-15T18:54:26.888Z</time>
      </trkpt>
      <trkpt lat="48.92047" lon="2.32599">
        <ele>90.3</ele>
        <time>2015-06-15T18:54:27.793Z</time>
      </trkpt>
      <trkpt lat="48.92051" lon="2.32594">
        <ele>90.2</ele>
        <time>2015-06-15T18:54:28.907Z</time>
      </trkpt>
      <trkpt lat="48.92054" lon="2.32589">
        <ele>90.1</ele>
        <time>2015-06-15T18:54:29.785Z</time>
      </trkpt>
      <trkpt lat="48.92061" lon="2.32581">
        <ele>90</ele>
        <time>2015-06-15T18:54:31.816Z</time>
      </trkpt>
      <trkpt lat="48.92064" lon="2.32577">
        <ele>89.8</ele>
        <time>2015-06-15T18:54:32.945Z</time>
      </trkpt>
      <trkpt lat="48.92071" lon="2.3257">
        <ele>89.4</ele>
        <time>2015-06-15T18:54:34.790Z</time>
      </trkpt>
      <trkpt lat="48.92074" lon="2.32566">
        <ele>89.4</ele>
        <time>2015-06-15T18:54:35.801Z</time>
      </trkpt>
      <trkpt lat="48.9208" lon="2.32559">
        <ele>89.6</ele>
        <time>2015-06-15T18:54:37.842Z</time>
      </trkpt>
      <trkpt lat="48.92084" lon="2.32555">
        <ele>89.7</ele>
        <time>2015-06-15T18:54:38.858Z</time>
      </trkpt>
      <trkpt lat="48.92089" lon="2.32545">
        <ele>89.6</ele>
        <time>2015-06-15T18:54:40.813Z</time>
      </trkpt>
      <trkpt lat="48.92092" lon="2.3254">
        <ele>89.5</ele>
        <time>2015-06-15T18:54:41.844Z</time>
      </trkpt>
      <trkpt lat="48.92098" lon="2.32532">
        <ele>88.9</ele>
        <time>2015-06-15T18:54:43.808Z</time>
      </trkpt>
      <trkpt lat="48.92101" lon="2.32527">
        <ele>88.9</ele>
        <time>2015-06-15T18:54:44.876Z</time>
      </trkpt>
      <trkpt lat="48.92104" lon="2.32522">
        <ele>88.7</ele>
        <time>2015-06-15T18:54:45.787Z</time>
      </trkpt>
      <trkpt lat="48.92108" lon="2.32518">
        <ele>88.7</ele>
        <time>2015-06-15T18:54:46.801Z</time>
      </trkpt>
      <trkpt lat="48.92111" lon="2.32513">
        <ele>88.8</ele>
        <time>2015-06-15T18:54:47.817Z</time>
      </trkpt>
      <trkpt lat="48.92115" lon="2.32508">
        <ele>88.9</ele>
        <time>2015-06-15T18:54:48.826Z</time>
      </trkpt>
      <trkpt lat="48.92122" lon="2.325">
        <ele>88.9</ele>
        <time>2015-06-15T18:54:50.848Z</time>
      </trkpt>
      <trkpt lat="48.92125" lon="2.32496">
        <ele>88.6</ele>
        <time>2015-06-15T18:54:51.849Z</time>
      </trkpt>
      <trkpt lat="48.92129" lon="2.3249">
        <ele>88.2</ele>
        <time>2015-06-15T18:54:52.865Z</time>
      </trkpt>
      <trkpt lat="48.92133" lon="2.32485">
        <ele>88.3</ele>
        <time>2015-06-15T18:54:53.827Z</time>
      </trkpt>
      <trkpt lat="48.92137" lon="2.32478">
        <ele>87.9</ele>
        <time>2015-06-15T18:54:54.843Z</time>
      </trkpt>
      <trkpt lat="48.92141" lon="2.32472">
        <ele>87.8</ele>
        <time>2015-06-15T18:54:55.856Z</time>
      </trkpt>
      <trkpt lat="48.92145" lon="2.32464">
        <ele>87.7</ele>
        <time>2015-06-15T18:54:56.888Z</time>
      </trkpt>
      <trkpt lat="48.92149" lon="2.32456">
        <ele>87.6</ele>
        <time>2015-06-15T18:54:57.841Z</time>
      </trkpt>
      <trkpt lat="48.92154" lon="2.32449">
        <ele>87.5</ele>
        <time>2015-06-15T18:54:58.811Z</time>
      </trkpt>
      <trkpt lat="48.92158" lon="2.32442">
        <ele>87.5</ele>
        <time>2015-06-15T18:54:59.824Z</time>
      </trkpt>
      <trkpt lat="48.92162" lon="2.32435">
        <ele>87.5</ele>
        <time>2015-06-15T18:55:00.828Z</time>
      </trkpt>
      <trkpt lat="48.92166" lon="2.32427">
        <ele>87.4</ele>
        <time>2015-06-15T18:55:01.836Z</time>
      </trkpt>
      <trkpt lat="48.9217" lon="2.32421">
        <ele>87.1</ele>
        <time>2015-06-15T18:55:02.899Z</time>
      </trkpt>
      <trkpt lat="48.92174" lon="2.32415">
        <ele>87.1</ele>
        <time>2015-06-15T18:55:03.820Z</time>
      </trkpt>
      <trkpt lat="48.92179" lon="2.32409">
        <ele>86.4</ele>
        <time>2015-06-15T18:55:04.796Z</time>
      </trkpt>
      <trkpt lat="48.92183" lon="2.32403">
        <ele>86.3</ele>
        <time>2015-06-15T18:55:05.826Z</time>
      </trkpt>
      <trkpt lat="48.92188" lon="2.32396">
        <ele>86.1</ele>
        <time>2015-06-15T18:55:06.840Z</time>
      </trkpt>
      <trkpt lat="48.92192" lon="2.3239">
        <ele>85.8</ele>
        <time>2015-06-15T18:55:07.845Z</time>
      </trkpt>
      <trkpt lat="48.92197" lon="2.32384">
        <ele>85.5</ele>
        <time>2015-06-15T18:55:08.894Z</time>
      </trkpt>
      <trkpt lat="48.92201" lon="2.32377">
        <ele>85.3</ele>
        <time>2015-06-15T18:55:09.868Z</time>
      </trkpt>
      <trkpt lat="48.92205" lon="2.32371">
        <ele>85.1</ele>
        <time>2015-06-15T18:55:10.891Z</time>
      </trkpt>
      <trkpt lat="48.92209" lon="2.32364">
        <ele>84.9</ele>
        <time>2015-06-15T18:55:11.917Z</time>
      </trkpt>
      <trkpt lat="48.92213" lon="2.32358">
        <ele>84.7</ele>
        <time>2015-06-15T18:55:12.918Z</time>
      </trkpt>
      <trkpt lat="48.92217" lon="2.32351">
        <ele>84.4</ele>
        <time>2015-06-15T18:55:13.964Z</time>
      </trkpt>
      <trkpt lat="48.92222" lon="2.32344">
        <ele>84.1</ele>
        <time>2015-06-15T18:55:15.002Z</time>
      </trkpt>
      <trkpt lat="48.92225" lon="2.32337">
        <ele>83.8</ele>
        <time>2015-06-15T18:55:15.915Z</time>
      </trkpt>
      <trkpt lat="48.92229" lon="2.3233">
        <ele>83.7</ele>
        <time>2015-06-15T18:55:16.928Z</time>
      </trkpt>
      <trkpt lat="48.92233" lon="2.32323">
        <ele>83.4</ele>
        <time>2015-06-15T18:55:17.955Z</time>
      </trkpt>
      <trkpt lat="48.92238" lon="2.32316">
        <ele>83.3</ele>
        <time>2015-06-15T18:55:19.020Z</time>
      </trkpt>
      <trkpt lat="48.92242" lon="2.32309">
        <ele>83.4</ele>
        <time>2015-06-15T18:55:19.980Z</time>
      </trkpt>
      <trkpt lat="48.92246" lon="2.32302">
        <ele>83.1</ele>
        <time>2015-06-15T18:55:20.989Z</time>
      </trkpt>
      <trkpt lat="48.9225" lon="2.32295">
        <ele>83.1</ele>
        <time>2015-06-15T18:55:21.911Z</time>
      </trkpt>
      <trkpt lat="48.92254" lon="2.32287">
        <ele>83.2</ele>
        <time>2015-06-15T18:55:22.880Z</time>
      </trkpt>
      <trkpt lat="48.92257" lon="2.32281">
        <ele>83.4</ele>
        <time>2015-06-15T18:55:23.907Z</time>
      </trkpt>
      <trkpt lat="48.92261" lon="2.32274">
        <ele>83.3</ele>
        <time>2015-06-15T18:55:24.912Z</time>
      </trkpt>
      <trkpt lat="48.92265" lon="2.32267">
        <ele>83.2</ele>
        <time>2015-06-15T18:55:25.918Z</time>
      </trkpt>
      <trkpt lat="48.92269" lon="2.3226">
        <ele>83.2</ele>
        <time>2015-06-15T18:55:26.938Z</time>
      </trkpt>
      <trkpt lat="48.92272" lon="2.32254">
        <ele>83</ele>
        <time>2015-06-15T18:55:27.953Z</time>
      </trkpt>
      <trkpt lat="48.92276" lon="2.32248">
        <ele>82.9</ele>
        <time>2015-06-15T18:55:28.966Z</time>
      </trkpt>
      <trkpt lat="48.92279" lon="2.32241">
        <ele>83</ele>
        <time>2015-06-15T18:55:29.970Z</time>
      </trkpt>
      <trkpt lat="48.92283" lon="2.32235">
        <ele>83</ele>
        <time>2015-06-15T18:55:30.979Z</time>
      </trkpt>
      <trkpt lat="48.92286" lon="2.3223">
        <ele>83</ele>
        <time>2015-06-15T18:55:31.906Z</time>
      </trkpt>
      <trkpt lat="48.9229" lon="2.32224">
        <ele>83.2</ele>
        <time>2015-06-15T18:55:33.052Z</time>
      </trkpt>
      <trkpt lat="48.92294" lon="2.32217">
        <ele>83.5</ele>
        <time>2015-06-15T18:55:33.902Z</time>
      </trkpt>
      <trkpt lat="48.92297" lon="2.3221">
        <ele>83.4</ele>
        <time>2015-06-15T18:55:34.918Z</time>
      </trkpt>
      <trkpt lat="48.923" lon="2.32203">
        <ele>83.4</ele>
        <time>2015-06-15T18:55:35.931Z</time>
      </trkpt>
      <trkpt lat="48.92304" lon="2.32196">
        <ele>83.1</ele>
        <time>2015-06-15T18:55:36.980Z</time>
      </trkpt>
      <trkpt lat="48.92307" lon="2.32189">
        <ele>82.8</ele>
        <time>2015-06-15T18:55:37.907Z</time>
      </trkpt>
      <trkpt lat="48.9231" lon="2.32182">
        <ele>82.8</ele>
        <time>2015-06-15T18:55:38.964Z</time>
      </trkpt>
      <trkpt lat="48.92313" lon="2.32176">
        <ele>83.1</ele>
        <time>2015-06-15T18:55:39.979Z</time>
      </trkpt>
      <trkpt lat="48.92317" lon="2.3217">
        <ele>83.3</ele>
        <time>2015-06-15T18:55:40.905Z</time>
      </trkpt>
      <trkpt lat="48.9232" lon="2.32164">
        <ele>83.4</ele>
        <time>2015-06-15T18:55:41.915Z</time>
      </trkpt>
      <trkpt lat="48.92322" lon="2.32158">
        <ele>83.5</ele>
        <time>2015-06-15T18:55:42.924Z</time>
      </trkpt>
      <trkpt lat="48.92325" lon="2.32153">
        <ele>83.5</ele>
        <time>2015-06-15T18:55:43.935Z</time>
      </trkpt>
      <trkpt lat="48.9233" lon="2.32142">
        <ele>83.7</ele>
        <time>2015-06-15T18:55:46.937Z</time>
      </trkpt>
      <trkpt lat="48.92331" lon="2.32141">
        <ele>83.6</ele>
        <time>2015-06-15T18:55:47.967Z</time>
      </trkpt>
      <trkpt lat="48.92335" lon="2.32131">
        <ele>83.5</ele>
        <time>2015-06-15T18:55:52.905Z</time>
      </trkpt>
      <trkpt lat="48.92336" lon="2.32128">
        <ele>83.3</ele>
        <time>2015-06-15T18:55:53.941Z</time>
      </trkpt>
      <trkpt lat="48.92339" lon="2.3212">
        <ele>83.6</ele>
        <time>2015-06-15T18:55:55.896Z</time>
      </trkpt>
      <trkpt lat="48.92341" lon="2.32117">
        <ele>83.8</ele>
        <time>2015-06-15T18:55:56.999Z</time>
      </trkpt>
      <trkpt lat="48.92346" lon="2.32109">
        <ele>83.8</ele>
        <time>2015-06-15T18:55:58.940Z</time>
      </trkpt>
      <trkpt lat="48.92349" lon="2.32104">
        <ele>83.7</ele>
        <time>2015-06-15T18:55:59.973Z</time>
      </trkpt>
      <trkpt lat="48.92352" lon="2.32098">
        <ele>83.3</ele>
        <time>2015-06-15T18:56:00.871Z</time>
      </trkpt>
      <trkpt lat="48.92355" lon="2.32093">
        <ele>83.2</ele>
        <time>2015-06-15T18:56:01.911Z</time>
      </trkpt>
      <trkpt lat="48.92358" lon="2.32088">
        <ele>83.2</ele>
        <time>2015-06-15T18:56:03.010Z</time>
      </trkpt>
      <trkpt lat="48.92361" lon="2.32083">
        <ele>82.5</ele>
        <time>2015-06-15T18:56:03.897Z</time>
      </trkpt>
      <trkpt lat="48.92364" lon="2.32077">
        <ele>82.5</ele>
        <time>2015-06-15T18:56:04.928Z</time>
      </trkpt>
      <trkpt lat="48.92367" lon="2.32071">
        <ele>82.2</ele>
        <time>2015-06-15T18:56:05.935Z</time>
      </trkpt>
      <trkpt lat="48.9237" lon="2.32064">
        <ele>82.2</ele>
        <time>2015-06-15T18:56:06.941Z</time>
      </trkpt>
      <trkpt lat="48.92373" lon="2.32058">
        <ele>82.1</ele>
        <time>2015-06-15T18:56:07.903Z</time>
      </trkpt>
      <trkpt lat="48.92376" lon="2.32051">
        <ele>81.8</ele>
        <time>2015-06-15T18:56:08.927Z</time>
      </trkpt>
      <trkpt lat="48.92379" lon="2.32046">
        <ele>81.8</ele>
        <time>2015-06-15T18:56:09.937Z</time>
      </trkpt>
      <trkpt lat="48.92382" lon="2.3204">
        <ele>81.7</ele>
        <time>2015-06-15T18:56:10.938Z</time>
      </trkpt>
      <trkpt lat="48.92386" lon="2.32034">
        <ele>81.6</ele>
        <time>2015-06-15T18:56:12.152Z</time>
      </trkpt>
      <trkpt lat="48.92389" lon="2.32028">
        <ele>81.5</ele>
        <time>2015-06-15T18:56:12.883Z</time>
      </trkpt>
      <trkpt lat="48.92392" lon="2.32021">
        <ele>81.4</ele>
        <time>2015-06-15T18:56:13.911Z</time>
      </trkpt>
      <trkpt lat="48.92395" lon="2.32015">
        <ele>81.6</ele>
        <time>2015-06-15T18:56:14.931Z</time>
      </trkpt>
      <trkpt lat="48.92398" lon="2.32009">
        <ele>81.6</ele>
        <time>2015-06-15T18:56:15.930Z</time>
      </trkpt>
      <trkpt lat="48.92401" lon="2.32002">
        <ele>81.7</ele>
        <time>2015-06-15T18:56:16.943Z</time>
      </trkpt>
      <trkpt lat="48.92404" lon="2.31995">
        <ele>81.8</ele>
        <time>2015-06-15T18:56:17.953Z</time>
      </trkpt>
      <trkpt lat="48.92408" lon="2.31989">
        <ele>81.6</ele>
        <time>2015-06-15T18:56:18.979Z</time>
      </trkpt>
      <trkpt lat="48.92411" lon="2.31982">
        <ele>81.7</ele>
        <time>2015-06-15T18:56:19.893Z</time>
      </trkpt>
      <trkpt lat="48.92415" lon="2.31976">
        <ele>81.7</ele>
        <time>2015-06-15T18:56:21.015Z</time>
      </trkpt>
      <trkpt lat="48.92418" lon="2.3197">
        <ele>81.8</ele>
        <time>2015-06-15T18:56:21.895Z</time>
      </trkpt>
      <trkpt lat="48.92422" lon="2.31963">
        <ele>81.6</ele>
        <time>2015-06-15T18:56:22.937Z</time>
      </trkpt>
      <trkpt lat="48.92426" lon="2.31957">
        <ele>81.6</ele>
        <time>2015-06-15T18:56:23.862Z</time>
      </trkpt>
      <trkpt lat="48.92429" lon="2.31951">
        <ele>81.7</ele>
        <time>2015-06-15T18:56:24.974Z</time>
      </trkpt>
      <trkpt lat="48.92433" lon="2.31945">
        <ele>81.9</ele>
        <time>2015-06-15T18:56:25.866Z</time>
      </trkpt>
      <trkpt lat="48.92436" lon="2.31939">
        <ele>82.1</ele>
        <time>2015-06-15T18:56:26.975Z</time>
      </trkpt>
      <trkpt lat="48.9244" lon="2.31933">
        <ele>82.1</ele>
        <time>2015-06-15T18:56:27.904Z</time>
      </trkpt>
      <trkpt lat="48.92443" lon="2.31926">
        <ele>81.7</ele>
        <time>2015-06-15T18:56:28.899Z</time>
      </trkpt>
      <trkpt lat="48.92446" lon="2.3192">
        <ele>81.4</ele>
        <time>2015-06-15T18:56:29.906Z</time>
      </trkpt>
      <trkpt lat="48.92449" lon="2.31913">
        <ele>81.8</ele>
        <time>2015-06-15T18:56:30.920Z</time>
      </trkpt>
      <trkpt lat="48.92452" lon="2.31906">
        <ele>82.3</ele>
        <time>2015-06-15T18:56:31.936Z</time>
      </trkpt>
      <trkpt lat="48.92454" lon="2.31898">
        <ele>82.6</ele>
        <time>2015-06-15T18:56:33.007Z</time>
      </trkpt>
      <trkpt lat="48.92457" lon="2.31891">
        <ele>82.7</ele>
        <time>2015-06-15T18:56:33.914Z</time>
      </trkpt>
      <trkpt lat="48.92461" lon="2.31884">
        <ele>82.6</ele>
        <time>2015-06-15T18:56:34.913Z</time>
      </trkpt>
      <trkpt lat="48.92465" lon="2.31878">
        <ele>82.5</ele>
        <time>2015-06-15T18:56:35.942Z</time>
      </trkpt>
      <trkpt lat="48.92469" lon="2.31872">
        <ele>82.5</ele>
        <time>2015-06-15T18:56:36.963Z</time>
      </trkpt>
      <trkpt lat="48.92472" lon="2.31866">
        <ele>82.4</ele>
        <time>2015-06-15T18:56:37.969Z</time>
      </trkpt>
      <trkpt lat="48.92476" lon="2.3186">
        <ele>81.9</ele>
        <time>2015-06-15T18:56:39.051Z</time>
      </trkpt>
      <trkpt lat="48.9248" lon="2.31854">
        <ele>81.4</ele>
        <time>2015-06-15T18:56:39.905Z</time>
      </trkpt>
      <trkpt lat="48.92484" lon="2.31847">
        <ele>81.3</ele>
        <time>2015-06-15T18:56:40.914Z</time>
      </trkpt>
      <trkpt lat="48.92488" lon="2.3184">
        <ele>81.2</ele>
        <time>2015-06-15T18:56:41.945Z</time>
      </trkpt>
      <trkpt lat="48.92491" lon="2.31833">
        <ele>81.5</ele>
        <time>2015-06-15T18:56:42.900Z</time>
      </trkpt>
      <trkpt lat="48.92495" lon="2.31826">
        <ele>81.4</ele>
        <time>2015-06-15T18:56:43.924Z</time>
      </trkpt>
      <trkpt lat="48.92498" lon="2.31819">
        <ele>81.4</ele>
        <time>2015-06-15T18:56:44.943Z</time>
      </trkpt>
      <trkpt lat="48.92502" lon="2.31813">
        <ele>81.4</ele>
        <time>2015-06-15T18:56:45.955Z</time>
      </trkpt>
      <trkpt lat="48.92506" lon="2.31806">
        <ele>81.3</ele>
        <time>2015-06-15T18:56:46.957Z</time>
      </trkpt>
      <trkpt lat="48.9251" lon="2.318">
        <ele>81.5</ele>
        <time>2015-06-15T18:56:47.962Z</time>
      </trkpt>
      <trkpt lat="48.92513" lon="2.31794">
        <ele>81.6</ele>
        <time>2015-06-15T18:56:48.894Z</time>
      </trkpt>
      <trkpt lat="48.92517" lon="2.31788">
        <ele>81.7</ele>
        <time>2015-06-15T18:56:49.895Z</time>
      </trkpt>
      <trkpt lat="48.92521" lon="2.31781">
        <ele>81.8</ele>
        <time>2015-06-15T18:56:50.982Z</time>
      </trkpt>
      <trkpt lat="48.92524" lon="2.31774">
        <ele>81.9</ele>
        <time>2015-06-15T18:56:51.940Z</time>
      </trkpt>
      <trkpt lat="48.92528" lon="2.31767">
        <ele>81.7</ele>
        <time>2015-06-15T18:56:52.944Z</time>
      </trkpt>
      <trkpt lat="48.92531" lon="2.3176">
        <ele>81.7</ele>
        <time>2015-06-15T18:56:53.865Z</time>
      </trkpt>
      <trkpt lat="48.92534" lon="2.31752">
        <ele>81.7</ele>
        <time>2015-06-15T18:56:54.899Z</time>
      </trkpt>
      <trkpt lat="48.92537" lon="2.31745">
        <ele>81.7</ele>
        <time>2015-06-15T18:56:55.926Z</time>
      </trkpt>
      <trkpt lat="48.92541" lon="2.31738">
        <ele>82.1</ele>
        <time>2015-06-15T18:56:56.956Z</time>
      </trkpt>
      <trkpt lat="48.92543" lon="2.31731">
        <ele>82.1</ele>
        <time>2015-06-15T18:56:57.951Z</time>
      </trkpt>
      <trkpt lat="48.92546" lon="2.31725">
        <ele>82.5</ele>
        <time>2015-06-15T18:56:58.961Z</time>
      </trkpt>
      <trkpt lat="48.92549" lon="2.31717">
        <ele>83.6</ele>
        <time>2015-06-15T18:56:59.979Z</time>
      </trkpt>
      <trkpt lat="48.92551" lon="2.31709">
        <ele>84.7</ele>
        <time>2015-06-15T18:57:00.873Z</time>
      </trkpt>
      <trkpt lat="48.92554" lon="2.31702">
        <ele>85.1</ele>
        <time>2015-06-15T18:57:01.912Z</time>
      </trkpt>
      <trkpt lat="48.92557" lon="2.31696">
        <ele>85</ele>
        <time>2015-06-15T18:57:03.007Z</time>
      </trkpt>
      <trkpt lat="48.92561" lon="2.3169">
        <ele>85.4</ele>
        <time>2015-06-15T18:57:03.907Z</time>
      </trkpt>
      <trkpt lat="48.92564" lon="2.31684">
        <ele>85.4</ele>
        <time>2015-06-15T18:57:04.904Z</time>
      </trkpt>
      <trkpt lat="48.92568" lon="2.31678">
        <ele>85.2</ele>
        <time>2015-06-15T18:57:05.909Z</time>
      </trkpt>
      <trkpt lat="48.92571" lon="2.31672">
        <ele>85.1</ele>
        <time>2015-06-15T18:57:06.931Z</time>
      </trkpt>
      <trkpt lat="48.92575" lon="2.31666">
        <ele>85.1</ele>
        <time>2015-06-15T18:57:07.962Z</time>
      </trkpt>
      <trkpt lat="48.92578" lon="2.3166">
        <ele>85</ele>
        <time>2015-06-15T18:57:08.971Z</time>
      </trkpt>
      <trkpt lat="48.92582" lon="2.31653">
        <ele>85.2</ele>
        <time>2015-06-15T18:57:09.973Z</time>
      </trkpt>
      <trkpt lat="48.92586" lon="2.31647">
        <ele>85.3</ele>
        <time>2015-06-15T18:57:10.982Z</time>
      </trkpt>
      <trkpt lat="48.92589" lon="2.31641">
        <ele>85.2</ele>
        <time>2015-06-15T18:57:11.929Z</time>
      </trkpt>
      <trkpt lat="48.92593" lon="2.31634">
        <ele>85.2</ele>
        <time>2015-06-15T18:57:12.908Z</time>
      </trkpt>
      <trkpt lat="48.92597" lon="2.31628">
        <ele>85.1</ele>
        <time>2015-06-15T18:57:13.940Z</time>
      </trkpt>
      <trkpt lat="48.926" lon="2.31621">
        <ele>85</ele>
        <time>2015-06-15T18:57:14.978Z</time>
      </trkpt>
      <trkpt lat="48.92604" lon="2.31615">
        <ele>85.1</ele>
        <time>2015-06-15T18:57:15.960Z</time>
      </trkpt>
      <trkpt lat="48.92608" lon="2.31609">
        <ele>85.1</ele>
        <time>2015-06-15T18:57:16.975Z</time>
      </trkpt>
      <trkpt lat="48.92611" lon="2.31602">
        <ele>85.1</ele>
        <time>2015-06-15T18:57:17.978Z</time>
      </trkpt>
      <trkpt lat="48.92615" lon="2.31596">
        <ele>85.2</ele>
        <time>2015-06-15T18:57:18.909Z</time>
      </trkpt>
      <trkpt lat="48.92618" lon="2.31589">
        <ele>85.3</ele>
        <time>2015-06-15T18:57:19.915Z</time>
      </trkpt>
      <trkpt lat="48.92622" lon="2.31582">
        <ele>85</ele>
        <time>2015-06-15T18:57:21.025Z</time>
      </trkpt>
      <trkpt lat="48.92626" lon="2.31575">
        <ele>84.7</ele>
        <time>2015-06-15T18:57:21.877Z</time>
      </trkpt>
      <trkpt lat="48.92629" lon="2.31568">
        <ele>84.2</ele>
        <time>2015-06-15T18:57:22.915Z</time>
      </trkpt>
      <trkpt lat="48.92632" lon="2.31561">
        <ele>83.5</ele>
        <time>2015-06-15T18:57:23.948Z</time>
      </trkpt>
      <trkpt lat="48.92636" lon="2.31553">
        <ele>83.2</ele>
        <time>2015-06-15T18:57:24.956Z</time>
      </trkpt>
      <trkpt lat="48.92639" lon="2.31547">
        <ele>83</ele>
        <time>2015-06-15T18:57:25.966Z</time>
      </trkpt>
      <trkpt lat="48.92643" lon="2.3154">
        <ele>82.9</ele>
        <time>2015-06-15T18:57:27.001Z</time>
      </trkpt>
      <trkpt lat="48.92646" lon="2.31533">
        <ele>83</ele>
        <time>2015-06-15T18:57:27.905Z</time>
      </trkpt>
      <trkpt lat="48.9265" lon="2.31526">
        <ele>83.2</ele>
        <time>2015-06-15T18:57:28.947Z</time>
      </trkpt>
      <trkpt lat="48.92653" lon="2.3152">
        <ele>83.5</ele>
        <time>2015-06-15T18:57:29.976Z</time>
      </trkpt>
      <trkpt lat="48.92657" lon="2.31514">
        <ele>83.6</ele>
        <time>2015-06-15T18:57:30.936Z</time>
      </trkpt>
      <trkpt lat="48.9266" lon="2.31507">
        <ele>83.8</ele>
        <time>2015-06-15T18:57:31.929Z</time>
      </trkpt>
      <trkpt lat="48.92663" lon="2.315">
        <ele>83.9</ele>
        <time>2015-06-15T18:57:33.033Z</time>
      </trkpt>
      <trkpt lat="48.92667" lon="2.31494">
        <ele>83.9</ele>
        <time>2015-06-15T18:57:33.903Z</time>
      </trkpt>
      <trkpt lat="48.9267" lon="2.31488">
        <ele>83.7</ele>
        <time>2015-06-15T18:57:34.904Z</time>
      </trkpt>
      <trkpt lat="48.92674" lon="2.31481">
        <ele>83.8</ele>
        <time>2015-06-15T18:57:35.927Z</time>
      </trkpt>
      <trkpt lat="48.92678" lon="2.31475">
        <ele>83.9</ele>
        <time>2015-06-15T18:57:36.952Z</time>
      </trkpt>
      <trkpt lat="48.92681" lon="2.31468">
        <ele>83.6</ele>
        <time>2015-06-15T18:57:37.959Z</time>
      </trkpt>
      <trkpt lat="48.92685" lon="2.31462">
        <ele>83.8</ele>
        <time>2015-06-15T18:57:38.971Z</time>
      </trkpt>
      <trkpt lat="48.92688" lon="2.31456">
        <ele>83.9</ele>
        <time>2015-06-15T18:57:39.979Z</time>
      </trkpt>
      <trkpt lat="48.92692" lon="2.31449">
        <ele>83.7</ele>
        <time>2015-06-15T18:57:40.905Z</time>
      </trkpt>
      <trkpt lat="48.92695" lon="2.31443">
        <ele>83.6</ele>
        <time>2015-06-15T18:57:41.909Z</time>
      </trkpt>
      <trkpt lat="48.92699" lon="2.31437">
        <ele>83.3</ele>
        <time>2015-06-15T18:57:42.906Z</time>
      </trkpt>
      <trkpt lat="48.92702" lon="2.3143">
        <ele>83.3</ele>
        <time>2015-06-15T18:57:43.931Z</time>
      </trkpt>
      <trkpt lat="48.92706" lon="2.31424">
        <ele>83.2</ele>
        <time>2015-06-15T18:57:44.974Z</time>
      </trkpt>
      <trkpt lat="48.92709" lon="2.31417">
        <ele>83.2</ele>
        <time>2015-06-15T18:57:45.980Z</time>
      </trkpt>
      <trkpt lat="48.92712" lon="2.31411">
        <ele>83.4</ele>
        <time>2015-06-15T18:57:46.915Z</time>
      </trkpt>
      <trkpt lat="48.92716" lon="2.31404">
        <ele>83.6</ele>
        <time>2015-06-15T18:57:47.925Z</time>
      </trkpt>
      <trkpt lat="48.92719" lon="2.31398">
        <ele>83.7</ele>
        <time>2015-06-15T18:57:48.950Z</time>
      </trkpt>
      <trkpt lat="48.92722" lon="2.31391">
        <ele>83.5</ele>
        <time>2015-06-15T18:57:49.961Z</time>
      </trkpt>
      <trkpt lat="48.92726" lon="2.31385">
        <ele>83.4</ele>
        <time>2015-06-15T18:57:50.988Z</time>
      </trkpt>
      <trkpt lat="48.92729" lon="2.31378">
        <ele>83.4</ele>
        <time>2015-06-15T18:57:51.916Z</time>
      </trkpt>
      <trkpt lat="48.92733" lon="2.31371">
        <ele>83.6</ele>
        <time>2015-06-15T18:57:52.914Z</time>
      </trkpt>
      <trkpt lat="48.92736" lon="2.31364">
        <ele>83.5</ele>
        <time>2015-06-15T18:57:53.922Z</time>
      </trkpt>
      <trkpt lat="48.9274" lon="2.31357">
        <ele>83.3</ele>
        <time>2015-06-15T18:57:54.948Z</time>
      </trkpt>
      <trkpt lat="48.92743" lon="2.3135">
        <ele>83.2</ele>
        <time>2015-06-15T18:57:55.950Z</time>
      </trkpt>
      <trkpt lat="48.92748" lon="2.31344">
        <ele>83</ele>
        <time>2015-06-15T18:57:57.002Z</time>
      </trkpt>
      <trkpt lat="48.92752" lon="2.31337">
        <ele>82.8</ele>
        <time>2015-06-15T18:57:57.916Z</time>
      </trkpt>
      <trkpt lat="48.92756" lon="2.31331">
        <ele>82.7</ele>
        <time>2015-06-15T18:57:58.936Z</time>
      </trkpt>
      <trkpt lat="48.92759" lon="2.31324">
        <ele>82.4</ele>
        <time>2015-06-15T18:57:59.948Z</time>
      </trkpt>
      <trkpt lat="48.92763" lon="2.31318">
        <ele>82.5</ele>
        <time>2015-06-15T18:58:00.956Z</time>
      </trkpt>
      <trkpt lat="48.92767" lon="2.31311">
        <ele>82.4</ele>
        <time>2015-06-15T18:58:01.997Z</time>
      </trkpt>
      <trkpt lat="48.92771" lon="2.31304">
        <ele>82.4</ele>
        <time>2015-06-15T18:58:03.022Z</time>
      </trkpt>
      <trkpt lat="48.92774" lon="2.31296">
        <ele>82.4</ele>
        <time>2015-06-15T18:58:03.935Z</time>
      </trkpt>
      <trkpt lat="48.92777" lon="2.31289">
        <ele>82.7</ele>
        <time>2015-06-15T18:58:04.966Z</time>
      </trkpt>
      <trkpt lat="48.92781" lon="2.31281">
        <ele>82.7</ele>
        <time>2015-06-15T18:58:05.965Z</time>
      </trkpt>
      <trkpt lat="48.92784" lon="2.31273">
        <ele>83.1</ele>
        <time>2015-06-15T18:58:06.920Z</time>
      </trkpt>
      <trkpt lat="48.92788" lon="2.31266">
        <ele>83.2</ele>
        <time>2015-06-15T18:58:07.918Z</time>
      </trkpt>
      <trkpt lat="48.92791" lon="2.31258">
        <ele>83.3</ele>
        <time>2015-06-15T18:58:08.945Z</time>
      </trkpt>
      <trkpt lat="48.92795" lon="2.31251">
        <ele>83.6</ele>
        <time>2015-06-15T18:58:09.979Z</time>
      </trkpt>
      <trkpt lat="48.92799" lon="2.31244">
        <ele>83.5</ele>
        <time>2015-06-15T18:58:10.920Z</time>
      </trkpt>
      <trkpt lat="48.92803" lon="2.31236">
        <ele>83.5</ele>
        <time>2015-06-15T18:58:11.901Z</time>
      </trkpt>
      <trkpt lat="48.92807" lon="2.31229">
        <ele>83.5</ele>
        <time>2015-06-15T18:58:12.910Z</time>
      </trkpt>
      <trkpt lat="48.9281" lon="2.31222">
        <ele>83</ele>
        <time>2015-06-15T18:58:13.928Z</time>
      </trkpt>
      <trkpt lat="48.92814" lon="2.31215">
        <ele>82.9</ele>
        <time>2015-06-15T18:58:15.076Z</time>
      </trkpt>
      <trkpt lat="48.92818" lon="2.3121">
        <ele>83.1</ele>
        <time>2015-06-15T18:58:15.938Z</time>
      </trkpt>
      <trkpt lat="48.92822" lon="2.31202">
        <ele>83.3</ele>
        <time>2015-06-15T18:58:16.919Z</time>
      </trkpt>
      <trkpt lat="48.92826" lon="2.31195">
        <ele>83.5</ele>
        <time>2015-06-15T18:58:17.930Z</time>
      </trkpt>
      <trkpt lat="48.92829" lon="2.31189">
        <ele>83.3</ele>
        <time>2015-06-15T18:58:18.950Z</time>
      </trkpt>
      <trkpt lat="48.92833" lon="2.31182">
        <ele>83.3</ele>
        <time>2015-06-15T18:58:19.961Z</time>
      </trkpt>
      <trkpt lat="48.92837" lon="2.31176">
        <ele>83.4</ele>
        <time>2015-06-15T18:58:20.996Z</time>
      </trkpt>
      <trkpt lat="48.9284" lon="2.31168">
        <ele>83.2</ele>
        <time>2015-06-15T18:58:21.937Z</time>
      </trkpt>
      <trkpt lat="48.92843" lon="2.31161">
        <ele>83</ele>
        <time>2015-06-15T18:58:22.946Z</time>
      </trkpt>
      <trkpt lat="48.92847" lon="2.31154">
        <ele>83.1</ele>
        <time>2015-06-15T18:58:23.962Z</time>
      </trkpt>
      <trkpt lat="48.9285" lon="2.31147">
        <ele>83.1</ele>
        <time>2015-06-15T18:58:24.970Z</time>
      </trkpt>
      <trkpt lat="48.92854" lon="2.31141">
        <ele>83.2</ele>
        <time>2015-06-15T18:58:25.978Z</time>
      </trkpt>
      <trkpt lat="48.92857" lon="2.31133">
        <ele>83.5</ele>
        <time>2015-06-15T18:58:27.000Z</time>
      </trkpt>
      <trkpt lat="48.92861" lon="2.31126">
        <ele>83.9</ele>
        <time>2015-06-15T18:58:27.898Z</time>
      </trkpt>
      <trkpt lat="48.92865" lon="2.31119">
        <ele>84</ele>
        <time>2015-06-15T18:58:29.027Z</time>
      </trkpt>
      <trkpt lat="48.92868" lon="2.31113">
        <ele>84.3</ele>
        <time>2015-06-15T18:58:29.931Z</time>
      </trkpt>
      <trkpt lat="48.92872" lon="2.31106">
        <ele>84.4</ele>
        <time>2015-06-15T18:58:30.962Z</time>
      </trkpt>
      <trkpt lat="48.92875" lon="2.31099">
        <ele>84.4</ele>
        <time>2015-06-15T18:58:31.968Z</time>
      </trkpt>
      <trkpt lat="48.92879" lon="2.31091">
        <ele>84.5</ele>
        <time>2015-06-15T18:58:33.016Z</time>
      </trkpt>
      <trkpt lat="48.92883" lon="2.31084">
        <ele>84.7</ele>
        <time>2015-06-15T18:58:33.902Z</time>
      </trkpt>
      <trkpt lat="48.92886" lon="2.31077">
        <ele>84.9</ele>
        <time>2015-06-15T18:58:34.925Z</time>
      </trkpt>
      <trkpt lat="48.9289" lon="2.31071">
        <ele>84.8</ele>
        <time>2015-06-15T18:58:35.941Z</time>
      </trkpt>
      <trkpt lat="48.92893" lon="2.31064">
        <ele>84.6</ele>
        <time>2015-06-15T18:58:36.954Z</time>
      </trkpt>
      <trkpt lat="48.92897" lon="2.31058">
        <ele>84.5</ele>
        <time>2015-06-15T18:58:37.974Z</time>
      </trkpt>
      <trkpt lat="48.929" lon="2.31051">
        <ele>84.5</ele>
        <time>2015-06-15T18:58:38.976Z</time>
      </trkpt>
      <trkpt lat="48.92904" lon="2.31044">
        <ele>84.8</ele>
        <time>2015-06-15T18:58:39.869Z</time>
      </trkpt>
      <trkpt lat="48.92907" lon="2.31038">
        <ele>84.7</ele>
        <time>2015-06-15T18:58:40.932Z</time>
      </trkpt>
      <trkpt lat="48.92911" lon="2.31031">
        <ele>84.8</ele>
        <time>2015-06-15T18:58:41.951Z</time>
      </trkpt>
      <trkpt lat="48.92915" lon="2.31025">
        <ele>84.7</ele>
        <time>2015-06-15T18:58:42.961Z</time>
      </trkpt>
      <trkpt lat="48.92919" lon="2.31017">
        <ele>84.5</ele>
        <time>2015-06-15T18:58:43.956Z</time>
      </trkpt>
      <trkpt lat="48.92923" lon="2.3101">
        <ele>85</ele>
        <time>2015-06-15T18:58:44.981Z</time>
      </trkpt>
      <trkpt lat="48.92927" lon="2.31004">
        <ele>84.9</ele>
        <time>2015-06-15T18:58:45.982Z</time>
      </trkpt>
      <trkpt lat="48.9293" lon="2.30996">
        <ele>84.8</ele>
        <time>2015-06-15T18:58:46.870Z</time>
      </trkpt>
      <trkpt lat="48.92934" lon="2.30989">
        <ele>85</ele>
        <time>2015-06-15T18:58:47.900Z</time>
      </trkpt>
      <trkpt lat="48.92937" lon="2.30981">
        <ele>85.4</ele>
        <time>2015-06-15T18:58:48.936Z</time>
      </trkpt>
      <trkpt lat="48.92941" lon="2.30974">
        <ele>85.7</ele>
        <time>2015-06-15T18:58:49.939Z</time>
      </trkpt>
      <trkpt lat="48.92944" lon="2.30968">
        <ele>85.7</ele>
        <time>2015-06-15T18:58:50.951Z</time>
      </trkpt>
      <trkpt lat="48.92947" lon="2.30962">
        <ele>85.7</ele>
        <time>2015-06-15T18:58:51.954Z</time>
      </trkpt>
      <trkpt lat="48.9295" lon="2.30955">
        <ele>85.6</ele>
        <time>2015-06-15T18:58:52.981Z</time>
      </trkpt>
      <trkpt lat="48.92953" lon="2.30949">
        <ele>85.7</ele>
        <time>2015-06-15T18:58:53.993Z</time>
      </trkpt>
      <trkpt lat="48.92956" lon="2.30943">
        <ele>85.6</ele>
        <time>2015-06-15T18:58:54.903Z</time>
      </trkpt>
      <trkpt lat="48.92958" lon="2.30936">
        <ele>85.4</ele>
        <time>2015-06-15T18:58:55.925Z</time>
      </trkpt>
      <trkpt lat="48.92963" lon="2.30926">
        <ele>85.5</ele>
        <time>2015-06-15T18:58:56.964Z</time>
      </trkpt>
      <trkpt lat="48.92966" lon="2.30919">
        <ele>85.8</ele>
        <time>2015-06-15T18:58:57.953Z</time>
      </trkpt>
      <trkpt lat="48.92971" lon="2.30911">
        <ele>85.5</ele>
        <time>2015-06-15T18:58:58.965Z</time>
      </trkpt>
      <trkpt lat="48.92975" lon="2.30905">
        <ele>85.2</ele>
        <time>2015-06-15T18:58:59.968Z</time>
      </trkpt>
      <trkpt lat="48.92979" lon="2.30897">
        <ele>85.5</ele>
        <time>2015-06-15T18:59:00.895Z</time>
      </trkpt>
      <trkpt lat="48.92983" lon="2.30891">
        <ele>85.7</ele>
        <time>2015-06-15T18:59:01.917Z</time>
      </trkpt>
      <trkpt lat="48.92987" lon="2.30884">
        <ele>85.6</ele>
        <time>2015-06-15T18:59:03.009Z</time>
      </trkpt>
      <trkpt lat="48.92991" lon="2.30878">
        <ele>85.3</ele>
        <time>2015-06-15T18:59:03.884Z</time>
      </trkpt>
      <trkpt lat="48.92994" lon="2.30871">
        <ele>85</ele>
        <time>2015-06-15T18:59:04.897Z</time>
      </trkpt>
      <trkpt lat="48.92998" lon="2.30864">
        <ele>84.9</ele>
        <time>2015-06-15T18:59:05.914Z</time>
      </trkpt>
      <trkpt lat="48.93001" lon="2.30857">
        <ele>85</ele>
        <time>2015-06-15T18:59:06.934Z</time>
      </trkpt>
      <trkpt lat="48.93004" lon="2.3085">
        <ele>85.4</ele>
        <time>2015-06-15T18:59:07.967Z</time>
      </trkpt>
      <trkpt lat="48.93007" lon="2.30842">
        <ele>85.5</ele>
        <time>2015-06-15T18:59:08.983Z</time>
      </trkpt>
      <trkpt lat="48.9301" lon="2.30835">
        <ele>85.7</ele>
        <time>2015-06-15T18:59:09.888Z</time>
      </trkpt>
      <trkpt lat="48.93013" lon="2.30828">
        <ele>85.7</ele>
        <time>2015-06-15T18:59:10.892Z</time>
      </trkpt>
      <trkpt lat="48.93017" lon="2.30822">
        <ele>85.8</ele>
        <time>2015-06-15T18:59:11.906Z</time>
      </trkpt>
      <trkpt lat="48.9302" lon="2.30815">
        <ele>85.8</ele>
        <time>2015-06-15T18:59:12.911Z</time>
      </trkpt>
      <trkpt lat="48.93024" lon="2.30808">
        <ele>85.8</ele>
        <time>2015-06-15T18:59:13.929Z</time>
      </trkpt>
      <trkpt lat="48.93027" lon="2.30801">
        <ele>86</ele>
        <time>2015-06-15T18:59:14.963Z</time>
      </trkpt>
      <trkpt lat="48.9303" lon="2.30794">
        <ele>86.1</ele>
        <time>2015-06-15T18:59:15.964Z</time>
      </trkpt>
      <trkpt lat="48.93033" lon="2.30787">
        <ele>86.3</ele>
        <time>2015-06-15T18:59:16.994Z</time>
      </trkpt>
      <trkpt lat="48.93037" lon="2.30781">
        <ele>86.2</ele>
        <time>2015-06-15T18:59:17.900Z</time>
      </trkpt>
      <trkpt lat="48.93041" lon="2.30775">
        <ele>86.3</ele>
        <time>2015-06-15T18:59:18.890Z</time>
      </trkpt>
      <trkpt lat="48.93044" lon="2.3077">
        <ele>86.4</ele>
        <time>2015-06-15T18:59:19.909Z</time>
      </trkpt>
      <trkpt lat="48.93048" lon="2.30764">
        <ele>86.4</ele>
        <time>2015-06-15T18:59:20.964Z</time>
      </trkpt>
      <trkpt lat="48.93052" lon="2.30758">
        <ele>86.2</ele>
        <time>2015-06-15T18:59:21.983Z</time>
      </trkpt>
      <trkpt lat="48.93056" lon="2.30752">
        <ele>85.9</ele>
        <time>2015-06-15T18:59:22.894Z</time>
      </trkpt>
      <trkpt lat="48.93059" lon="2.30746">
        <ele>85.7</ele>
        <time>2015-06-15T18:59:23.906Z</time>
      </trkpt>
      <trkpt lat="48.93063" lon="2.3074">
        <ele>85.7</ele>
        <time>2015-06-15T18:59:24.931Z</time>
      </trkpt>
      <trkpt lat="48.93067" lon="2.30733">
        <ele>85.7</ele>
        <time>2015-06-15T18:59:25.948Z</time>
      </trkpt>
      <trkpt lat="48.93071" lon="2.30726">
        <ele>85.7</ele>
        <time>2015-06-15T18:59:26.990Z</time>
      </trkpt>
      <trkpt lat="48.93074" lon="2.30719">
        <ele>85.5</ele>
        <time>2015-06-15T18:59:27.902Z</time>
      </trkpt>
      <trkpt lat="48.93078" lon="2.30713">
        <ele>85.3</ele>
        <time>2015-06-15T18:59:28.904Z</time>
      </trkpt>
      <trkpt lat="48.93081" lon="2.30706">
        <ele>85.2</ele>
        <time>2015-06-15T18:59:29.918Z</time>
      </trkpt>
      <trkpt lat="48.93084" lon="2.30698">
        <ele>85.3</ele>
        <time>2015-06-15T18:59:30.933Z</time>
      </trkpt>
      <trkpt lat="48.93087" lon="2.30692">
        <ele>85.3</ele>
        <time>2015-06-15T18:59:31.944Z</time>
      </trkpt>
      <trkpt lat="48.93091" lon="2.30685">
        <ele>85.1</ele>
        <time>2015-06-15T18:59:32.979Z</time>
      </trkpt>
      <trkpt lat="48.93094" lon="2.30677">
        <ele>85.1</ele>
        <time>2015-06-15T18:59:33.934Z</time>
      </trkpt>
      <trkpt lat="48.93098" lon="2.3067">
        <ele>85.4</ele>
        <time>2015-06-15T18:59:34.921Z</time>
      </trkpt>
      <trkpt lat="48.93101" lon="2.30663">
        <ele>85.5</ele>
        <time>2015-06-15T18:59:35.973Z</time>
      </trkpt>
      <trkpt lat="48.93105" lon="2.30655">
        <ele>85.8</ele>
        <time>2015-06-15T18:59:36.928Z</time>
      </trkpt>
      <trkpt lat="48.93109" lon="2.30648">
        <ele>86</ele>
        <time>2015-06-15T18:59:37.913Z</time>
      </trkpt>
      <trkpt lat="48.93113" lon="2.30641">
        <ele>85.9</ele>
        <time>2015-06-15T18:59:38.957Z</time>
      </trkpt>
      <trkpt lat="48.93117" lon="2.30634">
        <ele>85.9</ele>
        <time>2015-06-15T18:59:39.957Z</time>
      </trkpt>
      <trkpt lat="48.9312" lon="2.30627">
        <ele>85.7</ele>
        <time>2015-06-15T18:59:40.904Z</time>
      </trkpt>
      <trkpt lat="48.93124" lon="2.3062">
        <ele>85.6</ele>
        <time>2015-06-15T18:59:41.900Z</time>
      </trkpt>
      <trkpt lat="48.93127" lon="2.30613">
        <ele>85.8</ele>
        <time>2015-06-15T18:59:42.920Z</time>
      </trkpt>
      <trkpt lat="48.93131" lon="2.30606">
        <ele>86</ele>
        <time>2015-06-15T18:59:43.938Z</time>
      </trkpt>
      <trkpt lat="48.93134" lon="2.30598">
        <ele>86.1</ele>
        <time>2015-06-15T18:59:44.961Z</time>
      </trkpt>
      <trkpt lat="48.93138" lon="2.30592">
        <ele>86.1</ele>
        <time>2015-06-15T18:59:45.971Z</time>
      </trkpt>
      <trkpt lat="48.93142" lon="2.30586">
        <ele>86.1</ele>
        <time>2015-06-15T18:59:46.910Z</time>
      </trkpt>
      <trkpt lat="48.93146" lon="2.30579">
        <ele>86</ele>
        <time>2015-06-15T18:59:47.898Z</time>
      </trkpt>
      <trkpt lat="48.93149" lon="2.30573">
        <ele>86</ele>
        <time>2015-06-15T18:59:48.902Z</time>
      </trkpt>
      <trkpt lat="48.93153" lon="2.30566">
        <ele>85.8</ele>
        <time>2015-06-15T18:59:49.916Z</time>
      </trkpt>
      <trkpt lat="48.93156" lon="2.3056">
        <ele>85.7</ele>
        <time>2015-06-15T18:59:50.961Z</time>
      </trkpt>
      <trkpt lat="48.9316" lon="2.30555">
        <ele>85.7</ele>
        <time>2015-06-15T18:59:51.985Z</time>
      </trkpt>
      <trkpt lat="48.93164" lon="2.30549">
        <ele>85.5</ele>
        <time>2015-06-15T18:59:52.902Z</time>
      </trkpt>
      <trkpt lat="48.93168" lon="2.30544">
        <ele>85.2</ele>
        <time>2015-06-15T18:59:53.905Z</time>
      </trkpt>
      <trkpt lat="48.93171" lon="2.30538">
        <ele>85</ele>
        <time>2015-06-15T18:59:54.918Z</time>
      </trkpt>
      <trkpt lat="48.93175" lon="2.30533">
        <ele>85</ele>
        <time>2015-06-15T18:59:55.931Z</time>
      </trkpt>
      <trkpt lat="48.93179" lon="2.30527">
        <ele>85</ele>
        <time>2015-06-15T18:59:56.958Z</time>
      </trkpt>
      <trkpt lat="48.93182" lon="2.30522">
        <ele>84.7</ele>
        <time>2015-06-15T18:59:57.961Z</time>
      </trkpt>
      <trkpt lat="48.93186" lon="2.30516">
        <ele>84.7</ele>
        <time>2015-06-15T18:59:58.972Z</time>
      </trkpt>
      <trkpt lat="48.93189" lon="2.3051">
        <ele>84.7</ele>
        <time>2015-06-15T18:59:59.898Z</time>
      </trkpt>
      <trkpt lat="48.93193" lon="2.30505">
        <ele>84.6</ele>
        <time>2015-06-15T19:00:00.876Z</time>
      </trkpt>
      <trkpt lat="48.93195" lon="2.30499">
        <ele>84.9</ele>
        <time>2015-06-15T19:00:01.905Z</time>
      </trkpt>
      <trkpt lat="48.93199" lon="2.30493">
        <ele>84.9</ele>
        <time>2015-06-15T19:00:03.003Z</time>
      </trkpt>
      <trkpt lat="48.93202" lon="2.30486">
        <ele>84.9</ele>
        <time>2015-06-15T19:00:03.893Z</time>
      </trkpt>
      <trkpt lat="48.93205" lon="2.30479">
        <ele>85</ele>
        <time>2015-06-15T19:00:04.900Z</time>
      </trkpt>
      <trkpt lat="48.93209" lon="2.30474">
        <ele>85.2</ele>
        <time>2015-06-15T19:00:05.908Z</time>
      </trkpt>
      <trkpt lat="48.93212" lon="2.30468">
        <ele>85.4</ele>
        <time>2015-06-15T19:00:06.918Z</time>
      </trkpt>
      <trkpt lat="48.93216" lon="2.30462">
        <ele>85.7</ele>
        <time>2015-06-15T19:00:07.940Z</time>
      </trkpt>
      <trkpt lat="48.9322" lon="2.30456">
        <ele>86.1</ele>
        <time>2015-06-15T19:00:08.957Z</time>
      </trkpt>
      <trkpt lat="48.93225" lon="2.30451">
        <ele>86.3</ele>
        <time>2015-06-15T19:00:09.962Z</time>
      </trkpt>
      <trkpt lat="48.9323" lon="2.30447">
        <ele>86.3</ele>
        <time>2015-06-15T19:00:10.939Z</time>
      </trkpt>
      <trkpt lat="48.93236" lon="2.30446">
        <ele>86.4</ele>
        <time>2015-06-15T19:00:11.938Z</time>
      </trkpt>
      <trkpt lat="48.93241" lon="2.30445">
        <ele>86.3</ele>
        <time>2015-06-15T19:00:13.028Z</time>
      </trkpt>
      <trkpt lat="48.93246" lon="2.30444">
        <ele>86.4</ele>
        <time>2015-06-15T19:00:13.953Z</time>
      </trkpt>
      <trkpt lat="48.93252" lon="2.30443">
        <ele>86.4</ele>
        <time>2015-06-15T19:00:14.964Z</time>
      </trkpt>
      <trkpt lat="48.93258" lon="2.30442">
        <ele>86.5</ele>
        <time>2015-06-15T19:00:15.967Z</time>
      </trkpt>
      <trkpt lat="48.93263" lon="2.30441">
        <ele>86.9</ele>
        <time>2015-06-15T19:00:16.974Z</time>
      </trkpt>
      <trkpt lat="48.93267" lon="2.3044">
        <ele>87.5</ele>
        <time>2015-06-15T19:00:17.932Z</time>
      </trkpt>
      <trkpt lat="48.93276" lon="2.3044">
        <ele>89.2</ele>
        <time>2015-06-15T19:00:19.957Z</time>
      </trkpt>
      <trkpt lat="48.9328" lon="2.30439">
        <ele>89.8</ele>
        <time>2015-06-15T19:00:21.000Z</time>
      </trkpt>
      <trkpt lat="48.93288" lon="2.30435">
        <ele>90.4</ele>
        <time>2015-06-15T19:00:22.907Z</time>
      </trkpt>
      <trkpt lat="48.93292" lon="2.30434">
        <ele>90.3</ele>
        <time>2015-06-15T19:00:23.932Z</time>
      </trkpt>
      <trkpt lat="48.93299" lon="2.30434">
        <ele>91.7</ele>
        <time>2015-06-15T19:01:05.961Z</time>
      </trkpt>
      <trkpt lat="48.93316" lon="2.30446">
        <ele>93.4</ele>
        <time>2015-06-15T19:01:06.864Z</time>
      </trkpt>
      <trkpt lat="48.93318" lon="2.30452">
        <ele>93.4</ele>
        <time>2015-06-15T19:01:19.944Z</time>
      </trkpt>
      <trkpt lat="48.93328" lon="2.30449">
        <ele>98.3</ele>
        <time>2015-06-15T19:01:20.952Z</time>
      </trkpt>
      <trkpt lat="48.93331" lon="2.30438">
        <ele>99</ele>
        <time>2015-06-15T19:01:23.902Z</time>
      </trkpt>
      <trkpt lat="48.9333" lon="2.30433">
        <ele>99.3</ele>
        <time>2015-06-15T19:01:24.902Z</time>
      </trkpt>
      <trkpt lat="48.93329" lon="2.30422">
        <ele>99.4</ele>
        <time>2015-06-15T19:01:27.002Z</time>
      </trkpt>
      <trkpt lat="48.93329" lon="2.30417">
        <ele>99.4</ele>
        <time>2015-06-15T19:01:27.889Z</time>
      </trkpt>
      <trkpt lat="48.93327" lon="2.30406">
        <ele>99.4</ele>
        <time>2015-06-15T19:01:29.887Z</time>
      </trkpt>
      <trkpt lat="48.93327" lon="2.30401">
        <ele>99.6</ele>
        <time>2015-06-15T19:01:30.897Z</time>
      </trkpt>
      <trkpt lat="48.93327" lon="2.30391">
        <ele>100.1</ele>
        <time>2015-06-15T19:01:32.950Z</time>
      </trkpt>
      <trkpt lat="48.93326" lon="2.30386">
        <ele>100.3</ele>
        <time>2015-06-15T19:01:33.939Z</time>
      </trkpt>
      <trkpt lat="48.93325" lon="2.30375">
        <ele>99.9</ele>
        <time>2015-06-15T19:01:35.892Z</time>
      </trkpt>
      <trkpt lat="48.93325" lon="2.30369">
        <ele>100.1</ele>
        <time>2015-06-15T19:01:36.894Z</time>
      </trkpt>
      <trkpt lat="48.93325" lon="2.30358">
        <ele>100.5</ele>
        <time>2015-06-15T19:01:38.947Z</time>
      </trkpt>
      <trkpt lat="48.93324" lon="2.30353">
        <ele>100.9</ele>
        <time>2015-06-15T19:01:39.954Z</time>
      </trkpt>
      <trkpt lat="48.93323" lon="2.30341">
        <ele>101.6</ele>
        <time>2015-06-15T19:01:41.936Z</time>
      </trkpt>
      <trkpt lat="48.93323" lon="2.30335">
        <ele>102.1</ele>
        <time>2015-06-15T19:01:42.917Z</time>
      </trkpt>
      <trkpt lat="48.93321" lon="2.30324">
        <ele>102.7</ele>
        <time>2015-06-15T19:01:44.996Z</time>
      </trkpt>
      <trkpt lat="48.93321" lon="2.30319">
        <ele>103</ele>
        <time>2015-06-15T19:01:46.005Z</time>
      </trkpt>
      <trkpt lat="48.93321" lon="2.30308">
        <ele>104.2</ele>
        <time>2015-06-15T19:01:47.937Z</time>
      </trkpt>
      <trkpt lat="48.93323" lon="2.30303">
        <ele>103.5</ele>
        <time>2015-06-15T19:01:48.934Z</time>
      </trkpt>
      <trkpt lat="48.93325" lon="2.30291">
        <ele>103.8</ele>
        <time>2015-06-15T19:01:51.905Z</time>
      </trkpt>
      <trkpt lat="48.93325" lon="2.30286">
        <ele>104</ele>
        <time>2015-06-15T19:01:52.909Z</time>
      </trkpt>
      <trkpt lat="48.93327" lon="2.30277">
        <ele>103.5</ele>
        <time>2015-06-15T19:01:54.926Z</time>
      </trkpt>
      <trkpt lat="48.93328" lon="2.30273">
        <ele>103.6</ele>
        <time>2015-06-15T19:01:55.967Z</time>
      </trkpt>
      <trkpt lat="48.93335" lon="2.30269">
        <ele>100.1</ele>
        <time>2015-06-15T19:01:57.906Z</time>
      </trkpt>
      <trkpt lat="48.93338" lon="2.30269">
        <ele>98.9</ele>
        <time>2015-06-15T19:01:58.959Z</time>
      </trkpt>
      <trkpt lat="48.93346" lon="2.30271">
        <ele>97.6</ele>
        <time>2015-06-15T19:02:01.894Z</time>
      </trkpt>
      <trkpt lat="48.93348" lon="2.30273">
        <ele>97</ele>
        <time>2015-06-15T19:02:02.947Z</time>
      </trkpt>
      <trkpt lat="48.93356" lon="2.30269">
        <ele>94.2</ele>
        <time>2015-06-15T19:02:07.944Z</time>
      </trkpt>
      <trkpt lat="48.93358" lon="2.30268">
        <ele>94.2</ele>
        <time>2015-06-15T19:02:09.055Z</time>
      </trkpt>
      <trkpt lat="48.93367" lon="2.30269">
        <ele>93.9</ele>
        <time>2015-06-15T19:02:13.992Z</time>
      </trkpt>
      <trkpt lat="48.93369" lon="2.30269">
        <ele>93.6</ele>
        <time>2015-06-15T19:02:15.022Z</time>
      </trkpt>
      <trkpt lat="48.93377" lon="2.30271">
        <ele>93.8</ele>
        <time>2015-06-15T19:02:19.967Z</time>
      </trkpt>
      <trkpt lat="48.93379" lon="2.30272">
        <ele>93.9</ele>
        <time>2015-06-15T19:02:20.975Z</time>
      </trkpt>
      <trkpt lat="48.93387" lon="2.30275">
        <ele>95</ele>
        <time>2015-06-15T19:02:23.965Z</time>
      </trkpt>
      <trkpt lat="48.9339" lon="2.30277">
        <ele>94.9</ele>
        <time>2015-06-15T19:02:25.011Z</time>
      </trkpt>
      <trkpt lat="48.93396" lon="2.30284">
        <ele>93.8</ele>
        <time>2015-06-15T19:02:26.964Z</time>
      </trkpt>
      <trkpt lat="48.93399" lon="2.30287">
        <ele>93.1</ele>
        <time>2015-06-15T19:02:27.987Z</time>
      </trkpt>
      <trkpt lat="48.93406" lon="2.30293">
        <ele>92.3</ele>
        <time>2015-06-15T19:02:29.917Z</time>
      </trkpt>
      <trkpt lat="48.9341" lon="2.30295">
        <ele>91.9</ele>
        <time>2015-06-15T19:02:30.965Z</time>
      </trkpt>
      <trkpt lat="48.93416" lon="2.30299">
        <ele>90.9</ele>
        <time>2015-06-15T19:02:32.996Z</time>
      </trkpt>
      <trkpt lat="48.9342" lon="2.30301">
        <ele>90.6</ele>
        <time>2015-06-15T19:02:33.933Z</time>
      </trkpt>
      <trkpt lat="48.93426" lon="2.30306">
        <ele>90.4</ele>
        <time>2015-06-15T19:02:36.151Z</time>
      </trkpt>
      <trkpt lat="48.9343" lon="2.30307">
        <ele>89.8</ele>
        <time>2015-06-15T19:02:36.939Z</time>
      </trkpt>
      <trkpt lat="48.93438" lon="2.3031">
        <ele>89.7</ele>
        <time>2015-06-15T19:02:39.932Z</time>
      </trkpt>
      <trkpt lat="48.93441" lon="2.30311">
        <ele>89.9</ele>
        <time>2015-06-15T19:02:40.903Z</time>
      </trkpt>
      <trkpt lat="48.93449" lon="2.30313">
        <ele>89.3</ele>
        <time>2015-06-15T19:02:42.969Z</time>
      </trkpt>
      <trkpt lat="48.93453" lon="2.30314">
        <ele>89.2</ele>
        <time>2015-06-15T19:02:43.909Z</time>
      </trkpt>
      <trkpt lat="48.93457" lon="2.30315">
        <ele>89.3</ele>
        <time>2015-06-15T19:02:45.012Z</time>
      </trkpt>
      <trkpt lat="48.93462" lon="2.30316">
        <ele>89.6</ele>
        <time>2015-06-15T19:02:45.900Z</time>
      </trkpt>
      <trkpt lat="48.9347" lon="2.30317">
        <ele>89.8</ele>
        <time>2015-06-15T19:02:47.912Z</time>
      </trkpt>
      <trkpt lat="48.93474" lon="2.30318">
        <ele>89.9</ele>
        <time>2015-06-15T19:02:48.953Z</time>
      </trkpt>
      <trkpt lat="48.93481" lon="2.30323">
        <ele>89.7</ele>
        <time>2015-06-15T19:02:50.991Z</time>
      </trkpt>
      <trkpt lat="48.93485" lon="2.30327">
        <ele>89.5</ele>
        <time>2015-06-15T19:02:52.004Z</time>
      </trkpt>
      <trkpt lat="48.9349" lon="2.3033">
        <ele>89.4</ele>
        <time>2015-06-15T19:02:52.920Z</time>
      </trkpt>
      <trkpt lat="48.93494" lon="2.30332">
        <ele>89.3</ele>
        <time>2015-06-15T19:02:53.937Z</time>
      </trkpt>
      <trkpt lat="48.93499" lon="2.30336">
        <ele>89.4</ele>
        <time>2015-06-15T19:02:54.953Z</time>
      </trkpt>
      <trkpt lat="48.93504" lon="2.30338">
        <ele>89.7</ele>
        <time>2015-06-15T19:02:55.964Z</time>
      </trkpt>
      <trkpt lat="48.93509" lon="2.30342">
        <ele>89.6</ele>
        <time>2015-06-15T19:02:56.985Z</time>
      </trkpt>
      <trkpt lat="48.93514" lon="2.30345">
        <ele>89.8</ele>
        <time>2015-06-15T19:02:58.027Z</time>
      </trkpt>
      <trkpt lat="48.9352" lon="2.30348">
        <ele>90</ele>
        <time>2015-06-15T19:02:59.569Z</time>
      </trkpt>
      <trkpt lat="48.93524" lon="2.3035">
        <ele>90.4</ele>
        <time>2015-06-15T19:02:59.889Z</time>
      </trkpt>
      <trkpt lat="48.9353" lon="2.30353">
        <ele>90.7</ele>
        <time>2015-06-15T19:03:00.906Z</time>
      </trkpt>
      <trkpt lat="48.93537" lon="2.30355">
        <ele>90.9</ele>
        <time>2015-06-15T19:03:01.924Z</time>
      </trkpt>
      <trkpt lat="48.93542" lon="2.30358">
        <ele>90.9</ele>
        <time>2015-06-15T19:03:02.968Z</time>
      </trkpt>
      <trkpt lat="48.93549" lon="2.3036">
        <ele>91.2</ele>
        <time>2015-06-15T19:03:03.962Z</time>
      </trkpt>
      <trkpt lat="48.93556" lon="2.30362">
        <ele>91.5</ele>
        <time>2015-06-15T19:03:04.899Z</time>
      </trkpt>
      <trkpt lat="48.93562" lon="2.30364">
        <ele>91.6</ele>
        <time>2015-06-15T19:03:05.906Z</time>
      </trkpt>
      <trkpt lat="48.93568" lon="2.30368">
        <ele>92</ele>
        <time>2015-06-15T19:03:06.928Z</time>
      </trkpt>
      <trkpt lat="48.93574" lon="2.3037">
        <ele>92.3</ele>
        <time>2015-06-15T19:03:07.940Z</time>
      </trkpt>
      <trkpt lat="48.93581" lon="2.30372">
        <ele>92.4</ele>
        <time>2015-06-15T19:03:08.948Z</time>
      </trkpt>
      <trkpt lat="48.93587" lon="2.30374">
        <ele>92.4</ele>
        <time>2015-06-15T19:03:09.954Z</time>
      </trkpt>
      <trkpt lat="48.93593" lon="2.30375">
        <ele>92.4</ele>
        <time>2015-06-15T19:03:10.966Z</time>
      </trkpt>
      <trkpt lat="48.93598" lon="2.30378">
        <ele>92.5</ele>
        <time>2015-06-15T19:03:11.984Z</time>
      </trkpt>
      <trkpt lat="48.93602" lon="2.3038">
        <ele>92.7</ele>
        <time>2015-06-15T19:03:12.890Z</time>
      </trkpt>
      <trkpt lat="48.93607" lon="2.30382">
        <ele>92.5</ele>
        <time>2015-06-15T19:03:13.900Z</time>
      </trkpt>
      <trkpt lat="48.93613" lon="2.30384">
        <ele>92.5</ele>
        <time>2015-06-15T19:03:14.954Z</time>
      </trkpt>
      <trkpt lat="48.93618" lon="2.30386">
        <ele>92.5</ele>
        <time>2015-06-15T19:03:15.949Z</time>
      </trkpt>
      <trkpt lat="48.93624" lon="2.30387">
        <ele>92.3</ele>
        <time>2015-06-15T19:03:16.959Z</time>
      </trkpt>
      <trkpt lat="48.9363" lon="2.3039">
        <ele>92.1</ele>
        <time>2015-06-15T19:03:17.981Z</time>
      </trkpt>
      <trkpt lat="48.93637" lon="2.30392">
        <ele>91.3</ele>
        <time>2015-06-15T19:03:18.911Z</time>
      </trkpt>
      <trkpt lat="48.93644" lon="2.30394">
        <ele>90.1</ele>
        <time>2015-06-15T19:03:19.912Z</time>
      </trkpt>
      <trkpt lat="48.9365" lon="2.30396">
        <ele>89.8</ele>
        <time>2015-06-15T19:03:20.974Z</time>
      </trkpt>
      <trkpt lat="48.93658" lon="2.30398">
        <ele>89</ele>
        <time>2015-06-15T19:03:21.954Z</time>
      </trkpt>
      <trkpt lat="48.93664" lon="2.304">
        <ele>88.2</ele>
        <time>2015-06-15T19:03:22.988Z</time>
      </trkpt>
      <trkpt lat="48.93669" lon="2.30403">
        <ele>87.9</ele>
        <time>2015-06-15T19:03:23.969Z</time>
      </trkpt>
      <trkpt lat="48.93674" lon="2.30406">
        <ele>87.5</ele>
        <time>2015-06-15T19:03:24.894Z</time>
      </trkpt>
      <trkpt lat="48.93678" lon="2.30407">
        <ele>87.2</ele>
        <time>2015-06-15T19:03:25.906Z</time>
      </trkpt>
      <trkpt lat="48.93683" lon="2.3041">
        <ele>86.8</ele>
        <time>2015-06-15T19:03:26.959Z</time>
      </trkpt>
      <trkpt lat="48.93688" lon="2.30411">
        <ele>86.3</ele>
        <time>2015-06-15T19:03:27.956Z</time>
      </trkpt>
      <trkpt lat="48.93692" lon="2.30412">
        <ele>86.1</ele>
        <time>2015-06-15T19:03:28.967Z</time>
      </trkpt>
      <trkpt lat="48.93697" lon="2.30414">
        <ele>86</ele>
        <time>2015-06-15T19:03:29.974Z</time>
      </trkpt>
      <trkpt lat="48.93702" lon="2.30416">
        <ele>85.5</ele>
        <time>2015-06-15T19:03:30.899Z</time>
      </trkpt>
      <trkpt lat="48.93707" lon="2.30418">
        <ele>85.7</ele>
        <time>2015-06-15T19:03:31.897Z</time>
      </trkpt>
      <trkpt lat="48.93711" lon="2.30421">
        <ele>85.8</ele>
        <time>2015-06-15T19:03:32.977Z</time>
      </trkpt>
      <trkpt lat="48.93716" lon="2.30423">
        <ele>85.7</ele>
        <time>2015-06-15T19:03:33.966Z</time>
      </trkpt>
      <trkpt lat="48.93723" lon="2.30425">
        <ele>85.6</ele>
        <time>2015-06-15T19:03:35.903Z</time>
      </trkpt>
      <trkpt lat="48.93727" lon="2.30427">
        <ele>85.9</ele>
        <time>2015-06-15T19:03:36.961Z</time>
      </trkpt>
      <trkpt lat="48.93734" lon="2.3043">
        <ele>86.3</ele>
        <time>2015-06-15T19:03:39.015Z</time>
      </trkpt>
      <trkpt lat="48.93738" lon="2.30431">
        <ele>86.5</ele>
        <time>2015-06-15T19:03:39.934Z</time>
      </trkpt>
      <trkpt lat="48.93743" lon="2.30432">
        <ele>86.3</ele>
        <time>2015-06-15T19:03:40.934Z</time>
      </trkpt>
      <trkpt lat="48.93747" lon="2.30432">
        <ele>86.2</ele>
        <time>2015-06-15T19:03:41.944Z</time>
      </trkpt>
      <trkpt lat="48.93752" lon="2.30434">
        <ele>85.2</ele>
        <time>2015-06-15T19:03:42.962Z</time>
      </trkpt>
      <trkpt lat="48.93757" lon="2.30436">
        <ele>84.5</ele>
        <time>2015-06-15T19:03:44.140Z</time>
      </trkpt>
      <trkpt lat="48.93765" lon="2.30437">
        <ele>83.6</ele>
        <time>2015-06-15T19:03:45.904Z</time>
      </trkpt>
      <trkpt lat="48.9377" lon="2.30439">
        <ele>83</ele>
        <time>2015-06-15T19:03:46.938Z</time>
      </trkpt>
      <trkpt lat="48.93777" lon="2.30442">
        <ele>82</ele>
        <time>2015-06-15T19:03:48.906Z</time>
      </trkpt>
      <trkpt lat="48.93781" lon="2.30443">
        <ele>82</ele>
        <time>2015-06-15T19:03:49.911Z</time>
      </trkpt>
      <trkpt lat="48.9379" lon="2.30443">
        <ele>81.8</ele>
        <time>2015-06-15T19:03:51.991Z</time>
      </trkpt>
      <trkpt lat="48.93794" lon="2.30443">
        <ele>81.9</ele>
        <time>2015-06-15T19:03:52.934Z</time>
      </trkpt>
      <trkpt lat="48.93803" lon="2.30442">
        <ele>81.9</ele>
        <time>2015-06-15T19:03:54.946Z</time>
      </trkpt>
      <trkpt lat="48.93807" lon="2.30441">
        <ele>81.7</ele>
        <time>2015-06-15T19:03:55.978Z</time>
      </trkpt>
      <trkpt lat="48.93814" lon="2.30441">
        <ele>81.3</ele>
        <time>2015-06-15T19:03:57.917Z</time>
      </trkpt>
      <trkpt lat="48.93818" lon="2.30441">
        <ele>81.5</ele>
        <time>2015-06-15T19:03:58.970Z</time>
      </trkpt>
      <trkpt lat="48.93826" lon="2.3044">
        <ele>81.8</ele>
        <time>2015-06-15T19:04:00.932Z</time>
      </trkpt>
      <trkpt lat="48.9383" lon="2.3044">
        <ele>82</ele>
        <time>2015-06-15T19:04:01.915Z</time>
      </trkpt>
      <trkpt lat="48.93838" lon="2.30439">
        <ele>82.4</ele>
        <time>2015-06-15T19:04:03.999Z</time>
      </trkpt>
      <trkpt lat="48.93842" lon="2.30438">
        <ele>82.3</ele>
        <time>2015-06-15T19:04:04.915Z</time>
      </trkpt>
      <trkpt lat="48.93849" lon="2.30436">
        <ele>82.8</ele>
        <time>2015-06-15T19:04:06.576Z</time>
      </trkpt>
      <trkpt lat="48.93852" lon="2.30436">
        <ele>82.9</ele>
        <time>2015-06-15T19:04:07.967Z</time>
      </trkpt>
      <trkpt lat="48.9386" lon="2.30435">
        <ele>83</ele>
        <time>2015-06-15T19:04:09.915Z</time>
      </trkpt>
      <trkpt lat="48.93865" lon="2.30435">
        <ele>83</ele>
        <time>2015-06-15T19:04:10.937Z</time>
      </trkpt>
      <trkpt lat="48.93869" lon="2.30435">
        <ele>83.2</ele>
        <time>2015-06-15T19:04:12.147Z</time>
      </trkpt>
      <trkpt lat="48.93874" lon="2.30435">
        <ele>83.5</ele>
        <time>2015-06-15T19:04:12.954Z</time>
      </trkpt>
      <trkpt lat="48.93883" lon="2.30434">
        <ele>83.3</ele>
        <time>2015-06-15T19:04:14.977Z</time>
      </trkpt>
      <trkpt lat="48.93886" lon="2.30433">
        <ele>83.5</ele>
        <time>2015-06-15T19:04:16.099Z</time>
      </trkpt>
      <trkpt lat="48.93894" lon="2.30433">
        <ele>83.6</ele>
        <time>2015-06-15T19:04:17.930Z</time>
      </trkpt>
      <trkpt lat="48.93898" lon="2.30432">
        <ele>83.7</ele>
        <time>2015-06-15T19:04:18.957Z</time>
      </trkpt>
      <trkpt lat="48.93905" lon="2.30433">
        <ele>83.1</ele>
        <time>2015-06-15T19:04:21.024Z</time>
      </trkpt>
      <trkpt lat="48.93909" lon="2.30434">
        <ele>83</ele>
        <time>2015-06-15T19:04:22.005Z</time>
      </trkpt>
      <trkpt lat="48.93915" lon="2.30433">
        <ele>82.7</ele>
        <time>2015-06-15T19:04:23.874Z</time>
      </trkpt>
      <trkpt lat="48.93918" lon="2.30433">
        <ele>82.5</ele>
        <time>2015-06-15T19:04:24.885Z</time>
      </trkpt>
      <trkpt lat="48.93926" lon="2.30432">
        <ele>82.3</ele>
        <time>2015-06-15T19:04:27.910Z</time>
      </trkpt>
      <trkpt lat="48.93929" lon="2.30432">
        <ele>82.4</ele>
        <time>2015-06-15T19:04:28.914Z</time>
      </trkpt>
      <trkpt lat="48.93937" lon="2.30429">
        <ele>82.6</ele>
        <time>2015-06-15T19:04:31.950Z</time>
      </trkpt>
      <trkpt lat="48.9394" lon="2.30429">
        <ele>82.5</ele>
        <time>2015-06-15T19:04:32.997Z</time>
      </trkpt>
      <trkpt lat="48.93947" lon="2.30429">
        <ele>82.5</ele>
        <time>2015-06-15T19:04:36.120Z</time>
      </trkpt>
      <trkpt lat="48.93949" lon="2.30428">
        <ele>82.6</ele>
        <time>2015-06-15T19:04:36.911Z</time>
      </trkpt>
      <trkpt lat="48.93957" lon="2.30426">
        <ele>83.1</ele>
        <time>2015-06-15T19:04:39.963Z</time>
      </trkpt>
      <trkpt lat="48.93959" lon="2.30425">
        <ele>83.1</ele>
        <time>2015-06-15T19:04:40.980Z</time>
      </trkpt>
      <trkpt lat="48.93967" lon="2.30422">
        <ele>83.2</ele>
        <time>2015-06-15T19:04:43.912Z</time>
      </trkpt>
      <trkpt lat="48.9397" lon="2.30421">
        <ele>83.2</ele>
        <time>2015-06-15T19:04:45.006Z</time>
      </trkpt>
      <trkpt lat="48.93974" lon="2.30412">
        <ele>82.7</ele>
        <time>2015-06-15T19:04:48.929Z</time>
      </trkpt>
      <trkpt lat="48.93975" lon="2.30409">
        <ele>82.8</ele>
        <time>2015-06-15T19:04:49.938Z</time>
      </trkpt>
      <trkpt lat="48.93979" lon="2.30397">
        <ele>82.9</ele>
        <time>2015-06-15T19:04:53.886Z</time>
      </trkpt>
      <trkpt lat="48.9398" lon="2.30393">
        <ele>83</ele>
        <time>2015-06-15T19:04:54.920Z</time>
      </trkpt>
      <trkpt lat="48.93984" lon="2.30384">
        <ele>83.4</ele>
        <time>2015-06-15T19:04:57.020Z</time>
      </trkpt>
      <trkpt lat="48.93986" lon="2.30381">
        <ele>83.8</ele>
        <time>2015-06-15T19:04:57.919Z</time>
      </trkpt>
      <trkpt lat="48.93992" lon="2.30373">
        <ele>84.2</ele>
        <time>2015-06-15T19:05:00.983Z</time>
      </trkpt>
      <trkpt lat="48.93992" lon="2.30371">
        <ele>84.4</ele>
        <time>2015-06-15T19:05:02.000Z</time>
      </trkpt>
      <trkpt lat="48.93992" lon="2.30363">
        <ele>84.4</ele>
        <time>2015-06-15T19:05:04.960Z</time>
      </trkpt>
      <trkpt lat="48.93992" lon="2.30357">
        <ele>84.5</ele>
        <time>2015-06-15T19:05:05.919Z</time>
      </trkpt>
      <trkpt lat="48.93992" lon="2.30346">
        <ele>84.6</ele>
        <time>2015-06-15T19:05:07.974Z</time>
      </trkpt>
      <trkpt lat="48.93992" lon="2.30341">
        <ele>84.5</ele>
        <time>2015-06-15T19:05:09.009Z</time>
      </trkpt>
      <trkpt lat="48.9399" lon="2.30332">
        <ele>84.4</ele>
        <time>2015-06-15T19:05:10.919Z</time>
      </trkpt>
      <trkpt lat="48.93989" lon="2.30327">
        <ele>84.3</ele>
        <time>2015-06-15T19:05:12.006Z</time>
      </trkpt>
      <trkpt lat="48.93988" lon="2.30317">
        <ele>84.8</ele>
        <time>2015-06-15T19:05:13.997Z</time>
      </trkpt>
      <trkpt lat="48.93987" lon="2.30312">
        <ele>85</ele>
        <time>2015-06-15T19:05:15.024Z</time>
      </trkpt>
      <trkpt lat="48.93986" lon="2.30301">
        <ele>85.4</ele>
        <time>2015-06-15T19:05:16.942Z</time>
      </trkpt>
      <trkpt lat="48.93986" lon="2.30296">
        <ele>85.8</ele>
        <time>2015-06-15T19:05:17.963Z</time>
      </trkpt>
      <trkpt lat="48.93985" lon="2.30285">
        <ele>86.5</ele>
        <time>2015-06-15T19:05:20.070Z</time>
      </trkpt>
      <trkpt lat="48.93984" lon="2.3028">
        <ele>86.7</ele>
        <time>2015-06-15T19:05:20.982Z</time>
      </trkpt>
      <trkpt lat="48.93983" lon="2.30268">
        <ele>87.8</ele>
        <time>2015-06-15T19:05:22.884Z</time>
      </trkpt>
      <trkpt lat="48.93983" lon="2.30262">
        <ele>88.2</ele>
        <time>2015-06-15T19:05:23.916Z</time>
      </trkpt>
      <trkpt lat="48.93983" lon="2.30251">
        <ele>87.8</ele>
        <time>2015-06-15T19:05:25.949Z</time>
      </trkpt>
      <trkpt lat="48.93984" lon="2.30245">
        <ele>87.8</ele>
        <time>2015-06-15T19:05:26.996Z</time>
      </trkpt>
      <trkpt lat="48.93984" lon="2.30233">
        <ele>87.5</ele>
        <time>2015-06-15T19:05:28.904Z</time>
      </trkpt>
      <trkpt lat="48.93984" lon="2.30227">
        <ele>87.1</ele>
        <time>2015-06-15T19:05:29.903Z</time>
      </trkpt>
      <trkpt lat="48.93985" lon="2.3022">
        <ele>87.1</ele>
        <time>2015-06-15T19:05:30.985Z</time>
      </trkpt>
      <trkpt lat="48.93986" lon="2.30213">
        <ele>86.7</ele>
        <time>2015-06-15T19:05:31.991Z</time>
      </trkpt>
      <trkpt lat="48.93986" lon="2.30206">
        <ele>86.2</ele>
        <time>2015-06-15T19:05:33.013Z</time>
      </trkpt>
      <trkpt lat="48.93988" lon="2.30198">
        <ele>85.9</ele>
        <time>2015-06-15T19:05:33.911Z</time>
      </trkpt>
      <trkpt lat="48.93989" lon="2.30191">
        <ele>85.7</ele>
        <time>2015-06-15T19:05:34.979Z</time>
      </trkpt>
      <trkpt lat="48.93989" lon="2.30182">
        <ele>85.5</ele>
        <time>2015-06-15T19:05:35.988Z</time>
      </trkpt>
      <trkpt lat="48.9399" lon="2.30174">
        <ele>85.3</ele>
        <time>2015-06-15T19:05:36.995Z</time>
      </trkpt>
      <trkpt lat="48.93992" lon="2.30166">
        <ele>85.3</ele>
        <time>2015-06-15T19:05:37.916Z</time>
      </trkpt>
      <trkpt lat="48.93994" lon="2.30157">
        <ele>85.1</ele>
        <time>2015-06-15T19:05:39.014Z</time>
      </trkpt>
      <trkpt lat="48.93996" lon="2.30149">
        <ele>84.8</ele>
        <time>2015-06-15T19:05:39.910Z</time>
      </trkpt>
      <trkpt lat="48.93998" lon="2.3014">
        <ele>84.7</ele>
        <time>2015-06-15T19:05:41.072Z</time>
      </trkpt>
      <trkpt lat="48.94" lon="2.30131">
        <ele>84.5</ele>
        <time>2015-06-15T19:05:41.929Z</time>
      </trkpt>
      <trkpt lat="48.94001" lon="2.30121">
        <ele>84.4</ele>
        <time>2015-06-15T19:05:42.979Z</time>
      </trkpt>
      <trkpt lat="48.94003" lon="2.30112">
        <ele>84.3</ele>
        <time>2015-06-15T19:05:43.905Z</time>
      </trkpt>
      <trkpt lat="48.94005" lon="2.30103">
        <ele>84.3</ele>
        <time>2015-06-15T19:05:45.065Z</time>
      </trkpt>
      <trkpt lat="48.94007" lon="2.30095">
        <ele>84</ele>
        <time>2015-06-15T19:05:45.974Z</time>
      </trkpt>
      <trkpt lat="48.94008" lon="2.30087">
        <ele>83.8</ele>
        <time>2015-06-15T19:05:46.896Z</time>
      </trkpt>
      <trkpt lat="48.9401" lon="2.30078">
        <ele>83.8</ele>
        <time>2015-06-15T19:05:47.927Z</time>
      </trkpt>
      <trkpt lat="48.94012" lon="2.3007">
        <ele>83.7</ele>
        <time>2015-06-15T19:05:48.910Z</time>
      </trkpt>
      <trkpt lat="48.94013" lon="2.30063">
        <ele>83.4</ele>
        <time>2015-06-15T19:05:49.921Z</time>
      </trkpt>
      <trkpt lat="48.94015" lon="2.30055">
        <ele>83.3</ele>
        <time>2015-06-15T19:05:50.964Z</time>
      </trkpt>
      <trkpt lat="48.94016" lon="2.30048">
        <ele>83.4</ele>
        <time>2015-06-15T19:05:51.956Z</time>
      </trkpt>
      <trkpt lat="48.94018" lon="2.3004">
        <ele>83.4</ele>
        <time>2015-06-15T19:05:52.908Z</time>
      </trkpt>
      <trkpt lat="48.9402" lon="2.30033">
        <ele>83.2</ele>
        <time>2015-06-15T19:05:53.896Z</time>
      </trkpt>
      <trkpt lat="48.94022" lon="2.30026">
        <ele>83.1</ele>
        <time>2015-06-15T19:05:54.949Z</time>
      </trkpt>
      <trkpt lat="48.94024" lon="2.30018">
        <ele>82.3</ele>
        <time>2015-06-15T19:05:55.954Z</time>
      </trkpt>
      <trkpt lat="48.94025" lon="2.30011">
        <ele>82.4</ele>
        <time>2015-06-15T19:05:56.965Z</time>
      </trkpt>
      <trkpt lat="48.94027" lon="2.30004">
        <ele>82.7</ele>
        <time>2015-06-15T19:05:57.956Z</time>
      </trkpt>
      <trkpt lat="48.94029" lon="2.29996">
        <ele>83</ele>
        <time>2015-06-15T19:05:58.947Z</time>
      </trkpt>
      <trkpt lat="48.9403" lon="2.2999">
        <ele>82.9</ele>
        <time>2015-06-15T19:05:59.963Z</time>
      </trkpt>
      <trkpt lat="48.94032" lon="2.29983">
        <ele>82.6</ele>
        <time>2015-06-15T19:06:00.913Z</time>
      </trkpt>
      <trkpt lat="48.94033" lon="2.29976">
        <ele>82.6</ele>
        <time>2015-06-15T19:06:01.914Z</time>
      </trkpt>
      <trkpt lat="48.94036" lon="2.29969">
        <ele>82.5</ele>
        <time>2015-06-15T19:06:03.022Z</time>
      </trkpt>
      <trkpt lat="48.94037" lon="2.29962">
        <ele>82.3</ele>
        <time>2015-06-15T19:06:03.899Z</time>
      </trkpt>
      <trkpt lat="48.9404" lon="2.29956">
        <ele>82</ele>
        <time>2015-06-15T19:06:04.905Z</time>
      </trkpt>
      <trkpt lat="48.94041" lon="2.29949">
        <ele>81.9</ele>
        <time>2015-06-15T19:06:05.918Z</time>
      </trkpt>
      <trkpt lat="48.94043" lon="2.29942">
        <ele>82</ele>
        <time>2015-06-15T19:06:06.937Z</time>
      </trkpt>
      <trkpt lat="48.94044" lon="2.29935">
        <ele>81.9</ele>
        <time>2015-06-15T19:06:07.960Z</time>
      </trkpt>
      <trkpt lat="48.94046" lon="2.29928">
        <ele>81.8</ele>
        <time>2015-06-15T19:06:08.999Z</time>
      </trkpt>
      <trkpt lat="48.94048" lon="2.29921">
        <ele>81.8</ele>
        <time>2015-06-15T19:06:09.950Z</time>
      </trkpt>
      <trkpt lat="48.9405" lon="2.29913">
        <ele>81.6</ele>
        <time>2015-06-15T19:06:10.908Z</time>
      </trkpt>
      <trkpt lat="48.94051" lon="2.29905">
        <ele>81.6</ele>
        <time>2015-06-15T19:06:11.908Z</time>
      </trkpt>
      <trkpt lat="48.94054" lon="2.29898">
        <ele>81.5</ele>
        <time>2015-06-15T19:06:12.922Z</time>
      </trkpt>
      <trkpt lat="48.94057" lon="2.2989">
        <ele>81.2</ele>
        <time>2015-06-15T19:06:13.942Z</time>
      </trkpt>
      <trkpt lat="48.94059" lon="2.29883">
        <ele>81</ele>
        <time>2015-06-15T19:06:14.961Z</time>
      </trkpt>
      <trkpt lat="48.94061" lon="2.29875">
        <ele>81.2</ele>
        <time>2015-06-15T19:06:15.902Z</time>
      </trkpt>
      <trkpt lat="48.94062" lon="2.29866">
        <ele>81.3</ele>
        <time>2015-06-15T19:06:16.917Z</time>
      </trkpt>
      <trkpt lat="48.94064" lon="2.29858">
        <ele>81.4</ele>
        <time>2015-06-15T19:06:17.924Z</time>
      </trkpt>
      <trkpt lat="48.94066" lon="2.2985">
        <ele>81.6</ele>
        <time>2015-06-15T19:06:18.951Z</time>
      </trkpt>
      <trkpt lat="48.94068" lon="2.29842">
        <ele>81.8</ele>
        <time>2015-06-15T19:06:19.963Z</time>
      </trkpt>
      <trkpt lat="48.9407" lon="2.29834">
        <ele>81.9</ele>
        <time>2015-06-15T19:06:20.995Z</time>
      </trkpt>
      <trkpt lat="48.94072" lon="2.29826">
        <ele>82.3</ele>
        <time>2015-06-15T19:06:21.919Z</time>
      </trkpt>
      <trkpt lat="48.94074" lon="2.29818">
        <ele>82.6</ele>
        <time>2015-06-15T19:06:22.907Z</time>
      </trkpt>
      <trkpt lat="48.94076" lon="2.2981">
        <ele>82.8</ele>
        <time>2015-06-15T19:06:23.917Z</time>
      </trkpt>
      <trkpt lat="48.94077" lon="2.29802">
        <ele>83</ele>
        <time>2015-06-15T19:06:24.931Z</time>
      </trkpt>
      <trkpt lat="48.94078" lon="2.29793">
        <ele>83.1</ele>
        <time>2015-06-15T19:06:25.942Z</time>
      </trkpt>
      <trkpt lat="48.94079" lon="2.29784">
        <ele>83.2</ele>
        <time>2015-06-15T19:06:26.941Z</time>
      </trkpt>
      <trkpt lat="48.94081" lon="2.29776">
        <ele>82.9</ele>
        <time>2015-06-15T19:06:27.876Z</time>
      </trkpt>
      <trkpt lat="48.94083" lon="2.29768">
        <ele>83.2</ele>
        <time>2015-06-15T19:06:28.987Z</time>
      </trkpt>
      <trkpt lat="48.94085" lon="2.2976">
        <ele>83.1</ele>
        <time>2015-06-15T19:06:29.930Z</time>
      </trkpt>
      <trkpt lat="48.94086" lon="2.29752">
        <ele>82.8</ele>
        <time>2015-06-15T19:06:30.911Z</time>
      </trkpt>
      <trkpt lat="48.94088" lon="2.29745">
        <ele>83.2</ele>
        <time>2015-06-15T19:06:31.917Z</time>
      </trkpt>
      <trkpt lat="48.9409" lon="2.29737">
        <ele>83.5</ele>
        <time>2015-06-15T19:06:32.979Z</time>
      </trkpt>
      <trkpt lat="48.94091" lon="2.2973">
        <ele>83.8</ele>
        <time>2015-06-15T19:06:33.979Z</time>
      </trkpt>
      <trkpt lat="48.94093" lon="2.29722">
        <ele>83.9</ele>
        <time>2015-06-15T19:06:34.894Z</time>
      </trkpt>
      <trkpt lat="48.94095" lon="2.29714">
        <ele>84</ele>
        <time>2015-06-15T19:06:35.910Z</time>
      </trkpt>
      <trkpt lat="48.94098" lon="2.29707">
        <ele>84.2</ele>
        <time>2015-06-15T19:06:36.921Z</time>
      </trkpt>
      <trkpt lat="48.941" lon="2.29699">
        <ele>84.2</ele>
        <time>2015-06-15T19:06:37.943Z</time>
      </trkpt>
      <trkpt lat="48.94102" lon="2.29691">
        <ele>84.5</ele>
        <time>2015-06-15T19:06:38.959Z</time>
      </trkpt>
      <trkpt lat="48.94105" lon="2.29684">
        <ele>84.3</ele>
        <time>2015-06-15T19:06:39.966Z</time>
      </trkpt>
      <trkpt lat="48.94107" lon="2.29676">
        <ele>84.2</ele>
        <time>2015-06-15T19:06:40.987Z</time>
      </trkpt>
      <trkpt lat="48.94109" lon="2.29669">
        <ele>83.9</ele>
        <time>2015-06-15T19:06:41.904Z</time>
      </trkpt>
      <trkpt lat="48.94111" lon="2.29662">
        <ele>83.7</ele>
        <time>2015-06-15T19:06:42.926Z</time>
      </trkpt>
      <trkpt lat="48.94112" lon="2.29655">
        <ele>83.8</ele>
        <time>2015-06-15T19:06:43.969Z</time>
      </trkpt>
      <trkpt lat="48.94114" lon="2.29647">
        <ele>83.7</ele>
        <time>2015-06-15T19:06:45.000Z</time>
      </trkpt>
      <trkpt lat="48.94115" lon="2.2964">
        <ele>83.9</ele>
        <time>2015-06-15T19:06:45.906Z</time>
      </trkpt>
      <trkpt lat="48.94117" lon="2.29632">
        <ele>84</ele>
        <time>2015-06-15T19:06:46.914Z</time>
      </trkpt>
      <trkpt lat="48.94119" lon="2.29625">
        <ele>84</ele>
        <time>2015-06-15T19:06:47.913Z</time>
      </trkpt>
      <trkpt lat="48.94121" lon="2.29618">
        <ele>84.3</ele>
        <time>2015-06-15T19:06:48.927Z</time>
      </trkpt>
      <trkpt lat="48.94123" lon="2.29611">
        <ele>84.5</ele>
        <time>2015-06-15T19:06:49.935Z</time>
      </trkpt>
      <trkpt lat="48.94125" lon="2.29604">
        <ele>84.5</ele>
        <time>2015-06-15T19:06:50.967Z</time>
      </trkpt>
      <trkpt lat="48.94127" lon="2.29597">
        <ele>84.6</ele>
        <time>2015-06-15T19:06:51.959Z</time>
      </trkpt>
      <trkpt lat="48.94129" lon="2.2959">
        <ele>84.2</ele>
        <time>2015-06-15T19:06:52.968Z</time>
      </trkpt>
      <trkpt lat="48.94132" lon="2.29583">
        <ele>83.9</ele>
        <time>2015-06-15T19:06:53.977Z</time>
      </trkpt>
      <trkpt lat="48.94134" lon="2.29576">
        <ele>83.6</ele>
        <time>2015-06-15T19:06:54.911Z</time>
      </trkpt>
      <trkpt lat="48.94137" lon="2.29571">
        <ele>83.3</ele>
        <time>2015-06-15T19:06:55.895Z</time>
      </trkpt>
      <trkpt lat="48.9414" lon="2.29559">
        <ele>82.9</ele>
        <time>2015-06-15T19:06:57.986Z</time>
      </trkpt>
      <trkpt lat="48.94143" lon="2.29553">
        <ele>83.2</ele>
        <time>2015-06-15T19:06:58.908Z</time>
      </trkpt>
      <trkpt lat="48.94147" lon="2.29549">
        <ele>83.1</ele>
        <time>2015-06-15T19:06:59.910Z</time>
      </trkpt>
      <trkpt lat="48.94151" lon="2.29545">
        <ele>83.2</ele>
        <time>2015-06-15T19:07:00.960Z</time>
      </trkpt>
      <trkpt lat="48.94155" lon="2.29542">
        <ele>83.2</ele>
        <time>2015-06-15T19:07:01.914Z</time>
      </trkpt>
      <trkpt lat="48.94159" lon="2.2954">
        <ele>83.1</ele>
        <time>2015-06-15T19:07:03.005Z</time>
      </trkpt>
      <trkpt lat="48.94166" lon="2.29534">
        <ele>82.6</ele>
        <time>2015-06-15T19:07:04.919Z</time>
      </trkpt>
      <trkpt lat="48.94169" lon="2.29531">
        <ele>82.6</ele>
        <time>2015-06-15T19:07:05.935Z</time>
      </trkpt>
      <trkpt lat="48.94175" lon="2.29523">
        <ele>82.6</ele>
        <time>2015-06-15T19:07:07.965Z</time>
      </trkpt>
      <trkpt lat="48.94176" lon="2.29518">
        <ele>82.5</ele>
        <time>2015-06-15T19:07:08.994Z</time>
      </trkpt>
      <trkpt lat="48.94178" lon="2.29508">
        <ele>82.6</ele>
        <time>2015-06-15T19:07:10.932Z</time>
      </trkpt>
      <trkpt lat="48.94179" lon="2.29504">
        <ele>82.6</ele>
        <time>2015-06-15T19:07:11.928Z</time>
      </trkpt>
      <trkpt lat="48.94178" lon="2.29491">
        <ele>83.3</ele>
        <time>2015-06-15T19:07:15.957Z</time>
      </trkpt>
      <trkpt lat="48.94178" lon="2.29489">
        <ele>83.1</ele>
        <time>2015-06-15T19:07:17.126Z</time>
      </trkpt>
      <trkpt lat="48.94171" lon="2.29483">
        <ele>84.3</ele>
        <time>2015-06-15T19:07:24.940Z</time>
      </trkpt>
      <trkpt lat="48.9417" lon="2.29482">
        <ele>84.3</ele>
        <time>2015-06-15T19:07:25.955Z</time>
      </trkpt>
      <trkpt lat="48.94162" lon="2.29479">
        <ele>84.2</ele>
        <time>2015-06-15T19:07:29.989Z</time>
      </trkpt>
      <trkpt lat="48.9416" lon="2.29478">
        <ele>84.3</ele>
        <time>2015-06-15T19:07:30.943Z</time>
      </trkpt>
      <trkpt lat="48.94154" lon="2.29469">
        <ele>84.3</ele>
        <time>2015-06-15T19:07:33.885Z</time>
      </trkpt>
      <trkpt lat="48.94152" lon="2.29466">
        <ele>84.1</ele>
        <time>2015-06-15T19:07:34.896Z</time>
      </trkpt>
      <trkpt lat="48.94148" lon="2.29457">
        <ele>84.4</ele>
        <time>2015-06-15T19:07:36.949Z</time>
      </trkpt>
      <trkpt lat="48.94146" lon="2.29453">
        <ele>84.5</ele>
        <time>2015-06-15T19:07:37.972Z</time>
      </trkpt>
      <trkpt lat="48.94142" lon="2.29443">
        <ele>85</ele>
        <time>2015-06-15T19:07:39.916Z</time>
      </trkpt>
      <trkpt lat="48.94141" lon="2.29438">
        <ele>85</ele>
        <time>2015-06-15T19:07:40.932Z</time>
      </trkpt>
      <trkpt lat="48.94138" lon="2.29428">
        <ele>85.1</ele>
        <time>2015-06-15T19:07:42.976Z</time>
      </trkpt>
      <trkpt lat="48.94136" lon="2.29423">
        <ele>84.9</ele>
        <time>2015-06-15T19:07:43.994Z</time>
      </trkpt>
      <trkpt lat="48.94132" lon="2.29412">
        <ele>85.2</ele>
        <time>2015-06-15T19:07:45.938Z</time>
      </trkpt>
      <trkpt lat="48.9413" lon="2.29407">
        <ele>85.6</ele>
        <time>2015-06-15T19:07:46.946Z</time>
      </trkpt>
      <trkpt lat="48.94127" lon="2.29396">
        <ele>86</ele>
        <time>2015-06-15T19:07:48.906Z</time>
      </trkpt>
      <trkpt lat="48.94125" lon="2.2939">
        <ele>86.1</ele>
        <time>2015-06-15T19:07:49.912Z</time>
      </trkpt>
      <trkpt lat="48.94121" lon="2.29378">
        <ele>86.5</ele>
        <time>2015-06-15T19:07:51.975Z</time>
      </trkpt>
      <trkpt lat="48.94119" lon="2.29373">
        <ele>86.8</ele>
        <time>2015-06-15T19:07:52.930Z</time>
      </trkpt>
      <trkpt lat="48.94115" lon="2.29361">
        <ele>87.2</ele>
        <time>2015-06-15T19:07:54.899Z</time>
      </trkpt>
      <trkpt lat="48.94113" lon="2.29355">
        <ele>87.3</ele>
        <time>2015-06-15T19:07:55.907Z</time>
      </trkpt>
      <trkpt lat="48.9411" lon="2.29348">
        <ele>87.4</ele>
        <time>2015-06-15T19:07:56.937Z</time>
      </trkpt>
      <trkpt lat="48.94108" lon="2.29342">
        <ele>87.3</ele>
        <time>2015-06-15T19:07:57.942Z</time>
      </trkpt>
      <trkpt lat="48.94105" lon="2.29336">
        <ele>87.4</ele>
        <time>2015-06-15T19:07:58.965Z</time>
      </trkpt>
      <trkpt lat="48.94103" lon="2.2933">
        <ele>87.4</ele>
        <time>2015-06-15T19:08:00.001Z</time>
      </trkpt>
      <trkpt lat="48.94101" lon="2.29323">
        <ele>87.5</ele>
        <time>2015-06-15T19:08:00.903Z</time>
      </trkpt>
      <trkpt lat="48.941" lon="2.29316">
        <ele>87.5</ele>
        <time>2015-06-15T19:08:01.876Z</time>
      </trkpt>
      <trkpt lat="48.94098" lon="2.29309">
        <ele>87.7</ele>
        <time>2015-06-15T19:08:03.136Z</time>
      </trkpt>
      <trkpt lat="48.94097" lon="2.29302">
        <ele>87.7</ele>
        <time>2015-06-15T19:08:03.964Z</time>
      </trkpt>
      <trkpt lat="48.94095" lon="2.29291">
        <ele>87.2</ele>
        <time>2015-06-15T19:08:05.901Z</time>
      </trkpt>
      <trkpt lat="48.94096" lon="2.29285">
        <ele>86.7</ele>
        <time>2015-06-15T19:08:06.904Z</time>
      </trkpt>
      <trkpt lat="48.94094" lon="2.29272">
        <ele>86.4</ele>
        <time>2015-06-15T19:08:08.942Z</time>
      </trkpt>
      <trkpt lat="48.94093" lon="2.29267">
        <ele>86.5</ele>
        <time>2015-06-15T19:08:10.124Z</time>
      </trkpt>
      <trkpt lat="48.9409" lon="2.29256">
        <ele>86.9</ele>
        <time>2015-06-15T19:08:11.933Z</time>
      </trkpt>
      <trkpt lat="48.94089" lon="2.29249">
        <ele>87.2</ele>
        <time>2015-06-15T19:08:13.047Z</time>
      </trkpt>
      <trkpt lat="48.94088" lon="2.29243">
        <ele>87.4</ele>
        <time>2015-06-15T19:08:13.973Z</time>
      </trkpt>
      <trkpt lat="48.9409" lon="2.29236">
        <ele>88.4</ele>
        <time>2015-06-15T19:08:15.353Z</time>
      </trkpt>
      <trkpt lat="48.94087" lon="2.29224">
        <ele>88.3</ele>
        <time>2015-06-15T19:08:16.905Z</time>
      </trkpt>
      <trkpt lat="48.94085" lon="2.29218">
        <ele>88.3</ele>
        <time>2015-06-15T19:08:17.975Z</time>
      </trkpt>
      <trkpt lat="48.94084" lon="2.29205">
        <ele>88.4</ele>
        <time>2015-06-15T19:08:19.931Z</time>
      </trkpt>
      <trkpt lat="48.94082" lon="2.29198">
        <ele>88</ele>
        <time>2015-06-15T19:08:20.976Z</time>
      </trkpt>
      <trkpt lat="48.94081" lon="2.2919">
        <ele>87.4</ele>
        <time>2015-06-15T19:08:21.895Z</time>
      </trkpt>
      <trkpt lat="48.9408" lon="2.29183">
        <ele>87.2</ele>
        <time>2015-06-15T19:08:22.912Z</time>
      </trkpt>
      <trkpt lat="48.94078" lon="2.29176">
        <ele>86.8</ele>
        <time>2015-06-15T19:08:23.934Z</time>
      </trkpt>
      <trkpt lat="48.94077" lon="2.29169">
        <ele>86.5</ele>
        <time>2015-06-15T19:08:24.946Z</time>
      </trkpt>
      <trkpt lat="48.94079" lon="2.29157">
        <ele>85.4</ele>
        <time>2015-06-15T19:08:27.006Z</time>
      </trkpt>
      <trkpt lat="48.94081" lon="2.29153">
        <ele>85.1</ele>
        <time>2015-06-15T19:08:27.909Z</time>
      </trkpt>
      <trkpt lat="48.94088" lon="2.29148">
        <ele>84.5</ele>
        <time>2015-06-15T19:08:29.926Z</time>
      </trkpt>
      <trkpt lat="48.94092" lon="2.29146">
        <ele>84.1</ele>
        <time>2015-06-15T19:08:30.938Z</time>
      </trkpt>
      <trkpt lat="48.94099" lon="2.29141">
        <ele>84.1</ele>
        <time>2015-06-15T19:08:33.063Z</time>
      </trkpt>
      <trkpt lat="48.94103" lon="2.29139">
        <ele>83.7</ele>
        <time>2015-06-15T19:08:33.918Z</time>
      </trkpt>
      <trkpt lat="48.94111" lon="2.29135">
        <ele>82.8</ele>
        <time>2015-06-15T19:08:35.982Z</time>
      </trkpt>
      <trkpt lat="48.94115" lon="2.29133">
        <ele>82.5</ele>
        <time>2015-06-15T19:08:36.892Z</time>
      </trkpt>
      <trkpt lat="48.94123" lon="2.29128">
        <ele>81.8</ele>
        <time>2015-06-15T19:08:38.969Z</time>
      </trkpt>
      <trkpt lat="48.94127" lon="2.29124">
        <ele>81.7</ele>
        <time>2015-06-15T19:08:39.882Z</time>
      </trkpt>
      <trkpt lat="48.94134" lon="2.29117">
        <ele>81.8</ele>
        <time>2015-06-15T19:08:41.942Z</time>
      </trkpt>
      <trkpt lat="48.94137" lon="2.29112">
        <ele>81.9</ele>
        <time>2015-06-15T19:08:42.953Z</time>
      </trkpt>
      <trkpt lat="48.94143" lon="2.29101">
        <ele>81.7</ele>
        <time>2015-06-15T19:08:44.983Z</time>
      </trkpt>
      <trkpt lat="48.94146" lon="2.29096">
        <ele>81.5</ele>
        <time>2015-06-15T19:08:45.867Z</time>
      </trkpt>
      <trkpt lat="48.9415" lon="2.29091">
        <ele>81.4</ele>
        <time>2015-06-15T19:08:46.879Z</time>
      </trkpt>
      <trkpt lat="48.94153" lon="2.29086">
        <ele>81.3</ele>
        <time>2015-06-15T19:08:47.896Z</time>
      </trkpt>
      <trkpt lat="48.94156" lon="2.2908">
        <ele>81.3</ele>
        <time>2015-06-15T19:08:48.918Z</time>
      </trkpt>
      <trkpt lat="48.9416" lon="2.29075">
        <ele>81.2</ele>
        <time>2015-06-15T19:08:49.924Z</time>
      </trkpt>
      <trkpt lat="48.94163" lon="2.29069">
        <ele>81.1</ele>
        <time>2015-06-15T19:08:50.954Z</time>
      </trkpt>
      <trkpt lat="48.94166" lon="2.29063">
        <ele>81</ele>
        <time>2015-06-15T19:08:51.970Z</time>
      </trkpt>
      <trkpt lat="48.9417" lon="2.29058">
        <ele>80.9</ele>
        <time>2015-06-15T19:08:52.911Z</time>
      </trkpt>
      <trkpt lat="48.94174" lon="2.29053">
        <ele>80.9</ele>
        <time>2015-06-15T19:08:53.887Z</time>
      </trkpt>
      <trkpt lat="48.94178" lon="2.29048">
        <ele>80.8</ele>
        <time>2015-06-15T19:08:54.983Z</time>
      </trkpt>
      <trkpt lat="48.94181" lon="2.29043">
        <ele>80.8</ele>
        <time>2015-06-15T19:08:55.912Z</time>
      </trkpt>
      <trkpt lat="48.94185" lon="2.29037">
        <ele>80.7</ele>
        <time>2015-06-15T19:08:56.938Z</time>
      </trkpt>
      <trkpt lat="48.94188" lon="2.29031">
        <ele>80.6</ele>
        <time>2015-06-15T19:08:57.951Z</time>
      </trkpt>
      <trkpt lat="48.94192" lon="2.29026">
        <ele>80.5</ele>
        <time>2015-06-15T19:08:58.863Z</time>
      </trkpt>
      <trkpt lat="48.94195" lon="2.2902">
        <ele>80.6</ele>
        <time>2015-06-15T19:08:59.895Z</time>
      </trkpt>
      <trkpt lat="48.94198" lon="2.29013">
        <ele>80.5</ele>
        <time>2015-06-15T19:09:00.927Z</time>
      </trkpt>
      <trkpt lat="48.94202" lon="2.29007">
        <ele>80.4</ele>
        <time>2015-06-15T19:09:01.908Z</time>
      </trkpt>
      <trkpt lat="48.94205" lon="2.29001">
        <ele>80.2</ele>
        <time>2015-06-15T19:09:03.027Z</time>
      </trkpt>
      <trkpt lat="48.94208" lon="2.28995">
        <ele>80</ele>
        <time>2015-06-15T19:09:03.919Z</time>
      </trkpt>
      <trkpt lat="48.94212" lon="2.28989">
        <ele>80</ele>
        <time>2015-06-15T19:09:04.942Z</time>
      </trkpt>
      <trkpt lat="48.94215" lon="2.28983">
        <ele>79.7</ele>
        <time>2015-06-15T19:09:05.939Z</time>
      </trkpt>
      <trkpt lat="48.94219" lon="2.28977">
        <ele>79.6</ele>
        <time>2015-06-15T19:09:06.914Z</time>
      </trkpt>
      <trkpt lat="48.94222" lon="2.28971">
        <ele>79.3</ele>
        <time>2015-06-15T19:09:07.856Z</time>
      </trkpt>
      <trkpt lat="48.94226" lon="2.28965">
        <ele>79.2</ele>
        <time>2015-06-15T19:09:08.898Z</time>
      </trkpt>
      <trkpt lat="48.9423" lon="2.28959">
        <ele>79.1</ele>
        <time>2015-06-15T19:09:09.884Z</time>
      </trkpt>
      <trkpt lat="48.94233" lon="2.28953">
        <ele>79</ele>
        <time>2015-06-15T19:09:10.920Z</time>
      </trkpt>
      <trkpt lat="48.94237" lon="2.28947">
        <ele>78.8</ele>
        <time>2015-06-15T19:09:11.968Z</time>
      </trkpt>
      <trkpt lat="48.9424" lon="2.2894">
        <ele>78.7</ele>
        <time>2015-06-15T19:09:12.876Z</time>
      </trkpt>
      <trkpt lat="48.94244" lon="2.28935">
        <ele>78.7</ele>
        <time>2015-06-15T19:09:13.906Z</time>
      </trkpt>
      <trkpt lat="48.94248" lon="2.28929">
        <ele>78.7</ele>
        <time>2015-06-15T19:09:15.009Z</time>
      </trkpt>
      <trkpt lat="48.94251" lon="2.28923">
        <ele>78.7</ele>
        <time>2015-06-15T19:09:15.853Z</time>
      </trkpt>
      <trkpt lat="48.94255" lon="2.28918">
        <ele>78.7</ele>
        <time>2015-06-15T19:09:16.926Z</time>
      </trkpt>
      <trkpt lat="48.94259" lon="2.28912">
        <ele>78.9</ele>
        <time>2015-06-15T19:09:17.892Z</time>
      </trkpt>
      <trkpt lat="48.94262" lon="2.28906">
        <ele>78.9</ele>
        <time>2015-06-15T19:09:18.926Z</time>
      </trkpt>
      <trkpt lat="48.94266" lon="2.289">
        <ele>78.9</ele>
        <time>2015-06-15T19:09:19.951Z</time>
      </trkpt>
      <trkpt lat="48.94269" lon="2.28894">
        <ele>79.1</ele>
        <time>2015-06-15T19:09:20.920Z</time>
      </trkpt>
      <trkpt lat="48.94272" lon="2.28889">
        <ele>79.1</ele>
        <time>2015-06-15T19:09:21.969Z</time>
      </trkpt>
      <trkpt lat="48.94276" lon="2.28883">
        <ele>79.2</ele>
        <time>2015-06-15T19:09:22.871Z</time>
      </trkpt>
      <trkpt lat="48.94279" lon="2.28877">
        <ele>79.2</ele>
        <time>2015-06-15T19:09:23.923Z</time>
      </trkpt>
      <trkpt lat="48.94282" lon="2.28871">
        <ele>79.3</ele>
        <time>2015-06-15T19:09:24.936Z</time>
      </trkpt>
      <trkpt lat="48.94285" lon="2.28865">
        <ele>79.4</ele>
        <time>2015-06-15T19:09:25.944Z</time>
      </trkpt>
      <trkpt lat="48.94288" lon="2.28859">
        <ele>79.5</ele>
        <time>2015-06-15T19:09:27.039Z</time>
      </trkpt>
      <trkpt lat="48.94291" lon="2.28853">
        <ele>79.8</ele>
        <time>2015-06-15T19:09:27.908Z</time>
      </trkpt>
      <trkpt lat="48.94295" lon="2.28846">
        <ele>80.5</ele>
        <time>2015-06-15T19:09:28.943Z</time>
      </trkpt>
      <trkpt lat="48.94298" lon="2.2884">
        <ele>80.6</ele>
        <time>2015-06-15T19:09:29.930Z</time>
      </trkpt>
      <trkpt lat="48.94301" lon="2.28834">
        <ele>80.9</ele>
        <time>2015-06-15T19:09:30.976Z</time>
      </trkpt>
      <trkpt lat="48.94305" lon="2.28827">
        <ele>80.9</ele>
        <time>2015-06-15T19:09:32.014Z</time>
      </trkpt>
      <trkpt lat="48.94308" lon="2.28822">
        <ele>81.1</ele>
        <time>2015-06-15T19:09:33.046Z</time>
      </trkpt>
      <trkpt lat="48.94311" lon="2.28815">
        <ele>80.8</ele>
        <time>2015-06-15T19:09:33.925Z</time>
      </trkpt>
      <trkpt lat="48.94313" lon="2.28808">
        <ele>80.6</ele>
        <time>2015-06-15T19:09:34.925Z</time>
      </trkpt>
      <trkpt lat="48.94315" lon="2.28801">
        <ele>80.4</ele>
        <time>2015-06-15T19:09:35.940Z</time>
      </trkpt>
      <trkpt lat="48.94318" lon="2.28795">
        <ele>80.4</ele>
        <time>2015-06-15T19:09:36.862Z</time>
      </trkpt>
      <trkpt lat="48.94321" lon="2.28788">
        <ele>80.3</ele>
        <time>2015-06-15T19:09:37.933Z</time>
      </trkpt>
      <trkpt lat="48.94323" lon="2.28779">
        <ele>80.3</ele>
        <time>2015-06-15T19:09:38.984Z</time>
      </trkpt>
      <trkpt lat="48.94326" lon="2.28773">
        <ele>80.3</ele>
        <time>2015-06-15T19:09:39.896Z</time>
      </trkpt>
      <trkpt lat="48.9433" lon="2.2877">
        <ele>80</ele>
        <time>2015-06-15T19:09:40.888Z</time>
      </trkpt>
      <trkpt lat="48.94334" lon="2.28764">
        <ele>80.1</ele>
        <time>2015-06-15T19:09:41.915Z</time>
      </trkpt>
      <trkpt lat="48.94337" lon="2.28756">
        <ele>81</ele>
        <time>2015-06-15T19:09:43.071Z</time>
      </trkpt>
      <trkpt lat="48.9434" lon="2.28749">
        <ele>81.4</ele>
        <time>2015-06-15T19:09:43.913Z</time>
      </trkpt>
      <trkpt lat="48.94343" lon="2.28742">
        <ele>81.3</ele>
        <time>2015-06-15T19:09:44.951Z</time>
      </trkpt>
      <trkpt lat="48.94346" lon="2.28734">
        <ele>81.5</ele>
        <time>2015-06-15T19:09:45.905Z</time>
      </trkpt>
      <trkpt lat="48.9435" lon="2.28727">
        <ele>81.6</ele>
        <time>2015-06-15T19:09:46.900Z</time>
      </trkpt>
      <trkpt lat="48.94354" lon="2.28721">
        <ele>81.9</ele>
        <time>2015-06-15T19:09:47.907Z</time>
      </trkpt>
      <trkpt lat="48.94358" lon="2.28714">
        <ele>82.2</ele>
        <time>2015-06-15T19:09:48.913Z</time>
      </trkpt>
      <trkpt lat="48.94362" lon="2.28708">
        <ele>82.4</ele>
        <time>2015-06-15T19:09:49.931Z</time>
      </trkpt>
      <trkpt lat="48.94366" lon="2.28701">
        <ele>82.5</ele>
        <time>2015-06-15T19:09:50.966Z</time>
      </trkpt>
      <trkpt lat="48.9437" lon="2.28695">
        <ele>82.5</ele>
        <time>2015-06-15T19:09:51.852Z</time>
      </trkpt>
      <trkpt lat="48.94373" lon="2.28688">
        <ele>82.6</ele>
        <time>2015-06-15T19:09:53.248Z</time>
      </trkpt>
      <trkpt lat="48.94377" lon="2.28681">
        <ele>82.8</ele>
        <time>2015-06-15T19:09:53.891Z</time>
      </trkpt>
      <trkpt lat="48.94381" lon="2.28674">
        <ele>83</ele>
        <time>2015-06-15T19:09:54.910Z</time>
      </trkpt>
      <trkpt lat="48.94385" lon="2.28667">
        <ele>83</ele>
        <time>2015-06-15T19:09:55.916Z</time>
      </trkpt>
      <trkpt lat="48.94389" lon="2.28661">
        <ele>82.9</ele>
        <time>2015-06-15T19:09:56.942Z</time>
      </trkpt>
      <trkpt lat="48.94393" lon="2.28654">
        <ele>82.7</ele>
        <time>2015-06-15T19:09:57.992Z</time>
      </trkpt>
      <trkpt lat="48.94396" lon="2.28646">
        <ele>82.8</ele>
        <time>2015-06-15T19:09:58.876Z</time>
      </trkpt>
      <trkpt lat="48.944" lon="2.28639">
        <ele>82.5</ele>
        <time>2015-06-15T19:09:59.925Z</time>
      </trkpt>
      <trkpt lat="48.94404" lon="2.28632">
        <ele>82.2</ele>
        <time>2015-06-15T19:10:00.908Z</time>
      </trkpt>
      <trkpt lat="48.94408" lon="2.28625">
        <ele>82.2</ele>
        <time>2015-06-15T19:10:01.917Z</time>
      </trkpt>
      <trkpt lat="48.94411" lon="2.28618">
        <ele>81.8</ele>
        <time>2015-06-15T19:10:02.964Z</time>
      </trkpt>
      <trkpt lat="48.94415" lon="2.28612">
        <ele>81.8</ele>
        <time>2015-06-15T19:10:03.841Z</time>
      </trkpt>
      <trkpt lat="48.94419" lon="2.28605">
        <ele>81.9</ele>
        <time>2015-06-15T19:10:04.941Z</time>
      </trkpt>
      <trkpt lat="48.94423" lon="2.28598">
        <ele>81.9</ele>
        <time>2015-06-15T19:10:05.915Z</time>
      </trkpt>
      <trkpt lat="48.94427" lon="2.28591">
        <ele>81.9</ele>
        <time>2015-06-15T19:10:06.930Z</time>
      </trkpt>
      <trkpt lat="48.94431" lon="2.28585">
        <ele>81.7</ele>
        <time>2015-06-15T19:10:07.934Z</time>
      </trkpt>
      <trkpt lat="48.94435" lon="2.28578">
        <ele>81.7</ele>
        <time>2015-06-15T19:10:08.947Z</time>
      </trkpt>
      <trkpt lat="48.94439" lon="2.28572">
        <ele>81.7</ele>
        <time>2015-06-15T19:10:09.956Z</time>
      </trkpt>
      <trkpt lat="48.94443" lon="2.28566">
        <ele>81.6</ele>
        <time>2015-06-15T19:10:10.843Z</time>
      </trkpt>
      <trkpt lat="48.94448" lon="2.28561">
        <ele>81.5</ele>
        <time>2015-06-15T19:10:11.872Z</time>
      </trkpt>
      <trkpt lat="48.94452" lon="2.28555">
        <ele>81.5</ele>
        <time>2015-06-15T19:10:12.916Z</time>
      </trkpt>
      <trkpt lat="48.94455" lon="2.28548">
        <ele>81.2</ele>
        <time>2015-06-15T19:10:13.928Z</time>
      </trkpt>
      <trkpt lat="48.94459" lon="2.28541">
        <ele>81.3</ele>
        <time>2015-06-15T19:10:15.036Z</time>
      </trkpt>
      <trkpt lat="48.94462" lon="2.28533">
        <ele>81.9</ele>
        <time>2015-06-15T19:10:15.987Z</time>
      </trkpt>
      <trkpt lat="48.94467" lon="2.28525">
        <ele>83.8</ele>
        <time>2015-06-15T19:10:16.881Z</time>
      </trkpt>
      <trkpt lat="48.94471" lon="2.28516">
        <ele>85.3</ele>
        <time>2015-06-15T19:10:17.902Z</time>
      </trkpt>
      <trkpt lat="48.94474" lon="2.28509">
        <ele>85.7</ele>
        <time>2015-06-15T19:10:18.914Z</time>
      </trkpt>
      <trkpt lat="48.94477" lon="2.28501">
        <ele>85.9</ele>
        <time>2015-06-15T19:10:19.915Z</time>
      </trkpt>
      <trkpt lat="48.94479" lon="2.28493">
        <ele>85.8</ele>
        <time>2015-06-15T19:10:20.952Z</time>
      </trkpt>
      <trkpt lat="48.94481" lon="2.28486">
        <ele>85.4</ele>
        <time>2015-06-15T19:10:21.857Z</time>
      </trkpt>
      <trkpt lat="48.94484" lon="2.28479">
        <ele>85.3</ele>
        <time>2015-06-15T19:10:22.872Z</time>
      </trkpt>
      <trkpt lat="48.94487" lon="2.28472">
        <ele>84.9</ele>
        <time>2015-06-15T19:10:24.150Z</time>
      </trkpt>
      <trkpt lat="48.9449" lon="2.28465">
        <ele>84.5</ele>
        <time>2015-06-15T19:10:24.911Z</time>
      </trkpt>
      <trkpt lat="48.94492" lon="2.28459">
        <ele>84.2</ele>
        <time>2015-06-15T19:10:25.922Z</time>
      </trkpt>
      <trkpt lat="48.94495" lon="2.28452">
        <ele>84</ele>
        <time>2015-06-15T19:10:26.982Z</time>
      </trkpt>
      <trkpt lat="48.94498" lon="2.28446">
        <ele>83.7</ele>
        <time>2015-06-15T19:10:28.025Z</time>
      </trkpt>
      <trkpt lat="48.94502" lon="2.2844">
        <ele>83.8</ele>
        <time>2015-06-15T19:10:28.889Z</time>
      </trkpt>
      <trkpt lat="48.94506" lon="2.28434">
        <ele>83.6</ele>
        <time>2015-06-15T19:10:29.901Z</time>
      </trkpt>
      <trkpt lat="48.9451" lon="2.28428">
        <ele>83.6</ele>
        <time>2015-06-15T19:10:30.940Z</time>
      </trkpt>
      <trkpt lat="48.94513" lon="2.28422">
        <ele>83.9</ele>
        <time>2015-06-15T19:10:31.950Z</time>
      </trkpt>
      <trkpt lat="48.94517" lon="2.28417">
        <ele>83.7</ele>
        <time>2015-06-15T19:10:33.016Z</time>
      </trkpt>
      <trkpt lat="48.94521" lon="2.28411">
        <ele>83.8</ele>
        <time>2015-06-15T19:10:33.890Z</time>
      </trkpt>
      <trkpt lat="48.94525" lon="2.28406">
        <ele>83.8</ele>
        <time>2015-06-15T19:10:34.888Z</time>
      </trkpt>
      <trkpt lat="48.94529" lon="2.284">
        <ele>83.8</ele>
        <time>2015-06-15T19:10:35.941Z</time>
      </trkpt>
      <trkpt lat="48.94533" lon="2.28394">
        <ele>83.8</ele>
        <time>2015-06-15T19:10:36.954Z</time>
      </trkpt>
      <trkpt lat="48.94536" lon="2.28388">
        <ele>83.6</ele>
        <time>2015-06-15T19:10:37.902Z</time>
      </trkpt>
      <trkpt lat="48.94538" lon="2.28382">
        <ele>83.1</ele>
        <time>2015-06-15T19:10:38.980Z</time>
      </trkpt>
      <trkpt lat="48.94542" lon="2.28375">
        <ele>83</ele>
        <time>2015-06-15T19:10:39.876Z</time>
      </trkpt>
      <trkpt lat="48.94545" lon="2.28369">
        <ele>82.9</ele>
        <time>2015-06-15T19:10:40.875Z</time>
      </trkpt>
      <trkpt lat="48.94549" lon="2.28362">
        <ele>82.9</ele>
        <time>2015-06-15T19:10:41.889Z</time>
      </trkpt>
      <trkpt lat="48.94553" lon="2.28358">
        <ele>82.9</ele>
        <time>2015-06-15T19:10:42.902Z</time>
      </trkpt>
      <trkpt lat="48.94557" lon="2.28351">
        <ele>82.9</ele>
        <time>2015-06-15T19:10:43.919Z</time>
      </trkpt>
      <trkpt lat="48.9456" lon="2.28345">
        <ele>83</ele>
        <time>2015-06-15T19:10:44.950Z</time>
      </trkpt>
      <trkpt lat="48.94563" lon="2.28338">
        <ele>82.9</ele>
        <time>2015-06-15T19:10:45.944Z</time>
      </trkpt>
      <trkpt lat="48.94567" lon="2.28332">
        <ele>82.8</ele>
        <time>2015-06-15T19:10:47.016Z</time>
      </trkpt>
      <trkpt lat="48.9457" lon="2.28326">
        <ele>82.8</ele>
        <time>2015-06-15T19:10:47.932Z</time>
      </trkpt>
      <trkpt lat="48.94572" lon="2.28319">
        <ele>82.6</ele>
        <time>2015-06-15T19:10:48.934Z</time>
      </trkpt>
      <trkpt lat="48.94575" lon="2.28313">
        <ele>82.4</ele>
        <time>2015-06-15T19:10:49.973Z</time>
      </trkpt>
      <trkpt lat="48.94578" lon="2.28308">
        <ele>82.4</ele>
        <time>2015-06-15T19:10:50.993Z</time>
      </trkpt>
      <trkpt lat="48.94581" lon="2.28303">
        <ele>82.2</ele>
        <time>2015-06-15T19:10:51.901Z</time>
      </trkpt>
      <trkpt lat="48.94585" lon="2.28297">
        <ele>81.9</ele>
        <time>2015-06-15T19:10:52.907Z</time>
      </trkpt>
      <trkpt lat="48.94589" lon="2.28292">
        <ele>82.2</ele>
        <time>2015-06-15T19:10:53.929Z</time>
      </trkpt>
      <trkpt lat="48.94592" lon="2.28287">
        <ele>82.8</ele>
        <time>2015-06-15T19:10:54.935Z</time>
      </trkpt>
      <trkpt lat="48.94596" lon="2.28282">
        <ele>82.5</ele>
        <time>2015-06-15T19:10:55.958Z</time>
      </trkpt>
      <trkpt lat="48.94599" lon="2.28276">
        <ele>82.5</ele>
        <time>2015-06-15T19:10:56.973Z</time>
      </trkpt>
      <trkpt lat="48.94602" lon="2.28271">
        <ele>82.7</ele>
        <time>2015-06-15T19:10:57.980Z</time>
      </trkpt>
      <trkpt lat="48.94606" lon="2.28265">
        <ele>82.8</ele>
        <time>2015-06-15T19:10:58.980Z</time>
      </trkpt>
      <trkpt lat="48.94609" lon="2.2826">
        <ele>83.1</ele>
        <time>2015-06-15T19:10:59.895Z</time>
      </trkpt>
      <trkpt lat="48.94613" lon="2.28254">
        <ele>83.1</ele>
        <time>2015-06-15T19:11:00.900Z</time>
      </trkpt>
      <trkpt lat="48.94616" lon="2.28249">
        <ele>83.2</ele>
        <time>2015-06-15T19:11:01.913Z</time>
      </trkpt>
      <trkpt lat="48.94622" lon="2.2824">
        <ele>83.2</ele>
        <time>2015-06-15T19:11:03.901Z</time>
      </trkpt>
      <trkpt lat="48.94625" lon="2.28236">
        <ele>83.1</ele>
        <time>2015-06-15T19:11:04.926Z</time>
      </trkpt>
      <trkpt lat="48.9463" lon="2.28227">
        <ele>83.2</ele>
        <time>2015-06-15T19:11:06.979Z</time>
      </trkpt>
      <trkpt lat="48.94632" lon="2.28222">
        <ele>83.2</ele>
        <time>2015-06-15T19:11:07.965Z</time>
      </trkpt>
      <trkpt lat="48.94637" lon="2.28213">
        <ele>82.8</ele>
        <time>2015-06-15T19:11:09.902Z</time>
      </trkpt>
      <trkpt lat="48.9464" lon="2.28208">
        <ele>83</ele>
        <time>2015-06-15T19:11:10.908Z</time>
      </trkpt>
      <trkpt lat="48.94645" lon="2.28198">
        <ele>83.7</ele>
        <time>2015-06-15T19:11:12.968Z</time>
      </trkpt>
      <trkpt lat="48.94647" lon="2.28194">
        <ele>83.8</ele>
        <time>2015-06-15T19:11:13.980Z</time>
      </trkpt>
      <trkpt lat="48.94652" lon="2.28186">
        <ele>84</ele>
        <time>2015-06-15T19:11:16.028Z</time>
      </trkpt>
      <trkpt lat="48.94655" lon="2.28182">
        <ele>83.9</ele>
        <time>2015-06-15T19:11:16.973Z</time>
      </trkpt>
      <trkpt lat="48.94659" lon="2.28175">
        <ele>84</ele>
        <time>2015-06-15T19:11:18.912Z</time>
      </trkpt>
      <trkpt lat="48.94661" lon="2.28171">
        <ele>83.9</ele>
        <time>2015-06-15T19:11:19.966Z</time>
      </trkpt>
      <trkpt lat="48.94667" lon="2.28161">
        <ele>83.9</ele>
        <time>2015-06-15T19:11:22.942Z</time>
      </trkpt>
      <trkpt lat="48.94669" lon="2.28159">
        <ele>83.8</ele>
        <time>2015-06-15T19:11:23.975Z</time>
      </trkpt>
      <trkpt lat="48.94675" lon="2.28151">
        <ele>84.2</ele>
        <time>2015-06-15T19:11:27.899Z</time>
      </trkpt>
      <trkpt lat="48.94676" lon="2.2815">
        <ele>84.4</ele>
        <time>2015-06-15T19:11:28.935Z</time>
      </trkpt>
      <trkpt lat="48.94676" lon="2.28149">
        <ele>84.4</ele>
        <time>2015-06-15T19:12:40.902Z</time>
      </trkpt>
      <trkpt lat="48.94667" lon="2.28144">
        <ele>85</ele>
        <time>2015-06-15T19:12:41.905Z</time>
      </trkpt>
      <trkpt lat="48.94661" lon="2.28137">
        <ele>85.7</ele>
        <time>2015-06-15T19:12:45.972Z</time>
      </trkpt>
      <trkpt lat="48.94659" lon="2.28134">
        <ele>85.7</ele>
        <time>2015-06-15T19:12:46.957Z</time>
      </trkpt>
      <trkpt lat="48.94654" lon="2.28125">
        <ele>85.2</ele>
        <time>2015-06-15T19:12:50.986Z</time>
      </trkpt>
      <trkpt lat="48.94653" lon="2.28122">
        <ele>85.2</ele>
        <time>2015-06-15T19:12:51.992Z</time>
      </trkpt>
      <trkpt lat="48.9465" lon="2.28114">
        <ele>85.3</ele>
        <time>2015-06-15T19:18:31.978Z</time>
      </trkpt>
      <trkpt lat="48.94664" lon="2.28154">
        <ele>84.1</ele>
        <time>2015-06-15T19:18:32.998Z</time>
      </trkpt>
      <trkpt lat="48.9466" lon="2.28163">
        <ele>84.4</ele>
        <time>2015-06-15T19:18:35.954Z</time>
      </trkpt>
      <trkpt lat="48.94659" lon="2.28166">
        <ele>84.4</ele>
        <time>2015-06-15T19:18:36.999Z</time>
      </trkpt>
      <trkpt lat="48.94656" lon="2.28178">
        <ele>86</ele>
        <time>2015-06-15T19:18:40.904Z</time>
      </trkpt>
      <trkpt lat="48.94655" lon="2.28181">
        <ele>86.5</ele>
        <time>2015-06-15T19:18:41.914Z</time>
      </trkpt>
      <trkpt lat="48.9465" lon="2.28191">
        <ele>87</ele>
        <time>2015-06-15T19:18:45.995Z</time>
      </trkpt>
      <trkpt lat="48.94649" lon="2.28194">
        <ele>87.1</ele>
        <time>2015-06-15T19:18:46.910Z</time>
      </trkpt>
      <trkpt lat="48.94644" lon="2.28202">
        <ele>87.3</ele>
        <time>2015-06-15T19:18:49.939Z</time>
      </trkpt>
      <trkpt lat="48.94642" lon="2.28205">
        <ele>87.5</ele>
        <time>2015-06-15T19:18:50.979Z</time>
      </trkpt>
      <trkpt lat="48.94637" lon="2.28212">
        <ele>87.3</ele>
        <time>2015-06-15T19:18:52.914Z</time>
      </trkpt>
      <trkpt lat="48.94635" lon="2.28216">
        <ele>87.1</ele>
        <time>2015-06-15T19:18:53.912Z</time>
      </trkpt>
      <trkpt lat="48.9463" lon="2.28225">
        <ele>87.3</ele>
        <time>2015-06-15T19:18:55.927Z</time>
      </trkpt>
      <trkpt lat="48.94629" lon="2.28229">
        <ele>88</ele>
        <time>2015-06-15T19:18:56.972Z</time>
      </trkpt>
      <trkpt lat="48.94625" lon="2.28237">
        <ele>88.2</ele>
        <time>2015-06-15T19:18:58.910Z</time>
      </trkpt>
      <trkpt lat="48.94623" lon="2.28241">
        <ele>88.2</ele>
        <time>2015-06-15T19:18:59.929Z</time>
      </trkpt>
      <trkpt lat="48.94619" lon="2.28249">
        <ele>88.4</ele>
        <time>2015-06-15T19:19:01.972Z</time>
      </trkpt>
      <trkpt lat="48.94618" lon="2.28253">
        <ele>88.5</ele>
        <time>2015-06-15T19:19:03.036Z</time>
      </trkpt>
      <trkpt lat="48.94615" lon="2.28261">
        <ele>88.7</ele>
        <time>2015-06-15T19:19:04.921Z</time>
      </trkpt>
      <trkpt lat="48.94613" lon="2.28266">
        <ele>88.7</ele>
        <time>2015-06-15T19:19:05.956Z</time>
      </trkpt>
      <trkpt lat="48.94608" lon="2.28274">
        <ele>88.9</ele>
        <time>2015-06-15T19:19:07.905Z</time>
      </trkpt>
      <trkpt lat="48.94605" lon="2.28278">
        <ele>89</ele>
        <time>2015-06-15T19:19:08.946Z</time>
      </trkpt>
      <trkpt lat="48.946" lon="2.28287">
        <ele>88.8</ele>
        <time>2015-06-15T19:19:10.944Z</time>
      </trkpt>
      <trkpt lat="48.94598" lon="2.28292">
        <ele>89.2</ele>
        <time>2015-06-15T19:19:11.956Z</time>
      </trkpt>
      <trkpt lat="48.94592" lon="2.28301">
        <ele>89.1</ele>
        <time>2015-06-15T19:19:13.944Z</time>
      </trkpt>
      <trkpt lat="48.94589" lon="2.28306">
        <ele>89.1</ele>
        <time>2015-06-15T19:19:14.972Z</time>
      </trkpt>
      <trkpt lat="48.94583" lon="2.28316">
        <ele>89.1</ele>
        <time>2015-06-15T19:19:16.900Z</time>
      </trkpt>
      <trkpt lat="48.9458" lon="2.28322">
        <ele>89.4</ele>
        <time>2015-06-15T19:19:17.909Z</time>
      </trkpt>
      <trkpt lat="48.94577" lon="2.28328">
        <ele>89.4</ele>
        <time>2015-06-15T19:19:18.907Z</time>
      </trkpt>
      <trkpt lat="48.94574" lon="2.28334">
        <ele>89.8</ele>
        <time>2015-06-15T19:19:19.906Z</time>
      </trkpt>
      <trkpt lat="48.9457" lon="2.28341">
        <ele>90.1</ele>
        <time>2015-06-15T19:19:20.976Z</time>
      </trkpt>
      <trkpt lat="48.94567" lon="2.28347">
        <ele>89.9</ele>
        <time>2015-06-15T19:19:21.989Z</time>
      </trkpt>
      <trkpt lat="48.94563" lon="2.28354">
        <ele>89.8</ele>
        <time>2015-06-15T19:19:22.906Z</time>
      </trkpt>
      <trkpt lat="48.9456" lon="2.2836">
        <ele>89.9</ele>
        <time>2015-06-15T19:19:23.929Z</time>
      </trkpt>
      <trkpt lat="48.94556" lon="2.28366">
        <ele>90</ele>
        <time>2015-06-15T19:19:24.937Z</time>
      </trkpt>
      <trkpt lat="48.94553" lon="2.28373">
        <ele>90.3</ele>
        <time>2015-06-15T19:19:25.942Z</time>
      </trkpt>
      <trkpt lat="48.9455" lon="2.2838">
        <ele>90.5</ele>
        <time>2015-06-15T19:19:26.972Z</time>
      </trkpt>
      <trkpt lat="48.94547" lon="2.28388">
        <ele>90.8</ele>
        <time>2015-06-15T19:19:27.987Z</time>
      </trkpt>
      <trkpt lat="48.94543" lon="2.28395">
        <ele>90.9</ele>
        <time>2015-06-15T19:19:28.932Z</time>
      </trkpt>
      <trkpt lat="48.9454" lon="2.28402">
        <ele>90.9</ele>
        <time>2015-06-15T19:19:29.891Z</time>
      </trkpt>
      <trkpt lat="48.94537" lon="2.28408">
        <ele>91</ele>
        <time>2015-06-15T19:19:30.911Z</time>
      </trkpt>
      <trkpt lat="48.94534" lon="2.28414">
        <ele>91.1</ele>
        <time>2015-06-15T19:19:31.937Z</time>
      </trkpt>
      <trkpt lat="48.94528" lon="2.28423">
        <ele>91.5</ele>
        <time>2015-06-15T19:19:33.900Z</time>
      </trkpt>
      <trkpt lat="48.94524" lon="2.28428">
        <ele>92.3</ele>
        <time>2015-06-15T19:19:34.937Z</time>
      </trkpt>
      <trkpt lat="48.94519" lon="2.28437">
        <ele>92.8</ele>
        <time>2015-06-15T19:19:36.957Z</time>
      </trkpt>
      <trkpt lat="48.94516" lon="2.28442">
        <ele>92.6</ele>
        <time>2015-06-15T19:19:37.930Z</time>
      </trkpt>
      <trkpt lat="48.94513" lon="2.28447">
        <ele>92.7</ele>
        <time>2015-06-15T19:19:38.972Z</time>
      </trkpt>
      <trkpt lat="48.9451" lon="2.28453">
        <ele>92.8</ele>
        <time>2015-06-15T19:19:39.867Z</time>
      </trkpt>
      <trkpt lat="48.94504" lon="2.28463">
        <ele>93.3</ele>
        <time>2015-06-15T19:19:41.899Z</time>
      </trkpt>
      <trkpt lat="48.94502" lon="2.28467">
        <ele>93.7</ele>
        <time>2015-06-15T19:19:42.954Z</time>
      </trkpt>
      <trkpt lat="48.94498" lon="2.28476">
        <ele>94.2</ele>
        <time>2015-06-15T19:19:44.974Z</time>
      </trkpt>
      <trkpt lat="48.94496" lon="2.28481">
        <ele>94.3</ele>
        <time>2015-06-15T19:19:45.932Z</time>
      </trkpt>
      <trkpt lat="48.94491" lon="2.28488">
        <ele>94.5</ele>
        <time>2015-06-15T19:19:47.957Z</time>
      </trkpt>
      <trkpt lat="48.94489" lon="2.28493">
        <ele>95.5</ele>
        <time>2015-06-15T19:19:48.992Z</time>
      </trkpt>
      <trkpt lat="48.94486" lon="2.28499">
        <ele>96.1</ele>
        <time>2015-06-15T19:19:49.930Z</time>
      </trkpt>
      <trkpt lat="48.94482" lon="2.28504">
        <ele>96.1</ele>
        <time>2015-06-15T19:19:51.011Z</time>
      </trkpt>
      <trkpt lat="48.94478" lon="2.28511">
        <ele>96.5</ele>
        <time>2015-06-15T19:19:51.897Z</time>
      </trkpt>
      <trkpt lat="48.94474" lon="2.28518">
        <ele>97.1</ele>
        <time>2015-06-15T19:19:52.905Z</time>
      </trkpt>
      <trkpt lat="48.9447" lon="2.28525">
        <ele>98.1</ele>
        <time>2015-06-15T19:19:53.915Z</time>
      </trkpt>
      <trkpt lat="48.94467" lon="2.28532">
        <ele>98.6</ele>
        <time>2015-06-15T19:19:54.921Z</time>
      </trkpt>
      <trkpt lat="48.94464" lon="2.28538">
        <ele>99.2</ele>
        <time>2015-06-15T19:19:55.955Z</time>
      </trkpt>
      <trkpt lat="48.9446" lon="2.28545">
        <ele>99.1</ele>
        <time>2015-06-15T19:19:56.973Z</time>
      </trkpt>
      <trkpt lat="48.94456" lon="2.28551">
        <ele>99.4</ele>
        <time>2015-06-15T19:19:57.896Z</time>
      </trkpt>
      <trkpt lat="48.94454" lon="2.28556">
        <ele>100</ele>
        <time>2015-06-15T19:19:58.896Z</time>
      </trkpt>
      <trkpt lat="48.9445" lon="2.28562">
        <ele>100.3</ele>
        <time>2015-06-15T19:19:59.903Z</time>
      </trkpt>
      <trkpt lat="48.94447" lon="2.28568">
        <ele>100.3</ele>
        <time>2015-06-15T19:20:00.915Z</time>
      </trkpt>
      <trkpt lat="48.94442" lon="2.28577">
        <ele>100.2</ele>
        <time>2015-06-15T19:20:03.021Z</time>
      </trkpt>
      <trkpt lat="48.94439" lon="2.28581">
        <ele>100.2</ele>
        <time>2015-06-15T19:20:03.926Z</time>
      </trkpt>
      <trkpt lat="48.94434" lon="2.2859">
        <ele>100.4</ele>
        <time>2015-06-15T19:20:05.953Z</time>
      </trkpt>
      <trkpt lat="48.94431" lon="2.28594">
        <ele>100.6</ele>
        <time>2015-06-15T19:20:06.893Z</time>
      </trkpt>
      <trkpt lat="48.94427" lon="2.28602">
        <ele>100.8</ele>
        <time>2015-06-15T19:20:08.981Z</time>
      </trkpt>
      <trkpt lat="48.94424" lon="2.28607">
        <ele>100.9</ele>
        <time>2015-06-15T19:20:09.909Z</time>
      </trkpt>
      <trkpt lat="48.94419" lon="2.28615">
        <ele>102</ele>
        <time>2015-06-15T19:20:11.982Z</time>
      </trkpt>
      <trkpt lat="48.94416" lon="2.2862">
        <ele>102.5</ele>
        <time>2015-06-15T19:20:12.891Z</time>
      </trkpt>
      <trkpt lat="48.94413" lon="2.28625">
        <ele>103</ele>
        <time>2015-06-15T19:20:13.894Z</time>
      </trkpt>
      <trkpt lat="48.9441" lon="2.28631">
        <ele>103.5</ele>
        <time>2015-06-15T19:20:14.937Z</time>
      </trkpt>
      <trkpt lat="48.94407" lon="2.28636">
        <ele>103.7</ele>
        <time>2015-06-15T19:20:15.860Z</time>
      </trkpt>
      <trkpt lat="48.94404" lon="2.28642">
        <ele>103.8</ele>
        <time>2015-06-15T19:20:16.898Z</time>
      </trkpt>
      <trkpt lat="48.94398" lon="2.28651">
        <ele>103.9</ele>
        <time>2015-06-15T19:20:18.919Z</time>
      </trkpt>
      <trkpt lat="48.94395" lon="2.28657">
        <ele>103.9</ele>
        <time>2015-06-15T19:20:19.973Z</time>
      </trkpt>
      <trkpt lat="48.94391" lon="2.28662">
        <ele>104.4</ele>
        <time>2015-06-15T19:20:20.932Z</time>
      </trkpt>
      <trkpt lat="48.94387" lon="2.28668">
        <ele>104.8</ele>
        <time>2015-06-15T19:20:21.955Z</time>
      </trkpt>
      <trkpt lat="48.94384" lon="2.28674">
        <ele>105.1</ele>
        <time>2015-06-15T19:20:22.960Z</time>
      </trkpt>
      <trkpt lat="48.94381" lon="2.28681">
        <ele>105.6</ele>
        <time>2015-06-15T19:20:23.967Z</time>
      </trkpt>
      <trkpt lat="48.94377" lon="2.28688">
        <ele>106</ele>
        <time>2015-06-15T19:20:24.989Z</time>
      </trkpt>
      <trkpt lat="48.94374" lon="2.28694">
        <ele>106.6</ele>
        <time>2015-06-15T19:20:25.995Z</time>
      </trkpt>
      <trkpt lat="48.94371" lon="2.28699">
        <ele>107</ele>
        <time>2015-06-15T19:20:27.020Z</time>
      </trkpt>
      <trkpt lat="48.94367" lon="2.28703">
        <ele>107</ele>
        <time>2015-06-15T19:20:27.912Z</time>
      </trkpt>
      <trkpt lat="48.94365" lon="2.28709">
        <ele>106</ele>
        <time>2015-06-15T19:20:28.938Z</time>
      </trkpt>
      <trkpt lat="48.94361" lon="2.28716">
        <ele>104.9</ele>
        <time>2015-06-15T19:20:30.030Z</time>
      </trkpt>
      <trkpt lat="48.94358" lon="2.28723">
        <ele>104.2</ele>
        <time>2015-06-15T19:20:30.904Z</time>
      </trkpt>
      <trkpt lat="48.94354" lon="2.28732">
        <ele>103.9</ele>
        <time>2015-06-15T19:20:31.932Z</time>
      </trkpt>
      <trkpt lat="48.94351" lon="2.28738">
        <ele>104</ele>
        <time>2015-06-15T19:20:33.016Z</time>
      </trkpt>
      <trkpt lat="48.94348" lon="2.28743">
        <ele>103.9</ele>
        <time>2015-06-15T19:20:33.899Z</time>
      </trkpt>
      <trkpt lat="48.94342" lon="2.28752">
        <ele>103</ele>
        <time>2015-06-15T19:20:35.984Z</time>
      </trkpt>
      <trkpt lat="48.9434" lon="2.28756">
        <ele>102.8</ele>
        <time>2015-06-15T19:20:37.015Z</time>
      </trkpt>
      <trkpt lat="48.94335" lon="2.28764">
        <ele>102.5</ele>
        <time>2015-06-15T19:20:39.004Z</time>
      </trkpt>
      <trkpt lat="48.94332" lon="2.28768">
        <ele>102.4</ele>
        <time>2015-06-15T19:20:40.026Z</time>
      </trkpt>
      <trkpt lat="48.94328" lon="2.28774">
        <ele>102.3</ele>
        <time>2015-06-15T19:20:40.905Z</time>
      </trkpt>
      <trkpt lat="48.94325" lon="2.28779">
        <ele>102.2</ele>
        <time>2015-06-15T19:20:41.909Z</time>
      </trkpt>
      <trkpt lat="48.94321" lon="2.28785">
        <ele>102.3</ele>
        <time>2015-06-15T19:20:42.967Z</time>
      </trkpt>
      <trkpt lat="48.94318" lon="2.28791">
        <ele>102.4</ele>
        <time>2015-06-15T19:20:43.978Z</time>
      </trkpt>
      <trkpt lat="48.94314" lon="2.28797">
        <ele>102.4</ele>
        <time>2015-06-15T19:20:45.004Z</time>
      </trkpt>
      <trkpt lat="48.94311" lon="2.28803">
        <ele>102.5</ele>
        <time>2015-06-15T19:20:45.917Z</time>
      </trkpt>
      <trkpt lat="48.94308" lon="2.28808">
        <ele>102.6</ele>
        <time>2015-06-15T19:20:46.929Z</time>
      </trkpt>
      <trkpt lat="48.94305" lon="2.28813">
        <ele>102.6</ele>
        <time>2015-06-15T19:20:47.943Z</time>
      </trkpt>
      <trkpt lat="48.94302" lon="2.28819">
        <ele>102.5</ele>
        <time>2015-06-15T19:20:48.950Z</time>
      </trkpt>
      <trkpt lat="48.94298" lon="2.28824">
        <ele>102.4</ele>
        <time>2015-06-15T19:20:49.874Z</time>
      </trkpt>
      <trkpt lat="48.94293" lon="2.28833">
        <ele>102.5</ele>
        <time>2015-06-15T19:20:51.942Z</time>
      </trkpt>
      <trkpt lat="48.9429" lon="2.28838">
        <ele>102.6</ele>
        <time>2015-06-15T19:20:53.036Z</time>
      </trkpt>
      <trkpt lat="48.94286" lon="2.28845">
        <ele>102.3</ele>
        <time>2015-06-15T19:20:53.914Z</time>
      </trkpt>
      <trkpt lat="48.94282" lon="2.28851">
        <ele>102.4</ele>
        <time>2015-06-15T19:20:54.922Z</time>
      </trkpt>
      <trkpt lat="48.94279" lon="2.28857">
        <ele>102.5</ele>
        <time>2015-06-15T19:20:55.959Z</time>
      </trkpt>
      <trkpt lat="48.94276" lon="2.28863">
        <ele>102.7</ele>
        <time>2015-06-15T19:20:56.973Z</time>
      </trkpt>
      <trkpt lat="48.94272" lon="2.28869">
        <ele>102.9</ele>
        <time>2015-06-15T19:20:57.921Z</time>
      </trkpt>
      <trkpt lat="48.94269" lon="2.28874">
        <ele>102.9</ele>
        <time>2015-06-15T19:20:58.928Z</time>
      </trkpt>
      <trkpt lat="48.94266" lon="2.28879">
        <ele>103.2</ele>
        <time>2015-06-15T19:20:59.935Z</time>
      </trkpt>
      <trkpt lat="48.94263" lon="2.28885">
        <ele>103.5</ele>
        <time>2015-06-15T19:21:00.945Z</time>
      </trkpt>
      <trkpt lat="48.9426" lon="2.28891">
        <ele>103.7</ele>
        <time>2015-06-15T19:21:01.966Z</time>
      </trkpt>
      <trkpt lat="48.94257" lon="2.28896">
        <ele>103.8</ele>
        <time>2015-06-15T19:21:03.016Z</time>
      </trkpt>
      <trkpt lat="48.94252" lon="2.28905">
        <ele>103.9</ele>
        <time>2015-06-15T19:21:05.746Z</time>
      </trkpt>
      <trkpt lat="48.9425" lon="2.28909">
        <ele>103.8</ele>
        <time>2015-06-15T19:21:05.914Z</time>
      </trkpt>
      <trkpt lat="48.94245" lon="2.28918">
        <ele>104</ele>
        <time>2015-06-15T19:21:07.873Z</time>
      </trkpt>
      <trkpt lat="48.94242" lon="2.28924">
        <ele>104.1</ele>
        <time>2015-06-15T19:21:08.972Z</time>
      </trkpt>
      <trkpt lat="48.94236" lon="2.28934">
        <ele>104.7</ele>
        <time>2015-06-15T19:21:09.875Z</time>
      </trkpt>
      <trkpt lat="48.94232" lon="2.28941">
        <ele>104.8</ele>
        <time>2015-06-15T19:21:10.876Z</time>
      </trkpt>
      <trkpt lat="48.94229" lon="2.28948">
        <ele>105</ele>
        <time>2015-06-15T19:21:11.891Z</time>
      </trkpt>
      <trkpt lat="48.94225" lon="2.28954">
        <ele>105.3</ele>
        <time>2015-06-15T19:21:12.902Z</time>
      </trkpt>
      <trkpt lat="48.94223" lon="2.2896">
        <ele>105.5</ele>
        <time>2015-06-15T19:21:13.901Z</time>
      </trkpt>
      <trkpt lat="48.9422" lon="2.28966">
        <ele>105.9</ele>
        <time>2015-06-15T19:21:14.942Z</time>
      </trkpt>
      <trkpt lat="48.94216" lon="2.28972">
        <ele>106.1</ele>
        <time>2015-06-15T19:21:15.937Z</time>
      </trkpt>
      <trkpt lat="48.94213" lon="2.28978">
        <ele>106.4</ele>
        <time>2015-06-15T19:21:16.946Z</time>
      </trkpt>
      <trkpt lat="48.9421" lon="2.28984">
        <ele>107.4</ele>
        <time>2015-06-15T19:21:17.873Z</time>
      </trkpt>
      <trkpt lat="48.94207" lon="2.28991">
        <ele>107.6</ele>
        <time>2015-06-15T19:21:18.878Z</time>
      </trkpt>
      <trkpt lat="48.94204" lon="2.28997">
        <ele>107.7</ele>
        <time>2015-06-15T19:21:19.888Z</time>
      </trkpt>
      <trkpt lat="48.94201" lon="2.29004">
        <ele>107.8</ele>
        <time>2015-06-15T19:21:20.946Z</time>
      </trkpt>
      <trkpt lat="48.94198" lon="2.29009">
        <ele>107.9</ele>
        <time>2015-06-15T19:21:22.021Z</time>
      </trkpt>
      <trkpt lat="48.94195" lon="2.29016">
        <ele>108</ele>
        <time>2015-06-15T19:21:22.985Z</time>
      </trkpt>
      <trkpt lat="48.94192" lon="2.29022">
        <ele>108</ele>
        <time>2015-06-15T19:21:23.890Z</time>
      </trkpt>
      <trkpt lat="48.94189" lon="2.29027">
        <ele>108.1</ele>
        <time>2015-06-15T19:21:24.893Z</time>
      </trkpt>
      <trkpt lat="48.94186" lon="2.29032">
        <ele>108.2</ele>
        <time>2015-06-15T19:21:25.894Z</time>
      </trkpt>
      <trkpt lat="48.94183" lon="2.29038">
        <ele>108.3</ele>
        <time>2015-06-15T19:21:26.954Z</time>
      </trkpt>
      <trkpt lat="48.94179" lon="2.29041">
        <ele>108.3</ele>
        <time>2015-06-15T19:21:27.891Z</time>
      </trkpt>
      <trkpt lat="48.94176" lon="2.29046">
        <ele>108.1</ele>
        <time>2015-06-15T19:21:28.896Z</time>
      </trkpt>
      <trkpt lat="48.94172" lon="2.29051">
        <ele>108.1</ele>
        <time>2015-06-15T19:21:29.922Z</time>
      </trkpt>
      <trkpt lat="48.94169" lon="2.29058">
        <ele>108.1</ele>
        <time>2015-06-15T19:21:30.933Z</time>
      </trkpt>
      <trkpt lat="48.94166" lon="2.29065">
        <ele>108.3</ele>
        <time>2015-06-15T19:21:31.936Z</time>
      </trkpt>
      <trkpt lat="48.94162" lon="2.29072">
        <ele>108.8</ele>
        <time>2015-06-15T19:21:33.000Z</time>
      </trkpt>
      <trkpt lat="48.94159" lon="2.2908">
        <ele>109.4</ele>
        <time>2015-06-15T19:21:33.877Z</time>
      </trkpt>
      <trkpt lat="48.94157" lon="2.29089">
        <ele>109</ele>
        <time>2015-06-15T19:21:34.876Z</time>
      </trkpt>
      <trkpt lat="48.94155" lon="2.29096">
        <ele>108.9</ele>
        <time>2015-06-15T19:21:35.882Z</time>
      </trkpt>
      <trkpt lat="48.94153" lon="2.29101">
        <ele>109.3</ele>
        <time>2015-06-15T19:21:36.887Z</time>
      </trkpt>
      <trkpt lat="48.9415" lon="2.29106">
        <ele>109.7</ele>
        <time>2015-06-15T19:21:37.911Z</time>
      </trkpt>
      <trkpt lat="48.94146" lon="2.2911">
        <ele>109.8</ele>
        <time>2015-06-15T19:21:38.930Z</time>
      </trkpt>
      <trkpt lat="48.9414" lon="2.29113">
        <ele>110.1</ele>
        <time>2015-06-15T19:21:39.940Z</time>
      </trkpt>
      <trkpt lat="48.94135" lon="2.29116">
        <ele>109.8</ele>
        <time>2015-06-15T19:21:40.962Z</time>
      </trkpt>
      <trkpt lat="48.9413" lon="2.29118">
        <ele>109.2</ele>
        <time>2015-06-15T19:21:41.899Z</time>
      </trkpt>
      <trkpt lat="48.94124" lon="2.2912">
        <ele>107.9</ele>
        <time>2015-06-15T19:21:42.906Z</time>
      </trkpt>
      <trkpt lat="48.94116" lon="2.29121">
        <ele>104.6</ele>
        <time>2015-06-15T19:21:43.936Z</time>
      </trkpt>
      <trkpt lat="48.9411" lon="2.29123">
        <ele>102.9</ele>
        <time>2015-06-15T19:21:44.969Z</time>
      </trkpt>
      <trkpt lat="48.94105" lon="2.29125">
        <ele>101.9</ele>
        <time>2015-06-15T19:21:45.903Z</time>
      </trkpt>
      <trkpt lat="48.941" lon="2.29129">
        <ele>101.3</ele>
        <time>2015-06-15T19:21:46.905Z</time>
      </trkpt>
      <trkpt lat="48.94095" lon="2.29132">
        <ele>101.1</ele>
        <time>2015-06-15T19:21:47.921Z</time>
      </trkpt>
      <trkpt lat="48.9409" lon="2.29136">
        <ele>100.6</ele>
        <time>2015-06-15T19:21:48.927Z</time>
      </trkpt>
      <trkpt lat="48.94086" lon="2.29139">
        <ele>99.8</ele>
        <time>2015-06-15T19:21:49.941Z</time>
      </trkpt>
      <trkpt lat="48.94081" lon="2.29142">
        <ele>99.5</ele>
        <time>2015-06-15T19:21:50.964Z</time>
      </trkpt>
      <trkpt lat="48.94073" lon="2.29144">
        <ele>99.1</ele>
        <time>2015-06-15T19:21:53.877Z</time>
      </trkpt>
      <trkpt lat="48.94071" lon="2.29143">
        <ele>98.8</ele>
        <time>2015-06-15T19:21:54.872Z</time>
      </trkpt>
      <trkpt lat="48.94066" lon="2.29135">
        <ele>92.6</ele>
        <time>2015-06-15T19:22:27.096Z</time>
      </trkpt>
      <trkpt lat="48.94065" lon="2.29132">
        <ele>92.6</ele>
        <time>2015-06-15T19:22:27.932Z</time>
      </trkpt>
      <trkpt lat="48.94062" lon="2.2912">
        <ele>92.2</ele>
        <time>2015-06-15T19:22:30.939Z</time>
      </trkpt>
      <trkpt lat="48.94061" lon="2.29115">
        <ele>92.3</ele>
        <time>2015-06-15T19:22:31.960Z</time>
      </trkpt>
      <trkpt lat="48.94059" lon="2.29104">
        <ele>92.2</ele>
        <time>2015-06-15T19:22:33.904Z</time>
      </trkpt>
      <trkpt lat="48.94058" lon="2.29099">
        <ele>92</ele>
        <time>2015-06-15T19:22:34.916Z</time>
      </trkpt>
      <trkpt lat="48.94056" lon="2.29088">
        <ele>91.6</ele>
        <time>2015-06-15T19:22:36.935Z</time>
      </trkpt>
      <trkpt lat="48.94055" lon="2.29083">
        <ele>91.5</ele>
        <time>2015-06-15T19:22:37.890Z</time>
      </trkpt>
      <trkpt lat="48.94053" lon="2.29071">
        <ele>91.5</ele>
        <time>2015-06-15T19:22:39.945Z</time>
      </trkpt>
      <trkpt lat="48.94052" lon="2.29065">
        <ele>91.6</ele>
        <time>2015-06-15T19:22:40.883Z</time>
      </trkpt>
      <trkpt lat="48.94049" lon="2.29053">
        <ele>91.1</ele>
        <time>2015-06-15T19:22:42.901Z</time>
      </trkpt>
      <trkpt lat="48.94048" lon="2.29047">
        <ele>90.7</ele>
        <time>2015-06-15T19:22:43.918Z</time>
      </trkpt>
      <trkpt lat="48.94046" lon="2.29033">
        <ele>90.1</ele>
        <time>2015-06-15T19:22:45.885Z</time>
      </trkpt>
      <trkpt lat="48.94045" lon="2.29026">
        <ele>89.8</ele>
        <time>2015-06-15T19:22:47.000Z</time>
      </trkpt>
      <trkpt lat="48.94043" lon="2.29019">
        <ele>89.2</ele>
        <time>2015-06-15T19:22:47.886Z</time>
      </trkpt>
      <trkpt lat="48.94042" lon="2.29011">
        <ele>88.4</ele>
        <time>2015-06-15T19:22:49.021Z</time>
      </trkpt>
      <trkpt lat="48.9404" lon="2.29003">
        <ele>87.6</ele>
        <time>2015-06-15T19:22:49.884Z</time>
      </trkpt>
      <trkpt lat="48.94039" lon="2.28995">
        <ele>87.2</ele>
        <time>2015-06-15T19:22:51.021Z</time>
      </trkpt>
      <trkpt lat="48.94037" lon="2.28987">
        <ele>86.8</ele>
        <time>2015-06-15T19:22:51.972Z</time>
      </trkpt>
      <trkpt lat="48.94035" lon="2.2898">
        <ele>86.4</ele>
        <time>2015-06-15T19:22:52.891Z</time>
      </trkpt>
      <trkpt lat="48.94034" lon="2.28972">
        <ele>86.4</ele>
        <time>2015-06-15T19:22:53.921Z</time>
      </trkpt>
      <trkpt lat="48.94033" lon="2.28964">
        <ele>86.6</ele>
        <time>2015-06-15T19:22:54.939Z</time>
      </trkpt>
      <trkpt lat="48.94032" lon="2.28957">
        <ele>86.3</ele>
        <time>2015-06-15T19:22:55.971Z</time>
      </trkpt>
      <trkpt lat="48.9403" lon="2.28949">
        <ele>86</ele>
        <time>2015-06-15T19:22:56.990Z</time>
      </trkpt>
      <trkpt lat="48.94028" lon="2.28941">
        <ele>85.8</ele>
        <time>2015-06-15T19:22:57.904Z</time>
      </trkpt>
      <trkpt lat="48.94027" lon="2.28932">
        <ele>86.4</ele>
        <time>2015-06-15T19:22:58.922Z</time>
      </trkpt>
      <trkpt lat="48.94025" lon="2.28924">
        <ele>86.4</ele>
        <time>2015-06-15T19:22:59.902Z</time>
      </trkpt>
      <trkpt lat="48.94023" lon="2.28916">
        <ele>86.4</ele>
        <time>2015-06-15T19:23:00.864Z</time>
      </trkpt>
      <trkpt lat="48.94021" lon="2.28907">
        <ele>86.1</ele>
        <time>2015-06-15T19:23:01.926Z</time>
      </trkpt>
      <trkpt lat="48.9402" lon="2.28899">
        <ele>85.8</ele>
        <time>2015-06-15T19:23:03.012Z</time>
      </trkpt>
      <trkpt lat="48.94018" lon="2.28891">
        <ele>85.3</ele>
        <time>2015-06-15T19:23:03.901Z</time>
      </trkpt>
      <trkpt lat="48.94016" lon="2.28883">
        <ele>85.1</ele>
        <time>2015-06-15T19:23:04.940Z</time>
      </trkpt>
      <trkpt lat="48.94015" lon="2.28875">
        <ele>85.1</ele>
        <time>2015-06-15T19:23:05.987Z</time>
      </trkpt>
      <trkpt lat="48.94013" lon="2.28867">
        <ele>85</ele>
        <time>2015-06-15T19:23:06.899Z</time>
      </trkpt>
      <trkpt lat="48.94012" lon="2.28859">
        <ele>85</ele>
        <time>2015-06-15T19:23:07.912Z</time>
      </trkpt>
      <trkpt lat="48.94011" lon="2.28851">
        <ele>84.7</ele>
        <time>2015-06-15T19:23:08.976Z</time>
      </trkpt>
      <trkpt lat="48.94009" lon="2.28843">
        <ele>84.5</ele>
        <time>2015-06-15T19:23:09.887Z</time>
      </trkpt>
      <trkpt lat="48.94008" lon="2.28835">
        <ele>84.4</ele>
        <time>2015-06-15T19:23:10.925Z</time>
      </trkpt>
      <trkpt lat="48.94006" lon="2.28826">
        <ele>84.4</ele>
        <time>2015-06-15T19:23:11.939Z</time>
      </trkpt>
      <trkpt lat="48.94004" lon="2.28818">
        <ele>84.1</ele>
        <time>2015-06-15T19:23:12.946Z</time>
      </trkpt>
      <trkpt lat="48.94003" lon="2.2881">
        <ele>83.5</ele>
        <time>2015-06-15T19:23:13.924Z</time>
      </trkpt>
      <trkpt lat="48.94001" lon="2.28802">
        <ele>83.2</ele>
        <time>2015-06-15T19:23:14.967Z</time>
      </trkpt>
      <trkpt lat="48.94" lon="2.28794">
        <ele>82.8</ele>
        <time>2015-06-15T19:23:15.923Z</time>
      </trkpt>
      <trkpt lat="48.93998" lon="2.28785">
        <ele>82.4</ele>
        <time>2015-06-15T19:23:16.909Z</time>
      </trkpt>
      <trkpt lat="48.93996" lon="2.28777">
        <ele>81.8</ele>
        <time>2015-06-15T19:23:17.954Z</time>
      </trkpt>
      <trkpt lat="48.93994" lon="2.28769">
        <ele>81.7</ele>
        <time>2015-06-15T19:23:18.977Z</time>
      </trkpt>
      <trkpt lat="48.93993" lon="2.28761">
        <ele>81.7</ele>
        <time>2015-06-15T19:23:19.916Z</time>
      </trkpt>
      <trkpt lat="48.93991" lon="2.28754">
        <ele>81.8</ele>
        <time>2015-06-15T19:23:21.013Z</time>
      </trkpt>
      <trkpt lat="48.9399" lon="2.28746">
        <ele>82</ele>
        <time>2015-06-15T19:23:21.906Z</time>
      </trkpt>
      <trkpt lat="48.93988" lon="2.28738">
        <ele>81.9</ele>
        <time>2015-06-15T19:23:22.916Z</time>
      </trkpt>
      <trkpt lat="48.93987" lon="2.2873">
        <ele>81.9</ele>
        <time>2015-06-15T19:23:23.928Z</time>
      </trkpt>
      <trkpt lat="48.93986" lon="2.28722">
        <ele>81.8</ele>
        <time>2015-06-15T19:23:24.935Z</time>
      </trkpt>
      <trkpt lat="48.93983" lon="2.2871">
        <ele>82</ele>
        <time>2015-06-15T19:23:26.976Z</time>
      </trkpt>
      <trkpt lat="48.93982" lon="2.28704">
        <ele>82.1</ele>
        <time>2015-06-15T19:23:27.934Z</time>
      </trkpt>
      <trkpt lat="48.9398" lon="2.28693">
        <ele>81.9</ele>
        <time>2015-06-15T19:23:29.969Z</time>
      </trkpt>
      <trkpt lat="48.9398" lon="2.28689">
        <ele>82</ele>
        <time>2015-06-15T19:23:30.952Z</time>
      </trkpt>
      <trkpt lat="48.93982" lon="2.28676">
        <ele>82.6</ele>
        <time>2015-06-15T19:23:35.015Z</time>
      </trkpt>
      <trkpt lat="48.93982" lon="2.28673">
        <ele>82.5</ele>
        <time>2015-06-15T19:23:35.952Z</time>
      </trkpt>
      <trkpt lat="48.93979" lon="2.28663">
        <ele>83.3</ele>
        <time>2015-06-15T19:23:39.009Z</time>
      </trkpt>
      <trkpt lat="48.93977" lon="2.28659">
        <ele>83.6</ele>
        <time>2015-06-15T19:23:39.929Z</time>
      </trkpt>
      <trkpt lat="48.93974" lon="2.28649">
        <ele>83.9</ele>
        <time>2015-06-15T19:23:42.941Z</time>
      </trkpt>
      <trkpt lat="48.93973" lon="2.28644">
        <ele>83.7</ele>
        <time>2015-06-15T19:23:43.958Z</time>
      </trkpt>
      <trkpt lat="48.9397" lon="2.28633">
        <ele>83.8</ele>
        <time>2015-06-15T19:23:45.901Z</time>
      </trkpt>
      <trkpt lat="48.93969" lon="2.28627">
        <ele>83.9</ele>
        <time>2015-06-15T19:23:46.869Z</time>
      </trkpt>
      <trkpt lat="48.93967" lon="2.28617">
        <ele>83.5</ele>
        <time>2015-06-15T19:23:48.963Z</time>
      </trkpt>
      <trkpt lat="48.93965" lon="2.28611">
        <ele>83.6</ele>
        <time>2015-06-15T19:23:49.879Z</time>
      </trkpt>
      <trkpt lat="48.93961" lon="2.28599">
        <ele>84</ele>
        <time>2015-06-15T19:23:51.905Z</time>
      </trkpt>
      <trkpt lat="48.9396" lon="2.28592">
        <ele>84.3</ele>
        <time>2015-06-15T19:23:52.937Z</time>
      </trkpt>
      <trkpt lat="48.93958" lon="2.28585">
        <ele>84.5</ele>
        <time>2015-06-15T19:23:53.957Z</time>
      </trkpt>
      <trkpt lat="48.93956" lon="2.28578">
        <ele>84.6</ele>
        <time>2015-06-15T19:23:55.012Z</time>
      </trkpt>
      <trkpt lat="48.93955" lon="2.28571">
        <ele>84.4</ele>
        <time>2015-06-15T19:23:55.914Z</time>
      </trkpt>
      <trkpt lat="48.93953" lon="2.28564">
        <ele>84.1</ele>
        <time>2015-06-15T19:23:57.036Z</time>
      </trkpt>
      <trkpt lat="48.93952" lon="2.28557">
        <ele>84.5</ele>
        <time>2015-06-15T19:23:57.910Z</time>
      </trkpt>
      <trkpt lat="48.9395" lon="2.28551">
        <ele>85</ele>
        <time>2015-06-15T19:23:58.919Z</time>
      </trkpt>
      <trkpt lat="48.93948" lon="2.28544">
        <ele>85.5</ele>
        <time>2015-06-15T19:23:59.948Z</time>
      </trkpt>
      <trkpt lat="48.93946" lon="2.28537">
        <ele>85.5</ele>
        <time>2015-06-15T19:24:01.012Z</time>
      </trkpt>
      <trkpt lat="48.93944" lon="2.2853">
        <ele>85.4</ele>
        <time>2015-06-15T19:24:01.960Z</time>
      </trkpt>
      <trkpt lat="48.93943" lon="2.28523">
        <ele>85.4</ele>
        <time>2015-06-15T19:24:03.261Z</time>
      </trkpt>
      <trkpt lat="48.93941" lon="2.28515">
        <ele>85.4</ele>
        <time>2015-06-15T19:24:03.902Z</time>
      </trkpt>
      <trkpt lat="48.9394" lon="2.28508">
        <ele>85.3</ele>
        <time>2015-06-15T19:24:04.914Z</time>
      </trkpt>
      <trkpt lat="48.93938" lon="2.285">
        <ele>85.1</ele>
        <time>2015-06-15T19:24:05.920Z</time>
      </trkpt>
      <trkpt lat="48.93937" lon="2.28493">
        <ele>85</ele>
        <time>2015-06-15T19:24:06.937Z</time>
      </trkpt>
      <trkpt lat="48.93936" lon="2.28486">
        <ele>84.9</ele>
        <time>2015-06-15T19:24:07.966Z</time>
      </trkpt>
      <trkpt lat="48.93934" lon="2.28479">
        <ele>84.6</ele>
        <time>2015-06-15T19:24:08.982Z</time>
      </trkpt>
      <trkpt lat="48.93932" lon="2.28472">
        <ele>84.3</ele>
        <time>2015-06-15T19:24:09.897Z</time>
      </trkpt>
      <trkpt lat="48.93931" lon="2.28464">
        <ele>84</ele>
        <time>2015-06-15T19:24:10.912Z</time>
      </trkpt>
      <trkpt lat="48.93929" lon="2.28456">
        <ele>84.1</ele>
        <time>2015-06-15T19:24:11.927Z</time>
      </trkpt>
      <trkpt lat="48.93928" lon="2.28448">
        <ele>83.9</ele>
        <time>2015-06-15T19:24:12.927Z</time>
      </trkpt>
      <trkpt lat="48.93926" lon="2.28439">
        <ele>84.1</ele>
        <time>2015-06-15T19:24:13.972Z</time>
      </trkpt>
      <trkpt lat="48.93924" lon="2.2843">
        <ele>84.2</ele>
        <time>2015-06-15T19:24:14.987Z</time>
      </trkpt>
      <trkpt lat="48.93922" lon="2.28422">
        <ele>84.4</ele>
        <time>2015-06-15T19:24:15.898Z</time>
      </trkpt>
      <trkpt lat="48.93921" lon="2.28413">
        <ele>84.3</ele>
        <time>2015-06-15T19:24:16.904Z</time>
      </trkpt>
      <trkpt lat="48.93919" lon="2.28405">
        <ele>84.5</ele>
        <time>2015-06-15T19:24:17.935Z</time>
      </trkpt>
      <trkpt lat="48.93918" lon="2.28397">
        <ele>84.4</ele>
        <time>2015-06-15T19:24:18.946Z</time>
      </trkpt>
      <trkpt lat="48.93916" lon="2.28389">
        <ele>84.5</ele>
        <time>2015-06-15T19:24:19.951Z</time>
      </trkpt>
      <trkpt lat="48.93915" lon="2.28381">
        <ele>84.5</ele>
        <time>2015-06-15T19:24:20.983Z</time>
      </trkpt>
      <trkpt lat="48.93913" lon="2.28373">
        <ele>84.5</ele>
        <time>2015-06-15T19:24:21.886Z</time>
      </trkpt>
      <trkpt lat="48.93911" lon="2.28365">
        <ele>84.3</ele>
        <time>2015-06-15T19:24:22.907Z</time>
      </trkpt>
      <trkpt lat="48.93909" lon="2.28357">
        <ele>84.2</ele>
        <time>2015-06-15T19:24:23.921Z</time>
      </trkpt>
      <trkpt lat="48.93907" lon="2.28349">
        <ele>84.3</ele>
        <time>2015-06-15T19:24:24.931Z</time>
      </trkpt>
      <trkpt lat="48.93906" lon="2.28341">
        <ele>84.4</ele>
        <time>2015-06-15T19:24:25.941Z</time>
      </trkpt>
      <trkpt lat="48.93904" lon="2.28334">
        <ele>84.6</ele>
        <time>2015-06-15T19:24:26.956Z</time>
      </trkpt>
      <trkpt lat="48.93902" lon="2.28326">
        <ele>84.5</ele>
        <time>2015-06-15T19:24:27.963Z</time>
      </trkpt>
      <trkpt lat="48.93901" lon="2.28319">
        <ele>84.4</ele>
        <time>2015-06-15T19:24:28.883Z</time>
      </trkpt>
      <trkpt lat="48.93899" lon="2.28311">
        <ele>84.3</ele>
        <time>2015-06-15T19:24:29.889Z</time>
      </trkpt>
      <trkpt lat="48.93898" lon="2.28304">
        <ele>84.4</ele>
        <time>2015-06-15T19:24:30.896Z</time>
      </trkpt>
      <trkpt lat="48.93896" lon="2.28296">
        <ele>84.3</ele>
        <time>2015-06-15T19:24:31.902Z</time>
      </trkpt>
      <trkpt lat="48.93895" lon="2.28288">
        <ele>84.2</ele>
        <time>2015-06-15T19:24:32.961Z</time>
      </trkpt>
      <trkpt lat="48.93893" lon="2.2828">
        <ele>84.2</ele>
        <time>2015-06-15T19:24:33.891Z</time>
      </trkpt>
      <trkpt lat="48.93892" lon="2.28272">
        <ele>83.8</ele>
        <time>2015-06-15T19:24:34.884Z</time>
      </trkpt>
      <trkpt lat="48.9389" lon="2.28264">
        <ele>83.8</ele>
        <time>2015-06-15T19:24:35.887Z</time>
      </trkpt>
      <trkpt lat="48.93888" lon="2.28256">
        <ele>83.7</ele>
        <time>2015-06-15T19:24:36.902Z</time>
      </trkpt>
      <trkpt lat="48.93887" lon="2.28248">
        <ele>83.6</ele>
        <time>2015-06-15T19:24:37.910Z</time>
      </trkpt>
      <trkpt lat="48.93885" lon="2.28239">
        <ele>83.2</ele>
        <time>2015-06-15T19:24:38.947Z</time>
      </trkpt>
      <trkpt lat="48.93883" lon="2.28231">
        <ele>82.9</ele>
        <time>2015-06-15T19:24:39.943Z</time>
      </trkpt>
      <trkpt lat="48.93881" lon="2.28223">
        <ele>82.8</ele>
        <time>2015-06-15T19:24:40.973Z</time>
      </trkpt>
      <trkpt lat="48.9388" lon="2.28215">
        <ele>82.4</ele>
        <time>2015-06-15T19:24:41.925Z</time>
      </trkpt>
      <trkpt lat="48.93878" lon="2.28207">
        <ele>82.4</ele>
        <time>2015-06-15T19:24:42.911Z</time>
      </trkpt>
      <trkpt lat="48.93877" lon="2.282">
        <ele>82.6</ele>
        <time>2015-06-15T19:24:43.959Z</time>
      </trkpt>
      <trkpt lat="48.93876" lon="2.28192">
        <ele>83</ele>
        <time>2015-06-15T19:24:44.976Z</time>
      </trkpt>
      <trkpt lat="48.93874" lon="2.28183">
        <ele>83.2</ele>
        <time>2015-06-15T19:24:45.884Z</time>
      </trkpt>
      <trkpt lat="48.93873" lon="2.28175">
        <ele>83.2</ele>
        <time>2015-06-15T19:24:46.889Z</time>
      </trkpt>
      <trkpt lat="48.93871" lon="2.28167">
        <ele>82.9</ele>
        <time>2015-06-15T19:24:47.902Z</time>
      </trkpt>
      <trkpt lat="48.93869" lon="2.28159">
        <ele>83</ele>
        <time>2015-06-15T19:24:48.910Z</time>
      </trkpt>
      <trkpt lat="48.93867" lon="2.2815">
        <ele>83</ele>
        <time>2015-06-15T19:24:49.918Z</time>
      </trkpt>
      <trkpt lat="48.93865" lon="2.28142">
        <ele>83</ele>
        <time>2015-06-15T19:24:50.914Z</time>
      </trkpt>
      <trkpt lat="48.93864" lon="2.28134">
        <ele>83.3</ele>
        <time>2015-06-15T19:24:51.932Z</time>
      </trkpt>
      <trkpt lat="48.93862" lon="2.28126">
        <ele>83.7</ele>
        <time>2015-06-15T19:24:52.941Z</time>
      </trkpt>
      <trkpt lat="48.9386" lon="2.28118">
        <ele>84.3</ele>
        <time>2015-06-15T19:24:53.951Z</time>
      </trkpt>
      <trkpt lat="48.93859" lon="2.2811">
        <ele>85.2</ele>
        <time>2015-06-15T19:24:54.866Z</time>
      </trkpt>
      <trkpt lat="48.93857" lon="2.28103">
        <ele>85.7</ele>
        <time>2015-06-15T19:24:55.887Z</time>
      </trkpt>
      <trkpt lat="48.93856" lon="2.28096">
        <ele>85.8</ele>
        <time>2015-06-15T19:24:56.930Z</time>
      </trkpt>
      <trkpt lat="48.93854" lon="2.28088">
        <ele>85.9</ele>
        <time>2015-06-15T19:24:57.946Z</time>
      </trkpt>
      <trkpt lat="48.93853" lon="2.28081">
        <ele>86</ele>
        <time>2015-06-15T19:24:58.962Z</time>
      </trkpt>
      <trkpt lat="48.93852" lon="2.28073">
        <ele>86.1</ele>
        <time>2015-06-15T19:25:00.172Z</time>
      </trkpt>
      <trkpt lat="48.93851" lon="2.28066">
        <ele>86.1</ele>
        <time>2015-06-15T19:25:00.920Z</time>
      </trkpt>
      <trkpt lat="48.93849" lon="2.28059">
        <ele>86.3</ele>
        <time>2015-06-15T19:25:01.924Z</time>
      </trkpt>
      <trkpt lat="48.93849" lon="2.28052">
        <ele>86.3</ele>
        <time>2015-06-15T19:25:02.980Z</time>
      </trkpt>
      <trkpt lat="48.93847" lon="2.28045">
        <ele>86.4</ele>
        <time>2015-06-15T19:25:03.904Z</time>
      </trkpt>
      <trkpt lat="48.93846" lon="2.28039">
        <ele>86.6</ele>
        <time>2015-06-15T19:25:04.938Z</time>
      </trkpt>
      <trkpt lat="48.93844" lon="2.28032">
        <ele>86.7</ele>
        <time>2015-06-15T19:25:05.910Z</time>
      </trkpt>
      <trkpt lat="48.93843" lon="2.28025">
        <ele>86.7</ele>
        <time>2015-06-15T19:25:06.911Z</time>
      </trkpt>
      <trkpt lat="48.93841" lon="2.28017">
        <ele>86.6</ele>
        <time>2015-06-15T19:25:07.919Z</time>
      </trkpt>
      <trkpt lat="48.93839" lon="2.28011">
        <ele>86.6</ele>
        <time>2015-06-15T19:25:08.945Z</time>
      </trkpt>
      <trkpt lat="48.93838" lon="2.28003">
        <ele>86.6</ele>
        <time>2015-06-15T19:25:09.950Z</time>
      </trkpt>
      <trkpt lat="48.93836" lon="2.27996">
        <ele>86.5</ele>
        <time>2015-06-15T19:25:10.884Z</time>
      </trkpt>
      <trkpt lat="48.93834" lon="2.27989">
        <ele>86.5</ele>
        <time>2015-06-15T19:25:11.899Z</time>
      </trkpt>
      <trkpt lat="48.93832" lon="2.27982">
        <ele>86.7</ele>
        <time>2015-06-15T19:25:12.906Z</time>
      </trkpt>
      <trkpt lat="48.93831" lon="2.27975">
        <ele>86.7</ele>
        <time>2015-06-15T19:25:13.942Z</time>
      </trkpt>
      <trkpt lat="48.9383" lon="2.27968">
        <ele>86.7</ele>
        <time>2015-06-15T19:25:14.982Z</time>
      </trkpt>
      <trkpt lat="48.93829" lon="2.27961">
        <ele>86.5</ele>
        <time>2015-06-15T19:25:15.964Z</time>
      </trkpt>
      <trkpt lat="48.93828" lon="2.27954">
        <ele>86.2</ele>
        <time>2015-06-15T19:25:16.978Z</time>
      </trkpt>
      <trkpt lat="48.93826" lon="2.27948">
        <ele>86.2</ele>
        <time>2015-06-15T19:25:17.899Z</time>
      </trkpt>
      <trkpt lat="48.93825" lon="2.27941">
        <ele>86</ele>
        <time>2015-06-15T19:25:18.918Z</time>
      </trkpt>
      <trkpt lat="48.93824" lon="2.27934">
        <ele>85.9</ele>
        <time>2015-06-15T19:25:19.929Z</time>
      </trkpt>
      <trkpt lat="48.93822" lon="2.27928">
        <ele>85.8</ele>
        <time>2015-06-15T19:25:20.966Z</time>
      </trkpt>
      <trkpt lat="48.93821" lon="2.27921">
        <ele>85.7</ele>
        <time>2015-06-15T19:25:22.146Z</time>
      </trkpt>
      <trkpt lat="48.9382" lon="2.27914">
        <ele>85.7</ele>
        <time>2015-06-15T19:25:22.899Z</time>
      </trkpt>
      <trkpt lat="48.93819" lon="2.27907">
        <ele>85.8</ele>
        <time>2015-06-15T19:25:23.894Z</time>
      </trkpt>
      <trkpt lat="48.93817" lon="2.279">
        <ele>85.6</ele>
        <time>2015-06-15T19:25:24.896Z</time>
      </trkpt>
      <trkpt lat="48.93816" lon="2.27893">
        <ele>85.1</ele>
        <time>2015-06-15T19:25:25.905Z</time>
      </trkpt>
      <trkpt lat="48.93815" lon="2.27886">
        <ele>85</ele>
        <time>2015-06-15T19:25:27.012Z</time>
      </trkpt>
      <trkpt lat="48.93813" lon="2.27873">
        <ele>85.2</ele>
        <time>2015-06-15T19:25:28.931Z</time>
      </trkpt>
      <trkpt lat="48.93813" lon="2.27867">
        <ele>85.2</ele>
        <time>2015-06-15T19:25:29.993Z</time>
      </trkpt>
      <trkpt lat="48.93816" lon="2.27856">
        <ele>85.4</ele>
        <time>2015-06-15T19:25:31.898Z</time>
      </trkpt>
      <trkpt lat="48.93818" lon="2.27851">
        <ele>85.5</ele>
        <time>2015-06-15T19:25:33.026Z</time>
      </trkpt>
      <trkpt lat="48.93821" lon="2.27842">
        <ele>85.5</ele>
        <time>2015-06-15T19:25:34.893Z</time>
      </trkpt>
      <trkpt lat="48.93822" lon="2.27838">
        <ele>85.5</ele>
        <time>2015-06-15T19:25:35.909Z</time>
      </trkpt>
      <trkpt lat="48.93823" lon="2.27828">
        <ele>85.4</ele>
        <time>2015-06-15T19:25:37.965Z</time>
      </trkpt>
      <trkpt lat="48.93823" lon="2.27823">
        <ele>85.4</ele>
        <time>2015-06-15T19:25:39.024Z</time>
      </trkpt>
      <trkpt lat="48.93821" lon="2.27813">
        <ele>85.9</ele>
        <time>2015-06-15T19:25:40.925Z</time>
      </trkpt>
      <trkpt lat="48.9382" lon="2.27809">
        <ele>86.1</ele>
        <time>2015-06-15T19:25:41.949Z</time>
      </trkpt>
      <trkpt lat="48.93816" lon="2.27799">
        <ele>85.8</ele>
        <time>2015-06-15T19:25:45.948Z</time>
      </trkpt>
      <trkpt lat="48.93816" lon="2.27799">
        <ele>85.5</ele>
        <time>2015-06-15T19:25:46.916Z</time>
      </trkpt>
      <trkpt lat="48.93816" lon="2.27799">
        <ele>85.4</ele>
        <time>2015-06-15T19:25:51.031Z</time>
      </trkpt>
      <trkpt lat="48.93813" lon="2.27798">
        <ele>85.6</ele>
        <time>2015-06-15T19:25:51.910Z</time>
      </trkpt>
      <trkpt lat="48.93806" lon="2.27791">
        <ele>85.6</ele>
        <time>2015-06-15T19:25:55.959Z</time>
      </trkpt>
      <trkpt lat="48.93804" lon="2.27788">
        <ele>85.5</ele>
        <time>2015-06-15T19:25:56.982Z</time>
      </trkpt>
      <trkpt lat="48.93798" lon="2.2778">
        <ele>85.5</ele>
        <time>2015-06-15T19:25:59.954Z</time>
      </trkpt>
      <trkpt lat="48.93796" lon="2.27775">
        <ele>85.7</ele>
        <time>2015-06-15T19:26:00.913Z</time>
      </trkpt>
      <trkpt lat="48.93794" lon="2.27766">
        <ele>85.2</ele>
        <time>2015-06-15T19:26:03.088Z</time>
      </trkpt>
      <trkpt lat="48.93793" lon="2.27761">
        <ele>85.2</ele>
        <time>2015-06-15T19:26:03.928Z</time>
      </trkpt>
      <trkpt lat="48.9379" lon="2.2775">
        <ele>84.7</ele>
        <time>2015-06-15T19:26:05.920Z</time>
      </trkpt>
      <trkpt lat="48.93789" lon="2.27744">
        <ele>84.6</ele>
        <time>2015-06-15T19:26:06.934Z</time>
      </trkpt>
      <trkpt lat="48.93787" lon="2.27737">
        <ele>84.3</ele>
        <time>2015-06-15T19:26:07.898Z</time>
      </trkpt>
      <trkpt lat="48.93786" lon="2.27731">
        <ele>84</ele>
        <time>2015-06-15T19:26:08.972Z</time>
      </trkpt>
      <trkpt lat="48.93784" lon="2.27717">
        <ele>83.4</ele>
        <time>2015-06-15T19:26:10.963Z</time>
      </trkpt>
      <trkpt lat="48.93783" lon="2.27711">
        <ele>83.2</ele>
        <time>2015-06-15T19:26:11.903Z</time>
      </trkpt>
      <trkpt lat="48.9378" lon="2.27698">
        <ele>83.3</ele>
        <time>2015-06-15T19:26:13.979Z</time>
      </trkpt>
      <trkpt lat="48.93779" lon="2.27692">
        <ele>83.4</ele>
        <time>2015-06-15T19:26:14.963Z</time>
      </trkpt>
      <trkpt lat="48.93778" lon="2.27685">
        <ele>83.5</ele>
        <time>2015-06-15T19:26:15.977Z</time>
      </trkpt>
      <trkpt lat="48.93776" lon="2.27678">
        <ele>83.6</ele>
        <time>2015-06-15T19:26:16.981Z</time>
      </trkpt>
      <trkpt lat="48.93773" lon="2.27666">
        <ele>83.4</ele>
        <time>2015-06-15T19:26:18.913Z</time>
      </trkpt>
      <trkpt lat="48.93772" lon="2.27661">
        <ele>83.4</ele>
        <time>2015-06-15T19:26:19.915Z</time>
      </trkpt>
      <trkpt lat="48.93769" lon="2.27649">
        <ele>83.5</ele>
        <time>2015-06-15T19:26:21.939Z</time>
      </trkpt>
      <trkpt lat="48.93768" lon="2.27643">
        <ele>83.7</ele>
        <time>2015-06-15T19:26:22.903Z</time>
      </trkpt>
      <trkpt lat="48.93765" lon="2.2763">
        <ele>84</ele>
        <time>2015-06-15T19:26:24.941Z</time>
      </trkpt>
      <trkpt lat="48.93764" lon="2.27623">
        <ele>84</ele>
        <time>2015-06-15T19:26:25.967Z</time>
      </trkpt>
      <trkpt lat="48.93763" lon="2.27616">
        <ele>84</ele>
        <time>2015-06-15T19:26:26.984Z</time>
      </trkpt>
      <trkpt lat="48.93761" lon="2.27609">
        <ele>84</ele>
        <time>2015-06-15T19:26:27.902Z</time>
      </trkpt>
      <trkpt lat="48.9376" lon="2.27602">
        <ele>83.9</ele>
        <time>2015-06-15T19:26:28.931Z</time>
      </trkpt>
      <trkpt lat="48.93758" lon="2.27594">
        <ele>83.6</ele>
        <time>2015-06-15T19:26:29.948Z</time>
      </trkpt>
      <trkpt lat="48.93757" lon="2.27587">
        <ele>83.7</ele>
        <time>2015-06-15T19:26:30.951Z</time>
      </trkpt>
      <trkpt lat="48.93756" lon="2.2758">
        <ele>84</ele>
        <time>2015-06-15T19:26:31.987Z</time>
      </trkpt>
      <trkpt lat="48.93754" lon="2.27572">
        <ele>83.9</ele>
        <time>2015-06-15T19:26:33.057Z</time>
      </trkpt>
      <trkpt lat="48.93752" lon="2.27564">
        <ele>83.8</ele>
        <time>2015-06-15T19:26:33.906Z</time>
      </trkpt>
      <trkpt lat="48.93751" lon="2.27557">
        <ele>83.9</ele>
        <time>2015-06-15T19:26:34.918Z</time>
      </trkpt>
      <trkpt lat="48.93749" lon="2.27549">
        <ele>83.8</ele>
        <time>2015-06-15T19:26:35.927Z</time>
      </trkpt>
      <trkpt lat="48.93748" lon="2.27542">
        <ele>83.8</ele>
        <time>2015-06-15T19:26:36.947Z</time>
      </trkpt>
      <trkpt lat="48.93746" lon="2.27535">
        <ele>84</ele>
        <time>2015-06-15T19:26:37.984Z</time>
      </trkpt>
      <trkpt lat="48.93745" lon="2.27527">
        <ele>84</ele>
        <time>2015-06-15T19:26:38.995Z</time>
      </trkpt>
      <trkpt lat="48.93743" lon="2.2752">
        <ele>84.1</ele>
        <time>2015-06-15T19:26:39.896Z</time>
      </trkpt>
      <trkpt lat="48.93742" lon="2.27513">
        <ele>84.2</ele>
        <time>2015-06-15T19:26:40.888Z</time>
      </trkpt>
      <trkpt lat="48.93741" lon="2.27506">
        <ele>84</ele>
        <time>2015-06-15T19:26:41.909Z</time>
      </trkpt>
      <trkpt lat="48.93739" lon="2.27499">
        <ele>83.9</ele>
        <time>2015-06-15T19:26:42.922Z</time>
      </trkpt>
      <trkpt lat="48.93737" lon="2.27491">
        <ele>83.9</ele>
        <time>2015-06-15T19:26:43.934Z</time>
      </trkpt>
      <trkpt lat="48.93735" lon="2.27484">
        <ele>83.8</ele>
        <time>2015-06-15T19:26:44.963Z</time>
      </trkpt>
      <trkpt lat="48.93734" lon="2.27477">
        <ele>84.1</ele>
        <time>2015-06-15T19:26:45.876Z</time>
      </trkpt>
      <trkpt lat="48.93733" lon="2.27469">
        <ele>84.2</ele>
        <time>2015-06-15T19:26:46.870Z</time>
      </trkpt>
      <trkpt lat="48.93731" lon="2.27461">
        <ele>84.1</ele>
        <time>2015-06-15T19:26:47.879Z</time>
      </trkpt>
      <trkpt lat="48.93729" lon="2.27452">
        <ele>84.3</ele>
        <time>2015-06-15T19:26:48.896Z</time>
      </trkpt>
      <trkpt lat="48.93728" lon="2.27444">
        <ele>84.2</ele>
        <time>2015-06-15T19:26:49.899Z</time>
      </trkpt>
      <trkpt lat="48.93726" lon="2.27436">
        <ele>84.1</ele>
        <time>2015-06-15T19:26:50.926Z</time>
      </trkpt>
      <trkpt lat="48.93724" lon="2.27428">
        <ele>84.3</ele>
        <time>2015-06-15T19:26:51.926Z</time>
      </trkpt>
      <trkpt lat="48.93723" lon="2.2742">
        <ele>84.6</ele>
        <time>2015-06-15T19:26:52.937Z</time>
      </trkpt>
      <trkpt lat="48.93721" lon="2.27411">
        <ele>84.7</ele>
        <time>2015-06-15T19:26:53.945Z</time>
      </trkpt>
      <trkpt lat="48.93719" lon="2.27402">
        <ele>84.7</ele>
        <time>2015-06-15T19:26:54.955Z</time>
      </trkpt>
      <trkpt lat="48.93717" lon="2.27394">
        <ele>84.7</ele>
        <time>2015-06-15T19:26:55.964Z</time>
      </trkpt>
      <trkpt lat="48.93715" lon="2.27385">
        <ele>84.9</ele>
        <time>2015-06-15T19:26:56.975Z</time>
      </trkpt>
      <trkpt lat="48.93712" lon="2.27377">
        <ele>85.2</ele>
        <time>2015-06-15T19:26:57.880Z</time>
      </trkpt>
      <trkpt lat="48.93711" lon="2.27368">
        <ele>85.5</ele>
        <time>2015-06-15T19:26:58.893Z</time>
      </trkpt>
      <trkpt lat="48.93709" lon="2.27359">
        <ele>85.7</ele>
        <time>2015-06-15T19:26:59.908Z</time>
      </trkpt>
      <trkpt lat="48.93707" lon="2.27351">
        <ele>86</ele>
        <time>2015-06-15T19:27:00.913Z</time>
      </trkpt>
      <trkpt lat="48.93705" lon="2.27343">
        <ele>86.2</ele>
        <time>2015-06-15T19:27:01.924Z</time>
      </trkpt>
      <trkpt lat="48.93703" lon="2.27334">
        <ele>86.4</ele>
        <time>2015-06-15T19:27:02.947Z</time>
      </trkpt>
      <trkpt lat="48.93702" lon="2.27325">
        <ele>86.5</ele>
        <time>2015-06-15T19:27:03.954Z</time>
      </trkpt>
      <trkpt lat="48.937" lon="2.27317">
        <ele>86.5</ele>
        <time>2015-06-15T19:27:04.918Z</time>
      </trkpt>
      <trkpt lat="48.93698" lon="2.27308">
        <ele>86.6</ele>
        <time>2015-06-15T19:27:05.905Z</time>
      </trkpt>
      <trkpt lat="48.93697" lon="2.273">
        <ele>86.5</ele>
        <time>2015-06-15T19:27:06.946Z</time>
      </trkpt>
      <trkpt lat="48.93695" lon="2.27291">
        <ele>86.6</ele>
        <time>2015-06-15T19:27:07.952Z</time>
      </trkpt>
      <trkpt lat="48.93694" lon="2.27283">
        <ele>86.5</ele>
        <time>2015-06-15T19:27:08.979Z</time>
      </trkpt>
      <trkpt lat="48.93692" lon="2.27274">
        <ele>86.3</ele>
        <time>2015-06-15T19:27:09.882Z</time>
      </trkpt>
      <trkpt lat="48.93691" lon="2.27266">
        <ele>86.1</ele>
        <time>2015-06-15T19:27:10.911Z</time>
      </trkpt>
      <trkpt lat="48.93689" lon="2.27257">
        <ele>85.8</ele>
        <time>2015-06-15T19:27:11.881Z</time>
      </trkpt>
      <trkpt lat="48.93687" lon="2.27249">
        <ele>85.4</ele>
        <time>2015-06-15T19:27:12.886Z</time>
      </trkpt>
      <trkpt lat="48.93686" lon="2.27241">
        <ele>85</ele>
        <time>2015-06-15T19:27:13.922Z</time>
      </trkpt>
      <trkpt lat="48.93684" lon="2.27233">
        <ele>84.8</ele>
        <time>2015-06-15T19:27:14.982Z</time>
      </trkpt>
      <trkpt lat="48.93683" lon="2.27224">
        <ele>84.5</ele>
        <time>2015-06-15T19:27:15.882Z</time>
      </trkpt>
      <trkpt lat="48.93682" lon="2.27216">
        <ele>84.1</ele>
        <time>2015-06-15T19:27:16.882Z</time>
      </trkpt>
      <trkpt lat="48.9368" lon="2.27208">
        <ele>84.3</ele>
        <time>2015-06-15T19:27:17.915Z</time>
      </trkpt>
      <trkpt lat="48.93679" lon="2.27201">
        <ele>84.4</ele>
        <time>2015-06-15T19:27:18.915Z</time>
      </trkpt>
      <trkpt lat="48.93677" lon="2.27193">
        <ele>85</ele>
        <time>2015-06-15T19:27:19.925Z</time>
      </trkpt>
      <trkpt lat="48.93676" lon="2.27187">
        <ele>85</ele>
        <time>2015-06-15T19:27:20.949Z</time>
      </trkpt>
      <trkpt lat="48.93674" lon="2.27179">
        <ele>85</ele>
        <time>2015-06-15T19:27:21.956Z</time>
      </trkpt>
      <trkpt lat="48.93673" lon="2.27172">
        <ele>84.9</ele>
        <time>2015-06-15T19:27:22.885Z</time>
      </trkpt>
      <trkpt lat="48.93672" lon="2.27165">
        <ele>85.1</ele>
        <time>2015-06-15T19:27:23.884Z</time>
      </trkpt>
      <trkpt lat="48.93671" lon="2.27157">
        <ele>85.1</ele>
        <time>2015-06-15T19:27:24.878Z</time>
      </trkpt>
      <trkpt lat="48.93669" lon="2.2715">
        <ele>84.8</ele>
        <time>2015-06-15T19:27:25.882Z</time>
      </trkpt>
      <trkpt lat="48.93668" lon="2.27142">
        <ele>84.7</ele>
        <time>2015-06-15T19:27:26.969Z</time>
      </trkpt>
      <trkpt lat="48.93666" lon="2.27135">
        <ele>84.7</ele>
        <time>2015-06-15T19:27:27.847Z</time>
      </trkpt>
      <trkpt lat="48.93665" lon="2.27127">
        <ele>84.9</ele>
        <time>2015-06-15T19:27:28.890Z</time>
      </trkpt>
      <trkpt lat="48.93663" lon="2.2712">
        <ele>85</ele>
        <time>2015-06-15T19:27:29.898Z</time>
      </trkpt>
      <trkpt lat="48.93662" lon="2.27112">
        <ele>84.9</ele>
        <time>2015-06-15T19:27:30.907Z</time>
      </trkpt>
      <trkpt lat="48.9366" lon="2.27105">
        <ele>85.1</ele>
        <time>2015-06-15T19:27:31.938Z</time>
      </trkpt>
      <trkpt lat="48.93659" lon="2.27097">
        <ele>85.4</ele>
        <time>2015-06-15T19:27:32.948Z</time>
      </trkpt>
      <trkpt lat="48.93657" lon="2.27089">
        <ele>85.5</ele>
        <time>2015-06-15T19:27:33.960Z</time>
      </trkpt>
      <trkpt lat="48.93656" lon="2.27082">
        <ele>85.6</ele>
        <time>2015-06-15T19:27:34.891Z</time>
      </trkpt>
      <trkpt lat="48.93654" lon="2.27074">
        <ele>85.4</ele>
        <time>2015-06-15T19:27:35.910Z</time>
      </trkpt>
      <trkpt lat="48.93653" lon="2.27067">
        <ele>85.6</ele>
        <time>2015-06-15T19:27:36.914Z</time>
      </trkpt>
      <trkpt lat="48.93651" lon="2.2706">
        <ele>85.9</ele>
        <time>2015-06-15T19:27:37.916Z</time>
      </trkpt>
      <trkpt lat="48.93649" lon="2.27052">
        <ele>86.1</ele>
        <time>2015-06-15T19:27:38.947Z</time>
      </trkpt>
      <trkpt lat="48.93647" lon="2.27044">
        <ele>86.2</ele>
        <time>2015-06-15T19:27:39.885Z</time>
      </trkpt>
      <trkpt lat="48.93645" lon="2.27036">
        <ele>86.5</ele>
        <time>2015-06-15T19:27:40.904Z</time>
      </trkpt>
      <trkpt lat="48.93644" lon="2.27029">
        <ele>87</ele>
        <time>2015-06-15T19:27:41.904Z</time>
      </trkpt>
      <trkpt lat="48.93643" lon="2.27021">
        <ele>87.3</ele>
        <time>2015-06-15T19:27:42.925Z</time>
      </trkpt>
      <trkpt lat="48.93641" lon="2.27014">
        <ele>87.4</ele>
        <time>2015-06-15T19:27:43.934Z</time>
      </trkpt>
      <trkpt lat="48.93639" lon="2.27006">
        <ele>87.9</ele>
        <time>2015-06-15T19:27:44.953Z</time>
      </trkpt>
      <trkpt lat="48.93637" lon="2.26999">
        <ele>88.3</ele>
        <time>2015-06-15T19:27:45.879Z</time>
      </trkpt>
      <trkpt lat="48.93635" lon="2.26991">
        <ele>88.6</ele>
        <time>2015-06-15T19:27:46.887Z</time>
      </trkpt>
      <trkpt lat="48.93633" lon="2.26983">
        <ele>88.6</ele>
        <time>2015-06-15T19:27:47.907Z</time>
      </trkpt>
      <trkpt lat="48.93632" lon="2.26975">
        <ele>89.1</ele>
        <time>2015-06-15T19:27:48.928Z</time>
      </trkpt>
      <trkpt lat="48.9363" lon="2.26967">
        <ele>89</ele>
        <time>2015-06-15T19:27:49.943Z</time>
      </trkpt>
      <trkpt lat="48.93629" lon="2.2696">
        <ele>88.8</ele>
        <time>2015-06-15T19:27:50.951Z</time>
      </trkpt>
      <trkpt lat="48.93627" lon="2.26952">
        <ele>88.7</ele>
        <time>2015-06-15T19:27:51.889Z</time>
      </trkpt>
      <trkpt lat="48.93625" lon="2.26944">
        <ele>88.7</ele>
        <time>2015-06-15T19:27:52.871Z</time>
      </trkpt>
      <trkpt lat="48.93624" lon="2.26937">
        <ele>88.8</ele>
        <time>2015-06-15T19:27:53.882Z</time>
      </trkpt>
      <trkpt lat="48.93623" lon="2.2693">
        <ele>88.9</ele>
        <time>2015-06-15T19:27:54.894Z</time>
      </trkpt>
      <trkpt lat="48.93621" lon="2.26923">
        <ele>89.2</ele>
        <time>2015-06-15T19:27:55.906Z</time>
      </trkpt>
      <trkpt lat="48.9362" lon="2.26916">
        <ele>89</ele>
        <time>2015-06-15T19:27:56.945Z</time>
      </trkpt>
      <trkpt lat="48.93619" lon="2.26909">
        <ele>88.6</ele>
        <time>2015-06-15T19:27:57.954Z</time>
      </trkpt>
      <trkpt lat="48.93617" lon="2.26897">
        <ele>87.9</ele>
        <time>2015-06-15T19:27:59.885Z</time>
      </trkpt>
      <trkpt lat="48.93616" lon="2.2689">
        <ele>87.9</ele>
        <time>2015-06-15T19:28:00.881Z</time>
      </trkpt>
      <trkpt lat="48.93615" lon="2.26884">
        <ele>87.8</ele>
        <time>2015-06-15T19:28:01.896Z</time>
      </trkpt>
      <trkpt lat="48.93613" lon="2.26877">
        <ele>88</ele>
        <time>2015-06-15T19:28:02.939Z</time>
      </trkpt>
      <trkpt lat="48.93612" lon="2.2687">
        <ele>88.1</ele>
        <time>2015-06-15T19:28:03.980Z</time>
      </trkpt>
      <trkpt lat="48.9361" lon="2.26863">
        <ele>88.4</ele>
        <time>2015-06-15T19:28:04.971Z</time>
      </trkpt>
      <trkpt lat="48.93608" lon="2.2685">
        <ele>89.1</ele>
        <time>2015-06-15T19:28:06.889Z</time>
      </trkpt>
      <trkpt lat="48.93607" lon="2.26844">
        <ele>89.6</ele>
        <time>2015-06-15T19:28:07.950Z</time>
      </trkpt>
      <trkpt lat="48.93605" lon="2.26837">
        <ele>90</ele>
        <time>2015-06-15T19:28:09.084Z</time>
      </trkpt>
      <trkpt lat="48.93604" lon="2.26831">
        <ele>89.9</ele>
        <time>2015-06-15T19:28:09.897Z</time>
      </trkpt>
      <trkpt lat="48.93602" lon="2.26824">
        <ele>89.9</ele>
        <time>2015-06-15T19:28:10.928Z</time>
      </trkpt>
      <trkpt lat="48.936" lon="2.26817">
        <ele>90</ele>
        <time>2015-06-15T19:28:11.938Z</time>
      </trkpt>
      <trkpt lat="48.93599" lon="2.2681">
        <ele>90.1</ele>
        <time>2015-06-15T19:28:12.952Z</time>
      </trkpt>
      <trkpt lat="48.93597" lon="2.26803">
        <ele>90.1</ele>
        <time>2015-06-15T19:28:13.980Z</time>
      </trkpt>
      <trkpt lat="48.93594" lon="2.26792">
        <ele>89.5</ele>
        <time>2015-06-15T19:28:15.864Z</time>
      </trkpt>
      <trkpt lat="48.93594" lon="2.26787">
        <ele>89.3</ele>
        <time>2015-06-15T19:28:16.894Z</time>
      </trkpt>
      <trkpt lat="48.93594" lon="2.26776">
        <ele>89</ele>
        <time>2015-06-15T19:28:18.912Z</time>
      </trkpt>
      <trkpt lat="48.93594" lon="2.26771">
        <ele>88.7</ele>
        <time>2015-06-15T19:28:19.924Z</time>
      </trkpt>
      <trkpt lat="48.93598" lon="2.26759">
        <ele>88.5</ele>
        <time>2015-06-15T19:28:22.892Z</time>
      </trkpt>
      <trkpt lat="48.93599" lon="2.26756">
        <ele>88.4</ele>
        <time>2015-06-15T19:28:23.935Z</time>
      </trkpt>
      <trkpt lat="48.93604" lon="2.26748">
        <ele>88.2</ele>
        <time>2015-06-15T19:28:26.992Z</time>
      </trkpt>
      <trkpt lat="48.93606" lon="2.26745">
        <ele>88.2</ele>
        <time>2015-06-15T19:28:28.001Z</time>
      </trkpt>
      <trkpt lat="48.93612" lon="2.26735">
        <ele>87.6</ele>
        <time>2015-06-15T19:28:31.022Z</time>
      </trkpt>
      <trkpt lat="48.93614" lon="2.26732">
        <ele>87.4</ele>
        <time>2015-06-15T19:28:31.925Z</time>
      </trkpt>
      <trkpt lat="48.93619" lon="2.26724">
        <ele>86.9</ele>
        <time>2015-06-15T19:28:34.909Z</time>
      </trkpt>
      <trkpt lat="48.93619" lon="2.26721">
        <ele>86.8</ele>
        <time>2015-06-15T19:28:35.919Z</time>
      </trkpt>
      <trkpt lat="48.9362" lon="2.26708">
        <ele>87.1</ele>
        <time>2015-06-15T19:28:41.432Z</time>
      </trkpt>
      <trkpt lat="48.93619" lon="2.26705">
        <ele>87.4</ele>
        <time>2015-06-15T19:28:41.922Z</time>
      </trkpt>
      <trkpt lat="48.9362" lon="2.26703">
        <ele>87.7</ele>
        <time>2015-06-15T19:28:49.924Z</time>
      </trkpt>
      <trkpt lat="48.93616" lon="2.26692">
        <ele>87.3</ele>
        <time>2015-06-15T19:28:50.978Z</time>
      </trkpt>
      <trkpt lat="48.93611" lon="2.26683">
        <ele>87.4</ele>
        <time>2015-06-15T19:28:54.913Z</time>
      </trkpt>
      <trkpt lat="48.9361" lon="2.26681">
        <ele>87.5</ele>
        <time>2015-06-15T19:28:55.918Z</time>
      </trkpt>
      <trkpt lat="48.93603" lon="2.26674">
        <ele>87.9</ele>
        <time>2015-06-15T19:28:59.956Z</time>
      </trkpt>
      <trkpt lat="48.93601" lon="2.26673">
        <ele>88.1</ele>
        <time>2015-06-15T19:29:00.859Z</time>
      </trkpt>
      <trkpt lat="48.93592" lon="2.26669">
        <ele>88.8</ele>
        <time>2015-06-15T19:29:04.916Z</time>
      </trkpt>
      <trkpt lat="48.9359" lon="2.26668">
        <ele>89</ele>
        <time>2015-06-15T19:29:05.931Z</time>
      </trkpt>
      <trkpt lat="48.93583" lon="2.26665">
        <ele>89.5</ele>
        <time>2015-06-15T19:29:08.993Z</time>
      </trkpt>
      <trkpt lat="48.93581" lon="2.26665">
        <ele>89.4</ele>
        <time>2015-06-15T19:29:09.918Z</time>
      </trkpt>
      <trkpt lat="48.93574" lon="2.26658">
        <ele>90.2</ele>
        <time>2015-06-15T19:29:13.216Z</time>
      </trkpt>
      <trkpt lat="48.93572" lon="2.26655">
        <ele>90.1</ele>
        <time>2015-06-15T19:29:13.951Z</time>
      </trkpt>
      <trkpt lat="48.93565" lon="2.26651">
        <ele>90.8</ele>
        <time>2015-06-15T19:29:16.980Z</time>
      </trkpt>
      <trkpt lat="48.93563" lon="2.26651">
        <ele>90.3</ele>
        <time>2015-06-15T19:29:17.916Z</time>
      </trkpt>
      <trkpt lat="48.93556" lon="2.26646">
        <ele>90</ele>
        <time>2015-06-15T19:29:20.988Z</time>
      </trkpt>
      <trkpt lat="48.93554" lon="2.26644">
        <ele>89.9</ele>
        <time>2015-06-15T19:29:22.001Z</time>
      </trkpt>
      <trkpt lat="48.93549" lon="2.26634">
        <ele>89.1</ele>
        <time>2015-06-15T19:29:24.930Z</time>
      </trkpt>
      <trkpt lat="48.93547" lon="2.26631">
        <ele>88.9</ele>
        <time>2015-06-15T19:29:25.948Z</time>
      </trkpt>
      <trkpt lat="48.93542" lon="2.26622">
        <ele>88.7</ele>
        <time>2015-06-15T19:29:28.925Z</time>
      </trkpt>
      <trkpt lat="48.9354" lon="2.26619">
        <ele>88.6</ele>
        <time>2015-06-15T19:29:29.872Z</time>
      </trkpt>
      <trkpt lat="48.93533" lon="2.26611">
        <ele>88.8</ele>
        <time>2015-06-15T19:29:33.932Z</time>
      </trkpt>
      <trkpt lat="48.93532" lon="2.26609">
        <ele>89.2</ele>
        <time>2015-06-15T19:29:34.883Z</time>
      </trkpt>
      <trkpt lat="48.93524" lon="2.26602">
        <ele>89.3</ele>
        <time>2015-06-15T19:29:38.938Z</time>
      </trkpt>
      <trkpt lat="48.93523" lon="2.266">
        <ele>89.2</ele>
        <time>2015-06-15T19:29:39.859Z</time>
      </trkpt>
      <trkpt lat="48.93517" lon="2.26593">
        <ele>89.2</ele>
        <time>2015-06-15T19:29:42.930Z</time>
      </trkpt>
      <trkpt lat="48.93515" lon="2.26591">
        <ele>89.3</ele>
        <time>2015-06-15T19:29:43.998Z</time>
      </trkpt>
      <trkpt lat="48.93509" lon="2.26584">
        <ele>88.9</ele>
        <time>2015-06-15T19:29:46.893Z</time>
      </trkpt>
      <trkpt lat="48.93507" lon="2.26582">
        <ele>88.8</ele>
        <time>2015-06-15T19:29:47.939Z</time>
      </trkpt>
      <trkpt lat="48.93501" lon="2.26575">
        <ele>88.7</ele>
        <time>2015-06-15T19:29:50.959Z</time>
      </trkpt>
      <trkpt lat="48.93499" lon="2.26573">
        <ele>88.9</ele>
        <time>2015-06-15T19:29:51.961Z</time>
      </trkpt>
      <trkpt lat="48.93492" lon="2.26567">
        <ele>89.4</ele>
        <time>2015-06-15T19:29:54.928Z</time>
      </trkpt>
      <trkpt lat="48.9349" lon="2.26565">
        <ele>89.5</ele>
        <time>2015-06-15T19:29:55.951Z</time>
      </trkpt>
      <trkpt lat="48.93482" lon="2.26559">
        <ele>89.3</ele>
        <time>2015-06-15T19:29:58.904Z</time>
      </trkpt>
      <trkpt lat="48.9348" lon="2.26557">
        <ele>89.2</ele>
        <time>2015-06-15T19:29:59.924Z</time>
      </trkpt>
      <trkpt lat="48.93473" lon="2.26552">
        <ele>89.1</ele>
        <time>2015-06-15T19:30:01.964Z</time>
      </trkpt>
      <trkpt lat="48.9347" lon="2.26549">
        <ele>88.9</ele>
        <time>2015-06-15T19:30:02.991Z</time>
      </trkpt>
      <trkpt lat="48.93463" lon="2.26543">
        <ele>89.1</ele>
        <time>2015-06-15T19:30:04.889Z</time>
      </trkpt>
      <trkpt lat="48.9346" lon="2.2654">
        <ele>88.9</ele>
        <time>2015-06-15T19:30:05.917Z</time>
      </trkpt>
      <trkpt lat="48.93454" lon="2.26533">
        <ele>88.5</ele>
        <time>2015-06-15T19:30:08.170Z</time>
      </trkpt>
      <trkpt lat="48.9345" lon="2.26529">
        <ele>88.4</ele>
        <time>2015-06-15T19:30:08.995Z</time>
      </trkpt>
      <trkpt lat="48.93443" lon="2.26523">
        <ele>88.5</ele>
        <time>2015-06-15T19:30:10.960Z</time>
      </trkpt>
      <trkpt lat="48.9344" lon="2.2652">
        <ele>88.5</ele>
        <time>2015-06-15T19:30:11.894Z</time>
      </trkpt>
      <trkpt lat="48.93432" lon="2.26516">
        <ele>88</ele>
        <time>2015-06-15T19:30:13.951Z</time>
      </trkpt>
      <trkpt lat="48.93427" lon="2.26514">
        <ele>87.8</ele>
        <time>2015-06-15T19:30:14.997Z</time>
      </trkpt>
      <trkpt lat="48.93423" lon="2.26512">
        <ele>87.7</ele>
        <time>2015-06-15T19:30:15.909Z</time>
      </trkpt>
      <trkpt lat="48.93419" lon="2.2651">
        <ele>87.9</ele>
        <time>2015-06-15T19:30:16.934Z</time>
      </trkpt>
      <trkpt lat="48.93414" lon="2.26507">
        <ele>88</ele>
        <time>2015-06-15T19:30:18.316Z</time>
      </trkpt>
      <trkpt lat="48.9341" lon="2.26506">
        <ele>88</ele>
        <time>2015-06-15T19:30:18.893Z</time>
      </trkpt>
      <trkpt lat="48.93406" lon="2.26504">
        <ele>87.8</ele>
        <time>2015-06-15T19:30:19.891Z</time>
      </trkpt>
      <trkpt lat="48.93401" lon="2.26502">
        <ele>87.7</ele>
        <time>2015-06-15T19:30:20.922Z</time>
      </trkpt>
      <trkpt lat="48.93396" lon="2.265">
        <ele>87.7</ele>
        <time>2015-06-15T19:30:21.935Z</time>
      </trkpt>
      <trkpt lat="48.93392" lon="2.26498">
        <ele>87.5</ele>
        <time>2015-06-15T19:30:22.950Z</time>
      </trkpt>
      <trkpt lat="48.93384" lon="2.26494">
        <ele>87</ele>
        <time>2015-06-15T19:30:24.876Z</time>
      </trkpt>
      <trkpt lat="48.9338" lon="2.26493">
        <ele>86.8</ele>
        <time>2015-06-15T19:30:25.890Z</time>
      </trkpt>
      <trkpt lat="48.93373" lon="2.26489">
        <ele>86.7</ele>
        <time>2015-06-15T19:30:27.931Z</time>
      </trkpt>
      <trkpt lat="48.93369" lon="2.26489">
        <ele>86.5</ele>
        <time>2015-06-15T19:30:28.942Z</time>
      </trkpt>
      <trkpt lat="48.93362" lon="2.26486">
        <ele>86.1</ele>
        <time>2015-06-15T19:30:30.910Z</time>
      </trkpt>
      <trkpt lat="48.93359" lon="2.26485">
        <ele>85.7</ele>
        <time>2015-06-15T19:30:31.992Z</time>
      </trkpt>
      <trkpt lat="48.93351" lon="2.26482">
        <ele>85.1</ele>
        <time>2015-06-15T19:30:34.891Z</time>
      </trkpt>
      <trkpt lat="48.93349" lon="2.26481">
        <ele>85.3</ele>
        <time>2015-06-15T19:30:35.916Z</time>
      </trkpt>
      <trkpt lat="48.93342" lon="2.2648">
        <ele>86.4</ele>
        <time>2015-06-15T19:30:42.916Z</time>
      </trkpt>
      <trkpt lat="48.93339" lon="2.26477">
        <ele>87.6</ele>
        <time>2015-06-15T19:30:43.957Z</time>
      </trkpt>
      <trkpt lat="48.93336" lon="2.2647">
        <ele>88.2</ele>
        <time>2015-06-15T19:30:45.877Z</time>
      </trkpt>
      <trkpt lat="48.93333" lon="2.26465">
        <ele>89.6</ele>
        <time>2015-06-15T19:30:46.922Z</time>
      </trkpt>
      <trkpt lat="48.93325" lon="2.26469">
        <ele>89.6</ele>
        <time>2015-06-15T19:30:50.917Z</time>
      </trkpt>
      <trkpt lat="48.93324" lon="2.26472">
        <ele>89.7</ele>
        <time>2015-06-15T19:30:51.953Z</time>
      </trkpt>
      <trkpt lat="48.93319" lon="2.26478">
        <ele>90</ele>
        <time>2015-06-15T19:30:53.865Z</time>
      </trkpt>
      <trkpt lat="48.93316" lon="2.26482">
        <ele>90.1</ele>
        <time>2015-06-15T19:30:54.942Z</time>
      </trkpt>
      <trkpt lat="48.93312" lon="2.26487">
        <ele>90.4</ele>
        <time>2015-06-15T19:30:55.869Z</time>
      </trkpt>
      <trkpt lat="48.93308" lon="2.26492">
        <ele>90.8</ele>
        <time>2015-06-15T19:30:56.917Z</time>
      </trkpt>
      <trkpt lat="48.93302" lon="2.26499">
        <ele>91.5</ele>
        <time>2015-06-15T19:30:58.940Z</time>
      </trkpt>
      <trkpt lat="48.93299" lon="2.26501">
        <ele>91.3</ele>
        <time>2015-06-15T19:30:59.905Z</time>
      </trkpt>
      <trkpt lat="48.93293" lon="2.26507">
        <ele>91.5</ele>
        <time>2015-06-15T19:31:01.866Z</time>
      </trkpt>
      <trkpt lat="48.9329" lon="2.26511">
        <ele>91.5</ele>
        <time>2015-06-15T19:31:02.994Z</time>
      </trkpt>
      <trkpt lat="48.93284" lon="2.26521">
        <ele>91.1</ele>
        <time>2015-06-15T19:31:04.878Z</time>
      </trkpt>
      <trkpt lat="48.93281" lon="2.26527">
        <ele>90.7</ele>
        <time>2015-06-15T19:31:05.912Z</time>
      </trkpt>
      <trkpt lat="48.93277" lon="2.26536">
        <ele>90.4</ele>
        <time>2015-06-15T19:31:07.937Z</time>
      </trkpt>
      <trkpt lat="48.93273" lon="2.26543">
        <ele>90.6</ele>
        <time>2015-06-15T19:31:09.020Z</time>
      </trkpt>
      <trkpt lat="48.93268" lon="2.26552">
        <ele>90.8</ele>
        <time>2015-06-15T19:31:09.893Z</time>
      </trkpt>
      <trkpt lat="48.93263" lon="2.2656">
        <ele>90.9</ele>
        <time>2015-06-15T19:31:10.907Z</time>
      </trkpt>
      <trkpt lat="48.93256" lon="2.26569">
        <ele>91.4</ele>
        <time>2015-06-15T19:31:12.957Z</time>
      </trkpt>
      <trkpt lat="48.93254" lon="2.26572">
        <ele>91.7</ele>
        <time>2015-06-15T19:31:14.024Z</time>
      </trkpt>
      <trkpt lat="48.93249" lon="2.26577">
        <ele>91.3</ele>
        <time>2015-06-15T19:31:15.886Z</time>
      </trkpt>
      <trkpt lat="48.93246" lon="2.2658">
        <ele>91.1</ele>
        <time>2015-06-15T19:31:16.898Z</time>
      </trkpt>
      <trkpt lat="48.93241" lon="2.26586">
        <ele>90.5</ele>
        <time>2015-06-15T19:31:18.929Z</time>
      </trkpt>
      <trkpt lat="48.93239" lon="2.26589">
        <ele>90.2</ele>
        <time>2015-06-15T19:31:19.915Z</time>
      </trkpt>
      <trkpt lat="48.93234" lon="2.26595">
        <ele>89.7</ele>
        <time>2015-06-15T19:31:21.848Z</time>
      </trkpt>
      <trkpt lat="48.93231" lon="2.26599">
        <ele>89.4</ele>
        <time>2015-06-15T19:31:22.901Z</time>
      </trkpt>
      <trkpt lat="48.93225" lon="2.26607">
        <ele>89.2</ele>
        <time>2015-06-15T19:31:24.876Z</time>
      </trkpt>
      <trkpt lat="48.93222" lon="2.26612">
        <ele>89.4</ele>
        <time>2015-06-15T19:31:25.887Z</time>
      </trkpt>
      <trkpt lat="48.93216" lon="2.26621">
        <ele>89.3</ele>
        <time>2015-06-15T19:31:27.954Z</time>
      </trkpt>
      <trkpt lat="48.93213" lon="2.26625">
        <ele>89.4</ele>
        <time>2015-06-15T19:31:28.962Z</time>
      </trkpt>
      <trkpt lat="48.93206" lon="2.26633">
        <ele>89.7</ele>
        <time>2015-06-15T19:31:30.872Z</time>
      </trkpt>
      <trkpt lat="48.93202" lon="2.26638">
        <ele>89.4</ele>
        <time>2015-06-15T19:31:31.885Z</time>
      </trkpt>
      <trkpt lat="48.93195" lon="2.26646">
        <ele>89.2</ele>
        <time>2015-06-15T19:31:33.922Z</time>
      </trkpt>
      <trkpt lat="48.93193" lon="2.26651">
        <ele>89.3</ele>
        <time>2015-06-15T19:31:34.954Z</time>
      </trkpt>
      <trkpt lat="48.93187" lon="2.26658">
        <ele>88.9</ele>
        <time>2015-06-15T19:31:36.908Z</time>
      </trkpt>
      <trkpt lat="48.93184" lon="2.26662">
        <ele>89</ele>
        <time>2015-06-15T19:31:37.943Z</time>
      </trkpt>
      <trkpt lat="48.93179" lon="2.26669">
        <ele>89.6</ele>
        <time>2015-06-15T19:31:39.901Z</time>
      </trkpt>
      <trkpt lat="48.93176" lon="2.26674">
        <ele>89.7</ele>
        <time>2015-06-15T19:31:40.913Z</time>
      </trkpt>
      <trkpt lat="48.93173" lon="2.26679">
        <ele>90</ele>
        <time>2015-06-15T19:31:41.952Z</time>
      </trkpt>
      <trkpt lat="48.93169" lon="2.26684">
        <ele>90.2</ele>
        <time>2015-06-15T19:31:42.849Z</time>
      </trkpt>
      <trkpt lat="48.93162" lon="2.2669">
        <ele>90.2</ele>
        <time>2015-06-15T19:31:44.931Z</time>
      </trkpt>
      <trkpt lat="48.93159" lon="2.26692">
        <ele>90.5</ele>
        <time>2015-06-15T19:31:45.950Z</time>
      </trkpt>
      <trkpt lat="48.93151" lon="2.26695">
        <ele>90.7</ele>
        <time>2015-06-15T19:31:47.877Z</time>
      </trkpt>
      <trkpt lat="48.93147" lon="2.26697">
        <ele>91</ele>
        <time>2015-06-15T19:31:48.856Z</time>
      </trkpt>
      <trkpt lat="48.93139" lon="2.267">
        <ele>90.6</ele>
        <time>2015-06-15T19:31:51.023Z</time>
      </trkpt>
      <trkpt lat="48.93134" lon="2.26701">
        <ele>90.3</ele>
        <time>2015-06-15T19:31:51.895Z</time>
      </trkpt>
      <trkpt lat="48.93127" lon="2.26703">
        <ele>90.2</ele>
        <time>2015-06-15T19:31:53.922Z</time>
      </trkpt>
      <trkpt lat="48.93123" lon="2.26703">
        <ele>90</ele>
        <time>2015-06-15T19:31:54.961Z</time>
      </trkpt>
      <trkpt lat="48.93118" lon="2.26704">
        <ele>89.2</ele>
        <time>2015-06-15T19:31:56.493Z</time>
      </trkpt>
      <trkpt lat="48.93113" lon="2.26706">
        <ele>88.8</ele>
        <time>2015-06-15T19:31:56.930Z</time>
      </trkpt>
      <trkpt lat="48.93108" lon="2.26709">
        <ele>88.1</ele>
        <time>2015-06-15T19:31:58.018Z</time>
      </trkpt>
      <trkpt lat="48.93102" lon="2.26714">
        <ele>87.8</ele>
        <time>2015-06-15T19:31:58.944Z</time>
      </trkpt>
      <trkpt lat="48.93097" lon="2.2672">
        <ele>87.6</ele>
        <time>2015-06-15T19:31:59.873Z</time>
      </trkpt>
      <trkpt lat="48.93092" lon="2.26722">
        <ele>87.5</ele>
        <time>2015-06-15T19:32:00.881Z</time>
      </trkpt>
      <trkpt lat="48.93087" lon="2.26725">
        <ele>87.1</ele>
        <time>2015-06-15T19:32:01.887Z</time>
      </trkpt>
      <trkpt lat="48.93083" lon="2.26728">
        <ele>87</ele>
        <time>2015-06-15T19:32:02.973Z</time>
      </trkpt>
      <trkpt lat="48.93079" lon="2.26732">
        <ele>87</ele>
        <time>2015-06-15T19:32:03.860Z</time>
      </trkpt>
      <trkpt lat="48.93075" lon="2.26736">
        <ele>87.2</ele>
        <time>2015-06-15T19:32:04.861Z</time>
      </trkpt>
      <trkpt lat="48.9307" lon="2.26739">
        <ele>87.1</ele>
        <time>2015-06-15T19:32:05.878Z</time>
      </trkpt>
      <trkpt lat="48.93066" lon="2.26742">
        <ele>87.1</ele>
        <time>2015-06-15T19:32:06.932Z</time>
      </trkpt>
      <trkpt lat="48.93058" lon="2.26746">
        <ele>87.5</ele>
        <time>2015-06-15T19:32:08.905Z</time>
      </trkpt>
      <trkpt lat="48.93053" lon="2.26749">
        <ele>87.8</ele>
        <time>2015-06-15T19:32:09.899Z</time>
      </trkpt>
      <trkpt lat="48.93048" lon="2.26752">
        <ele>88.1</ele>
        <time>2015-06-15T19:32:10.917Z</time>
      </trkpt>
      <trkpt lat="48.93043" lon="2.26754">
        <ele>88.4</ele>
        <time>2015-06-15T19:32:11.988Z</time>
      </trkpt>
      <trkpt lat="48.93038" lon="2.26756">
        <ele>88.5</ele>
        <time>2015-06-15T19:32:13.087Z</time>
      </trkpt>
      <trkpt lat="48.93034" lon="2.26758">
        <ele>88.8</ele>
        <time>2015-06-15T19:32:13.867Z</time>
      </trkpt>
      <trkpt lat="48.93029" lon="2.26758">
        <ele>88.9</ele>
        <time>2015-06-15T19:32:14.883Z</time>
      </trkpt>
      <trkpt lat="48.93024" lon="2.26761">
        <ele>89.2</ele>
        <time>2015-06-15T19:32:15.900Z</time>
      </trkpt>
      <trkpt lat="48.93019" lon="2.26763">
        <ele>89.5</ele>
        <time>2015-06-15T19:32:16.806Z</time>
      </trkpt>
      <trkpt lat="48.93015" lon="2.26764">
        <ele>89.8</ele>
        <time>2015-06-15T19:32:17.826Z</time>
      </trkpt>
      <trkpt lat="48.93007" lon="2.26766">
        <ele>90.2</ele>
        <time>2015-06-15T19:32:19.845Z</time>
      </trkpt>
      <trkpt lat="48.93003" lon="2.26768">
        <ele>90.4</ele>
        <time>2015-06-15T19:32:20.850Z</time>
      </trkpt>
      <trkpt lat="48.92998" lon="2.2677">
        <ele>90.5</ele>
        <time>2015-06-15T19:32:21.830Z</time>
      </trkpt>
      <trkpt lat="48.92994" lon="2.26773">
        <ele>90.4</ele>
        <time>2015-06-15T19:32:22.858Z</time>
      </trkpt>
      <trkpt lat="48.92988" lon="2.26776">
        <ele>90</ele>
        <time>2015-06-15T19:32:23.847Z</time>
      </trkpt>
      <trkpt lat="48.92982" lon="2.26778">
        <ele>89.1</ele>
        <time>2015-06-15T19:32:24.859Z</time>
      </trkpt>
      <trkpt lat="48.92977" lon="2.26781">
        <ele>88.9</ele>
        <time>2015-06-15T19:32:25.873Z</time>
      </trkpt>
      <trkpt lat="48.92971" lon="2.26783">
        <ele>89</ele>
        <time>2015-06-15T19:32:26.891Z</time>
      </trkpt>
      <trkpt lat="48.92964" lon="2.26786">
        <ele>87.4</ele>
        <time>2015-06-15T19:32:27.899Z</time>
      </trkpt>
      <trkpt lat="48.92958" lon="2.26789">
        <ele>86.9</ele>
        <time>2015-06-15T19:32:28.911Z</time>
      </trkpt>
      <trkpt lat="48.92954" lon="2.26792">
        <ele>86.6</ele>
        <time>2015-06-15T19:32:29.912Z</time>
      </trkpt>
      <trkpt lat="48.9295" lon="2.26796">
        <ele>86.1</ele>
        <time>2015-06-15T19:32:30.845Z</time>
      </trkpt>
      <trkpt lat="48.92943" lon="2.26805">
        <ele>85.8</ele>
        <time>2015-06-15T19:32:32.951Z</time>
      </trkpt>
      <trkpt lat="48.92939" lon="2.26814">
        <ele>86.3</ele>
        <time>2015-06-15T19:32:33.941Z</time>
      </trkpt>
      <trkpt lat="48.92934" lon="2.26826">
        <ele>88.4</ele>
        <time>2015-06-15T19:32:35.852Z</time>
      </trkpt>
      <trkpt lat="48.92932" lon="2.26832">
        <ele>89.5</ele>
        <time>2015-06-15T19:32:36.861Z</time>
      </trkpt>
      <trkpt lat="48.92928" lon="2.26837">
        <ele>89.8</ele>
        <time>2015-06-15T19:32:37.895Z</time>
      </trkpt>
      <trkpt lat="48.92924" lon="2.26843">
        <ele>89.8</ele>
        <time>2015-06-15T19:32:39.015Z</time>
      </trkpt>
      <trkpt lat="48.92918" lon="2.26852">
        <ele>89.8</ele>
        <time>2015-06-15T19:32:40.915Z</time>
      </trkpt>
      <trkpt lat="48.92914" lon="2.26858">
        <ele>90.5</ele>
        <time>2015-06-15T19:32:41.857Z</time>
      </trkpt>
      <trkpt lat="48.9291" lon="2.26863">
        <ele>90.9</ele>
        <time>2015-06-15T19:32:42.861Z</time>
      </trkpt>
      <trkpt lat="48.92906" lon="2.26867">
        <ele>91.3</ele>
        <time>2015-06-15T19:32:43.860Z</time>
      </trkpt>
      <trkpt lat="48.92902" lon="2.26872">
        <ele>91.8</ele>
        <time>2015-06-15T19:32:44.917Z</time>
      </trkpt>
      <trkpt lat="48.92896" lon="2.26877">
        <ele>91.6</ele>
        <time>2015-06-15T19:32:45.920Z</time>
      </trkpt>
      <trkpt lat="48.9289" lon="2.26887">
        <ele>92.2</ele>
        <time>2015-06-15T19:32:47.932Z</time>
      </trkpt>
      <trkpt lat="48.92886" lon="2.26891">
        <ele>92.7</ele>
        <time>2015-06-15T19:32:48.889Z</time>
      </trkpt>
      <trkpt lat="48.9288" lon="2.26898">
        <ele>93</ele>
        <time>2015-06-15T19:32:51.046Z</time>
      </trkpt>
      <trkpt lat="48.92877" lon="2.26902">
        <ele>92.8</ele>
        <time>2015-06-15T19:32:51.875Z</time>
      </trkpt>
      <trkpt lat="48.92872" lon="2.26912">
        <ele>93</ele>
        <time>2015-06-15T19:32:54.419Z</time>
      </trkpt>
      <trkpt lat="48.9287" lon="2.26918">
        <ele>93.1</ele>
        <time>2015-06-15T19:32:54.926Z</time>
      </trkpt>
      <trkpt lat="48.92866" lon="2.2693">
        <ele>93.1</ele>
        <time>2015-06-15T19:32:56.941Z</time>
      </trkpt>
      <trkpt lat="48.92864" lon="2.26936">
        <ele>93.2</ele>
        <time>2015-06-15T19:32:57.828Z</time>
      </trkpt>
      <trkpt lat="48.92861" lon="2.26942">
        <ele>93.5</ele>
        <time>2015-06-15T19:32:58.896Z</time>
      </trkpt>
      <trkpt lat="48.92859" lon="2.26949">
        <ele>93.6</ele>
        <time>2015-06-15T19:32:59.917Z</time>
      </trkpt>
      <trkpt lat="48.92857" lon="2.26956">
        <ele>93.6</ele>
        <time>2015-06-15T19:33:00.940Z</time>
      </trkpt>
      <trkpt lat="48.92854" lon="2.26962">
        <ele>93.5</ele>
        <time>2015-06-15T19:33:01.827Z</time>
      </trkpt>
      <trkpt lat="48.92852" lon="2.26969">
        <ele>93.5</ele>
        <time>2015-06-15T19:33:03.158Z</time>
      </trkpt>
      <trkpt lat="48.9285" lon="2.26976">
        <ele>93.3</ele>
        <time>2015-06-15T19:33:03.948Z</time>
      </trkpt>
      <trkpt lat="48.92847" lon="2.26983">
        <ele>93.3</ele>
        <time>2015-06-15T19:33:04.831Z</time>
      </trkpt>
      <trkpt lat="48.92846" lon="2.2699">
        <ele>93.5</ele>
        <time>2015-06-15T19:33:05.909Z</time>
      </trkpt>
      <trkpt lat="48.92844" lon="2.26997">
        <ele>93.3</ele>
        <time>2015-06-15T19:33:06.959Z</time>
      </trkpt>
      <trkpt lat="48.92842" lon="2.27004">
        <ele>93.2</ele>
        <time>2015-06-15T19:33:07.909Z</time>
      </trkpt>
      <trkpt lat="48.92839" lon="2.2701">
        <ele>92.8</ele>
        <time>2015-06-15T19:33:08.911Z</time>
      </trkpt>
      <trkpt lat="48.92836" lon="2.27017">
        <ele>92.2</ele>
        <time>2015-06-15T19:33:09.915Z</time>
      </trkpt>
      <trkpt lat="48.92833" lon="2.27024">
        <ele>91.9</ele>
        <time>2015-06-15T19:33:10.933Z</time>
      </trkpt>
      <trkpt lat="48.92831" lon="2.27031">
        <ele>91.7</ele>
        <time>2015-06-15T19:33:11.939Z</time>
      </trkpt>
      <trkpt lat="48.92828" lon="2.27038">
        <ele>91.8</ele>
        <time>2015-06-15T19:33:12.870Z</time>
      </trkpt>
      <trkpt lat="48.92825" lon="2.27046">
        <ele>91.6</ele>
        <time>2015-06-15T19:33:13.912Z</time>
      </trkpt>
      <trkpt lat="48.92822" lon="2.27053">
        <ele>91.6</ele>
        <time>2015-06-15T19:33:14.949Z</time>
      </trkpt>
      <trkpt lat="48.9282" lon="2.2706">
        <ele>91.6</ele>
        <time>2015-06-15T19:33:15.952Z</time>
      </trkpt>
      <trkpt lat="48.92818" lon="2.27067">
        <ele>91.6</ele>
        <time>2015-06-15T19:33:16.865Z</time>
      </trkpt>
      <trkpt lat="48.92817" lon="2.27074">
        <ele>91.8</ele>
        <time>2015-06-15T19:33:17.875Z</time>
      </trkpt>
      <trkpt lat="48.92816" lon="2.27081">
        <ele>91.9</ele>
        <time>2015-06-15T19:33:18.883Z</time>
      </trkpt>
      <trkpt lat="48.92814" lon="2.27088">
        <ele>92</ele>
        <time>2015-06-15T19:33:19.892Z</time>
      </trkpt>
      <trkpt lat="48.92811" lon="2.27097">
        <ele>92.6</ele>
        <time>2015-06-15T19:33:20.937Z</time>
      </trkpt>
      <trkpt lat="48.92808" lon="2.27107">
        <ele>93</ele>
        <time>2015-06-15T19:33:21.954Z</time>
      </trkpt>
      <trkpt lat="48.92806" lon="2.27114">
        <ele>92.9</ele>
        <time>2015-06-15T19:33:22.888Z</time>
      </trkpt>
      <trkpt lat="48.92804" lon="2.27122">
        <ele>93.2</ele>
        <time>2015-06-15T19:33:23.884Z</time>
      </trkpt>
      <trkpt lat="48.92803" lon="2.27129">
        <ele>93.7</ele>
        <time>2015-06-15T19:33:24.887Z</time>
      </trkpt>
      <trkpt lat="48.92802" lon="2.27137">
        <ele>94.2</ele>
        <time>2015-06-15T19:33:25.918Z</time>
      </trkpt>
      <trkpt lat="48.928" lon="2.27144">
        <ele>94.5</ele>
        <time>2015-06-15T19:33:26.989Z</time>
      </trkpt>
      <trkpt lat="48.92796" lon="2.27152">
        <ele>94.5</ele>
        <time>2015-06-15T19:33:27.869Z</time>
      </trkpt>
      <trkpt lat="48.92792" lon="2.2716">
        <ele>94.3</ele>
        <time>2015-06-15T19:33:28.881Z</time>
      </trkpt>
      <trkpt lat="48.92788" lon="2.27169">
        <ele>93.6</ele>
        <time>2015-06-15T19:33:29.891Z</time>
      </trkpt>
      <trkpt lat="48.92784" lon="2.27181">
        <ele>93.8</ele>
        <time>2015-06-15T19:33:30.901Z</time>
      </trkpt>
      <trkpt lat="48.9278" lon="2.2719">
        <ele>93.5</ele>
        <time>2015-06-15T19:33:31.911Z</time>
      </trkpt>
      <trkpt lat="48.92776" lon="2.27198">
        <ele>93.9</ele>
        <time>2015-06-15T19:33:32.959Z</time>
      </trkpt>
      <trkpt lat="48.92774" lon="2.27205">
        <ele>94.6</ele>
        <time>2015-06-15T19:33:33.860Z</time>
      </trkpt>
      <trkpt lat="48.92771" lon="2.27216">
        <ele>95.5</ele>
        <time>2015-06-15T19:33:35.871Z</time>
      </trkpt>
      <trkpt lat="48.92769" lon="2.27223">
        <ele>95.7</ele>
        <time>2015-06-15T19:33:36.955Z</time>
      </trkpt>
      <trkpt lat="48.92767" lon="2.2723">
        <ele>95.7</ele>
        <time>2015-06-15T19:33:37.866Z</time>
      </trkpt>
      <trkpt lat="48.92766" lon="2.27237">
        <ele>96.2</ele>
        <time>2015-06-15T19:33:38.920Z</time>
      </trkpt>
      <trkpt lat="48.92765" lon="2.27245">
        <ele>96.6</ele>
        <time>2015-06-15T19:33:39.927Z</time>
      </trkpt>
      <trkpt lat="48.92762" lon="2.27252">
        <ele>97.1</ele>
        <time>2015-06-15T19:33:40.866Z</time>
      </trkpt>
      <trkpt lat="48.92759" lon="2.27258">
        <ele>97.3</ele>
        <time>2015-06-15T19:33:41.865Z</time>
      </trkpt>
      <trkpt lat="48.92757" lon="2.27264">
        <ele>97.4</ele>
        <time>2015-06-15T19:33:42.869Z</time>
      </trkpt>
      <trkpt lat="48.9275" lon="2.27274">
        <ele>97.7</ele>
        <time>2015-06-15T19:33:44.916Z</time>
      </trkpt>
      <trkpt lat="48.92745" lon="2.27281">
        <ele>97.7</ele>
        <time>2015-06-15T19:33:45.869Z</time>
      </trkpt>
      <trkpt lat="48.92739" lon="2.27289">
        <ele>97.2</ele>
        <time>2015-06-15T19:33:46.880Z</time>
      </trkpt>
      <trkpt lat="48.92732" lon="2.27297">
        <ele>96.7</ele>
        <time>2015-06-15T19:33:47.892Z</time>
      </trkpt>
      <trkpt lat="48.92726" lon="2.27304">
        <ele>96.4</ele>
        <time>2015-06-15T19:33:48.933Z</time>
      </trkpt>
      <trkpt lat="48.92721" lon="2.27307">
        <ele>96.5</ele>
        <time>2015-06-15T19:33:49.856Z</time>
      </trkpt>
      <trkpt lat="48.92716" lon="2.27312">
        <ele>96.6</ele>
        <time>2015-06-15T19:33:50.951Z</time>
      </trkpt>
      <trkpt lat="48.92711" lon="2.27315">
        <ele>96.8</ele>
        <time>2015-06-15T19:33:51.845Z</time>
      </trkpt>
      <trkpt lat="48.92706" lon="2.27319">
        <ele>97.1</ele>
        <time>2015-06-15T19:33:52.861Z</time>
      </trkpt>
      <trkpt lat="48.92701" lon="2.27322">
        <ele>97.5</ele>
        <time>2015-06-15T19:33:53.874Z</time>
      </trkpt>
      <trkpt lat="48.92695" lon="2.27325">
        <ele>97.6</ele>
        <time>2015-06-15T19:33:54.869Z</time>
      </trkpt>
      <trkpt lat="48.92691" lon="2.27328">
        <ele>98.3</ele>
        <time>2015-06-15T19:33:55.879Z</time>
      </trkpt>
      <trkpt lat="48.92689" lon="2.27334">
        <ele>98.5</ele>
        <time>2015-06-15T19:33:56.907Z</time>
      </trkpt>
      <trkpt lat="48.92687" lon="2.27341">
        <ele>98.2</ele>
        <time>2015-06-15T19:33:57.917Z</time>
      </trkpt>
      <trkpt lat="48.92684" lon="2.27348">
        <ele>98</ele>
        <time>2015-06-15T19:33:58.933Z</time>
      </trkpt>
      <trkpt lat="48.9268" lon="2.27352">
        <ele>97.9</ele>
        <time>2015-06-15T19:33:59.862Z</time>
      </trkpt>
      <trkpt lat="48.92673" lon="2.27357">
        <ele>98.3</ele>
        <time>2015-06-15T19:34:01.863Z</time>
      </trkpt>
      <trkpt lat="48.92669" lon="2.27359">
        <ele>98.6</ele>
        <time>2015-06-15T19:34:03.043Z</time>
      </trkpt>
      <trkpt lat="48.92662" lon="2.27366">
        <ele>99.4</ele>
        <time>2015-06-15T19:34:04.857Z</time>
      </trkpt>
      <trkpt lat="48.92659" lon="2.27369">
        <ele>99.9</ele>
        <time>2015-06-15T19:34:05.886Z</time>
      </trkpt>
      <trkpt lat="48.92652" lon="2.27376">
        <ele>101.2</ele>
        <time>2015-06-15T19:34:07.910Z</time>
      </trkpt>
      <trkpt lat="48.92644" lon="2.27377">
        <ele>100.1</ele>
        <time>2015-06-15T19:34:09.008Z</time>
      </trkpt>
      <trkpt lat="48.92637" lon="2.27381">
        <ele>99</ele>
        <time>2015-06-15T19:34:09.868Z</time>
      </trkpt>
      <trkpt lat="48.92631" lon="2.27385">
        <ele>98.2</ele>
        <time>2015-06-15T19:34:10.853Z</time>
      </trkpt>
      <trkpt lat="48.92625" lon="2.27388">
        <ele>97.5</ele>
        <time>2015-06-15T19:34:11.862Z</time>
      </trkpt>
      <trkpt lat="48.9262" lon="2.27389">
        <ele>97</ele>
        <time>2015-06-15T19:34:12.866Z</time>
      </trkpt>
      <trkpt lat="48.92615" lon="2.27391">
        <ele>96.6</ele>
        <time>2015-06-15T19:34:13.917Z</time>
      </trkpt>
      <trkpt lat="48.9261" lon="2.27394">
        <ele>96.6</ele>
        <time>2015-06-15T19:34:14.969Z</time>
      </trkpt>
      <trkpt lat="48.92605" lon="2.27397">
        <ele>96.6</ele>
        <time>2015-06-15T19:34:15.859Z</time>
      </trkpt>
      <trkpt lat="48.926" lon="2.274">
        <ele>96.4</ele>
        <time>2015-06-15T19:34:16.913Z</time>
      </trkpt>
      <trkpt lat="48.92596" lon="2.27402">
        <ele>96.8</ele>
        <time>2015-06-15T19:34:17.943Z</time>
      </trkpt>
      <trkpt lat="48.92591" lon="2.27405">
        <ele>97</ele>
        <time>2015-06-15T19:34:18.961Z</time>
      </trkpt>
      <trkpt lat="48.92586" lon="2.27408">
        <ele>97.1</ele>
        <time>2015-06-15T19:34:19.941Z</time>
      </trkpt>
      <trkpt lat="48.92582" lon="2.27411">
        <ele>97.1</ele>
        <time>2015-06-15T19:34:20.956Z</time>
      </trkpt>
      <trkpt lat="48.92578" lon="2.27414">
        <ele>97.1</ele>
        <time>2015-06-15T19:34:21.869Z</time>
      </trkpt>
      <trkpt lat="48.92573" lon="2.27418">
        <ele>96.9</ele>
        <time>2015-06-15T19:34:22.865Z</time>
      </trkpt>
      <trkpt lat="48.92569" lon="2.27421">
        <ele>96.9</ele>
        <time>2015-06-15T19:34:23.885Z</time>
      </trkpt>
      <trkpt lat="48.92564" lon="2.27424">
        <ele>97.1</ele>
        <time>2015-06-15T19:34:24.915Z</time>
      </trkpt>
      <trkpt lat="48.92559" lon="2.27428">
        <ele>97.1</ele>
        <time>2015-06-15T19:34:25.928Z</time>
      </trkpt>
      <trkpt lat="48.92555" lon="2.27431">
        <ele>96.8</ele>
        <time>2015-06-15T19:34:26.933Z</time>
      </trkpt>
      <trkpt lat="48.9255" lon="2.27434">
        <ele>96.7</ele>
        <time>2015-06-15T19:34:27.939Z</time>
      </trkpt>
      <trkpt lat="48.92546" lon="2.27437">
        <ele>96.7</ele>
        <time>2015-06-15T19:34:28.894Z</time>
      </trkpt>
      <trkpt lat="48.92538" lon="2.27442">
        <ele>96.4</ele>
        <time>2015-06-15T19:34:30.916Z</time>
      </trkpt>
      <trkpt lat="48.92533" lon="2.27446">
        <ele>96.1</ele>
        <time>2015-06-15T19:34:31.875Z</time>
      </trkpt>
      <trkpt lat="48.92528" lon="2.2745">
        <ele>96.1</ele>
        <time>2015-06-15T19:34:32.978Z</time>
      </trkpt>
      <trkpt lat="48.92522" lon="2.27455">
        <ele>95.9</ele>
        <time>2015-06-15T19:34:33.872Z</time>
      </trkpt>
      <trkpt lat="48.92517" lon="2.27457">
        <ele>96.1</ele>
        <time>2015-06-15T19:34:34.862Z</time>
      </trkpt>
      <trkpt lat="48.92512" lon="2.2746">
        <ele>96</ele>
        <time>2015-06-15T19:34:35.886Z</time>
      </trkpt>
      <trkpt lat="48.92504" lon="2.27463">
        <ele>95.6</ele>
        <time>2015-06-15T19:34:36.887Z</time>
      </trkpt>
      <trkpt lat="48.92499" lon="2.27467">
        <ele>95.8</ele>
        <time>2015-06-15T19:34:37.902Z</time>
      </trkpt>
      <trkpt lat="48.92495" lon="2.27471">
        <ele>95.7</ele>
        <time>2015-06-15T19:34:38.915Z</time>
      </trkpt>
      <trkpt lat="48.9249" lon="2.27476">
        <ele>95.6</ele>
        <time>2015-06-15T19:34:39.934Z</time>
      </trkpt>
      <trkpt lat="48.92485" lon="2.27481">
        <ele>95.2</ele>
        <time>2015-06-15T19:34:40.849Z</time>
      </trkpt>
      <trkpt lat="48.92478" lon="2.27484">
        <ele>94.7</ele>
        <time>2015-06-15T19:34:41.831Z</time>
      </trkpt>
      <trkpt lat="48.92473" lon="2.27487">
        <ele>94.4</ele>
        <time>2015-06-15T19:34:42.861Z</time>
      </trkpt>
      <trkpt lat="48.92469" lon="2.27489">
        <ele>94</ele>
        <time>2015-06-15T19:34:43.875Z</time>
      </trkpt>
      <trkpt lat="48.92464" lon="2.27492">
        <ele>93.8</ele>
        <time>2015-06-15T19:34:44.893Z</time>
      </trkpt>
      <trkpt lat="48.92459" lon="2.27495">
        <ele>94.1</ele>
        <time>2015-06-15T19:34:45.901Z</time>
      </trkpt>
      <trkpt lat="48.92454" lon="2.27498">
        <ele>94.1</ele>
        <time>2015-06-15T19:34:47.213Z</time>
      </trkpt>
      <trkpt lat="48.92449" lon="2.27503">
        <ele>94.2</ele>
        <time>2015-06-15T19:34:47.857Z</time>
      </trkpt>
      <trkpt lat="48.92444" lon="2.27508">
        <ele>94.5</ele>
        <time>2015-06-15T19:34:48.869Z</time>
      </trkpt>
      <trkpt lat="48.92441" lon="2.27513">
        <ele>94.2</ele>
        <time>2015-06-15T19:34:49.896Z</time>
      </trkpt>
      <trkpt lat="48.92437" lon="2.27518">
        <ele>94.2</ele>
        <time>2015-06-15T19:34:50.910Z</time>
      </trkpt>
      <trkpt lat="48.92431" lon="2.27522">
        <ele>94</ele>
        <time>2015-06-15T19:34:51.834Z</time>
      </trkpt>
      <trkpt lat="48.92426" lon="2.27526">
        <ele>93.9</ele>
        <time>2015-06-15T19:34:52.836Z</time>
      </trkpt>
      <trkpt lat="48.9242" lon="2.27531">
        <ele>94</ele>
        <time>2015-06-15T19:34:53.872Z</time>
      </trkpt>
      <trkpt lat="48.92415" lon="2.27536">
        <ele>93.8</ele>
        <time>2015-06-15T19:34:54.885Z</time>
      </trkpt>
      <trkpt lat="48.9241" lon="2.27539">
        <ele>93.7</ele>
        <time>2015-06-15T19:34:55.894Z</time>
      </trkpt>
      <trkpt lat="48.92405" lon="2.27541">
        <ele>93.6</ele>
        <time>2015-06-15T19:34:56.993Z</time>
      </trkpt>
      <trkpt lat="48.92401" lon="2.27547">
        <ele>93.8</ele>
        <time>2015-06-15T19:34:57.848Z</time>
      </trkpt>
      <trkpt lat="48.9239" lon="2.27554">
        <ele>92.9</ele>
        <time>2015-06-15T19:34:58.855Z</time>
      </trkpt>
      <trkpt lat="48.92382" lon="2.27559">
        <ele>92.7</ele>
        <time>2015-06-15T19:34:59.864Z</time>
      </trkpt>
      <trkpt lat="48.92377" lon="2.27565">
        <ele>92.9</ele>
        <time>2015-06-15T19:35:00.886Z</time>
      </trkpt>
      <trkpt lat="48.92371" lon="2.27568">
        <ele>93</ele>
        <time>2015-06-15T19:35:01.850Z</time>
      </trkpt>
      <trkpt lat="48.92364" lon="2.27572">
        <ele>93.3</ele>
        <time>2015-06-15T19:35:02.948Z</time>
      </trkpt>
      <trkpt lat="48.92357" lon="2.27577">
        <ele>93.4</ele>
        <time>2015-06-15T19:35:03.841Z</time>
      </trkpt>
      <trkpt lat="48.9235" lon="2.27583">
        <ele>93.7</ele>
        <time>2015-06-15T19:35:04.854Z</time>
      </trkpt>
      <trkpt lat="48.92344" lon="2.27588">
        <ele>93.6</ele>
        <time>2015-06-15T19:35:06.121Z</time>
      </trkpt>
      <trkpt lat="48.92337" lon="2.27593">
        <ele>93.8</ele>
        <time>2015-06-15T19:35:06.881Z</time>
      </trkpt>
      <trkpt lat="48.92329" lon="2.27597">
        <ele>93.3</ele>
        <time>2015-06-15T19:35:07.899Z</time>
      </trkpt>
      <trkpt lat="48.92323" lon="2.27602">
        <ele>93.5</ele>
        <time>2015-06-15T19:35:08.928Z</time>
      </trkpt>
      <trkpt lat="48.92319" lon="2.27605">
        <ele>93.6</ele>
        <time>2015-06-15T19:35:09.811Z</time>
      </trkpt>
      <trkpt lat="48.92314" lon="2.27609">
        <ele>94.1</ele>
        <time>2015-06-15T19:35:10.825Z</time>
      </trkpt>
      <trkpt lat="48.92308" lon="2.27613">
        <ele>94.4</ele>
        <time>2015-06-15T19:35:11.829Z</time>
      </trkpt>
      <trkpt lat="48.92302" lon="2.27618">
        <ele>94.3</ele>
        <time>2015-06-15T19:35:12.842Z</time>
      </trkpt>
      <trkpt lat="48.92297" lon="2.27623">
        <ele>94.2</ele>
        <time>2015-06-15T19:35:13.892Z</time>
      </trkpt>
      <trkpt lat="48.92291" lon="2.27628">
        <ele>94.6</ele>
        <time>2015-06-15T19:35:14.909Z</time>
      </trkpt>
      <trkpt lat="48.92286" lon="2.27635">
        <ele>94.4</ele>
        <time>2015-06-15T19:35:15.850Z</time>
      </trkpt>
      <trkpt lat="48.9228" lon="2.27641">
        <ele>94.9</ele>
        <time>2015-06-15T19:35:16.849Z</time>
      </trkpt>
      <trkpt lat="48.92274" lon="2.27649">
        <ele>94.5</ele>
        <time>2015-06-15T19:35:17.870Z</time>
      </trkpt>
      <trkpt lat="48.92269" lon="2.27657">
        <ele>94.2</ele>
        <time>2015-06-15T19:35:18.879Z</time>
      </trkpt>
      <trkpt lat="48.92265" lon="2.27665">
        <ele>93.3</ele>
        <time>2015-06-15T19:35:19.938Z</time>
      </trkpt>
      <trkpt lat="48.9226" lon="2.2767">
        <ele>93.3</ele>
        <time>2015-06-15T19:35:20.911Z</time>
      </trkpt>
      <trkpt lat="48.92257" lon="2.27674">
        <ele>93.5</ele>
        <time>2015-06-15T19:35:21.925Z</time>
      </trkpt>
      <trkpt lat="48.92251" lon="2.27681">
        <ele>93.3</ele>
        <time>2015-06-15T19:35:22.963Z</time>
      </trkpt>
      <trkpt lat="48.92246" lon="2.27687">
        <ele>93.3</ele>
        <time>2015-06-15T19:35:23.861Z</time>
      </trkpt>
      <trkpt lat="48.92242" lon="2.27693">
        <ele>93.6</ele>
        <time>2015-06-15T19:35:24.850Z</time>
      </trkpt>
      <trkpt lat="48.92238" lon="2.27698">
        <ele>93.9</ele>
        <time>2015-06-15T19:35:25.873Z</time>
      </trkpt>
      <trkpt lat="48.92234" lon="2.27703">
        <ele>93.9</ele>
        <time>2015-06-15T19:35:26.872Z</time>
      </trkpt>
      <trkpt lat="48.9223" lon="2.27709">
        <ele>93.9</ele>
        <time>2015-06-15T19:35:27.894Z</time>
      </trkpt>
      <trkpt lat="48.92225" lon="2.27716">
        <ele>94</ele>
        <time>2015-06-15T19:35:28.913Z</time>
      </trkpt>
      <trkpt lat="48.9222" lon="2.27722">
        <ele>93.9</ele>
        <time>2015-06-15T19:35:29.930Z</time>
      </trkpt>
      <trkpt lat="48.92215" lon="2.27728">
        <ele>94</ele>
        <time>2015-06-15T19:35:30.842Z</time>
      </trkpt>
      <trkpt lat="48.92211" lon="2.27734">
        <ele>93.7</ele>
        <time>2015-06-15T19:35:31.845Z</time>
      </trkpt>
      <trkpt lat="48.92207" lon="2.27739">
        <ele>93.6</ele>
        <time>2015-06-15T19:35:32.891Z</time>
      </trkpt>
      <trkpt lat="48.92203" lon="2.27743">
        <ele>94.3</ele>
        <time>2015-06-15T19:35:33.910Z</time>
      </trkpt>
      <trkpt lat="48.92198" lon="2.27747">
        <ele>94</ele>
        <time>2015-06-15T19:35:34.921Z</time>
      </trkpt>
      <trkpt lat="48.92195" lon="2.27753">
        <ele>93.6</ele>
        <time>2015-06-15T19:35:35.838Z</time>
      </trkpt>
      <trkpt lat="48.92191" lon="2.27758">
        <ele>94.1</ele>
        <time>2015-06-15T19:35:36.844Z</time>
      </trkpt>
      <trkpt lat="48.92187" lon="2.27764">
        <ele>94.5</ele>
        <time>2015-06-15T19:35:37.860Z</time>
      </trkpt>
      <trkpt lat="48.92183" lon="2.2777">
        <ele>95</ele>
        <time>2015-06-15T19:35:38.881Z</time>
      </trkpt>
      <trkpt lat="48.92179" lon="2.27775">
        <ele>95.4</ele>
        <time>2015-06-15T19:35:39.880Z</time>
      </trkpt>
      <trkpt lat="48.92176" lon="2.2778">
        <ele>95.9</ele>
        <time>2015-06-15T19:35:40.885Z</time>
      </trkpt>
      <trkpt lat="48.92169" lon="2.27789">
        <ele>97.2</ele>
        <time>2015-06-15T19:35:42.911Z</time>
      </trkpt>
      <trkpt lat="48.92166" lon="2.27793">
        <ele>97.7</ele>
        <time>2015-06-15T19:35:43.936Z</time>
      </trkpt>
      <trkpt lat="48.92162" lon="2.27798">
        <ele>98</ele>
        <time>2015-06-15T19:35:44.968Z</time>
      </trkpt>
      <trkpt lat="48.92158" lon="2.27802">
        <ele>98.6</ele>
        <time>2015-06-15T19:35:45.841Z</time>
      </trkpt>
      <trkpt lat="48.92155" lon="2.27806">
        <ele>99</ele>
        <time>2015-06-15T19:35:46.846Z</time>
      </trkpt>
      <trkpt lat="48.92151" lon="2.27811">
        <ele>99.3</ele>
        <time>2015-06-15T19:35:47.869Z</time>
      </trkpt>
      <trkpt lat="48.92146" lon="2.27817">
        <ele>100.3</ele>
        <time>2015-06-15T19:35:49.888Z</time>
      </trkpt>
      <trkpt lat="48.92144" lon="2.27819">
        <ele>100.5</ele>
        <time>2015-06-15T19:35:50.938Z</time>
      </trkpt>
      <trkpt lat="48.92137" lon="2.27825">
        <ele>100.7</ele>
        <time>2015-06-15T19:35:53.895Z</time>
      </trkpt>
      <trkpt lat="48.92133" lon="2.27827">
        <ele>100.6</ele>
        <time>2015-06-15T19:35:54.850Z</time>
      </trkpt>
      <trkpt lat="48.92126" lon="2.27831">
        <ele>98.9</ele>
        <time>2015-06-15T19:35:56.922Z</time>
      </trkpt>
      <trkpt lat="48.92123" lon="2.27834">
        <ele>98.2</ele>
        <time>2015-06-15T19:35:57.902Z</time>
      </trkpt>
      <trkpt lat="48.92116" lon="2.27842">
        <ele>98.4</ele>
        <time>2015-06-15T19:35:59.867Z</time>
      </trkpt>
      <trkpt lat="48.92112" lon="2.27847">
        <ele>98.6</ele>
        <time>2015-06-15T19:36:00.878Z</time>
      </trkpt>
      <trkpt lat="48.92106" lon="2.27855">
        <ele>99</ele>
        <time>2015-06-15T19:36:02.939Z</time>
      </trkpt>
      <trkpt lat="48.92103" lon="2.27858">
        <ele>99.5</ele>
        <time>2015-06-15T19:36:03.969Z</time>
      </trkpt>
      <trkpt lat="48.92099" lon="2.27865">
        <ele>100.2</ele>
        <time>2015-06-15T19:36:05.851Z</time>
      </trkpt>
      <trkpt lat="48.92096" lon="2.27869">
        <ele>100.5</ele>
        <time>2015-06-15T19:36:06.873Z</time>
      </trkpt>
      <trkpt lat="48.92092" lon="2.27873">
        <ele>100.9</ele>
        <time>2015-06-15T19:36:07.814Z</time>
      </trkpt>
      <trkpt lat="48.92088" lon="2.27877">
        <ele>100.9</ele>
        <time>2015-06-15T19:36:08.882Z</time>
      </trkpt>
      <trkpt lat="48.92081" lon="2.27886">
        <ele>100.4</ele>
        <time>2015-06-15T19:36:10.818Z</time>
      </trkpt>
      <trkpt lat="48.92078" lon="2.2789">
        <ele>100.3</ele>
        <time>2015-06-15T19:36:11.838Z</time>
      </trkpt>
      <trkpt lat="48.92071" lon="2.27897">
        <ele>100.6</ele>
        <time>2015-06-15T19:36:13.888Z</time>
      </trkpt>
      <trkpt lat="48.92067" lon="2.27902">
        <ele>100.5</ele>
        <time>2015-06-15T19:36:14.967Z</time>
      </trkpt>
      <trkpt lat="48.92063" lon="2.27907">
        <ele>100.4</ele>
        <time>2015-06-15T19:36:15.850Z</time>
      </trkpt>
      <trkpt lat="48.92058" lon="2.27913">
        <ele>100.1</ele>
        <time>2015-06-15T19:36:16.858Z</time>
      </trkpt>
      <trkpt lat="48.92052" lon="2.2792">
        <ele>100</ele>
        <time>2015-06-15T19:36:17.890Z</time>
      </trkpt>
      <trkpt lat="48.92047" lon="2.27926">
        <ele>100.1</ele>
        <time>2015-06-15T19:36:18.915Z</time>
      </trkpt>
      <trkpt lat="48.92043" lon="2.27932">
        <ele>100.3</ele>
        <time>2015-06-15T19:36:19.863Z</time>
      </trkpt>
      <trkpt lat="48.92036" lon="2.27938">
        <ele>100</ele>
        <time>2015-06-15T19:36:20.896Z</time>
      </trkpt>
      <trkpt lat="48.92029" lon="2.27943">
        <ele>99.6</ele>
        <time>2015-06-15T19:36:21.896Z</time>
      </trkpt>
      <trkpt lat="48.92023" lon="2.27948">
        <ele>98.6</ele>
        <time>2015-06-15T19:36:22.906Z</time>
      </trkpt>
      <trkpt lat="48.92017" lon="2.27953">
        <ele>97.8</ele>
        <time>2015-06-15T19:36:23.878Z</time>
      </trkpt>
      <trkpt lat="48.92012" lon="2.27959">
        <ele>97.6</ele>
        <time>2015-06-15T19:36:24.839Z</time>
      </trkpt>
      <trkpt lat="48.92005" lon="2.27967">
        <ele>97.7</ele>
        <time>2015-06-15T19:36:26.913Z</time>
      </trkpt>
      <trkpt lat="48.92001" lon="2.27971">
        <ele>98</ele>
        <time>2015-06-15T19:36:27.876Z</time>
      </trkpt>
      <trkpt lat="48.91997" lon="2.27975">
        <ele>98.3</ele>
        <time>2015-06-15T19:36:28.878Z</time>
      </trkpt>
      <trkpt lat="48.91994" lon="2.2798">
        <ele>98.5</ele>
        <time>2015-06-15T19:36:29.955Z</time>
      </trkpt>
      <trkpt lat="48.91988" lon="2.27984">
        <ele>98.4</ele>
        <time>2015-06-15T19:36:30.812Z</time>
      </trkpt>
      <trkpt lat="48.91982" lon="2.27988">
        <ele>98</ele>
        <time>2015-06-15T19:36:31.840Z</time>
      </trkpt>
      <trkpt lat="48.91975" lon="2.27994">
        <ele>97.8</ele>
        <time>2015-06-15T19:36:32.999Z</time>
      </trkpt>
      <trkpt lat="48.91969" lon="2.28001">
        <ele>97.6</ele>
        <time>2015-06-15T19:36:33.847Z</time>
      </trkpt>
      <trkpt lat="48.91965" lon="2.28006">
        <ele>97.5</ele>
        <time>2015-06-15T19:36:34.862Z</time>
      </trkpt>
      <trkpt lat="48.91961" lon="2.28012">
        <ele>98.3</ele>
        <time>2015-06-15T19:36:35.885Z</time>
      </trkpt>
      <trkpt lat="48.91954" lon="2.2802">
        <ele>98.3</ele>
        <time>2015-06-15T19:36:37.934Z</time>
      </trkpt>
      <trkpt lat="48.91952" lon="2.28022">
        <ele>98.5</ele>
        <time>2015-06-15T19:36:38.951Z</time>
      </trkpt>
      <trkpt lat="48.91946" lon="2.28029">
        <ele>98.9</ele>
        <time>2015-06-15T19:36:40.880Z</time>
      </trkpt>
      <trkpt lat="48.91942" lon="2.28035">
        <ele>99.3</ele>
        <time>2015-06-15T19:36:41.933Z</time>
      </trkpt>
      <trkpt lat="48.91938" lon="2.2804">
        <ele>99.4</ele>
        <time>2015-06-15T19:36:42.955Z</time>
      </trkpt>
      <trkpt lat="48.91935" lon="2.28044">
        <ele>99.2</ele>
        <time>2015-06-15T19:36:43.867Z</time>
      </trkpt>
      <trkpt lat="48.91931" lon="2.28049">
        <ele>99.1</ele>
        <time>2015-06-15T19:36:44.895Z</time>
      </trkpt>
      <trkpt lat="48.91926" lon="2.28054">
        <ele>99.4</ele>
        <time>2015-06-15T19:36:45.905Z</time>
      </trkpt>
      <trkpt lat="48.91922" lon="2.28059">
        <ele>99.5</ele>
        <time>2015-06-15T19:36:46.924Z</time>
      </trkpt>
      <trkpt lat="48.91919" lon="2.28064">
        <ele>99.8</ele>
        <time>2015-06-15T19:36:47.848Z</time>
      </trkpt>
      <trkpt lat="48.91914" lon="2.28073">
        <ele>100</ele>
        <time>2015-06-15T19:36:49.863Z</time>
      </trkpt>
      <trkpt lat="48.91911" lon="2.28078">
        <ele>100.4</ele>
        <time>2015-06-15T19:36:50.969Z</time>
      </trkpt>
      <trkpt lat="48.91909" lon="2.2809">
        <ele>100.9</ele>
        <time>2015-06-15T19:36:52.821Z</time>
      </trkpt>
      <trkpt lat="48.91908" lon="2.28096">
        <ele>101.3</ele>
        <time>2015-06-15T19:36:53.850Z</time>
      </trkpt>
      <trkpt lat="48.91905" lon="2.28103">
        <ele>101.7</ele>
        <time>2015-06-15T19:36:54.880Z</time>
      </trkpt>
      <trkpt lat="48.91903" lon="2.2811">
        <ele>102.3</ele>
        <time>2015-06-15T19:36:55.879Z</time>
      </trkpt>
      <trkpt lat="48.919" lon="2.28121">
        <ele>103.3</ele>
        <time>2015-06-15T19:36:57.940Z</time>
      </trkpt>
      <trkpt lat="48.91897" lon="2.28128">
        <ele>102.6</ele>
        <time>2015-06-15T19:36:58.819Z</time>
      </trkpt>
      <trkpt lat="48.91894" lon="2.28134">
        <ele>102.4</ele>
        <time>2015-06-15T19:36:59.859Z</time>
      </trkpt>
      <trkpt lat="48.91892" lon="2.2814">
        <ele>102.4</ele>
        <time>2015-06-15T19:37:00.872Z</time>
      </trkpt>
      <trkpt lat="48.9189" lon="2.28149">
        <ele>102.2</ele>
        <time>2015-06-15T19:37:01.894Z</time>
      </trkpt>
      <trkpt lat="48.91888" lon="2.28158">
        <ele>102</ele>
        <time>2015-06-15T19:37:02.964Z</time>
      </trkpt>
      <trkpt lat="48.91886" lon="2.28166">
        <ele>102.4</ele>
        <time>2015-06-15T19:37:03.873Z</time>
      </trkpt>
      <trkpt lat="48.91884" lon="2.28172">
        <ele>102.7</ele>
        <time>2015-06-15T19:37:04.915Z</time>
      </trkpt>
      <trkpt lat="48.91881" lon="2.28184">
        <ele>102.7</ele>
        <time>2015-06-15T19:37:06.878Z</time>
      </trkpt>
      <trkpt lat="48.9188" lon="2.28189">
        <ele>102.5</ele>
        <time>2015-06-15T19:37:07.961Z</time>
      </trkpt>
      <trkpt lat="48.91877" lon="2.28199">
        <ele>102.5</ele>
        <time>2015-06-15T19:37:09.897Z</time>
      </trkpt>
      <trkpt lat="48.91877" lon="2.28205">
        <ele>101.7</ele>
        <time>2015-06-15T19:37:10.921Z</time>
      </trkpt>
      <trkpt lat="48.91874" lon="2.28217">
        <ele>101.4</ele>
        <time>2015-06-15T19:37:12.890Z</time>
      </trkpt>
      <trkpt lat="48.91872" lon="2.28223">
        <ele>101.7</ele>
        <time>2015-06-15T19:37:13.929Z</time>
      </trkpt>
      <trkpt lat="48.91869" lon="2.28236">
        <ele>102.9</ele>
        <time>2015-06-15T19:37:15.905Z</time>
      </trkpt>
      <trkpt lat="48.91867" lon="2.28244">
        <ele>103.2</ele>
        <time>2015-06-15T19:37:16.858Z</time>
      </trkpt>
      <trkpt lat="48.91865" lon="2.28252">
        <ele>103.3</ele>
        <time>2015-06-15T19:37:17.872Z</time>
      </trkpt>
      <trkpt lat="48.91863" lon="2.2826">
        <ele>103.7</ele>
        <time>2015-06-15T19:37:18.852Z</time>
      </trkpt>
      <trkpt lat="48.9186" lon="2.28267">
        <ele>103.9</ele>
        <time>2015-06-15T19:37:19.914Z</time>
      </trkpt>
      <trkpt lat="48.91856" lon="2.28274">
        <ele>104</ele>
        <time>2015-06-15T19:37:20.925Z</time>
      </trkpt>
      <trkpt lat="48.91854" lon="2.28281">
        <ele>103.7</ele>
        <time>2015-06-15T19:37:21.857Z</time>
      </trkpt>
      <trkpt lat="48.91852" lon="2.28288">
        <ele>104</ele>
        <time>2015-06-15T19:37:22.857Z</time>
      </trkpt>
      <trkpt lat="48.9185" lon="2.28299">
        <ele>104.5</ele>
        <time>2015-06-15T19:37:24.889Z</time>
      </trkpt>
      <trkpt lat="48.91851" lon="2.28304">
        <ele>104.7</ele>
        <time>2015-06-15T19:37:25.890Z</time>
      </trkpt>
      <trkpt lat="48.91849" lon="2.28313">
        <ele>104.1</ele>
        <time>2015-06-15T19:37:27.844Z</time>
      </trkpt>
      <trkpt lat="48.91846" lon="2.28319">
        <ele>104.1</ele>
        <time>2015-06-15T19:37:28.922Z</time>
      </trkpt>
      <trkpt lat="48.91843" lon="2.28326">
        <ele>104.2</ele>
        <time>2015-06-15T19:37:29.948Z</time>
      </trkpt>
      <trkpt lat="48.91841" lon="2.28335">
        <ele>104.1</ele>
        <time>2015-06-15T19:37:30.851Z</time>
      </trkpt>
      <trkpt lat="48.91839" lon="2.28344">
        <ele>104</ele>
        <time>2015-06-15T19:37:31.878Z</time>
      </trkpt>
      <trkpt lat="48.91836" lon="2.28353">
        <ele>104.3</ele>
        <time>2015-06-15T19:37:32.944Z</time>
      </trkpt>
      <trkpt lat="48.91832" lon="2.28363">
        <ele>103.8</ele>
        <time>2015-06-15T19:37:33.847Z</time>
      </trkpt>
      <trkpt lat="48.91829" lon="2.28372">
        <ele>103.8</ele>
        <time>2015-06-15T19:37:34.856Z</time>
      </trkpt>
      <trkpt lat="48.91827" lon="2.28379">
        <ele>103.9</ele>
        <time>2015-06-15T19:37:35.879Z</time>
      </trkpt>
      <trkpt lat="48.91825" lon="2.28386">
        <ele>104.2</ele>
        <time>2015-06-15T19:37:36.910Z</time>
      </trkpt>
      <trkpt lat="48.91822" lon="2.28392">
        <ele>104.3</ele>
        <time>2015-06-15T19:37:37.933Z</time>
      </trkpt>
      <trkpt lat="48.91819" lon="2.284">
        <ele>104.7</ele>
        <time>2015-06-15T19:37:38.941Z</time>
      </trkpt>
      <trkpt lat="48.91817" lon="2.28407">
        <ele>105</ele>
        <time>2015-06-15T19:37:39.850Z</time>
      </trkpt>
      <trkpt lat="48.91815" lon="2.28414">
        <ele>105.1</ele>
        <time>2015-06-15T19:37:40.890Z</time>
      </trkpt>
      <trkpt lat="48.91812" lon="2.28422">
        <ele>104.7</ele>
        <time>2015-06-15T19:37:41.931Z</time>
      </trkpt>
      <trkpt lat="48.91811" lon="2.28429">
        <ele>104.9</ele>
        <time>2015-06-15T19:37:42.845Z</time>
      </trkpt>
      <trkpt lat="48.91808" lon="2.28436">
        <ele>105</ele>
        <time>2015-06-15T19:37:43.844Z</time>
      </trkpt>
      <trkpt lat="48.91806" lon="2.28443">
        <ele>104.9</ele>
        <time>2015-06-15T19:37:44.895Z</time>
      </trkpt>
      <trkpt lat="48.91804" lon="2.2845">
        <ele>105.1</ele>
        <time>2015-06-15T19:37:45.952Z</time>
      </trkpt>
      <trkpt lat="48.91801" lon="2.28458">
        <ele>105.4</ele>
        <time>2015-06-15T19:37:46.921Z</time>
      </trkpt>
      <trkpt lat="48.91799" lon="2.28465">
        <ele>105.3</ele>
        <time>2015-06-15T19:37:47.865Z</time>
      </trkpt>
      <trkpt lat="48.91795" lon="2.28474">
        <ele>105.3</ele>
        <time>2015-06-15T19:37:48.877Z</time>
      </trkpt>
      <trkpt lat="48.91792" lon="2.28482">
        <ele>105.3</ele>
        <time>2015-06-15T19:37:49.908Z</time>
      </trkpt>
      <trkpt lat="48.91789" lon="2.2849">
        <ele>105.7</ele>
        <time>2015-06-15T19:37:50.921Z</time>
      </trkpt>
      <trkpt lat="48.91786" lon="2.28498">
        <ele>105.8</ele>
        <time>2015-06-15T19:37:51.925Z</time>
      </trkpt>
      <trkpt lat="48.91783" lon="2.28507">
        <ele>106.1</ele>
        <time>2015-06-15T19:37:52.941Z</time>
      </trkpt>
      <trkpt lat="48.9178" lon="2.28515">
        <ele>106.5</ele>
        <time>2015-06-15T19:37:53.879Z</time>
      </trkpt>
      <trkpt lat="48.91778" lon="2.28524">
        <ele>106.9</ele>
        <time>2015-06-15T19:37:54.870Z</time>
      </trkpt>
      <trkpt lat="48.91776" lon="2.28532">
        <ele>107.3</ele>
        <time>2015-06-15T19:37:55.870Z</time>
      </trkpt>
      <trkpt lat="48.91774" lon="2.28539">
        <ele>107.6</ele>
        <time>2015-06-15T19:37:56.938Z</time>
      </trkpt>
      <trkpt lat="48.91771" lon="2.28547">
        <ele>107.4</ele>
        <time>2015-06-15T19:37:57.853Z</time>
      </trkpt>
      <trkpt lat="48.91769" lon="2.28554">
        <ele>107.2</ele>
        <time>2015-06-15T19:37:58.853Z</time>
      </trkpt>
      <trkpt lat="48.91769" lon="2.28562">
        <ele>106.1</ele>
        <time>2015-06-15T19:37:59.869Z</time>
      </trkpt>
      <trkpt lat="48.91768" lon="2.28571">
        <ele>105.1</ele>
        <time>2015-06-15T19:38:00.906Z</time>
      </trkpt>
      <trkpt lat="48.91765" lon="2.28579">
        <ele>105.1</ele>
        <time>2015-06-15T19:38:01.919Z</time>
      </trkpt>
      <trkpt lat="48.91763" lon="2.28588">
        <ele>105.5</ele>
        <time>2015-06-15T19:38:02.936Z</time>
      </trkpt>
      <trkpt lat="48.91761" lon="2.28596">
        <ele>105.7</ele>
        <time>2015-06-15T19:38:03.836Z</time>
      </trkpt>
      <trkpt lat="48.91756" lon="2.28605">
        <ele>105.4</ele>
        <time>2015-06-15T19:38:04.842Z</time>
      </trkpt>
      <trkpt lat="48.9175" lon="2.28613">
        <ele>105.2</ele>
        <time>2015-06-15T19:38:05.848Z</time>
      </trkpt>
      <trkpt lat="48.91746" lon="2.28621">
        <ele>105.4</ele>
        <time>2015-06-15T19:38:06.865Z</time>
      </trkpt>
      <trkpt lat="48.91742" lon="2.28629">
        <ele>105.6</ele>
        <time>2015-06-15T19:38:07.891Z</time>
      </trkpt>
      <trkpt lat="48.91739" lon="2.28636">
        <ele>105.4</ele>
        <time>2015-06-15T19:38:08.910Z</time>
      </trkpt>
      <trkpt lat="48.91737" lon="2.28643">
        <ele>105.6</ele>
        <time>2015-06-15T19:38:09.833Z</time>
      </trkpt>
      <trkpt lat="48.91734" lon="2.28652">
        <ele>106.1</ele>
        <time>2015-06-15T19:38:10.845Z</time>
      </trkpt>
      <trkpt lat="48.91731" lon="2.28659">
        <ele>106</ele>
        <time>2015-06-15T19:38:11.867Z</time>
      </trkpt>
      <trkpt lat="48.91728" lon="2.28667">
        <ele>106.2</ele>
        <time>2015-06-15T19:38:12.872Z</time>
      </trkpt>
      <trkpt lat="48.91726" lon="2.28674">
        <ele>106.3</ele>
        <time>2015-06-15T19:38:13.887Z</time>
      </trkpt>
      <trkpt lat="48.91724" lon="2.2868">
        <ele>106.6</ele>
        <time>2015-06-15T19:38:14.903Z</time>
      </trkpt>
      <trkpt lat="48.91722" lon="2.28687">
        <ele>106.9</ele>
        <time>2015-06-15T19:38:15.906Z</time>
      </trkpt>
      <trkpt lat="48.9172" lon="2.28695">
        <ele>107</ele>
        <time>2015-06-15T19:38:16.917Z</time>
      </trkpt>
      <trkpt lat="48.91718" lon="2.28706">
        <ele>106</ele>
        <time>2015-06-15T19:38:17.921Z</time>
      </trkpt>
      <trkpt lat="48.91715" lon="2.28716">
        <ele>105.3</ele>
        <time>2015-06-15T19:38:18.930Z</time>
      </trkpt>
      <trkpt lat="48.91713" lon="2.28726">
        <ele>104.3</ele>
        <time>2015-06-15T19:38:19.933Z</time>
      </trkpt>
      <trkpt lat="48.91711" lon="2.28733">
        <ele>103.6</ele>
        <time>2015-06-15T19:38:20.939Z</time>
      </trkpt>
      <trkpt lat="48.9171" lon="2.2874">
        <ele>102.7</ele>
        <time>2015-06-15T19:38:21.838Z</time>
      </trkpt>
      <trkpt lat="48.91708" lon="2.28748">
        <ele>101.9</ele>
        <time>2015-06-15T19:38:22.862Z</time>
      </trkpt>
      <trkpt lat="48.91707" lon="2.28754">
        <ele>101.9</ele>
        <time>2015-06-15T19:38:23.890Z</time>
      </trkpt>
      <trkpt lat="48.91705" lon="2.28761">
        <ele>101.8</ele>
        <time>2015-06-15T19:38:24.904Z</time>
      </trkpt>
      <trkpt lat="48.91703" lon="2.28769">
        <ele>101.5</ele>
        <time>2015-06-15T19:38:25.865Z</time>
      </trkpt>
      <trkpt lat="48.91701" lon="2.28776">
        <ele>101</ele>
        <time>2015-06-15T19:38:26.916Z</time>
      </trkpt>
      <trkpt lat="48.917" lon="2.28783">
        <ele>100.7</ele>
        <time>2015-06-15T19:38:27.928Z</time>
      </trkpt>
      <trkpt lat="48.91698" lon="2.28789">
        <ele>100.4</ele>
        <time>2015-06-15T19:38:28.942Z</time>
      </trkpt>
      <trkpt lat="48.91695" lon="2.28796">
        <ele>100</ele>
        <time>2015-06-15T19:38:29.859Z</time>
      </trkpt>
      <trkpt lat="48.91693" lon="2.28805">
        <ele>99.6</ele>
        <time>2015-06-15T19:38:30.865Z</time>
      </trkpt>
      <trkpt lat="48.91692" lon="2.28813">
        <ele>99.1</ele>
        <time>2015-06-15T19:38:31.879Z</time>
      </trkpt>
      <trkpt lat="48.9169" lon="2.2882">
        <ele>99.1</ele>
        <time>2015-06-15T19:38:32.951Z</time>
      </trkpt>
      <trkpt lat="48.91687" lon="2.28826">
        <ele>99.1</ele>
        <time>2015-06-15T19:38:33.855Z</time>
      </trkpt>
      <trkpt lat="48.91685" lon="2.28832">
        <ele>99</ele>
        <time>2015-06-15T19:38:34.848Z</time>
      </trkpt>
      <trkpt lat="48.91682" lon="2.28838">
        <ele>98.9</ele>
        <time>2015-06-15T19:38:35.857Z</time>
      </trkpt>
      <trkpt lat="48.9168" lon="2.28845">
        <ele>98.5</ele>
        <time>2015-06-15T19:38:36.862Z</time>
      </trkpt>
      <trkpt lat="48.91679" lon="2.28852">
        <ele>98.2</ele>
        <time>2015-06-15T19:38:37.875Z</time>
      </trkpt>
      <trkpt lat="48.91676" lon="2.28859">
        <ele>98.4</ele>
        <time>2015-06-15T19:38:38.895Z</time>
      </trkpt>
      <trkpt lat="48.91674" lon="2.28866">
        <ele>98.7</ele>
        <time>2015-06-15T19:38:39.851Z</time>
      </trkpt>
      <trkpt lat="48.91673" lon="2.28873">
        <ele>98.9</ele>
        <time>2015-06-15T19:38:40.826Z</time>
      </trkpt>
      <trkpt lat="48.91671" lon="2.28881">
        <ele>99.1</ele>
        <time>2015-06-15T19:38:41.838Z</time>
      </trkpt>
      <trkpt lat="48.91669" lon="2.2889">
        <ele>99.2</ele>
        <time>2015-06-15T19:38:42.848Z</time>
      </trkpt>
      <trkpt lat="48.91668" lon="2.28898">
        <ele>98.8</ele>
        <time>2015-06-15T19:38:43.864Z</time>
      </trkpt>
      <trkpt lat="48.91666" lon="2.28905">
        <ele>98.8</ele>
        <time>2015-06-15T19:38:44.869Z</time>
      </trkpt>
      <trkpt lat="48.91663" lon="2.28913">
        <ele>98.8</ele>
        <time>2015-06-15T19:38:45.831Z</time>
      </trkpt>
      <trkpt lat="48.9166" lon="2.28923">
        <ele>98.7</ele>
        <time>2015-06-15T19:38:46.846Z</time>
      </trkpt>
      <trkpt lat="48.91657" lon="2.28932">
        <ele>98.6</ele>
        <time>2015-06-15T19:38:47.857Z</time>
      </trkpt>
      <trkpt lat="48.91654" lon="2.28941">
        <ele>98.6</ele>
        <time>2015-06-15T19:38:48.856Z</time>
      </trkpt>
      <trkpt lat="48.91652" lon="2.28949">
        <ele>98.6</ele>
        <time>2015-06-15T19:38:49.864Z</time>
      </trkpt>
      <trkpt lat="48.91649" lon="2.28957">
        <ele>98.7</ele>
        <time>2015-06-15T19:38:50.869Z</time>
      </trkpt>
      <trkpt lat="48.91646" lon="2.28966">
        <ele>99</ele>
        <time>2015-06-15T19:38:51.874Z</time>
      </trkpt>
      <trkpt lat="48.91643" lon="2.28976">
        <ele>99.3</ele>
        <time>2015-06-15T19:38:52.893Z</time>
      </trkpt>
      <trkpt lat="48.9164" lon="2.28984">
        <ele>99.7</ele>
        <time>2015-06-15T19:38:53.901Z</time>
      </trkpt>
      <trkpt lat="48.91638" lon="2.28991">
        <ele>99.7</ele>
        <time>2015-06-15T19:38:54.917Z</time>
      </trkpt>
      <trkpt lat="48.91636" lon="2.28998">
        <ele>99.6</ele>
        <time>2015-06-15T19:38:55.930Z</time>
      </trkpt>
      <trkpt lat="48.91634" lon="2.29005">
        <ele>99.4</ele>
        <time>2015-06-15T19:38:56.937Z</time>
      </trkpt>
      <trkpt lat="48.91632" lon="2.29013">
        <ele>99.2</ele>
        <time>2015-06-15T19:38:57.844Z</time>
      </trkpt>
      <trkpt lat="48.9163" lon="2.2902">
        <ele>99.1</ele>
        <time>2015-06-15T19:38:58.857Z</time>
      </trkpt>
      <trkpt lat="48.91627" lon="2.29026">
        <ele>98.5</ele>
        <time>2015-06-15T19:38:59.872Z</time>
      </trkpt>
      <trkpt lat="48.91625" lon="2.29033">
        <ele>98.2</ele>
        <time>2015-06-15T19:39:00.882Z</time>
      </trkpt>
      <trkpt lat="48.91622" lon="2.2904">
        <ele>97.9</ele>
        <time>2015-06-15T19:39:01.889Z</time>
      </trkpt>
      <trkpt lat="48.9162" lon="2.29048">
        <ele>97.7</ele>
        <time>2015-06-15T19:39:02.900Z</time>
      </trkpt>
      <trkpt lat="48.91618" lon="2.29054">
        <ele>97.6</ele>
        <time>2015-06-15T19:39:03.909Z</time>
      </trkpt>
      <trkpt lat="48.91616" lon="2.29062">
        <ele>97.4</ele>
        <time>2015-06-15T19:39:04.823Z</time>
      </trkpt>
      <trkpt lat="48.91613" lon="2.29069">
        <ele>97.4</ele>
        <time>2015-06-15T19:39:05.859Z</time>
      </trkpt>
      <trkpt lat="48.91611" lon="2.29077">
        <ele>97.5</ele>
        <time>2015-06-15T19:39:06.870Z</time>
      </trkpt>
      <trkpt lat="48.91608" lon="2.29085">
        <ele>97.5</ele>
        <time>2015-06-15T19:39:07.887Z</time>
      </trkpt>
      <trkpt lat="48.91605" lon="2.29093">
        <ele>98.1</ele>
        <time>2015-06-15T19:39:08.916Z</time>
      </trkpt>
      <trkpt lat="48.916" lon="2.29102">
        <ele>97.9</ele>
        <time>2015-06-15T19:39:09.923Z</time>
      </trkpt>
      <trkpt lat="48.91596" lon="2.29113">
        <ele>98</ele>
        <time>2015-06-15T19:39:10.844Z</time>
      </trkpt>
      <trkpt lat="48.91592" lon="2.29127">
        <ele>98.4</ele>
        <time>2015-06-15T19:39:11.840Z</time>
      </trkpt>
      <trkpt lat="48.9159" lon="2.29137">
        <ele>97.8</ele>
        <time>2015-06-15T19:39:12.865Z</time>
      </trkpt>
      <trkpt lat="48.91587" lon="2.29146">
        <ele>98.1</ele>
        <time>2015-06-15T19:39:13.875Z</time>
      </trkpt>
      <trkpt lat="48.91585" lon="2.29154">
        <ele>98.2</ele>
        <time>2015-06-15T19:39:14.900Z</time>
      </trkpt>
      <trkpt lat="48.91584" lon="2.29161">
        <ele>98.7</ele>
        <time>2015-06-15T19:39:15.932Z</time>
      </trkpt>
      <trkpt lat="48.91582" lon="2.29173">
        <ele>99.6</ele>
        <time>2015-06-15T19:39:17.859Z</time>
      </trkpt>
      <trkpt lat="48.9158" lon="2.29179">
        <ele>99.7</ele>
        <time>2015-06-15T19:39:18.875Z</time>
      </trkpt>
      <trkpt lat="48.91577" lon="2.29189">
        <ele>99.3</ele>
        <time>2015-06-15T19:39:20.954Z</time>
      </trkpt>
      <trkpt lat="48.91575" lon="2.29196">
        <ele>98.7</ele>
        <time>2015-06-15T19:39:21.951Z</time>
      </trkpt>
      <trkpt lat="48.91571" lon="2.29208">
        <ele>98</ele>
        <time>2015-06-15T19:39:23.905Z</time>
      </trkpt>
      <trkpt lat="48.91569" lon="2.29213">
        <ele>98</ele>
        <time>2015-06-15T19:39:24.936Z</time>
      </trkpt>
      <trkpt lat="48.91565" lon="2.29225">
        <ele>98</ele>
        <time>2015-06-15T19:39:26.907Z</time>
      </trkpt>
      <trkpt lat="48.91562" lon="2.2923">
        <ele>98</ele>
        <time>2015-06-15T19:39:27.823Z</time>
      </trkpt>
      <trkpt lat="48.91559" lon="2.29242">
        <ele>97.5</ele>
        <time>2015-06-15T19:39:30.935Z</time>
      </trkpt>
      <trkpt lat="48.91559" lon="2.29246">
        <ele>96.9</ele>
        <time>2015-06-15T19:39:31.877Z</time>
      </trkpt>
      <trkpt lat="48.91558" lon="2.29252">
        <ele>96.6</ele>
        <time>2015-06-15T19:39:32.985Z</time>
      </trkpt>
      <trkpt lat="48.91557" lon="2.2926">
        <ele>96.6</ele>
        <time>2015-06-15T19:39:33.850Z</time>
      </trkpt>
      <trkpt lat="48.91555" lon="2.29268">
        <ele>96.5</ele>
        <time>2015-06-15T19:39:34.935Z</time>
      </trkpt>
      <trkpt lat="48.91552" lon="2.29275">
        <ele>96.5</ele>
        <time>2015-06-15T19:39:35.862Z</time>
      </trkpt>
      <trkpt lat="48.91549" lon="2.29284">
        <ele>96.8</ele>
        <time>2015-06-15T19:39:36.886Z</time>
      </trkpt>
      <trkpt lat="48.91546" lon="2.29292">
        <ele>97.2</ele>
        <time>2015-06-15T19:39:37.898Z</time>
      </trkpt>
      <trkpt lat="48.91544" lon="2.29301">
        <ele>97.7</ele>
        <time>2015-06-15T19:39:38.902Z</time>
      </trkpt>
      <trkpt lat="48.91541" lon="2.29308">
        <ele>98</ele>
        <time>2015-06-15T19:39:39.909Z</time>
      </trkpt>
      <trkpt lat="48.91539" lon="2.29316">
        <ele>98.3</ele>
        <time>2015-06-15T19:39:40.926Z</time>
      </trkpt>
      <trkpt lat="48.91537" lon="2.29323">
        <ele>98.6</ele>
        <time>2015-06-15T19:39:41.870Z</time>
      </trkpt>
      <trkpt lat="48.91535" lon="2.29331">
        <ele>99.2</ele>
        <time>2015-06-15T19:39:42.861Z</time>
      </trkpt>
      <trkpt lat="48.91535" lon="2.29338">
        <ele>100</ele>
        <time>2015-06-15T19:39:43.882Z</time>
      </trkpt>
      <trkpt lat="48.91535" lon="2.29347">
        <ele>100.1</ele>
        <time>2015-06-15T19:39:44.899Z</time>
      </trkpt>
      <trkpt lat="48.91533" lon="2.29355">
        <ele>100.1</ele>
        <time>2015-06-15T19:39:45.888Z</time>
      </trkpt>
      <trkpt lat="48.9153" lon="2.29363">
        <ele>100.6</ele>
        <time>2015-06-15T19:39:46.906Z</time>
      </trkpt>
      <trkpt lat="48.91528" lon="2.29371">
        <ele>101.2</ele>
        <time>2015-06-15T19:39:47.913Z</time>
      </trkpt>
      <trkpt lat="48.91525" lon="2.2938">
        <ele>101.6</ele>
        <time>2015-06-15T19:39:48.840Z</time>
      </trkpt>
      <trkpt lat="48.91522" lon="2.29388">
        <ele>102</ele>
        <time>2015-06-15T19:39:49.842Z</time>
      </trkpt>
      <trkpt lat="48.91518" lon="2.29397">
        <ele>101.6</ele>
        <time>2015-06-15T19:39:50.852Z</time>
      </trkpt>
      <trkpt lat="48.91513" lon="2.29404">
        <ele>101.7</ele>
        <time>2015-06-15T19:39:51.859Z</time>
      </trkpt>
      <trkpt lat="48.91508" lon="2.29412">
        <ele>101.6</ele>
        <time>2015-06-15T19:39:52.883Z</time>
      </trkpt>
      <trkpt lat="48.91503" lon="2.29418">
        <ele>101.5</ele>
        <time>2015-06-15T19:39:53.892Z</time>
      </trkpt>
      <trkpt lat="48.91499" lon="2.29422">
        <ele>101.4</ele>
        <time>2015-06-15T19:39:54.907Z</time>
      </trkpt>
      <trkpt lat="48.91495" lon="2.29427">
        <ele>101.5</ele>
        <time>2015-06-15T19:39:55.921Z</time>
      </trkpt>
      <trkpt lat="48.9149" lon="2.29431">
        <ele>101.6</ele>
        <time>2015-06-15T19:39:56.941Z</time>
      </trkpt>
      <trkpt lat="48.91484" lon="2.29436">
        <ele>101.7</ele>
        <time>2015-06-15T19:39:57.848Z</time>
      </trkpt>
      <trkpt lat="48.91479" lon="2.29439">
        <ele>102</ele>
        <time>2015-06-15T19:39:58.854Z</time>
      </trkpt>
      <trkpt lat="48.91472" lon="2.29443">
        <ele>102.5</ele>
        <time>2015-06-15T19:39:59.864Z</time>
      </trkpt>
      <trkpt lat="48.91467" lon="2.29447">
        <ele>103.1</ele>
        <time>2015-06-15T19:40:00.886Z</time>
      </trkpt>
      <trkpt lat="48.91463" lon="2.29451">
        <ele>103.3</ele>
        <time>2015-06-15T19:40:01.891Z</time>
      </trkpt>
      <trkpt lat="48.9146" lon="2.29459">
        <ele>102.5</ele>
        <time>2015-06-15T19:40:03.926Z</time>
      </trkpt>
      <trkpt lat="48.91458" lon="2.29463">
        <ele>103.3</ele>
        <time>2015-06-15T19:40:04.878Z</time>
      </trkpt>
      <trkpt lat="48.91454" lon="2.29467">
        <ele>103.4</ele>
        <time>2015-06-15T19:40:05.859Z</time>
      </trkpt>
      <trkpt lat="48.91449" lon="2.29471">
        <ele>103.4</ele>
        <time>2015-06-15T19:40:06.864Z</time>
      </trkpt>
      <trkpt lat="48.91444" lon="2.29475">
        <ele>103.5</ele>
        <time>2015-06-15T19:40:07.877Z</time>
      </trkpt>
      <trkpt lat="48.9144" lon="2.29477">
        <ele>103.5</ele>
        <time>2015-06-15T19:40:08.877Z</time>
      </trkpt>
      <trkpt lat="48.91436" lon="2.29481">
        <ele>103.7</ele>
        <time>2015-06-15T19:40:09.894Z</time>
      </trkpt>
      <trkpt lat="48.91431" lon="2.29485">
        <ele>104</ele>
        <time>2015-06-15T19:40:10.906Z</time>
      </trkpt>
      <trkpt lat="48.91426" lon="2.29489">
        <ele>104.1</ele>
        <time>2015-06-15T19:40:11.825Z</time>
      </trkpt>
      <trkpt lat="48.9142" lon="2.29494">
        <ele>104.2</ele>
        <time>2015-06-15T19:40:12.843Z</time>
      </trkpt>
      <trkpt lat="48.91416" lon="2.29497">
        <ele>104.1</ele>
        <time>2015-06-15T19:40:13.836Z</time>
      </trkpt>
      <trkpt lat="48.91411" lon="2.29501">
        <ele>103.8</ele>
        <time>2015-06-15T19:40:14.894Z</time>
      </trkpt>
      <trkpt lat="48.91406" lon="2.29505">
        <ele>103.3</ele>
        <time>2015-06-15T19:40:15.900Z</time>
      </trkpt>
      <trkpt lat="48.91401" lon="2.29508">
        <ele>103</ele>
        <time>2015-06-15T19:40:16.908Z</time>
      </trkpt>
      <trkpt lat="48.91397" lon="2.29511">
        <ele>102.8</ele>
        <time>2015-06-15T19:40:17.918Z</time>
      </trkpt>
      <trkpt lat="48.91393" lon="2.29513">
        <ele>102.8</ele>
        <time>2015-06-15T19:40:18.838Z</time>
      </trkpt>
      <trkpt lat="48.91387" lon="2.29516">
        <ele>102.2</ele>
        <time>2015-06-15T19:40:19.840Z</time>
      </trkpt>
      <trkpt lat="48.91383" lon="2.29519">
        <ele>102.1</ele>
        <time>2015-06-15T19:40:20.885Z</time>
      </trkpt>
      <trkpt lat="48.91376" lon="2.29523">
        <ele>101.3</ele>
        <time>2015-06-15T19:40:21.916Z</time>
      </trkpt>
      <trkpt lat="48.91371" lon="2.29528">
        <ele>101.2</ele>
        <time>2015-06-15T19:40:22.916Z</time>
      </trkpt>
      <trkpt lat="48.91365" lon="2.29531">
        <ele>100.6</ele>
        <time>2015-06-15T19:40:24.000Z</time>
      </trkpt>
      <trkpt lat="48.9136" lon="2.29535">
        <ele>100.2</ele>
        <time>2015-06-15T19:40:24.841Z</time>
      </trkpt>
      <trkpt lat="48.91354" lon="2.29538">
        <ele>99.5</ele>
        <time>2015-06-15T19:40:25.832Z</time>
      </trkpt>
      <trkpt lat="48.9135" lon="2.29541">
        <ele>99.8</ele>
        <time>2015-06-15T19:40:26.939Z</time>
      </trkpt>
      <trkpt lat="48.91343" lon="2.29548">
        <ele>100.4</ele>
        <time>2015-06-15T19:40:28.834Z</time>
      </trkpt>
      <trkpt lat="48.9134" lon="2.29551">
        <ele>100.3</ele>
        <time>2015-06-15T19:40:29.846Z</time>
      </trkpt>
      <trkpt lat="48.91334" lon="2.29557">
        <ele>100</ele>
        <time>2015-06-15T19:40:31.881Z</time>
      </trkpt>
      <trkpt lat="48.9133" lon="2.29559">
        <ele>100.5</ele>
        <time>2015-06-15T19:40:32.914Z</time>
      </trkpt>
      <trkpt lat="48.91326" lon="2.29563">
        <ele>100.9</ele>
        <time>2015-06-15T19:40:33.940Z</time>
      </trkpt>
      <trkpt lat="48.91322" lon="2.29567">
        <ele>101.1</ele>
        <time>2015-06-15T19:40:34.856Z</time>
      </trkpt>
      <trkpt lat="48.91318" lon="2.29572">
        <ele>100.7</ele>
        <time>2015-06-15T19:40:35.865Z</time>
      </trkpt>
      <trkpt lat="48.91313" lon="2.29577">
        <ele>100.7</ele>
        <time>2015-06-15T19:40:36.865Z</time>
      </trkpt>
      <trkpt lat="48.91309" lon="2.29581">
        <ele>100.8</ele>
        <time>2015-06-15T19:40:37.919Z</time>
      </trkpt>
      <trkpt lat="48.91305" lon="2.29585">
        <ele>100.8</ele>
        <time>2015-06-15T19:40:38.929Z</time>
      </trkpt>
      <trkpt lat="48.913" lon="2.29588">
        <ele>100.6</ele>
        <time>2015-06-15T19:40:39.842Z</time>
      </trkpt>
      <trkpt lat="48.91295" lon="2.29591">
        <ele>99.9</ele>
        <time>2015-06-15T19:40:40.852Z</time>
      </trkpt>
      <trkpt lat="48.91288" lon="2.29595">
        <ele>99.1</ele>
        <time>2015-06-15T19:40:42.871Z</time>
      </trkpt>
      <trkpt lat="48.91284" lon="2.29597">
        <ele>98.6</ele>
        <time>2015-06-15T19:40:43.892Z</time>
      </trkpt>
      <trkpt lat="48.91276" lon="2.296">
        <ele>97.5</ele>
        <time>2015-06-15T19:40:45.856Z</time>
      </trkpt>
      <trkpt lat="48.91271" lon="2.29601">
        <ele>96.9</ele>
        <time>2015-06-15T19:40:46.880Z</time>
      </trkpt>
      <trkpt lat="48.91263" lon="2.29602">
        <ele>95.9</ele>
        <time>2015-06-15T19:40:48.917Z</time>
      </trkpt>
      <trkpt lat="48.91259" lon="2.29604">
        <ele>95.9</ele>
        <time>2015-06-15T19:40:49.935Z</time>
      </trkpt>
      <trkpt lat="48.91253" lon="2.29609">
        <ele>96.3</ele>
        <time>2015-06-15T19:40:51.850Z</time>
      </trkpt>
      <trkpt lat="48.91251" lon="2.29612">
        <ele>96.9</ele>
        <time>2015-06-15T19:40:52.891Z</time>
      </trkpt>
      <trkpt lat="48.91244" lon="2.2962">
        <ele>94.5</ele>
        <time>2015-06-15T19:44:25.099Z</time>
      </trkpt>
      <trkpt lat="48.91241" lon="2.29621">
        <ele>94.5</ele>
        <time>2015-06-15T19:44:25.921Z</time>
      </trkpt>
      <trkpt lat="48.91236" lon="2.29625">
        <ele>94.4</ele>
        <time>2015-06-15T19:44:27.860Z</time>
      </trkpt>
      <trkpt lat="48.91233" lon="2.29627">
        <ele>94.4</ele>
        <time>2015-06-15T19:44:28.893Z</time>
      </trkpt>
      <trkpt lat="48.91226" lon="2.29634">
        <ele>94.9</ele>
        <time>2015-06-15T19:44:31.857Z</time>
      </trkpt>
      <trkpt lat="48.91224" lon="2.29636">
        <ele>94.8</ele>
        <time>2015-06-15T19:44:32.964Z</time>
      </trkpt>
      <trkpt lat="48.91217" lon="2.29644">
        <ele>95.2</ele>
        <time>2015-06-15T19:44:36.907Z</time>
      </trkpt>
      <trkpt lat="48.91216" lon="2.29645">
        <ele>95.4</ele>
        <time>2015-06-15T19:44:37.804Z</time>
      </trkpt>
      <trkpt lat="48.91209" lon="2.29652">
        <ele>96.4</ele>
        <time>2015-06-15T19:44:40.914Z</time>
      </trkpt>
      <trkpt lat="48.91206" lon="2.29654">
        <ele>96.5</ele>
        <time>2015-06-15T19:44:41.841Z</time>
      </trkpt>
      <trkpt lat="48.912" lon="2.29659">
        <ele>96.8</ele>
        <time>2015-06-15T19:44:43.872Z</time>
      </trkpt>
      <trkpt lat="48.91197" lon="2.29662">
        <ele>96.9</ele>
        <time>2015-06-15T19:44:44.889Z</time>
      </trkpt>
      <trkpt lat="48.9119" lon="2.29668">
        <ele>97.6</ele>
        <time>2015-06-15T19:44:47.815Z</time>
      </trkpt>
      <trkpt lat="48.91186" lon="2.29671">
        <ele>97.5</ele>
        <time>2015-06-15T19:44:48.828Z</time>
      </trkpt>
      <trkpt lat="48.91182" lon="2.29674">
        <ele>97.4</ele>
        <time>2015-06-15T19:44:49.856Z</time>
      </trkpt>
      <trkpt lat="48.91178" lon="2.29677">
        <ele>97.9</ele>
        <time>2015-06-15T19:44:50.900Z</time>
      </trkpt>
      <trkpt lat="48.91171" lon="2.29682">
        <ele>98.9</ele>
        <time>2015-06-15T19:44:52.937Z</time>
      </trkpt>
      <trkpt lat="48.91168" lon="2.29684">
        <ele>99.3</ele>
        <time>2015-06-15T19:44:53.983Z</time>
      </trkpt>
      <trkpt lat="48.91167" lon="2.29684">
        <ele>99.6</ele>
        <time>2015-06-15T19:44:54.851Z</time>
      </trkpt>
      <trkpt lat="48.91166" lon="2.29683">
        <ele>100.1</ele>
        <time>2015-06-15T19:44:55.940Z</time>
      </trkpt>
      <trkpt lat="48.91166" lon="2.29685">
        <ele>100.2</ele>
        <time>2015-06-15T19:44:57.857Z</time>
      </trkpt>
      <trkpt lat="48.91163" lon="2.29691">
        <ele>100.7</ele>
        <time>2015-06-15T19:44:58.858Z</time>
      </trkpt>
      <trkpt lat="48.91156" lon="2.29699">
        <ele>101</ele>
        <time>2015-06-15T19:45:00.952Z</time>
      </trkpt>
      <trkpt lat="48.91152" lon="2.29702">
        <ele>101.2</ele>
        <time>2015-06-15T19:45:01.840Z</time>
      </trkpt>
      <trkpt lat="48.91143" lon="2.29706">
        <ele>101.7</ele>
        <time>2015-06-15T19:45:03.874Z</time>
      </trkpt>
      <trkpt lat="48.91139" lon="2.29709">
        <ele>102.4</ele>
        <time>2015-06-15T19:45:04.907Z</time>
      </trkpt>
      <trkpt lat="48.91135" lon="2.29713">
        <ele>102.6</ele>
        <time>2015-06-15T19:45:05.953Z</time>
      </trkpt>
      <trkpt lat="48.9113" lon="2.29717">
        <ele>103.1</ele>
        <time>2015-06-15T19:45:06.843Z</time>
      </trkpt>
      <trkpt lat="48.91125" lon="2.2972">
        <ele>103.2</ele>
        <time>2015-06-15T19:45:07.856Z</time>
      </trkpt>
      <trkpt lat="48.91121" lon="2.29724">
        <ele>103.4</ele>
        <time>2015-06-15T19:45:08.937Z</time>
      </trkpt>
      <trkpt lat="48.91116" lon="2.29728">
        <ele>103.4</ele>
        <time>2015-06-15T19:45:09.854Z</time>
      </trkpt>
      <trkpt lat="48.91111" lon="2.2973">
        <ele>103.4</ele>
        <time>2015-06-15T19:45:10.855Z</time>
      </trkpt>
      <trkpt lat="48.91106" lon="2.29733">
        <ele>103.5</ele>
        <time>2015-06-15T19:45:11.883Z</time>
      </trkpt>
      <trkpt lat="48.91102" lon="2.29736">
        <ele>103.3</ele>
        <time>2015-06-15T19:45:12.888Z</time>
      </trkpt>
      <trkpt lat="48.91097" lon="2.29739">
        <ele>102.9</ele>
        <time>2015-06-15T19:45:13.907Z</time>
      </trkpt>
      <trkpt lat="48.91093" lon="2.29741">
        <ele>102.6</ele>
        <time>2015-06-15T19:45:14.913Z</time>
      </trkpt>
      <trkpt lat="48.91086" lon="2.29746">
        <ele>101.6</ele>
        <time>2015-06-15T19:45:16.853Z</time>
      </trkpt>
      <trkpt lat="48.91084" lon="2.29749">
        <ele>100.5</ele>
        <time>2015-06-15T19:45:17.857Z</time>
      </trkpt>
      <trkpt lat="48.91078" lon="2.29757">
        <ele>99.3</ele>
        <time>2015-06-15T19:45:20.910Z</time>
      </trkpt>
      <trkpt lat="48.91077" lon="2.29761">
        <ele>99.1</ele>
        <time>2015-06-15T19:45:21.813Z</time>
      </trkpt>
      <trkpt lat="48.91077" lon="2.29772">
        <ele>98.3</ele>
        <time>2015-06-15T19:45:23.820Z</time>
      </trkpt>
      <trkpt lat="48.91078" lon="2.29777">
        <ele>97.8</ele>
        <time>2015-06-15T19:45:24.876Z</time>
      </trkpt>
      <trkpt lat="48.91081" lon="2.29787">
        <ele>97.2</ele>
        <time>2015-06-15T19:45:27.638Z</time>
      </trkpt>
      <trkpt lat="48.91083" lon="2.29792">
        <ele>96.9</ele>
        <time>2015-06-15T19:45:27.845Z</time>
      </trkpt>
      <trkpt lat="48.91087" lon="2.29802">
        <ele>95.9</ele>
        <time>2015-06-15T19:45:29.973Z</time>
      </trkpt>
      <trkpt lat="48.91089" lon="2.29806">
        <ele>95.8</ele>
        <time>2015-06-15T19:45:30.831Z</time>
      </trkpt>
      <trkpt lat="48.91095" lon="2.29815">
        <ele>95.3</ele>
        <time>2015-06-15T19:45:32.882Z</time>
      </trkpt>
      <trkpt lat="48.91097" lon="2.2982">
        <ele>95.2</ele>
        <time>2015-06-15T19:45:33.888Z</time>
      </trkpt>
      <trkpt lat="48.91103" lon="2.2983">
        <ele>95.2</ele>
        <time>2015-06-15T19:45:35.907Z</time>
      </trkpt>
      <trkpt lat="48.91104" lon="2.29836">
        <ele>95.5</ele>
        <time>2015-06-15T19:45:36.975Z</time>
      </trkpt>
      <trkpt lat="48.91107" lon="2.29847">
        <ele>96.5</ele>
        <time>2015-06-15T19:45:39.892Z</time>
      </trkpt>
      <trkpt lat="48.91108" lon="2.29849">
        <ele>97</ele>
        <time>2015-06-15T19:45:40.911Z</time>
      </trkpt>
      <trkpt lat="48.91111" lon="2.29858">
        <ele>97.3</ele>
        <time>2015-06-15T19:45:44.154Z</time>
      </trkpt>
      <trkpt lat="48.91113" lon="2.29861">
        <ele>97.5</ele>
        <time>2015-06-15T19:45:44.956Z</time>
      </trkpt>
      <trkpt lat="48.91115" lon="2.29873">
        <ele>97.6</ele>
        <time>2015-06-15T19:45:47.879Z</time>
      </trkpt>
      <trkpt lat="48.91117" lon="2.29877">
        <ele>97.5</ele>
        <time>2015-06-15T19:45:48.907Z</time>
      </trkpt>
      <trkpt lat="48.9112" lon="2.29885">
        <ele>97.1</ele>
        <time>2015-06-15T19:45:50.925Z</time>
      </trkpt>
      <trkpt lat="48.91122" lon="2.29889">
        <ele>97.2</ele>
        <time>2015-06-15T19:45:51.907Z</time>
      </trkpt>
      <trkpt lat="48.91127" lon="2.29898">
        <ele>97.8</ele>
        <time>2015-06-15T19:45:54.577Z</time>
      </trkpt>
      <trkpt lat="48.91129" lon="2.29902">
        <ele>97.8</ele>
        <time>2015-06-15T19:45:54.849Z</time>
      </trkpt>
      <trkpt lat="48.91134" lon="2.29913">
        <ele>98.4</ele>
        <time>2015-06-15T19:45:56.954Z</time>
      </trkpt>
      <trkpt lat="48.91136" lon="2.29918">
        <ele>98.4</ele>
        <time>2015-06-15T19:45:57.844Z</time>
      </trkpt>
      <trkpt lat="48.91138" lon="2.29925">
        <ele>98.5</ele>
        <time>2015-06-15T19:45:58.879Z</time>
      </trkpt>
      <trkpt lat="48.91141" lon="2.29931">
        <ele>99</ele>
        <time>2015-06-15T19:45:59.907Z</time>
      </trkpt>
      <trkpt lat="48.91144" lon="2.29938">
        <ele>99.1</ele>
        <time>2015-06-15T19:46:00.855Z</time>
      </trkpt>
      <trkpt lat="48.91147" lon="2.29944">
        <ele>99.5</ele>
        <time>2015-06-15T19:46:01.870Z</time>
      </trkpt>
      <trkpt lat="48.9115" lon="2.29951">
        <ele>99.6</ele>
        <time>2015-06-15T19:46:03.048Z</time>
      </trkpt>
      <trkpt lat="48.91153" lon="2.29958">
        <ele>99.7</ele>
        <time>2015-06-15T19:46:03.835Z</time>
      </trkpt>
      <trkpt lat="48.91158" lon="2.29964">
        <ele>101.3</ele>
        <time>2015-06-15T19:46:04.930Z</time>
      </trkpt>
      <trkpt lat="48.91161" lon="2.29972">
        <ele>100.8</ele>
        <time>2015-06-15T19:46:05.844Z</time>
      </trkpt>
      <trkpt lat="48.91163" lon="2.2998">
        <ele>100.3</ele>
        <time>2015-06-15T19:46:06.964Z</time>
      </trkpt>
      <trkpt lat="48.91167" lon="2.29988">
        <ele>100.3</ele>
        <time>2015-06-15T19:46:07.890Z</time>
      </trkpt>
      <trkpt lat="48.91169" lon="2.29997">
        <ele>99.8</ele>
        <time>2015-06-15T19:46:08.919Z</time>
      </trkpt>
      <trkpt lat="48.91173" lon="2.30006">
        <ele>99.5</ele>
        <time>2015-06-15T19:46:09.817Z</time>
      </trkpt>
      <trkpt lat="48.91176" lon="2.30016">
        <ele>99.1</ele>
        <time>2015-06-15T19:46:10.849Z</time>
      </trkpt>
      <trkpt lat="48.9118" lon="2.30026">
        <ele>98.5</ele>
        <time>2015-06-15T19:46:11.856Z</time>
      </trkpt>
      <trkpt lat="48.91183" lon="2.30035">
        <ele>98.3</ele>
        <time>2015-06-15T19:46:12.902Z</time>
      </trkpt>
      <trkpt lat="48.91186" lon="2.30045">
        <ele>98.1</ele>
        <time>2015-06-15T19:46:13.929Z</time>
      </trkpt>
      <trkpt lat="48.9119" lon="2.30055">
        <ele>98</ele>
        <time>2015-06-15T19:46:14.976Z</time>
      </trkpt>
      <trkpt lat="48.91193" lon="2.30064">
        <ele>97.6</ele>
        <time>2015-06-15T19:46:15.844Z</time>
      </trkpt>
      <trkpt lat="48.91195" lon="2.30074">
        <ele>97</ele>
        <time>2015-06-15T19:46:16.864Z</time>
      </trkpt>
      <trkpt lat="48.91198" lon="2.30083">
        <ele>96.6</ele>
        <time>2015-06-15T19:46:17.872Z</time>
      </trkpt>
      <trkpt lat="48.91201" lon="2.30093">
        <ele>95.9</ele>
        <time>2015-06-15T19:46:18.887Z</time>
      </trkpt>
      <trkpt lat="48.91204" lon="2.30102">
        <ele>95.4</ele>
        <time>2015-06-15T19:46:19.805Z</time>
      </trkpt>
      <trkpt lat="48.91207" lon="2.30109">
        <ele>95</ele>
        <time>2015-06-15T19:46:20.894Z</time>
      </trkpt>
      <trkpt lat="48.91209" lon="2.30117">
        <ele>94.5</ele>
        <time>2015-06-15T19:46:21.904Z</time>
      </trkpt>
      <trkpt lat="48.91211" lon="2.30126">
        <ele>94.5</ele>
        <time>2015-06-15T19:46:22.915Z</time>
      </trkpt>
      <trkpt lat="48.91213" lon="2.30134">
        <ele>94.5</ele>
        <time>2015-06-15T19:46:23.841Z</time>
      </trkpt>
      <trkpt lat="48.91216" lon="2.30142">
        <ele>94.7</ele>
        <time>2015-06-15T19:46:24.818Z</time>
      </trkpt>
      <trkpt lat="48.91219" lon="2.30151">
        <ele>94.8</ele>
        <time>2015-06-15T19:46:25.842Z</time>
      </trkpt>
      <trkpt lat="48.91222" lon="2.30158">
        <ele>94.9</ele>
        <time>2015-06-15T19:46:26.871Z</time>
      </trkpt>
      <trkpt lat="48.91225" lon="2.30166">
        <ele>94.7</ele>
        <time>2015-06-15T19:46:27.897Z</time>
      </trkpt>
      <trkpt lat="48.91229" lon="2.30173">
        <ele>94.3</ele>
        <time>2015-06-15T19:46:28.901Z</time>
      </trkpt>
      <trkpt lat="48.91232" lon="2.3018">
        <ele>94</ele>
        <time>2015-06-15T19:46:29.950Z</time>
      </trkpt>
      <trkpt lat="48.91235" lon="2.30187">
        <ele>94.1</ele>
        <time>2015-06-15T19:46:30.924Z</time>
      </trkpt>
      <trkpt lat="48.91238" lon="2.30195">
        <ele>94.1</ele>
        <time>2015-06-15T19:46:31.827Z</time>
      </trkpt>
      <trkpt lat="48.91241" lon="2.30202">
        <ele>94.3</ele>
        <time>2015-06-15T19:46:32.936Z</time>
      </trkpt>
      <trkpt lat="48.91244" lon="2.3021">
        <ele>94.9</ele>
        <time>2015-06-15T19:46:33.824Z</time>
      </trkpt>
      <trkpt lat="48.91246" lon="2.30218">
        <ele>94.8</ele>
        <time>2015-06-15T19:46:34.826Z</time>
      </trkpt>
      <trkpt lat="48.91248" lon="2.30226">
        <ele>94.7</ele>
        <time>2015-06-15T19:46:35.906Z</time>
      </trkpt>
      <trkpt lat="48.9125" lon="2.30235">
        <ele>94.2</ele>
        <time>2015-06-15T19:46:36.825Z</time>
      </trkpt>
      <trkpt lat="48.91251" lon="2.30244">
        <ele>94.2</ele>
        <time>2015-06-15T19:46:37.831Z</time>
      </trkpt>
      <trkpt lat="48.91254" lon="2.30252">
        <ele>94.5</ele>
        <time>2015-06-15T19:46:38.879Z</time>
      </trkpt>
      <trkpt lat="48.91255" lon="2.3026">
        <ele>94.7</ele>
        <time>2015-06-15T19:46:39.858Z</time>
      </trkpt>
      <trkpt lat="48.91257" lon="2.30269">
        <ele>95.4</ele>
        <time>2015-06-15T19:46:40.885Z</time>
      </trkpt>
      <trkpt lat="48.91258" lon="2.30277">
        <ele>95.8</ele>
        <time>2015-06-15T19:46:41.874Z</time>
      </trkpt>
      <trkpt lat="48.9126" lon="2.30285">
        <ele>95.8</ele>
        <time>2015-06-15T19:46:42.890Z</time>
      </trkpt>
      <trkpt lat="48.9126" lon="2.30294">
        <ele>95.6</ele>
        <time>2015-06-15T19:46:43.890Z</time>
      </trkpt>
      <trkpt lat="48.91261" lon="2.30303">
        <ele>95.7</ele>
        <time>2015-06-15T19:46:44.910Z</time>
      </trkpt>
      <trkpt lat="48.91262" lon="2.30312">
        <ele>95.3</ele>
        <time>2015-06-15T19:46:45.921Z</time>
      </trkpt>
      <trkpt lat="48.91263" lon="2.3032">
        <ele>94.7</ele>
        <time>2015-06-15T19:46:46.845Z</time>
      </trkpt>
      <trkpt lat="48.91264" lon="2.30328">
        <ele>94.4</ele>
        <time>2015-06-15T19:46:47.856Z</time>
      </trkpt>
      <trkpt lat="48.91266" lon="2.30335">
        <ele>94</ele>
        <time>2015-06-15T19:46:48.889Z</time>
      </trkpt>
      <trkpt lat="48.91266" lon="2.30343">
        <ele>94.2</ele>
        <time>2015-06-15T19:46:49.888Z</time>
      </trkpt>
      <trkpt lat="48.91267" lon="2.30351">
        <ele>94.2</ele>
        <time>2015-06-15T19:46:50.905Z</time>
      </trkpt>
      <trkpt lat="48.91269" lon="2.30359">
        <ele>94.2</ele>
        <time>2015-06-15T19:46:51.835Z</time>
      </trkpt>
      <trkpt lat="48.91271" lon="2.30368">
        <ele>94.2</ele>
        <time>2015-06-15T19:46:52.924Z</time>
      </trkpt>
      <trkpt lat="48.91272" lon="2.30375">
        <ele>94.1</ele>
        <time>2015-06-15T19:46:54.053Z</time>
      </trkpt>
      <trkpt lat="48.91274" lon="2.30384">
        <ele>94</ele>
        <time>2015-06-15T19:46:54.847Z</time>
      </trkpt>
      <trkpt lat="48.91276" lon="2.30392">
        <ele>94</ele>
        <time>2015-06-15T19:46:55.858Z</time>
      </trkpt>
      <trkpt lat="48.91277" lon="2.304">
        <ele>94.1</ele>
        <time>2015-06-15T19:46:56.899Z</time>
      </trkpt>
      <trkpt lat="48.91278" lon="2.30409">
        <ele>94.5</ele>
        <time>2015-06-15T19:46:57.920Z</time>
      </trkpt>
      <trkpt lat="48.91279" lon="2.30418">
        <ele>94.8</ele>
        <time>2015-06-15T19:46:58.854Z</time>
      </trkpt>
      <trkpt lat="48.9128" lon="2.30426">
        <ele>95.1</ele>
        <time>2015-06-15T19:46:59.860Z</time>
      </trkpt>
      <trkpt lat="48.91282" lon="2.30434">
        <ele>95.2</ele>
        <time>2015-06-15T19:47:00.873Z</time>
      </trkpt>
      <trkpt lat="48.91284" lon="2.30442">
        <ele>95.1</ele>
        <time>2015-06-15T19:47:01.882Z</time>
      </trkpt>
      <trkpt lat="48.91285" lon="2.3045">
        <ele>95</ele>
        <time>2015-06-15T19:47:03.007Z</time>
      </trkpt>
      <trkpt lat="48.91285" lon="2.30458">
        <ele>94.8</ele>
        <time>2015-06-15T19:47:03.845Z</time>
      </trkpt>
      <trkpt lat="48.91286" lon="2.30467">
        <ele>94.6</ele>
        <time>2015-06-15T19:47:04.863Z</time>
      </trkpt>
      <trkpt lat="48.91286" lon="2.30476">
        <ele>94.9</ele>
        <time>2015-06-15T19:47:05.865Z</time>
      </trkpt>
      <trkpt lat="48.91288" lon="2.30486">
        <ele>95.1</ele>
        <time>2015-06-15T19:47:06.907Z</time>
      </trkpt>
      <trkpt lat="48.91289" lon="2.30495">
        <ele>95.2</ele>
        <time>2015-06-15T19:47:07.919Z</time>
      </trkpt>
      <trkpt lat="48.9129" lon="2.30504">
        <ele>95.3</ele>
        <time>2015-06-15T19:47:08.924Z</time>
      </trkpt>
      <trkpt lat="48.91292" lon="2.30513">
        <ele>95.6</ele>
        <time>2015-06-15T19:47:09.877Z</time>
      </trkpt>
      <trkpt lat="48.91292" lon="2.3052">
        <ele>96</ele>
        <time>2015-06-15T19:47:10.908Z</time>
      </trkpt>
      <trkpt lat="48.91294" lon="2.30529">
        <ele>96.5</ele>
        <time>2015-06-15T19:47:11.910Z</time>
      </trkpt>
      <trkpt lat="48.91295" lon="2.30537">
        <ele>96.9</ele>
        <time>2015-06-15T19:47:12.928Z</time>
      </trkpt>
      <trkpt lat="48.91296" lon="2.30545">
        <ele>97.6</ele>
        <time>2015-06-15T19:47:13.936Z</time>
      </trkpt>
      <trkpt lat="48.91298" lon="2.30554">
        <ele>97.8</ele>
        <time>2015-06-15T19:47:14.965Z</time>
      </trkpt>
      <trkpt lat="48.91299" lon="2.30562">
        <ele>98.1</ele>
        <time>2015-06-15T19:47:15.845Z</time>
      </trkpt>
      <trkpt lat="48.91301" lon="2.30571">
        <ele>98.2</ele>
        <time>2015-06-15T19:47:16.851Z</time>
      </trkpt>
      <trkpt lat="48.91303" lon="2.30579">
        <ele>98.2</ele>
        <time>2015-06-15T19:47:17.849Z</time>
      </trkpt>
      <trkpt lat="48.91305" lon="2.30587">
        <ele>98.3</ele>
        <time>2015-06-15T19:47:18.865Z</time>
      </trkpt>
      <trkpt lat="48.91307" lon="2.30595">
        <ele>98.3</ele>
        <time>2015-06-15T19:47:19.902Z</time>
      </trkpt>
      <trkpt lat="48.91307" lon="2.30603">
        <ele>98</ele>
        <time>2015-06-15T19:47:20.937Z</time>
      </trkpt>
      <trkpt lat="48.91309" lon="2.30611">
        <ele>98.2</ele>
        <time>2015-06-15T19:47:21.837Z</time>
      </trkpt>
      <trkpt lat="48.91312" lon="2.30618">
        <ele>99</ele>
        <time>2015-06-15T19:47:22.856Z</time>
      </trkpt>
      <trkpt lat="48.91315" lon="2.30626">
        <ele>99.6</ele>
        <time>2015-06-15T19:47:23.890Z</time>
      </trkpt>
      <trkpt lat="48.91318" lon="2.30636">
        <ele>100.6</ele>
        <time>2015-06-15T19:47:24.906Z</time>
      </trkpt>
      <trkpt lat="48.91323" lon="2.30644">
        <ele>101</ele>
        <time>2015-06-15T19:47:25.910Z</time>
      </trkpt>
      <trkpt lat="48.91327" lon="2.30652">
        <ele>101.6</ele>
        <time>2015-06-15T19:47:26.928Z</time>
      </trkpt>
      <trkpt lat="48.9133" lon="2.30661">
        <ele>102</ele>
        <time>2015-06-15T19:47:27.848Z</time>
      </trkpt>
      <trkpt lat="48.91331" lon="2.30671">
        <ele>101.4</ele>
        <time>2015-06-15T19:47:28.847Z</time>
      </trkpt>
      <trkpt lat="48.91333" lon="2.3068">
        <ele>101.2</ele>
        <time>2015-06-15T19:47:29.857Z</time>
      </trkpt>
      <trkpt lat="48.91335" lon="2.30689">
        <ele>100.9</ele>
        <time>2015-06-15T19:47:30.874Z</time>
      </trkpt>
      <trkpt lat="48.91336" lon="2.307">
        <ele>100.8</ele>
        <time>2015-06-15T19:47:31.884Z</time>
      </trkpt>
      <trkpt lat="48.91338" lon="2.3071">
        <ele>100.6</ele>
        <time>2015-06-15T19:47:32.945Z</time>
      </trkpt>
      <trkpt lat="48.91339" lon="2.30719">
        <ele>100.5</ele>
        <time>2015-06-15T19:47:33.841Z</time>
      </trkpt>
      <trkpt lat="48.9134" lon="2.30728">
        <ele>100.2</ele>
        <time>2015-06-15T19:47:34.851Z</time>
      </trkpt>
      <trkpt lat="48.91342" lon="2.30737">
        <ele>99.9</ele>
        <time>2015-06-15T19:47:35.866Z</time>
      </trkpt>
      <trkpt lat="48.91343" lon="2.30746">
        <ele>99.8</ele>
        <time>2015-06-15T19:47:36.872Z</time>
      </trkpt>
      <trkpt lat="48.91344" lon="2.30755">
        <ele>99.8</ele>
        <time>2015-06-15T19:47:37.876Z</time>
      </trkpt>
      <trkpt lat="48.91346" lon="2.30763">
        <ele>99.9</ele>
        <time>2015-06-15T19:47:38.907Z</time>
      </trkpt>
      <trkpt lat="48.91347" lon="2.30771">
        <ele>99.6</ele>
        <time>2015-06-15T19:47:39.923Z</time>
      </trkpt>
      <trkpt lat="48.9135" lon="2.30778">
        <ele>99.3</ele>
        <time>2015-06-15T19:47:40.830Z</time>
      </trkpt>
      <trkpt lat="48.91351" lon="2.30786">
        <ele>98.9</ele>
        <time>2015-06-15T19:47:41.831Z</time>
      </trkpt>
      <trkpt lat="48.91352" lon="2.30794">
        <ele>98.2</ele>
        <time>2015-06-15T19:47:42.844Z</time>
      </trkpt>
      <trkpt lat="48.91352" lon="2.30803">
        <ele>98.2</ele>
        <time>2015-06-15T19:47:43.859Z</time>
      </trkpt>
      <trkpt lat="48.91353" lon="2.30811">
        <ele>97.8</ele>
        <time>2015-06-15T19:47:44.883Z</time>
      </trkpt>
      <trkpt lat="48.91355" lon="2.3082">
        <ele>97.3</ele>
        <time>2015-06-15T19:47:45.899Z</time>
      </trkpt>
      <trkpt lat="48.91355" lon="2.30829">
        <ele>97.1</ele>
        <time>2015-06-15T19:47:46.916Z</time>
      </trkpt>
      <trkpt lat="48.91354" lon="2.30838">
        <ele>97.2</ele>
        <time>2015-06-15T19:47:47.839Z</time>
      </trkpt>
      <trkpt lat="48.91355" lon="2.30847">
        <ele>97.5</ele>
        <time>2015-06-15T19:47:48.841Z</time>
      </trkpt>
      <trkpt lat="48.91355" lon="2.30857">
        <ele>97.6</ele>
        <time>2015-06-15T19:47:49.849Z</time>
      </trkpt>
      <trkpt lat="48.91357" lon="2.30865">
        <ele>97.4</ele>
        <time>2015-06-15T19:47:50.890Z</time>
      </trkpt>
      <trkpt lat="48.91361" lon="2.30875">
        <ele>96.9</ele>
        <time>2015-06-15T19:47:51.884Z</time>
      </trkpt>
      <trkpt lat="48.91362" lon="2.30885">
        <ele>96.5</ele>
        <time>2015-06-15T19:47:52.902Z</time>
      </trkpt>
      <trkpt lat="48.91362" lon="2.30895">
        <ele>95.9</ele>
        <time>2015-06-15T19:47:53.841Z</time>
      </trkpt>
      <trkpt lat="48.91364" lon="2.30903">
        <ele>95.3</ele>
        <time>2015-06-15T19:47:54.839Z</time>
      </trkpt>
      <trkpt lat="48.91365" lon="2.30912">
        <ele>94.4</ele>
        <time>2015-06-15T19:47:55.848Z</time>
      </trkpt>
      <trkpt lat="48.91366" lon="2.30921">
        <ele>93.7</ele>
        <time>2015-06-15T19:47:56.906Z</time>
      </trkpt>
      <trkpt lat="48.91366" lon="2.30932">
        <ele>93.1</ele>
        <time>2015-06-15T19:47:57.912Z</time>
      </trkpt>
      <trkpt lat="48.91368" lon="2.30942">
        <ele>92.3</ele>
        <time>2015-06-15T19:47:58.927Z</time>
      </trkpt>
      <trkpt lat="48.9137" lon="2.30951">
        <ele>92</ele>
        <time>2015-06-15T19:47:59.937Z</time>
      </trkpt>
      <trkpt lat="48.91372" lon="2.30962">
        <ele>91.8</ele>
        <time>2015-06-15T19:48:00.877Z</time>
      </trkpt>
      <trkpt lat="48.91373" lon="2.30972">
        <ele>91.2</ele>
        <time>2015-06-15T19:48:01.878Z</time>
      </trkpt>
      <trkpt lat="48.91375" lon="2.30982">
        <ele>90.9</ele>
        <time>2015-06-15T19:48:02.941Z</time>
      </trkpt>
      <trkpt lat="48.91377" lon="2.30991">
        <ele>90.3</ele>
        <time>2015-06-15T19:48:03.879Z</time>
      </trkpt>
      <trkpt lat="48.9138" lon="2.31">
        <ele>89.9</ele>
        <time>2015-06-15T19:48:04.916Z</time>
      </trkpt>
      <trkpt lat="48.91383" lon="2.31008">
        <ele>89.9</ele>
        <time>2015-06-15T19:48:05.842Z</time>
      </trkpt>
      <trkpt lat="48.91386" lon="2.31016">
        <ele>89.3</ele>
        <time>2015-06-15T19:48:06.910Z</time>
      </trkpt>
      <trkpt lat="48.91388" lon="2.31024">
        <ele>89.4</ele>
        <time>2015-06-15T19:48:07.819Z</time>
      </trkpt>
      <trkpt lat="48.9139" lon="2.31033">
        <ele>89.3</ele>
        <time>2015-06-15T19:48:08.882Z</time>
      </trkpt>
      <trkpt lat="48.91391" lon="2.31042">
        <ele>89</ele>
        <time>2015-06-15T19:48:09.896Z</time>
      </trkpt>
      <trkpt lat="48.91391" lon="2.31052">
        <ele>88.8</ele>
        <time>2015-06-15T19:48:10.810Z</time>
      </trkpt>
      <trkpt lat="48.91392" lon="2.31061">
        <ele>88.6</ele>
        <time>2015-06-15T19:48:11.864Z</time>
      </trkpt>
      <trkpt lat="48.91394" lon="2.3107">
        <ele>88.4</ele>
        <time>2015-06-15T19:48:12.866Z</time>
      </trkpt>
      <trkpt lat="48.91397" lon="2.31077">
        <ele>88</ele>
        <time>2015-06-15T19:48:13.907Z</time>
      </trkpt>
      <trkpt lat="48.91399" lon="2.31086">
        <ele>88.4</ele>
        <time>2015-06-15T19:48:14.939Z</time>
      </trkpt>
      <trkpt lat="48.91402" lon="2.31095">
        <ele>88</ele>
        <time>2015-06-15T19:48:15.839Z</time>
      </trkpt>
      <trkpt lat="48.91406" lon="2.31102">
        <ele>87.8</ele>
        <time>2015-06-15T19:48:17.058Z</time>
      </trkpt>
      <trkpt lat="48.91409" lon="2.3111">
        <ele>87.4</ele>
        <time>2015-06-15T19:48:17.881Z</time>
      </trkpt>
      <trkpt lat="48.91413" lon="2.31118">
        <ele>87.3</ele>
        <time>2015-06-15T19:48:18.899Z</time>
      </trkpt>
      <trkpt lat="48.91416" lon="2.31126">
        <ele>87</ele>
        <time>2015-06-15T19:48:19.918Z</time>
      </trkpt>
      <trkpt lat="48.91419" lon="2.31135">
        <ele>86.5</ele>
        <time>2015-06-15T19:48:20.940Z</time>
      </trkpt>
      <trkpt lat="48.91422" lon="2.31143">
        <ele>86.2</ele>
        <time>2015-06-15T19:48:21.842Z</time>
      </trkpt>
      <trkpt lat="48.91425" lon="2.31151">
        <ele>85.3</ele>
        <time>2015-06-15T19:48:22.849Z</time>
      </trkpt>
      <trkpt lat="48.91429" lon="2.31159">
        <ele>84.8</ele>
        <time>2015-06-15T19:48:23.856Z</time>
      </trkpt>
      <trkpt lat="48.91433" lon="2.31166">
        <ele>84</ele>
        <time>2015-06-15T19:48:24.879Z</time>
      </trkpt>
      <trkpt lat="48.91436" lon="2.31174">
        <ele>83.9</ele>
        <time>2015-06-15T19:48:25.900Z</time>
      </trkpt>
      <trkpt lat="48.91439" lon="2.31183">
        <ele>83.7</ele>
        <time>2015-06-15T19:48:26.991Z</time>
      </trkpt>
      <trkpt lat="48.91442" lon="2.31192">
        <ele>84</ele>
        <time>2015-06-15T19:48:27.887Z</time>
      </trkpt>
      <trkpt lat="48.91444" lon="2.31201">
        <ele>83.9</ele>
        <time>2015-06-15T19:48:28.880Z</time>
      </trkpt>
      <trkpt lat="48.91448" lon="2.3121">
        <ele>83.9</ele>
        <time>2015-06-15T19:48:29.887Z</time>
      </trkpt>
      <trkpt lat="48.91452" lon="2.31218">
        <ele>84.2</ele>
        <time>2015-06-15T19:48:30.901Z</time>
      </trkpt>
      <trkpt lat="48.91456" lon="2.31226">
        <ele>84.4</ele>
        <time>2015-06-15T19:48:31.914Z</time>
      </trkpt>
      <trkpt lat="48.91458" lon="2.31235">
        <ele>84.5</ele>
        <time>2015-06-15T19:48:32.924Z</time>
      </trkpt>
      <trkpt lat="48.91462" lon="2.31242">
        <ele>84.1</ele>
        <time>2015-06-15T19:48:33.929Z</time>
      </trkpt>
      <trkpt lat="48.91465" lon="2.31249">
        <ele>83.7</ele>
        <time>2015-06-15T19:48:34.875Z</time>
      </trkpt>
      <trkpt lat="48.91466" lon="2.31257">
        <ele>83.6</ele>
        <time>2015-06-15T19:48:35.881Z</time>
      </trkpt>
      <trkpt lat="48.91468" lon="2.31265">
        <ele>83.4</ele>
        <time>2015-06-15T19:48:36.840Z</time>
      </trkpt>
      <trkpt lat="48.91471" lon="2.31273">
        <ele>83.5</ele>
        <time>2015-06-15T19:48:37.845Z</time>
      </trkpt>
      <trkpt lat="48.91473" lon="2.31283">
        <ele>83.2</ele>
        <time>2015-06-15T19:48:38.890Z</time>
      </trkpt>
      <trkpt lat="48.91476" lon="2.31291">
        <ele>83.5</ele>
        <time>2015-06-15T19:48:39.887Z</time>
      </trkpt>
      <trkpt lat="48.91478" lon="2.313">
        <ele>83.9</ele>
        <time>2015-06-15T19:48:40.907Z</time>
      </trkpt>
      <trkpt lat="48.91482" lon="2.31308">
        <ele>84</ele>
        <time>2015-06-15T19:48:41.914Z</time>
      </trkpt>
      <trkpt lat="48.91486" lon="2.31317">
        <ele>84.1</ele>
        <time>2015-06-15T19:48:42.801Z</time>
      </trkpt>
      <trkpt lat="48.91488" lon="2.31326">
        <ele>84.1</ele>
        <time>2015-06-15T19:48:43.844Z</time>
      </trkpt>
      <trkpt lat="48.9149" lon="2.31336">
        <ele>83.8</ele>
        <time>2015-06-15T19:48:44.894Z</time>
      </trkpt>
      <trkpt lat="48.91492" lon="2.31346">
        <ele>83.6</ele>
        <time>2015-06-15T19:48:45.808Z</time>
      </trkpt>
      <trkpt lat="48.91494" lon="2.31355">
        <ele>83.7</ele>
        <time>2015-06-15T19:48:46.875Z</time>
      </trkpt>
      <trkpt lat="48.91497" lon="2.31363">
        <ele>83.5</ele>
        <time>2015-06-15T19:48:47.841Z</time>
      </trkpt>
      <trkpt lat="48.915" lon="2.31371">
        <ele>83.3</ele>
        <time>2015-06-15T19:48:48.857Z</time>
      </trkpt>
      <trkpt lat="48.91502" lon="2.31379">
        <ele>83.4</ele>
        <time>2015-06-15T19:48:49.866Z</time>
      </trkpt>
      <trkpt lat="48.91505" lon="2.31386">
        <ele>83.6</ele>
        <time>2015-06-15T19:48:50.906Z</time>
      </trkpt>
      <trkpt lat="48.91507" lon="2.31393">
        <ele>83.4</ele>
        <time>2015-06-15T19:48:51.920Z</time>
      </trkpt>
      <trkpt lat="48.91509" lon="2.314">
        <ele>83.6</ele>
        <time>2015-06-15T19:48:52.900Z</time>
      </trkpt>
      <trkpt lat="48.91511" lon="2.31407">
        <ele>83.8</ele>
        <time>2015-06-15T19:48:53.919Z</time>
      </trkpt>
      <trkpt lat="48.91513" lon="2.31414">
        <ele>84.2</ele>
        <time>2015-06-15T19:48:54.925Z</time>
      </trkpt>
      <trkpt lat="48.91516" lon="2.31421">
        <ele>84.5</ele>
        <time>2015-06-15T19:48:55.944Z</time>
      </trkpt>
      <trkpt lat="48.91519" lon="2.31428">
        <ele>84.2</ele>
        <time>2015-06-15T19:48:56.958Z</time>
      </trkpt>
      <trkpt lat="48.91522" lon="2.31436">
        <ele>84.1</ele>
        <time>2015-06-15T19:48:57.871Z</time>
      </trkpt>
      <trkpt lat="48.91526" lon="2.31443">
        <ele>84.1</ele>
        <time>2015-06-15T19:48:58.890Z</time>
      </trkpt>
      <trkpt lat="48.91529" lon="2.3145">
        <ele>84.2</ele>
        <time>2015-06-15T19:48:59.879Z</time>
      </trkpt>
      <trkpt lat="48.91532" lon="2.31457">
        <ele>84.2</ele>
        <time>2015-06-15T19:49:00.905Z</time>
      </trkpt>
      <trkpt lat="48.91535" lon="2.31464">
        <ele>85</ele>
        <time>2015-06-15T19:49:01.895Z</time>
      </trkpt>
      <trkpt lat="48.91538" lon="2.31471">
        <ele>85.3</ele>
        <time>2015-06-15T19:49:02.909Z</time>
      </trkpt>
      <trkpt lat="48.9154" lon="2.31478">
        <ele>85.1</ele>
        <time>2015-06-15T19:49:03.923Z</time>
      </trkpt>
      <trkpt lat="48.91542" lon="2.31485">
        <ele>84.8</ele>
        <time>2015-06-15T19:49:04.929Z</time>
      </trkpt>
      <trkpt lat="48.91544" lon="2.31493">
        <ele>84.9</ele>
        <time>2015-06-15T19:49:05.846Z</time>
      </trkpt>
      <trkpt lat="48.91546" lon="2.315">
        <ele>85</ele>
        <time>2015-06-15T19:49:06.861Z</time>
      </trkpt>
      <trkpt lat="48.91548" lon="2.31507">
        <ele>85</ele>
        <time>2015-06-15T19:49:07.850Z</time>
      </trkpt>
      <trkpt lat="48.91549" lon="2.31514">
        <ele>85.3</ele>
        <time>2015-06-15T19:49:08.906Z</time>
      </trkpt>
      <trkpt lat="48.9155" lon="2.31522">
        <ele>85.2</ele>
        <time>2015-06-15T19:49:09.893Z</time>
      </trkpt>
      <trkpt lat="48.91552" lon="2.31529">
        <ele>85</ele>
        <time>2015-06-15T19:49:10.899Z</time>
      </trkpt>
      <trkpt lat="48.91553" lon="2.31536">
        <ele>85</ele>
        <time>2015-06-15T19:49:11.912Z</time>
      </trkpt>
      <trkpt lat="48.91555" lon="2.31544">
        <ele>85.3</ele>
        <time>2015-06-15T19:49:12.909Z</time>
      </trkpt>
      <trkpt lat="48.91559" lon="2.3155">
        <ele>86.6</ele>
        <time>2015-06-15T19:49:13.919Z</time>
      </trkpt>
      <trkpt lat="48.91564" lon="2.31556">
        <ele>88.2</ele>
        <time>2015-06-15T19:49:14.945Z</time>
      </trkpt>
      <trkpt lat="48.91567" lon="2.31564">
        <ele>88.4</ele>
        <time>2015-06-15T19:49:15.856Z</time>
      </trkpt>
      <trkpt lat="48.9157" lon="2.31571">
        <ele>89.5</ele>
        <time>2015-06-15T19:49:16.868Z</time>
      </trkpt>
      <trkpt lat="48.91573" lon="2.31579">
        <ele>90.1</ele>
        <time>2015-06-15T19:49:17.876Z</time>
      </trkpt>
      <trkpt lat="48.91575" lon="2.31586">
        <ele>90.3</ele>
        <time>2015-06-15T19:49:18.901Z</time>
      </trkpt>
      <trkpt lat="48.91579" lon="2.31593">
        <ele>91.4</ele>
        <time>2015-06-15T19:49:19.915Z</time>
      </trkpt>
      <trkpt lat="48.91582" lon="2.316">
        <ele>92</ele>
        <time>2015-06-15T19:49:20.923Z</time>
      </trkpt>
      <trkpt lat="48.91585" lon="2.31608">
        <ele>92.6</ele>
        <time>2015-06-15T19:49:21.834Z</time>
      </trkpt>
      <trkpt lat="48.91587" lon="2.31616">
        <ele>93.5</ele>
        <time>2015-06-15T19:49:22.880Z</time>
      </trkpt>
      <trkpt lat="48.91589" lon="2.31624">
        <ele>93.9</ele>
        <time>2015-06-15T19:49:23.892Z</time>
      </trkpt>
      <trkpt lat="48.9159" lon="2.31632">
        <ele>94.2</ele>
        <time>2015-06-15T19:49:24.905Z</time>
      </trkpt>
      <trkpt lat="48.91591" lon="2.3164">
        <ele>94.5</ele>
        <time>2015-06-15T19:49:25.911Z</time>
      </trkpt>
      <trkpt lat="48.91593" lon="2.31649">
        <ele>95.5</ele>
        <time>2015-06-15T19:49:26.958Z</time>
      </trkpt>
      <trkpt lat="48.91594" lon="2.31659">
        <ele>96.1</ele>
        <time>2015-06-15T19:49:27.860Z</time>
      </trkpt>
      <trkpt lat="48.91593" lon="2.31669">
        <ele>96.5</ele>
        <time>2015-06-15T19:49:28.854Z</time>
      </trkpt>
      <trkpt lat="48.91593" lon="2.31676">
        <ele>95.9</ele>
        <time>2015-06-15T19:49:29.871Z</time>
      </trkpt>
      <trkpt lat="48.91594" lon="2.31684">
        <ele>96</ele>
        <time>2015-06-15T19:49:30.877Z</time>
      </trkpt>
      <trkpt lat="48.91595" lon="2.31692">
        <ele>96</ele>
        <time>2015-06-15T19:49:31.904Z</time>
      </trkpt>
      <trkpt lat="48.91597" lon="2.31701">
        <ele>95.6</ele>
        <time>2015-06-15T19:49:32.915Z</time>
      </trkpt>
      <trkpt lat="48.916" lon="2.31709">
        <ele>95.2</ele>
        <time>2015-06-15T19:49:33.922Z</time>
      </trkpt>
      <trkpt lat="48.91604" lon="2.31716">
        <ele>94.3</ele>
        <time>2015-06-15T19:49:34.853Z</time>
      </trkpt>
      <trkpt lat="48.91608" lon="2.31724">
        <ele>94.2</ele>
        <time>2015-06-15T19:49:35.871Z</time>
      </trkpt>
      <trkpt lat="48.91612" lon="2.31731">
        <ele>94.2</ele>
        <time>2015-06-15T19:49:36.884Z</time>
      </trkpt>
      <trkpt lat="48.91615" lon="2.31739">
        <ele>94.1</ele>
        <time>2015-06-15T19:49:37.894Z</time>
      </trkpt>
      <trkpt lat="48.91618" lon="2.31747">
        <ele>94.1</ele>
        <time>2015-06-15T19:49:38.904Z</time>
      </trkpt>
      <trkpt lat="48.91621" lon="2.31754">
        <ele>94</ele>
        <time>2015-06-15T19:49:39.910Z</time>
      </trkpt>
      <trkpt lat="48.91625" lon="2.31763">
        <ele>94.8</ele>
        <time>2015-06-15T19:49:40.911Z</time>
      </trkpt>
      <trkpt lat="48.91627" lon="2.31771">
        <ele>95</ele>
        <time>2015-06-15T19:49:41.969Z</time>
      </trkpt>
      <trkpt lat="48.91631" lon="2.31778">
        <ele>95.3</ele>
        <time>2015-06-15T19:49:42.822Z</time>
      </trkpt>
      <trkpt lat="48.91634" lon="2.31785">
        <ele>96</ele>
        <time>2015-06-15T19:49:43.860Z</time>
      </trkpt>
      <trkpt lat="48.91637" lon="2.31792">
        <ele>95.9</ele>
        <time>2015-06-15T19:49:44.915Z</time>
      </trkpt>
      <trkpt lat="48.9164" lon="2.31799">
        <ele>96</ele>
        <time>2015-06-15T19:49:45.844Z</time>
      </trkpt>
      <trkpt lat="48.91643" lon="2.31807">
        <ele>96.8</ele>
        <time>2015-06-15T19:49:46.849Z</time>
      </trkpt>
      <trkpt lat="48.91647" lon="2.31813">
        <ele>96.9</ele>
        <time>2015-06-15T19:49:47.852Z</time>
      </trkpt>
      <trkpt lat="48.91652" lon="2.3182">
        <ele>98.2</ele>
        <time>2015-06-15T19:49:48.875Z</time>
      </trkpt>
      <trkpt lat="48.91656" lon="2.31827">
        <ele>99.3</ele>
        <time>2015-06-15T19:49:49.886Z</time>
      </trkpt>
      <trkpt lat="48.9166" lon="2.31834">
        <ele>99.9</ele>
        <time>2015-06-15T19:49:50.910Z</time>
      </trkpt>
      <trkpt lat="48.91662" lon="2.31841">
        <ele>99.5</ele>
        <time>2015-06-15T19:49:51.911Z</time>
      </trkpt>
      <trkpt lat="48.91666" lon="2.31847">
        <ele>99.8</ele>
        <time>2015-06-15T19:49:52.925Z</time>
      </trkpt>
      <trkpt lat="48.91669" lon="2.31854">
        <ele>99.9</ele>
        <time>2015-06-15T19:49:53.924Z</time>
      </trkpt>
      <trkpt lat="48.91673" lon="2.31861">
        <ele>99.4</ele>
        <time>2015-06-15T19:49:54.932Z</time>
      </trkpt>
      <trkpt lat="48.91676" lon="2.31867">
        <ele>99.3</ele>
        <time>2015-06-15T19:49:55.855Z</time>
      </trkpt>
      <trkpt lat="48.9168" lon="2.31873">
        <ele>99.6</ele>
        <time>2015-06-15T19:49:56.943Z</time>
      </trkpt>
      <trkpt lat="48.91683" lon="2.31879">
        <ele>99.6</ele>
        <time>2015-06-15T19:49:57.854Z</time>
      </trkpt>
      <trkpt lat="48.91687" lon="2.31885">
        <ele>99.4</ele>
        <time>2015-06-15T19:49:58.861Z</time>
      </trkpt>
      <trkpt lat="48.9169" lon="2.31891">
        <ele>99.3</ele>
        <time>2015-06-15T19:49:59.871Z</time>
      </trkpt>
      <trkpt lat="48.91694" lon="2.31897">
        <ele>99</ele>
        <time>2015-06-15T19:50:00.921Z</time>
      </trkpt>
      <trkpt lat="48.91698" lon="2.31903">
        <ele>99.4</ele>
        <time>2015-06-15T19:50:01.827Z</time>
      </trkpt>
      <trkpt lat="48.91702" lon="2.31909">
        <ele>99.7</ele>
        <time>2015-06-15T19:50:02.946Z</time>
      </trkpt>
      <trkpt lat="48.91705" lon="2.31915">
        <ele>100.1</ele>
        <time>2015-06-15T19:50:03.860Z</time>
      </trkpt>
      <trkpt lat="48.91708" lon="2.31921">
        <ele>100.4</ele>
        <time>2015-06-15T19:50:04.866Z</time>
      </trkpt>
      <trkpt lat="48.91711" lon="2.31928">
        <ele>101</ele>
        <time>2015-06-15T19:50:05.934Z</time>
      </trkpt>
      <trkpt lat="48.91714" lon="2.31933">
        <ele>101.1</ele>
        <time>2015-06-15T19:50:06.859Z</time>
      </trkpt>
      <trkpt lat="48.91718" lon="2.31939">
        <ele>101.5</ele>
        <time>2015-06-15T19:50:07.860Z</time>
      </trkpt>
      <trkpt lat="48.91723" lon="2.31944">
        <ele>102.1</ele>
        <time>2015-06-15T19:50:08.939Z</time>
      </trkpt>
      <trkpt lat="48.91727" lon="2.31949">
        <ele>102.9</ele>
        <time>2015-06-15T19:50:09.883Z</time>
      </trkpt>
      <trkpt lat="48.9173" lon="2.31954">
        <ele>103.2</ele>
        <time>2015-06-15T19:50:10.935Z</time>
      </trkpt>
      <trkpt lat="48.91735" lon="2.31959">
        <ele>103.4</ele>
        <time>2015-06-15T19:50:11.842Z</time>
      </trkpt>
      <trkpt lat="48.91739" lon="2.31965">
        <ele>103.6</ele>
        <time>2015-06-15T19:50:12.876Z</time>
      </trkpt>
      <trkpt lat="48.91742" lon="2.31969">
        <ele>103.5</ele>
        <time>2015-06-15T19:50:13.886Z</time>
      </trkpt>
      <trkpt lat="48.91747" lon="2.3198">
        <ele>102.7</ele>
        <time>2015-06-15T19:50:15.891Z</time>
      </trkpt>
      <trkpt lat="48.91749" lon="2.31985">
        <ele>102</ele>
        <time>2015-06-15T19:50:16.922Z</time>
      </trkpt>
      <trkpt lat="48.91755" lon="2.31995">
        <ele>100.2</ele>
        <time>2015-06-15T19:50:18.886Z</time>
      </trkpt>
      <trkpt lat="48.91758" lon="2.32">
        <ele>99.3</ele>
        <time>2015-06-15T19:50:19.918Z</time>
      </trkpt>
      <trkpt lat="48.91763" lon="2.3201">
        <ele>97.5</ele>
        <time>2015-06-15T19:50:21.862Z</time>
      </trkpt>
      <trkpt lat="48.91767" lon="2.32014">
        <ele>96.9</ele>
        <time>2015-06-15T19:50:22.866Z</time>
      </trkpt>
      <trkpt lat="48.91771" lon="2.32018">
        <ele>96.5</ele>
        <time>2015-06-15T19:50:23.834Z</time>
      </trkpt>
      <trkpt lat="48.91775" lon="2.32022">
        <ele>96.3</ele>
        <time>2015-06-15T19:50:24.803Z</time>
      </trkpt>
      <trkpt lat="48.91779" lon="2.32026">
        <ele>95.8</ele>
        <time>2015-06-15T19:50:26.055Z</time>
      </trkpt>
      <trkpt lat="48.91784" lon="2.32029">
        <ele>95.3</ele>
        <time>2015-06-15T19:50:26.931Z</time>
      </trkpt>
      <trkpt lat="48.91789" lon="2.32033">
        <ele>95.1</ele>
        <time>2015-06-15T19:50:27.849Z</time>
      </trkpt>
      <trkpt lat="48.91793" lon="2.32037">
        <ele>94.5</ele>
        <time>2015-06-15T19:50:28.848Z</time>
      </trkpt>
      <trkpt lat="48.918" lon="2.32045">
        <ele>94.2</ele>
        <time>2015-06-15T19:50:30.909Z</time>
      </trkpt>
      <trkpt lat="48.91803" lon="2.32049">
        <ele>94</ele>
        <time>2015-06-15T19:50:31.921Z</time>
      </trkpt>
      <trkpt lat="48.91807" lon="2.32053">
        <ele>93.4</ele>
        <time>2015-06-15T19:50:32.961Z</time>
      </trkpt>
      <trkpt lat="48.91811" lon="2.32057">
        <ele>92.7</ele>
        <time>2015-06-15T19:50:33.855Z</time>
      </trkpt>
      <trkpt lat="48.91815" lon="2.3206">
        <ele>91.9</ele>
        <time>2015-06-15T19:50:34.897Z</time>
      </trkpt>
      <trkpt lat="48.91819" lon="2.32064">
        <ele>91.3</ele>
        <time>2015-06-15T19:50:35.904Z</time>
      </trkpt>
      <trkpt lat="48.91824" lon="2.32068">
        <ele>90.7</ele>
        <time>2015-06-15T19:50:36.912Z</time>
      </trkpt>
      <trkpt lat="48.91827" lon="2.32071">
        <ele>90.3</ele>
        <time>2015-06-15T19:50:37.921Z</time>
      </trkpt>
      <trkpt lat="48.91831" lon="2.32075">
        <ele>89.6</ele>
        <time>2015-06-15T19:50:38.949Z</time>
      </trkpt>
      <trkpt lat="48.91835" lon="2.32078">
        <ele>89.1</ele>
        <time>2015-06-15T19:50:39.870Z</time>
      </trkpt>
      <trkpt lat="48.91839" lon="2.32081">
        <ele>88.7</ele>
        <time>2015-06-15T19:50:40.882Z</time>
      </trkpt>
      <trkpt lat="48.91843" lon="2.32085">
        <ele>88.3</ele>
        <time>2015-06-15T19:50:41.914Z</time>
      </trkpt>
      <trkpt lat="48.91851" lon="2.32093">
        <ele>87.5</ele>
        <time>2015-06-15T19:50:43.940Z</time>
      </trkpt>
      <trkpt lat="48.91854" lon="2.32097">
        <ele>87.2</ele>
        <time>2015-06-15T19:50:44.973Z</time>
      </trkpt>
      <trkpt lat="48.91861" lon="2.32104">
        <ele>86.8</ele>
        <time>2015-06-15T19:50:46.868Z</time>
      </trkpt>
      <trkpt lat="48.91864" lon="2.32108">
        <ele>86.3</ele>
        <time>2015-06-15T19:50:47.917Z</time>
      </trkpt>
      <trkpt lat="48.91869" lon="2.32112">
        <ele>86.1</ele>
        <time>2015-06-15T19:50:48.848Z</time>
      </trkpt>
      <trkpt lat="48.91873" lon="2.32115">
        <ele>86</ele>
        <time>2015-06-15T19:50:50.062Z</time>
      </trkpt>
      <trkpt lat="48.9188" lon="2.32122">
        <ele>86</ele>
        <time>2015-06-15T19:50:51.901Z</time>
      </trkpt>
      <trkpt lat="48.91884" lon="2.32126">
        <ele>86.1</ele>
        <time>2015-06-15T19:50:52.895Z</time>
      </trkpt>
      <trkpt lat="48.91889" lon="2.32129">
        <ele>86.5</ele>
        <time>2015-06-15T19:50:53.851Z</time>
      </trkpt>
      <trkpt lat="48.91892" lon="2.32132">
        <ele>86.4</ele>
        <time>2015-06-15T19:50:54.857Z</time>
      </trkpt>
      <trkpt lat="48.91899" lon="2.3214">
        <ele>86.5</ele>
        <time>2015-06-15T19:50:56.943Z</time>
      </trkpt>
      <trkpt lat="48.91902" lon="2.32144">
        <ele>86.3</ele>
        <time>2015-06-15T19:50:57.932Z</time>
      </trkpt>
      <trkpt lat="48.91906" lon="2.32148">
        <ele>86</ele>
        <time>2015-06-15T19:50:58.897Z</time>
      </trkpt>
      <trkpt lat="48.9191" lon="2.32152">
        <ele>85.9</ele>
        <time>2015-06-15T19:50:59.904Z</time>
      </trkpt>
      <trkpt lat="48.91914" lon="2.32156">
        <ele>85.7</ele>
        <time>2015-06-15T19:51:00.906Z</time>
      </trkpt>
      <trkpt lat="48.91919" lon="2.32159">
        <ele>85</ele>
        <time>2015-06-15T19:51:01.920Z</time>
      </trkpt>
      <trkpt lat="48.91923" lon="2.32169">
        <ele>84.7</ele>
        <time>2015-06-15T19:51:03.841Z</time>
      </trkpt>
      <trkpt lat="48.91927" lon="2.32174">
        <ele>84.7</ele>
        <time>2015-06-15T19:51:04.884Z</time>
      </trkpt>
      <trkpt lat="48.9193" lon="2.32179">
        <ele>85</ele>
        <time>2015-06-15T19:51:05.859Z</time>
      </trkpt>
      <trkpt lat="48.91933" lon="2.32185">
        <ele>85.1</ele>
        <time>2015-06-15T19:51:06.867Z</time>
      </trkpt>
      <trkpt lat="48.91936" lon="2.3219">
        <ele>85.2</ele>
        <time>2015-06-15T19:51:07.876Z</time>
      </trkpt>
      <trkpt lat="48.91939" lon="2.32196">
        <ele>85</ele>
        <time>2015-06-15T19:51:08.898Z</time>
      </trkpt>
      <trkpt lat="48.91942" lon="2.32201">
        <ele>85</ele>
        <time>2015-06-15T19:51:09.906Z</time>
      </trkpt>
      <trkpt lat="48.91944" lon="2.32207">
        <ele>85</ele>
        <time>2015-06-15T19:51:10.804Z</time>
      </trkpt>
      <trkpt lat="48.91948" lon="2.32218">
        <ele>85.2</ele>
        <time>2015-06-15T19:51:12.926Z</time>
      </trkpt>
      <trkpt lat="48.9195" lon="2.32224">
        <ele>85.3</ele>
        <time>2015-06-15T19:51:14.124Z</time>
      </trkpt>
      <trkpt lat="48.91952" lon="2.3223">
        <ele>85.6</ele>
        <time>2015-06-15T19:51:14.900Z</time>
      </trkpt>
      <trkpt lat="48.91956" lon="2.32236">
        <ele>85.8</ele>
        <time>2015-06-15T19:51:15.894Z</time>
      </trkpt>
      <trkpt lat="48.91959" lon="2.32243">
        <ele>85.7</ele>
        <time>2015-06-15T19:51:16.919Z</time>
      </trkpt>
      <trkpt lat="48.91963" lon="2.32249">
        <ele>85.8</ele>
        <time>2015-06-15T19:51:17.923Z</time>
      </trkpt>
      <trkpt lat="48.91966" lon="2.32256">
        <ele>85.8</ele>
        <time>2015-06-15T19:51:18.844Z</time>
      </trkpt>
      <trkpt lat="48.9197" lon="2.32262">
        <ele>86.1</ele>
        <time>2015-06-15T19:51:19.852Z</time>
      </trkpt>
      <trkpt lat="48.91973" lon="2.32268">
        <ele>86.2</ele>
        <time>2015-06-15T19:51:20.900Z</time>
      </trkpt>
      <trkpt lat="48.91976" lon="2.32274">
        <ele>86.3</ele>
        <time>2015-06-15T19:51:21.894Z</time>
      </trkpt>
      <trkpt lat="48.91979" lon="2.3228">
        <ele>86.6</ele>
        <time>2015-06-15T19:51:22.842Z</time>
      </trkpt>
      <trkpt lat="48.91983" lon="2.32286">
        <ele>86.3</ele>
        <time>2015-06-15T19:51:23.846Z</time>
      </trkpt>
      <trkpt lat="48.91986" lon="2.32292">
        <ele>86</ele>
        <time>2015-06-15T19:51:24.857Z</time>
      </trkpt>
      <trkpt lat="48.9199" lon="2.32298">
        <ele>86.2</ele>
        <time>2015-06-15T19:51:25.865Z</time>
      </trkpt>
      <trkpt lat="48.91993" lon="2.32304">
        <ele>86.3</ele>
        <time>2015-06-15T19:51:26.921Z</time>
      </trkpt>
      <trkpt lat="48.91998" lon="2.32309">
        <ele>86.1</ele>
        <time>2015-06-15T19:51:27.830Z</time>
      </trkpt>
      <trkpt lat="48.92002" lon="2.32314">
        <ele>86.3</ele>
        <time>2015-06-15T19:51:28.841Z</time>
      </trkpt>
      <trkpt lat="48.92006" lon="2.3232">
        <ele>86.7</ele>
        <time>2015-06-15T19:51:29.852Z</time>
      </trkpt>
      <trkpt lat="48.9201" lon="2.32326">
        <ele>87.1</ele>
        <time>2015-06-15T19:51:30.880Z</time>
      </trkpt>
      <trkpt lat="48.92015" lon="2.32331">
        <ele>87.1</ele>
        <time>2015-06-15T19:51:31.911Z</time>
      </trkpt>
      <trkpt lat="48.92018" lon="2.32337">
        <ele>87.1</ele>
        <time>2015-06-15T19:51:32.952Z</time>
      </trkpt>
      <trkpt lat="48.92021" lon="2.32343">
        <ele>87.1</ele>
        <time>2015-06-15T19:51:33.861Z</time>
      </trkpt>
      <trkpt lat="48.92024" lon="2.32349">
        <ele>86.8</ele>
        <time>2015-06-15T19:51:34.900Z</time>
      </trkpt>
      <trkpt lat="48.92027" lon="2.32356">
        <ele>86.9</ele>
        <time>2015-06-15T19:51:35.915Z</time>
      </trkpt>
      <trkpt lat="48.92029" lon="2.32362">
        <ele>87</ele>
        <time>2015-06-15T19:51:36.924Z</time>
      </trkpt>
      <trkpt lat="48.92032" lon="2.32368">
        <ele>86.9</ele>
        <time>2015-06-15T19:51:37.880Z</time>
      </trkpt>
      <trkpt lat="48.92035" lon="2.32374">
        <ele>86.9</ele>
        <time>2015-06-15T19:51:38.911Z</time>
      </trkpt>
      <trkpt lat="48.92038" lon="2.32379">
        <ele>86.8</ele>
        <time>2015-06-15T19:51:39.906Z</time>
      </trkpt>
      <trkpt lat="48.9204" lon="2.32385">
        <ele>86.4</ele>
        <time>2015-06-15T19:51:40.925Z</time>
      </trkpt>
      <trkpt lat="48.92042" lon="2.32392">
        <ele>86.3</ele>
        <time>2015-06-15T19:51:41.925Z</time>
      </trkpt>
      <trkpt lat="48.92046" lon="2.32404">
        <ele>86.1</ele>
        <time>2015-06-15T19:51:43.845Z</time>
      </trkpt>
      <trkpt lat="48.92047" lon="2.3241">
        <ele>85.9</ele>
        <time>2015-06-15T19:51:44.949Z</time>
      </trkpt>
      <trkpt lat="48.9205" lon="2.32423">
        <ele>85.2</ele>
        <time>2015-06-15T19:51:46.847Z</time>
      </trkpt>
      <trkpt lat="48.92051" lon="2.32428">
        <ele>85</ele>
        <time>2015-06-15T19:51:47.905Z</time>
      </trkpt>
      <trkpt lat="48.92056" lon="2.32438">
        <ele>85</ele>
        <time>2015-06-15T19:51:49.841Z</time>
      </trkpt>
      <trkpt lat="48.92059" lon="2.32443">
        <ele>85.1</ele>
        <time>2015-06-15T19:51:50.895Z</time>
      </trkpt>
      <trkpt lat="48.92064" lon="2.32452">
        <ele>85.1</ele>
        <time>2015-06-15T19:51:52.818Z</time>
      </trkpt>
      <trkpt lat="48.92066" lon="2.32457">
        <ele>85</ele>
        <time>2015-06-15T19:51:53.831Z</time>
      </trkpt>
      <trkpt lat="48.92071" lon="2.32465">
        <ele>85.1</ele>
        <time>2015-06-15T19:51:55.813Z</time>
      </trkpt>
      <trkpt lat="48.92073" lon="2.32468">
        <ele>85.1</ele>
        <time>2015-06-15T19:51:56.931Z</time>
      </trkpt>
      <trkpt lat="48.92078" lon="2.32476">
        <ele>84.6</ele>
        <time>2015-06-15T19:51:59.921Z</time>
      </trkpt>
      <trkpt lat="48.9208" lon="2.32479">
        <ele>84.7</ele>
        <time>2015-06-15T19:52:00.840Z</time>
      </trkpt>
      <trkpt lat="48.92084" lon="2.32488">
        <ele>85</ele>
        <time>2015-06-15T19:52:03.910Z</time>
      </trkpt>
      <trkpt lat="48.92085" lon="2.32491">
        <ele>85.3</ele>
        <time>2015-06-15T19:52:04.830Z</time>
      </trkpt>
      <trkpt lat="48.92092" lon="2.325">
        <ele>85.3</ele>
        <time>2015-06-15T19:52:08.937Z</time>
      </trkpt>
      <trkpt lat="48.92093" lon="2.32502">
        <ele>85.4</ele>
        <time>2015-06-15T19:52:09.832Z</time>
      </trkpt>
      <trkpt lat="48.92098" lon="2.32511">
        <ele>86.1</ele>
        <time>2015-06-15T19:53:11.872Z</time>
      </trkpt>
      <trkpt lat="48.92099" lon="2.32526">
        <ele>87.6</ele>
        <time>2015-06-15T19:53:12.949Z</time>
      </trkpt>
      <trkpt lat="48.92098" lon="2.32536">
        <ele>88.6</ele>
        <time>2015-06-15T19:53:17.912Z</time>
      </trkpt>
      <trkpt lat="48.92097" lon="2.3254">
        <ele>88.9</ele>
        <time>2015-06-15T19:53:18.921Z</time>
      </trkpt>
      <trkpt lat="48.92091" lon="2.32548">
        <ele>88.5</ele>
        <time>2015-06-15T19:53:21.928Z</time>
      </trkpt>
      <trkpt lat="48.92089" lon="2.32551">
        <ele>88.4</ele>
        <time>2015-06-15T19:53:22.855Z</time>
      </trkpt>
      <trkpt lat="48.92084" lon="2.32558">
        <ele>88.3</ele>
        <time>2015-06-15T19:53:24.888Z</time>
      </trkpt>
      <trkpt lat="48.92082" lon="2.32561">
        <ele>87.8</ele>
        <time>2015-06-15T19:53:25.930Z</time>
      </trkpt>
      <trkpt lat="48.92077" lon="2.32567">
        <ele>87.8</ele>
        <time>2015-06-15T19:53:27.808Z</time>
      </trkpt>
      <trkpt lat="48.92075" lon="2.3257">
        <ele>88.1</ele>
        <time>2015-06-15T19:53:28.872Z</time>
      </trkpt>
      <trkpt lat="48.9207" lon="2.32577">
        <ele>88.4</ele>
        <time>2015-06-15T19:53:30.896Z</time>
      </trkpt>
      <trkpt lat="48.92068" lon="2.3258">
        <ele>88.3</ele>
        <time>2015-06-15T19:53:31.879Z</time>
      </trkpt>
      <trkpt lat="48.92063" lon="2.32587">
        <ele>88.1</ele>
        <time>2015-06-15T19:53:33.913Z</time>
      </trkpt>
      <trkpt lat="48.92061" lon="2.3259">
        <ele>87.6</ele>
        <time>2015-06-15T19:53:34.879Z</time>
      </trkpt>
      <trkpt lat="48.92055" lon="2.32598">
        <ele>87.7</ele>
        <time>2015-06-15T19:53:37.894Z</time>
      </trkpt>
      <trkpt lat="48.92053" lon="2.32601">
        <ele>87.6</ele>
        <time>2015-06-15T19:53:38.957Z</time>
      </trkpt>
      <trkpt lat="48.92047" lon="2.3261">
        <ele>87.5</ele>
        <time>2015-06-15T19:53:41.882Z</time>
      </trkpt>
      <trkpt lat="48.92046" lon="2.32612">
        <ele>87.6</ele>
        <time>2015-06-15T19:53:42.871Z</time>
      </trkpt>
      <trkpt lat="48.92041" lon="2.3262">
        <ele>87.6</ele>
        <time>2015-06-15T19:53:45.844Z</time>
      </trkpt>
      <trkpt lat="48.92039" lon="2.32623">
        <ele>87.7</ele>
        <time>2015-06-15T19:53:46.843Z</time>
      </trkpt>
      <trkpt lat="48.92033" lon="2.3263">
        <ele>88</ele>
        <time>2015-06-15T19:53:49.913Z</time>
      </trkpt>
      <trkpt lat="48.92031" lon="2.32634">
        <ele>87.5</ele>
        <time>2015-06-15T19:53:50.942Z</time>
      </trkpt>
      <trkpt lat="48.92026" lon="2.32641">
        <ele>87.4</ele>
        <time>2015-06-15T19:53:52.852Z</time>
      </trkpt>
      <trkpt lat="48.92023" lon="2.32645">
        <ele>87</ele>
        <time>2015-06-15T19:53:53.885Z</time>
      </trkpt>
      <trkpt lat="48.92017" lon="2.32654">
        <ele>86.1</ele>
        <time>2015-06-15T19:53:55.829Z</time>
      </trkpt>
      <trkpt lat="48.92014" lon="2.32659">
        <ele>86.1</ele>
        <time>2015-06-15T19:53:56.954Z</time>
      </trkpt>
      <trkpt lat="48.92009" lon="2.32668">
        <ele>86.6</ele>
        <time>2015-06-15T19:53:58.881Z</time>
      </trkpt>
      <trkpt lat="48.92005" lon="2.32673">
        <ele>86.6</ele>
        <time>2015-06-15T19:53:59.890Z</time>
      </trkpt>
      <trkpt lat="48.91999" lon="2.3268">
        <ele>86.8</ele>
        <time>2015-06-15T19:54:01.857Z</time>
      </trkpt>
      <trkpt lat="48.91996" lon="2.32683">
        <ele>86.8</ele>
        <time>2015-06-15T19:54:02.937Z</time>
      </trkpt>
      <trkpt lat="48.9199" lon="2.32692">
        <ele>86</ele>
        <time>2015-06-15T19:54:06.858Z</time>
      </trkpt>
      <trkpt lat="48.91988" lon="2.32695">
        <ele>86.1</ele>
        <time>2015-06-15T19:54:07.876Z</time>
      </trkpt>
      <trkpt lat="48.91983" lon="2.32703">
        <ele>86.8</ele>
        <time>2015-06-15T19:54:10.878Z</time>
      </trkpt>
      <trkpt lat="48.91981" lon="2.32706">
        <ele>87.3</ele>
        <time>2015-06-15T19:54:11.883Z</time>
      </trkpt>
      <trkpt lat="48.91976" lon="2.32712">
        <ele>88</ele>
        <time>2015-06-15T19:54:13.814Z</time>
      </trkpt>
      <trkpt lat="48.91975" lon="2.32716">
        <ele>87.7</ele>
        <time>2015-06-15T19:54:14.868Z</time>
      </trkpt>
      <trkpt lat="48.91969" lon="2.32724">
        <ele>87.9</ele>
        <time>2015-06-15T19:54:16.912Z</time>
      </trkpt>
      <trkpt lat="48.91966" lon="2.32729">
        <ele>87.9</ele>
        <time>2015-06-15T19:54:17.838Z</time>
      </trkpt>
      <trkpt lat="48.91962" lon="2.32733">
        <ele>87.6</ele>
        <time>2015-06-15T19:54:18.872Z</time>
      </trkpt>
      <trkpt lat="48.91959" lon="2.32738">
        <ele>87.6</ele>
        <time>2015-06-15T19:54:19.953Z</time>
      </trkpt>
      <trkpt lat="48.91956" lon="2.32745">
        <ele>87.4</ele>
        <time>2015-06-15T19:54:20.906Z</time>
      </trkpt>
      <trkpt lat="48.91952" lon="2.32752">
        <ele>87.3</ele>
        <time>2015-06-15T19:54:21.925Z</time>
      </trkpt>
      <trkpt lat="48.91948" lon="2.32758">
        <ele>87.2</ele>
        <time>2015-06-15T19:54:22.843Z</time>
      </trkpt>
      <trkpt lat="48.91945" lon="2.32763">
        <ele>87.2</ele>
        <time>2015-06-15T19:54:23.847Z</time>
      </trkpt>
      <trkpt lat="48.91941" lon="2.3277">
        <ele>87.4</ele>
        <time>2015-06-15T19:54:24.859Z</time>
      </trkpt>
      <trkpt lat="48.91937" lon="2.32776">
        <ele>87.5</ele>
        <time>2015-06-15T19:54:25.863Z</time>
      </trkpt>
      <trkpt lat="48.91933" lon="2.32782">
        <ele>87.9</ele>
        <time>2015-06-15T19:54:26.908Z</time>
      </trkpt>
      <trkpt lat="48.9193" lon="2.32788">
        <ele>88.2</ele>
        <time>2015-06-15T19:54:27.844Z</time>
      </trkpt>
      <trkpt lat="48.91926" lon="2.32794">
        <ele>88.1</ele>
        <time>2015-06-15T19:54:28.833Z</time>
      </trkpt>
      <trkpt lat="48.91923" lon="2.328">
        <ele>88.2</ele>
        <time>2015-06-15T19:54:29.842Z</time>
      </trkpt>
      <trkpt lat="48.91917" lon="2.32809">
        <ele>88</ele>
        <time>2015-06-15T19:54:31.855Z</time>
      </trkpt>
      <trkpt lat="48.91914" lon="2.32815">
        <ele>87.8</ele>
        <time>2015-06-15T19:54:32.876Z</time>
      </trkpt>
      <trkpt lat="48.91908" lon="2.32824">
        <ele>87.7</ele>
        <time>2015-06-15T19:54:34.806Z</time>
      </trkpt>
      <trkpt lat="48.91905" lon="2.32828">
        <ele>87.7</ele>
        <time>2015-06-15T19:54:35.849Z</time>
      </trkpt>
      <trkpt lat="48.919" lon="2.32836">
        <ele>87.6</ele>
        <time>2015-06-15T19:54:37.826Z</time>
      </trkpt>
      <trkpt lat="48.91896" lon="2.32842">
        <ele>87.2</ele>
        <time>2015-06-15T19:54:38.912Z</time>
      </trkpt>
      <trkpt lat="48.91891" lon="2.32849">
        <ele>87.1</ele>
        <time>2015-06-15T19:54:41.217Z</time>
      </trkpt>
      <trkpt lat="48.91889" lon="2.32851">
        <ele>87.2</ele>
        <time>2015-06-15T19:54:41.856Z</time>
      </trkpt>
      <trkpt lat="48.91883" lon="2.32858">
        <ele>87.2</ele>
        <time>2015-06-15T19:54:43.944Z</time>
      </trkpt>
      <trkpt lat="48.91881" lon="2.32862">
        <ele>87.1</ele>
        <time>2015-06-15T19:54:44.852Z</time>
      </trkpt>
      <trkpt lat="48.91876" lon="2.32868">
        <ele>86.7</ele>
        <time>2015-06-15T19:54:46.917Z</time>
      </trkpt>
      <trkpt lat="48.91874" lon="2.32871">
        <ele>86.6</ele>
        <time>2015-06-15T19:54:47.824Z</time>
      </trkpt>
      <trkpt lat="48.91868" lon="2.32881">
        <ele>86.2</ele>
        <time>2015-06-15T19:54:51.399Z</time>
      </trkpt>
      <trkpt lat="48.91866" lon="2.32884">
        <ele>86.2</ele>
        <time>2015-06-15T19:54:51.840Z</time>
      </trkpt>
      <trkpt lat="48.91859" lon="2.32892">
        <ele>86.3</ele>
        <time>2015-06-15T19:54:54.835Z</time>
      </trkpt>
      <trkpt lat="48.91857" lon="2.32895">
        <ele>86.3</ele>
        <time>2015-06-15T19:54:55.844Z</time>
      </trkpt>
      <trkpt lat="48.91851" lon="2.32903">
        <ele>86</ele>
        <time>2015-06-15T19:54:58.837Z</time>
      </trkpt>
      <trkpt lat="48.91848" lon="2.32906">
        <ele>86</ele>
        <time>2015-06-15T19:54:59.884Z</time>
      </trkpt>
      <trkpt lat="48.91844" lon="2.32913">
        <ele>86.1</ele>
        <time>2015-06-15T19:55:01.834Z</time>
      </trkpt>
      <trkpt lat="48.91842" lon="2.32916">
        <ele>86.1</ele>
        <time>2015-06-15T19:55:02.917Z</time>
      </trkpt>
      <trkpt lat="48.91837" lon="2.32923">
        <ele>86.3</ele>
        <time>2015-06-15T19:55:04.830Z</time>
      </trkpt>
      <trkpt lat="48.91835" lon="2.32927">
        <ele>86.4</ele>
        <time>2015-06-15T19:55:05.840Z</time>
      </trkpt>
      <trkpt lat="48.91829" lon="2.32935">
        <ele>85.9</ele>
        <time>2015-06-15T19:55:08.896Z</time>
      </trkpt>
      <trkpt lat="48.91827" lon="2.32938">
        <ele>85.7</ele>
        <time>2015-06-15T19:55:09.903Z</time>
      </trkpt>
      <trkpt lat="48.91821" lon="2.32945">
        <ele>85.7</ele>
        <time>2015-06-15T19:55:13.603Z</time>
      </trkpt>
      <trkpt lat="48.91819" lon="2.32946">
        <ele>85.9</ele>
        <time>2015-06-15T19:55:13.806Z</time>
      </trkpt>
      <trkpt lat="48.91811" lon="2.32947">
        <ele>85.7</ele>
        <time>2015-06-15T19:55:16.841Z</time>
      </trkpt>
      <trkpt lat="48.91808" lon="2.32947">
        <ele>85.7</ele>
        <time>2015-06-15T19:55:17.841Z</time>
      </trkpt>
      <trkpt lat="48.91802" lon="2.3295">
        <ele>85.7</ele>
        <time>2015-06-15T19:55:19.852Z</time>
      </trkpt>
      <trkpt lat="48.91798" lon="2.32953">
        <ele>85.5</ele>
        <time>2015-06-15T19:55:20.906Z</time>
      </trkpt>
      <trkpt lat="48.91791" lon="2.32959">
        <ele>85.7</ele>
        <time>2015-06-15T19:55:23.707Z</time>
      </trkpt>
      <trkpt lat="48.91787" lon="2.32963">
        <ele>86.1</ele>
        <time>2015-06-15T19:55:23.835Z</time>
      </trkpt>
      <trkpt lat="48.9178" lon="2.3297">
        <ele>86.3</ele>
        <time>2015-06-15T19:55:25.900Z</time>
      </trkpt>
      <trkpt lat="48.91776" lon="2.32972">
        <ele>86.2</ele>
        <time>2015-06-15T19:55:26.915Z</time>
      </trkpt>
      <trkpt lat="48.91768" lon="2.32976">
        <ele>86.8</ele>
        <time>2015-06-15T19:55:28.856Z</time>
      </trkpt>
      <trkpt lat="48.91763" lon="2.3298">
        <ele>87.3</ele>
        <time>2015-06-15T19:55:29.886Z</time>
      </trkpt>
      <trkpt lat="48.91759" lon="2.32984">
        <ele>87.6</ele>
        <time>2015-06-15T19:55:30.905Z</time>
      </trkpt>
      <trkpt lat="48.91755" lon="2.32986">
        <ele>87.8</ele>
        <time>2015-06-15T19:55:31.837Z</time>
      </trkpt>
      <trkpt lat="48.91747" lon="2.32991">
        <ele>87.9</ele>
        <time>2015-06-15T19:55:33.864Z</time>
      </trkpt>
      <trkpt lat="48.91742" lon="2.32994">
        <ele>87.4</ele>
        <time>2015-06-15T19:55:34.869Z</time>
      </trkpt>
      <trkpt lat="48.91738" lon="2.32997">
        <ele>87.2</ele>
        <time>2015-06-15T19:55:35.876Z</time>
      </trkpt>
      <trkpt lat="48.91734" lon="2.33">
        <ele>87.1</ele>
        <time>2015-06-15T19:55:36.910Z</time>
      </trkpt>
      <trkpt lat="48.91727" lon="2.33004">
        <ele>87.2</ele>
        <time>2015-06-15T19:55:38.819Z</time>
      </trkpt>
      <trkpt lat="48.91723" lon="2.33005">
        <ele>87.2</ele>
        <time>2015-06-15T19:55:39.901Z</time>
      </trkpt>
      <trkpt lat="48.91717" lon="2.33009">
        <ele>87.3</ele>
        <time>2015-06-15T19:55:41.818Z</time>
      </trkpt>
      <trkpt lat="48.91713" lon="2.33011">
        <ele>87.5</ele>
        <time>2015-06-15T19:55:42.867Z</time>
      </trkpt>
      <trkpt lat="48.91704" lon="2.33015">
        <ele>88</ele>
        <time>2015-06-15T19:55:44.891Z</time>
      </trkpt>
      <trkpt lat="48.917" lon="2.33017">
        <ele>88.1</ele>
        <time>2015-06-15T19:55:45.875Z</time>
      </trkpt>
      <trkpt lat="48.91692" lon="2.33021">
        <ele>88</ele>
        <time>2015-06-15T19:55:47.907Z</time>
      </trkpt>
      <trkpt lat="48.91688" lon="2.33023">
        <ele>88.2</ele>
        <time>2015-06-15T19:55:48.967Z</time>
      </trkpt>
      <trkpt lat="48.91679" lon="2.33026">
        <ele>88.6</ele>
        <time>2015-06-15T19:55:50.894Z</time>
      </trkpt>
      <trkpt lat="48.91674" lon="2.33027">
        <ele>89.1</ele>
        <time>2015-06-15T19:55:51.809Z</time>
      </trkpt>
      <trkpt lat="48.91669" lon="2.33029">
        <ele>89.2</ele>
        <time>2015-06-15T19:55:52.813Z</time>
      </trkpt>
      <trkpt lat="48.91665" lon="2.33031">
        <ele>89.4</ele>
        <time>2015-06-15T19:55:53.824Z</time>
      </trkpt>
      <trkpt lat="48.91657" lon="2.33034">
        <ele>89.3</ele>
        <time>2015-06-15T19:55:55.877Z</time>
      </trkpt>
      <trkpt lat="48.91653" lon="2.33036">
        <ele>89.2</ele>
        <time>2015-06-15T19:55:56.952Z</time>
      </trkpt>
      <trkpt lat="48.91646" lon="2.33038">
        <ele>89.9</ele>
        <time>2015-06-15T19:55:58.913Z</time>
      </trkpt>
      <trkpt lat="48.91642" lon="2.3304">
        <ele>90.1</ele>
        <time>2015-06-15T19:55:59.795Z</time>
      </trkpt>
      <trkpt lat="48.91635" lon="2.33045">
        <ele>90.9</ele>
        <time>2015-06-15T19:56:01.822Z</time>
      </trkpt>
      <trkpt lat="48.91632" lon="2.33048">
        <ele>91.1</ele>
        <time>2015-06-15T19:56:02.883Z</time>
      </trkpt>
      <trkpt lat="48.91625" lon="2.33055">
        <ele>91.6</ele>
        <time>2015-06-15T19:56:04.937Z</time>
      </trkpt>
      <trkpt lat="48.9162" lon="2.3306">
        <ele>91.5</ele>
        <time>2015-06-15T19:56:05.803Z</time>
      </trkpt>
      <trkpt lat="48.91615" lon="2.33065">
        <ele>91.6</ele>
        <time>2015-06-15T19:56:06.817Z</time>
      </trkpt>
      <trkpt lat="48.91611" lon="2.3307">
        <ele>91.7</ele>
        <time>2015-06-15T19:56:07.844Z</time>
      </trkpt>
      <trkpt lat="48.91604" lon="2.33078">
        <ele>91.9</ele>
        <time>2015-06-15T19:56:09.894Z</time>
      </trkpt>
      <trkpt lat="48.916" lon="2.33083">
        <ele>92.1</ele>
        <time>2015-06-15T19:56:10.905Z</time>
      </trkpt>
      <trkpt lat="48.91597" lon="2.33088">
        <ele>92.6</ele>
        <time>2015-06-15T19:56:11.828Z</time>
      </trkpt>
      <trkpt lat="48.91593" lon="2.33092">
        <ele>93</ele>
        <time>2015-06-15T19:56:12.831Z</time>
      </trkpt>
      <trkpt lat="48.91587" lon="2.33098">
        <ele>93.3</ele>
        <time>2015-06-15T19:56:13.551Z</time>
      </trkpt>
      <trkpt lat="48.91582" lon="2.33103">
        <ele>93.7</ele>
        <time>2015-06-15T19:56:14.842Z</time>
      </trkpt>
      <trkpt lat="48.91576" lon="2.33109">
        <ele>94.1</ele>
        <time>2015-06-15T19:56:15.871Z</time>
      </trkpt>
      <trkpt lat="48.91571" lon="2.33114">
        <ele>94.4</ele>
        <time>2015-06-15T19:56:16.905Z</time>
      </trkpt>
      <trkpt lat="48.91566" lon="2.33119">
        <ele>94.7</ele>
        <time>2015-06-15T19:56:17.791Z</time>
      </trkpt>
      <trkpt lat="48.91561" lon="2.33124">
        <ele>95.2</ele>
        <time>2015-06-15T19:56:18.830Z</time>
      </trkpt>
      <trkpt lat="48.91555" lon="2.33132">
        <ele>96.6</ele>
        <time>2015-06-15T19:56:19.854Z</time>
      </trkpt>
      <trkpt lat="48.91552" lon="2.33137">
        <ele>97.3</ele>
        <time>2015-06-15T19:56:20.867Z</time>
      </trkpt>
      <trkpt lat="48.91547" lon="2.33141">
        <ele>97.1</ele>
        <time>2015-06-15T19:56:21.904Z</time>
      </trkpt>
      <trkpt lat="48.91542" lon="2.33144">
        <ele>97.4</ele>
        <time>2015-06-15T19:56:22.847Z</time>
      </trkpt>
      <trkpt lat="48.91533" lon="2.33146">
        <ele>97.8</ele>
        <time>2015-06-15T19:56:24.816Z</time>
      </trkpt>
      <trkpt lat="48.9153" lon="2.33148">
        <ele>97.8</ele>
        <time>2015-06-15T19:56:25.846Z</time>
      </trkpt>
      <trkpt lat="48.91523" lon="2.33146">
        <ele>99.1</ele>
        <time>2015-06-15T19:56:28.827Z</time>
      </trkpt>
      <trkpt lat="48.9152" lon="2.33148">
        <ele>99.9</ele>
        <time>2015-06-15T19:56:29.845Z</time>
      </trkpt>
      <trkpt lat="48.91515" lon="2.33153">
        <ele>100.9</ele>
        <time>2015-06-15T19:56:31.855Z</time>
      </trkpt>
      <trkpt lat="48.91511" lon="2.33156">
        <ele>101.4</ele>
        <time>2015-06-15T19:56:32.921Z</time>
      </trkpt>
      <trkpt lat="48.91504" lon="2.33161">
        <ele>102.2</ele>
        <time>2015-06-15T19:56:34.856Z</time>
      </trkpt>
      <trkpt lat="48.915" lon="2.33165">
        <ele>102.1</ele>
        <time>2015-06-15T19:56:35.876Z</time>
      </trkpt>
      <trkpt lat="48.91497" lon="2.33169">
        <ele>101.9</ele>
        <time>2015-06-15T19:56:36.846Z</time>
      </trkpt>
      <trkpt lat="48.91493" lon="2.33173">
        <ele>102.8</ele>
        <time>2015-06-15T19:56:37.835Z</time>
      </trkpt>
      <trkpt lat="48.91489" lon="2.33178">
        <ele>103.5</ele>
        <time>2015-06-15T19:56:38.890Z</time>
      </trkpt>
      <trkpt lat="48.91485" lon="2.33182">
        <ele>104.1</ele>
        <time>2015-06-15T19:56:39.888Z</time>
      </trkpt>
      <trkpt lat="48.91481" lon="2.33187">
        <ele>104.8</ele>
        <time>2015-06-15T19:56:40.847Z</time>
      </trkpt>
      <trkpt lat="48.91478" lon="2.33192">
        <ele>105.3</ele>
        <time>2015-06-15T19:56:41.838Z</time>
      </trkpt>
      <trkpt lat="48.91473" lon="2.33196">
        <ele>105.6</ele>
        <time>2015-06-15T19:56:42.856Z</time>
      </trkpt>
      <trkpt lat="48.91469" lon="2.33199">
        <ele>105.8</ele>
        <time>2015-06-15T19:56:43.860Z</time>
      </trkpt>
      <trkpt lat="48.91465" lon="2.33203">
        <ele>105.7</ele>
        <time>2015-06-15T19:56:44.934Z</time>
      </trkpt>
      <trkpt lat="48.9146" lon="2.33206">
        <ele>105.3</ele>
        <time>2015-06-15T19:56:45.848Z</time>
      </trkpt>
      <trkpt lat="48.91456" lon="2.33209">
        <ele>104.9</ele>
        <time>2015-06-15T19:56:46.840Z</time>
      </trkpt>
      <trkpt lat="48.91451" lon="2.33212">
        <ele>104.7</ele>
        <time>2015-06-15T19:56:47.874Z</time>
      </trkpt>
      <trkpt lat="48.91443" lon="2.33217">
        <ele>103.9</ele>
        <time>2015-06-15T19:56:49.912Z</time>
      </trkpt>
      <trkpt lat="48.91439" lon="2.3322">
        <ele>103.6</ele>
        <time>2015-06-15T19:56:50.934Z</time>
      </trkpt>
      <trkpt lat="48.91431" lon="2.33225">
        <ele>103.6</ele>
        <time>2015-06-15T19:56:52.926Z</time>
      </trkpt>
      <trkpt lat="48.91427" lon="2.33229">
        <ele>103.8</ele>
        <time>2015-06-15T19:56:53.881Z</time>
      </trkpt>
      <trkpt lat="48.91423" lon="2.33234">
        <ele>103.8</ele>
        <time>2015-06-15T19:56:54.892Z</time>
      </trkpt>
      <trkpt lat="48.9142" lon="2.33238">
        <ele>103.9</ele>
        <time>2015-06-15T19:56:55.927Z</time>
      </trkpt>
      <trkpt lat="48.91413" lon="2.33246">
        <ele>104</ele>
        <time>2015-06-15T19:56:57.836Z</time>
      </trkpt>
      <trkpt lat="48.91409" lon="2.33251">
        <ele>104.5</ele>
        <time>2015-06-15T19:56:58.841Z</time>
      </trkpt>
      <trkpt lat="48.91403" lon="2.33261">
        <ele>105.2</ele>
        <time>2015-06-15T19:57:00.923Z</time>
      </trkpt>
      <trkpt lat="48.914" lon="2.33265">
        <ele>104.6</ele>
        <time>2015-06-15T19:57:01.826Z</time>
      </trkpt>
      <trkpt lat="48.91395" lon="2.33275">
        <ele>104.8</ele>
        <time>2015-06-15T19:57:03.860Z</time>
      </trkpt>
      <trkpt lat="48.91392" lon="2.33279">
        <ele>104.9</ele>
        <time>2015-06-15T19:57:04.825Z</time>
      </trkpt>
      <trkpt lat="48.91389" lon="2.33283">
        <ele>104.8</ele>
        <time>2015-06-15T19:57:05.832Z</time>
      </trkpt>
      <trkpt lat="48.91386" lon="2.33289">
        <ele>104.2</ele>
        <time>2015-06-15T19:57:06.857Z</time>
      </trkpt>
      <trkpt lat="48.91383" lon="2.33295">
        <ele>104</ele>
        <time>2015-06-15T19:57:07.902Z</time>
      </trkpt>
      <trkpt lat="48.9138" lon="2.33301">
        <ele>104.1</ele>
        <time>2015-06-15T19:57:08.905Z</time>
      </trkpt>
      <trkpt lat="48.91377" lon="2.33307">
        <ele>104.4</ele>
        <time>2015-06-15T19:57:09.831Z</time>
      </trkpt>
      <trkpt lat="48.91375" lon="2.33313">
        <ele>105.7</ele>
        <time>2015-06-15T19:57:11.062Z</time>
      </trkpt>
      <trkpt lat="48.9137" lon="2.33324">
        <ele>107.8</ele>
        <time>2015-06-15T19:57:12.866Z</time>
      </trkpt>
      <trkpt lat="48.91366" lon="2.3333">
        <ele>108</ele>
        <time>2015-06-15T19:57:13.876Z</time>
      </trkpt>
      <trkpt lat="48.91362" lon="2.33335">
        <ele>108.1</ele>
        <time>2015-06-15T19:57:14.905Z</time>
      </trkpt>
      <trkpt lat="48.91358" lon="2.33341">
        <ele>108</ele>
        <time>2015-06-15T19:57:15.910Z</time>
      </trkpt>
      <trkpt lat="48.91354" lon="2.33347">
        <ele>107.9</ele>
        <time>2015-06-15T19:57:16.842Z</time>
      </trkpt>
      <trkpt lat="48.9135" lon="2.33354">
        <ele>107.8</ele>
        <time>2015-06-15T19:57:17.849Z</time>
      </trkpt>
      <trkpt lat="48.91347" lon="2.3336">
        <ele>107.9</ele>
        <time>2015-06-15T19:57:18.858Z</time>
      </trkpt>
      <trkpt lat="48.91343" lon="2.33366">
        <ele>107.9</ele>
        <time>2015-06-15T19:57:19.858Z</time>
      </trkpt>
      <trkpt lat="48.91339" lon="2.33372">
        <ele>108.2</ele>
        <time>2015-06-15T19:57:20.863Z</time>
      </trkpt>
      <trkpt lat="48.91336" lon="2.33377">
        <ele>108.8</ele>
        <time>2015-06-15T19:57:21.891Z</time>
      </trkpt>
      <trkpt lat="48.91331" lon="2.33388">
        <ele>109.8</ele>
        <time>2015-06-15T19:57:23.922Z</time>
      </trkpt>
      <trkpt lat="48.91329" lon="2.33393">
        <ele>110.4</ele>
        <time>2015-06-15T19:57:24.834Z</time>
      </trkpt>
      <trkpt lat="48.91325" lon="2.33402">
        <ele>111.7</ele>
        <time>2015-06-15T19:57:26.864Z</time>
      </trkpt>
      <trkpt lat="48.91322" lon="2.33406">
        <ele>112.1</ele>
        <time>2015-06-15T19:57:27.916Z</time>
      </trkpt>
      <trkpt lat="48.91317" lon="2.33413">
        <ele>113.2</ele>
        <time>2015-06-15T19:57:29.857Z</time>
      </trkpt>
      <trkpt lat="48.91315" lon="2.33418">
        <ele>112.8</ele>
        <time>2015-06-15T19:57:30.873Z</time>
      </trkpt>
      <trkpt lat="48.91309" lon="2.33426">
        <ele>112.7</ele>
        <time>2015-06-15T19:57:32.945Z</time>
      </trkpt>
      <trkpt lat="48.91305" lon="2.33432">
        <ele>112.5</ele>
        <time>2015-06-15T19:57:33.906Z</time>
      </trkpt>
      <trkpt lat="48.91299" lon="2.33443">
        <ele>112.3</ele>
        <time>2015-06-15T19:57:35.832Z</time>
      </trkpt>
      <trkpt lat="48.91296" lon="2.33447">
        <ele>112.4</ele>
        <time>2015-06-15T19:57:36.875Z</time>
      </trkpt>
      <trkpt lat="48.91291" lon="2.33456">
        <ele>112.5</ele>
        <time>2015-06-15T19:57:38.904Z</time>
      </trkpt>
      <trkpt lat="48.91288" lon="2.3346">
        <ele>112.4</ele>
        <time>2015-06-15T19:57:39.828Z</time>
      </trkpt>
      <trkpt lat="48.91282" lon="2.33467">
        <ele>111.4</ele>
        <time>2015-06-15T19:57:41.859Z</time>
      </trkpt>
      <trkpt lat="48.91276" lon="2.3347">
        <ele>109.4</ele>
        <time>2015-06-15T19:57:42.892Z</time>
      </trkpt>
      <trkpt lat="48.91271" lon="2.33471">
        <ele>109.3</ele>
        <time>2015-06-15T19:57:43.915Z</time>
      </trkpt>
      <trkpt lat="48.91267" lon="2.33469">
        <ele>109</ele>
        <time>2015-06-15T19:57:44.922Z</time>
      </trkpt>
      <trkpt lat="48.91261" lon="2.33467">
        <ele>108.3</ele>
        <time>2015-06-15T19:57:45.845Z</time>
      </trkpt>
      <trkpt lat="48.91255" lon="2.33464">
        <ele>107</ele>
        <time>2015-06-15T19:57:46.860Z</time>
      </trkpt>
      <trkpt lat="48.9125" lon="2.3346">
        <ele>106.2</ele>
        <time>2015-06-15T19:57:47.873Z</time>
      </trkpt>
      <trkpt lat="48.91245" lon="2.33457">
        <ele>105.4</ele>
        <time>2015-06-15T19:57:48.893Z</time>
      </trkpt>
      <trkpt lat="48.91241" lon="2.33453">
        <ele>104.7</ele>
        <time>2015-06-15T19:57:49.846Z</time>
      </trkpt>
      <trkpt lat="48.91237" lon="2.3345">
        <ele>104.2</ele>
        <time>2015-06-15T19:57:50.902Z</time>
      </trkpt>
      <trkpt lat="48.91233" lon="2.33446">
        <ele>103.9</ele>
        <time>2015-06-15T19:57:51.916Z</time>
      </trkpt>
      <trkpt lat="48.9123" lon="2.33437">
        <ele>103.5</ele>
        <time>2015-06-15T19:57:52.866Z</time>
      </trkpt>
      <trkpt lat="48.91228" lon="2.33429">
        <ele>103</ele>
        <time>2015-06-15T19:57:53.876Z</time>
      </trkpt>
      <trkpt lat="48.91226" lon="2.3342">
        <ele>102.1</ele>
        <time>2015-06-15T19:57:54.867Z</time>
      </trkpt>
      <trkpt lat="48.91223" lon="2.33413">
        <ele>101.5</ele>
        <time>2015-06-15T19:57:55.888Z</time>
      </trkpt>
      <trkpt lat="48.91221" lon="2.33406">
        <ele>101.1</ele>
        <time>2015-06-15T19:57:56.928Z</time>
      </trkpt>
      <trkpt lat="48.91218" lon="2.33398">
        <ele>100.1</ele>
        <time>2015-06-15T19:57:57.842Z</time>
      </trkpt>
      <trkpt lat="48.91215" lon="2.33392">
        <ele>99.5</ele>
        <time>2015-06-15T19:57:58.860Z</time>
      </trkpt>
      <trkpt lat="48.91212" lon="2.33386">
        <ele>99.5</ele>
        <time>2015-06-15T19:57:59.873Z</time>
      </trkpt>
      <trkpt lat="48.91209" lon="2.3338">
        <ele>99</ele>
        <time>2015-06-15T19:58:00.894Z</time>
      </trkpt>
      <trkpt lat="48.91203" lon="2.33371">
        <ele>98.3</ele>
        <time>2015-06-15T19:58:03.110Z</time>
      </trkpt>
      <trkpt lat="48.91199" lon="2.33367">
        <ele>97.9</ele>
        <time>2015-06-15T19:58:03.902Z</time>
      </trkpt>
      <trkpt lat="48.91195" lon="2.33363">
        <ele>98.2</ele>
        <time>2015-06-15T19:58:04.816Z</time>
      </trkpt>
      <trkpt lat="48.91191" lon="2.33359">
        <ele>98.3</ele>
        <time>2015-06-15T19:58:05.829Z</time>
      </trkpt>
      <trkpt lat="48.91187" lon="2.33354">
        <ele>98.5</ele>
        <time>2015-06-15T19:58:06.852Z</time>
      </trkpt>
      <trkpt lat="48.91183" lon="2.3335">
        <ele>98.4</ele>
        <time>2015-06-15T19:58:07.889Z</time>
      </trkpt>
      <trkpt lat="48.91179" lon="2.33346">
        <ele>98.9</ele>
        <time>2015-06-15T19:58:08.911Z</time>
      </trkpt>
      <trkpt lat="48.91175" lon="2.33341">
        <ele>99.3</ele>
        <time>2015-06-15T19:58:09.840Z</time>
      </trkpt>
      <trkpt lat="48.91171" lon="2.33336">
        <ele>99.7</ele>
        <time>2015-06-15T19:58:10.882Z</time>
      </trkpt>
      <trkpt lat="48.91168" lon="2.33332">
        <ele>99.8</ele>
        <time>2015-06-15T19:58:11.891Z</time>
      </trkpt>
      <trkpt lat="48.91163" lon="2.33329">
        <ele>100</ele>
        <time>2015-06-15T19:58:12.905Z</time>
      </trkpt>
      <trkpt lat="48.9116" lon="2.33324">
        <ele>100</ele>
        <time>2015-06-15T19:58:13.877Z</time>
      </trkpt>
      <trkpt lat="48.91156" lon="2.33316">
        <ele>99.1</ele>
        <time>2015-06-15T19:58:14.978Z</time>
      </trkpt>
      <trkpt lat="48.91153" lon="2.33308">
        <ele>98.8</ele>
        <time>2015-06-15T19:58:15.886Z</time>
      </trkpt>
      <trkpt lat="48.91149" lon="2.33301">
        <ele>98.5</ele>
        <time>2015-06-15T19:58:16.872Z</time>
      </trkpt>
      <trkpt lat="48.91145" lon="2.33295">
        <ele>98.4</ele>
        <time>2015-06-15T19:58:17.859Z</time>
      </trkpt>
      <trkpt lat="48.9114" lon="2.33289">
        <ele>98.6</ele>
        <time>2015-06-15T19:58:18.865Z</time>
      </trkpt>
      <trkpt lat="48.91136" lon="2.33283">
        <ele>98.4</ele>
        <time>2015-06-15T19:58:19.891Z</time>
      </trkpt>
      <trkpt lat="48.91132" lon="2.33278">
        <ele>98.7</ele>
        <time>2015-06-15T19:58:20.912Z</time>
      </trkpt>
      <trkpt lat="48.91127" lon="2.33272">
        <ele>98.9</ele>
        <time>2015-06-15T19:58:21.912Z</time>
      </trkpt>
      <trkpt lat="48.91123" lon="2.33266">
        <ele>98.6</ele>
        <time>2015-06-15T19:58:22.839Z</time>
      </trkpt>
      <trkpt lat="48.91119" lon="2.3326">
        <ele>98.3</ele>
        <time>2015-06-15T19:58:23.826Z</time>
      </trkpt>
      <trkpt lat="48.91114" lon="2.33254">
        <ele>98.3</ele>
        <time>2015-06-15T19:58:24.818Z</time>
      </trkpt>
      <trkpt lat="48.9111" lon="2.33248">
        <ele>98.2</ele>
        <time>2015-06-15T19:58:25.836Z</time>
      </trkpt>
      <trkpt lat="48.91106" lon="2.33242">
        <ele>97.7</ele>
        <time>2015-06-15T19:58:26.895Z</time>
      </trkpt>
      <trkpt lat="48.91101" lon="2.33236">
        <ele>97.6</ele>
        <time>2015-06-15T19:58:27.907Z</time>
      </trkpt>
      <trkpt lat="48.91097" lon="2.33229">
        <ele>97.4</ele>
        <time>2015-06-15T19:58:28.826Z</time>
      </trkpt>
      <trkpt lat="48.91093" lon="2.33222">
        <ele>97.1</ele>
        <time>2015-06-15T19:58:29.859Z</time>
      </trkpt>
      <trkpt lat="48.91089" lon="2.33214">
        <ele>96.3</ele>
        <time>2015-06-15T19:58:30.862Z</time>
      </trkpt>
      <trkpt lat="48.91085" lon="2.33207">
        <ele>96.1</ele>
        <time>2015-06-15T19:58:31.884Z</time>
      </trkpt>
      <trkpt lat="48.91081" lon="2.33198">
        <ele>96.3</ele>
        <time>2015-06-15T19:58:32.942Z</time>
      </trkpt>
      <trkpt lat="48.91077" lon="2.33191">
        <ele>96.3</ele>
        <time>2015-06-15T19:58:33.867Z</time>
      </trkpt>
      <trkpt lat="48.91073" lon="2.33184">
        <ele>96.2</ele>
        <time>2015-06-15T19:58:34.879Z</time>
      </trkpt>
      <trkpt lat="48.91069" lon="2.33176">
        <ele>96.3</ele>
        <time>2015-06-15T19:58:35.891Z</time>
      </trkpt>
      <trkpt lat="48.91065" lon="2.3317">
        <ele>96.5</ele>
        <time>2015-06-15T19:58:36.899Z</time>
      </trkpt>
      <trkpt lat="48.91061" lon="2.33164">
        <ele>96.6</ele>
        <time>2015-06-15T19:58:37.906Z</time>
      </trkpt>
      <trkpt lat="48.91057" lon="2.33157">
        <ele>96.6</ele>
        <time>2015-06-15T19:58:38.949Z</time>
      </trkpt>
      <trkpt lat="48.91053" lon="2.3315">
        <ele>96.5</ele>
        <time>2015-06-15T19:58:39.849Z</time>
      </trkpt>
      <trkpt lat="48.91049" lon="2.33142">
        <ele>95.8</ele>
        <time>2015-06-15T19:58:40.845Z</time>
      </trkpt>
      <trkpt lat="48.91045" lon="2.33135">
        <ele>95.6</ele>
        <time>2015-06-15T19:58:41.844Z</time>
      </trkpt>
      <trkpt lat="48.91041" lon="2.33128">
        <ele>95.8</ele>
        <time>2015-06-15T19:58:42.871Z</time>
      </trkpt>
      <trkpt lat="48.91037" lon="2.33122">
        <ele>95.5</ele>
        <time>2015-06-15T19:58:43.893Z</time>
      </trkpt>
      <trkpt lat="48.91033" lon="2.33116">
        <ele>95</ele>
        <time>2015-06-15T19:58:44.919Z</time>
      </trkpt>
      <trkpt lat="48.91028" lon="2.3311">
        <ele>94.9</ele>
        <time>2015-06-15T19:58:45.845Z</time>
      </trkpt>
      <trkpt lat="48.91024" lon="2.33103">
        <ele>94.7</ele>
        <time>2015-06-15T19:58:46.834Z</time>
      </trkpt>
      <trkpt lat="48.9102" lon="2.33096">
        <ele>94.7</ele>
        <time>2015-06-15T19:58:47.843Z</time>
      </trkpt>
      <trkpt lat="48.91017" lon="2.3309">
        <ele>94.6</ele>
        <time>2015-06-15T19:58:48.857Z</time>
      </trkpt>
      <trkpt lat="48.91013" lon="2.33084">
        <ele>94.1</ele>
        <time>2015-06-15T19:58:49.869Z</time>
      </trkpt>
      <trkpt lat="48.9101" lon="2.33078">
        <ele>93.7</ele>
        <time>2015-06-15T19:58:50.903Z</time>
      </trkpt>
      <trkpt lat="48.91006" lon="2.33072">
        <ele>93.5</ele>
        <time>2015-06-15T19:58:51.917Z</time>
      </trkpt>
      <trkpt lat="48.91002" lon="2.33067">
        <ele>94</ele>
        <time>2015-06-15T19:58:52.836Z</time>
      </trkpt>
      <trkpt lat="48.90998" lon="2.33061">
        <ele>94.5</ele>
        <time>2015-06-15T19:58:53.862Z</time>
      </trkpt>
      <trkpt lat="48.90994" lon="2.33056">
        <ele>94.7</ele>
        <time>2015-06-15T19:58:54.846Z</time>
      </trkpt>
      <trkpt lat="48.9099" lon="2.33049">
        <ele>94.8</ele>
        <time>2015-06-15T19:58:55.865Z</time>
      </trkpt>
      <trkpt lat="48.90986" lon="2.33042">
        <ele>94.8</ele>
        <time>2015-06-15T19:58:56.908Z</time>
      </trkpt>
      <trkpt lat="48.90982" lon="2.33034">
        <ele>94.9</ele>
        <time>2015-06-15T19:58:57.920Z</time>
      </trkpt>
      <trkpt lat="48.90979" lon="2.33027">
        <ele>94.7</ele>
        <time>2015-06-15T19:58:58.837Z</time>
      </trkpt>
      <trkpt lat="48.90974" lon="2.33021">
        <ele>94</ele>
        <time>2015-06-15T19:58:59.837Z</time>
      </trkpt>
      <trkpt lat="48.9097" lon="2.33013">
        <ele>93.9</ele>
        <time>2015-06-15T19:59:00.848Z</time>
      </trkpt>
      <trkpt lat="48.90965" lon="2.33006">
        <ele>93.5</ele>
        <time>2015-06-15T19:59:01.863Z</time>
      </trkpt>
      <trkpt lat="48.90961" lon="2.32997">
        <ele>92.7</ele>
        <time>2015-06-15T19:59:02.935Z</time>
      </trkpt>
      <trkpt lat="48.90957" lon="2.32988">
        <ele>92.3</ele>
        <time>2015-06-15T19:59:03.829Z</time>
      </trkpt>
      <trkpt lat="48.90953" lon="2.32981">
        <ele>92</ele>
        <time>2015-06-15T19:59:04.828Z</time>
      </trkpt>
      <trkpt lat="48.90949" lon="2.32974">
        <ele>92.1</ele>
        <time>2015-06-15T19:59:05.861Z</time>
      </trkpt>
      <trkpt lat="48.90945" lon="2.32966">
        <ele>92.6</ele>
        <time>2015-06-15T19:59:06.872Z</time>
      </trkpt>
      <trkpt lat="48.90941" lon="2.3296">
        <ele>93.1</ele>
        <time>2015-06-15T19:59:07.869Z</time>
      </trkpt>
      <trkpt lat="48.90936" lon="2.32955">
        <ele>93.5</ele>
        <time>2015-06-15T19:59:08.919Z</time>
      </trkpt>
      <trkpt lat="48.90931" lon="2.32949">
        <ele>93.4</ele>
        <time>2015-06-15T19:59:09.852Z</time>
      </trkpt>
      <trkpt lat="48.90925" lon="2.32942">
        <ele>93.2</ele>
        <time>2015-06-15T19:59:10.830Z</time>
      </trkpt>
      <trkpt lat="48.90919" lon="2.32936">
        <ele>92.7</ele>
        <time>2015-06-15T19:59:11.849Z</time>
      </trkpt>
      <trkpt lat="48.90915" lon="2.32929">
        <ele>92.5</ele>
        <time>2015-06-15T19:59:12.880Z</time>
      </trkpt>
      <trkpt lat="48.9091" lon="2.32922">
        <ele>92.3</ele>
        <time>2015-06-15T19:59:13.906Z</time>
      </trkpt>
      <trkpt lat="48.90906" lon="2.32915">
        <ele>91.6</ele>
        <time>2015-06-15T19:59:14.926Z</time>
      </trkpt>
      <trkpt lat="48.90901" lon="2.32908">
        <ele>91.2</ele>
        <time>2015-06-15T19:59:15.840Z</time>
      </trkpt>
      <trkpt lat="48.90898" lon="2.329">
        <ele>90.6</ele>
        <time>2015-06-15T19:59:16.854Z</time>
      </trkpt>
      <trkpt lat="48.90895" lon="2.32893">
        <ele>90.5</ele>
        <time>2015-06-15T19:59:17.891Z</time>
      </trkpt>
      <trkpt lat="48.90891" lon="2.32886">
        <ele>90</ele>
        <time>2015-06-15T19:59:18.843Z</time>
      </trkpt>
      <trkpt lat="48.90887" lon="2.3288">
        <ele>89.6</ele>
        <time>2015-06-15T19:59:19.849Z</time>
      </trkpt>
      <trkpt lat="48.90883" lon="2.32873">
        <ele>89.3</ele>
        <time>2015-06-15T19:59:20.925Z</time>
      </trkpt>
      <trkpt lat="48.9088" lon="2.32866">
        <ele>89</ele>
        <time>2015-06-15T19:59:21.811Z</time>
      </trkpt>
      <trkpt lat="48.90876" lon="2.3286">
        <ele>88.1</ele>
        <time>2015-06-15T19:59:22.829Z</time>
      </trkpt>
      <trkpt lat="48.90873" lon="2.32855">
        <ele>87.7</ele>
        <time>2015-06-15T19:59:23.841Z</time>
      </trkpt>
      <trkpt lat="48.90869" lon="2.32849">
        <ele>87.7</ele>
        <time>2015-06-15T19:59:24.846Z</time>
      </trkpt>
      <trkpt lat="48.90865" lon="2.32842">
        <ele>87.4</ele>
        <time>2015-06-15T19:59:25.856Z</time>
      </trkpt>
      <trkpt lat="48.90862" lon="2.32837">
        <ele>87.7</ele>
        <time>2015-06-15T19:59:26.884Z</time>
      </trkpt>
      <trkpt lat="48.90858" lon="2.32831">
        <ele>88</ele>
        <time>2015-06-15T19:59:27.897Z</time>
      </trkpt>
      <trkpt lat="48.90855" lon="2.32825">
        <ele>88.3</ele>
        <time>2015-06-15T19:59:28.908Z</time>
      </trkpt>
      <trkpt lat="48.90851" lon="2.32819">
        <ele>88.5</ele>
        <time>2015-06-15T19:59:29.828Z</time>
      </trkpt>
      <trkpt lat="48.90847" lon="2.32813">
        <ele>88.7</ele>
        <time>2015-06-15T19:59:30.830Z</time>
      </trkpt>
      <trkpt lat="48.90844" lon="2.32807">
        <ele>88.6</ele>
        <time>2015-06-15T19:59:31.859Z</time>
      </trkpt>
      <trkpt lat="48.90841" lon="2.32801">
        <ele>88.8</ele>
        <time>2015-06-15T19:59:32.893Z</time>
      </trkpt>
      <trkpt lat="48.90837" lon="2.32795">
        <ele>88.6</ele>
        <time>2015-06-15T19:59:33.889Z</time>
      </trkpt>
      <trkpt lat="48.90834" lon="2.32789">
        <ele>89</ele>
        <time>2015-06-15T19:59:34.899Z</time>
      </trkpt>
      <trkpt lat="48.90831" lon="2.32782">
        <ele>88.6</ele>
        <time>2015-06-15T19:59:35.906Z</time>
      </trkpt>
      <trkpt lat="48.90827" lon="2.32777">
        <ele>88.5</ele>
        <time>2015-06-15T19:59:36.911Z</time>
      </trkpt>
      <trkpt lat="48.90824" lon="2.32772">
        <ele>87.8</ele>
        <time>2015-06-15T19:59:37.834Z</time>
      </trkpt>
      <trkpt lat="48.90821" lon="2.32766">
        <ele>87.6</ele>
        <time>2015-06-15T19:59:38.892Z</time>
      </trkpt>
      <trkpt lat="48.90818" lon="2.32761">
        <ele>87.6</ele>
        <time>2015-06-15T19:59:39.895Z</time>
      </trkpt>
      <trkpt lat="48.90811" lon="2.32751">
        <ele>87.5</ele>
        <time>2015-06-15T19:59:41.909Z</time>
      </trkpt>
      <trkpt lat="48.90808" lon="2.32747">
        <ele>87.2</ele>
        <time>2015-06-15T19:59:42.868Z</time>
      </trkpt>
      <trkpt lat="48.90801" lon="2.32741">
        <ele>86.8</ele>
        <time>2015-06-15T19:59:44.903Z</time>
      </trkpt>
      <trkpt lat="48.90798" lon="2.32738">
        <ele>86.4</ele>
        <time>2015-06-15T19:59:45.801Z</time>
      </trkpt>
      <trkpt lat="48.90793" lon="2.32732">
        <ele>85.6</ele>
        <time>2015-06-15T19:59:47.889Z</time>
      </trkpt>
      <trkpt lat="48.90791" lon="2.32728">
        <ele>85.6</ele>
        <time>2015-06-15T19:59:48.799Z</time>
      </trkpt>
      <trkpt lat="48.90786" lon="2.32719">
        <ele>85.3</ele>
        <time>2015-06-15T19:59:50.907Z</time>
      </trkpt>
      <trkpt lat="48.90783" lon="2.32714">
        <ele>85.2</ele>
        <time>2015-06-15T19:59:52.001Z</time>
      </trkpt>
      <trkpt lat="48.90778" lon="2.32704">
        <ele>84.5</ele>
        <time>2015-06-15T19:59:53.874Z</time>
      </trkpt>
      <trkpt lat="48.90776" lon="2.32699">
        <ele>84.5</ele>
        <time>2015-06-15T19:59:54.897Z</time>
      </trkpt>
      <trkpt lat="48.9077" lon="2.3269">
        <ele>84.6</ele>
        <time>2015-06-15T19:59:56.922Z</time>
      </trkpt>
      <trkpt lat="48.90767" lon="2.32686">
        <ele>84.5</ele>
        <time>2015-06-15T19:59:57.873Z</time>
      </trkpt>
      <trkpt lat="48.90761" lon="2.32678">
        <ele>85</ele>
        <time>2015-06-15T19:59:59.882Z</time>
      </trkpt>
      <trkpt lat="48.90758" lon="2.32673">
        <ele>85.1</ele>
        <time>2015-06-15T20:00:00.896Z</time>
      </trkpt>
      <trkpt lat="48.90755" lon="2.32668">
        <ele>85.1</ele>
        <time>2015-06-15T20:00:01.852Z</time>
      </trkpt>
      <trkpt lat="48.90752" lon="2.32663">
        <ele>85.5</ele>
        <time>2015-06-15T20:00:02.978Z</time>
      </trkpt>
      <trkpt lat="48.90745" lon="2.32654">
        <ele>85.4</ele>
        <time>2015-06-15T20:00:04.850Z</time>
      </trkpt>
      <trkpt lat="48.90742" lon="2.32649">
        <ele>85.2</ele>
        <time>2015-06-15T20:00:05.859Z</time>
      </trkpt>
      <trkpt lat="48.90739" lon="2.32643">
        <ele>84.9</ele>
        <time>2015-06-15T20:00:06.888Z</time>
      </trkpt>
      <trkpt lat="48.90736" lon="2.32637">
        <ele>84.8</ele>
        <time>2015-06-15T20:00:07.891Z</time>
      </trkpt>
      <trkpt lat="48.90732" lon="2.32631">
        <ele>84.7</ele>
        <time>2015-06-15T20:00:08.960Z</time>
      </trkpt>
      <trkpt lat="48.90729" lon="2.32625">
        <ele>84.5</ele>
        <time>2015-06-15T20:00:09.822Z</time>
      </trkpt>
      <trkpt lat="48.90723" lon="2.32616">
        <ele>84.8</ele>
        <time>2015-06-15T20:00:11.846Z</time>
      </trkpt>
      <trkpt lat="48.9072" lon="2.32611">
        <ele>85</ele>
        <time>2015-06-15T20:00:12.834Z</time>
      </trkpt>
      <trkpt lat="48.90717" lon="2.32606">
        <ele>85.1</ele>
        <time>2015-06-15T20:00:13.827Z</time>
      </trkpt>
      <trkpt lat="48.90713" lon="2.326">
        <ele>85.2</ele>
        <time>2015-06-15T20:00:14.897Z</time>
      </trkpt>
      <trkpt lat="48.90709" lon="2.32594">
        <ele>85.3</ele>
        <time>2015-06-15T20:00:15.833Z</time>
      </trkpt>
      <trkpt lat="48.90705" lon="2.32588">
        <ele>85.6</ele>
        <time>2015-06-15T20:00:16.836Z</time>
      </trkpt>
      <trkpt lat="48.907" lon="2.32581">
        <ele>85.7</ele>
        <time>2015-06-15T20:00:17.923Z</time>
      </trkpt>
      <trkpt lat="48.90696" lon="2.32574">
        <ele>85.8</ele>
        <time>2015-06-15T20:00:18.833Z</time>
      </trkpt>
      <trkpt lat="48.90691" lon="2.32567">
        <ele>85.7</ele>
        <time>2015-06-15T20:00:19.825Z</time>
      </trkpt>
      <trkpt lat="48.90686" lon="2.3256">
        <ele>86.1</ele>
        <time>2015-06-15T20:00:20.921Z</time>
      </trkpt>
      <trkpt lat="48.90682" lon="2.32553">
        <ele>86.5</ele>
        <time>2015-06-15T20:00:21.820Z</time>
      </trkpt>
      <trkpt lat="48.90677" lon="2.32545">
        <ele>86.8</ele>
        <time>2015-06-15T20:00:22.821Z</time>
      </trkpt>
      <trkpt lat="48.90671" lon="2.32537">
        <ele>86.9</ele>
        <time>2015-06-15T20:00:23.838Z</time>
      </trkpt>
      <trkpt lat="48.90666" lon="2.32529">
        <ele>86.9</ele>
        <time>2015-06-15T20:00:24.840Z</time>
      </trkpt>
      <trkpt lat="48.90662" lon="2.32522">
        <ele>86.6</ele>
        <time>2015-06-15T20:00:25.867Z</time>
      </trkpt>
      <trkpt lat="48.90657" lon="2.32515">
        <ele>86.6</ele>
        <time>2015-06-15T20:00:26.886Z</time>
      </trkpt>
      <trkpt lat="48.90652" lon="2.32507">
        <ele>86.9</ele>
        <time>2015-06-15T20:00:27.900Z</time>
      </trkpt>
      <trkpt lat="48.90647" lon="2.32499">
        <ele>86.8</ele>
        <time>2015-06-15T20:00:28.819Z</time>
      </trkpt>
      <trkpt lat="48.90642" lon="2.32491">
        <ele>86.8</ele>
        <time>2015-06-15T20:00:29.814Z</time>
      </trkpt>
      <trkpt lat="48.90637" lon="2.32483">
        <ele>86.7</ele>
        <time>2015-06-15T20:00:30.822Z</time>
      </trkpt>
      <trkpt lat="48.90632" lon="2.32474">
        <ele>87</ele>
        <time>2015-06-15T20:00:31.849Z</time>
      </trkpt>
      <trkpt lat="48.90627" lon="2.32466">
        <ele>87.2</ele>
        <time>2015-06-15T20:00:32.923Z</time>
      </trkpt>
      <trkpt lat="48.90623" lon="2.3246">
        <ele>87.2</ele>
        <time>2015-06-15T20:00:33.820Z</time>
      </trkpt>
      <trkpt lat="48.90619" lon="2.32453">
        <ele>87.4</ele>
        <time>2015-06-15T20:00:34.827Z</time>
      </trkpt>
      <trkpt lat="48.90614" lon="2.32447">
        <ele>87.4</ele>
        <time>2015-06-15T20:00:35.843Z</time>
      </trkpt>
      <trkpt lat="48.90611" lon="2.32441">
        <ele>87.7</ele>
        <time>2015-06-15T20:00:36.860Z</time>
      </trkpt>
      <trkpt lat="48.90607" lon="2.32436">
        <ele>87.9</ele>
        <time>2015-06-15T20:00:37.861Z</time>
      </trkpt>
      <trkpt lat="48.90604" lon="2.3243">
        <ele>87.8</ele>
        <time>2015-06-15T20:00:38.882Z</time>
      </trkpt>
      <trkpt lat="48.906" lon="2.32425">
        <ele>87.9</ele>
        <time>2015-06-15T20:00:39.827Z</time>
      </trkpt>
      <trkpt lat="48.90597" lon="2.32419">
        <ele>87.9</ele>
        <time>2015-06-15T20:00:40.842Z</time>
      </trkpt>
      <trkpt lat="48.90593" lon="2.32414">
        <ele>88</ele>
        <time>2015-06-15T20:00:41.901Z</time>
      </trkpt>
      <trkpt lat="48.9059" lon="2.32409">
        <ele>88.2</ele>
        <time>2015-06-15T20:00:42.806Z</time>
      </trkpt>
      <trkpt lat="48.90584" lon="2.324">
        <ele>89</ele>
        <time>2015-06-15T20:00:44.860Z</time>
      </trkpt>
      <trkpt lat="48.90581" lon="2.32395">
        <ele>89.3</ele>
        <time>2015-06-15T20:00:45.899Z</time>
      </trkpt>
      <trkpt lat="48.90577" lon="2.32386">
        <ele>89.9</ele>
        <time>2015-06-15T20:00:47.811Z</time>
      </trkpt>
      <trkpt lat="48.90574" lon="2.32381">
        <ele>90.3</ele>
        <time>2015-06-15T20:00:48.826Z</time>
      </trkpt>
      <trkpt lat="48.90569" lon="2.3237">
        <ele>89.9</ele>
        <time>2015-06-15T20:00:50.978Z</time>
      </trkpt>
      <trkpt lat="48.90567" lon="2.32364">
        <ele>89.3</ele>
        <time>2015-06-15T20:00:51.826Z</time>
      </trkpt>
      <trkpt lat="48.90563" lon="2.32355">
        <ele>89.3</ele>
        <time>2015-06-15T20:00:53.891Z</time>
      </trkpt>
      <trkpt lat="48.90561" lon="2.32351">
        <ele>89.8</ele>
        <time>2015-06-15T20:00:54.845Z</time>
      </trkpt>
      <trkpt lat="48.90555" lon="2.32342">
        <ele>90.8</ele>
        <time>2015-06-15T20:00:56.876Z</time>
      </trkpt>
      <trkpt lat="48.90551" lon="2.32338">
        <ele>91.3</ele>
        <time>2015-06-15T20:00:57.894Z</time>
      </trkpt>
      <trkpt lat="48.90546" lon="2.3233">
        <ele>91.8</ele>
        <time>2015-06-15T20:00:59.825Z</time>
      </trkpt>
      <trkpt lat="48.90544" lon="2.32325">
        <ele>91.8</ele>
        <time>2015-06-15T20:01:00.834Z</time>
      </trkpt>
      <trkpt lat="48.90543" lon="2.32319">
        <ele>91.8</ele>
        <time>2015-06-15T20:01:01.849Z</time>
      </trkpt>
      <trkpt lat="48.90541" lon="2.32312">
        <ele>91.6</ele>
        <time>2015-06-15T20:01:02.944Z</time>
      </trkpt>
      <trkpt lat="48.90538" lon="2.32306">
        <ele>91.5</ele>
        <time>2015-06-15T20:01:03.831Z</time>
      </trkpt>
      <trkpt lat="48.90535" lon="2.323">
        <ele>91.4</ele>
        <time>2015-06-15T20:01:04.837Z</time>
      </trkpt>
      <trkpt lat="48.90532" lon="2.32294">
        <ele>91</ele>
        <time>2015-06-15T20:01:05.858Z</time>
      </trkpt>
      <trkpt lat="48.90529" lon="2.32288">
        <ele>90.9</ele>
        <time>2015-06-15T20:01:06.875Z</time>
      </trkpt>
      <trkpt lat="48.90527" lon="2.32282">
        <ele>91</ele>
        <time>2015-06-15T20:01:07.897Z</time>
      </trkpt>
      <trkpt lat="48.90524" lon="2.32276">
        <ele>90.4</ele>
        <time>2015-06-15T20:01:08.910Z</time>
      </trkpt>
      <trkpt lat="48.90521" lon="2.32265">
        <ele>90.3</ele>
        <time>2015-06-15T20:01:10.858Z</time>
      </trkpt>
      <trkpt lat="48.90519" lon="2.32259">
        <ele>90.5</ele>
        <time>2015-06-15T20:01:11.871Z</time>
      </trkpt>
      <trkpt lat="48.90517" lon="2.32247">
        <ele>90.2</ele>
        <time>2015-06-15T20:01:13.911Z</time>
      </trkpt>
      <trkpt lat="48.90516" lon="2.32241">
        <ele>90.2</ele>
        <time>2015-06-15T20:01:14.841Z</time>
      </trkpt>
      <trkpt lat="48.90515" lon="2.32229">
        <ele>90.2</ele>
        <time>2015-06-15T20:01:16.911Z</time>
      </trkpt>
      <trkpt lat="48.90515" lon="2.32222">
        <ele>90.6</ele>
        <time>2015-06-15T20:01:17.819Z</time>
      </trkpt>
      <trkpt lat="48.90517" lon="2.32212">
        <ele>90.7</ele>
        <time>2015-06-15T20:01:19.846Z</time>
      </trkpt>
      <trkpt lat="48.90518" lon="2.32208">
        <ele>90.9</ele>
        <time>2015-06-15T20:01:20.878Z</time>
      </trkpt>
      <trkpt lat="48.90518" lon="2.32195">
        <ele>97.2</ele>
        <time>2015-06-15T20:01:23.842Z</time>
      </trkpt>
      <trkpt lat="48.90518" lon="2.32193">
        <ele>98.8</ele>
        <time>2015-06-15T20:01:24.896Z</time>
      </trkpt>
      <trkpt lat="48.9052" lon="2.32182">
        <ele>104.5</ele>
        <time>2015-06-15T20:01:28.822Z</time>
      </trkpt>
      <trkpt lat="48.90522" lon="2.3218">
        <ele>104.9</ele>
        <time>2015-06-15T20:01:29.847Z</time>
      </trkpt>
      <trkpt lat="48.90517" lon="2.32171">
        <ele>106.8</ele>
        <time>2015-06-15T20:01:35.812Z</time>
      </trkpt>
      <trkpt lat="48.90516" lon="2.32168">
        <ele>106</ele>
        <time>2015-06-15T20:01:36.832Z</time>
      </trkpt>
      <trkpt lat="48.90511" lon="2.32159">
        <ele>105.1</ele>
        <time>2015-06-15T20:01:38.852Z</time>
      </trkpt>
      <trkpt lat="48.90508" lon="2.32155">
        <ele>104.8</ele>
        <time>2015-06-15T20:01:39.870Z</time>
      </trkpt>
      <trkpt lat="48.90504" lon="2.32151">
        <ele>104.4</ele>
        <time>2015-06-15T20:01:40.882Z</time>
      </trkpt>
      <trkpt lat="48.905" lon="2.32147">
        <ele>104</ele>
        <time>2015-06-15T20:01:41.862Z</time>
      </trkpt>
      <trkpt lat="48.90493" lon="2.32138">
        <ele>103</ele>
        <time>2015-06-15T20:01:43.822Z</time>
      </trkpt>
      <trkpt lat="48.90491" lon="2.32134">
        <ele>102.4</ele>
        <time>2015-06-15T20:01:44.859Z</time>
      </trkpt>
      <trkpt lat="48.90486" lon="2.32127">
        <ele>101.6</ele>
        <time>2015-06-15T20:01:46.891Z</time>
      </trkpt>
      <trkpt lat="48.90483" lon="2.32124">
        <ele>101.5</ele>
        <time>2015-06-15T20:01:47.896Z</time>
      </trkpt>
      <trkpt lat="48.90479" lon="2.3212">
        <ele>101.5</ele>
        <time>2015-06-15T20:01:48.817Z</time>
      </trkpt>
      <trkpt lat="48.90475" lon="2.32117">
        <ele>101.3</ele>
        <time>2015-06-15T20:01:49.846Z</time>
      </trkpt>
      <trkpt lat="48.90467" lon="2.32112">
        <ele>101.3</ele>
        <time>2015-06-15T20:01:51.900Z</time>
      </trkpt>
      <trkpt lat="48.90464" lon="2.32109">
        <ele>101.8</ele>
        <time>2015-06-15T20:01:52.820Z</time>
      </trkpt>
      <trkpt lat="48.90459" lon="2.32108">
        <ele>101.2</ele>
        <time>2015-06-15T20:01:53.820Z</time>
      </trkpt>
      <trkpt lat="48.90455" lon="2.32107">
        <ele>100.5</ele>
        <time>2015-06-15T20:01:54.833Z</time>
      </trkpt>
      <trkpt lat="48.90448" lon="2.32107">
        <ele>99.3</ele>
        <time>2015-06-15T20:01:56.885Z</time>
      </trkpt>
      <trkpt lat="48.90444" lon="2.32109">
        <ele>98.8</ele>
        <time>2015-06-15T20:01:57.893Z</time>
      </trkpt>
      <trkpt lat="48.90439" lon="2.32109">
        <ele>98.6</ele>
        <time>2015-06-15T20:01:58.902Z</time>
      </trkpt>
      <trkpt lat="48.90434" lon="2.32109">
        <ele>98.9</ele>
        <time>2015-06-15T20:01:59.796Z</time>
      </trkpt>
      <trkpt lat="48.90429" lon="2.32109">
        <ele>99</ele>
        <time>2015-06-15T20:02:00.817Z</time>
      </trkpt>
      <trkpt lat="48.90424" lon="2.32107">
        <ele>98.9</ele>
        <time>2015-06-15T20:02:01.829Z</time>
      </trkpt>
      <trkpt lat="48.90419" lon="2.32106">
        <ele>99.1</ele>
        <time>2015-06-15T20:02:03.174Z</time>
      </trkpt>
      <trkpt lat="48.90415" lon="2.32104">
        <ele>99.2</ele>
        <time>2015-06-15T20:02:03.889Z</time>
      </trkpt>
      <trkpt lat="48.90406" lon="2.32102">
        <ele>99.4</ele>
        <time>2015-06-15T20:02:05.779Z</time>
      </trkpt>
      <trkpt lat="48.90401" lon="2.32102">
        <ele>99.6</ele>
        <time>2015-06-15T20:02:06.788Z</time>
      </trkpt>
      <trkpt lat="48.90396" lon="2.32101">
        <ele>99.6</ele>
        <time>2015-06-15T20:02:08.244Z</time>
      </trkpt>
      <trkpt lat="48.90391" lon="2.321">
        <ele>99.9</ele>
        <time>2015-06-15T20:02:08.831Z</time>
      </trkpt>
      <trkpt lat="48.90386" lon="2.32098">
        <ele>100.1</ele>
        <time>2015-06-15T20:02:09.860Z</time>
      </trkpt>
      <trkpt lat="48.90382" lon="2.32094">
        <ele>100.3</ele>
        <time>2015-06-15T20:02:10.867Z</time>
      </trkpt>
      <trkpt lat="48.90376" lon="2.32086">
        <ele>98.9</ele>
        <time>2015-06-15T20:02:12.883Z</time>
      </trkpt>
      <trkpt lat="48.90375" lon="2.32079">
        <ele>97.7</ele>
        <time>2015-06-15T20:02:13.834Z</time>
      </trkpt>
      <trkpt lat="48.9037" lon="2.32069">
        <ele>96.9</ele>
        <time>2015-06-15T20:02:15.805Z</time>
      </trkpt>
      <trkpt lat="48.90368" lon="2.32063">
        <ele>96.8</ele>
        <time>2015-06-15T20:02:16.949Z</time>
      </trkpt>
      <trkpt lat="48.90363" lon="2.32056">
        <ele>95.5</ele>
        <time>2015-06-15T20:02:18.802Z</time>
      </trkpt>
      <trkpt lat="48.90361" lon="2.32053">
        <ele>95.3</ele>
        <time>2015-06-15T20:02:19.831Z</time>
      </trkpt>
      <trkpt lat="48.90357" lon="2.32044">
        <ele>95</ele>
        <time>2015-06-15T20:02:21.808Z</time>
      </trkpt>
      <trkpt lat="48.90355" lon="2.3204">
        <ele>94.7</ele>
        <time>2015-06-15T20:02:22.828Z</time>
      </trkpt>
      <trkpt lat="48.90351" lon="2.32031">
        <ele>94.3</ele>
        <time>2015-06-15T20:02:24.873Z</time>
      </trkpt>
      <trkpt lat="48.90348" lon="2.32026">
        <ele>94.2</ele>
        <time>2015-06-15T20:02:25.835Z</time>
      </trkpt>
      <trkpt lat="48.90346" lon="2.3202">
        <ele>94.3</ele>
        <time>2015-06-15T20:02:26.853Z</time>
      </trkpt>
      <trkpt lat="48.90343" lon="2.32015">
        <ele>94</ele>
        <time>2015-06-15T20:02:27.836Z</time>
      </trkpt>
      <trkpt lat="48.90341" lon="2.32008">
        <ele>93.6</ele>
        <time>2015-06-15T20:02:28.907Z</time>
      </trkpt>
      <trkpt lat="48.9034" lon="2.32001">
        <ele>93.1</ele>
        <time>2015-06-15T20:02:29.806Z</time>
      </trkpt>
      <trkpt lat="48.90337" lon="2.31995">
        <ele>92.7</ele>
        <time>2015-06-15T20:02:30.809Z</time>
      </trkpt>
      <trkpt lat="48.90335" lon="2.31989">
        <ele>92.1</ele>
        <time>2015-06-15T20:02:31.831Z</time>
      </trkpt>
      <trkpt lat="48.90332" lon="2.31983">
        <ele>92.1</ele>
        <time>2015-06-15T20:02:32.874Z</time>
      </trkpt>
      <trkpt lat="48.90329" lon="2.31978">
        <ele>92.1</ele>
        <time>2015-06-15T20:02:33.884Z</time>
      </trkpt>
      <trkpt lat="48.90327" lon="2.31972">
        <ele>92.3</ele>
        <time>2015-06-15T20:02:34.807Z</time>
      </trkpt>
      <trkpt lat="48.90324" lon="2.31967">
        <ele>92.6</ele>
        <time>2015-06-15T20:02:35.812Z</time>
      </trkpt>
      <trkpt lat="48.90319" lon="2.31961">
        <ele>92.6</ele>
        <time>2015-06-15T20:02:36.816Z</time>
      </trkpt>
      <trkpt lat="48.90316" lon="2.31956">
        <ele>93</ele>
        <time>2015-06-15T20:02:37.817Z</time>
      </trkpt>
      <trkpt lat="48.9031" lon="2.31948">
        <ele>93.3</ele>
        <time>2015-06-15T20:02:39.894Z</time>
      </trkpt>
      <trkpt lat="48.90307" lon="2.31943">
        <ele>93.3</ele>
        <time>2015-06-15T20:02:40.858Z</time>
      </trkpt>
      <trkpt lat="48.90302" lon="2.31935">
        <ele>93.4</ele>
        <time>2015-06-15T20:02:42.823Z</time>
      </trkpt>
      <trkpt lat="48.903" lon="2.3193">
        <ele>93.7</ele>
        <time>2015-06-15T20:02:43.848Z</time>
      </trkpt>
      <trkpt lat="48.90294" lon="2.31922">
        <ele>93.9</ele>
        <time>2015-06-15T20:02:45.814Z</time>
      </trkpt>
      <trkpt lat="48.90291" lon="2.31915">
        <ele>93.5</ele>
        <time>2015-06-15T20:02:46.855Z</time>
      </trkpt>
      <trkpt lat="48.90285" lon="2.31906">
        <ele>93.2</ele>
        <time>2015-06-15T20:02:48.852Z</time>
      </trkpt>
      <trkpt lat="48.90281" lon="2.31901">
        <ele>93.2</ele>
        <time>2015-06-15T20:02:49.779Z</time>
      </trkpt>
      <trkpt lat="48.90277" lon="2.31895">
        <ele>93.3</ele>
        <time>2015-06-15T20:02:50.872Z</time>
      </trkpt>
      <trkpt lat="48.90273" lon="2.3189">
        <ele>93.3</ele>
        <time>2015-06-15T20:02:51.861Z</time>
      </trkpt>
      <trkpt lat="48.9027" lon="2.31884">
        <ele>92.8</ele>
        <time>2015-06-15T20:02:52.864Z</time>
      </trkpt>
      <trkpt lat="48.90266" lon="2.3188">
        <ele>92.2</ele>
        <time>2015-06-15T20:02:53.832Z</time>
      </trkpt>
      <trkpt lat="48.90262" lon="2.31873">
        <ele>90.7</ele>
        <time>2015-06-15T20:02:55.779Z</time>
      </trkpt>
      <trkpt lat="48.90259" lon="2.31869">
        <ele>90.6</ele>
        <time>2015-06-15T20:02:56.851Z</time>
      </trkpt>
      <trkpt lat="48.90254" lon="2.31862">
        <ele>90.3</ele>
        <time>2015-06-15T20:02:58.827Z</time>
      </trkpt>
      <trkpt lat="48.90252" lon="2.31858">
        <ele>90.4</ele>
        <time>2015-06-15T20:02:59.829Z</time>
      </trkpt>
      <trkpt lat="48.90248" lon="2.3185">
        <ele>90.9</ele>
        <time>2015-06-15T20:03:01.843Z</time>
      </trkpt>
      <trkpt lat="48.90246" lon="2.31846">
        <ele>91</ele>
        <time>2015-06-15T20:03:02.875Z</time>
      </trkpt>
      <trkpt lat="48.9024" lon="2.31838">
        <ele>90.9</ele>
        <time>2015-06-15T20:03:05.811Z</time>
      </trkpt>
      <trkpt lat="48.90237" lon="2.31836">
        <ele>91.1</ele>
        <time>2015-06-15T20:03:06.820Z</time>
      </trkpt>
      <trkpt lat="48.9023" lon="2.31829">
        <ele>91.5</ele>
        <time>2015-06-15T20:03:09.843Z</time>
      </trkpt>
      <trkpt lat="48.90227" lon="2.31826">
        <ele>91</ele>
        <time>2015-06-15T20:03:10.875Z</time>
      </trkpt>
      <trkpt lat="48.90221" lon="2.31823">
        <ele>91.1</ele>
        <time>2015-06-15T20:03:13.416Z</time>
      </trkpt>
      <trkpt lat="48.90218" lon="2.31822">
        <ele>90.8</ele>
        <time>2015-06-15T20:03:13.897Z</time>
      </trkpt>
      <trkpt lat="48.9021" lon="2.31824">
        <ele>90.3</ele>
        <time>2015-06-15T20:03:16.817Z</time>
      </trkpt>
      <trkpt lat="48.90209" lon="2.31824">
        <ele>90.4</ele>
        <time>2015-06-15T20:03:17.823Z</time>
      </trkpt>
      <trkpt lat="48.90202" lon="2.31821">
        <ele>91.5</ele>
        <time>2015-06-15T20:03:29.874Z</time>
      </trkpt>
      <trkpt lat="48.90199" lon="2.31823">
        <ele>93.7</ele>
        <time>2015-06-15T20:03:30.836Z</time>
      </trkpt>
      <trkpt lat="48.90194" lon="2.31831">
        <ele>94.8</ele>
        <time>2015-06-15T20:03:32.871Z</time>
      </trkpt>
      <trkpt lat="48.90191" lon="2.31835">
        <ele>95</ele>
        <time>2015-06-15T20:03:33.894Z</time>
      </trkpt>
      <trkpt lat="48.90187" lon="2.31842">
        <ele>95.8</ele>
        <time>2015-06-15T20:03:35.850Z</time>
      </trkpt>
      <trkpt lat="48.90185" lon="2.31846">
        <ele>96.5</ele>
        <time>2015-06-15T20:03:36.834Z</time>
      </trkpt>
      <trkpt lat="48.9018" lon="2.31856">
        <ele>96.9</ele>
        <time>2015-06-15T20:03:39.205Z</time>
      </trkpt>
      <trkpt lat="48.90176" lon="2.31862">
        <ele>98</ele>
        <time>2015-06-15T20:03:39.805Z</time>
      </trkpt>
      <trkpt lat="48.90174" lon="2.3187">
        <ele>98.9</ele>
        <time>2015-06-15T20:03:40.832Z</time>
      </trkpt>
      <trkpt lat="48.9017" lon="2.31878">
        <ele>99.1</ele>
        <time>2015-06-15T20:03:41.905Z</time>
      </trkpt>
      <trkpt lat="48.90167" lon="2.31885">
        <ele>99.4</ele>
        <time>2015-06-15T20:03:42.893Z</time>
      </trkpt>
      <trkpt lat="48.90163" lon="2.3189">
        <ele>99.9</ele>
        <time>2015-06-15T20:03:43.936Z</time>
      </trkpt>
      <trkpt lat="48.90159" lon="2.31899">
        <ele>102</ele>
        <time>2015-06-15T20:03:45.883Z</time>
      </trkpt>
      <trkpt lat="48.90157" lon="2.31903">
        <ele>102.6</ele>
        <time>2015-06-15T20:03:46.776Z</time>
      </trkpt>
      <trkpt lat="48.90151" lon="2.3191">
        <ele>103</ele>
        <time>2015-06-15T20:03:49.544Z</time>
      </trkpt>
      <trkpt lat="48.90149" lon="2.31914">
        <ele>103.1</ele>
        <time>2015-06-15T20:03:49.784Z</time>
      </trkpt>
      <trkpt lat="48.90144" lon="2.3192">
        <ele>103.3</ele>
        <time>2015-06-15T20:03:51.784Z</time>
      </trkpt>
      <trkpt lat="48.90142" lon="2.31923">
        <ele>103.6</ele>
        <time>2015-06-15T20:03:52.816Z</time>
      </trkpt>
      <trkpt lat="48.90136" lon="2.3193">
        <ele>104.1</ele>
        <time>2015-06-15T20:03:54.777Z</time>
      </trkpt>
      <trkpt lat="48.90133" lon="2.31933">
        <ele>104.2</ele>
        <time>2015-06-15T20:03:55.821Z</time>
      </trkpt>
      <trkpt lat="48.90127" lon="2.31942">
        <ele>104.8</ele>
        <time>2015-06-15T20:03:58.205Z</time>
      </trkpt>
      <trkpt lat="48.90124" lon="2.31945">
        <ele>106.5</ele>
        <time>2015-06-15T20:03:58.910Z</time>
      </trkpt>
      <trkpt lat="48.9012" lon="2.31955">
        <ele>104.6</ele>
        <time>2015-06-15T20:04:00.834Z</time>
      </trkpt>
      <trkpt lat="48.90116" lon="2.31962">
        <ele>104.5</ele>
        <time>2015-06-15T20:04:01.852Z</time>
      </trkpt>
      <trkpt lat="48.90111" lon="2.31969">
        <ele>103.3</ele>
        <time>2015-06-15T20:04:03.273Z</time>
      </trkpt>
      <trkpt lat="48.90108" lon="2.31975">
        <ele>103.4</ele>
        <time>2015-06-15T20:04:03.900Z</time>
      </trkpt>
      <trkpt lat="48.90102" lon="2.31985">
        <ele>103.6</ele>
        <time>2015-06-15T20:04:05.820Z</time>
      </trkpt>
      <trkpt lat="48.901" lon="2.31989">
        <ele>103.9</ele>
        <time>2015-06-15T20:04:06.823Z</time>
      </trkpt>
      <trkpt lat="48.90097" lon="2.31996">
        <ele>104.4</ele>
        <time>2015-06-15T20:04:08.901Z</time>
      </trkpt>
      <trkpt lat="48.90094" lon="2.32">
        <ele>104.6</ele>
        <time>2015-06-15T20:04:09.915Z</time>
      </trkpt>
      <trkpt lat="48.90089" lon="2.32009">
        <ele>104.9</ele>
        <time>2015-06-15T20:04:11.812Z</time>
      </trkpt>
      <trkpt lat="48.90086" lon="2.32013">
        <ele>104.8</ele>
        <time>2015-06-15T20:04:12.857Z</time>
      </trkpt>
      <trkpt lat="48.9008" lon="2.3202">
        <ele>104.8</ele>
        <time>2015-06-15T20:04:15.886Z</time>
      </trkpt>
      <trkpt lat="48.90077" lon="2.32025">
        <ele>105</ele>
        <time>2015-06-15T20:04:16.814Z</time>
      </trkpt>
      <trkpt lat="48.90072" lon="2.32035">
        <ele>105.7</ele>
        <time>2015-06-15T20:04:18.839Z</time>
      </trkpt>
      <trkpt lat="48.9007" lon="2.3204">
        <ele>106</ele>
        <time>2015-06-15T20:04:19.783Z</time>
      </trkpt>
      <trkpt lat="48.90064" lon="2.32047">
        <ele>105.9</ele>
        <time>2015-06-15T20:04:21.834Z</time>
      </trkpt>
      <trkpt lat="48.90062" lon="2.3205">
        <ele>105.8</ele>
        <time>2015-06-15T20:04:22.829Z</time>
      </trkpt>
      <trkpt lat="48.90054" lon="2.32053">
        <ele>105.2</ele>
        <time>2015-06-15T20:04:26.926Z</time>
      </trkpt>
      <trkpt lat="48.90053" lon="2.32052">
        <ele>105.3</ele>
        <time>2015-06-15T20:04:27.832Z</time>
      </trkpt>
      <trkpt lat="48.90049" lon="2.32044">
        <ele>104.9</ele>
        <time>2015-06-15T20:04:30.877Z</time>
      </trkpt>
      <trkpt lat="48.90046" lon="2.32041">
        <ele>104.8</ele>
        <time>2015-06-15T20:04:31.805Z</time>
      </trkpt>
      <trkpt lat="48.90043" lon="2.32028">
        <ele>103.5</ele>
        <time>2015-06-15T20:04:34.979Z</time>
      </trkpt>
      <trkpt lat="48.90042" lon="2.32024">
        <ele>103.1</ele>
        <time>2015-06-15T20:04:35.823Z</time>
      </trkpt>
      <trkpt lat="48.9004" lon="2.32015">
        <ele>102</ele>
        <time>2015-06-15T20:04:37.842Z</time>
      </trkpt>
      <trkpt lat="48.90038" lon="2.3201">
        <ele>101.9</ele>
        <time>2015-06-15T20:04:38.858Z</time>
      </trkpt>
      <trkpt lat="48.90036" lon="2.32001">
        <ele>101.4</ele>
        <time>2015-06-15T20:04:40.891Z</time>
      </trkpt>
      <trkpt lat="48.90034" lon="2.31997">
        <ele>101</ele>
        <time>2015-06-15T20:04:41.906Z</time>
      </trkpt>
      <trkpt lat="48.90031" lon="2.31988">
        <ele>100.9</ele>
        <time>2015-06-15T20:04:43.794Z</time>
      </trkpt>
      <trkpt lat="48.9003" lon="2.31985">
        <ele>100.7</ele>
        <time>2015-06-15T20:04:44.924Z</time>
      </trkpt>
      <trkpt lat="48.90026" lon="2.31973">
        <ele>100.8</ele>
        <time>2015-06-15T20:04:47.876Z</time>
      </trkpt>
      <trkpt lat="48.90025" lon="2.31968">
        <ele>101</ele>
        <time>2015-06-15T20:04:48.894Z</time>
      </trkpt>
      <trkpt lat="48.90022" lon="2.3196">
        <ele>101</ele>
        <time>2015-06-15T20:04:50.919Z</time>
      </trkpt>
      <trkpt lat="48.90021" lon="2.31956">
        <ele>101.1</ele>
        <time>2015-06-15T20:04:51.823Z</time>
      </trkpt>
      <trkpt lat="48.90015" lon="2.31945">
        <ele>101.2</ele>
        <time>2015-06-15T20:04:55.332Z</time>
      </trkpt>
      <trkpt lat="48.90013" lon="2.31942">
        <ele>101.5</ele>
        <time>2015-06-15T20:04:55.890Z</time>
      </trkpt>
      <trkpt lat="48.90008" lon="2.31934">
        <ele>101.4</ele>
        <time>2015-06-15T20:04:58.087Z</time>
      </trkpt>
      <trkpt lat="48.90006" lon="2.3193">
        <ele>101.5</ele>
        <time>2015-06-15T20:04:58.820Z</time>
      </trkpt>
      <trkpt lat="48.90001" lon="2.31923">
        <ele>101.5</ele>
        <time>2015-06-15T20:05:00.878Z</time>
      </trkpt>
      <trkpt lat="48.89999" lon="2.31919">
        <ele>100.7</ele>
        <time>2015-06-15T20:05:01.785Z</time>
      </trkpt>
      <trkpt lat="48.89995" lon="2.31911">
        <ele>99.9</ele>
        <time>2015-06-15T20:05:03.846Z</time>
      </trkpt>
      <trkpt lat="48.89992" lon="2.31909">
        <ele>100.1</ele>
        <time>2015-06-15T20:05:04.871Z</time>
      </trkpt>
      <trkpt lat="48.89986" lon="2.31899">
        <ele>100.3</ele>
        <time>2015-06-15T20:05:08.836Z</time>
      </trkpt>
      <trkpt lat="48.89985" lon="2.31897">
        <ele>100.2</ele>
        <time>2015-06-15T20:05:09.928Z</time>
      </trkpt>
      <trkpt lat="48.89976" lon="2.31895">
        <ele>98.6</ele>
        <time>2015-06-15T20:05:18.387Z</time>
      </trkpt>
      <trkpt lat="48.89975" lon="2.31895">
        <ele>98.7</ele>
        <time>2015-06-15T20:05:18.822Z</time>
      </trkpt>
      <trkpt lat="48.89969" lon="2.31906">
        <ele>100</ele>
        <time>2015-06-15T20:05:24.798Z</time>
      </trkpt>
      <trkpt lat="48.8997" lon="2.31908">
        <ele>100.3</ele>
        <time>2015-06-15T20:05:25.805Z</time>
      </trkpt>
      <trkpt lat="48.89969" lon="2.31918">
        <ele>101.3</ele>
        <time>2015-06-15T20:05:28.802Z</time>
      </trkpt>
      <trkpt lat="48.89967" lon="2.31924">
        <ele>101.5</ele>
        <time>2015-06-15T20:05:29.792Z</time>
      </trkpt>
      <trkpt lat="48.89966" lon="2.3193">
        <ele>101.6</ele>
        <time>2015-06-15T20:05:30.817Z</time>
      </trkpt>
      <trkpt lat="48.89963" lon="2.31939">
        <ele>101.7</ele>
        <time>2015-06-15T20:05:31.824Z</time>
      </trkpt>
      <trkpt lat="48.89959" lon="2.31948">
        <ele>101.6</ele>
        <time>2015-06-15T20:05:32.854Z</time>
      </trkpt>
      <trkpt lat="48.89955" lon="2.31957">
        <ele>101.6</ele>
        <time>2015-06-15T20:05:33.894Z</time>
      </trkpt>
      <trkpt lat="48.89952" lon="2.31969">
        <ele>102.2</ele>
        <time>2015-06-15T20:05:35.819Z</time>
      </trkpt>
      <trkpt lat="48.89951" lon="2.31975">
        <ele>102.2</ele>
        <time>2015-06-15T20:05:36.811Z</time>
      </trkpt>
      <trkpt lat="48.89947" lon="2.31986">
        <ele>102.5</ele>
        <time>2015-06-15T20:05:38.843Z</time>
      </trkpt>
      <trkpt lat="48.89945" lon="2.31991">
        <ele>102.4</ele>
        <time>2015-06-15T20:05:39.908Z</time>
      </trkpt>
      <trkpt lat="48.89941" lon="2.32">
        <ele>102.4</ele>
        <time>2015-06-15T20:05:42.290Z</time>
      </trkpt>
      <trkpt lat="48.8994" lon="2.32005">
        <ele>102.3</ele>
        <time>2015-06-15T20:05:42.792Z</time>
      </trkpt>
      <trkpt lat="48.89938" lon="2.32017">
        <ele>101.9</ele>
        <time>2015-06-15T20:05:45.852Z</time>
      </trkpt>
      <trkpt lat="48.89936" lon="2.3202">
        <ele>102</ele>
        <time>2015-06-15T20:05:46.884Z</time>
      </trkpt>
      <trkpt lat="48.89936" lon="2.3203">
        <ele>102.1</ele>
        <time>2015-06-15T20:05:49.806Z</time>
      </trkpt>
      <trkpt lat="48.89936" lon="2.32034">
        <ele>101.9</ele>
        <time>2015-06-15T20:05:50.881Z</time>
      </trkpt>
      <trkpt lat="48.89935" lon="2.32046">
        <ele>102.4</ele>
        <time>2015-06-15T20:05:54.387Z</time>
      </trkpt>
      <trkpt lat="48.89934" lon="2.3205">
        <ele>102.5</ele>
        <time>2015-06-15T20:05:54.817Z</time>
      </trkpt>
      <trkpt lat="48.89934" lon="2.32061">
        <ele>102.7</ele>
        <time>2015-06-15T20:05:58.214Z</time>
      </trkpt>
      <trkpt lat="48.89934" lon="2.32064">
        <ele>103</ele>
        <time>2015-06-15T20:05:58.801Z</time>
      </trkpt>
      <trkpt lat="48.89931" lon="2.32075">
        <ele>102.7</ele>
        <time>2015-06-15T20:06:00.854Z</time>
      </trkpt>
      <trkpt lat="48.89929" lon="2.3208">
        <ele>102.5</ele>
        <time>2015-06-15T20:06:01.851Z</time>
      </trkpt>
      <trkpt lat="48.89924" lon="2.32091">
        <ele>102.4</ele>
        <time>2015-06-15T20:06:03.868Z</time>
      </trkpt>
      <trkpt lat="48.89922" lon="2.32097">
        <ele>102.5</ele>
        <time>2015-06-15T20:06:04.882Z</time>
      </trkpt>
      <trkpt lat="48.8992" lon="2.32104">
        <ele>102.2</ele>
        <time>2015-06-15T20:06:06.625Z</time>
      </trkpt>
      <trkpt lat="48.89918" lon="2.32111">
        <ele>102</ele>
        <time>2015-06-15T20:06:06.939Z</time>
      </trkpt>
      <trkpt lat="48.89915" lon="2.32122">
        <ele>101.7</ele>
        <time>2015-06-15T20:06:08.915Z</time>
      </trkpt>
      <trkpt lat="48.89913" lon="2.32127">
        <ele>101.9</ele>
        <time>2015-06-15T20:06:09.823Z</time>
      </trkpt>
      <trkpt lat="48.8991" lon="2.32137">
        <ele>102.6</ele>
        <time>2015-06-15T20:06:11.846Z</time>
      </trkpt>
      <trkpt lat="48.89908" lon="2.32142">
        <ele>103</ele>
        <time>2015-06-15T20:06:13.005Z</time>
      </trkpt>
      <trkpt lat="48.89905" lon="2.32155">
        <ele>103.1</ele>
        <time>2015-06-15T20:06:16.811Z</time>
      </trkpt>
      <trkpt lat="48.89905" lon="2.32159">
        <ele>103.2</ele>
        <time>2015-06-15T20:06:16.881Z</time>
      </trkpt>
      <trkpt lat="48.89903" lon="2.32169">
        <ele>104.3</ele>
        <time>2015-06-15T20:06:18.837Z</time>
      </trkpt>
      <trkpt lat="48.89903" lon="2.32173">
        <ele>104.8</ele>
        <time>2015-06-15T20:06:20.150Z</time>
      </trkpt>
      <trkpt lat="48.899" lon="2.32184">
        <ele>106.3</ele>
        <time>2015-06-15T20:06:22.849Z</time>
      </trkpt>
      <trkpt lat="48.89899" lon="2.32188">
        <ele>106.6</ele>
        <time>2015-06-15T20:06:23.843Z</time>
      </trkpt>
      <trkpt lat="48.89898" lon="2.32198">
        <ele>108.2</ele>
        <time>2015-06-15T20:06:25.817Z</time>
      </trkpt>
      <trkpt lat="48.89898" lon="2.32202">
        <ele>109</ele>
        <time>2015-06-15T20:06:26.853Z</time>
      </trkpt>
      <trkpt lat="48.89898" lon="2.32214">
        <ele>110.8</ele>
        <time>2015-06-15T20:06:29.817Z</time>
      </trkpt>
      <trkpt lat="48.89897" lon="2.32217">
        <ele>110.9</ele>
        <time>2015-06-15T20:06:30.824Z</time>
      </trkpt>
      <trkpt lat="48.89893" lon="2.32228">
        <ele>110.3</ele>
        <time>2015-06-15T20:06:33.833Z</time>
      </trkpt>
      <trkpt lat="48.89892" lon="2.32232">
        <ele>110.1</ele>
        <time>2015-06-15T20:06:34.953Z</time>
      </trkpt>
      <trkpt lat="48.89888" lon="2.32243">
        <ele>110.1</ele>
        <time>2015-06-15T20:06:37.870Z</time>
      </trkpt>
      <trkpt lat="48.89888" lon="2.32246">
        <ele>110.5</ele>
        <time>2015-06-15T20:06:39.051Z</time>
      </trkpt>
      <trkpt lat="48.89886" lon="2.32257">
        <ele>110.7</ele>
        <time>2015-06-15T20:06:42.056Z</time>
      </trkpt>
      <trkpt lat="48.89885" lon="2.3226">
        <ele>110.7</ele>
        <time>2015-06-15T20:06:42.807Z</time>
      </trkpt>
      <trkpt lat="48.89882" lon="2.32271">
        <ele>110</ele>
        <time>2015-06-15T20:06:45.869Z</time>
      </trkpt>
      <trkpt lat="48.89881" lon="2.32274">
        <ele>109.9</ele>
        <time>2015-06-15T20:06:46.810Z</time>
      </trkpt>
      <trkpt lat="48.89879" lon="2.32283">
        <ele>109</ele>
        <time>2015-06-15T20:06:48.846Z</time>
      </trkpt>
      <trkpt lat="48.89877" lon="2.32288">
        <ele>108.3</ele>
        <time>2015-06-15T20:06:50.044Z</time>
      </trkpt>
      <trkpt lat="48.89873" lon="2.32297">
        <ele>108.1</ele>
        <time>2015-06-15T20:06:51.905Z</time>
      </trkpt>
      <trkpt lat="48.89869" lon="2.32301">
        <ele>108.1</ele>
        <time>2015-06-15T20:06:52.806Z</time>
      </trkpt>
      <trkpt lat="48.89863" lon="2.3231">
        <ele>107.5</ele>
        <time>2015-06-15T20:06:54.034Z</time>
      </trkpt>
      <trkpt lat="48.89859" lon="2.32313">
        <ele>107.1</ele>
        <time>2015-06-15T20:06:55.856Z</time>
      </trkpt>
      <trkpt lat="48.89853" lon="2.32318">
        <ele>106.3</ele>
        <time>2015-06-15T20:06:58.135Z</time>
      </trkpt>
      <trkpt lat="48.8985" lon="2.32321">
        <ele>105.8</ele>
        <time>2015-06-15T20:06:58.869Z</time>
      </trkpt>
      <trkpt lat="48.89846" lon="2.32323">
        <ele>104.8</ele>
        <time>2015-06-15T20:06:59.865Z</time>
      </trkpt>
      <trkpt lat="48.89841" lon="2.32325">
        <ele>104.1</ele>
        <time>2015-06-15T20:07:00.843Z</time>
      </trkpt>
      <trkpt lat="48.89834" lon="2.32325">
        <ele>103.4</ele>
        <time>2015-06-15T20:07:03.168Z</time>
      </trkpt>
      <trkpt lat="48.89829" lon="2.32326">
        <ele>103</ele>
        <time>2015-06-15T20:07:04.071Z</time>
      </trkpt>
      <trkpt lat="48.89821" lon="2.32328">
        <ele>103</ele>
        <time>2015-06-15T20:07:05.826Z</time>
      </trkpt>
      <trkpt lat="48.89818" lon="2.32329">
        <ele>103</ele>
        <time>2015-06-15T20:07:06.825Z</time>
      </trkpt>
      <trkpt lat="48.89812" lon="2.32329">
        <ele>103</ele>
        <time>2015-06-15T20:07:08.891Z</time>
      </trkpt>
      <trkpt lat="48.89808" lon="2.3233">
        <ele>103.2</ele>
        <time>2015-06-15T20:07:09.912Z</time>
      </trkpt>
      <trkpt lat="48.898" lon="2.32331">
        <ele>102.7</ele>
        <time>2015-06-15T20:07:11.867Z</time>
      </trkpt>
      <trkpt lat="48.89797" lon="2.32332">
        <ele>102.7</ele>
        <time>2015-06-15T20:07:12.850Z</time>
      </trkpt>
      <trkpt lat="48.8979" lon="2.32333">
        <ele>102.8</ele>
        <time>2015-06-15T20:07:15.819Z</time>
      </trkpt>
      <trkpt lat="48.89787" lon="2.32333">
        <ele>102.8</ele>
        <time>2015-06-15T20:07:16.833Z</time>
      </trkpt>
      <trkpt lat="48.8978" lon="2.32335">
        <ele>103.5</ele>
        <time>2015-06-15T20:07:18.867Z</time>
      </trkpt>
      <trkpt lat="48.89777" lon="2.32335">
        <ele>103.6</ele>
        <time>2015-06-15T20:07:19.868Z</time>
      </trkpt>
      <trkpt lat="48.89769" lon="2.32332">
        <ele>103.9</ele>
        <time>2015-06-15T20:07:23.837Z</time>
      </trkpt>
      <trkpt lat="48.89767" lon="2.32331">
        <ele>103.9</ele>
        <time>2015-06-15T20:07:24.799Z</time>
      </trkpt>
      <trkpt lat="48.8976" lon="2.32328">
        <ele>104.5</ele>
        <time>2015-06-15T20:07:27.827Z</time>
      </trkpt>
      <trkpt lat="48.89757" lon="2.32327">
        <ele>104.4</ele>
        <time>2015-06-15T20:07:28.839Z</time>
      </trkpt>
      <trkpt lat="48.8975" lon="2.32322">
        <ele>104.6</ele>
        <time>2015-06-15T20:07:32.908Z</time>
      </trkpt>
      <trkpt lat="48.89748" lon="2.3232">
        <ele>104.5</ele>
        <time>2015-06-15T20:07:33.834Z</time>
      </trkpt>
      <trkpt lat="48.89742" lon="2.32314">
        <ele>104.6</ele>
        <time>2015-06-15T20:07:36.833Z</time>
      </trkpt>
      <trkpt lat="48.8974" lon="2.32314">
        <ele>105</ele>
        <time>2015-06-15T20:07:37.833Z</time>
      </trkpt>
      <trkpt lat="48.89734" lon="2.3231">
        <ele>105.4</ele>
        <time>2015-06-15T20:07:39.894Z</time>
      </trkpt>
      <trkpt lat="48.89731" lon="2.32307">
        <ele>105.4</ele>
        <time>2015-06-15T20:07:40.817Z</time>
      </trkpt>
      <trkpt lat="48.89724" lon="2.32301">
        <ele>104.7</ele>
        <time>2015-06-15T20:07:43.852Z</time>
      </trkpt>
      <trkpt lat="48.89721" lon="2.32299">
        <ele>104.7</ele>
        <time>2015-06-15T20:07:44.890Z</time>
      </trkpt>
      <trkpt lat="48.89714" lon="2.32296">
        <ele>104.4</ele>
        <time>2015-06-15T20:07:46.823Z</time>
      </trkpt>
      <trkpt lat="48.8971" lon="2.32294">
        <ele>104.3</ele>
        <time>2015-06-15T20:07:47.820Z</time>
      </trkpt>
      <trkpt lat="48.89703" lon="2.3229">
        <ele>104.6</ele>
        <time>2015-06-15T20:07:49.837Z</time>
      </trkpt>
      <trkpt lat="48.89699" lon="2.32288">
        <ele>104.9</ele>
        <time>2015-06-15T20:07:50.885Z</time>
      </trkpt>
      <trkpt lat="48.89691" lon="2.32281">
        <ele>104.7</ele>
        <time>2015-06-15T20:07:53.075Z</time>
      </trkpt>
      <trkpt lat="48.89688" lon="2.32278">
        <ele>104.5</ele>
        <time>2015-06-15T20:07:53.783Z</time>
      </trkpt>
      <trkpt lat="48.89681" lon="2.3227">
        <ele>105.5</ele>
        <time>2015-06-15T20:07:55.831Z</time>
      </trkpt>
      <trkpt lat="48.89677" lon="2.32268">
        <ele>105.6</ele>
        <time>2015-06-15T20:07:56.843Z</time>
      </trkpt>
      <trkpt lat="48.89673" lon="2.32266">
        <ele>105.8</ele>
        <time>2015-06-15T20:07:57.900Z</time>
      </trkpt>
      <trkpt lat="48.89667" lon="2.32264">
        <ele>105.8</ele>
        <time>2015-06-15T20:07:58.826Z</time>
      </trkpt>
      <trkpt lat="48.89663" lon="2.32261">
        <ele>106.1</ele>
        <time>2015-06-15T20:07:59.841Z</time>
      </trkpt>
      <trkpt lat="48.89659" lon="2.32258">
        <ele>106</ele>
        <time>2015-06-15T20:08:00.766Z</time>
      </trkpt>
      <trkpt lat="48.89655" lon="2.32255">
        <ele>106.1</ele>
        <time>2015-06-15T20:08:01.813Z</time>
      </trkpt>
      <trkpt lat="48.89651" lon="2.3225">
        <ele>106.1</ele>
        <time>2015-06-15T20:08:02.885Z</time>
      </trkpt>
      <trkpt lat="48.89647" lon="2.32247">
        <ele>106.1</ele>
        <time>2015-06-15T20:08:03.899Z</time>
      </trkpt>
      <trkpt lat="48.89643" lon="2.32243">
        <ele>106.1</ele>
        <time>2015-06-15T20:08:04.785Z</time>
      </trkpt>
      <trkpt lat="48.89639" lon="2.3224">
        <ele>106.2</ele>
        <time>2015-06-15T20:08:05.829Z</time>
      </trkpt>
      <trkpt lat="48.89634" lon="2.32236">
        <ele>106.4</ele>
        <time>2015-06-15T20:08:06.833Z</time>
      </trkpt>
      <trkpt lat="48.89626" lon="2.32231">
        <ele>105.9</ele>
        <time>2015-06-15T20:08:08.873Z</time>
      </trkpt>
      <trkpt lat="48.89622" lon="2.32228">
        <ele>105.8</ele>
        <time>2015-06-15T20:08:09.802Z</time>
      </trkpt>
      <trkpt lat="48.89614" lon="2.32222">
        <ele>106</ele>
        <time>2015-06-15T20:08:11.810Z</time>
      </trkpt>
      <trkpt lat="48.8961" lon="2.32219">
        <ele>106.2</ele>
        <time>2015-06-15T20:08:12.822Z</time>
      </trkpt>
      <trkpt lat="48.89603" lon="2.32215">
        <ele>105.9</ele>
        <time>2015-06-15T20:08:14.832Z</time>
      </trkpt>
      <trkpt lat="48.896" lon="2.32213">
        <ele>106</ele>
        <time>2015-06-15T20:08:15.844Z</time>
      </trkpt>
      <trkpt lat="48.89594" lon="2.32208">
        <ele>106</ele>
        <time>2015-06-15T20:08:17.783Z</time>
      </trkpt>
      <trkpt lat="48.89592" lon="2.32205">
        <ele>106.3</ele>
        <time>2015-06-15T20:08:18.773Z</time>
      </trkpt>
      <trkpt lat="48.89585" lon="2.32198">
        <ele>106.7</ele>
        <time>2015-06-15T20:08:21.866Z</time>
      </trkpt>
      <trkpt lat="48.89583" lon="2.32197">
        <ele>106.9</ele>
        <time>2015-06-15T20:08:22.792Z</time>
      </trkpt>
      <trkpt lat="48.8958" lon="2.32196">
        <ele>108</ele>
        <time>2015-06-15T20:09:11.811Z</time>
      </trkpt>
      <trkpt lat="48.89575" lon="2.32184">
        <ele>108.1</ele>
        <time>2015-06-15T20:09:12.811Z</time>
      </trkpt>
      <trkpt lat="48.89568" lon="2.32182">
        <ele>107.9</ele>
        <time>2015-06-15T20:09:15.862Z</time>
      </trkpt>
      <trkpt lat="48.89565" lon="2.32179">
        <ele>107.3</ele>
        <time>2015-06-15T20:09:17.094Z</time>
      </trkpt>
      <trkpt lat="48.89559" lon="2.32174">
        <ele>106.9</ele>
        <time>2015-06-15T20:09:18.842Z</time>
      </trkpt>
      <trkpt lat="48.89555" lon="2.32172">
        <ele>107</ele>
        <time>2015-06-15T20:09:19.751Z</time>
      </trkpt>
      <trkpt lat="48.89548" lon="2.32167">
        <ele>106.9</ele>
        <time>2015-06-15T20:09:21.860Z</time>
      </trkpt>
      <trkpt lat="48.89544" lon="2.32164">
        <ele>106.9</ele>
        <time>2015-06-15T20:09:22.815Z</time>
      </trkpt>
      <trkpt lat="48.89535" lon="2.3216">
        <ele>106.4</ele>
        <time>2015-06-15T20:09:24.806Z</time>
      </trkpt>
      <trkpt lat="48.8953" lon="2.32156">
        <ele>106</ele>
        <time>2015-06-15T20:09:25.784Z</time>
      </trkpt>
      <trkpt lat="48.89526" lon="2.32151">
        <ele>105.8</ele>
        <time>2015-06-15T20:09:26.828Z</time>
      </trkpt>
      <trkpt lat="48.89521" lon="2.32148">
        <ele>105.7</ele>
        <time>2015-06-15T20:09:27.857Z</time>
      </trkpt>
      <trkpt lat="48.89516" lon="2.32145">
        <ele>105.6</ele>
        <time>2015-06-15T20:09:28.789Z</time>
      </trkpt>
      <trkpt lat="48.89511" lon="2.32142">
        <ele>105.5</ele>
        <time>2015-06-15T20:09:29.822Z</time>
      </trkpt>
      <trkpt lat="48.89506" lon="2.32139">
        <ele>105.9</ele>
        <time>2015-06-15T20:09:30.790Z</time>
      </trkpt>
      <trkpt lat="48.89501" lon="2.32137">
        <ele>105.5</ele>
        <time>2015-06-15T20:09:31.803Z</time>
      </trkpt>
      <trkpt lat="48.89497" lon="2.32136">
        <ele>105</ele>
        <time>2015-06-15T20:09:32.845Z</time>
      </trkpt>
      <trkpt lat="48.89491" lon="2.32132">
        <ele>104.7</ele>
        <time>2015-06-15T20:09:33.850Z</time>
      </trkpt>
      <trkpt lat="48.89485" lon="2.32128">
        <ele>104.4</ele>
        <time>2015-06-15T20:09:34.870Z</time>
      </trkpt>
      <trkpt lat="48.8948" lon="2.32124">
        <ele>104.2</ele>
        <time>2015-06-15T20:09:35.876Z</time>
      </trkpt>
      <trkpt lat="48.89475" lon="2.32121">
        <ele>104.3</ele>
        <time>2015-06-15T20:09:36.786Z</time>
      </trkpt>
      <trkpt lat="48.8947" lon="2.32117">
        <ele>104.4</ele>
        <time>2015-06-15T20:09:37.812Z</time>
      </trkpt>
      <trkpt lat="48.89465" lon="2.32112">
        <ele>104.6</ele>
        <time>2015-06-15T20:09:38.811Z</time>
      </trkpt>
      <trkpt lat="48.89459" lon="2.32106">
        <ele>104.9</ele>
        <time>2015-06-15T20:09:39.828Z</time>
      </trkpt>
      <trkpt lat="48.89454" lon="2.321">
        <ele>104.9</ele>
        <time>2015-06-15T20:09:40.839Z</time>
      </trkpt>
      <trkpt lat="48.89448" lon="2.32096">
        <ele>104.8</ele>
        <time>2015-06-15T20:09:41.847Z</time>
      </trkpt>
      <trkpt lat="48.89442" lon="2.32091">
        <ele>104.7</ele>
        <time>2015-06-15T20:09:42.794Z</time>
      </trkpt>
      <trkpt lat="48.89437" lon="2.32086">
        <ele>104.2</ele>
        <time>2015-06-15T20:09:43.817Z</time>
      </trkpt>
      <trkpt lat="48.89431" lon="2.32081">
        <ele>103.9</ele>
        <time>2015-06-15T20:09:44.830Z</time>
      </trkpt>
      <trkpt lat="48.89425" lon="2.32076">
        <ele>103</ele>
        <time>2015-06-15T20:09:45.838Z</time>
      </trkpt>
      <trkpt lat="48.89419" lon="2.32071">
        <ele>102.5</ele>
        <time>2015-06-15T20:09:46.861Z</time>
      </trkpt>
      <trkpt lat="48.89414" lon="2.32067">
        <ele>102.6</ele>
        <time>2015-06-15T20:09:47.778Z</time>
      </trkpt>
      <trkpt lat="48.89408" lon="2.32064">
        <ele>102.6</ele>
        <time>2015-06-15T20:09:48.782Z</time>
      </trkpt>
      <trkpt lat="48.89402" lon="2.3206">
        <ele>102.7</ele>
        <time>2015-06-15T20:09:49.787Z</time>
      </trkpt>
      <trkpt lat="48.89397" lon="2.32057">
        <ele>102.5</ele>
        <time>2015-06-15T20:09:50.826Z</time>
      </trkpt>
      <trkpt lat="48.89392" lon="2.32053">
        <ele>102.4</ele>
        <time>2015-06-15T20:09:51.789Z</time>
      </trkpt>
      <trkpt lat="48.89386" lon="2.32051">
        <ele>101.8</ele>
        <time>2015-06-15T20:09:52.774Z</time>
      </trkpt>
      <trkpt lat="48.89381" lon="2.32049">
        <ele>101.8</ele>
        <time>2015-06-15T20:09:53.786Z</time>
      </trkpt>
      <trkpt lat="48.89376" lon="2.32045">
        <ele>101.8</ele>
        <time>2015-06-15T20:09:54.796Z</time>
      </trkpt>
      <trkpt lat="48.89371" lon="2.3204">
        <ele>101.5</ele>
        <time>2015-06-15T20:09:55.814Z</time>
      </trkpt>
      <trkpt lat="48.89366" lon="2.32035">
        <ele>101.3</ele>
        <time>2015-06-15T20:09:56.846Z</time>
      </trkpt>
      <trkpt lat="48.8936" lon="2.32028">
        <ele>103.6</ele>
        <time>2015-06-15T20:09:57.851Z</time>
      </trkpt>
      <trkpt lat="48.89355" lon="2.32024">
        <ele>103.8</ele>
        <time>2015-06-15T20:09:58.764Z</time>
      </trkpt>
      <trkpt lat="48.8935" lon="2.3202">
        <ele>104.1</ele>
        <time>2015-06-15T20:09:59.832Z</time>
      </trkpt>
      <trkpt lat="48.89344" lon="2.32017">
        <ele>104.2</ele>
        <time>2015-06-15T20:10:00.842Z</time>
      </trkpt>
      <trkpt lat="48.89339" lon="2.32012">
        <ele>104.7</ele>
        <time>2015-06-15T20:10:01.855Z</time>
      </trkpt>
      <trkpt lat="48.89335" lon="2.32008">
        <ele>104.7</ele>
        <time>2015-06-15T20:10:02.877Z</time>
      </trkpt>
      <trkpt lat="48.8933" lon="2.32005">
        <ele>104.5</ele>
        <time>2015-06-15T20:10:03.781Z</time>
      </trkpt>
      <trkpt lat="48.89325" lon="2.32001">
        <ele>104.4</ele>
        <time>2015-06-15T20:10:04.808Z</time>
      </trkpt>
      <trkpt lat="48.89321" lon="2.31997">
        <ele>104.6</ele>
        <time>2015-06-15T20:10:05.855Z</time>
      </trkpt>
      <trkpt lat="48.89317" lon="2.31992">
        <ele>104.6</ele>
        <time>2015-06-15T20:10:06.782Z</time>
      </trkpt>
      <trkpt lat="48.89312" lon="2.31988">
        <ele>104.3</ele>
        <time>2015-06-15T20:10:07.777Z</time>
      </trkpt>
      <trkpt lat="48.89308" lon="2.31985">
        <ele>103.7</ele>
        <time>2015-06-15T20:10:08.813Z</time>
      </trkpt>
      <trkpt lat="48.89303" lon="2.31981">
        <ele>103.2</ele>
        <time>2015-06-15T20:10:09.845Z</time>
      </trkpt>
      <trkpt lat="48.89298" lon="2.31978">
        <ele>103</ele>
        <time>2015-06-15T20:10:10.779Z</time>
      </trkpt>
      <trkpt lat="48.89294" lon="2.31975">
        <ele>101.9</ele>
        <time>2015-06-15T20:10:11.777Z</time>
      </trkpt>
      <trkpt lat="48.89285" lon="2.3197">
        <ele>100.4</ele>
        <time>2015-06-15T20:10:13.831Z</time>
      </trkpt>
      <trkpt lat="48.89281" lon="2.31967">
        <ele>99.8</ele>
        <time>2015-06-15T20:10:14.907Z</time>
      </trkpt>
      <trkpt lat="48.89277" lon="2.31963">
        <ele>99.3</ele>
        <time>2015-06-15T20:10:15.785Z</time>
      </trkpt>
      <trkpt lat="48.89271" lon="2.31959">
        <ele>99.1</ele>
        <time>2015-06-15T20:10:16.885Z</time>
      </trkpt>
      <trkpt lat="48.89266" lon="2.31955">
        <ele>99.1</ele>
        <time>2015-06-15T20:10:17.899Z</time>
      </trkpt>
      <trkpt lat="48.8926" lon="2.3195">
        <ele>98.7</ele>
        <time>2015-06-15T20:10:18.826Z</time>
      </trkpt>
      <trkpt lat="48.89255" lon="2.31945">
        <ele>98.7</ele>
        <time>2015-06-15T20:10:19.905Z</time>
      </trkpt>
      <trkpt lat="48.8925" lon="2.31941">
        <ele>98.4</ele>
        <time>2015-06-15T20:10:20.828Z</time>
      </trkpt>
      <trkpt lat="48.89245" lon="2.31937">
        <ele>98.6</ele>
        <time>2015-06-15T20:10:21.837Z</time>
      </trkpt>
      <trkpt lat="48.8924" lon="2.31934">
        <ele>98.5</ele>
        <time>2015-06-15T20:10:22.845Z</time>
      </trkpt>
      <trkpt lat="48.89234" lon="2.3193">
        <ele>98.3</ele>
        <time>2015-06-15T20:10:23.848Z</time>
      </trkpt>
      <trkpt lat="48.89229" lon="2.31927">
        <ele>98.2</ele>
        <time>2015-06-15T20:10:24.781Z</time>
      </trkpt>
      <trkpt lat="48.89224" lon="2.31924">
        <ele>98.2</ele>
        <time>2015-06-15T20:10:25.812Z</time>
      </trkpt>
      <trkpt lat="48.89219" lon="2.31918">
        <ele>98.2</ele>
        <time>2015-06-15T20:10:26.876Z</time>
      </trkpt>
      <trkpt lat="48.89214" lon="2.31912">
        <ele>98.7</ele>
        <time>2015-06-15T20:10:27.781Z</time>
      </trkpt>
      <trkpt lat="48.8921" lon="2.31907">
        <ele>98.9</ele>
        <time>2015-06-15T20:10:28.794Z</time>
      </trkpt>
      <trkpt lat="48.89205" lon="2.31903">
        <ele>98.9</ele>
        <time>2015-06-15T20:10:29.809Z</time>
      </trkpt>
      <trkpt lat="48.892" lon="2.319">
        <ele>98.6</ele>
        <time>2015-06-15T20:10:30.817Z</time>
      </trkpt>
      <trkpt lat="48.89196" lon="2.31896">
        <ele>98.5</ele>
        <time>2015-06-15T20:10:31.831Z</time>
      </trkpt>
      <trkpt lat="48.89192" lon="2.31892">
        <ele>98.3</ele>
        <time>2015-06-15T20:10:32.835Z</time>
      </trkpt>
      <trkpt lat="48.89183" lon="2.31887">
        <ele>98.8</ele>
        <time>2015-06-15T20:10:34.777Z</time>
      </trkpt>
      <trkpt lat="48.89179" lon="2.31885">
        <ele>99.1</ele>
        <time>2015-06-15T20:10:35.807Z</time>
      </trkpt>
      <trkpt lat="48.89171" lon="2.3188">
        <ele>99.6</ele>
        <time>2015-06-15T20:10:37.831Z</time>
      </trkpt>
      <trkpt lat="48.89168" lon="2.31877">
        <ele>99.1</ele>
        <time>2015-06-15T20:10:38.862Z</time>
      </trkpt>
      <trkpt lat="48.89162" lon="2.31872">
        <ele>98.9</ele>
        <time>2015-06-15T20:10:40.797Z</time>
      </trkpt>
      <trkpt lat="48.8916" lon="2.3187">
        <ele>98.8</ele>
        <time>2015-06-15T20:10:41.830Z</time>
      </trkpt>
      <trkpt lat="48.89155" lon="2.31858">
        <ele>98.6</ele>
        <time>2015-06-15T20:10:44.854Z</time>
      </trkpt>
      <trkpt lat="48.89153" lon="2.31853">
        <ele>98.9</ele>
        <time>2015-06-15T20:10:45.873Z</time>
      </trkpt>
      <trkpt lat="48.89149" lon="2.31845">
        <ele>99.8</ele>
        <time>2015-06-15T20:10:47.885Z</time>
      </trkpt>
      <trkpt lat="48.89146" lon="2.31843">
        <ele>99.9</ele>
        <time>2015-06-15T20:10:48.893Z</time>
      </trkpt>
      <trkpt lat="48.89139" lon="2.31839">
        <ele>100.1</ele>
        <time>2015-06-15T20:10:50.902Z</time>
      </trkpt>
      <trkpt lat="48.89135" lon="2.31837">
        <ele>100.3</ele>
        <time>2015-06-15T20:10:51.812Z</time>
      </trkpt>
      <trkpt lat="48.89128" lon="2.31832">
        <ele>100.8</ele>
        <time>2015-06-15T20:10:53.860Z</time>
      </trkpt>
      <trkpt lat="48.89124" lon="2.3183">
        <ele>100.7</ele>
        <time>2015-06-15T20:10:54.868Z</time>
      </trkpt>
      <trkpt lat="48.89116" lon="2.31826">
        <ele>101.3</ele>
        <time>2015-06-15T20:10:56.887Z</time>
      </trkpt>
      <trkpt lat="48.89113" lon="2.31823">
        <ele>101.4</ele>
        <time>2015-06-15T20:10:57.802Z</time>
      </trkpt>
      <trkpt lat="48.89105" lon="2.31816">
        <ele>102.7</ele>
        <time>2015-06-15T20:10:59.817Z</time>
      </trkpt>
      <trkpt lat="48.89102" lon="2.31813">
        <ele>103</ele>
        <time>2015-06-15T20:11:00.825Z</time>
      </trkpt>
      <trkpt lat="48.89095" lon="2.31807">
        <ele>104</ele>
        <time>2015-06-15T20:11:02.885Z</time>
      </trkpt>
      <trkpt lat="48.89091" lon="2.31803">
        <ele>104.1</ele>
        <time>2015-06-15T20:11:03.832Z</time>
      </trkpt>
      <trkpt lat="48.89088" lon="2.31798">
        <ele>104.3</ele>
        <time>2015-06-15T20:11:04.805Z</time>
      </trkpt>
      <trkpt lat="48.89084" lon="2.31794">
        <ele>104.4</ele>
        <time>2015-06-15T20:11:05.812Z</time>
      </trkpt>
      <trkpt lat="48.8908" lon="2.3179">
        <ele>104.6</ele>
        <time>2015-06-15T20:11:06.832Z</time>
      </trkpt>
      <trkpt lat="48.89076" lon="2.31786">
        <ele>105.1</ele>
        <time>2015-06-15T20:11:07.841Z</time>
      </trkpt>
      <trkpt lat="48.89069" lon="2.31778">
        <ele>105</ele>
        <time>2015-06-15T20:11:09.898Z</time>
      </trkpt>
      <trkpt lat="48.89065" lon="2.31775">
        <ele>105.1</ele>
        <time>2015-06-15T20:11:10.824Z</time>
      </trkpt>
      <trkpt lat="48.89061" lon="2.31772">
        <ele>105.3</ele>
        <time>2015-06-15T20:11:11.842Z</time>
      </trkpt>
      <trkpt lat="48.89057" lon="2.31767">
        <ele>105.3</ele>
        <time>2015-06-15T20:11:12.841Z</time>
      </trkpt>
      <trkpt lat="48.89053" lon="2.31763">
        <ele>105.3</ele>
        <time>2015-06-15T20:11:13.848Z</time>
      </trkpt>
      <trkpt lat="48.89049" lon="2.31759">
        <ele>105.4</ele>
        <time>2015-06-15T20:11:14.866Z</time>
      </trkpt>
      <trkpt lat="48.89044" lon="2.31755">
        <ele>105.3</ele>
        <time>2015-06-15T20:11:15.804Z</time>
      </trkpt>
      <trkpt lat="48.8904" lon="2.3175">
        <ele>104.8</ele>
        <time>2015-06-15T20:11:16.759Z</time>
      </trkpt>
      <trkpt lat="48.89036" lon="2.31745">
        <ele>104</ele>
        <time>2015-06-15T20:11:18.117Z</time>
      </trkpt>
      <trkpt lat="48.89032" lon="2.31738">
        <ele>103.2</ele>
        <time>2015-06-15T20:11:18.841Z</time>
      </trkpt>
      <trkpt lat="48.89028" lon="2.31732">
        <ele>102.6</ele>
        <time>2015-06-15T20:11:20.039Z</time>
      </trkpt>
      <trkpt lat="48.89024" lon="2.31726">
        <ele>102</ele>
        <time>2015-06-15T20:11:20.915Z</time>
      </trkpt>
      <trkpt lat="48.8902" lon="2.31721">
        <ele>101.9</ele>
        <time>2015-06-15T20:11:21.811Z</time>
      </trkpt>
      <trkpt lat="48.89016" lon="2.31716">
        <ele>101.6</ele>
        <time>2015-06-15T20:11:22.843Z</time>
      </trkpt>
      <trkpt lat="48.89012" lon="2.31712">
        <ele>100.9</ele>
        <time>2015-06-15T20:11:24.056Z</time>
      </trkpt>
      <trkpt lat="48.89008" lon="2.31707">
        <ele>100.3</ele>
        <time>2015-06-15T20:11:24.938Z</time>
      </trkpt>
      <trkpt lat="48.89004" lon="2.31703">
        <ele>99.9</ele>
        <time>2015-06-15T20:11:25.802Z</time>
      </trkpt>
      <trkpt lat="48.88999" lon="2.31698">
        <ele>99.5</ele>
        <time>2015-06-15T20:11:26.820Z</time>
      </trkpt>
      <trkpt lat="48.88995" lon="2.31693">
        <ele>98.8</ele>
        <time>2015-06-15T20:11:27.825Z</time>
      </trkpt>
      <trkpt lat="48.88991" lon="2.31688">
        <ele>98.4</ele>
        <time>2015-06-15T20:11:28.878Z</time>
      </trkpt>
      <trkpt lat="48.88986" lon="2.31683">
        <ele>98</ele>
        <time>2015-06-15T20:11:29.768Z</time>
      </trkpt>
      <trkpt lat="48.88982" lon="2.31679">
        <ele>97.8</ele>
        <time>2015-06-15T20:11:30.783Z</time>
      </trkpt>
      <trkpt lat="48.88978" lon="2.31674">
        <ele>97.4</ele>
        <time>2015-06-15T20:11:31.796Z</time>
      </trkpt>
      <trkpt lat="48.88974" lon="2.31669">
        <ele>97.1</ele>
        <time>2015-06-15T20:11:32.871Z</time>
      </trkpt>
      <trkpt lat="48.88969" lon="2.31665">
        <ele>96.8</ele>
        <time>2015-06-15T20:11:33.871Z</time>
      </trkpt>
      <trkpt lat="48.88964" lon="2.31661">
        <ele>96.7</ele>
        <time>2015-06-15T20:11:34.776Z</time>
      </trkpt>
      <trkpt lat="48.8896" lon="2.31657">
        <ele>96.7</ele>
        <time>2015-06-15T20:11:35.790Z</time>
      </trkpt>
      <trkpt lat="48.88955" lon="2.31652">
        <ele>96.7</ele>
        <time>2015-06-15T20:11:36.821Z</time>
      </trkpt>
      <trkpt lat="48.88951" lon="2.31649">
        <ele>96.5</ele>
        <time>2015-06-15T20:11:37.836Z</time>
      </trkpt>
      <trkpt lat="48.88946" lon="2.31644">
        <ele>96.2</ele>
        <time>2015-06-15T20:11:38.863Z</time>
      </trkpt>
      <trkpt lat="48.88942" lon="2.3164">
        <ele>96.1</ele>
        <time>2015-06-15T20:11:39.778Z</time>
      </trkpt>
      <trkpt lat="48.88937" lon="2.31636">
        <ele>96.2</ele>
        <time>2015-06-15T20:11:40.825Z</time>
      </trkpt>
      <trkpt lat="48.88929" lon="2.3163">
        <ele>96.1</ele>
        <time>2015-06-15T20:11:42.777Z</time>
      </trkpt>
      <trkpt lat="48.88925" lon="2.31626">
        <ele>96.1</ele>
        <time>2015-06-15T20:11:43.938Z</time>
      </trkpt>
      <trkpt lat="48.88921" lon="2.31622">
        <ele>96</ele>
        <time>2015-06-15T20:11:44.905Z</time>
      </trkpt>
      <trkpt lat="48.88917" lon="2.31617">
        <ele>96.4</ele>
        <time>2015-06-15T20:11:45.786Z</time>
      </trkpt>
      <trkpt lat="48.88913" lon="2.31613">
        <ele>96.4</ele>
        <time>2015-06-15T20:11:46.787Z</time>
      </trkpt>
      <trkpt lat="48.88909" lon="2.31609">
        <ele>96.1</ele>
        <time>2015-06-15T20:11:47.815Z</time>
      </trkpt>
      <trkpt lat="48.88905" lon="2.31605">
        <ele>95.6</ele>
        <time>2015-06-15T20:11:48.822Z</time>
      </trkpt>
      <trkpt lat="48.88901" lon="2.31601">
        <ele>95.8</ele>
        <time>2015-06-15T20:11:49.827Z</time>
      </trkpt>
      <trkpt lat="48.88896" lon="2.31598">
        <ele>95.8</ele>
        <time>2015-06-15T20:11:50.843Z</time>
      </trkpt>
      <trkpt lat="48.88892" lon="2.31595">
        <ele>95.5</ele>
        <time>2015-06-15T20:11:51.849Z</time>
      </trkpt>
      <trkpt lat="48.88888" lon="2.31592">
        <ele>94.9</ele>
        <time>2015-06-15T20:11:52.870Z</time>
      </trkpt>
      <trkpt lat="48.88884" lon="2.3159">
        <ele>94.9</ele>
        <time>2015-06-15T20:11:53.790Z</time>
      </trkpt>
      <trkpt lat="48.88879" lon="2.31586">
        <ele>95.5</ele>
        <time>2015-06-15T20:11:54.807Z</time>
      </trkpt>
      <trkpt lat="48.88875" lon="2.31583">
        <ele>95.5</ele>
        <time>2015-06-15T20:11:55.820Z</time>
      </trkpt>
      <trkpt lat="48.88869" lon="2.31576">
        <ele>94.5</ele>
        <time>2015-06-15T20:11:57.844Z</time>
      </trkpt>
      <trkpt lat="48.88866" lon="2.31572">
        <ele>94.2</ele>
        <time>2015-06-15T20:11:58.857Z</time>
      </trkpt>
      <trkpt lat="48.88859" lon="2.31563">
        <ele>93.5</ele>
        <time>2015-06-15T20:12:01.039Z</time>
      </trkpt>
      <trkpt lat="48.88856" lon="2.3156">
        <ele>93.2</ele>
        <time>2015-06-15T20:12:01.836Z</time>
      </trkpt>
      <trkpt lat="48.8885" lon="2.31554">
        <ele>93</ele>
        <time>2015-06-15T20:12:03.803Z</time>
      </trkpt>
      <trkpt lat="48.88846" lon="2.31551">
        <ele>92.9</ele>
        <time>2015-06-15T20:12:04.843Z</time>
      </trkpt>
      <trkpt lat="48.88838" lon="2.31545">
        <ele>92.2</ele>
        <time>2015-06-15T20:12:06.796Z</time>
      </trkpt>
      <trkpt lat="48.88835" lon="2.31542">
        <ele>92</ele>
        <time>2015-06-15T20:12:07.848Z</time>
      </trkpt>
      <trkpt lat="48.88827" lon="2.31535">
        <ele>92.2</ele>
        <time>2015-06-15T20:12:09.797Z</time>
      </trkpt>
      <trkpt lat="48.88824" lon="2.31532">
        <ele>92.3</ele>
        <time>2015-06-15T20:12:10.827Z</time>
      </trkpt>
      <trkpt lat="48.88818" lon="2.31526">
        <ele>92.8</ele>
        <time>2015-06-15T20:12:12.834Z</time>
      </trkpt>
      <trkpt lat="48.88814" lon="2.31523">
        <ele>92.9</ele>
        <time>2015-06-15T20:12:13.849Z</time>
      </trkpt>
      <trkpt lat="48.88808" lon="2.31517">
        <ele>93.6</ele>
        <time>2015-06-15T20:12:15.773Z</time>
      </trkpt>
      <trkpt lat="48.88805" lon="2.31514">
        <ele>93.7</ele>
        <time>2015-06-15T20:12:16.775Z</time>
      </trkpt>
      <trkpt lat="48.88797" lon="2.31508">
        <ele>93.6</ele>
        <time>2015-06-15T20:12:19.852Z</time>
      </trkpt>
      <trkpt lat="48.88795" lon="2.31507">
        <ele>93.6</ele>
        <time>2015-06-15T20:12:20.886Z</time>
      </trkpt>
      <trkpt lat="48.88792" lon="2.31499">
        <ele>93.8</ele>
        <time>2015-06-15T20:12:22.770Z</time>
      </trkpt>
      <trkpt lat="48.88789" lon="2.31496">
        <ele>93.8</ele>
        <time>2015-06-15T20:12:23.801Z</time>
      </trkpt>
      <trkpt lat="48.88785" lon="2.31489">
        <ele>94</ele>
        <time>2015-06-15T20:12:25.863Z</time>
      </trkpt>
      <trkpt lat="48.88783" lon="2.31485">
        <ele>94.2</ele>
        <time>2015-06-15T20:12:26.943Z</time>
      </trkpt>
      <trkpt lat="48.88777" lon="2.31474">
        <ele>95.3</ele>
        <time>2015-06-15T20:12:29.811Z</time>
      </trkpt>
      <trkpt lat="48.88775" lon="2.31471">
        <ele>95.4</ele>
        <time>2015-06-15T20:12:30.883Z</time>
      </trkpt>
      <trkpt lat="48.88771" lon="2.31464">
        <ele>96.5</ele>
        <time>2015-06-15T20:12:32.904Z</time>
      </trkpt>
      <trkpt lat="48.88769" lon="2.31461">
        <ele>97</ele>
        <time>2015-06-15T20:12:33.803Z</time>
      </trkpt>
      <trkpt lat="48.88764" lon="2.31454">
        <ele>97.3</ele>
        <time>2015-06-15T20:12:35.811Z</time>
      </trkpt>
      <trkpt lat="48.88761" lon="2.3145">
        <ele>97.9</ele>
        <time>2015-06-15T20:12:36.825Z</time>
      </trkpt>
      <trkpt lat="48.88756" lon="2.31442">
        <ele>98.7</ele>
        <time>2015-06-15T20:12:39.123Z</time>
      </trkpt>
      <trkpt lat="48.88753" lon="2.31438">
        <ele>98.8</ele>
        <time>2015-06-15T20:12:39.803Z</time>
      </trkpt>
      <trkpt lat="48.88747" lon="2.3143">
        <ele>99.2</ele>
        <time>2015-06-15T20:12:41.877Z</time>
      </trkpt>
      <trkpt lat="48.88745" lon="2.31426">
        <ele>99</ele>
        <time>2015-06-15T20:12:42.886Z</time>
      </trkpt>
      <trkpt lat="48.88738" lon="2.3142">
        <ele>99.2</ele>
        <time>2015-06-15T20:12:45.827Z</time>
      </trkpt>
      <trkpt lat="48.88736" lon="2.3142">
        <ele>98.8</ele>
        <time>2015-06-15T20:12:46.874Z</time>
      </trkpt>
      <trkpt lat="48.88731" lon="2.31428">
        <ele>96.2</ele>
        <time>2015-06-15T20:13:35.841Z</time>
      </trkpt>
      <trkpt lat="48.88728" lon="2.31431">
        <ele>95.9</ele>
        <time>2015-06-15T20:13:36.831Z</time>
      </trkpt>
      <trkpt lat="48.88723" lon="2.31438">
        <ele>95.3</ele>
        <time>2015-06-15T20:13:38.868Z</time>
      </trkpt>
      <trkpt lat="48.88721" lon="2.31443">
        <ele>95.2</ele>
        <time>2015-06-15T20:13:39.856Z</time>
      </trkpt>
      <trkpt lat="48.88717" lon="2.31453">
        <ele>94.9</ele>
        <time>2015-06-15T20:13:41.819Z</time>
      </trkpt>
      <trkpt lat="48.88715" lon="2.31457">
        <ele>95</ele>
        <time>2015-06-15T20:13:42.908Z</time>
      </trkpt>
      <trkpt lat="48.88711" lon="2.31468">
        <ele>94.7</ele>
        <time>2015-06-15T20:13:44.882Z</time>
      </trkpt>
      <trkpt lat="48.88709" lon="2.31472">
        <ele>94.7</ele>
        <time>2015-06-15T20:13:45.793Z</time>
      </trkpt>
      <trkpt lat="48.88704" lon="2.31482">
        <ele>94.6</ele>
        <time>2015-06-15T20:13:47.829Z</time>
      </trkpt>
      <trkpt lat="48.88702" lon="2.31487">
        <ele>94.5</ele>
        <time>2015-06-15T20:13:48.860Z</time>
      </trkpt>
      <trkpt lat="48.88698" lon="2.31497">
        <ele>94.4</ele>
        <time>2015-06-15T20:13:50.907Z</time>
      </trkpt>
      <trkpt lat="48.88695" lon="2.31501">
        <ele>94.4</ele>
        <time>2015-06-15T20:13:51.796Z</time>
      </trkpt>
      <trkpt lat="48.88691" lon="2.3151">
        <ele>94.2</ele>
        <time>2015-06-15T20:13:53.879Z</time>
      </trkpt>
      <trkpt lat="48.88688" lon="2.31515">
        <ele>94</ele>
        <time>2015-06-15T20:13:54.880Z</time>
      </trkpt>
      <trkpt lat="48.88683" lon="2.31524">
        <ele>93.8</ele>
        <time>2015-06-15T20:13:56.879Z</time>
      </trkpt>
      <trkpt lat="48.8868" lon="2.31529">
        <ele>93.6</ele>
        <time>2015-06-15T20:13:57.885Z</time>
      </trkpt>
      <trkpt lat="48.88677" lon="2.31534">
        <ele>93.6</ele>
        <time>2015-06-15T20:13:58.797Z</time>
      </trkpt>
      <trkpt lat="48.88674" lon="2.3154">
        <ele>93.7</ele>
        <time>2015-06-15T20:13:59.806Z</time>
      </trkpt>
      <trkpt lat="48.88668" lon="2.3155">
        <ele>93.3</ele>
        <time>2015-06-15T20:14:01.837Z</time>
      </trkpt>
      <trkpt lat="48.88665" lon="2.31555">
        <ele>93.3</ele>
        <time>2015-06-15T20:14:02.869Z</time>
      </trkpt>
      <trkpt lat="48.88662" lon="2.31561">
        <ele>93.5</ele>
        <time>2015-06-15T20:14:03.876Z</time>
      </trkpt>
      <trkpt lat="48.88659" lon="2.31565">
        <ele>94</ele>
        <time>2015-06-15T20:14:04.817Z</time>
      </trkpt>
      <trkpt lat="48.88656" lon="2.31571">
        <ele>94.3</ele>
        <time>2015-06-15T20:14:05.830Z</time>
      </trkpt>
      <trkpt lat="48.88653" lon="2.31577">
        <ele>94.4</ele>
        <time>2015-06-15T20:14:06.866Z</time>
      </trkpt>
      <trkpt lat="48.88649" lon="2.31584">
        <ele>94.3</ele>
        <time>2015-06-15T20:14:07.820Z</time>
      </trkpt>
      <trkpt lat="48.88646" lon="2.3159">
        <ele>94.1</ele>
        <time>2015-06-15T20:14:08.816Z</time>
      </trkpt>
      <trkpt lat="48.88641" lon="2.316">
        <ele>94.2</ele>
        <time>2015-06-15T20:14:11.180Z</time>
      </trkpt>
      <trkpt lat="48.88638" lon="2.31603">
        <ele>94.7</ele>
        <time>2015-06-15T20:14:11.773Z</time>
      </trkpt>
      <trkpt lat="48.88632" lon="2.31609">
        <ele>95.1</ele>
        <time>2015-06-15T20:14:13.815Z</time>
      </trkpt>
      <trkpt lat="48.88629" lon="2.31612">
        <ele>95.2</ele>
        <time>2015-06-15T20:14:14.907Z</time>
      </trkpt>
      <trkpt lat="48.88623" lon="2.31619">
        <ele>95</ele>
        <time>2015-06-15T20:14:16.831Z</time>
      </trkpt>
      <trkpt lat="48.8862" lon="2.31623">
        <ele>95</ele>
        <time>2015-06-15T20:14:17.874Z</time>
      </trkpt>
      <trkpt lat="48.88616" lon="2.31628">
        <ele>95.4</ele>
        <time>2015-06-15T20:14:18.859Z</time>
      </trkpt>
      <trkpt lat="48.88613" lon="2.31633">
        <ele>95.7</ele>
        <time>2015-06-15T20:14:19.765Z</time>
      </trkpt>
      <trkpt lat="48.88607" lon="2.31641">
        <ele>96.3</ele>
        <time>2015-06-15T20:14:21.829Z</time>
      </trkpt>
      <trkpt lat="48.88603" lon="2.31645">
        <ele>96.5</ele>
        <time>2015-06-15T20:14:22.844Z</time>
      </trkpt>
      <trkpt lat="48.886" lon="2.31649">
        <ele>96.8</ele>
        <time>2015-06-15T20:14:24.163Z</time>
      </trkpt>
      <trkpt lat="48.88596" lon="2.31654">
        <ele>97</ele>
        <time>2015-06-15T20:14:24.831Z</time>
      </trkpt>
      <trkpt lat="48.88592" lon="2.31661">
        <ele>97.3</ele>
        <time>2015-06-15T20:14:26.323Z</time>
      </trkpt>
      <trkpt lat="48.88588" lon="2.31665">
        <ele>97.5</ele>
        <time>2015-06-15T20:14:26.876Z</time>
      </trkpt>
      <trkpt lat="48.88581" lon="2.31673">
        <ele>98.5</ele>
        <time>2015-06-15T20:14:28.917Z</time>
      </trkpt>
      <trkpt lat="48.88578" lon="2.31677">
        <ele>99</ele>
        <time>2015-06-15T20:14:29.780Z</time>
      </trkpt>
      <trkpt lat="48.88571" lon="2.31683">
        <ele>99.9</ele>
        <time>2015-06-15T20:14:31.832Z</time>
      </trkpt>
      <trkpt lat="48.88568" lon="2.31686">
        <ele>100.1</ele>
        <time>2015-06-15T20:14:33.017Z</time>
      </trkpt>
      <trkpt lat="48.88561" lon="2.31692">
        <ele>100.7</ele>
        <time>2015-06-15T20:14:34.820Z</time>
      </trkpt>
      <trkpt lat="48.88558" lon="2.31696">
        <ele>100.9</ele>
        <time>2015-06-15T20:14:35.841Z</time>
      </trkpt>
      <trkpt lat="48.88553" lon="2.31702">
        <ele>101.1</ele>
        <time>2015-06-15T20:14:37.914Z</time>
      </trkpt>
      <trkpt lat="48.8855" lon="2.31705">
        <ele>101.1</ele>
        <time>2015-06-15T20:14:38.910Z</time>
      </trkpt>
      <trkpt lat="48.88545" lon="2.31709">
        <ele>101.6</ele>
        <time>2015-06-15T20:14:40.856Z</time>
      </trkpt>
      <trkpt lat="48.88541" lon="2.31712">
        <ele>101.5</ele>
        <time>2015-06-15T20:14:41.878Z</time>
      </trkpt>
      <trkpt lat="48.88535" lon="2.31717">
        <ele>101.8</ele>
        <time>2015-06-15T20:14:43.823Z</time>
      </trkpt>
      <trkpt lat="48.88532" lon="2.3172">
        <ele>102</ele>
        <time>2015-06-15T20:14:44.917Z</time>
      </trkpt>
      <trkpt lat="48.88526" lon="2.31726">
        <ele>102.2</ele>
        <time>2015-06-15T20:14:46.817Z</time>
      </trkpt>
      <trkpt lat="48.88523" lon="2.3173">
        <ele>102.2</ele>
        <time>2015-06-15T20:14:47.828Z</time>
      </trkpt>
      <trkpt lat="48.88516" lon="2.31737">
        <ele>102.9</ele>
        <time>2015-06-15T20:14:49.848Z</time>
      </trkpt>
      <trkpt lat="48.88513" lon="2.31741">
        <ele>103.2</ele>
        <time>2015-06-15T20:14:50.873Z</time>
      </trkpt>
      <trkpt lat="48.88506" lon="2.31749">
        <ele>103.7</ele>
        <time>2015-06-15T20:14:52.808Z</time>
      </trkpt>
      <trkpt lat="48.88503" lon="2.31752">
        <ele>103.9</ele>
        <time>2015-06-15T20:14:53.826Z</time>
      </trkpt>
      <trkpt lat="48.88496" lon="2.31759">
        <ele>104.1</ele>
        <time>2015-06-15T20:14:55.822Z</time>
      </trkpt>
      <trkpt lat="48.88492" lon="2.31763">
        <ele>104.4</ele>
        <time>2015-06-15T20:14:56.900Z</time>
      </trkpt>
      <trkpt lat="48.88485" lon="2.3177">
        <ele>104.6</ele>
        <time>2015-06-15T20:14:58.871Z</time>
      </trkpt>
      <trkpt lat="48.88482" lon="2.31773">
        <ele>104.8</ele>
        <time>2015-06-15T20:14:59.888Z</time>
      </trkpt>
      <trkpt lat="48.88475" lon="2.31781">
        <ele>104.7</ele>
        <time>2015-06-15T20:15:01.841Z</time>
      </trkpt>
      <trkpt lat="48.88471" lon="2.31786">
        <ele>104.8</ele>
        <time>2015-06-15T20:15:02.884Z</time>
      </trkpt>
      <trkpt lat="48.88465" lon="2.31792">
        <ele>105.3</ele>
        <time>2015-06-15T20:15:04.901Z</time>
      </trkpt>
      <trkpt lat="48.88462" lon="2.31794">
        <ele>105.2</ele>
        <time>2015-06-15T20:15:05.802Z</time>
      </trkpt>
      <trkpt lat="48.88455" lon="2.31802">
        <ele>105.6</ele>
        <time>2015-06-15T20:15:08.455Z</time>
      </trkpt>
      <trkpt lat="48.88452" lon="2.31805">
        <ele>105.4</ele>
        <time>2015-06-15T20:15:09.029Z</time>
      </trkpt>
      <trkpt lat="48.88446" lon="2.31813">
        <ele>105.6</ele>
        <time>2015-06-15T20:15:10.827Z</time>
      </trkpt>
      <trkpt lat="48.88443" lon="2.31816">
        <ele>105.5</ele>
        <time>2015-06-15T20:15:11.834Z</time>
      </trkpt>
      <trkpt lat="48.88436" lon="2.31824">
        <ele>105.5</ele>
        <time>2015-06-15T20:15:13.807Z</time>
      </trkpt>
      <trkpt lat="48.88433" lon="2.31828">
        <ele>105.5</ele>
        <time>2015-06-15T20:15:14.902Z</time>
      </trkpt>
      <trkpt lat="48.88426" lon="2.31834">
        <ele>105.6</ele>
        <time>2015-06-15T20:15:16.820Z</time>
      </trkpt>
      <trkpt lat="48.88423" lon="2.31838">
        <ele>105.7</ele>
        <time>2015-06-15T20:15:17.825Z</time>
      </trkpt>
      <trkpt lat="48.88417" lon="2.31843">
        <ele>106.1</ele>
        <time>2015-06-15T20:15:19.780Z</time>
      </trkpt>
      <trkpt lat="48.88414" lon="2.31846">
        <ele>106.3</ele>
        <time>2015-06-15T20:15:20.836Z</time>
      </trkpt>
      <trkpt lat="48.88407" lon="2.31851">
        <ele>106.8</ele>
        <time>2015-06-15T20:15:23.550Z</time>
      </trkpt>
      <trkpt lat="48.88404" lon="2.31855">
        <ele>107.1</ele>
        <time>2015-06-15T20:15:23.782Z</time>
      </trkpt>
      <trkpt lat="48.88398" lon="2.3186">
        <ele>107.9</ele>
        <time>2015-06-15T20:15:25.831Z</time>
      </trkpt>
      <trkpt lat="48.88395" lon="2.31864">
        <ele>107.9</ele>
        <time>2015-06-15T20:15:26.881Z</time>
      </trkpt>
      <trkpt lat="48.8839" lon="2.31871">
        <ele>107.7</ele>
        <time>2015-06-15T20:15:28.774Z</time>
      </trkpt>
      <trkpt lat="48.88386" lon="2.31873">
        <ele>107.7</ele>
        <time>2015-06-15T20:15:29.817Z</time>
      </trkpt>
      <trkpt lat="48.8838" lon="2.31878">
        <ele>107.7</ele>
        <time>2015-06-15T20:15:31.861Z</time>
      </trkpt>
      <trkpt lat="48.88377" lon="2.31881">
        <ele>107.6</ele>
        <time>2015-06-15T20:15:32.900Z</time>
      </trkpt>
      <trkpt lat="48.88371" lon="2.31886">
        <ele>107.1</ele>
        <time>2015-06-15T20:15:34.842Z</time>
      </trkpt>
      <trkpt lat="48.88367" lon="2.3189">
        <ele>106.9</ele>
        <time>2015-06-15T20:15:35.877Z</time>
      </trkpt>
      <trkpt lat="48.88361" lon="2.31898">
        <ele>107</ele>
        <time>2015-06-15T20:15:37.890Z</time>
      </trkpt>
      <trkpt lat="48.88358" lon="2.31901">
        <ele>106.8</ele>
        <time>2015-06-15T20:15:38.923Z</time>
      </trkpt>
      <trkpt lat="48.88352" lon="2.31909">
        <ele>106.6</ele>
        <time>2015-06-15T20:15:40.805Z</time>
      </trkpt>
      <trkpt lat="48.88349" lon="2.31912">
        <ele>107.1</ele>
        <time>2015-06-15T20:15:41.813Z</time>
      </trkpt>
      <trkpt lat="48.88342" lon="2.31918">
        <ele>107</ele>
        <time>2015-06-15T20:15:43.960Z</time>
      </trkpt>
      <trkpt lat="48.88339" lon="2.31921">
        <ele>106.9</ele>
        <time>2015-06-15T20:15:44.866Z</time>
      </trkpt>
      <trkpt lat="48.88332" lon="2.31928">
        <ele>107.3</ele>
        <time>2015-06-15T20:15:46.781Z</time>
      </trkpt>
      <trkpt lat="48.88329" lon="2.31932">
        <ele>107.7</ele>
        <time>2015-06-15T20:15:47.768Z</time>
      </trkpt>
      <trkpt lat="48.88323" lon="2.31937">
        <ele>108.1</ele>
        <time>2015-06-15T20:15:49.826Z</time>
      </trkpt>
      <trkpt lat="48.8832" lon="2.3194">
        <ele>108.5</ele>
        <time>2015-06-15T20:15:50.837Z</time>
      </trkpt>
      <trkpt lat="48.88315" lon="2.31946">
        <ele>109.3</ele>
        <time>2015-06-15T20:15:52.862Z</time>
      </trkpt>
      <trkpt lat="48.88311" lon="2.31951">
        <ele>109.5</ele>
        <time>2015-06-15T20:15:53.883Z</time>
      </trkpt>
      <trkpt lat="48.88305" lon="2.31959">
        <ele>109.6</ele>
        <time>2015-06-15T20:15:55.810Z</time>
      </trkpt>
      <trkpt lat="48.88301" lon="2.31964">
        <ele>109.5</ele>
        <time>2015-06-15T20:15:56.826Z</time>
      </trkpt>
      <trkpt lat="48.88294" lon="2.31971">
        <ele>110.5</ele>
        <time>2015-06-15T20:15:58.848Z</time>
      </trkpt>
      <trkpt lat="48.88291" lon="2.31974">
        <ele>110.7</ele>
        <time>2015-06-15T20:15:59.859Z</time>
      </trkpt>
      <trkpt lat="48.88285" lon="2.31981">
        <ele>110.9</ele>
        <time>2015-06-15T20:16:01.886Z</time>
      </trkpt>
      <trkpt lat="48.88282" lon="2.31983">
        <ele>111</ele>
        <time>2015-06-15T20:16:02.964Z</time>
      </trkpt>
      <trkpt lat="48.88275" lon="2.31991">
        <ele>111.6</ele>
        <time>2015-06-15T20:16:04.825Z</time>
      </trkpt>
      <trkpt lat="48.88272" lon="2.31994">
        <ele>112</ele>
        <time>2015-06-15T20:16:05.863Z</time>
      </trkpt>
      <trkpt lat="48.88266" lon="2.32">
        <ele>112.3</ele>
        <time>2015-06-15T20:16:08.563Z</time>
      </trkpt>
      <trkpt lat="48.88262" lon="2.32003">
        <ele>112.6</ele>
        <time>2015-06-15T20:16:08.832Z</time>
      </trkpt>
      <trkpt lat="48.88256" lon="2.32011">
        <ele>113.1</ele>
        <time>2015-06-15T20:16:10.864Z</time>
      </trkpt>
      <trkpt lat="48.88252" lon="2.32015">
        <ele>112.9</ele>
        <time>2015-06-15T20:16:11.879Z</time>
      </trkpt>
      <trkpt lat="48.88246" lon="2.32023">
        <ele>112.9</ele>
        <time>2015-06-15T20:16:13.808Z</time>
      </trkpt>
      <trkpt lat="48.88242" lon="2.32028">
        <ele>113.1</ele>
        <time>2015-06-15T20:16:14.876Z</time>
      </trkpt>
      <trkpt lat="48.88239" lon="2.32033">
        <ele>113.5</ele>
        <time>2015-06-15T20:16:15.867Z</time>
      </trkpt>
      <trkpt lat="48.88236" lon="2.32039">
        <ele>114.3</ele>
        <time>2015-06-15T20:16:16.773Z</time>
      </trkpt>
      <trkpt lat="48.8823" lon="2.32045">
        <ele>114.6</ele>
        <time>2015-06-15T20:16:18.843Z</time>
      </trkpt>
      <trkpt lat="48.88227" lon="2.32048">
        <ele>114.3</ele>
        <time>2015-06-15T20:16:19.854Z</time>
      </trkpt>
      <trkpt lat="48.88219" lon="2.32054">
        <ele>114</ele>
        <time>2015-06-15T20:16:22.807Z</time>
      </trkpt>
      <trkpt lat="48.88217" lon="2.32055">
        <ele>113.9</ele>
        <time>2015-06-15T20:16:23.825Z</time>
      </trkpt>
      <trkpt lat="48.8821" lon="2.32061">
        <ele>114.8</ele>
        <time>2015-06-15T20:16:27.819Z</time>
      </trkpt>
      <trkpt lat="48.88208" lon="2.32063">
        <ele>115.3</ele>
        <time>2015-06-15T20:16:28.814Z</time>
      </trkpt>
      <trkpt lat="48.88204" lon="2.32066">
        <ele>117</ele>
        <time>2015-06-15T20:17:24.828Z</time>
      </trkpt>
      <trkpt lat="48.88199" lon="2.32051">
        <ele>114.8</ele>
        <time>2015-06-15T20:17:25.834Z</time>
      </trkpt>
      <trkpt lat="48.88193" lon="2.32059">
        <ele>113.6</ele>
        <time>2015-06-15T20:17:28.812Z</time>
      </trkpt>
      <trkpt lat="48.8819" lon="2.32062">
        <ele>113.3</ele>
        <time>2015-06-15T20:17:29.832Z</time>
      </trkpt>
      <trkpt lat="48.88184" lon="2.32065">
        <ele>113</ele>
        <time>2015-06-15T20:17:32.012Z</time>
      </trkpt>
      <trkpt lat="48.88181" lon="2.32067">
        <ele>113</ele>
        <time>2015-06-15T20:17:32.895Z</time>
      </trkpt>
      <trkpt lat="48.88174" lon="2.32072">
        <ele>112.9</ele>
        <time>2015-06-15T20:17:34.852Z</time>
      </trkpt>
      <trkpt lat="48.8817" lon="2.32074">
        <ele>112.9</ele>
        <time>2015-06-15T20:17:35.839Z</time>
      </trkpt>
      <trkpt lat="48.88163" lon="2.32078">
        <ele>113</ele>
        <time>2015-06-15T20:17:38.695Z</time>
      </trkpt>
      <trkpt lat="48.88159" lon="2.3208">
        <ele>112.9</ele>
        <time>2015-06-15T20:17:38.831Z</time>
      </trkpt>
      <trkpt lat="48.8815" lon="2.32084">
        <ele>113.1</ele>
        <time>2015-06-15T20:17:40.842Z</time>
      </trkpt>
      <trkpt lat="48.88146" lon="2.32087">
        <ele>113.6</ele>
        <time>2015-06-15T20:17:41.885Z</time>
      </trkpt>
      <trkpt lat="48.88142" lon="2.3209">
        <ele>113.7</ele>
        <time>2015-06-15T20:17:42.880Z</time>
      </trkpt>
      <trkpt lat="48.88137" lon="2.32094">
        <ele>113.7</ele>
        <time>2015-06-15T20:17:43.800Z</time>
      </trkpt>
      <trkpt lat="48.88132" lon="2.32096">
        <ele>113.6</ele>
        <time>2015-06-15T20:17:44.901Z</time>
      </trkpt>
      <trkpt lat="48.88128" lon="2.32099">
        <ele>113.6</ele>
        <time>2015-06-15T20:17:45.847Z</time>
      </trkpt>
      <trkpt lat="48.88123" lon="2.32101">
        <ele>113.4</ele>
        <time>2015-06-15T20:17:46.850Z</time>
      </trkpt>
      <trkpt lat="48.88118" lon="2.32105">
        <ele>113.5</ele>
        <time>2015-06-15T20:17:47.871Z</time>
      </trkpt>
      <trkpt lat="48.88113" lon="2.32109">
        <ele>113.6</ele>
        <time>2015-06-15T20:17:49.000Z</time>
      </trkpt>
      <trkpt lat="48.88109" lon="2.32112">
        <ele>113.5</ele>
        <time>2015-06-15T20:17:49.803Z</time>
      </trkpt>
      <trkpt lat="48.88101" lon="2.32117">
        <ele>113.6</ele>
        <time>2015-06-15T20:17:51.846Z</time>
      </trkpt>
      <trkpt lat="48.88096" lon="2.32119">
        <ele>113.6</ele>
        <time>2015-06-15T20:17:52.858Z</time>
      </trkpt>
      <trkpt lat="48.8809" lon="2.32122">
        <ele>113.5</ele>
        <time>2015-06-15T20:17:53.889Z</time>
      </trkpt>
      <trkpt lat="48.88086" lon="2.32123">
        <ele>113.4</ele>
        <time>2015-06-15T20:17:54.804Z</time>
      </trkpt>
      <trkpt lat="48.88081" lon="2.32124">
        <ele>113.5</ele>
        <time>2015-06-15T20:17:55.810Z</time>
      </trkpt>
      <trkpt lat="48.88077" lon="2.32126">
        <ele>113.8</ele>
        <time>2015-06-15T20:17:56.864Z</time>
      </trkpt>
      <trkpt lat="48.88069" lon="2.32133">
        <ele>114.6</ele>
        <time>2015-06-15T20:17:58.886Z</time>
      </trkpt>
      <trkpt lat="48.88063" lon="2.32133">
        <ele>114.6</ele>
        <time>2015-06-15T20:17:59.807Z</time>
      </trkpt>
      <trkpt lat="48.88056" lon="2.32132">
        <ele>114.5</ele>
        <time>2015-06-15T20:18:00.805Z</time>
      </trkpt>
      <trkpt lat="48.88053" lon="2.32135">
        <ele>114.8</ele>
        <time>2015-06-15T20:18:01.837Z</time>
      </trkpt>
      <trkpt lat="48.88046" lon="2.3214">
        <ele>115.2</ele>
        <time>2015-06-15T20:18:03.880Z</time>
      </trkpt>
      <trkpt lat="48.88043" lon="2.32142">
        <ele>115.4</ele>
        <time>2015-06-15T20:18:04.912Z</time>
      </trkpt>
      <trkpt lat="48.88036" lon="2.32147">
        <ele>115.8</ele>
        <time>2015-06-15T20:18:06.812Z</time>
      </trkpt>
      <trkpt lat="48.88031" lon="2.32151">
        <ele>115.7</ele>
        <time>2015-06-15T20:18:07.829Z</time>
      </trkpt>
      <trkpt lat="48.88026" lon="2.32155">
        <ele>115.8</ele>
        <time>2015-06-15T20:18:08.869Z</time>
      </trkpt>
      <trkpt lat="48.88022" lon="2.32158">
        <ele>116</ele>
        <time>2015-06-15T20:18:09.882Z</time>
      </trkpt>
      <trkpt lat="48.88017" lon="2.32162">
        <ele>116.1</ele>
        <time>2015-06-15T20:18:10.772Z</time>
      </trkpt>
      <trkpt lat="48.88012" lon="2.32165">
        <ele>116.3</ele>
        <time>2015-06-15T20:18:11.799Z</time>
      </trkpt>
      <trkpt lat="48.88007" lon="2.32168">
        <ele>116.3</ele>
        <time>2015-06-15T20:18:12.830Z</time>
      </trkpt>
      <trkpt lat="48.88002" lon="2.3217">
        <ele>116.3</ele>
        <time>2015-06-15T20:18:13.833Z</time>
      </trkpt>
      <trkpt lat="48.87998" lon="2.32173">
        <ele>116.4</ele>
        <time>2015-06-15T20:18:14.850Z</time>
      </trkpt>
      <trkpt lat="48.87993" lon="2.32175">
        <ele>116.6</ele>
        <time>2015-06-15T20:18:15.859Z</time>
      </trkpt>
      <trkpt lat="48.87987" lon="2.32177">
        <ele>116.5</ele>
        <time>2015-06-15T20:18:16.871Z</time>
      </trkpt>
      <trkpt lat="48.8798" lon="2.32178">
        <ele>116.4</ele>
        <time>2015-06-15T20:18:17.765Z</time>
      </trkpt>
      <trkpt lat="48.87975" lon="2.3218">
        <ele>116.6</ele>
        <time>2015-06-15T20:18:18.786Z</time>
      </trkpt>
      <trkpt lat="48.87969" lon="2.32181">
        <ele>116.6</ele>
        <time>2015-06-15T20:18:19.807Z</time>
      </trkpt>
      <trkpt lat="48.8796" lon="2.32184">
        <ele>116.8</ele>
        <time>2015-06-15T20:18:21.850Z</time>
      </trkpt>
      <trkpt lat="48.87956" lon="2.32185">
        <ele>116.9</ele>
        <time>2015-06-15T20:18:22.814Z</time>
      </trkpt>
      <trkpt lat="48.8795" lon="2.32192">
        <ele>116.4</ele>
        <time>2015-06-15T20:18:24.801Z</time>
      </trkpt>
      <trkpt lat="48.87946" lon="2.32196">
        <ele>116.2</ele>
        <time>2015-06-15T20:18:25.840Z</time>
      </trkpt>
      <trkpt lat="48.8794" lon="2.322">
        <ele>116.8</ele>
        <time>2015-06-15T20:18:26.886Z</time>
      </trkpt>
      <trkpt lat="48.87935" lon="2.32204">
        <ele>117.3</ele>
        <time>2015-06-15T20:18:27.792Z</time>
      </trkpt>
      <trkpt lat="48.87929" lon="2.32206">
        <ele>117.6</ele>
        <time>2015-06-15T20:18:28.795Z</time>
      </trkpt>
      <trkpt lat="48.87925" lon="2.32209">
        <ele>117.9</ele>
        <time>2015-06-15T20:18:29.808Z</time>
      </trkpt>
      <trkpt lat="48.87921" lon="2.32213">
        <ele>118.2</ele>
        <time>2015-06-15T20:18:30.822Z</time>
      </trkpt>
      <trkpt lat="48.87916" lon="2.32216">
        <ele>118.4</ele>
        <time>2015-06-15T20:18:31.849Z</time>
      </trkpt>
      <trkpt lat="48.87911" lon="2.32218">
        <ele>118.6</ele>
        <time>2015-06-15T20:18:32.897Z</time>
      </trkpt>
      <trkpt lat="48.87906" lon="2.3222">
        <ele>118.5</ele>
        <time>2015-06-15T20:18:33.801Z</time>
      </trkpt>
      <trkpt lat="48.87901" lon="2.32222">
        <ele>118.3</ele>
        <time>2015-06-15T20:18:34.801Z</time>
      </trkpt>
      <trkpt lat="48.87896" lon="2.32225">
        <ele>118.6</ele>
        <time>2015-06-15T20:18:35.806Z</time>
      </trkpt>
      <trkpt lat="48.8789" lon="2.32227">
        <ele>119</ele>
        <time>2015-06-15T20:18:36.848Z</time>
      </trkpt>
      <trkpt lat="48.87885" lon="2.32229">
        <ele>119.2</ele>
        <time>2015-06-15T20:18:37.872Z</time>
      </trkpt>
      <trkpt lat="48.8788" lon="2.32231">
        <ele>119.3</ele>
        <time>2015-06-15T20:18:38.899Z</time>
      </trkpt>
      <trkpt lat="48.87876" lon="2.32233">
        <ele>119.4</ele>
        <time>2015-06-15T20:18:39.789Z</time>
      </trkpt>
      <trkpt lat="48.87869" lon="2.32238">
        <ele>119.4</ele>
        <time>2015-06-15T20:18:41.801Z</time>
      </trkpt>
      <trkpt lat="48.87866" lon="2.32239">
        <ele>119.1</ele>
        <time>2015-06-15T20:18:42.917Z</time>
      </trkpt>
      <trkpt lat="48.87859" lon="2.32241">
        <ele>118.9</ele>
        <time>2015-06-15T20:18:44.838Z</time>
      </trkpt>
      <trkpt lat="48.87854" lon="2.32243">
        <ele>119</ele>
        <time>2015-06-15T20:18:46.026Z</time>
      </trkpt>
      <trkpt lat="48.87849" lon="2.32244">
        <ele>119.5</ele>
        <time>2015-06-15T20:18:46.880Z</time>
      </trkpt>
      <trkpt lat="48.87845" lon="2.32245">
        <ele>119.6</ele>
        <time>2015-06-15T20:18:47.769Z</time>
      </trkpt>
      <trkpt lat="48.8784" lon="2.32247">
        <ele>119.8</ele>
        <time>2015-06-15T20:18:48.795Z</time>
      </trkpt>
      <trkpt lat="48.87836" lon="2.32249">
        <ele>120</ele>
        <time>2015-06-15T20:18:49.823Z</time>
      </trkpt>
      <trkpt lat="48.87831" lon="2.3225">
        <ele>120.2</ele>
        <time>2015-06-15T20:18:50.837Z</time>
      </trkpt>
      <trkpt lat="48.87826" lon="2.32252">
        <ele>120.3</ele>
        <time>2015-06-15T20:18:51.845Z</time>
      </trkpt>
      <trkpt lat="48.87821" lon="2.32254">
        <ele>120.8</ele>
        <time>2015-06-15T20:18:52.858Z</time>
      </trkpt>
      <trkpt lat="48.87817" lon="2.32258">
        <ele>121.5</ele>
        <time>2015-06-15T20:18:53.876Z</time>
      </trkpt>
      <trkpt lat="48.8781" lon="2.32263">
        <ele>122</ele>
        <time>2015-06-15T20:18:55.800Z</time>
      </trkpt>
      <trkpt lat="48.87806" lon="2.32265">
        <ele>121.8</ele>
        <time>2015-06-15T20:18:56.813Z</time>
      </trkpt>
      <trkpt lat="48.87803" lon="2.32269">
        <ele>121.3</ele>
        <time>2015-06-15T20:18:57.824Z</time>
      </trkpt>
      <trkpt lat="48.87797" lon="2.32272">
        <ele>121.1</ele>
        <time>2015-06-15T20:18:58.957Z</time>
      </trkpt>
      <trkpt lat="48.87792" lon="2.32274">
        <ele>121.1</ele>
        <time>2015-06-15T20:18:59.801Z</time>
      </trkpt>
      <trkpt lat="48.87788" lon="2.32275">
        <ele>120.8</ele>
        <time>2015-06-15T20:19:00.819Z</time>
      </trkpt>
      <trkpt lat="48.8778" lon="2.32279">
        <ele>120.8</ele>
        <time>2015-06-15T20:19:02.845Z</time>
      </trkpt>
      <trkpt lat="48.87775" lon="2.32281">
        <ele>121.1</ele>
        <time>2015-06-15T20:19:03.885Z</time>
      </trkpt>
      <trkpt lat="48.87771" lon="2.32283">
        <ele>121.6</ele>
        <time>2015-06-15T20:19:04.803Z</time>
      </trkpt>
      <trkpt lat="48.87767" lon="2.32286">
        <ele>121.9</ele>
        <time>2015-06-15T20:19:05.798Z</time>
      </trkpt>
      <trkpt lat="48.87763" lon="2.3229">
        <ele>122.4</ele>
        <time>2015-06-15T20:19:06.838Z</time>
      </trkpt>
      <trkpt lat="48.8776" lon="2.32295">
        <ele>122.6</ele>
        <time>2015-06-15T20:19:07.862Z</time>
      </trkpt>
      <trkpt lat="48.87756" lon="2.32299">
        <ele>122.9</ele>
        <time>2015-06-15T20:19:08.890Z</time>
      </trkpt>
      <trkpt lat="48.87752" lon="2.32303">
        <ele>123</ele>
        <time>2015-06-15T20:19:09.764Z</time>
      </trkpt>
      <trkpt lat="48.87748" lon="2.32308">
        <ele>122.2</ele>
        <time>2015-06-15T20:19:10.790Z</time>
      </trkpt>
      <trkpt lat="48.87744" lon="2.32312">
        <ele>122</ele>
        <time>2015-06-15T20:19:11.799Z</time>
      </trkpt>
      <trkpt lat="48.87739" lon="2.32316">
        <ele>121.8</ele>
        <time>2015-06-15T20:19:12.759Z</time>
      </trkpt>
      <trkpt lat="48.87734" lon="2.32321">
        <ele>122.1</ele>
        <time>2015-06-15T20:19:13.792Z</time>
      </trkpt>
      <trkpt lat="48.87729" lon="2.32325">
        <ele>121.8</ele>
        <time>2015-06-15T20:19:14.924Z</time>
      </trkpt>
      <trkpt lat="48.87724" lon="2.32328">
        <ele>121.9</ele>
        <time>2015-06-15T20:19:15.795Z</time>
      </trkpt>
      <trkpt lat="48.87719" lon="2.32332">
        <ele>121.9</ele>
        <time>2015-06-15T20:19:16.848Z</time>
      </trkpt>
      <trkpt lat="48.87714" lon="2.32334">
        <ele>121.8</ele>
        <time>2015-06-15T20:19:17.880Z</time>
      </trkpt>
      <trkpt lat="48.8771" lon="2.32337">
        <ele>121.1</ele>
        <time>2015-06-15T20:19:18.800Z</time>
      </trkpt>
      <trkpt lat="48.87706" lon="2.3234">
        <ele>121.2</ele>
        <time>2015-06-15T20:19:19.798Z</time>
      </trkpt>
      <trkpt lat="48.87701" lon="2.32341">
        <ele>121.1</ele>
        <time>2015-06-15T20:19:20.879Z</time>
      </trkpt>
      <trkpt lat="48.87696" lon="2.32342">
        <ele>121.4</ele>
        <time>2015-06-15T20:19:21.885Z</time>
      </trkpt>
      <trkpt lat="48.87691" lon="2.32345">
        <ele>121.7</ele>
        <time>2015-06-15T20:19:22.797Z</time>
      </trkpt>
      <trkpt lat="48.87685" lon="2.32347">
        <ele>122</ele>
        <time>2015-06-15T20:19:23.825Z</time>
      </trkpt>
      <trkpt lat="48.8768" lon="2.3235">
        <ele>122.2</ele>
        <time>2015-06-15T20:19:24.844Z</time>
      </trkpt>
      <trkpt lat="48.87676" lon="2.32352">
        <ele>122.1</ele>
        <time>2015-06-15T20:19:25.848Z</time>
      </trkpt>
      <trkpt lat="48.8767" lon="2.32354">
        <ele>122.1</ele>
        <time>2015-06-15T20:19:26.862Z</time>
      </trkpt>
      <trkpt lat="48.87665" lon="2.32357">
        <ele>122.1</ele>
        <time>2015-06-15T20:19:27.872Z</time>
      </trkpt>
      <trkpt lat="48.8766" lon="2.32359">
        <ele>122</ele>
        <time>2015-06-15T20:19:28.792Z</time>
      </trkpt>
      <trkpt lat="48.87655" lon="2.3236">
        <ele>122.2</ele>
        <time>2015-06-15T20:19:29.801Z</time>
      </trkpt>
      <trkpt lat="48.8765" lon="2.32361">
        <ele>122.4</ele>
        <time>2015-06-15T20:19:30.902Z</time>
      </trkpt>
      <trkpt lat="48.87646" lon="2.32363">
        <ele>122.5</ele>
        <time>2015-06-15T20:19:31.801Z</time>
      </trkpt>
      <trkpt lat="48.87638" lon="2.32366">
        <ele>122.6</ele>
        <time>2015-06-15T20:19:33.857Z</time>
      </trkpt>
      <trkpt lat="48.87634" lon="2.32369">
        <ele>122.5</ele>
        <time>2015-06-15T20:19:34.833Z</time>
      </trkpt>
      <trkpt lat="48.87627" lon="2.32373">
        <ele>122.2</ele>
        <time>2015-06-15T20:19:36.832Z</time>
      </trkpt>
      <trkpt lat="48.87623" lon="2.32375">
        <ele>122.1</ele>
        <time>2015-06-15T20:19:37.913Z</time>
      </trkpt>
      <trkpt lat="48.87615" lon="2.32379">
        <ele>122.1</ele>
        <time>2015-06-15T20:19:39.801Z</time>
      </trkpt>
      <trkpt lat="48.8761" lon="2.32381">
        <ele>121.9</ele>
        <time>2015-06-15T20:19:40.926Z</time>
      </trkpt>
      <trkpt lat="48.87605" lon="2.32383">
        <ele>121.7</ele>
        <time>2015-06-15T20:19:41.916Z</time>
      </trkpt>
      <trkpt lat="48.876" lon="2.32386">
        <ele>121.2</ele>
        <time>2015-06-15T20:19:42.799Z</time>
      </trkpt>
      <trkpt lat="48.87596" lon="2.32389">
        <ele>120.9</ele>
        <time>2015-06-15T20:19:43.806Z</time>
      </trkpt>
      <trkpt lat="48.87592" lon="2.32393">
        <ele>121.1</ele>
        <time>2015-06-15T20:19:44.861Z</time>
      </trkpt>
      <trkpt lat="48.87588" lon="2.32397">
        <ele>120.7</ele>
        <time>2015-06-15T20:19:45.857Z</time>
      </trkpt>
      <trkpt lat="48.87583" lon="2.32401">
        <ele>120.5</ele>
        <time>2015-06-15T20:19:46.862Z</time>
      </trkpt>
      <trkpt lat="48.87576" lon="2.32404">
        <ele>119.8</ele>
        <time>2015-06-15T20:19:47.787Z</time>
      </trkpt>
      <trkpt lat="48.87569" lon="2.32406">
        <ele>118.9</ele>
        <time>2015-06-15T20:19:48.801Z</time>
      </trkpt>
      <trkpt lat="48.87562" lon="2.32408">
        <ele>118.2</ele>
        <time>2015-06-15T20:19:49.797Z</time>
      </trkpt>
      <trkpt lat="48.87556" lon="2.32408">
        <ele>117.2</ele>
        <time>2015-06-15T20:19:50.856Z</time>
      </trkpt>
      <trkpt lat="48.87549" lon="2.32407">
        <ele>116.4</ele>
        <time>2015-06-15T20:19:51.865Z</time>
      </trkpt>
      <trkpt lat="48.87543" lon="2.32407">
        <ele>116.1</ele>
        <time>2015-06-15T20:19:52.869Z</time>
      </trkpt>
      <trkpt lat="48.87536" lon="2.32405">
        <ele>114.6</ele>
        <time>2015-06-15T20:19:53.798Z</time>
      </trkpt>
      <trkpt lat="48.8753" lon="2.32404">
        <ele>113.7</ele>
        <time>2015-06-15T20:19:54.812Z</time>
      </trkpt>
      <trkpt lat="48.87525" lon="2.32404">
        <ele>113.1</ele>
        <time>2015-06-15T20:19:55.809Z</time>
      </trkpt>
      <trkpt lat="48.87519" lon="2.32404">
        <ele>112.7</ele>
        <time>2015-06-15T20:19:56.862Z</time>
      </trkpt>
      <trkpt lat="48.87514" lon="2.32403">
        <ele>112.7</ele>
        <time>2015-06-15T20:19:57.868Z</time>
      </trkpt>
      <trkpt lat="48.8751" lon="2.32401">
        <ele>112.1</ele>
        <time>2015-06-15T20:19:58.884Z</time>
      </trkpt>
      <trkpt lat="48.87502" lon="2.32397">
        <ele>111.4</ele>
        <time>2015-06-15T20:20:00.809Z</time>
      </trkpt>
      <trkpt lat="48.87497" lon="2.32396">
        <ele>111</ele>
        <time>2015-06-15T20:20:01.851Z</time>
      </trkpt>
      <trkpt lat="48.87492" lon="2.32397">
        <ele>111</ele>
        <time>2015-06-15T20:20:02.879Z</time>
      </trkpt>
      <trkpt lat="48.87487" lon="2.32397">
        <ele>110.6</ele>
        <time>2015-06-15T20:20:03.790Z</time>
      </trkpt>
      <trkpt lat="48.87482" lon="2.32397">
        <ele>110.3</ele>
        <time>2015-06-15T20:20:04.792Z</time>
      </trkpt>
      <trkpt lat="48.87477" lon="2.32395">
        <ele>110.3</ele>
        <time>2015-06-15T20:20:05.804Z</time>
      </trkpt>
      <trkpt lat="48.87471" lon="2.32393">
        <ele>110</ele>
        <time>2015-06-15T20:20:06.811Z</time>
      </trkpt>
      <trkpt lat="48.87467" lon="2.32392">
        <ele>109.9</ele>
        <time>2015-06-15T20:20:07.824Z</time>
      </trkpt>
      <trkpt lat="48.87463" lon="2.32392">
        <ele>110</ele>
        <time>2015-06-15T20:20:08.856Z</time>
      </trkpt>
      <trkpt lat="48.87457" lon="2.3239">
        <ele>109.8</ele>
        <time>2015-06-15T20:20:09.867Z</time>
      </trkpt>
      <trkpt lat="48.87452" lon="2.3239">
        <ele>109.9</ele>
        <time>2015-06-15T20:20:10.780Z</time>
      </trkpt>
      <trkpt lat="48.87446" lon="2.32391">
        <ele>109.9</ele>
        <time>2015-06-15T20:20:11.784Z</time>
      </trkpt>
      <trkpt lat="48.87438" lon="2.32393">
        <ele>109.9</ele>
        <time>2015-06-15T20:20:12.777Z</time>
      </trkpt>
      <trkpt lat="48.87431" lon="2.32393">
        <ele>109.9</ele>
        <time>2015-06-15T20:20:13.786Z</time>
      </trkpt>
      <trkpt lat="48.87424" lon="2.32394">
        <ele>109.6</ele>
        <time>2015-06-15T20:20:14.830Z</time>
      </trkpt>
      <trkpt lat="48.87418" lon="2.32394">
        <ele>109.5</ele>
        <time>2015-06-15T20:20:15.833Z</time>
      </trkpt>
      <trkpt lat="48.87412" lon="2.32392">
        <ele>109</ele>
        <time>2015-06-15T20:20:16.860Z</time>
      </trkpt>
      <trkpt lat="48.87407" lon="2.32391">
        <ele>108.4</ele>
        <time>2015-06-15T20:20:17.787Z</time>
      </trkpt>
      <trkpt lat="48.87401" lon="2.32385">
        <ele>107.8</ele>
        <time>2015-06-15T20:20:19.795Z</time>
      </trkpt>
      <trkpt lat="48.87395" lon="2.32382">
        <ele>107.8</ele>
        <time>2015-06-15T20:20:20.929Z</time>
      </trkpt>
      <trkpt lat="48.8739" lon="2.32379">
        <ele>107.6</ele>
        <time>2015-06-15T20:20:21.787Z</time>
      </trkpt>
      <trkpt lat="48.87385" lon="2.32378">
        <ele>107.8</ele>
        <time>2015-06-15T20:20:22.799Z</time>
      </trkpt>
      <trkpt lat="48.8738" lon="2.32376">
        <ele>107.5</ele>
        <time>2015-06-15T20:20:23.832Z</time>
      </trkpt>
      <trkpt lat="48.87374" lon="2.32375">
        <ele>107.1</ele>
        <time>2015-06-15T20:20:24.831Z</time>
      </trkpt>
      <trkpt lat="48.8737" lon="2.32372">
        <ele>106.9</ele>
        <time>2015-06-15T20:20:25.779Z</time>
      </trkpt>
      <trkpt lat="48.87364" lon="2.3237">
        <ele>106.8</ele>
        <time>2015-06-15T20:20:26.819Z</time>
      </trkpt>
      <trkpt lat="48.87359" lon="2.32368">
        <ele>107</ele>
        <time>2015-06-15T20:20:27.823Z</time>
      </trkpt>
      <trkpt lat="48.87354" lon="2.32368">
        <ele>107.4</ele>
        <time>2015-06-15T20:20:28.822Z</time>
      </trkpt>
      <trkpt lat="48.87346" lon="2.32365">
        <ele>107.8</ele>
        <time>2015-06-15T20:20:30.787Z</time>
      </trkpt>
      <trkpt lat="48.87341" lon="2.32366">
        <ele>107.6</ele>
        <time>2015-06-15T20:20:31.861Z</time>
      </trkpt>
      <trkpt lat="48.87335" lon="2.32372">
        <ele>105.7</ele>
        <time>2015-06-15T20:20:33.867Z</time>
      </trkpt>
      <trkpt lat="48.87333" lon="2.32378">
        <ele>103.4</ele>
        <time>2015-06-15T20:20:34.897Z</time>
      </trkpt>
      <trkpt lat="48.87332" lon="2.32388">
        <ele>100.3</ele>
        <time>2015-06-15T20:20:36.796Z</time>
      </trkpt>
      <trkpt lat="48.87331" lon="2.32393">
        <ele>99.3</ele>
        <time>2015-06-15T20:20:37.838Z</time>
      </trkpt>
      <trkpt lat="48.87331" lon="2.32406">
        <ele>97.7</ele>
        <time>2015-06-15T20:20:40.809Z</time>
      </trkpt>
      <trkpt lat="48.87332" lon="2.32411">
        <ele>97.6</ele>
        <time>2015-06-15T20:20:41.808Z</time>
      </trkpt>
      <trkpt lat="48.87334" lon="2.32421">
        <ele>97.1</ele>
        <time>2015-06-15T20:20:43.800Z</time>
      </trkpt>
      <trkpt lat="48.87336" lon="2.32425">
        <ele>96.7</ele>
        <time>2015-06-15T20:20:44.884Z</time>
      </trkpt>
      <trkpt lat="48.87337" lon="2.32435">
        <ele>96.4</ele>
        <time>2015-06-15T20:20:46.774Z</time>
      </trkpt>
      <trkpt lat="48.87337" lon="2.3244">
        <ele>96.5</ele>
        <time>2015-06-15T20:20:47.842Z</time>
      </trkpt>
      <trkpt lat="48.87338" lon="2.32449">
        <ele>96</ele>
        <time>2015-06-15T20:20:49.776Z</time>
      </trkpt>
      <trkpt lat="48.87338" lon="2.32455">
        <ele>96</ele>
        <time>2015-06-15T20:20:50.835Z</time>
      </trkpt>
      <trkpt lat="48.87337" lon="2.32467">
        <ele>95.3</ele>
        <time>2015-06-15T20:20:52.766Z</time>
      </trkpt>
      <trkpt lat="48.87336" lon="2.32472">
        <ele>94.7</ele>
        <time>2015-06-15T20:20:53.810Z</time>
      </trkpt>
      <trkpt lat="48.87336" lon="2.32483">
        <ele>94.6</ele>
        <time>2015-06-15T20:20:55.861Z</time>
      </trkpt>
      <trkpt lat="48.87334" lon="2.32489">
        <ele>94.8</ele>
        <time>2015-06-15T20:20:56.901Z</time>
      </trkpt>
      <trkpt lat="48.87335" lon="2.325">
        <ele>93.9</ele>
        <time>2015-06-15T20:20:58.843Z</time>
      </trkpt>
      <trkpt lat="48.87333" lon="2.32505">
        <ele>93.5</ele>
        <time>2015-06-15T20:20:59.771Z</time>
      </trkpt>
      <trkpt lat="48.87329" lon="2.32516">
        <ele>93.6</ele>
        <time>2015-06-15T20:21:01.784Z</time>
      </trkpt>
      <trkpt lat="48.8733" lon="2.32522">
        <ele>93.8</ele>
        <time>2015-06-15T20:21:02.805Z</time>
      </trkpt>
      <trkpt lat="48.87331" lon="2.32532">
        <ele>94</ele>
        <time>2015-06-15T20:21:04.773Z</time>
      </trkpt>
      <trkpt lat="48.87331" lon="2.32537">
        <ele>93.9</ele>
        <time>2015-06-15T20:21:05.810Z</time>
      </trkpt>
      <trkpt lat="48.87329" lon="2.3255">
        <ele>93.2</ele>
        <time>2015-06-15T20:21:08.850Z</time>
      </trkpt>
      <trkpt lat="48.87328" lon="2.32555">
        <ele>93</ele>
        <time>2015-06-15T20:21:09.785Z</time>
      </trkpt>
      <trkpt lat="48.87327" lon="2.32566">
        <ele>92.7</ele>
        <time>2015-06-15T20:21:11.794Z</time>
      </trkpt>
      <trkpt lat="48.87327" lon="2.32571">
        <ele>92.2</ele>
        <time>2015-06-15T20:21:12.812Z</time>
      </trkpt>
      <trkpt lat="48.87326" lon="2.32583">
        <ele>92.3</ele>
        <time>2015-06-15T20:21:14.832Z</time>
      </trkpt>
      <trkpt lat="48.87325" lon="2.32589">
        <ele>92.2</ele>
        <time>2015-06-15T20:21:15.855Z</time>
      </trkpt>
      <trkpt lat="48.87325" lon="2.326">
        <ele>91.5</ele>
        <time>2015-06-15T20:21:17.782Z</time>
      </trkpt>
      <trkpt lat="48.87325" lon="2.32606">
        <ele>91.3</ele>
        <time>2015-06-15T20:21:18.792Z</time>
      </trkpt>
      <trkpt lat="48.87324" lon="2.32619">
        <ele>90.1</ele>
        <time>2015-06-15T20:21:20.835Z</time>
      </trkpt>
      <trkpt lat="48.87323" lon="2.32624">
        <ele>89.7</ele>
        <time>2015-06-15T20:21:21.777Z</time>
      </trkpt>
      <trkpt lat="48.87319" lon="2.32636">
        <ele>88.9</ele>
        <time>2015-06-15T20:21:24.816Z</time>
      </trkpt>
      <trkpt lat="48.87318" lon="2.32639">
        <ele>89</ele>
        <time>2015-06-15T20:21:25.863Z</time>
      </trkpt>
      <trkpt lat="48.87318" lon="2.32651">
        <ele>89.1</ele>
        <time>2015-06-15T20:21:28.765Z</time>
      </trkpt>
      <trkpt lat="48.87317" lon="2.32654">
        <ele>89.4</ele>
        <time>2015-06-15T20:21:29.797Z</time>
      </trkpt>
      <trkpt lat="48.87314" lon="2.32666">
        <ele>90.1</ele>
        <time>2015-06-15T20:21:54.757Z</time>
      </trkpt>
      <trkpt lat="48.87314" lon="2.3267">
        <ele>90.2</ele>
        <time>2015-06-15T20:21:55.756Z</time>
      </trkpt>
      <trkpt lat="48.87315" lon="2.32682">
        <ele>90.8</ele>
        <time>2015-06-15T20:21:58.818Z</time>
      </trkpt>
      <trkpt lat="48.87315" lon="2.32686">
        <ele>90.8</ele>
        <time>2015-06-15T20:21:59.825Z</time>
      </trkpt>
      <trkpt lat="48.87316" lon="2.32699">
        <ele>90.7</ele>
        <time>2015-06-15T20:22:02.927Z</time>
      </trkpt>
      <trkpt lat="48.87316" lon="2.32704">
        <ele>90.3</ele>
        <time>2015-06-15T20:22:03.790Z</time>
      </trkpt>
      <trkpt lat="48.87314" lon="2.32714">
        <ele>90.1</ele>
        <time>2015-06-15T20:22:05.792Z</time>
      </trkpt>
      <trkpt lat="48.87312" lon="2.32718">
        <ele>90.2</ele>
        <time>2015-06-15T20:22:06.797Z</time>
      </trkpt>
      <trkpt lat="48.87308" lon="2.32728">
        <ele>90.6</ele>
        <time>2015-06-15T20:22:08.860Z</time>
      </trkpt>
      <trkpt lat="48.87306" lon="2.32732">
        <ele>90.8</ele>
        <time>2015-06-15T20:22:09.743Z</time>
      </trkpt>
      <trkpt lat="48.87303" lon="2.32744">
        <ele>91</ele>
        <time>2015-06-15T20:22:13.448Z</time>
      </trkpt>
      <trkpt lat="48.87302" lon="2.3275">
        <ele>91.2</ele>
        <time>2015-06-15T20:22:13.871Z</time>
      </trkpt>
      <trkpt lat="48.87303" lon="2.32756">
        <ele>91.3</ele>
        <time>2015-06-15T20:22:14.887Z</time>
      </trkpt>
      <trkpt lat="48.87306" lon="2.32763">
        <ele>91.9</ele>
        <time>2015-06-15T20:22:15.797Z</time>
      </trkpt>
      <trkpt lat="48.87308" lon="2.32771">
        <ele>92</ele>
        <time>2015-06-15T20:22:16.796Z</time>
      </trkpt>
      <trkpt lat="48.87308" lon="2.32778">
        <ele>92</ele>
        <time>2015-06-15T20:22:17.801Z</time>
      </trkpt>
      <trkpt lat="48.87309" lon="2.32787">
        <ele>90.9</ele>
        <time>2015-06-15T20:22:18.816Z</time>
      </trkpt>
      <trkpt lat="48.87309" lon="2.32794">
        <ele>90.6</ele>
        <time>2015-06-15T20:22:19.814Z</time>
      </trkpt>
      <trkpt lat="48.87308" lon="2.32801">
        <ele>89.6</ele>
        <time>2015-06-15T20:22:20.911Z</time>
      </trkpt>
      <trkpt lat="48.87309" lon="2.32808">
        <ele>89.5</ele>
        <time>2015-06-15T20:22:21.836Z</time>
      </trkpt>
      <trkpt lat="48.87312" lon="2.32814">
        <ele>89.4</ele>
        <time>2015-06-15T20:22:23.542Z</time>
      </trkpt>
      <trkpt lat="48.87315" lon="2.3282">
        <ele>89.5</ele>
        <time>2015-06-15T20:22:23.749Z</time>
      </trkpt>
      <trkpt lat="48.87315" lon="2.32831">
        <ele>89.5</ele>
        <time>2015-06-15T20:22:25.801Z</time>
      </trkpt>
      <trkpt lat="48.87314" lon="2.32837">
        <ele>89</ele>
        <time>2015-06-15T20:22:26.847Z</time>
      </trkpt>
      <trkpt lat="48.87308" lon="2.32847">
        <ele>90.5</ele>
        <time>2015-06-15T20:22:28.769Z</time>
      </trkpt>
      <trkpt lat="48.87306" lon="2.32853">
        <ele>92</ele>
        <time>2015-06-15T20:22:29.795Z</time>
      </trkpt>
      <trkpt lat="48.87301" lon="2.32864">
        <ele>92.6</ele>
        <time>2015-06-15T20:22:31.765Z</time>
      </trkpt>
      <trkpt lat="48.87297" lon="2.32868">
        <ele>92.8</ele>
        <time>2015-06-15T20:22:32.904Z</time>
      </trkpt>
      <trkpt lat="48.8729" lon="2.32874">
        <ele>93.2</ele>
        <time>2015-06-15T20:22:34.833Z</time>
      </trkpt>
      <trkpt lat="48.87286" lon="2.32876">
        <ele>93.4</ele>
        <time>2015-06-15T20:22:35.837Z</time>
      </trkpt>
      <trkpt lat="48.87279" lon="2.32882">
        <ele>94</ele>
        <time>2015-06-15T20:22:37.792Z</time>
      </trkpt>
      <trkpt lat="48.87275" lon="2.32886">
        <ele>94.3</ele>
        <time>2015-06-15T20:22:38.844Z</time>
      </trkpt>
      <trkpt lat="48.87271" lon="2.32889">
        <ele>94.5</ele>
        <time>2015-06-15T20:22:39.856Z</time>
      </trkpt>
      <trkpt lat="48.87268" lon="2.32894">
        <ele>94.8</ele>
        <time>2015-06-15T20:22:40.798Z</time>
      </trkpt>
      <trkpt lat="48.87265" lon="2.32901">
        <ele>95.3</ele>
        <time>2015-06-15T20:22:41.859Z</time>
      </trkpt>
      <trkpt lat="48.87263" lon="2.32909">
        <ele>95.5</ele>
        <time>2015-06-15T20:22:42.869Z</time>
      </trkpt>
      <trkpt lat="48.87261" lon="2.32916">
        <ele>95.9</ele>
        <time>2015-06-15T20:22:43.775Z</time>
      </trkpt>
      <trkpt lat="48.87258" lon="2.32924">
        <ele>96.1</ele>
        <time>2015-06-15T20:22:44.809Z</time>
      </trkpt>
      <trkpt lat="48.87257" lon="2.32931">
        <ele>96.4</ele>
        <time>2015-06-15T20:22:45.858Z</time>
      </trkpt>
      <trkpt lat="48.87253" lon="2.32938">
        <ele>96.6</ele>
        <time>2015-06-15T20:22:46.882Z</time>
      </trkpt>
      <trkpt lat="48.8725" lon="2.32943">
        <ele>97</ele>
        <time>2015-06-15T20:22:47.804Z</time>
      </trkpt>
      <trkpt lat="48.87246" lon="2.32948">
        <ele>97.4</ele>
        <time>2015-06-15T20:22:48.814Z</time>
      </trkpt>
      <trkpt lat="48.87243" lon="2.32954">
        <ele>97.9</ele>
        <time>2015-06-15T20:22:49.820Z</time>
      </trkpt>
      <trkpt lat="48.87239" lon="2.32959">
        <ele>98.5</ele>
        <time>2015-06-15T20:22:50.838Z</time>
      </trkpt>
      <trkpt lat="48.87237" lon="2.32965">
        <ele>98.8</ele>
        <time>2015-06-15T20:22:51.849Z</time>
      </trkpt>
      <trkpt lat="48.87235" lon="2.32972">
        <ele>99.1</ele>
        <time>2015-06-15T20:22:52.793Z</time>
      </trkpt>
      <trkpt lat="48.87231" lon="2.32983">
        <ele>99.5</ele>
        <time>2015-06-15T20:22:54.824Z</time>
      </trkpt>
      <trkpt lat="48.8723" lon="2.3299">
        <ele>99.7</ele>
        <time>2015-06-15T20:22:55.838Z</time>
      </trkpt>
      <trkpt lat="48.87227" lon="2.33002">
        <ele>100.2</ele>
        <time>2015-06-15T20:22:58.209Z</time>
      </trkpt>
      <trkpt lat="48.87226" lon="2.33007">
        <ele>100.4</ele>
        <time>2015-06-15T20:22:58.794Z</time>
      </trkpt>
      <trkpt lat="48.87222" lon="2.33017">
        <ele>100.7</ele>
        <time>2015-06-15T20:23:00.803Z</time>
      </trkpt>
      <trkpt lat="48.87219" lon="2.33022">
        <ele>100.5</ele>
        <time>2015-06-15T20:23:01.812Z</time>
      </trkpt>
      <trkpt lat="48.87214" lon="2.33032">
        <ele>100.9</ele>
        <time>2015-06-15T20:23:03.865Z</time>
      </trkpt>
      <trkpt lat="48.87212" lon="2.33038">
        <ele>101.4</ele>
        <time>2015-06-15T20:23:04.786Z</time>
      </trkpt>
      <trkpt lat="48.87209" lon="2.33042">
        <ele>101.5</ele>
        <time>2015-06-15T20:23:05.782Z</time>
      </trkpt>
      <trkpt lat="48.87204" lon="2.33047">
        <ele>101.4</ele>
        <time>2015-06-15T20:23:06.764Z</time>
      </trkpt>
      <trkpt lat="48.87201" lon="2.33052">
        <ele>101.2</ele>
        <time>2015-06-15T20:23:08.301Z</time>
      </trkpt>
      <trkpt lat="48.87197" lon="2.33058">
        <ele>101.5</ele>
        <time>2015-06-15T20:23:08.895Z</time>
      </trkpt>
      <trkpt lat="48.87194" lon="2.33063">
        <ele>101.5</ele>
        <time>2015-06-15T20:23:09.839Z</time>
      </trkpt>
      <trkpt lat="48.87188" lon="2.33067">
        <ele>101.3</ele>
        <time>2015-06-15T20:23:10.843Z</time>
      </trkpt>
      <trkpt lat="48.87185" lon="2.33072">
        <ele>101.3</ele>
        <time>2015-06-15T20:23:11.871Z</time>
      </trkpt>
      <trkpt lat="48.87181" lon="2.33077">
        <ele>101.1</ele>
        <time>2015-06-15T20:23:12.871Z</time>
      </trkpt>
      <trkpt lat="48.87177" lon="2.33081">
        <ele>101.1</ele>
        <time>2015-06-15T20:23:13.810Z</time>
      </trkpt>
      <trkpt lat="48.87174" lon="2.33086">
        <ele>101.5</ele>
        <time>2015-06-15T20:23:14.826Z</time>
      </trkpt>
      <trkpt lat="48.87168" lon="2.33096">
        <ele>102.4</ele>
        <time>2015-06-15T20:23:16.827Z</time>
      </trkpt>
      <trkpt lat="48.87166" lon="2.33101">
        <ele>102.7</ele>
        <time>2015-06-15T20:23:17.766Z</time>
      </trkpt>
      <trkpt lat="48.87159" lon="2.33111">
        <ele>102.8</ele>
        <time>2015-06-15T20:23:19.815Z</time>
      </trkpt>
      <trkpt lat="48.87156" lon="2.33116">
        <ele>103.2</ele>
        <time>2015-06-15T20:23:20.857Z</time>
      </trkpt>
      <trkpt lat="48.87152" lon="2.3312">
        <ele>103.7</ele>
        <time>2015-06-15T20:23:21.871Z</time>
      </trkpt>
      <trkpt lat="48.87149" lon="2.33126">
        <ele>103.9</ele>
        <time>2015-06-15T20:23:22.809Z</time>
      </trkpt>
      <trkpt lat="48.87145" lon="2.33131">
        <ele>104.3</ele>
        <time>2015-06-15T20:23:23.865Z</time>
      </trkpt>
      <trkpt lat="48.87142" lon="2.33136">
        <ele>104.7</ele>
        <time>2015-06-15T20:23:24.870Z</time>
      </trkpt>
      <trkpt lat="48.87138" lon="2.33142">
        <ele>104.3</ele>
        <time>2015-06-15T20:23:25.795Z</time>
      </trkpt>
      <trkpt lat="48.87135" lon="2.33147">
        <ele>104.2</ele>
        <time>2015-06-15T20:23:26.830Z</time>
      </trkpt>
      <trkpt lat="48.87132" lon="2.33153">
        <ele>104.1</ele>
        <time>2015-06-15T20:23:27.836Z</time>
      </trkpt>
      <trkpt lat="48.87129" lon="2.33159">
        <ele>104.1</ele>
        <time>2015-06-15T20:23:28.850Z</time>
      </trkpt>
      <trkpt lat="48.87126" lon="2.33164">
        <ele>104.3</ele>
        <time>2015-06-15T20:23:28.496Z</time>
      </trkpt>
      <trkpt lat="48.87122" lon="2.33169">
        <ele>104.4</ele>
        <time>2015-06-15T20:23:30.793Z</time>
      </trkpt>
      <trkpt lat="48.87118" lon="2.33174">
        <ele>104.3</ele>
        <time>2015-06-15T20:23:31.845Z</time>
      </trkpt>
      <trkpt lat="48.87115" lon="2.33179">
        <ele>104.1</ele>
        <time>2015-06-15T20:23:32.834Z</time>
      </trkpt>
      <trkpt lat="48.87111" lon="2.33185">
        <ele>104.2</ele>
        <time>2015-06-15T20:23:33.816Z</time>
      </trkpt>
      <trkpt lat="48.87107" lon="2.3319">
        <ele>104.2</ele>
        <time>2015-06-15T20:23:34.822Z</time>
      </trkpt>
      <trkpt lat="48.87104" lon="2.33196">
        <ele>104</ele>
        <time>2015-06-15T20:23:35.833Z</time>
      </trkpt>
      <trkpt lat="48.871" lon="2.33201">
        <ele>104</ele>
        <time>2015-06-15T20:23:36.838Z</time>
      </trkpt>
      <trkpt lat="48.87096" lon="2.33204">
        <ele>103.6</ele>
        <time>2015-06-15T20:23:37.892Z</time>
      </trkpt>
      <trkpt lat="48.87092" lon="2.33208">
        <ele>104.3</ele>
        <time>2015-06-15T20:23:38.807Z</time>
      </trkpt>
      <trkpt lat="48.87086" lon="2.33213">
        <ele>105.8</ele>
        <time>2015-06-15T20:23:40.798Z</time>
      </trkpt>
      <trkpt lat="48.87082" lon="2.33214">
        <ele>106.2</ele>
        <time>2015-06-15T20:23:41.827Z</time>
      </trkpt>
      <trkpt lat="48.87075" lon="2.33218">
        <ele>106.5</ele>
        <time>2015-06-15T20:23:43.785Z</time>
      </trkpt>
      <trkpt lat="48.87073" lon="2.33219">
        <ele>106.5</ele>
        <time>2015-06-15T20:23:44.877Z</time>
      </trkpt>
      <trkpt lat="48.87068" lon="2.33222">
        <ele>106.6</ele>
        <time>2015-06-15T20:24:12.818Z</time>
      </trkpt>
      <trkpt lat="48.87061" lon="2.33221">
        <ele>107.5</ele>
        <time>2015-06-15T20:24:13.882Z</time>
      </trkpt>
      <trkpt lat="48.87052" lon="2.33225">
        <ele>107.3</ele>
        <time>2015-06-15T20:24:17.806Z</time>
      </trkpt>
      <trkpt lat="48.8705" lon="2.33226">
        <ele>106.9</ele>
        <time>2015-06-15T20:24:18.818Z</time>
      </trkpt>
      <trkpt lat="48.87042" lon="2.33229">
        <ele>106</ele>
        <time>2015-06-15T20:24:21.837Z</time>
      </trkpt>
      <trkpt lat="48.8704" lon="2.33231">
        <ele>105.9</ele>
        <time>2015-06-15T20:24:22.842Z</time>
      </trkpt>
      <trkpt lat="48.87033" lon="2.33235">
        <ele>105.3</ele>
        <time>2015-06-15T20:24:24.783Z</time>
      </trkpt>
      <trkpt lat="48.8703" lon="2.33238">
        <ele>105.5</ele>
        <time>2015-06-15T20:24:25.806Z</time>
      </trkpt>
      <trkpt lat="48.87027" lon="2.33246">
        <ele>105.2</ele>
        <time>2015-06-15T20:24:27.844Z</time>
      </trkpt>
      <trkpt lat="48.87026" lon="2.33251">
        <ele>105.2</ele>
        <time>2015-06-15T20:24:28.875Z</time>
      </trkpt>
      <trkpt lat="48.87025" lon="2.33263">
        <ele>105.4</ele>
        <time>2015-06-15T20:24:32.871Z</time>
      </trkpt>
      <trkpt lat="48.87025" lon="2.33265">
        <ele>105.8</ele>
        <time>2015-06-15T20:24:33.819Z</time>
      </trkpt>
      <trkpt lat="48.87025" lon="2.33277">
        <ele>106.4</ele>
        <time>2015-06-15T20:24:41.820Z</time>
      </trkpt>
      <trkpt lat="48.87024" lon="2.3328">
        <ele>106.1</ele>
        <time>2015-06-15T20:24:42.829Z</time>
      </trkpt>
      <trkpt lat="48.87023" lon="2.33292">
        <ele>104.5</ele>
        <time>2015-06-15T20:24:45.783Z</time>
      </trkpt>
      <trkpt lat="48.87023" lon="2.33297">
        <ele>103.6</ele>
        <time>2015-06-15T20:24:46.793Z</time>
      </trkpt>
      <trkpt lat="48.87021" lon="2.33307">
        <ele>102.8</ele>
        <time>2015-06-15T20:24:48.789Z</time>
      </trkpt>
      <trkpt lat="48.8702" lon="2.33313">
        <ele>102.2</ele>
        <time>2015-06-15T20:24:49.792Z</time>
      </trkpt>
      <trkpt lat="48.87019" lon="2.33326">
        <ele>100.8</ele>
        <time>2015-06-15T20:24:51.825Z</time>
      </trkpt>
      <trkpt lat="48.87018" lon="2.33332">
        <ele>100.4</ele>
        <time>2015-06-15T20:24:52.853Z</time>
      </trkpt>
      <trkpt lat="48.87017" lon="2.33339">
        <ele>100.1</ele>
        <time>2015-06-15T20:24:53.877Z</time>
      </trkpt>
      <trkpt lat="48.87016" lon="2.33346">
        <ele>99.7</ele>
        <time>2015-06-15T20:24:54.758Z</time>
      </trkpt>
      <trkpt lat="48.87016" lon="2.33352">
        <ele>99.4</ele>
        <time>2015-06-15T20:24:55.830Z</time>
      </trkpt>
      <trkpt lat="48.87016" lon="2.33359">
        <ele>98.9</ele>
        <time>2015-06-15T20:24:56.840Z</time>
      </trkpt>
      <trkpt lat="48.87015" lon="2.33366">
        <ele>97.9</ele>
        <time>2015-06-15T20:24:57.849Z</time>
      </trkpt>
      <trkpt lat="48.87015" lon="2.33374">
        <ele>97.7</ele>
        <time>2015-06-15T20:24:58.770Z</time>
      </trkpt>
      <trkpt lat="48.87014" lon="2.33381">
        <ele>97.3</ele>
        <time>2015-06-15T20:24:59.810Z</time>
      </trkpt>
      <trkpt lat="48.87013" lon="2.33388">
        <ele>97.1</ele>
        <time>2015-06-15T20:25:00.849Z</time>
      </trkpt>
      <trkpt lat="48.87012" lon="2.33396">
        <ele>97.1</ele>
        <time>2015-06-15T20:25:01.776Z</time>
      </trkpt>
      <trkpt lat="48.87011" lon="2.33403">
        <ele>96.9</ele>
        <time>2015-06-15T20:25:02.881Z</time>
      </trkpt>
      <trkpt lat="48.87011" lon="2.3341">
        <ele>96.6</ele>
        <time>2015-06-15T20:25:03.772Z</time>
      </trkpt>
      <trkpt lat="48.87009" lon="2.33417">
        <ele>96.6</ele>
        <time>2015-06-15T20:25:04.776Z</time>
      </trkpt>
      <trkpt lat="48.87008" lon="2.33424">
        <ele>96.5</ele>
        <time>2015-06-15T20:25:05.796Z</time>
      </trkpt>
      <trkpt lat="48.87007" lon="2.33431">
        <ele>96.4</ele>
        <time>2015-06-15T20:25:06.800Z</time>
      </trkpt>
      <trkpt lat="48.87004" lon="2.33443">
        <ele>96.3</ele>
        <time>2015-06-15T20:25:08.833Z</time>
      </trkpt>
      <trkpt lat="48.87003" lon="2.3345">
        <ele>96.1</ele>
        <time>2015-06-15T20:25:09.849Z</time>
      </trkpt>
      <trkpt lat="48.87002" lon="2.33463">
        <ele>95.5</ele>
        <time>2015-06-15T20:25:11.763Z</time>
      </trkpt>
      <trkpt lat="48.87001" lon="2.33469">
        <ele>95.3</ele>
        <time>2015-06-15T20:25:12.791Z</time>
      </trkpt>
      <trkpt lat="48.86998" lon="2.33476">
        <ele>95.5</ele>
        <time>2015-06-15T20:25:13.820Z</time>
      </trkpt>
      <trkpt lat="48.86997" lon="2.33483">
        <ele>95.3</ele>
        <time>2015-06-15T20:25:14.823Z</time>
      </trkpt>
      <trkpt lat="48.86996" lon="2.3349">
        <ele>95.4</ele>
        <time>2015-06-15T20:25:15.765Z</time>
      </trkpt>
      <trkpt lat="48.86995" lon="2.33497">
        <ele>95.1</ele>
        <time>2015-06-15T20:25:16.770Z</time>
      </trkpt>
      <trkpt lat="48.86994" lon="2.33505">
        <ele>94.5</ele>
        <time>2015-06-15T20:25:17.778Z</time>
      </trkpt>
      <trkpt lat="48.86993" lon="2.33513">
        <ele>94.1</ele>
        <time>2015-06-15T20:25:18.782Z</time>
      </trkpt>
      <trkpt lat="48.86993" lon="2.33521">
        <ele>93.8</ele>
        <time>2015-06-15T20:25:19.803Z</time>
      </trkpt>
      <trkpt lat="48.86993" lon="2.3353">
        <ele>93.4</ele>
        <time>2015-06-15T20:25:20.812Z</time>
      </trkpt>
      <trkpt lat="48.86992" lon="2.33539">
        <ele>92.8</ele>
        <time>2015-06-15T20:25:21.821Z</time>
      </trkpt>
      <trkpt lat="48.8699" lon="2.33548">
        <ele>92.6</ele>
        <time>2015-06-15T20:25:22.823Z</time>
      </trkpt>
      <trkpt lat="48.86989" lon="2.33557">
        <ele>92.4</ele>
        <time>2015-06-15T20:25:23.827Z</time>
      </trkpt>
      <trkpt lat="48.86988" lon="2.33567">
        <ele>92.1</ele>
        <time>2015-06-15T20:25:24.834Z</time>
      </trkpt>
      <trkpt lat="48.86986" lon="2.33576">
        <ele>92.1</ele>
        <time>2015-06-15T20:25:25.763Z</time>
      </trkpt>
      <trkpt lat="48.86983" lon="2.33585">
        <ele>92.3</ele>
        <time>2015-06-15T20:25:26.801Z</time>
      </trkpt>
      <trkpt lat="48.86982" lon="2.33594">
        <ele>91.9</ele>
        <time>2015-06-15T20:25:27.805Z</time>
      </trkpt>
      <trkpt lat="48.86981" lon="2.33603">
        <ele>92.1</ele>
        <time>2015-06-15T20:25:28.804Z</time>
      </trkpt>
      <trkpt lat="48.86979" lon="2.33612">
        <ele>92.3</ele>
        <time>2015-06-15T20:25:29.814Z</time>
      </trkpt>
      <trkpt lat="48.86978" lon="2.33621">
        <ele>92.4</ele>
        <time>2015-06-15T20:25:30.820Z</time>
      </trkpt>
      <trkpt lat="48.86977" lon="2.3363">
        <ele>92.1</ele>
        <time>2015-06-15T20:25:31.836Z</time>
      </trkpt>
      <trkpt lat="48.86975" lon="2.33638">
        <ele>91.8</ele>
        <time>2015-06-15T20:25:32.852Z</time>
      </trkpt>
      <trkpt lat="48.86975" lon="2.33647">
        <ele>91.5</ele>
        <time>2015-06-15T20:25:33.764Z</time>
      </trkpt>
      <trkpt lat="48.86974" lon="2.33656">
        <ele>91.4</ele>
        <time>2015-06-15T20:25:34.770Z</time>
      </trkpt>
      <trkpt lat="48.86971" lon="2.33664">
        <ele>91.2</ele>
        <time>2015-06-15T20:25:35.786Z</time>
      </trkpt>
      <trkpt lat="48.8697" lon="2.33672">
        <ele>91.3</ele>
        <time>2015-06-15T20:25:36.792Z</time>
      </trkpt>
      <trkpt lat="48.86967" lon="2.3368">
        <ele>91.6</ele>
        <time>2015-06-15T20:25:37.806Z</time>
      </trkpt>
      <trkpt lat="48.86965" lon="2.33687">
        <ele>91.8</ele>
        <time>2015-06-15T20:25:38.815Z</time>
      </trkpt>
      <trkpt lat="48.86962" lon="2.33694">
        <ele>92.1</ele>
        <time>2015-06-15T20:25:39.829Z</time>
      </trkpt>
      <trkpt lat="48.8696" lon="2.33701">
        <ele>92</ele>
        <time>2015-06-15T20:25:40.831Z</time>
      </trkpt>
      <trkpt lat="48.86959" lon="2.33708">
        <ele>91.9</ele>
        <time>2015-06-15T20:25:41.733Z</time>
      </trkpt>
      <trkpt lat="48.86959" lon="2.33715">
        <ele>91.6</ele>
        <time>2015-06-15T20:25:42.772Z</time>
      </trkpt>
      <trkpt lat="48.86957" lon="2.33727">
        <ele>91.7</ele>
        <time>2015-06-15T20:25:44.800Z</time>
      </trkpt>
      <trkpt lat="48.86955" lon="2.33733">
        <ele>91.5</ele>
        <time>2015-06-15T20:25:45.793Z</time>
      </trkpt>
      <trkpt lat="48.86953" lon="2.33746">
        <ele>91.4</ele>
        <time>2015-06-15T20:25:47.791Z</time>
      </trkpt>
      <trkpt lat="48.86953" lon="2.33753">
        <ele>91.1</ele>
        <time>2015-06-15T20:25:48.809Z</time>
      </trkpt>
      <trkpt lat="48.86951" lon="2.33766">
        <ele>90.6</ele>
        <time>2015-06-15T20:25:50.846Z</time>
      </trkpt>
      <trkpt lat="48.8695" lon="2.33772">
        <ele>90.3</ele>
        <time>2015-06-15T20:25:51.750Z</time>
      </trkpt>
      <trkpt lat="48.86947" lon="2.33785">
        <ele>89.5</ele>
        <time>2015-06-15T20:25:53.815Z</time>
      </trkpt>
      <trkpt lat="48.86946" lon="2.33793">
        <ele>89.7</ele>
        <time>2015-06-15T20:25:54.878Z</time>
      </trkpt>
      <trkpt lat="48.86945" lon="2.338">
        <ele>89.7</ele>
        <time>2015-06-15T20:25:55.784Z</time>
      </trkpt>
      <trkpt lat="48.86944" lon="2.33808">
        <ele>89.5</ele>
        <time>2015-06-15T20:25:56.822Z</time>
      </trkpt>
      <trkpt lat="48.86943" lon="2.33815">
        <ele>89.5</ele>
        <time>2015-06-15T20:25:57.828Z</time>
      </trkpt>
      <trkpt lat="48.86941" lon="2.33822">
        <ele>89.7</ele>
        <time>2015-06-15T20:25:58.841Z</time>
      </trkpt>
      <trkpt lat="48.86939" lon="2.33828">
        <ele>89.6</ele>
        <time>2015-06-15T20:25:59.855Z</time>
      </trkpt>
      <trkpt lat="48.86937" lon="2.33834">
        <ele>89.3</ele>
        <time>2015-06-15T20:26:00.781Z</time>
      </trkpt>
      <trkpt lat="48.86934" lon="2.33841">
        <ele>89.5</ele>
        <time>2015-06-15T20:26:01.780Z</time>
      </trkpt>
      <trkpt lat="48.86933" lon="2.33848">
        <ele>89.6</ele>
        <time>2015-06-15T20:26:02.801Z</time>
      </trkpt>
      <trkpt lat="48.86929" lon="2.33861">
        <ele>89.8</ele>
        <time>2015-06-15T20:26:04.853Z</time>
      </trkpt>
      <trkpt lat="48.86928" lon="2.33867">
        <ele>90.1</ele>
        <time>2015-06-15T20:26:05.864Z</time>
      </trkpt>
      <trkpt lat="48.86924" lon="2.33879">
        <ele>89.8</ele>
        <time>2015-06-15T20:26:07.826Z</time>
      </trkpt>
      <trkpt lat="48.86922" lon="2.33885">
        <ele>89.5</ele>
        <time>2015-06-15T20:26:08.853Z</time>
      </trkpt>
      <trkpt lat="48.86919" lon="2.33897">
        <ele>89.8</ele>
        <time>2015-06-15T20:26:10.813Z</time>
      </trkpt>
      <trkpt lat="48.86918" lon="2.33902">
        <ele>89.6</ele>
        <time>2015-06-15T20:26:11.826Z</time>
      </trkpt>
      <trkpt lat="48.86916" lon="2.33914">
        <ele>89.4</ele>
        <time>2015-06-15T20:26:13.819Z</time>
      </trkpt>
      <trkpt lat="48.86916" lon="2.3392">
        <ele>89.9</ele>
        <time>2015-06-15T20:26:14.946Z</time>
      </trkpt>
      <trkpt lat="48.86912" lon="2.33932">
        <ele>91</ele>
        <time>2015-06-15T20:26:16.799Z</time>
      </trkpt>
      <trkpt lat="48.8691" lon="2.33937">
        <ele>90.9</ele>
        <time>2015-06-15T20:26:17.810Z</time>
      </trkpt>
      <trkpt lat="48.86908" lon="2.33943">
        <ele>91.6</ele>
        <time>2015-06-15T20:26:18.796Z</time>
      </trkpt>
      <trkpt lat="48.86906" lon="2.3395">
        <ele>92.4</ele>
        <time>2015-06-15T20:26:19.801Z</time>
      </trkpt>
      <trkpt lat="48.86903" lon="2.33962">
        <ele>93.4</ele>
        <time>2015-06-15T20:26:21.850Z</time>
      </trkpt>
      <trkpt lat="48.86901" lon="2.33968">
        <ele>93.4</ele>
        <time>2015-06-15T20:26:22.823Z</time>
      </trkpt>
      <trkpt lat="48.86898" lon="2.33978">
        <ele>93.4</ele>
        <time>2015-06-15T20:26:24.811Z</time>
      </trkpt>
      <trkpt lat="48.86897" lon="2.33984">
        <ele>93.4</ele>
        <time>2015-06-15T20:26:25.824Z</time>
      </trkpt>
      <trkpt lat="48.86895" lon="2.33996">
        <ele>93.3</ele>
        <time>2015-06-15T20:26:27.847Z</time>
      </trkpt>
      <trkpt lat="48.86894" lon="2.34002">
        <ele>93.3</ele>
        <time>2015-06-15T20:26:28.854Z</time>
      </trkpt>
      <trkpt lat="48.86892" lon="2.34015">
        <ele>94.1</ele>
        <time>2015-06-15T20:26:30.840Z</time>
      </trkpt>
      <trkpt lat="48.86891" lon="2.34021">
        <ele>94.1</ele>
        <time>2015-06-15T20:26:31.886Z</time>
      </trkpt>
      <trkpt lat="48.86889" lon="2.34033">
        <ele>93.4</ele>
        <time>2015-06-15T20:26:33.853Z</time>
      </trkpt>
      <trkpt lat="48.86888" lon="2.34039">
        <ele>93</ele>
        <time>2015-06-15T20:26:34.819Z</time>
      </trkpt>
      <trkpt lat="48.86885" lon="2.34051">
        <ele>93</ele>
        <time>2015-06-15T20:26:36.796Z</time>
      </trkpt>
      <trkpt lat="48.86883" lon="2.34057">
        <ele>93.2</ele>
        <time>2015-06-15T20:26:37.832Z</time>
      </trkpt>
      <trkpt lat="48.86881" lon="2.34068">
        <ele>92.9</ele>
        <time>2015-06-15T20:26:39.884Z</time>
      </trkpt>
      <trkpt lat="48.8688" lon="2.34074">
        <ele>92.3</ele>
        <time>2015-06-15T20:26:40.783Z</time>
      </trkpt>
      <trkpt lat="48.86878" lon="2.34086">
        <ele>92.1</ele>
        <time>2015-06-15T20:26:42.822Z</time>
      </trkpt>
      <trkpt lat="48.86877" lon="2.34092">
        <ele>92.1</ele>
        <time>2015-06-15T20:26:43.888Z</time>
      </trkpt>
      <trkpt lat="48.86875" lon="2.34104">
        <ele>91.9</ele>
        <time>2015-06-15T20:26:45.789Z</time>
      </trkpt>
      <trkpt lat="48.86873" lon="2.3411">
        <ele>91.9</ele>
        <time>2015-06-15T20:26:46.792Z</time>
      </trkpt>
      <trkpt lat="48.86868" lon="2.34121">
        <ele>92.9</ele>
        <time>2015-06-15T20:26:48.822Z</time>
      </trkpt>
      <trkpt lat="48.86867" lon="2.34126">
        <ele>93.4</ele>
        <time>2015-06-15T20:26:49.994Z</time>
      </trkpt>
      <trkpt lat="48.86865" lon="2.34137">
        <ele>93.8</ele>
        <time>2015-06-15T20:26:51.927Z</time>
      </trkpt>
      <trkpt lat="48.86864" lon="2.34143">
        <ele>93.9</ele>
        <time>2015-06-15T20:26:52.798Z</time>
      </trkpt>
      <trkpt lat="48.86862" lon="2.34152">
        <ele>94.3</ele>
        <time>2015-06-15T20:26:54.825Z</time>
      </trkpt>
      <trkpt lat="48.86861" lon="2.34157">
        <ele>94.1</ele>
        <time>2015-06-15T20:26:55.847Z</time>
      </trkpt>
      <trkpt lat="48.8686" lon="2.34167">
        <ele>93.6</ele>
        <time>2015-06-15T20:26:57.781Z</time>
      </trkpt>
      <trkpt lat="48.86859" lon="2.34171">
        <ele>93.2</ele>
        <time>2015-06-15T20:26:58.824Z</time>
      </trkpt>
      <trkpt lat="48.86856" lon="2.34184">
        <ele>93.2</ele>
        <time>2015-06-15T20:27:01.823Z</time>
      </trkpt>
      <trkpt lat="48.86855" lon="2.34188">
        <ele>93.5</ele>
        <time>2015-06-15T20:27:02.861Z</time>
      </trkpt>
      <trkpt lat="48.86848" lon="2.34192">
        <ele>93.9</ele>
        <time>2015-06-15T20:27:04.817Z</time>
      </trkpt>
      <trkpt lat="48.86845" lon="2.34191">
        <ele>93.9</ele>
        <time>2015-06-15T20:27:05.861Z</time>
      </trkpt>
      <trkpt lat="48.86838" lon="2.34188">
        <ele>94.4</ele>
        <time>2015-06-15T20:27:07.786Z</time>
      </trkpt>
      <trkpt lat="48.86834" lon="2.34187">
        <ele>94.6</ele>
        <time>2015-06-15T20:27:08.813Z</time>
      </trkpt>
      <trkpt lat="48.86827" lon="2.34184">
        <ele>94.9</ele>
        <time>2015-06-15T20:27:10.874Z</time>
      </trkpt>
      <trkpt lat="48.86823" lon="2.34183">
        <ele>95.2</ele>
        <time>2015-06-15T20:27:11.766Z</time>
      </trkpt>
      <trkpt lat="48.86816" lon="2.3418">
        <ele>95.4</ele>
        <time>2015-06-15T20:27:13.785Z</time>
      </trkpt>
      <trkpt lat="48.86812" lon="2.34178">
        <ele>95.6</ele>
        <time>2015-06-15T20:27:14.938Z</time>
      </trkpt>
      <trkpt lat="48.86804" lon="2.34174">
        <ele>96</ele>
        <time>2015-06-15T20:27:16.811Z</time>
      </trkpt>
      <trkpt lat="48.868" lon="2.34173">
        <ele>96.1</ele>
        <time>2015-06-15T20:27:17.824Z</time>
      </trkpt>
      <trkpt lat="48.86791" lon="2.34169">
        <ele>96.3</ele>
        <time>2015-06-15T20:27:19.763Z</time>
      </trkpt>
      <trkpt lat="48.86787" lon="2.34168">
        <ele>96.3</ele>
        <time>2015-06-15T20:27:20.816Z</time>
      </trkpt>
      <trkpt lat="48.86778" lon="2.34165">
        <ele>96.6</ele>
        <time>2015-06-15T20:27:22.767Z</time>
      </trkpt>
      <trkpt lat="48.86774" lon="2.34163">
        <ele>96.6</ele>
        <time>2015-06-15T20:27:23.974Z</time>
      </trkpt>
      <trkpt lat="48.86766" lon="2.3416">
        <ele>96.9</ele>
        <time>2015-06-15T20:27:25.785Z</time>
      </trkpt>
      <trkpt lat="48.86763" lon="2.34158">
        <ele>96.9</ele>
        <time>2015-06-15T20:27:26.817Z</time>
      </trkpt>
      <trkpt lat="48.86756" lon="2.34154">
        <ele>97.2</ele>
        <time>2015-06-15T20:27:28.769Z</time>
      </trkpt>
      <trkpt lat="48.86753" lon="2.34154">
        <ele>96.6</ele>
        <time>2015-06-15T20:27:29.794Z</time>
      </trkpt>
      <trkpt lat="48.86746" lon="2.34152">
        <ele>95.2</ele>
        <time>2015-06-15T20:27:31.755Z</time>
      </trkpt>
      <trkpt lat="48.86743" lon="2.3415">
        <ele>95</ele>
        <time>2015-06-15T20:27:32.800Z</time>
      </trkpt>
      <trkpt lat="48.86735" lon="2.34147">
        <ele>95.2</ele>
        <time>2015-06-15T20:27:34.815Z</time>
      </trkpt>
      <trkpt lat="48.86731" lon="2.34146">
        <ele>95.2</ele>
        <time>2015-06-15T20:27:35.839Z</time>
      </trkpt>
      <trkpt lat="48.86723" lon="2.34144">
        <ele>95.5</ele>
        <time>2015-06-15T20:27:37.791Z</time>
      </trkpt>
      <trkpt lat="48.8672" lon="2.34143">
        <ele>95.5</ele>
        <time>2015-06-15T20:27:38.828Z</time>
      </trkpt>
      <trkpt lat="48.86714" lon="2.34138">
        <ele>95.2</ele>
        <time>2015-06-15T20:27:40.780Z</time>
      </trkpt>
      <trkpt lat="48.8671" lon="2.34136">
        <ele>95.2</ele>
        <time>2015-06-15T20:27:41.785Z</time>
      </trkpt>
      <trkpt lat="48.86703" lon="2.3413">
        <ele>95.1</ele>
        <time>2015-06-15T20:27:43.807Z</time>
      </trkpt>
      <trkpt lat="48.867" lon="2.34128">
        <ele>95.2</ele>
        <time>2015-06-15T20:27:44.818Z</time>
      </trkpt>
      <trkpt lat="48.86691" lon="2.34125">
        <ele>95.3</ele>
        <time>2015-06-15T20:27:46.740Z</time>
      </trkpt>
      <trkpt lat="48.86687" lon="2.34123">
        <ele>95.4</ele>
        <time>2015-06-15T20:27:47.756Z</time>
      </trkpt>
      <trkpt lat="48.86679" lon="2.3412">
        <ele>95.3</ele>
        <time>2015-06-15T20:27:49.798Z</time>
      </trkpt>
      <trkpt lat="48.86676" lon="2.34118">
        <ele>95.3</ele>
        <time>2015-06-15T20:27:50.812Z</time>
      </trkpt>
      <trkpt lat="48.86669" lon="2.34114">
        <ele>95.2</ele>
        <time>2015-06-15T20:27:52.784Z</time>
      </trkpt>
      <trkpt lat="48.86666" lon="2.34112">
        <ele>95.2</ele>
        <time>2015-06-15T20:27:53.788Z</time>
      </trkpt>
      <trkpt lat="48.86659" lon="2.34105">
        <ele>95.1</ele>
        <time>2015-06-15T20:27:55.753Z</time>
      </trkpt>
      <trkpt lat="48.86655" lon="2.34104">
        <ele>94.9</ele>
        <time>2015-06-15T20:27:56.796Z</time>
      </trkpt>
      <trkpt lat="48.86649" lon="2.34101">
        <ele>94.7</ele>
        <time>2015-06-15T20:27:58.779Z</time>
      </trkpt>
      <trkpt lat="48.86646" lon="2.341">
        <ele>94.8</ele>
        <time>2015-06-15T20:27:59.792Z</time>
      </trkpt>
      <trkpt lat="48.86638" lon="2.34099">
        <ele>94.9</ele>
        <time>2015-06-15T20:28:02.834Z</time>
      </trkpt>
      <trkpt lat="48.86636" lon="2.341">
        <ele>94.9</ele>
        <time>2015-06-15T20:28:03.797Z</time>
      </trkpt>
      <trkpt lat="48.86632" lon="2.3411">
        <ele>95.4</ele>
        <time>2015-06-15T20:28:07.796Z</time>
      </trkpt>
      <trkpt lat="48.86632" lon="2.34114">
        <ele>94.3</ele>
        <time>2015-06-15T20:28:08.817Z</time>
      </trkpt>
      <trkpt lat="48.86631" lon="2.34125">
        <ele>92.1</ele>
        <time>2015-06-15T20:28:10.840Z</time>
      </trkpt>
      <trkpt lat="48.86628" lon="2.34127">
        <ele>92.1</ele>
        <time>2015-06-15T20:28:11.921Z</time>
      </trkpt>
      <trkpt lat="48.8662" lon="2.34133">
        <ele>92.3</ele>
        <time>2015-06-15T20:28:14.804Z</time>
      </trkpt>
      <trkpt lat="48.86618" lon="2.34135">
        <ele>92.8</ele>
        <time>2015-06-15T20:28:15.819Z</time>
      </trkpt>
      <trkpt lat="48.86613" lon="2.34144">
        <ele>93.7</ele>
        <time>2015-06-15T20:28:18.914Z</time>
      </trkpt>
      <trkpt lat="48.8661" lon="2.34145">
        <ele>94</ele>
        <time>2015-06-15T20:28:19.820Z</time>
      </trkpt>
      <trkpt lat="48.86604" lon="2.34146">
        <ele>94.3</ele>
        <time>2015-06-15T20:28:21.792Z</time>
      </trkpt>
      <trkpt lat="48.86601" lon="2.34146">
        <ele>94.1</ele>
        <time>2015-06-15T20:28:22.811Z</time>
      </trkpt>
      <trkpt lat="48.86594" lon="2.34138">
        <ele>92.7</ele>
        <time>2015-06-15T20:28:25.804Z</time>
      </trkpt>
      <trkpt lat="48.86593" lon="2.34133">
        <ele>92.5</ele>
        <time>2015-06-15T20:28:26.805Z</time>
      </trkpt>
      <trkpt lat="48.8659" lon="2.3412">
        <ele>91.8</ele>
        <time>2015-06-15T20:28:29.825Z</time>
      </trkpt>
      <trkpt lat="48.86588" lon="2.34116">
        <ele>91.5</ele>
        <time>2015-06-15T20:28:30.846Z</time>
      </trkpt>
      <trkpt lat="48.86585" lon="2.34108">
        <ele>91.1</ele>
        <time>2015-06-15T20:28:32.891Z</time>
      </trkpt>
      <trkpt lat="48.86583" lon="2.34104">
        <ele>90.8</ele>
        <time>2015-06-15T20:28:33.753Z</time>
      </trkpt>
      <trkpt lat="48.86577" lon="2.34098">
        <ele>91.9</ele>
        <time>2015-06-15T20:28:35.761Z</time>
      </trkpt>
      <trkpt lat="48.86573" lon="2.34094">
        <ele>92.5</ele>
        <time>2015-06-15T20:28:36.770Z</time>
      </trkpt>
      <trkpt lat="48.86566" lon="2.34088">
        <ele>93.7</ele>
        <time>2015-06-15T20:28:39.705Z</time>
      </trkpt>
      <trkpt lat="48.86563" lon="2.34086">
        <ele>93.6</ele>
        <time>2015-06-15T20:28:39.837Z</time>
      </trkpt>
      <trkpt lat="48.86558" lon="2.34077">
        <ele>93.5</ele>
        <time>2015-06-15T20:28:42.819Z</time>
      </trkpt>
      <trkpt lat="48.86556" lon="2.34074">
        <ele>93.6</ele>
        <time>2015-06-15T20:28:43.835Z</time>
      </trkpt>
      <trkpt lat="48.86552" lon="2.34062">
        <ele>93.5</ele>
        <time>2015-06-15T20:28:47.007Z</time>
      </trkpt>
      <trkpt lat="48.86551" lon="2.34059">
        <ele>93.5</ele>
        <time>2015-06-15T20:28:47.801Z</time>
      </trkpt>
      <trkpt lat="48.86547" lon="2.34049">
        <ele>93.5</ele>
        <time>2015-06-15T20:28:50.827Z</time>
      </trkpt>
      <trkpt lat="48.86545" lon="2.34047">
        <ele>93.5</ele>
        <time>2015-06-15T20:28:51.791Z</time>
      </trkpt>
      <trkpt lat="48.86537" lon="2.34045">
        <ele>93.9</ele>
        <time>2015-06-15T20:28:55.856Z</time>
      </trkpt>
      <trkpt lat="48.86534" lon="2.34046">
        <ele>93.9</ele>
        <time>2015-06-15T20:28:56.876Z</time>
      </trkpt>
      <trkpt lat="48.86526" lon="2.34051">
        <ele>94.2</ele>
        <time>2015-06-15T20:28:58.762Z</time>
      </trkpt>
      <trkpt lat="48.86521" lon="2.34054">
        <ele>94.4</ele>
        <time>2015-06-15T20:28:59.813Z</time>
      </trkpt>
      <trkpt lat="48.86516" lon="2.34057">
        <ele>94.7</ele>
        <time>2015-06-15T20:29:00.843Z</time>
      </trkpt>
      <trkpt lat="48.86512" lon="2.34061">
        <ele>95.1</ele>
        <time>2015-06-15T20:29:01.750Z</time>
      </trkpt>
      <trkpt lat="48.86505" lon="2.34067">
        <ele>95.1</ele>
        <time>2015-06-15T20:29:03.833Z</time>
      </trkpt>
      <trkpt lat="48.865" lon="2.34065">
        <ele>95.1</ele>
        <time>2015-06-15T20:29:04.746Z</time>
      </trkpt>
      <trkpt lat="48.86496" lon="2.34063">
        <ele>94.9</ele>
        <time>2015-06-15T20:29:05.797Z</time>
      </trkpt>
      <trkpt lat="48.86492" lon="2.3406">
        <ele>94.7</ele>
        <time>2015-06-15T20:29:06.822Z</time>
      </trkpt>
      <trkpt lat="48.86487" lon="2.34058">
        <ele>94.9</ele>
        <time>2015-06-15T20:29:08.406Z</time>
      </trkpt>
      <trkpt lat="48.86482" lon="2.34056">
        <ele>95.1</ele>
        <time>2015-06-15T20:29:08.798Z</time>
      </trkpt>
      <trkpt lat="48.86474" lon="2.34053">
        <ele>95.3</ele>
        <time>2015-06-15T20:29:10.811Z</time>
      </trkpt>
      <trkpt lat="48.86471" lon="2.34054">
        <ele>95.1</ele>
        <time>2015-06-15T20:29:11.837Z</time>
      </trkpt>
      <trkpt lat="48.86465" lon="2.34058">
        <ele>94.6</ele>
        <time>2015-06-15T20:29:13.815Z</time>
      </trkpt>
      <trkpt lat="48.86462" lon="2.34061">
        <ele>94.6</ele>
        <time>2015-06-15T20:29:14.826Z</time>
      </trkpt>
      <trkpt lat="48.86457" lon="2.34071">
        <ele>94.9</ele>
        <time>2015-06-15T20:29:16.744Z</time>
      </trkpt>
      <trkpt lat="48.86455" lon="2.34077">
        <ele>94.6</ele>
        <time>2015-06-15T20:29:17.762Z</time>
      </trkpt>
      <trkpt lat="48.8645" lon="2.34087">
        <ele>94.5</ele>
        <time>2015-06-15T20:29:19.792Z</time>
      </trkpt>
      <trkpt lat="48.86448" lon="2.34093">
        <ele>94.6</ele>
        <time>2015-06-15T20:29:20.806Z</time>
      </trkpt>
      <trkpt lat="48.86442" lon="2.34101">
        <ele>94.7</ele>
        <time>2015-06-15T20:29:22.844Z</time>
      </trkpt>
      <trkpt lat="48.86439" lon="2.34106">
        <ele>94.9</ele>
        <time>2015-06-15T20:29:23.818Z</time>
      </trkpt>
      <trkpt lat="48.86433" lon="2.34115">
        <ele>95.1</ele>
        <time>2015-06-15T20:29:25.776Z</time>
      </trkpt>
      <trkpt lat="48.86431" lon="2.3412">
        <ele>95.1</ele>
        <time>2015-06-15T20:29:26.906Z</time>
      </trkpt>
      <trkpt lat="48.86427" lon="2.3413">
        <ele>95.2</ele>
        <time>2015-06-15T20:29:28.833Z</time>
      </trkpt>
      <trkpt lat="48.86426" lon="2.34136">
        <ele>95.4</ele>
        <time>2015-06-15T20:29:29.805Z</time>
      </trkpt>
      <trkpt lat="48.86423" lon="2.34147">
        <ele>94.9</ele>
        <time>2015-06-15T20:29:31.829Z</time>
      </trkpt>
      <trkpt lat="48.86421" lon="2.34152">
        <ele>94.6</ele>
        <time>2015-06-15T20:29:32.834Z</time>
      </trkpt>
      <trkpt lat="48.86419" lon="2.34162">
        <ele>93.7</ele>
        <time>2015-06-15T20:29:34.829Z</time>
      </trkpt>
      <trkpt lat="48.86418" lon="2.34165">
        <ele>93.5</ele>
        <time>2015-06-15T20:29:35.839Z</time>
      </trkpt>
      <trkpt lat="48.86416" lon="2.34174">
        <ele>93.3</ele>
        <time>2015-06-15T20:29:37.798Z</time>
      </trkpt>
      <trkpt lat="48.86414" lon="2.34178">
        <ele>93.2</ele>
        <time>2015-06-15T20:29:38.864Z</time>
      </trkpt>
      <trkpt lat="48.86415" lon="2.34186">
        <ele>92.8</ele>
        <time>2015-06-15T20:29:39.739Z</time>
      </trkpt>
      <trkpt lat="48.86412" lon="2.34194">
        <ele>93.7</ele>
        <time>2015-06-15T20:29:40.784Z</time>
      </trkpt>
      <trkpt lat="48.86409" lon="2.342">
        <ele>93.8</ele>
        <time>2015-06-15T20:29:41.825Z</time>
      </trkpt>
      <trkpt lat="48.86407" lon="2.34205">
        <ele>94.3</ele>
        <time>2015-06-15T20:29:42.820Z</time>
      </trkpt>
      <trkpt lat="48.86403" lon="2.34214">
        <ele>95</ele>
        <time>2015-06-15T20:29:44.840Z</time>
      </trkpt>
      <trkpt lat="48.86402" lon="2.34217">
        <ele>95.4</ele>
        <time>2015-06-15T20:29:45.853Z</time>
      </trkpt>
      <trkpt lat="48.86397" lon="2.34227">
        <ele>95.7</ele>
        <time>2015-06-15T20:29:48.789Z</time>
      </trkpt>
      <trkpt lat="48.86395" lon="2.3423">
        <ele>95.9</ele>
        <time>2015-06-15T20:29:49.802Z</time>
      </trkpt>
      <trkpt lat="48.86391" lon="2.34235">
        <ele>95.7</ele>
        <time>2015-06-15T20:30:02.811Z</time>
      </trkpt>
      <trkpt lat="48.86386" lon="2.3424">
        <ele>97.8</ele>
        <time>2015-06-15T20:30:03.865Z</time>
      </trkpt>
      <trkpt lat="48.86381" lon="2.34249">
        <ele>98.8</ele>
        <time>2015-06-15T20:30:06.791Z</time>
      </trkpt>
      <trkpt lat="48.86381" lon="2.34252">
        <ele>98.9</ele>
        <time>2015-06-15T20:30:07.753Z</time>
      </trkpt>
      <trkpt lat="48.86379" lon="2.34262">
        <ele>99.2</ele>
        <time>2015-06-15T20:30:10.831Z</time>
      </trkpt>
      <trkpt lat="48.86377" lon="2.34266">
        <ele>99</ele>
        <time>2015-06-15T20:30:11.850Z</time>
      </trkpt>
      <trkpt lat="48.86369" lon="2.34264">
        <ele>97.5</ele>
        <time>2015-06-15T20:30:17.799Z</time>
      </trkpt>
      <trkpt lat="48.86368" lon="2.34263">
        <ele>97.6</ele>
        <time>2015-06-15T20:30:18.803Z</time>
      </trkpt>
      <trkpt lat="48.86365" lon="2.34276">
        <ele>98.3</ele>
        <time>2015-06-15T20:30:26.434Z</time>
      </trkpt>
      <trkpt lat="48.86365" lon="2.34279">
        <ele>97.8</ele>
        <time>2015-06-15T20:30:26.835Z</time>
      </trkpt>
      <trkpt lat="48.86363" lon="2.34289">
        <ele>96.4</ele>
        <time>2015-06-15T20:30:29.780Z</time>
      </trkpt>
      <trkpt lat="48.86362" lon="2.34292">
        <ele>95.4</ele>
        <time>2015-06-15T20:30:30.790Z</time>
      </trkpt>
      <trkpt lat="48.86358" lon="2.34295">
        <ele>94.6</ele>
        <time>2015-06-15T20:30:32.815Z</time>
      </trkpt>
      <trkpt lat="48.86352" lon="2.34296">
        <ele>94.4</ele>
        <time>2015-06-15T20:30:33.822Z</time>
      </trkpt>
      <trkpt lat="48.86347" lon="2.34296">
        <ele>94.1</ele>
        <time>2015-06-15T20:30:34.841Z</time>
      </trkpt>
      <trkpt lat="48.86341" lon="2.34296">
        <ele>94.1</ele>
        <time>2015-06-15T20:30:35.842Z</time>
      </trkpt>
      <trkpt lat="48.86332" lon="2.34296">
        <ele>94.3</ele>
        <time>2015-06-15T20:30:37.852Z</time>
      </trkpt>
      <trkpt lat="48.86328" lon="2.34296">
        <ele>94.6</ele>
        <time>2015-06-15T20:30:38.868Z</time>
      </trkpt>
      <trkpt lat="48.8632" lon="2.34298">
        <ele>94.4</ele>
        <time>2015-06-15T20:30:40.808Z</time>
      </trkpt>
      <trkpt lat="48.86317" lon="2.343">
        <ele>94.2</ele>
        <time>2015-06-15T20:30:41.820Z</time>
      </trkpt>
      <trkpt lat="48.86312" lon="2.34311">
        <ele>93.4</ele>
        <time>2015-06-15T20:30:44.800Z</time>
      </trkpt>
      <trkpt lat="48.8631" lon="2.34316">
        <ele>93.3</ele>
        <time>2015-06-15T20:30:45.833Z</time>
      </trkpt>
      <trkpt lat="48.86306" lon="2.34325">
        <ele>92.8</ele>
        <time>2015-06-15T20:30:47.783Z</time>
      </trkpt>
      <trkpt lat="48.86305" lon="2.34329">
        <ele>93</ele>
        <time>2015-06-15T20:30:48.782Z</time>
      </trkpt>
      <trkpt lat="48.86299" lon="2.34334">
        <ele>92.9</ele>
        <time>2015-06-15T20:30:50.934Z</time>
      </trkpt>
      <trkpt lat="48.86297" lon="2.34336">
        <ele>92.9</ele>
        <time>2015-06-15T20:30:51.737Z</time>
      </trkpt>
      <trkpt lat="48.86288" lon="2.34341">
        <ele>93.3</ele>
        <time>2015-06-15T20:30:54.809Z</time>
      </trkpt>
      <trkpt lat="48.86286" lon="2.34341">
        <ele>93.3</ele>
        <time>2015-06-15T20:30:55.819Z</time>
      </trkpt>
      <trkpt lat="48.86277" lon="2.3434">
        <ele>92.1</ele>
        <time>2015-06-15T20:30:58.767Z</time>
      </trkpt>
      <trkpt lat="48.86274" lon="2.3434">
        <ele>91.9</ele>
        <time>2015-06-15T20:30:59.792Z</time>
      </trkpt>
      <trkpt lat="48.86268" lon="2.34348">
        <ele>92.5</ele>
        <time>2015-06-15T20:31:03.797Z</time>
      </trkpt>
      <trkpt lat="48.86267" lon="2.34351">
        <ele>92.4</ele>
        <time>2015-06-15T20:31:04.853Z</time>
      </trkpt>
      <trkpt lat="48.86264" lon="2.34361">
        <ele>92.3</ele>
        <time>2015-06-15T20:31:07.805Z</time>
      </trkpt>
      <trkpt lat="48.86263" lon="2.34366">
        <ele>92.6</ele>
        <time>2015-06-15T20:31:08.923Z</time>
      </trkpt>
      <trkpt lat="48.8626" lon="2.34376">
        <ele>93.8</ele>
        <time>2015-06-15T20:31:11.808Z</time>
      </trkpt>
      <trkpt lat="48.8626" lon="2.34379">
        <ele>94.2</ele>
        <time>2015-06-15T20:31:12.830Z</time>
      </trkpt>
      <trkpt lat="48.86258" lon="2.34389">
        <ele>93.5</ele>
        <time>2015-06-15T20:31:15.817Z</time>
      </trkpt>
      <trkpt lat="48.86256" lon="2.34393">
        <ele>93.2</ele>
        <time>2015-06-15T20:31:16.858Z</time>
      </trkpt>
      <trkpt lat="48.86253" lon="2.34405">
        <ele>93.2</ele>
        <time>2015-06-15T20:31:19.887Z</time>
      </trkpt>
      <trkpt lat="48.86252" lon="2.34409">
        <ele>92.6</ele>
        <time>2015-06-15T20:31:20.816Z</time>
      </trkpt>
      <trkpt lat="48.86248" lon="2.34421">
        <ele>92.4</ele>
        <time>2015-06-15T20:31:23.827Z</time>
      </trkpt>
      <trkpt lat="48.86247" lon="2.34425">
        <ele>91.9</ele>
        <time>2015-06-15T20:31:24.833Z</time>
      </trkpt>
      <trkpt lat="48.86244" lon="2.34435">
        <ele>91.7</ele>
        <time>2015-06-15T20:31:27.819Z</time>
      </trkpt>
      <trkpt lat="48.86243" lon="2.34439">
        <ele>91.6</ele>
        <time>2015-06-15T20:31:28.817Z</time>
      </trkpt>
      <trkpt lat="48.86241" lon="2.3445">
        <ele>91.2</ele>
        <time>2015-06-15T20:31:32.886Z</time>
      </trkpt>
      <trkpt lat="48.86239" lon="2.34452">
        <ele>91.5</ele>
        <time>2015-06-15T20:31:33.790Z</time>
      </trkpt>
      <trkpt lat="48.86233" lon="2.34457">
        <ele>91.9</ele>
        <time>2015-06-15T20:31:37.796Z</time>
      </trkpt>
      <trkpt lat="48.86231" lon="2.34458">
        <ele>91.7</ele>
        <time>2015-06-15T20:31:38.848Z</time>
      </trkpt>
      <trkpt lat="48.86222" lon="2.34457">
        <ele>91.6</ele>
        <time>2015-06-15T20:31:42.821Z</time>
      </trkpt>
      <trkpt lat="48.8622" lon="2.34456">
        <ele>91.8</ele>
        <time>2015-06-15T20:31:43.832Z</time>
      </trkpt>
      <trkpt lat="48.86212" lon="2.34454">
        <ele>92.1</ele>
        <time>2015-06-15T20:31:46.829Z</time>
      </trkpt>
      <trkpt lat="48.8621" lon="2.34453">
        <ele>91.9</ele>
        <time>2015-06-15T20:31:47.839Z</time>
      </trkpt>
      <trkpt lat="48.86203" lon="2.34449">
        <ele>91.6</ele>
        <time>2015-06-15T20:31:50.827Z</time>
      </trkpt>
      <trkpt lat="48.86201" lon="2.34448">
        <ele>91.4</ele>
        <time>2015-06-15T20:31:51.822Z</time>
      </trkpt>
      <trkpt lat="48.86194" lon="2.34442">
        <ele>92</ele>
        <time>2015-06-15T20:31:54.778Z</time>
      </trkpt>
      <trkpt lat="48.86191" lon="2.3444">
        <ele>92.1</ele>
        <time>2015-06-15T20:31:55.778Z</time>
      </trkpt>
      <trkpt lat="48.86183" lon="2.34437">
        <ele>93.4</ele>
        <time>2015-06-15T20:31:58.864Z</time>
      </trkpt>
      <trkpt lat="48.86182" lon="2.34434">
        <ele>93.5</ele>
        <time>2015-06-15T20:31:59.782Z</time>
      </trkpt>
      <trkpt lat="48.86183" lon="2.34423">
        <ele>92.7</ele>
        <time>2015-06-15T20:32:02.851Z</time>
      </trkpt>
      <trkpt lat="48.86183" lon="2.3442">
        <ele>92.7</ele>
        <time>2015-06-15T20:32:03.823Z</time>
      </trkpt>
      <trkpt lat="48.86177" lon="2.34431">
        <ele>92.9</ele>
        <time>2015-06-15T20:32:16.780Z</time>
      </trkpt>
      <trkpt lat="48.86176" lon="2.34431">
        <ele>93</ele>
        <time>2015-06-15T20:32:17.782Z</time>
      </trkpt>
      <trkpt lat="48.86168" lon="2.34428">
        <ele>93</ele>
        <time>2015-06-15T20:32:21.817Z</time>
      </trkpt>
      <trkpt lat="48.86166" lon="2.34427">
        <ele>93.1</ele>
        <time>2015-06-15T20:32:22.834Z</time>
      </trkpt>
      <trkpt lat="48.8616" lon="2.34424">
        <ele>92.6</ele>
        <time>2015-06-15T20:32:24.776Z</time>
      </trkpt>
      <trkpt lat="48.86157" lon="2.34422">
        <ele>92.6</ele>
        <time>2015-06-15T20:32:25.805Z</time>
      </trkpt>
      <trkpt lat="48.8615" lon="2.34419">
        <ele>92.7</ele>
        <time>2015-06-15T20:32:27.851Z</time>
      </trkpt>
      <trkpt lat="48.86146" lon="2.34417">
        <ele>92.6</ele>
        <time>2015-06-15T20:32:28.801Z</time>
      </trkpt>
      <trkpt lat="48.8614" lon="2.34415">
        <ele>93</ele>
        <time>2015-06-15T20:32:30.785Z</time>
      </trkpt>
      <trkpt lat="48.86137" lon="2.34414">
        <ele>93.3</ele>
        <time>2015-06-15T20:32:31.822Z</time>
      </trkpt>
      <trkpt lat="48.8613" lon="2.34412">
        <ele>93.4</ele>
        <time>2015-06-15T20:32:33.780Z</time>
      </trkpt>
      <trkpt lat="48.86126" lon="2.34412">
        <ele>93.2</ele>
        <time>2015-06-15T20:32:34.811Z</time>
      </trkpt>
      <trkpt lat="48.86118" lon="2.34406">
        <ele>93.2</ele>
        <time>2015-06-15T20:32:37.775Z</time>
      </trkpt>
      <trkpt lat="48.86117" lon="2.34408">
        <ele>92.8</ele>
        <time>2015-06-15T20:32:38.800Z</time>
      </trkpt>
      <trkpt lat="48.86115" lon="2.3442">
        <ele>91.3</ele>
        <time>2015-06-15T20:32:41.787Z</time>
      </trkpt>
      <trkpt lat="48.86114" lon="2.34426">
        <ele>91.1</ele>
        <time>2015-06-15T20:32:42.783Z</time>
      </trkpt>
      <trkpt lat="48.8611" lon="2.34436">
        <ele>90.9</ele>
        <time>2015-06-15T20:32:44.810Z</time>
      </trkpt>
      <trkpt lat="48.86109" lon="2.34442">
        <ele>90.5</ele>
        <time>2015-06-15T20:32:45.823Z</time>
      </trkpt>
      <trkpt lat="48.86109" lon="2.34453">
        <ele>90</ele>
        <time>2015-06-15T20:32:47.767Z</time>
      </trkpt>
      <trkpt lat="48.86109" lon="2.34459">
        <ele>89.9</ele>
        <time>2015-06-15T20:32:48.845Z</time>
      </trkpt>
      <trkpt lat="48.86109" lon="2.34471">
        <ele>89.3</ele>
        <time>2015-06-15T20:32:50.810Z</time>
      </trkpt>
      <trkpt lat="48.8611" lon="2.34477">
        <ele>88.9</ele>
        <time>2015-06-15T20:32:51.771Z</time>
      </trkpt>
      <trkpt lat="48.86107" lon="2.3449">
        <ele>89.2</ele>
        <time>2015-06-15T20:32:54.823Z</time>
      </trkpt>
      <trkpt lat="48.86107" lon="2.34491">
        <ele>88.9</ele>
        <time>2015-06-15T20:32:55.839Z</time>
      </trkpt>
      <trkpt lat="48.86102" lon="2.34502">
        <ele>90.2</ele>
        <time>2015-06-15T20:32:59.807Z</time>
      </trkpt>
      <trkpt lat="48.86101" lon="2.34505">
        <ele>90.4</ele>
        <time>2015-06-15T20:33:00.830Z</time>
      </trkpt>
      <trkpt lat="48.86096" lon="2.34512">
        <ele>91</ele>
        <time>2015-06-15T20:33:02.811Z</time>
      </trkpt>
      <trkpt lat="48.86094" lon="2.34516">
        <ele>91.4</ele>
        <time>2015-06-15T20:33:03.742Z</time>
      </trkpt>
      <trkpt lat="48.86094" lon="2.34525">
        <ele>91.8</ele>
        <time>2015-06-15T20:33:05.800Z</time>
      </trkpt>
      <trkpt lat="48.86091" lon="2.3453">
        <ele>91.9</ele>
        <time>2015-06-15T20:33:06.823Z</time>
      </trkpt>
      <trkpt lat="48.86089" lon="2.34542">
        <ele>91.5</ele>
        <time>2015-06-15T20:33:08.876Z</time>
      </trkpt>
      <trkpt lat="48.86087" lon="2.34549">
        <ele>91.5</ele>
        <time>2015-06-15T20:33:09.921Z</time>
      </trkpt>
      <trkpt lat="48.86084" lon="2.34555">
        <ele>91.3</ele>
        <time>2015-06-15T20:33:10.801Z</time>
      </trkpt>
      <trkpt lat="48.86081" lon="2.34561">
        <ele>91.3</ele>
        <time>2015-06-15T20:33:11.859Z</time>
      </trkpt>
      <trkpt lat="48.86077" lon="2.34568">
        <ele>91.1</ele>
        <time>2015-06-15T20:33:12.780Z</time>
      </trkpt>
      <trkpt lat="48.86074" lon="2.34573">
        <ele>91.2</ele>
        <time>2015-06-15T20:33:13.770Z</time>
      </trkpt>
      <trkpt lat="48.86069" lon="2.34584">
        <ele>91.6</ele>
        <time>2015-06-15T20:33:15.813Z</time>
      </trkpt>
      <trkpt lat="48.86067" lon="2.34589">
        <ele>91.8</ele>
        <time>2015-06-15T20:33:16.828Z</time>
      </trkpt>
      <trkpt lat="48.86061" lon="2.34596">
        <ele>91.7</ele>
        <time>2015-06-15T20:33:18.779Z</time>
      </trkpt>
      <trkpt lat="48.86057" lon="2.346">
        <ele>91.7</ele>
        <time>2015-06-15T20:33:19.796Z</time>
      </trkpt>
      <trkpt lat="48.86049" lon="2.34607">
        <ele>92.5</ele>
        <time>2015-06-15T20:33:21.797Z</time>
      </trkpt>
      <trkpt lat="48.86047" lon="2.3461">
        <ele>93.1</ele>
        <time>2015-06-15T20:33:22.815Z</time>
      </trkpt>
      <trkpt lat="48.8604" lon="2.34617">
        <ele>94.1</ele>
        <time>2015-06-15T20:33:24.854Z</time>
      </trkpt>
      <trkpt lat="48.86037" lon="2.34621">
        <ele>94.4</ele>
        <time>2015-06-15T20:33:25.740Z</time>
      </trkpt>
      <trkpt lat="48.86032" lon="2.34629">
        <ele>95.2</ele>
        <time>2015-06-15T20:33:27.819Z</time>
      </trkpt>
      <trkpt lat="48.86028" lon="2.34632">
        <ele>95.4</ele>
        <time>2015-06-15T20:33:28.881Z</time>
      </trkpt>
      <trkpt lat="48.86022" lon="2.34639">
        <ele>95.9</ele>
        <time>2015-06-15T20:33:30.790Z</time>
      </trkpt>
      <trkpt lat="48.8602" lon="2.34641">
        <ele>96</ele>
        <time>2015-06-15T20:33:31.807Z</time>
      </trkpt>
      <trkpt lat="48.86015" lon="2.34649">
        <ele>96.9</ele>
        <time>2015-06-15T20:33:33.744Z</time>
      </trkpt>
      <trkpt lat="48.86012" lon="2.34651">
        <ele>97.4</ele>
        <time>2015-06-15T20:33:34.800Z</time>
      </trkpt>
      <trkpt lat="48.86007" lon="2.34655">
        <ele>97.5</ele>
        <time>2015-06-15T20:33:36.826Z</time>
      </trkpt>
      <trkpt lat="48.86003" lon="2.34657">
        <ele>97.3</ele>
        <time>2015-06-15T20:33:37.862Z</time>
      </trkpt>
      <trkpt lat="48.85998" lon="2.34668">
        <ele>98.7</ele>
        <time>2015-06-15T20:33:40.834Z</time>
      </trkpt>
      <trkpt lat="48.85996" lon="2.34669">
        <ele>98.9</ele>
        <time>2015-06-15T20:33:41.742Z</time>
      </trkpt>
      <trkpt lat="48.8599" lon="2.34677">
        <ele>100.3</ele>
        <time>2015-06-15T20:33:44.799Z</time>
      </trkpt>
      <trkpt lat="48.85988" lon="2.3468">
        <ele>101</ele>
        <time>2015-06-15T20:33:45.821Z</time>
      </trkpt>
      <trkpt lat="48.85986" lon="2.34689">
        <ele>102.2</ele>
        <time>2015-06-15T20:33:47.772Z</time>
      </trkpt>
      <trkpt lat="48.85982" lon="2.34691">
        <ele>102.5</ele>
        <time>2015-06-15T20:33:48.789Z</time>
      </trkpt>
      <trkpt lat="48.85974" lon="2.34694">
        <ele>103.7</ele>
        <time>2015-06-15T20:33:51.796Z</time>
      </trkpt>
      <trkpt lat="48.85971" lon="2.34695">
        <ele>104.1</ele>
        <time>2015-06-15T20:33:52.800Z</time>
      </trkpt>
      <trkpt lat="48.85963" lon="2.34699">
        <ele>104.7</ele>
        <time>2015-06-15T20:33:55.824Z</time>
      </trkpt>
      <trkpt lat="48.85962" lon="2.347">
        <ele>104.7</ele>
        <time>2015-06-15T20:33:56.839Z</time>
      </trkpt>
      <trkpt lat="48.85959" lon="2.34702">
        <ele>104.6</ele>
        <time>2015-06-15T20:35:56.418Z</time>
      </trkpt>
    </trkseg>
  </trk>
</gpx>